<?xml version='1.0' encoding='UTF-8'?><gpx version="1.1" creator="JPX - https://github.com/jenetics/jpx" xmlns="http://www.topografix.com/GPX/1/1"><trk><trkseg><trkpt lat="40.893894" lon="14.287856"><ele>80.0</ele><time>2026-04-15T14:32:53.552Z</time></trkpt><trkpt lat="40.8938417" lon="14.28776"><ele>80.0</ele><time>2026-04-15T14:34:32.775Z</time></trkpt><trkpt lat="40.89381" lon="14.287865"><ele>80.0</ele><time>2026-04-15T14:34:36.304Z</time></trkpt><trkpt lat="40.8937717" lon="14.287785"><ele>80.0</ele><time>2026-04-15T14:34:52.303Z</time></trkpt><trkpt lat="40.8937433" lon="14.2876833"><ele>80.0</ele><time>2026-04-15T14:34:56.306Z</time></trkpt><trkpt lat="40.893785" lon="14.287595"><ele>80.0</ele><time>2026-04-15T14:35:00.304Z</time></trkpt><trkpt lat="40.8938433" lon="14.2875117"><ele>80.0</ele><time>2026-04-15T14:35:03.304Z</time></trkpt><trkpt lat="40.893855" lon="14.2874183"><ele>80.0</ele><time>2026-04-15T14:35:05.303Z</time></trkpt><trkpt lat="40.893845" lon="14.2873017"><ele>80.0</ele><time>2026-04-15T14:35:07.304Z</time></trkpt><trkpt lat="40.89382" lon="14.2871667"><ele>80.0</ele><time>2026-04-15T14:35:09.304Z</time></trkpt><trkpt lat="40.89379" lon="14.28704"><ele>80.0</ele><time>2026-04-15T14:35:11.304Z</time></trkpt><trkpt lat="40.8937533" lon="14.2869017"><ele>80.0</ele><time>2026-04-15T14:35:13.304Z</time></trkpt><trkpt lat="40.8936933" lon="14.2867533"><ele>80.0</ele><time>2026-04-15T14:35:15.304Z</time></trkpt><trkpt lat="40.8936417" lon="14.2866233"><ele>80.0</ele><time>2026-04-15T14:35:17.305Z</time></trkpt><trkpt lat="40.8935933" lon="14.2865067"><ele>80.0</ele><time>2026-04-15T14:35:19.303Z</time></trkpt><trkpt lat="40.8935433" lon="14.286385"><ele>80.0</ele><time>2026-04-15T14:35:21.305Z</time></trkpt><trkpt lat="40.8935117" lon="14.286275"><ele>80.16666666666667</ele><time>2026-04-15T14:35:23.305Z</time></trkpt><trkpt lat="40.8934983" lon="14.2861817"><ele>80.33333333333334</ele><time>2026-04-15T14:35:25.305Z</time></trkpt><trkpt lat="40.8934733" lon="14.286075"><ele>80.5</ele><time>2026-04-15T14:35:27.306Z</time></trkpt><trkpt lat="40.893425" lon="14.28595"><ele>80.66666666666667</ele><time>2026-04-15T14:35:29.304Z</time></trkpt><trkpt lat="40.8933917" lon="14.2858783"><ele>80.83333333333333</ele><time>2026-04-15T14:35:30.305Z</time></trkpt><trkpt lat="40.89336" lon="14.2858017"><ele>81.0</ele><time>2026-04-15T14:35:31.303Z</time></trkpt><trkpt lat="40.8933317" lon="14.285725"><ele>81.19999999999999</ele><time>2026-04-15T14:35:32.305Z</time></trkpt><trkpt lat="40.8933033" lon="14.2856483"><ele>81.39999999999999</ele><time>2026-04-15T14:35:33.303Z</time></trkpt><trkpt lat="40.8932567" lon="14.2855017"><ele>81.6</ele><time>2026-04-15T14:35:35.303Z</time></trkpt><trkpt lat="40.8932017" lon="14.2853683"><ele>81.8</ele><time>2026-04-15T14:35:37.304Z</time></trkpt><trkpt lat="40.893135" lon="14.2852217"><ele>82.0</ele><time>2026-04-15T14:35:39.305Z</time></trkpt><trkpt lat="40.8930767" lon="14.285085"><ele>82.6</ele><time>2026-04-15T14:35:41.305Z</time></trkpt><trkpt lat="40.89307" lon="14.2849433"><ele>83.19999999999999</ele><time>2026-04-15T14:35:42.304Z</time></trkpt><trkpt lat="40.8929967" lon="14.2848233"><ele>83.8</ele><time>2026-04-15T14:35:44.304Z</time></trkpt><trkpt lat="40.8929317" lon="14.28472"><ele>84.4</ele><time>2026-04-15T14:35:46.304Z</time></trkpt><trkpt lat="40.892855" lon="14.2846133"><ele>85.0</ele><time>2026-04-15T14:35:48.304Z</time></trkpt><trkpt lat="40.8927817" lon="14.2845167"><ele>85.2</ele><time>2026-04-15T14:35:50.303Z</time></trkpt><trkpt lat="40.8927217" lon="14.2844267"><ele>85.4</ele><time>2026-04-15T14:35:52.304Z</time></trkpt><trkpt lat="40.8926767" lon="14.2843683"><ele>85.6</ele><time>2026-04-15T14:35:53.304Z</time></trkpt><trkpt lat="40.8925967" lon="14.2842533"><ele>85.8</ele><time>2026-04-15T14:35:55.303Z</time></trkpt><trkpt lat="40.8925233" lon="14.284135"><ele>86.0</ele><time>2026-04-15T14:35:57.303Z</time></trkpt><trkpt lat="40.8924417" lon="14.2840383"><ele>85.8</ele><time>2026-04-15T14:35:59.304Z</time></trkpt><trkpt lat="40.89237" lon="14.2839383"><ele>85.6</ele><time>2026-04-15T14:36:01.303Z</time></trkpt><trkpt lat="40.8923033" lon="14.28386"><ele>85.4</ele><time>2026-04-15T14:36:03.304Z</time></trkpt><trkpt lat="40.89224" lon="14.283745"><ele>85.2</ele><time>2026-04-15T14:36:05.305Z</time></trkpt><trkpt lat="40.892185" lon="14.28366"><ele>85.0</ele><time>2026-04-15T14:36:07.304Z</time></trkpt><trkpt lat="40.8921367" lon="14.2835883"><ele>85.0</ele><time>2026-04-15T14:36:31.303Z</time></trkpt><trkpt lat="40.89208" lon="14.2835383"><ele>85.0</ele><time>2026-04-15T14:36:35.304Z</time></trkpt><trkpt lat="40.891995" lon="14.2834717"><ele>85.0</ele><time>2026-04-15T14:36:38.304Z</time></trkpt><trkpt lat="40.8919117" lon="14.28342"><ele>85.0</ele><time>2026-04-15T14:36:40.304Z</time></trkpt><trkpt lat="40.8918017" lon="14.2833517"><ele>85.0</ele><time>2026-04-15T14:36:42.304Z</time></trkpt><trkpt lat="40.89169" lon="14.2832883"><ele>84.75</ele><time>2026-04-15T14:36:44.304Z</time></trkpt><trkpt lat="40.89159" lon="14.2832033"><ele>84.5</ele><time>2026-04-15T14:36:46.303Z</time></trkpt><trkpt lat="40.8914917" lon="14.2831383"><ele>84.25</ele><time>2026-04-15T14:36:48.311Z</time></trkpt><trkpt lat="40.891385" lon="14.283075"><ele>84.0</ele><time>2026-04-15T14:36:50.305Z</time></trkpt><trkpt lat="40.8912817" lon="14.2830333"><ele>84.6</ele><time>2026-04-15T14:36:52.303Z</time></trkpt><trkpt lat="40.8911833" lon="14.2829767"><ele>85.2</ele><time>2026-04-15T14:36:54.304Z</time></trkpt><trkpt lat="40.8910933" lon="14.2829083"><ele>85.8</ele><time>2026-04-15T14:36:56.303Z</time></trkpt><trkpt lat="40.8910067" lon="14.28285"><ele>86.39999999999999</ele><time>2026-04-15T14:36:58.304Z</time></trkpt><trkpt lat="40.8909083" lon="14.2827683"><ele>87.0</ele><time>2026-04-15T14:37:00.304Z</time></trkpt><trkpt lat="40.89085" lon="14.282725"><ele>87.25</ele><time>2026-04-15T14:37:01.305Z</time></trkpt><trkpt lat="40.8907383" lon="14.28268"><ele>87.5</ele><time>2026-04-15T14:37:03.303Z</time></trkpt><trkpt lat="40.890625" lon="14.2826617"><ele>87.75</ele><time>2026-04-15T14:37:05.304Z</time></trkpt><trkpt lat="40.8905117" lon="14.28264"><ele>88.0</ele><time>2026-04-15T14:37:07.303Z</time></trkpt><trkpt lat="40.8903983" lon="14.28264"><ele>88.0</ele><time>2026-04-15T14:37:09.307Z</time></trkpt><trkpt lat="40.8902867" lon="14.2826383"><ele>88.0</ele><time>2026-04-15T14:37:11.305Z</time></trkpt><trkpt lat="40.8901617" lon="14.2826233"><ele>88.0</ele><time>2026-04-15T14:37:13.304Z</time></trkpt><trkpt lat="40.890045" lon="14.2826117"><ele>88.0</ele><time>2026-04-15T14:37:15.303Z</time></trkpt><trkpt lat="40.8899333" lon="14.2826083"><ele>87.33333333333333</ele><time>2026-04-15T14:37:17.304Z</time></trkpt><trkpt lat="40.8898283" lon="14.2825833"><ele>86.66666666666666</ele><time>2026-04-15T14:37:19.304Z</time></trkpt><trkpt lat="40.8897567" lon="14.282555"><ele>86.0</ele><time>2026-04-15T14:37:21.303Z</time></trkpt><trkpt lat="40.8897967" lon="14.282465"><ele>85.33333333333333</ele><time>2026-04-15T14:37:24.304Z</time></trkpt><trkpt lat="40.889865" lon="14.2824083"><ele>84.66666666666667</ele><time>2026-04-15T14:37:26.304Z</time></trkpt><trkpt lat="40.8899517" lon="14.2823483"><ele>84.0</ele><time>2026-04-15T14:37:28.304Z</time></trkpt><trkpt lat="40.8900533" lon="14.2822817"><ele>84.4</ele><time>2026-04-15T14:37:30.305Z</time></trkpt><trkpt lat="40.8901567" lon="14.282185"><ele>84.80000000000001</ele><time>2026-04-15T14:37:32.304Z</time></trkpt><trkpt lat="40.8902383" lon="14.2820817"><ele>85.19999999999999</ele><time>2026-04-15T14:37:34.304Z</time></trkpt><trkpt lat="40.89027" lon="14.2819667"><ele>85.6</ele><time>2026-04-15T14:37:36.305Z</time></trkpt><trkpt lat="40.8902467" lon="14.2818533"><ele>86.0</ele><time>2026-04-15T14:37:38.305Z</time></trkpt><trkpt lat="40.890215" lon="14.28176"><ele>86.0</ele><time>2026-04-15T14:37:39.305Z</time></trkpt><trkpt lat="40.8901867" lon="14.2816783"><ele>86.0</ele><time>2026-04-15T14:37:40.303Z</time></trkpt><trkpt lat="40.8901567" lon="14.2815917"><ele>86.0</ele><time>2026-04-15T14:37:41.305Z</time></trkpt><trkpt lat="40.8900983" lon="14.2814633"><ele>86.0</ele><time>2026-04-15T14:37:43.304Z</time></trkpt><trkpt lat="40.8900417" lon="14.2813417"><ele>86.0</ele><time>2026-04-15T14:37:45.305Z</time></trkpt><trkpt lat="40.8900033" lon="14.2812333"><ele>85.8</ele><time>2026-04-15T14:37:47.305Z</time></trkpt><trkpt lat="40.8900367" lon="14.28113"><ele>85.6</ele><time>2026-04-15T14:37:50.304Z</time></trkpt><trkpt lat="40.8900967" lon="14.2810667"><ele>85.4</ele><time>2026-04-15T14:37:52.304Z</time></trkpt><trkpt lat="40.8901867" lon="14.2809833"><ele>85.2</ele><time>2026-04-15T14:37:54.304Z</time></trkpt><trkpt lat="40.890275" lon="14.2809"><ele>85.0</ele><time>2026-04-15T14:37:56.304Z</time></trkpt><trkpt lat="40.8903667" lon="14.2807967"><ele>85.0</ele><time>2026-04-15T14:37:58.304Z</time></trkpt><trkpt lat="40.89042" lon="14.2807467"><ele>85.0</ele><time>2026-04-15T14:37:59.304Z</time></trkpt><trkpt lat="40.8904717" lon="14.2806933"><ele>85.0</ele><time>2026-04-15T14:38:00.304Z</time></trkpt><trkpt lat="40.8905167" lon="14.2806333"><ele>85.0</ele><time>2026-04-15T14:38:01.306Z</time></trkpt><trkpt lat="40.89061" lon="14.2805183"><ele>85.0</ele><time>2026-04-15T14:38:03.304Z</time></trkpt><trkpt lat="40.8906567" lon="14.28046"><ele>85.0</ele><time>2026-04-15T14:38:04.304Z</time></trkpt><trkpt lat="40.8907617" lon="14.2803533"><ele>85.16666666666666</ele><time>2026-04-15T14:38:06.303Z</time></trkpt><trkpt lat="40.8908233" lon="14.2803133"><ele>85.33333333333333</ele><time>2026-04-15T14:38:07.304Z</time></trkpt><trkpt lat="40.8908833" lon="14.280265"><ele>85.5</ele><time>2026-04-15T14:38:08.304Z</time></trkpt><trkpt lat="40.890935" lon="14.280215"><ele>85.66666666666667</ele><time>2026-04-15T14:38:09.305Z</time></trkpt><trkpt lat="40.890985" lon="14.28016"><ele>85.83333333333334</ele><time>2026-04-15T14:38:10.304Z</time></trkpt><trkpt lat="40.8910333" lon="14.280105"><ele>86.0</ele><time>2026-04-15T14:38:11.304Z</time></trkpt><trkpt lat="40.8911317" lon="14.280005"><ele>86.19999999999999</ele><time>2026-04-15T14:38:13.304Z</time></trkpt><trkpt lat="40.8912283" lon="14.2799067"><ele>86.39999999999999</ele><time>2026-04-15T14:38:15.305Z</time></trkpt><trkpt lat="40.89133" lon="14.2798067"><ele>86.6</ele><time>2026-04-15T14:38:17.304Z</time></trkpt><trkpt lat="40.8913833" lon="14.2797567"><ele>86.8</ele><time>2026-04-15T14:38:18.305Z</time></trkpt><trkpt lat="40.89148" lon="14.2796617"><ele>87.0</ele><time>2026-04-15T14:38:20.304Z</time></trkpt><trkpt lat="40.891575" lon="14.2795733"><ele>87.6</ele><time>2026-04-15T14:38:22.304Z</time></trkpt><trkpt lat="40.8916767" lon="14.27948"><ele>88.19999999999999</ele><time>2026-04-15T14:38:24.306Z</time></trkpt><trkpt lat="40.8917717" lon="14.2793817"><ele>88.8</ele><time>2026-04-15T14:38:26.304Z</time></trkpt><trkpt lat="40.8918483" lon="14.2792983"><ele>89.4</ele><time>2026-04-15T14:38:28.304Z</time></trkpt><trkpt lat="40.8918783" lon="14.2792183"><ele>90.0</ele><time>2026-04-15T14:38:30.306Z</time></trkpt><trkpt lat="40.8918533" lon="14.2791283"><ele>90.0</ele><time>2026-04-15T14:38:32.304Z</time></trkpt><trkpt lat="40.89179" lon="14.2790583"><ele>90.0</ele><time>2026-04-15T14:38:34.304Z</time></trkpt><trkpt lat="40.8916633" lon="14.2789933"><ele>90.0</ele><time>2026-04-15T14:38:36.305Z</time></trkpt><trkpt lat="40.891605" lon="14.2789583"><ele>90.0</ele><time>2026-04-15T14:38:37.305Z</time></trkpt><trkpt lat="40.8914967" lon="14.2789"><ele>90.0</ele><time>2026-04-15T14:38:39.304Z</time></trkpt><trkpt lat="40.8913883" lon="14.2788383"><ele>90.5</ele><time>2026-04-15T14:38:41.305Z</time></trkpt><trkpt lat="40.8913267" lon="14.2788133"><ele>91.0</ele><time>2026-04-15T14:38:42.304Z</time></trkpt><trkpt lat="40.89122" lon="14.2787567"><ele>91.5</ele><time>2026-04-15T14:38:44.305Z</time></trkpt><trkpt lat="40.89116" lon="14.278725"><ele>92.0</ele><time>2026-04-15T14:38:45.304Z</time></trkpt><trkpt lat="40.8910433" lon="14.278675"><ele>92.5</ele><time>2026-04-15T14:38:47.304Z</time></trkpt><trkpt lat="40.8909783" lon="14.2786533"><ele>93.0</ele><time>2026-04-15T14:38:48.304Z</time></trkpt><trkpt lat="40.8909167" lon="14.27863"><ele>93.0</ele><time>2026-04-15T14:38:49.304Z</time></trkpt><trkpt lat="40.8908017" lon="14.27858"><ele>93.0</ele><time>2026-04-15T14:38:51.304Z</time></trkpt><trkpt lat="40.8907017" lon="14.2785233"><ele>93.0</ele><time>2026-04-15T14:38:53.305Z</time></trkpt><trkpt lat="40.8906033" lon="14.27846"><ele>93.0</ele><time>2026-04-15T14:38:55.305Z</time></trkpt><trkpt lat="40.8905033" lon="14.2783717"><ele>93.0</ele><time>2026-04-15T14:38:57.305Z</time></trkpt><trkpt lat="40.8904083" lon="14.2782933"><ele>93.0</ele><time>2026-04-15T14:38:59.304Z</time></trkpt><trkpt lat="40.8903083" lon="14.2782267"><ele>93.0</ele><time>2026-04-15T14:39:01.304Z</time></trkpt><trkpt lat="40.8902033" lon="14.2781683"><ele>93.0</ele><time>2026-04-15T14:39:03.305Z</time></trkpt><trkpt lat="40.8901" lon="14.2781083"><ele>92.75</ele><time>2026-04-15T14:39:05.305Z</time></trkpt><trkpt lat="40.8899967" lon="14.2780683"><ele>92.5</ele><time>2026-04-15T14:39:07.304Z</time></trkpt><trkpt lat="40.8898767" lon="14.2780217"><ele>92.25</ele><time>2026-04-15T14:39:09.304Z</time></trkpt><trkpt lat="40.8897683" lon="14.2779733"><ele>92.0</ele><time>2026-04-15T14:39:11.305Z</time></trkpt><trkpt lat="40.8896483" lon="14.2779333"><ele>92.0</ele><time>2026-04-15T14:39:13.304Z</time></trkpt><trkpt lat="40.8895283" lon="14.2779033"><ele>92.0</ele><time>2026-04-15T14:39:15.305Z</time></trkpt><trkpt lat="40.88941" lon="14.277865"><ele>92.0</ele><time>2026-04-15T14:39:17.306Z</time></trkpt><trkpt lat="40.8892867" lon="14.27784"><ele>92.0</ele><time>2026-04-15T14:39:19.304Z</time></trkpt><trkpt lat="40.8892217" lon="14.2778333"><ele>92.0</ele><time>2026-04-15T14:39:20.304Z</time></trkpt><trkpt lat="40.8891217" lon="14.2778167"><ele>91.66666666666667</ele><time>2026-04-15T14:39:22.305Z</time></trkpt><trkpt lat="40.889045" lon="14.2777767"><ele>91.33333333333334</ele><time>2026-04-15T14:39:24.305Z</time></trkpt><trkpt lat="40.8889733" lon="14.277745"><ele>91.0</ele><time>2026-04-15T14:39:26.303Z</time></trkpt><trkpt lat="40.888895" lon="14.2776983"><ele>90.66666666666667</ele><time>2026-04-15T14:39:28.305Z</time></trkpt><trkpt lat="40.8888167" lon="14.2776267"><ele>90.33333333333333</ele><time>2026-04-15T14:39:30.305Z</time></trkpt><trkpt lat="40.8887267" lon="14.2775567"><ele>90.0</ele><time>2026-04-15T14:39:32.305Z</time></trkpt><trkpt lat="40.888625" lon="14.2774967"><ele>90.0</ele><time>2026-04-15T14:39:34.304Z</time></trkpt><trkpt lat="40.8885317" lon="14.2774317"><ele>90.0</ele><time>2026-04-15T14:39:36.306Z</time></trkpt><trkpt lat="40.888435" lon="14.2773667"><ele>90.0</ele><time>2026-04-15T14:39:38.306Z</time></trkpt><trkpt lat="40.8883483" lon="14.2772817"><ele>90.0</ele><time>2026-04-15T14:39:40.303Z</time></trkpt><trkpt lat="40.88825" lon="14.2771983"><ele>90.0</ele><time>2026-04-15T14:39:42.304Z</time></trkpt><trkpt lat="40.888155" lon="14.2771117"><ele>90.0</ele><time>2026-04-15T14:39:44.305Z</time></trkpt><trkpt lat="40.8880567" lon="14.2770417"><ele>90.0</ele><time>2026-04-15T14:39:46.304Z</time></trkpt><trkpt lat="40.8879583" lon="14.2769583"><ele>90.0</ele><time>2026-04-15T14:39:48.305Z</time></trkpt><trkpt lat="40.8878583" lon="14.276905"><ele>90.0</ele><time>2026-04-15T14:39:50.305Z</time></trkpt><trkpt lat="40.8877567" lon="14.276845"><ele>90.0</ele><time>2026-04-15T14:39:52.305Z</time></trkpt><trkpt lat="40.8876483" lon="14.2767783"><ele>89.85714285714285</ele><time>2026-04-15T14:39:54.305Z</time></trkpt><trkpt lat="40.88759" lon="14.27674"><ele>89.71428571428572</ele><time>2026-04-15T14:39:55.305Z</time></trkpt><trkpt lat="40.8875283" lon="14.2767083"><ele>89.57142857142857</ele><time>2026-04-15T14:39:56.305Z</time></trkpt><trkpt lat="40.88747" lon="14.2766717"><ele>89.42857142857142</ele><time>2026-04-15T14:39:57.305Z</time></trkpt><trkpt lat="40.8874133" lon="14.2766283"><ele>89.28571428571428</ele><time>2026-04-15T14:39:58.304Z</time></trkpt><trkpt lat="40.88735" lon="14.2765783"><ele>89.14285714285714</ele><time>2026-04-15T14:39:59.305Z</time></trkpt><trkpt lat="40.8872933" lon="14.2765383"><ele>89.0</ele><time>2026-04-15T14:40:00.304Z</time></trkpt><trkpt lat="40.8871817" lon="14.27648"><ele>89.0</ele><time>2026-04-15T14:40:02.304Z</time></trkpt><trkpt lat="40.8871233" lon="14.2764483"><ele>89.0</ele><time>2026-04-15T14:40:03.304Z</time></trkpt><trkpt lat="40.887015" lon="14.276385"><ele>89.0</ele><time>2026-04-15T14:40:05.305Z</time></trkpt><trkpt lat="40.88691" lon="14.2763083"><ele>89.0</ele><time>2026-04-15T14:40:07.305Z</time></trkpt><trkpt lat="40.8868133" lon="14.2762217"><ele>89.0</ele><time>2026-04-15T14:40:09.305Z</time></trkpt><trkpt lat="40.88672" lon="14.2761367"><ele>89.25</ele><time>2026-04-15T14:40:11.305Z</time></trkpt><trkpt lat="40.8866267" lon="14.2760533"><ele>89.5</ele><time>2026-04-15T14:40:13.304Z</time></trkpt><trkpt lat="40.8865333" lon="14.2759567"><ele>89.75</ele><time>2026-04-15T14:40:15.305Z</time></trkpt><trkpt lat="40.886435" lon="14.2758633"><ele>90.0</ele><time>2026-04-15T14:40:17.305Z</time></trkpt><trkpt lat="40.8863317" lon="14.2757767"><ele>90.0</ele><time>2026-04-15T14:40:19.304Z</time></trkpt><trkpt lat="40.8862233" lon="14.2756933"><ele>90.0</ele><time>2026-04-15T14:40:21.304Z</time></trkpt><trkpt lat="40.88612" lon="14.2756067"><ele>90.0</ele><time>2026-04-15T14:40:23.305Z</time></trkpt><trkpt lat="40.8860667" lon="14.27556"><ele>90.0</ele><time>2026-04-15T14:40:24.305Z</time></trkpt><trkpt lat="40.8859617" lon="14.275475"><ele>90.0</ele><time>2026-04-15T14:40:26.305Z</time></trkpt><trkpt lat="40.8858533" lon="14.275395"><ele>90.4</ele><time>2026-04-15T14:40:28.304Z</time></trkpt><trkpt lat="40.8857967" lon="14.2753483"><ele>90.8</ele><time>2026-04-15T14:40:29.305Z</time></trkpt><trkpt lat="40.8856883" lon="14.27527"><ele>91.19999999999999</ele><time>2026-04-15T14:40:31.305Z</time></trkpt><trkpt lat="40.88558" lon="14.275195"><ele>91.6</ele><time>2026-04-15T14:40:33.305Z</time></trkpt><trkpt lat="40.885475" lon="14.2751033"><ele>92.0</ele><time>2026-04-15T14:40:35.305Z</time></trkpt><trkpt lat="40.8854217" lon="14.2750483"><ele>92.0</ele><time>2026-04-15T14:40:36.305Z</time></trkpt><trkpt lat="40.8853667" lon="14.275"><ele>92.0</ele><time>2026-04-15T14:40:37.305Z</time></trkpt><trkpt lat="40.8853117" lon="14.2749517"><ele>92.0</ele><time>2026-04-15T14:40:38.305Z</time></trkpt><trkpt lat="40.885255" lon="14.2748983"><ele>92.0</ele><time>2026-04-15T14:40:39.305Z</time></trkpt><trkpt lat="40.8852017" lon="14.2748483"><ele>92.0</ele><time>2026-04-15T14:40:40.305Z</time></trkpt><trkpt lat="40.8851417" lon="14.2747967"><ele>92.0</ele><time>2026-04-15T14:40:41.304Z</time></trkpt><trkpt lat="40.8850767" lon="14.2747483"><ele>92.0</ele><time>2026-04-15T14:40:42.305Z</time></trkpt><trkpt lat="40.8850233" lon="14.2746983"><ele>91.8</ele><time>2026-04-15T14:40:43.305Z</time></trkpt><trkpt lat="40.8849733" lon="14.2746433"><ele>91.6</ele><time>2026-04-15T14:40:44.305Z</time></trkpt><trkpt lat="40.8848733" lon="14.2745483"><ele>91.39999999999999</ele><time>2026-04-15T14:40:46.305Z</time></trkpt><trkpt lat="40.88478" lon="14.2744517"><ele>91.19999999999999</ele><time>2026-04-15T14:40:48.305Z</time></trkpt><trkpt lat="40.8847333" lon="14.274395"><ele>91.0</ele><time>2026-04-15T14:40:49.304Z</time></trkpt><trkpt lat="40.884635" lon="14.2742933"><ele>91.0</ele><time>2026-04-15T14:40:51.305Z</time></trkpt><trkpt lat="40.8845817" lon="14.2742417"><ele>91.0</ele><time>2026-04-15T14:40:52.304Z</time></trkpt><trkpt lat="40.8845283" lon="14.27419"><ele>91.0</ele><time>2026-04-15T14:40:53.304Z</time></trkpt><trkpt lat="40.8844667" lon="14.2741367"><ele>91.0</ele><time>2026-04-15T14:40:54.305Z</time></trkpt><trkpt lat="40.8844167" lon="14.2740833"><ele>91.0</ele><time>2026-04-15T14:40:55.305Z</time></trkpt><trkpt lat="40.8843633" lon="14.274035"><ele>91.0</ele><time>2026-04-15T14:40:56.305Z</time></trkpt><trkpt lat="40.8842767" lon="14.2739467"><ele>91.0</ele><time>2026-04-15T14:40:58.304Z</time></trkpt><trkpt lat="40.8841767" lon="14.27385"><ele>91.5</ele><time>2026-04-15T14:41:00.305Z</time></trkpt><trkpt lat="40.8840717" lon="14.2737567"><ele>92.0</ele><time>2026-04-15T14:41:02.304Z</time></trkpt><trkpt lat="40.88402" lon="14.2737"><ele>92.5</ele><time>2026-04-15T14:41:03.305Z</time></trkpt><trkpt lat="40.8839733" lon="14.2736433"><ele>93.0</ele><time>2026-04-15T14:41:04.304Z</time></trkpt><trkpt lat="40.8839233" lon="14.2735917"><ele>93.5</ele><time>2026-04-15T14:41:05.304Z</time></trkpt><trkpt lat="40.8838683" lon="14.2735417"><ele>94.0</ele><time>2026-04-15T14:41:06.305Z</time></trkpt><trkpt lat="40.8837667" lon="14.27345"><ele>94.0</ele><time>2026-04-15T14:41:08.305Z</time></trkpt><trkpt lat="40.8836683" lon="14.2733567"><ele>94.0</ele><time>2026-04-15T14:41:10.305Z</time></trkpt><trkpt lat="40.8835683" lon="14.2732633"><ele>94.0</ele><time>2026-04-15T14:41:12.305Z</time></trkpt><trkpt lat="40.8835183" lon="14.2732117"><ele>94.0</ele><time>2026-04-15T14:41:13.305Z</time></trkpt><trkpt lat="40.88342" lon="14.27312"><ele>94.0</ele><time>2026-04-15T14:41:15.305Z</time></trkpt><trkpt lat="40.88333" lon="14.2730217"><ele>94.4</ele><time>2026-04-15T14:41:17.305Z</time></trkpt><trkpt lat="40.8832467" lon="14.272935"><ele>94.80000000000001</ele><time>2026-04-15T14:41:19.304Z</time></trkpt><trkpt lat="40.8831617" lon="14.27285"><ele>95.19999999999999</ele><time>2026-04-15T14:41:21.305Z</time></trkpt><trkpt lat="40.883075" lon="14.2727717"><ele>95.6</ele><time>2026-04-15T14:41:23.306Z</time></trkpt><trkpt lat="40.88299" lon="14.2726817"><ele>96.0</ele><time>2026-04-15T14:41:25.305Z</time></trkpt><trkpt lat="40.8829033" lon="14.2725883"><ele>96.0</ele><time>2026-04-15T14:41:27.304Z</time></trkpt><trkpt lat="40.882815" lon="14.2724883"><ele>96.0</ele><time>2026-04-15T14:41:29.305Z</time></trkpt><trkpt lat="40.88273" lon="14.27239"><ele>96.0</ele><time>2026-04-15T14:41:31.305Z</time></trkpt><trkpt lat="40.8826417" lon="14.2723033"><ele>96.0</ele><time>2026-04-15T14:41:33.304Z</time></trkpt><trkpt lat="40.8825567" lon="14.2722183"><ele>96.0</ele><time>2026-04-15T14:41:35.305Z</time></trkpt><trkpt lat="40.8824783" lon="14.2721333"><ele>95.19999999999999</ele><time>2026-04-15T14:41:37.304Z</time></trkpt><trkpt lat="40.8824083" lon="14.2720433"><ele>94.39999999999999</ele><time>2026-04-15T14:41:39.305Z</time></trkpt><trkpt lat="40.8823667" lon="14.2719717"><ele>93.6</ele><time>2026-04-15T14:41:41.304Z</time></trkpt><trkpt lat="40.8823483" lon="14.2718667"><ele>92.8</ele><time>2026-04-15T14:41:43.305Z</time></trkpt><trkpt lat="40.8822983" lon="14.2717433"><ele>92.0</ele><time>2026-04-15T14:41:45.304Z</time></trkpt><trkpt lat="40.88221" lon="14.2716533"><ele>92.0</ele><time>2026-04-15T14:41:47.306Z</time></trkpt><trkpt lat="40.88209" lon="14.27164"><ele>92.0</ele><time>2026-04-15T14:41:49.305Z</time></trkpt><trkpt lat="40.8820267" lon="14.2716417"><ele>92.0</ele><time>2026-04-15T14:41:50.305Z</time></trkpt><trkpt lat="40.8819617" lon="14.2716217"><ele>92.0</ele><time>2026-04-15T14:41:51.305Z</time></trkpt><trkpt lat="40.8819067" lon="14.27158"><ele>92.0</ele><time>2026-04-15T14:41:52.304Z</time></trkpt><trkpt lat="40.8818533" lon="14.2715233"><ele>92.0</ele><time>2026-04-15T14:41:53.305Z</time></trkpt><trkpt lat="40.88177" lon="14.271425"><ele>92.16666666666667</ele><time>2026-04-15T14:41:55.305Z</time></trkpt><trkpt lat="40.8817183" lon="14.2713467"><ele>92.33333333333334</ele><time>2026-04-15T14:41:57.305Z</time></trkpt><trkpt lat="40.881745" lon="14.2712383"><ele>92.5</ele><time>2026-04-15T14:42:00.307Z</time></trkpt><trkpt lat="40.8817817" lon="14.271155"><ele>92.66666666666667</ele><time>2026-04-15T14:42:02.305Z</time></trkpt><trkpt lat="40.881835" lon="14.2710683"><ele>92.83333333333333</ele><time>2026-04-15T14:42:04.305Z</time></trkpt><trkpt lat="40.881885" lon="14.2709783"><ele>93.0</ele><time>2026-04-15T14:42:06.304Z</time></trkpt><trkpt lat="40.8819467" lon="14.2709033"><ele>93.16666666666667</ele><time>2026-04-15T14:42:08.304Z</time></trkpt><trkpt lat="40.8820217" lon="14.2708533"><ele>93.33333333333333</ele><time>2026-04-15T14:42:10.304Z</time></trkpt><trkpt lat="40.8820983" lon="14.27083"><ele>93.5</ele><time>2026-04-15T14:42:12.305Z</time></trkpt><trkpt lat="40.882175" lon="14.2707883"><ele>93.66666666666666</ele><time>2026-04-15T14:42:14.304Z</time></trkpt><trkpt lat="40.8822367" lon="14.27069"><ele>93.83333333333333</ele><time>2026-04-15T14:42:16.304Z</time></trkpt><trkpt lat="40.8822567" lon="14.270565"><ele>94.0</ele><time>2026-04-15T14:42:18.305Z</time></trkpt><trkpt lat="40.882265" lon="14.2704167"><ele>94.25</ele><time>2026-04-15T14:42:20.305Z</time></trkpt><trkpt lat="40.882275" lon="14.2702633"><ele>94.5</ele><time>2026-04-15T14:42:22.305Z</time></trkpt><trkpt lat="40.8822867" lon="14.270115"><ele>94.75</ele><time>2026-04-15T14:42:24.304Z</time></trkpt><trkpt lat="40.8823217" lon="14.26997"><ele>95.0</ele><time>2026-04-15T14:42:26.305Z</time></trkpt><trkpt lat="40.8823717" lon="14.2698417"><ele>95.2</ele><time>2026-04-15T14:42:28.305Z</time></trkpt><trkpt lat="40.8824317" lon="14.26972"><ele>95.4</ele><time>2026-04-15T14:42:30.304Z</time></trkpt><trkpt lat="40.88249" lon="14.269595"><ele>95.6</ele><time>2026-04-15T14:42:32.305Z</time></trkpt><trkpt lat="40.8825367" lon="14.269485"><ele>95.8</ele><time>2026-04-15T14:42:34.305Z</time></trkpt><trkpt lat="40.8825983" lon="14.26939"><ele>96.0</ele><time>2026-04-15T14:42:36.305Z</time></trkpt><trkpt lat="40.882655" lon="14.2692717"><ele>96.0</ele><time>2026-04-15T14:42:38.309Z</time></trkpt><trkpt lat="40.8827017" lon="14.26914"><ele>96.0</ele><time>2026-04-15T14:42:40.308Z</time></trkpt><trkpt lat="40.8827517" lon="14.26901"><ele>96.0</ele><time>2026-04-15T14:42:42.308Z</time></trkpt><trkpt lat="40.882805" lon="14.268885"><ele>96.0</ele><time>2026-04-15T14:42:44.307Z</time></trkpt><trkpt lat="40.8828733" lon="14.26876"><ele>96.0</ele><time>2026-04-15T14:42:46.307Z</time></trkpt><trkpt lat="40.88294" lon="14.268635"><ele>96.0</ele><time>2026-04-15T14:42:48.306Z</time></trkpt><trkpt lat="40.8830033" lon="14.2685217"><ele>96.0</ele><time>2026-04-15T14:42:50.309Z</time></trkpt><trkpt lat="40.883055" lon="14.2684017"><ele>96.0</ele><time>2026-04-15T14:42:52.308Z</time></trkpt><trkpt lat="40.88311" lon="14.26828"><ele>96.0</ele><time>2026-04-15T14:42:54.307Z</time></trkpt><trkpt lat="40.8831583" lon="14.268155"><ele>96.0</ele><time>2026-04-15T14:42:56.305Z</time></trkpt><trkpt lat="40.8832017" lon="14.268035"><ele>96.19999999999999</ele><time>2026-04-15T14:42:58.304Z</time></trkpt><trkpt lat="40.8832483" lon="14.2679267"><ele>96.39999999999999</ele><time>2026-04-15T14:43:00.305Z</time></trkpt><trkpt lat="40.8832967" lon="14.2678117"><ele>96.6</ele><time>2026-04-15T14:43:02.305Z</time></trkpt><trkpt lat="40.8833467" lon="14.2676917"><ele>96.8</ele><time>2026-04-15T14:43:04.304Z</time></trkpt><trkpt lat="40.8834" lon="14.2675767"><ele>97.0</ele><time>2026-04-15T14:43:06.306Z</time></trkpt><trkpt lat="40.8834533" lon="14.2674583"><ele>97.39999999999999</ele><time>2026-04-15T14:43:08.305Z</time></trkpt><trkpt lat="40.883515" lon="14.2673483"><ele>97.8</ele><time>2026-04-15T14:43:10.304Z</time></trkpt><trkpt lat="40.88358" lon="14.2672483"><ele>98.2</ele><time>2026-04-15T14:43:12.305Z</time></trkpt><trkpt lat="40.8836483" lon="14.2671433"><ele>98.6</ele><time>2026-04-15T14:43:14.305Z</time></trkpt><trkpt lat="40.8837167" lon="14.26705"><ele>99.0</ele><time>2026-04-15T14:43:16.305Z</time></trkpt><trkpt lat="40.8837917" lon="14.2669467"><ele>99.2</ele><time>2026-04-15T14:43:18.304Z</time></trkpt><trkpt lat="40.8838633" lon="14.2668417"><ele>99.4</ele><time>2026-04-15T14:43:20.305Z</time></trkpt><trkpt lat="40.8839367" lon="14.2667367"><ele>99.6</ele><time>2026-04-15T14:43:22.304Z</time></trkpt><trkpt lat="40.88401" lon="14.2666333"><ele>99.8</ele><time>2026-04-15T14:43:24.305Z</time></trkpt><trkpt lat="40.8840833" lon="14.2665333"><ele>100.0</ele><time>2026-04-15T14:43:26.305Z</time></trkpt><trkpt lat="40.8841517" lon="14.2664383"><ele>100.2</ele><time>2026-04-15T14:43:28.305Z</time></trkpt><trkpt lat="40.8842233" lon="14.2663433"><ele>100.4</ele><time>2026-04-15T14:43:30.305Z</time></trkpt><trkpt lat="40.8842967" lon="14.2662433"><ele>100.6</ele><time>2026-04-15T14:43:32.305Z</time></trkpt><trkpt lat="40.8843733" lon="14.26614"><ele>100.8</ele><time>2026-04-15T14:43:34.306Z</time></trkpt><trkpt lat="40.8844417" lon="14.2660467"><ele>101.0</ele><time>2026-04-15T14:43:36.306Z</time></trkpt><trkpt lat="40.8845183" lon="14.2659533"><ele>101.19999999999999</ele><time>2026-04-15T14:43:38.305Z</time></trkpt><trkpt lat="40.8845933" lon="14.265855"><ele>101.39999999999999</ele><time>2026-04-15T14:43:40.305Z</time></trkpt><trkpt lat="40.8846733" lon="14.2657483"><ele>101.6</ele><time>2026-04-15T14:43:42.308Z</time></trkpt><trkpt lat="40.8847583" lon="14.26564"><ele>101.8</ele><time>2026-04-15T14:43:44.308Z</time></trkpt><trkpt lat="40.8848367" lon="14.2655383"><ele>102.0</ele><time>2026-04-15T14:43:46.305Z</time></trkpt><trkpt lat="40.88491" lon="14.2654283"><ele>102.0</ele><time>2026-04-15T14:43:48.305Z</time></trkpt><trkpt lat="40.8849833" lon="14.265325"><ele>102.0</ele><time>2026-04-15T14:43:50.305Z</time></trkpt><trkpt lat="40.8850567" lon="14.2652233"><ele>102.0</ele><time>2026-04-15T14:43:52.309Z</time></trkpt><trkpt lat="40.88513" lon="14.2651183"><ele>102.0</ele><time>2026-04-15T14:43:54.305Z</time></trkpt><trkpt lat="40.8852067" lon="14.2650083"><ele>102.0</ele><time>2026-04-15T14:43:56.304Z</time></trkpt><trkpt lat="40.8852817" lon="14.264895"><ele>102.19999999999999</ele><time>2026-04-15T14:43:58.305Z</time></trkpt><trkpt lat="40.8853567" lon="14.264785"><ele>102.4</ele><time>2026-04-15T14:44:00.304Z</time></trkpt><trkpt lat="40.88542" lon="14.2646733"><ele>102.6</ele><time>2026-04-15T14:44:02.305Z</time></trkpt><trkpt lat="40.8854867" lon="14.26456"><ele>102.80000000000001</ele><time>2026-04-15T14:44:04.303Z</time></trkpt><trkpt lat="40.8855533" lon="14.2644433"><ele>103.0</ele><time>2026-04-15T14:44:06.303Z</time></trkpt><trkpt lat="40.8856217" lon="14.2643283"><ele>103.0</ele><time>2026-04-15T14:44:08.305Z</time></trkpt><trkpt lat="40.88569" lon="14.2642133"><ele>103.0</ele><time>2026-04-15T14:44:10.307Z</time></trkpt><trkpt lat="40.8857567" lon="14.2641"><ele>103.0</ele><time>2026-04-15T14:44:12.304Z</time></trkpt><trkpt lat="40.8858167" lon="14.26398"><ele>103.0</ele><time>2026-04-15T14:44:14.309Z</time></trkpt><trkpt lat="40.8858783" lon="14.2638617"><ele>103.0</ele><time>2026-04-15T14:44:16.304Z</time></trkpt><trkpt lat="40.8859433" lon="14.263755"><ele>103.60000000000001</ele><time>2026-04-15T14:44:18.304Z</time></trkpt><trkpt lat="40.88601" lon="14.2636667"><ele>104.2</ele><time>2026-04-15T14:44:20.304Z</time></trkpt><trkpt lat="40.8860667" lon="14.2635683"><ele>104.8</ele><time>2026-04-15T14:44:22.306Z</time></trkpt><trkpt lat="40.8861083" lon="14.2634483"><ele>105.4</ele><time>2026-04-15T14:44:24.306Z</time></trkpt><trkpt lat="40.8861717" lon="14.263335"><ele>106.0</ele><time>2026-04-15T14:44:26.304Z</time></trkpt><trkpt lat="40.8862333" lon="14.2632183"><ele>106.4</ele><time>2026-04-15T14:44:28.304Z</time></trkpt><trkpt lat="40.8862867" lon="14.2630933"><ele>106.8</ele><time>2026-04-15T14:44:30.304Z</time></trkpt><trkpt lat="40.8863283" lon="14.2629567"><ele>107.20000000000002</ele><time>2026-04-15T14:44:32.304Z</time></trkpt><trkpt lat="40.886365" lon="14.2628317"><ele>107.60000000000001</ele><time>2026-04-15T14:44:34.304Z</time></trkpt><trkpt lat="40.8863917" lon="14.262725"><ele>108.0</ele><time>2026-04-15T14:44:36.304Z</time></trkpt><trkpt lat="40.886415" lon="14.2625767"><ele>108.0</ele><time>2026-04-15T14:44:38.305Z</time></trkpt><trkpt lat="40.8864167" lon="14.2624883"><ele>108.00000000000001</ele><time>2026-04-15T14:44:39.305Z</time></trkpt><trkpt lat="40.8864617" lon="14.2623633"><ele>108.00000000000001</ele><time>2026-04-15T14:44:41.305Z</time></trkpt><trkpt lat="40.8864267" lon="14.2622383"><ele>108.0</ele><time>2026-04-15T14:44:43.304Z</time></trkpt><trkpt lat="40.8863817" lon="14.2620933"><ele>108.0</ele><time>2026-04-15T14:44:45.305Z</time></trkpt><trkpt lat="40.8863683" lon="14.2619483"><ele>108.2</ele><time>2026-04-15T14:44:47.303Z</time></trkpt><trkpt lat="40.886375" lon="14.2617967"><ele>108.4</ele><time>2026-04-15T14:44:49.305Z</time></trkpt><trkpt lat="40.8863933" lon="14.2616567"><ele>108.60000000000001</ele><time>2026-04-15T14:44:51.304Z</time></trkpt><trkpt lat="40.8864217" lon="14.2615267"><ele>108.80000000000001</ele><time>2026-04-15T14:44:53.305Z</time></trkpt><trkpt lat="40.8864417" lon="14.261395"><ele>109.0</ele><time>2026-04-15T14:44:55.304Z</time></trkpt><trkpt lat="40.8864667" lon="14.2612683"><ele>109.0</ele><time>2026-04-15T14:44:57.306Z</time></trkpt><trkpt lat="40.8864867" lon="14.2611383"><ele>109.0</ele><time>2026-04-15T14:44:59.305Z</time></trkpt><trkpt lat="40.88652" lon="14.2610183"><ele>109.0</ele><time>2026-04-15T14:45:01.303Z</time></trkpt><trkpt lat="40.8865517" lon="14.2609117"><ele>109.0</ele><time>2026-04-15T14:45:03.307Z</time></trkpt><trkpt lat="40.8865833" lon="14.2608083"><ele>109.0</ele><time>2026-04-15T14:45:05.304Z</time></trkpt><trkpt lat="40.886625" lon="14.2607067"><ele>109.2</ele><time>2026-04-15T14:45:07.306Z</time></trkpt><trkpt lat="40.8866533" lon="14.2605933"><ele>109.4</ele><time>2026-04-15T14:45:09.305Z</time></trkpt><trkpt lat="40.8866967" lon="14.2604317"><ele>109.6</ele><time>2026-04-15T14:45:12.308Z</time></trkpt><trkpt lat="40.8867233" lon="14.2603267"><ele>109.8</ele><time>2026-04-15T14:45:14.303Z</time></trkpt><trkpt lat="40.8867467" lon="14.26022"><ele>110.0</ele><time>2026-04-15T14:45:16.306Z</time></trkpt><trkpt lat="40.8867633" lon="14.2601067"><ele>110.4</ele><time>2026-04-15T14:45:18.303Z</time></trkpt><trkpt lat="40.886785" lon="14.2599883"><ele>110.8</ele><time>2026-04-15T14:45:20.305Z</time></trkpt><trkpt lat="40.8868017" lon="14.259885"><ele>111.19999999999999</ele><time>2026-04-15T14:45:22.305Z</time></trkpt><trkpt lat="40.886815" lon="14.2597767"><ele>111.6</ele><time>2026-04-15T14:45:24.305Z</time></trkpt><trkpt lat="40.8868383" lon="14.2596433"><ele>112.0</ele><time>2026-04-15T14:45:26.304Z</time></trkpt><trkpt lat="40.8868633" lon="14.2595133"><ele>112.0</ele><time>2026-04-15T14:45:28.303Z</time></trkpt><trkpt lat="40.8868933" lon="14.2593883"><ele>111.99999999999999</ele><time>2026-04-15T14:45:30.305Z</time></trkpt><trkpt lat="40.8869383" lon="14.2592733"><ele>111.99999999999999</ele><time>2026-04-15T14:45:32.305Z</time></trkpt><trkpt lat="40.886985" lon="14.2591567"><ele>112.0</ele><time>2026-04-15T14:45:34.303Z</time></trkpt><trkpt lat="40.8870333" lon="14.2590433"><ele>112.0</ele><time>2026-04-15T14:45:36.308Z</time></trkpt><trkpt lat="40.8871" lon="14.25894"><ele>112.39999999999999</ele><time>2026-04-15T14:45:38.307Z</time></trkpt><trkpt lat="40.8871533" lon="14.2588167"><ele>112.79999999999998</ele><time>2026-04-15T14:45:40.306Z</time></trkpt><trkpt lat="40.887205" lon="14.25869"><ele>113.2</ele><time>2026-04-15T14:45:42.305Z</time></trkpt><trkpt lat="40.8872567" lon="14.2585567"><ele>113.6</ele><time>2026-04-15T14:45:44.305Z</time></trkpt><trkpt lat="40.8873117" lon="14.25842"><ele>114.0</ele><time>2026-04-15T14:45:46.307Z</time></trkpt><trkpt lat="40.8873767" lon="14.25829"><ele>114.0</ele><time>2026-04-15T14:45:48.305Z</time></trkpt><trkpt lat="40.8874883" lon="14.2582317"><ele>114.0</ele><time>2026-04-15T14:45:50.305Z</time></trkpt><trkpt lat="40.88761" lon="14.2582133"><ele>114.0</ele><time>2026-04-15T14:45:52.306Z</time></trkpt><trkpt lat="40.887725" lon="14.25817"><ele>114.0</ele><time>2026-04-15T14:45:54.307Z</time></trkpt><trkpt lat="40.8878383" lon="14.258105"><ele>114.0</ele><time>2026-04-15T14:45:56.304Z</time></trkpt><trkpt lat="40.887895" lon="14.2580617"><ele>114.0</ele><time>2026-04-15T14:45:57.304Z</time></trkpt><trkpt lat="40.8879733" lon="14.2579317"><ele>114.0</ele><time>2026-04-15T14:45:59.305Z</time></trkpt><trkpt lat="40.888025" lon="14.2577883"><ele>114.0</ele><time>2026-04-15T14:46:01.308Z</time></trkpt><trkpt lat="40.88805" lon="14.2576383"><ele>114.0</ele><time>2026-04-15T14:46:03.308Z</time></trkpt><trkpt lat="40.8880617" lon="14.2574833"><ele>114.0</ele><time>2026-04-15T14:46:05.303Z</time></trkpt><trkpt lat="40.88807" lon="14.2573283"><ele>114.0</ele><time>2026-04-15T14:46:07.303Z</time></trkpt><trkpt lat="40.8881" lon="14.25719"><ele>114.0</ele><time>2026-04-15T14:46:09.305Z</time></trkpt><trkpt lat="40.888125" lon="14.2570483"><ele>114.0</ele><time>2026-04-15T14:46:11.304Z</time></trkpt><trkpt lat="40.88817" lon="14.2569133"><ele>114.0</ele><time>2026-04-15T14:46:13.304Z</time></trkpt><trkpt lat="40.88821" lon="14.2567783"><ele>114.0</ele><time>2026-04-15T14:46:15.304Z</time></trkpt><trkpt lat="40.88824" lon="14.2566417"><ele>114.0</ele><time>2026-04-15T14:46:17.304Z</time></trkpt><trkpt lat="40.8882583" lon="14.2565017"><ele>114.0</ele><time>2026-04-15T14:46:19.304Z</time></trkpt><trkpt lat="40.88825" lon="14.25638"><ele>114.0</ele><time>2026-04-15T14:46:21.304Z</time></trkpt><trkpt lat="40.888185" lon="14.256285"><ele>114.0</ele><time>2026-04-15T14:46:23.305Z</time></trkpt><trkpt lat="40.8880783" lon="14.2562167"><ele>114.0</ele><time>2026-04-15T14:46:25.305Z</time></trkpt><trkpt lat="40.888015" lon="14.256185"><ele>114.0</ele><time>2026-04-15T14:46:26.305Z</time></trkpt><trkpt lat="40.8879533" lon="14.256165"><ele>114.0</ele><time>2026-04-15T14:46:27.303Z</time></trkpt><trkpt lat="40.8878883" lon="14.256145"><ele>114.0</ele><time>2026-04-15T14:46:28.304Z</time></trkpt><trkpt lat="40.8878217" lon="14.2561233"><ele>114.0</ele><time>2026-04-15T14:46:29.304Z</time></trkpt><trkpt lat="40.8877617" lon="14.2560967"><ele>114.0</ele><time>2026-04-15T14:46:30.304Z</time></trkpt><trkpt lat="40.887665" lon="14.25598"><ele>114.0</ele><time>2026-04-15T14:46:32.305Z</time></trkpt><trkpt lat="40.8876333" lon="14.2558983"><ele>114.0</ele><time>2026-04-15T14:46:33.304Z</time></trkpt><trkpt lat="40.8876483" lon="14.255755"><ele>114.0</ele><time>2026-04-15T14:46:35.305Z</time></trkpt><trkpt lat="40.8876983" lon="14.2556133"><ele>114.0</ele><time>2026-04-15T14:46:37.304Z</time></trkpt><trkpt lat="40.8877333" lon="14.2554617"><ele>114.0</ele><time>2026-04-15T14:46:39.308Z</time></trkpt><trkpt lat="40.8877333" lon="14.255295"><ele>114.2</ele><time>2026-04-15T14:46:41.305Z</time></trkpt><trkpt lat="40.887735" lon="14.2551517"><ele>114.4</ele><time>2026-04-15T14:46:43.305Z</time></trkpt><trkpt lat="40.8877383" lon="14.25502"><ele>114.6</ele><time>2026-04-15T14:46:45.305Z</time></trkpt><trkpt lat="40.8877483" lon="14.254885"><ele>114.8</ele><time>2026-04-15T14:46:47.305Z</time></trkpt><trkpt lat="40.8877683" lon="14.2547783"><ele>115.0</ele><time>2026-04-15T14:46:49.304Z</time></trkpt><trkpt lat="40.8877667" lon="14.2546567"><ele>115.00000000000001</ele><time>2026-04-15T14:46:51.303Z</time></trkpt><trkpt lat="40.8877683" lon="14.2545417"><ele>115.0</ele><time>2026-04-15T14:46:53.303Z</time></trkpt><trkpt lat="40.8877733" lon="14.2544367"><ele>115.0</ele><time>2026-04-15T14:46:55.304Z</time></trkpt><trkpt lat="40.8877867" lon="14.2543433"><ele>115.0</ele><time>2026-04-15T14:46:57.304Z</time></trkpt><trkpt lat="40.8877883" lon="14.2542517"><ele>115.00000000000001</ele><time>2026-04-15T14:46:59.305Z</time></trkpt><trkpt lat="40.887785" lon="14.2541533"><ele>115.0</ele><time>2026-04-15T14:47:01.305Z</time></trkpt><trkpt lat="40.8877917" lon="14.2540433"><ele>115.33333333333334</ele><time>2026-04-15T14:47:03.306Z</time></trkpt><trkpt lat="40.88779" lon="14.2539367"><ele>115.66666666666667</ele><time>2026-04-15T14:47:05.304Z</time></trkpt><trkpt lat="40.8877967" lon="14.2538317"><ele>116.0</ele><time>2026-04-15T14:47:07.304Z</time></trkpt><trkpt lat="40.8877967" lon="14.2537267"><ele>116.33333333333334</ele><time>2026-04-15T14:47:09.305Z</time></trkpt><trkpt lat="40.8877967" lon="14.253625"><ele>116.66666666666667</ele><time>2026-04-15T14:47:11.305Z</time></trkpt><trkpt lat="40.8878017" lon="14.2535233"><ele>117.0</ele><time>2026-04-15T14:47:13.304Z</time></trkpt><trkpt lat="40.887805" lon="14.2534217"><ele>117.0</ele><time>2026-04-15T14:47:15.305Z</time></trkpt><trkpt lat="40.8878017" lon="14.2533383"><ele>117.00000000000001</ele><time>2026-04-15T14:47:17.305Z</time></trkpt><trkpt lat="40.8878017" lon="14.253255"><ele>117.0</ele><time>2026-04-15T14:47:19.305Z</time></trkpt><trkpt lat="40.8878133" lon="14.253165"><ele>117.0</ele><time>2026-04-15T14:47:21.305Z</time></trkpt><trkpt lat="40.8878283" lon="14.25308"><ele>117.00000000000001</ele><time>2026-04-15T14:47:23.304Z</time></trkpt><trkpt lat="40.8878467" lon="14.252985"><ele>117.0</ele><time>2026-04-15T14:47:25.305Z</time></trkpt><trkpt lat="40.8878567" lon="14.25287"><ele>117.0</ele><time>2026-04-15T14:47:27.305Z</time></trkpt><trkpt lat="40.8878767" lon="14.252745"><ele>118.0</ele><time>2026-04-15T14:47:29.305Z</time></trkpt><trkpt lat="40.8879167" lon="14.2526167"><ele>118.99999999999999</ele><time>2026-04-15T14:47:31.303Z</time></trkpt><trkpt lat="40.8879717" lon="14.252485"><ele>119.99999999999999</ele><time>2026-04-15T14:47:33.304Z</time></trkpt><trkpt lat="40.8880217" lon="14.2523567"><ele>121.0</ele><time>2026-04-15T14:47:35.305Z</time></trkpt><trkpt lat="40.8880617" lon="14.2522283"><ele>122.0</ele><time>2026-04-15T14:47:37.305Z</time></trkpt><trkpt lat="40.8880867" lon="14.2521267"><ele>122.16666666666666</ele><time>2026-04-15T14:47:39.305Z</time></trkpt><trkpt lat="40.8881133" lon="14.2520433"><ele>122.33333333333333</ele><time>2026-04-15T14:47:41.305Z</time></trkpt><trkpt lat="40.88815" lon="14.2519467"><ele>122.5</ele><time>2026-04-15T14:47:43.305Z</time></trkpt><trkpt lat="40.8881933" lon="14.2518317"><ele>122.66666666666666</ele><time>2026-04-15T14:47:45.305Z</time></trkpt><trkpt lat="40.8882417" lon="14.25172"><ele>122.83333333333333</ele><time>2026-04-15T14:47:47.305Z</time></trkpt><trkpt lat="40.8882983" lon="14.2516167"><ele>123.0</ele><time>2026-04-15T14:47:49.305Z</time></trkpt><trkpt lat="40.888345" lon="14.251495"><ele>122.80000000000001</ele><time>2026-04-15T14:47:51.305Z</time></trkpt><trkpt lat="40.8883867" lon="14.2513633"><ele>122.60000000000001</ele><time>2026-04-15T14:47:53.304Z</time></trkpt><trkpt lat="40.8884317" lon="14.2512367"><ele>122.39999999999999</ele><time>2026-04-15T14:47:55.305Z</time></trkpt><trkpt lat="40.8884783" lon="14.2511133"><ele>122.19999999999999</ele><time>2026-04-15T14:47:57.305Z</time></trkpt><trkpt lat="40.8885267" lon="14.251"><ele>122.0</ele><time>2026-04-15T14:47:59.305Z</time></trkpt><trkpt lat="40.88858" lon="14.2508967"><ele>121.66666666666666</ele><time>2026-04-15T14:48:01.304Z</time></trkpt><trkpt lat="40.8886567" lon="14.2508467"><ele>121.33333333333333</ele><time>2026-04-15T14:48:03.306Z</time></trkpt><trkpt lat="40.8887217" lon="14.2508717"><ele>121.0</ele><time>2026-04-15T14:48:05.305Z</time></trkpt><trkpt lat="40.88879" lon="14.25092"><ele>120.66666666666666</ele><time>2026-04-15T14:48:08.305Z</time></trkpt><trkpt lat="40.8888817" lon="14.250945"><ele>120.33333333333333</ele><time>2026-04-15T14:48:11.304Z</time></trkpt><trkpt lat="40.88893" lon="14.250885"><ele>120.0</ele><time>2026-04-15T14:48:13.306Z</time></trkpt><trkpt lat="40.8889417" lon="14.2507933"><ele>120.0</ele><time>2026-04-15T14:48:15.305Z</time></trkpt><trkpt lat="40.8889333" lon="14.2506917"><ele>120.0</ele><time>2026-04-15T14:48:17.307Z</time></trkpt><trkpt lat="40.8889067" lon="14.2505767"><ele>120.0</ele><time>2026-04-15T14:48:19.307Z</time></trkpt><trkpt lat="40.8888733" lon="14.2504633"><ele>120.0</ele><time>2026-04-15T14:48:21.305Z</time></trkpt><trkpt lat="40.88884" lon="14.2503467"><ele>120.0</ele><time>2026-04-15T14:48:23.306Z</time></trkpt><trkpt lat="40.8888067" lon="14.2502367"><ele>120.0</ele><time>2026-04-15T14:48:25.305Z</time></trkpt><trkpt lat="40.8887767" lon="14.2501283"><ele>120.0</ele><time>2026-04-15T14:48:27.306Z</time></trkpt><trkpt lat="40.888745" lon="14.25002"><ele>120.0</ele><time>2026-04-15T14:48:29.307Z</time></trkpt><trkpt lat="40.888705" lon="14.2499117"><ele>120.0</ele><time>2026-04-15T14:48:31.306Z</time></trkpt><trkpt lat="40.8886733" lon="14.249795"><ele>120.0</ele><time>2026-04-15T14:48:33.305Z</time></trkpt><trkpt lat="40.88865" lon="14.2496883"><ele>120.0</ele><time>2026-04-15T14:48:35.305Z</time></trkpt><trkpt lat="40.8886117" lon="14.249575"><ele>120.5</ele><time>2026-04-15T14:48:37.304Z</time></trkpt><trkpt lat="40.8885767" lon="14.2494633"><ele>121.0</ele><time>2026-04-15T14:48:39.304Z</time></trkpt><trkpt lat="40.8885467" lon="14.2493533"><ele>121.5</ele><time>2026-04-15T14:48:41.306Z</time></trkpt><trkpt lat="40.8885267" lon="14.2492617"><ele>122.0</ele><time>2026-04-15T14:48:43.304Z</time></trkpt><trkpt lat="40.888475" lon="14.2491633"><ele>122.5</ele><time>2026-04-15T14:48:46.304Z</time></trkpt><trkpt lat="40.8884133" lon="14.249065"><ele>123.0</ele><time>2026-04-15T14:48:49.305Z</time></trkpt><trkpt lat="40.8883867" lon="14.2489783"><ele>123.16666666666667</ele><time>2026-04-15T14:48:51.305Z</time></trkpt><trkpt lat="40.88837" lon="14.248895"><ele>123.33333333333334</ele><time>2026-04-15T14:48:53.304Z</time></trkpt><trkpt lat="40.8883567" lon="14.2488"><ele>123.5</ele><time>2026-04-15T14:48:55.305Z</time></trkpt><trkpt lat="40.888345" lon="14.248705"><ele>123.66666666666667</ele><time>2026-04-15T14:48:57.305Z</time></trkpt><trkpt lat="40.8882917" lon="14.2486317"><ele>123.83333333333334</ele><time>2026-04-15T14:48:59.304Z</time></trkpt><trkpt lat="40.8882217" lon="14.2485483"><ele>124.0</ele><time>2026-04-15T14:49:01.305Z</time></trkpt><trkpt lat="40.8881817" lon="14.2484483"><ele>124.0</ele><time>2026-04-15T14:49:03.305Z</time></trkpt><trkpt lat="40.888135" lon="14.2483883"><ele>124.0</ele><time>2026-04-15T14:49:04.304Z</time></trkpt><trkpt lat="40.8880967" lon="14.2482583"><ele>124.0</ele><time>2026-04-15T14:49:06.304Z</time></trkpt><trkpt lat="40.88807" lon="14.2481317"><ele>124.0</ele><time>2026-04-15T14:49:08.305Z</time></trkpt><trkpt lat="40.8880333" lon="14.2480133"><ele>124.0</ele><time>2026-04-15T14:49:10.305Z</time></trkpt><trkpt lat="40.8879983" lon="14.24791"><ele>124.66666666666667</ele><time>2026-04-15T14:49:12.304Z</time></trkpt><trkpt lat="40.8879867" lon="14.2478133"><ele>125.33333333333334</ele><time>2026-04-15T14:49:14.305Z</time></trkpt><trkpt lat="40.8879817" lon="14.2477233"><ele>126.0</ele><time>2026-04-15T14:49:18.305Z</time></trkpt><trkpt lat="40.88797" lon="14.2476133"><ele>126.66666666666666</ele><time>2026-04-15T14:49:23.305Z</time></trkpt><trkpt lat="40.8879317" lon="14.2475133"><ele>127.33333333333333</ele><time>2026-04-15T14:49:26.306Z</time></trkpt><trkpt lat="40.8879033" lon="14.2473867"><ele>128.0</ele><time>2026-04-15T14:49:29.305Z</time></trkpt><trkpt lat="40.8878783" lon="14.247285"><ele>128.6</ele><time>2026-04-15T14:49:31.303Z</time></trkpt><trkpt lat="40.8878433" lon="14.24717"><ele>129.20000000000002</ele><time>2026-04-15T14:49:33.305Z</time></trkpt><trkpt lat="40.8878133" lon="14.247065"><ele>129.8</ele><time>2026-04-15T14:49:35.308Z</time></trkpt><trkpt lat="40.887775" lon="14.2469667"><ele>130.4</ele><time>2026-04-15T14:49:37.304Z</time></trkpt><trkpt lat="40.8877217" lon="14.2468217"><ele>131.0</ele><time>2026-04-15T14:49:40.305Z</time></trkpt><trkpt lat="40.8877033" lon="14.24671"><ele>131.0</ele><time>2026-04-15T14:49:42.306Z</time></trkpt><trkpt lat="40.8876783" lon="14.2466017"><ele>131.0</ele><time>2026-04-15T14:49:44.306Z</time></trkpt><trkpt lat="40.8876483" lon="14.246495"><ele>131.0</ele><time>2026-04-15T14:49:46.306Z</time></trkpt><trkpt lat="40.8876083" lon="14.246395"><ele>131.0</ele><time>2026-04-15T14:49:48.305Z</time></trkpt><trkpt lat="40.887595" lon="14.246305"><ele>131.0</ele><time>2026-04-15T14:49:50.306Z</time></trkpt><trkpt lat="40.8875817" lon="14.2462117"><ele>131.0</ele><time>2026-04-15T14:49:53.306Z</time></trkpt><trkpt lat="40.887515" lon="14.2461517"><ele>131.2</ele><time>2026-04-15T14:49:56.305Z</time></trkpt><trkpt lat="40.887465" lon="14.2460417"><ele>131.39999999999998</ele><time>2026-04-15T14:49:59.304Z</time></trkpt><trkpt lat="40.8874383" lon="14.24594"><ele>131.6</ele><time>2026-04-15T14:50:01.305Z</time></trkpt><trkpt lat="40.8874017" lon="14.2458367"><ele>131.79999999999998</ele><time>2026-04-15T14:50:03.304Z</time></trkpt><trkpt lat="40.8873317" lon="14.2457367"><ele>132.0</ele><time>2026-04-15T14:50:05.305Z</time></trkpt><trkpt lat="40.8873017" lon="14.245615"><ele>132.33333333333334</ele><time>2026-04-15T14:50:07.305Z</time></trkpt><trkpt lat="40.8872683" lon="14.2455117"><ele>132.66666666666666</ele><time>2026-04-15T14:50:09.305Z</time></trkpt><trkpt lat="40.8872483" lon="14.2454117"><ele>133.0</ele><time>2026-04-15T14:50:11.304Z</time></trkpt><trkpt lat="40.8872033" lon="14.2453133"><ele>133.33333333333331</ele><time>2026-04-15T14:50:13.305Z</time></trkpt><trkpt lat="40.88714" lon="14.2452367"><ele>133.66666666666666</ele><time>2026-04-15T14:50:15.305Z</time></trkpt><trkpt lat="40.8870883" lon="14.2451667"><ele>134.0</ele><time>2026-04-15T14:50:17.305Z</time></trkpt><trkpt lat="40.8870567" lon="14.245045"><ele>134.0</ele><time>2026-04-15T14:50:20.304Z</time></trkpt><trkpt lat="40.88703" lon="14.2449617"><ele>134.0</ele><time>2026-04-15T14:50:22.304Z</time></trkpt><trkpt lat="40.887015" lon="14.2448683"><ele>134.0</ele><time>2026-04-15T14:50:24.305Z</time></trkpt><trkpt lat="40.8870117" lon="14.2447583"><ele>134.0</ele><time>2026-04-15T14:50:26.305Z</time></trkpt><trkpt lat="40.8869867" lon="14.2446617"><ele>134.0</ele><time>2026-04-15T14:50:28.304Z</time></trkpt><trkpt lat="40.8869633" lon="14.2445433"><ele>134.0</ele><time>2026-04-15T14:50:30.305Z</time></trkpt><trkpt lat="40.8869383" lon="14.244435"><ele>134.4</ele><time>2026-04-15T14:50:32.305Z</time></trkpt><trkpt lat="40.886905" lon="14.2443117"><ele>134.8</ele><time>2026-04-15T14:50:34.304Z</time></trkpt><trkpt lat="40.8868717" lon="14.24419"><ele>135.2</ele><time>2026-04-15T14:50:36.305Z</time></trkpt><trkpt lat="40.8868367" lon="14.24408"><ele>135.6</ele><time>2026-04-15T14:50:38.306Z</time></trkpt><trkpt lat="40.8868133" lon="14.24398"><ele>136.0</ele><time>2026-04-15T14:50:40.306Z</time></trkpt><trkpt lat="40.886785" lon="14.2438733"><ele>136.33333333333334</ele><time>2026-04-15T14:50:42.306Z</time></trkpt><trkpt lat="40.8867567" lon="14.24376"><ele>136.66666666666669</ele><time>2026-04-15T14:50:44.305Z</time></trkpt><trkpt lat="40.8867183" lon="14.2436583"><ele>137.0</ele><time>2026-04-15T14:50:46.305Z</time></trkpt><trkpt lat="40.8866833" lon="14.243555"><ele>137.33333333333334</ele><time>2026-04-15T14:50:48.305Z</time></trkpt><trkpt lat="40.8866467" lon="14.2434517"><ele>137.66666666666666</ele><time>2026-04-15T14:50:50.309Z</time></trkpt><trkpt lat="40.8866233" lon="14.24335"><ele>138.0</ele><time>2026-04-15T14:50:52.304Z</time></trkpt><trkpt lat="40.886605" lon="14.24325"><ele>138.0</ele><time>2026-04-15T14:50:54.305Z</time></trkpt><trkpt lat="40.88656" lon="14.2431483"><ele>138.0</ele><time>2026-04-15T14:50:56.305Z</time></trkpt><trkpt lat="40.8865233" lon="14.2430433"><ele>138.0</ele><time>2026-04-15T14:50:58.305Z</time></trkpt><trkpt lat="40.8864767" lon="14.2429483"><ele>138.0</ele><time>2026-04-15T14:51:00.305Z</time></trkpt><trkpt lat="40.8864533" lon="14.2428417"><ele>138.0</ele><time>2026-04-15T14:51:02.306Z</time></trkpt><trkpt lat="40.8864267" lon="14.24274"><ele>138.0</ele><time>2026-04-15T14:51:04.305Z</time></trkpt><trkpt lat="40.8864017" lon="14.2426467"><ele>138.5</ele><time>2026-04-15T14:51:06.305Z</time></trkpt><trkpt lat="40.8863767" lon="14.2425517"><ele>139.0</ele><time>2026-04-15T14:51:08.304Z</time></trkpt><trkpt lat="40.88636" lon="14.2424533"><ele>139.5</ele><time>2026-04-15T14:51:10.304Z</time></trkpt><trkpt lat="40.8863233" lon="14.24235"><ele>140.0</ele><time>2026-04-15T14:51:12.305Z</time></trkpt><trkpt lat="40.886285" lon="14.24224"><ele>140.5</ele><time>2026-04-15T14:51:14.305Z</time></trkpt><trkpt lat="40.8862683" lon="14.2421367"><ele>141.0</ele><time>2026-04-15T14:51:16.304Z</time></trkpt><trkpt lat="40.8862617" lon="14.2420283"><ele>141.0</ele><time>2026-04-15T14:51:18.305Z</time></trkpt><trkpt lat="40.8862433" lon="14.24192"><ele>141.0</ele><time>2026-04-15T14:51:20.306Z</time></trkpt><trkpt lat="40.8862133" lon="14.24181"><ele>141.0</ele><time>2026-04-15T14:51:22.306Z</time></trkpt><trkpt lat="40.8861933" lon="14.2416983"><ele>141.0</ele><time>2026-04-15T14:51:24.307Z</time></trkpt><trkpt lat="40.8861767" lon="14.2415833"><ele>141.0</ele><time>2026-04-15T14:51:26.305Z</time></trkpt><trkpt lat="40.8861617" lon="14.24146"><ele>141.0</ele><time>2026-04-15T14:51:28.305Z</time></trkpt><trkpt lat="40.886155" lon="14.24135"><ele>141.33333333333334</ele><time>2026-04-15T14:51:30.304Z</time></trkpt><trkpt lat="40.886145" lon="14.241235"><ele>141.66666666666666</ele><time>2026-04-15T14:51:32.304Z</time></trkpt><trkpt lat="40.886135" lon="14.2411167"><ele>142.0</ele><time>2026-04-15T14:51:34.305Z</time></trkpt><trkpt lat="40.886125" lon="14.2409983"><ele>142.33333333333331</ele><time>2026-04-15T14:51:36.305Z</time></trkpt><trkpt lat="40.8861117" lon="14.2408867"><ele>142.66666666666666</ele><time>2026-04-15T14:51:38.305Z</time></trkpt><trkpt lat="40.8860933" lon="14.2407717"><ele>143.0</ele><time>2026-04-15T14:51:40.307Z</time></trkpt><trkpt lat="40.886085" lon="14.2406667"><ele>143.16666666666666</ele><time>2026-04-15T14:51:42.304Z</time></trkpt><trkpt lat="40.88605" lon="14.2405567"><ele>143.33333333333331</ele><time>2026-04-15T14:51:44.308Z</time></trkpt><trkpt lat="40.8859983" lon="14.2404683"><ele>143.5</ele><time>2026-04-15T14:51:46.304Z</time></trkpt><trkpt lat="40.8859517" lon="14.240385"><ele>143.66666666666666</ele><time>2026-04-15T14:51:48.304Z</time></trkpt><trkpt lat="40.8858967" lon="14.2403117"><ele>143.83333333333334</ele><time>2026-04-15T14:51:50.304Z</time></trkpt><trkpt lat="40.8858367" lon="14.2402417"><ele>144.0</ele><time>2026-04-15T14:51:52.304Z</time></trkpt><trkpt lat="40.88578" lon="14.2401733"><ele>144.0</ele><time>2026-04-15T14:51:54.304Z</time></trkpt><trkpt lat="40.8857333" lon="14.2401017"><ele>144.0</ele><time>2026-04-15T14:51:56.304Z</time></trkpt><trkpt lat="40.885685" lon="14.2400233"><ele>144.0</ele><time>2026-04-15T14:51:58.304Z</time></trkpt><trkpt lat="40.8856367" lon="14.2399433"><ele>144.0</ele><time>2026-04-15T14:52:00.305Z</time></trkpt><trkpt lat="40.8855767" lon="14.2398667"><ele>144.0</ele><time>2026-04-15T14:52:02.304Z</time></trkpt><trkpt lat="40.8855467" lon="14.2397833"><ele>144.0</ele><time>2026-04-15T14:52:04.304Z</time></trkpt><trkpt lat="40.8855167" lon="14.2396917"><ele>144.2857142857143</ele><time>2026-04-15T14:52:06.305Z</time></trkpt><trkpt lat="40.885485" lon="14.2395917"><ele>144.57142857142858</ele><time>2026-04-15T14:52:08.304Z</time></trkpt><trkpt lat="40.8854717" lon="14.2395083"><ele>144.85714285714286</ele><time>2026-04-15T14:52:10.303Z</time></trkpt><trkpt lat="40.8854517" lon="14.2394267"><ele>145.14285714285717</ele><time>2026-04-15T14:52:12.305Z</time></trkpt><trkpt lat="40.8854167" lon="14.239345"><ele>145.42857142857144</ele><time>2026-04-15T14:52:14.305Z</time></trkpt><trkpt lat="40.88538" lon="14.23926"><ele>145.71428571428572</ele><time>2026-04-15T14:52:16.304Z</time></trkpt><trkpt lat="40.885355" lon="14.2391717"><ele>146.0</ele><time>2026-04-15T14:52:18.304Z</time></trkpt><trkpt lat="40.8853183" lon="14.2390867"><ele>146.0</ele><time>2026-04-15T14:52:20.305Z</time></trkpt><trkpt lat="40.8852683" lon="14.2390033"><ele>146.0</ele><time>2026-04-15T14:52:22.305Z</time></trkpt><trkpt lat="40.8852133" lon="14.238915"><ele>146.0</ele><time>2026-04-15T14:52:24.305Z</time></trkpt><trkpt lat="40.8851667" lon="14.2388283"><ele>146.0</ele><time>2026-04-15T14:52:26.303Z</time></trkpt><trkpt lat="40.8851333" lon="14.2387233"><ele>146.0</ele><time>2026-04-15T14:52:28.304Z</time></trkpt><trkpt lat="40.8851067" lon="14.2386233"><ele>146.0</ele><time>2026-04-15T14:52:30.304Z</time></trkpt><trkpt lat="40.88506" lon="14.2385233"><ele>146.5</ele><time>2026-04-15T14:52:32.303Z</time></trkpt><trkpt lat="40.8850233" lon="14.23842"><ele>147.0</ele><time>2026-04-15T14:52:34.304Z</time></trkpt><trkpt lat="40.88499" lon="14.238315"><ele>147.5</ele><time>2026-04-15T14:52:36.303Z</time></trkpt><trkpt lat="40.884955" lon="14.2382083"><ele>148.0</ele><time>2026-04-15T14:52:38.305Z</time></trkpt><trkpt lat="40.884925" lon="14.2381117"><ele>148.5</ele><time>2026-04-15T14:52:40.304Z</time></trkpt><trkpt lat="40.884895" lon="14.2380133"><ele>149.0</ele><time>2026-04-15T14:52:42.304Z</time></trkpt><trkpt lat="40.8848617" lon="14.2379117"><ele>149.16666666666666</ele><time>2026-04-15T14:52:44.304Z</time></trkpt><trkpt lat="40.8848333" lon="14.2378067"><ele>149.33333333333331</ele><time>2026-04-15T14:52:46.305Z</time></trkpt><trkpt lat="40.884805" lon="14.2377"><ele>149.5</ele><time>2026-04-15T14:52:48.304Z</time></trkpt><trkpt lat="40.884765" lon="14.237595"><ele>149.66666666666666</ele><time>2026-04-15T14:52:50.303Z</time></trkpt><trkpt lat="40.88474" lon="14.237495"><ele>149.83333333333334</ele><time>2026-04-15T14:52:52.304Z</time></trkpt><trkpt lat="40.8847" lon="14.2373933"><ele>150.0</ele><time>2026-04-15T14:52:54.305Z</time></trkpt><trkpt lat="40.8846683" lon="14.2372983"><ele>150.5</ele><time>2026-04-15T14:52:56.305Z</time></trkpt><trkpt lat="40.8846233" lon="14.237215"><ele>151.0</ele><time>2026-04-15T14:52:58.304Z</time></trkpt><trkpt lat="40.8845633" lon="14.2371383"><ele>151.5</ele><time>2026-04-15T14:53:00.304Z</time></trkpt><trkpt lat="40.8845067" lon="14.237075"><ele>152.0</ele><time>2026-04-15T14:53:02.304Z</time></trkpt><trkpt lat="40.8844367" lon="14.2370133"><ele>152.5</ele><time>2026-04-15T14:53:04.304Z</time></trkpt><trkpt lat="40.8843567" lon="14.236965"><ele>153.0</ele><time>2026-04-15T14:53:06.303Z</time></trkpt><trkpt lat="40.8842333" lon="14.2369167"><ele>153.16666666666666</ele><time>2026-04-15T14:53:09.304Z</time></trkpt><trkpt lat="40.88415" lon="14.236895"><ele>153.33333333333334</ele><time>2026-04-15T14:53:11.304Z</time></trkpt><trkpt lat="40.8840683" lon="14.2368933"><ele>153.5</ele><time>2026-04-15T14:53:13.304Z</time></trkpt><trkpt lat="40.8839833" lon="14.2368967"><ele>153.66666666666669</ele><time>2026-04-15T14:53:15.307Z</time></trkpt><trkpt lat="40.8839" lon="14.2368833"><ele>153.83333333333334</ele><time>2026-04-15T14:53:17.305Z</time></trkpt><trkpt lat="40.8838217" lon="14.2368567"><ele>154.0</ele><time>2026-04-15T14:53:19.304Z</time></trkpt><trkpt lat="40.883755" lon="14.2368367"><ele>154.0</ele><time>2026-04-15T14:53:21.305Z</time></trkpt><trkpt lat="40.8836883" lon="14.236825"><ele>154.0</ele><time>2026-04-15T14:53:23.305Z</time></trkpt><trkpt lat="40.883615" lon="14.2368233"><ele>154.0</ele><time>2026-04-15T14:53:25.304Z</time></trkpt><trkpt lat="40.883545" lon="14.2368083"><ele>154.0</ele><time>2026-04-15T14:53:27.303Z</time></trkpt><trkpt lat="40.8834783" lon="14.2367833"><ele>154.0</ele><time>2026-04-15T14:53:29.304Z</time></trkpt><trkpt lat="40.88341" lon="14.2367517"><ele>154.0</ele><time>2026-04-15T14:53:31.305Z</time></trkpt><trkpt lat="40.8833467" lon="14.23672"><ele>154.0</ele><time>2026-04-15T14:53:33.308Z</time></trkpt><trkpt lat="40.883285" lon="14.2366633"><ele>154.5</ele><time>2026-04-15T14:53:35.304Z</time></trkpt><trkpt lat="40.88321" lon="14.2365833"><ele>155.0</ele><time>2026-04-15T14:53:38.305Z</time></trkpt><trkpt lat="40.8831583" lon="14.2365167"><ele>155.5</ele><time>2026-04-15T14:53:40.304Z</time></trkpt><trkpt lat="40.8831117" lon="14.2364267"><ele>156.0</ele><time>2026-04-15T14:53:42.305Z</time></trkpt><trkpt lat="40.8830617" lon="14.2363583"><ele>156.5</ele><time>2026-04-15T14:53:44.305Z</time></trkpt><trkpt lat="40.8830017" lon="14.2362967"><ele>157.0</ele><time>2026-04-15T14:53:46.303Z</time></trkpt><trkpt lat="40.8829483" lon="14.23624"><ele>157.57142857142856</ele><time>2026-04-15T14:53:48.307Z</time></trkpt><trkpt lat="40.8828917" lon="14.236185"><ele>158.14285714285714</ele><time>2026-04-15T14:53:50.306Z</time></trkpt><trkpt lat="40.8828383" lon="14.23614"><ele>158.71428571428572</ele><time>2026-04-15T14:53:52.305Z</time></trkpt><trkpt lat="40.882775" lon="14.2360983"><ele>159.28571428571428</ele><time>2026-04-15T14:53:54.305Z</time></trkpt><trkpt lat="40.882715" lon="14.236065"><ele>159.85714285714286</ele><time>2026-04-15T14:53:56.307Z</time></trkpt><trkpt lat="40.8826517" lon="14.2360283"><ele>160.42857142857142</ele><time>2026-04-15T14:53:58.306Z</time></trkpt><trkpt lat="40.8825867" lon="14.23599"><ele>161.0</ele><time>2026-04-15T14:54:00.305Z</time></trkpt><trkpt lat="40.88253" lon="14.2359467"><ele>161.28571428571428</ele><time>2026-04-15T14:54:02.306Z</time></trkpt><trkpt lat="40.8824733" lon="14.2359"><ele>161.57142857142856</ele><time>2026-04-15T14:54:04.306Z</time></trkpt><trkpt lat="40.882405" lon="14.2358483"><ele>161.85714285714286</ele><time>2026-04-15T14:54:06.305Z</time></trkpt><trkpt lat="40.882345" lon="14.2357983"><ele>162.14285714285714</ele><time>2026-04-15T14:54:08.308Z</time></trkpt><trkpt lat="40.8822883" lon="14.2357517"><ele>162.42857142857142</ele><time>2026-04-15T14:54:10.306Z</time></trkpt><trkpt lat="40.88223" lon="14.235695"><ele>162.71428571428572</ele><time>2026-04-15T14:54:12.306Z</time></trkpt><trkpt lat="40.88217" lon="14.2356283"><ele>163.0</ele><time>2026-04-15T14:54:14.305Z</time></trkpt><trkpt lat="40.8821133" lon="14.235575"><ele>163.42857142857144</ele><time>2026-04-15T14:54:16.305Z</time></trkpt><trkpt lat="40.88206" lon="14.23552"><ele>163.85714285714283</ele><time>2026-04-15T14:54:18.305Z</time></trkpt><trkpt lat="40.88201" lon="14.2354683"><ele>164.28571428571428</ele><time>2026-04-15T14:54:20.31Z</time></trkpt><trkpt lat="40.8819517" lon="14.2354"><ele>164.71428571428572</ele><time>2026-04-15T14:54:22.306Z</time></trkpt><trkpt lat="40.8819017" lon="14.2353417"><ele>165.14285714285717</ele><time>2026-04-15T14:54:24.306Z</time></trkpt><trkpt lat="40.88185" lon="14.235275"><ele>165.57142857142856</ele><time>2026-04-15T14:54:26.308Z</time></trkpt><trkpt lat="40.8817967" lon="14.235215"><ele>166.0</ele><time>2026-04-15T14:54:28.308Z</time></trkpt><trkpt lat="40.8817467" lon="14.2351533"><ele>166.5</ele><time>2026-04-15T14:54:30.309Z</time></trkpt><trkpt lat="40.881705" lon="14.2350817"><ele>167.0</ele><time>2026-04-15T14:54:32.31Z</time></trkpt><trkpt lat="40.8816633" lon="14.23501"><ele>167.5</ele><time>2026-04-15T14:54:34.308Z</time></trkpt><trkpt lat="40.8816283" lon="14.234925"><ele>168.0</ele><time>2026-04-15T14:54:36.309Z</time></trkpt><trkpt lat="40.8815933" lon="14.234835"><ele>168.5</ele><time>2026-04-15T14:54:38.308Z</time></trkpt><trkpt lat="40.881555" lon="14.2347467"><ele>169.0</ele><time>2026-04-15T14:54:40.31Z</time></trkpt><trkpt lat="40.8815233" lon="14.23464"><ele>169.85714285714286</ele><time>2026-04-15T14:54:42.309Z</time></trkpt><trkpt lat="40.8815117" lon="14.234545"><ele>170.71428571428572</ele><time>2026-04-15T14:54:44.31Z</time></trkpt><trkpt lat="40.88151" lon="14.23444"><ele>171.57142857142856</ele><time>2026-04-15T14:54:46.309Z</time></trkpt><trkpt lat="40.8815067" lon="14.2343467"><ele>172.42857142857144</ele><time>2026-04-15T14:54:48.306Z</time></trkpt><trkpt lat="40.8815183" lon="14.2342483"><ele>173.28571428571428</ele><time>2026-04-15T14:54:50.308Z</time></trkpt><trkpt lat="40.88153" lon="14.23416"><ele>174.14285714285714</ele><time>2026-04-15T14:54:52.307Z</time></trkpt><trkpt lat="40.881515" lon="14.2340667"><ele>175.0</ele><time>2026-04-15T14:54:54.309Z</time></trkpt><trkpt lat="40.8814917" lon="14.2339617"><ele>175.33333333333334</ele><time>2026-04-15T14:54:56.308Z</time></trkpt><trkpt lat="40.8814683" lon="14.2338667"><ele>175.66666666666669</ele><time>2026-04-15T14:54:58.305Z</time></trkpt><trkpt lat="40.8814433" lon="14.2337683"><ele>176.0</ele><time>2026-04-15T14:55:00.308Z</time></trkpt><trkpt lat="40.8814033" lon="14.2336667"><ele>176.33333333333334</ele><time>2026-04-15T14:55:02.309Z</time></trkpt><trkpt lat="40.88136" lon="14.2335833"><ele>176.66666666666666</ele><time>2026-04-15T14:55:04.305Z</time></trkpt><trkpt lat="40.88131" lon="14.2334883"><ele>177.0</ele><time>2026-04-15T14:55:06.308Z</time></trkpt><trkpt lat="40.8812617" lon="14.2334083"><ele>177.0</ele><time>2026-04-15T14:55:08.308Z</time></trkpt><trkpt lat="40.8812133" lon="14.23333"><ele>177.0</ele><time>2026-04-15T14:55:10.306Z</time></trkpt><trkpt lat="40.88117" lon="14.233265"><ele>177.0</ele><time>2026-04-15T14:55:12.309Z</time></trkpt><trkpt lat="40.8811233" lon="14.2332"><ele>177.0</ele><time>2026-04-15T14:55:14.307Z</time></trkpt><trkpt lat="40.8810667" lon="14.233145"><ele>177.0</ele><time>2026-04-15T14:55:16.306Z</time></trkpt><trkpt lat="40.8810167" lon="14.2330933"><ele>177.0</ele><time>2026-04-15T14:55:18.309Z</time></trkpt><trkpt lat="40.8809433" lon="14.2330367"><ele>177.0</ele><time>2026-04-15T14:55:21.306Z</time></trkpt><trkpt lat="40.8808683" lon="14.233015"><ele>177.5</ele><time>2026-04-15T14:55:26.308Z</time></trkpt><trkpt lat="40.880795" lon="14.232955"><ele>178.0</ele><time>2026-04-15T14:55:30.308Z</time></trkpt><trkpt lat="40.880735" lon="14.2328967"><ele>178.5</ele><time>2026-04-15T14:55:33.307Z</time></trkpt><trkpt lat="40.880665" lon="14.23282"><ele>179.0</ele><time>2026-04-15T14:55:36.31Z</time></trkpt><trkpt lat="40.8806117" lon="14.2327717"><ele>179.5</ele><time>2026-04-15T14:55:38.309Z</time></trkpt><trkpt lat="40.880555" lon="14.2327283"><ele>180.0</ele><time>2026-04-15T14:55:40.306Z</time></trkpt><trkpt lat="40.88049" lon="14.232685"><ele>180.0</ele><time>2026-04-15T14:55:42.308Z</time></trkpt><trkpt lat="40.880435" lon="14.2326317"><ele>180.0</ele><time>2026-04-15T14:55:44.308Z</time></trkpt><trkpt lat="40.8803833" lon="14.23257"><ele>180.0</ele><time>2026-04-15T14:55:46.304Z</time></trkpt><trkpt lat="40.8803317" lon="14.2325017"><ele>180.0</ele><time>2026-04-15T14:55:48.308Z</time></trkpt><trkpt lat="40.8802733" lon="14.2324533"><ele>180.0</ele><time>2026-04-15T14:55:50.309Z</time></trkpt><trkpt lat="40.8802117" lon="14.2324033"><ele>180.0</ele><time>2026-04-15T14:55:52.307Z</time></trkpt><trkpt lat="40.88015" lon="14.2323567"><ele>180.0</ele><time>2026-04-15T14:55:54.308Z</time></trkpt><trkpt lat="40.88009" lon="14.2323117"><ele>180.57142857142856</ele><time>2026-04-15T14:55:56.309Z</time></trkpt><trkpt lat="40.8800383" lon="14.23226"><ele>181.14285714285717</ele><time>2026-04-15T14:55:58.307Z</time></trkpt><trkpt lat="40.88002" lon="14.23214"><ele>181.71428571428572</ele><time>2026-04-15T14:56:01.306Z</time></trkpt><trkpt lat="40.8800417" lon="14.2320567"><ele>182.28571428571428</ele><time>2026-04-15T14:56:03.306Z</time></trkpt><trkpt lat="40.8800667" lon="14.2319767"><ele>182.85714285714283</ele><time>2026-04-15T14:56:06.308Z</time></trkpt><trkpt lat="40.8800983" lon="14.2318983"><ele>183.42857142857144</ele><time>2026-04-15T14:56:07.31Z</time></trkpt><trkpt lat="40.880135" lon="14.23183"><ele>184.0</ele><time>2026-04-15T14:56:09.306Z</time></trkpt><trkpt lat="40.8801717" lon="14.23176"><ele>184.0</ele><time>2026-04-15T14:56:11.308Z</time></trkpt><trkpt lat="40.880195" lon="14.23168"><ele>184.0</ele><time>2026-04-15T14:56:13.311Z</time></trkpt><trkpt lat="40.8802217" lon="14.231595"><ele>184.0</ele><time>2026-04-15T14:56:15.307Z</time></trkpt><trkpt lat="40.88024" lon="14.2315083"><ele>184.0</ele><time>2026-04-15T14:56:17.306Z</time></trkpt><trkpt lat="40.8802383" lon="14.2314117"><ele>184.0</ele><time>2026-04-15T14:56:19.307Z</time></trkpt><trkpt lat="40.8802233" lon="14.231315"><ele>184.0</ele><time>2026-04-15T14:56:21.308Z</time></trkpt><trkpt lat="40.8802017" lon="14.2312317"><ele>184.0</ele><time>2026-04-15T14:56:23.307Z</time></trkpt><trkpt lat="40.88017" lon="14.2311583"><ele>184.5</ele><time>2026-04-15T14:56:25.308Z</time></trkpt><trkpt lat="40.88011" lon="14.2311017"><ele>185.0</ele><time>2026-04-15T14:56:27.308Z</time></trkpt><trkpt lat="40.88003" lon="14.2310767"><ele>185.5</ele><time>2026-04-15T14:56:29.307Z</time></trkpt><trkpt lat="40.8799467" lon="14.231055"><ele>186.0</ele><time>2026-04-15T14:56:31.307Z</time></trkpt><trkpt lat="40.8798617" lon="14.2310283"><ele>186.5</ele><time>2026-04-15T14:56:33.308Z</time></trkpt><trkpt lat="40.8797817" lon="14.2310133"><ele>187.0</ele><time>2026-04-15T14:56:35.307Z</time></trkpt><trkpt lat="40.8797033" lon="14.2309917"><ele>187.42857142857142</ele><time>2026-04-15T14:56:37.307Z</time></trkpt><trkpt lat="40.8796283" lon="14.2309567"><ele>187.85714285714286</ele><time>2026-04-15T14:56:39.307Z</time></trkpt><trkpt lat="40.8795583" lon="14.23092"><ele>188.28571428571428</ele><time>2026-04-15T14:56:41.306Z</time></trkpt><trkpt lat="40.879495" lon="14.23089"><ele>188.71428571428572</ele><time>2026-04-15T14:56:43.308Z</time></trkpt><trkpt lat="40.879435" lon="14.23086"><ele>189.14285714285717</ele><time>2026-04-15T14:56:45.308Z</time></trkpt><trkpt lat="40.8793667" lon="14.2308383"><ele>189.57142857142858</ele><time>2026-04-15T14:56:47.307Z</time></trkpt><trkpt lat="40.8792967" lon="14.230825"><ele>190.0</ele><time>2026-04-15T14:56:49.308Z</time></trkpt><trkpt lat="40.8792267" lon="14.2308133"><ele>190.0</ele><time>2026-04-15T14:56:51.307Z</time></trkpt><trkpt lat="40.8791517" lon="14.2308017"><ele>190.0</ele><time>2026-04-15T14:56:53.307Z</time></trkpt><trkpt lat="40.87908" lon="14.230805"><ele>190.0</ele><time>2026-04-15T14:56:55.31Z</time></trkpt><trkpt lat="40.8790133" lon="14.2308167"><ele>190.0</ele><time>2026-04-15T14:56:57.307Z</time></trkpt><trkpt lat="40.8789467" lon="14.2308417"><ele>190.0</ele><time>2026-04-15T14:56:59.309Z</time></trkpt><trkpt lat="40.87888" lon="14.230865"><ele>190.0</ele><time>2026-04-15T14:57:01.309Z</time></trkpt><trkpt lat="40.8788117" lon="14.23088"><ele>190.0</ele><time>2026-04-15T14:57:03.307Z</time></trkpt><trkpt lat="40.87874" lon="14.23087"><ele>190.0</ele><time>2026-04-15T14:57:05.308Z</time></trkpt><trkpt lat="40.8786683" lon="14.23085"><ele>190.0</ele><time>2026-04-15T14:57:07.308Z</time></trkpt><trkpt lat="40.87862" lon="14.2307867"><ele>190.0</ele><time>2026-04-15T14:57:09.307Z</time></trkpt><trkpt lat="40.878585" lon="14.2306933"><ele>190.0</ele><time>2026-04-15T14:57:11.305Z</time></trkpt><trkpt lat="40.8785667" lon="14.2305883"><ele>190.0</ele><time>2026-04-15T14:57:13.308Z</time></trkpt><trkpt lat="40.8785567" lon="14.2304967"><ele>190.0</ele><time>2026-04-15T14:57:15.309Z</time></trkpt><trkpt lat="40.8785517" lon="14.230395"><ele>190.0</ele><time>2026-04-15T14:57:17.309Z</time></trkpt><trkpt lat="40.8785483" lon="14.2302983"><ele>190.57142857142858</ele><time>2026-04-15T14:57:19.308Z</time></trkpt><trkpt lat="40.8785483" lon="14.2302017"><ele>191.14285714285717</ele><time>2026-04-15T14:57:21.31Z</time></trkpt><trkpt lat="40.8785483" lon="14.2301067"><ele>191.71428571428572</ele><time>2026-04-15T14:57:23.309Z</time></trkpt><trkpt lat="40.8785433" lon="14.2300083"><ele>192.28571428571428</ele><time>2026-04-15T14:57:25.308Z</time></trkpt><trkpt lat="40.878545" lon="14.2299233"><ele>192.85714285714286</ele><time>2026-04-15T14:57:27.308Z</time></trkpt><trkpt lat="40.878555" lon="14.2298017"><ele>193.42857142857142</ele><time>2026-04-15T14:57:30.306Z</time></trkpt><trkpt lat="40.8785667" lon="14.2297167"><ele>194.0</ele><time>2026-04-15T14:57:32.308Z</time></trkpt><trkpt lat="40.8785767" lon="14.2296317"><ele>194.57142857142856</ele><time>2026-04-15T14:57:34.306Z</time></trkpt><trkpt lat="40.8785917" lon="14.22955"><ele>195.14285714285717</ele><time>2026-04-15T14:57:36.307Z</time></trkpt><trkpt lat="40.878605" lon="14.2294283"><ele>195.71428571428572</ele><time>2026-04-15T14:57:39.309Z</time></trkpt><trkpt lat="40.8786233" lon="14.2293083"><ele>196.28571428571428</ele><time>2026-04-15T14:57:42.309Z</time></trkpt><trkpt lat="40.8786317" lon="14.229225"><ele>196.85714285714283</ele><time>2026-04-15T14:57:44.31Z</time></trkpt><trkpt lat="40.8786417" lon="14.2291383"><ele>197.42857142857144</ele><time>2026-04-15T14:57:46.306Z</time></trkpt><trkpt lat="40.8786533" lon="14.2290517"><ele>198.0</ele><time>2026-04-15T14:57:48.308Z</time></trkpt><trkpt lat="40.878665" lon="14.2289567"><ele>198.57142857142858</ele><time>2026-04-15T14:57:50.306Z</time></trkpt><trkpt lat="40.878675" lon="14.228865"><ele>199.14285714285714</ele><time>2026-04-15T14:57:52.307Z</time></trkpt><trkpt lat="40.878675" lon="14.2287733"><ele>199.71428571428572</ele><time>2026-04-15T14:57:54.307Z</time></trkpt><trkpt lat="40.878655" lon="14.2286517"><ele>200.28571428571428</ele><time>2026-04-15T14:57:57.306Z</time></trkpt><trkpt lat="40.8786283" lon="14.22857"><ele>200.85714285714283</ele><time>2026-04-15T14:57:59.31Z</time></trkpt><trkpt lat="40.8785967" lon="14.2284933"><ele>201.42857142857142</ele><time>2026-04-15T14:58:01.309Z</time></trkpt><trkpt lat="40.8785617" lon="14.2284233"><ele>202.0</ele><time>2026-04-15T14:58:03.309Z</time></trkpt><trkpt lat="40.878505" lon="14.22833"><ele>201.99999999999997</ele><time>2026-04-15T14:58:06.309Z</time></trkpt><trkpt lat="40.8784567" lon="14.2282283"><ele>202.0</ele><time>2026-04-15T14:58:09.31Z</time></trkpt><trkpt lat="40.8784083" lon="14.2281367"><ele>202.0</ele><time>2026-04-15T14:58:12.308Z</time></trkpt><trkpt lat="40.8783683" lon="14.2280617"><ele>202.0</ele><time>2026-04-15T14:58:14.306Z</time></trkpt><trkpt lat="40.8783317" lon="14.22798"><ele>201.99999999999997</ele><time>2026-04-15T14:58:16.31Z</time></trkpt><trkpt lat="40.87829" lon="14.2279017"><ele>202.0</ele><time>2026-04-15T14:58:18.309Z</time></trkpt><trkpt lat="40.8782433" lon="14.2278333"><ele>202.57142857142856</ele><time>2026-04-15T14:58:20.308Z</time></trkpt><trkpt lat="40.87816" lon="14.22777"><ele>203.14285714285714</ele><time>2026-04-15T14:58:23.307Z</time></trkpt><trkpt lat="40.8780983" lon="14.2277483"><ele>203.71428571428572</ele><time>2026-04-15T14:58:25.308Z</time></trkpt><trkpt lat="40.8780267" lon="14.2277483"><ele>204.28571428571428</ele><time>2026-04-15T14:58:27.308Z</time></trkpt><trkpt lat="40.8779583" lon="14.227765"><ele>204.85714285714286</ele><time>2026-04-15T14:58:29.308Z</time></trkpt><trkpt lat="40.87789" lon="14.227785"><ele>205.42857142857142</ele><time>2026-04-15T14:58:31.308Z</time></trkpt><trkpt lat="40.8778233" lon="14.2278083"><ele>206.0</ele><time>2026-04-15T14:58:33.309Z</time></trkpt><trkpt lat="40.877735" lon="14.22785"><ele>205.99999999999997</ele><time>2026-04-15T14:58:36.308Z</time></trkpt><trkpt lat="40.8776733" lon="14.2278783"><ele>206.0</ele><time>2026-04-15T14:58:38.309Z</time></trkpt><trkpt lat="40.8776083" lon="14.2278917"><ele>206.0</ele><time>2026-04-15T14:58:40.307Z</time></trkpt><trkpt lat="40.8775433" lon="14.2278833"><ele>206.0</ele><time>2026-04-15T14:58:42.309Z</time></trkpt><trkpt lat="40.8774817" lon="14.22785"><ele>206.0</ele><time>2026-04-15T14:58:44.31Z</time></trkpt><trkpt lat="40.8774233" lon="14.2278"><ele>205.99999999999997</ele><time>2026-04-15T14:58:46.31Z</time></trkpt><trkpt lat="40.8773683" lon="14.2277567"><ele>206.0</ele><time>2026-04-15T14:58:48.309Z</time></trkpt><trkpt lat="40.8773167" lon="14.2277033"><ele>206.42857142857142</ele><time>2026-04-15T14:58:50.309Z</time></trkpt><trkpt lat="40.8772617" lon="14.227645"><ele>206.85714285714286</ele><time>2026-04-15T14:58:52.307Z</time></trkpt><trkpt lat="40.87721" lon="14.227595"><ele>207.28571428571428</ele><time>2026-04-15T14:58:54.31Z</time></trkpt><trkpt lat="40.87716" lon="14.2275433"><ele>207.71428571428572</ele><time>2026-04-15T14:58:56.309Z</time></trkpt><trkpt lat="40.877105" lon="14.2274883"><ele>208.14285714285714</ele><time>2026-04-15T14:58:58.305Z</time></trkpt><trkpt lat="40.87705" lon="14.2274333"><ele>208.57142857142856</ele><time>2026-04-15T14:59:00.308Z</time></trkpt><trkpt lat="40.8769917" lon="14.2273817"><ele>209.0</ele><time>2026-04-15T14:59:02.308Z</time></trkpt><trkpt lat="40.8769333" lon="14.2273283"><ele>210.14285714285714</ele><time>2026-04-15T14:59:04.309Z</time></trkpt><trkpt lat="40.876875" lon="14.2272817"><ele>211.28571428571428</ele><time>2026-04-15T14:59:06.309Z</time></trkpt><trkpt lat="40.8768117" lon="14.2272383"><ele>212.42857142857144</ele><time>2026-04-15T14:59:08.309Z</time></trkpt><trkpt lat="40.8767517" lon="14.22721"><ele>213.57142857142856</ele><time>2026-04-15T14:59:10.307Z</time></trkpt><trkpt lat="40.8766883" lon="14.2271883"><ele>214.71428571428572</ele><time>2026-04-15T14:59:12.308Z</time></trkpt><trkpt lat="40.8766033" lon="14.227165"><ele>215.85714285714286</ele><time>2026-04-15T14:59:15.308Z</time></trkpt><trkpt lat="40.876515" lon="14.2271317"><ele>217.0</ele><time>2026-04-15T14:59:18.309Z</time></trkpt><trkpt lat="40.87644" lon="14.2271133"><ele>217.66666666666666</ele><time>2026-04-15T14:59:21.307Z</time></trkpt><trkpt lat="40.8763483" lon="14.2270833"><ele>218.33333333333331</ele><time>2026-04-15T14:59:24.305Z</time></trkpt><trkpt lat="40.876255" lon="14.22708"><ele>219.0</ele><time>2026-04-15T14:59:27.306Z</time></trkpt><trkpt lat="40.876185" lon="14.2270783"><ele>219.66666666666669</ele><time>2026-04-15T14:59:29.307Z</time></trkpt><trkpt lat="40.8761183" lon="14.2270733"><ele>220.33333333333334</ele><time>2026-04-15T14:59:31.306Z</time></trkpt><trkpt lat="40.8760267" lon="14.227075"><ele>221.0</ele><time>2026-04-15T14:59:34.307Z</time></trkpt><trkpt lat="40.8759367" lon="14.227085"><ele>221.00000000000003</ele><time>2026-04-15T14:59:37.308Z</time></trkpt><trkpt lat="40.875865" lon="14.2270867"><ele>221.0</ele><time>2026-04-15T14:59:39.306Z</time></trkpt><trkpt lat="40.8757917" lon="14.2270783"><ele>221.0</ele><time>2026-04-15T14:59:41.308Z</time></trkpt><trkpt lat="40.87572" lon="14.2270567"><ele>221.0</ele><time>2026-04-15T14:59:43.308Z</time></trkpt><trkpt lat="40.8756333" lon="14.2270017"><ele>221.0</ele><time>2026-04-15T14:59:46.308Z</time></trkpt><trkpt lat="40.87558" lon="14.2269533"><ele>221.00000000000003</ele><time>2026-04-15T14:59:48.305Z</time></trkpt><trkpt lat="40.875535" lon="14.226895"><ele>221.0</ele><time>2026-04-15T14:59:50.308Z</time></trkpt><trkpt lat="40.87548" lon="14.2268017"><ele>221.00000000000003</ele><time>2026-04-15T14:59:53.308Z</time></trkpt><trkpt lat="40.87546" lon="14.2267133"><ele>221.0</ele><time>2026-04-15T14:59:55.307Z</time></trkpt><trkpt lat="40.875445" lon="14.2266217"><ele>221.0</ele><time>2026-04-15T14:59:57.308Z</time></trkpt><trkpt lat="40.87543" lon="14.2265267"><ele>221.0</ele><time>2026-04-15T14:59:59.309Z</time></trkpt><trkpt lat="40.875415" lon="14.2264333"><ele>221.0</ele><time>2026-04-15T15:00:01.307Z</time></trkpt><trkpt lat="40.8754033" lon="14.226345"><ele>221.00000000000003</ele><time>2026-04-15T15:00:03.308Z</time></trkpt><trkpt lat="40.8753883" lon="14.2262517"><ele>221.0</ele><time>2026-04-15T15:00:05.306Z</time></trkpt><trkpt lat="40.8753817" lon="14.2261467"><ele>221.42857142857144</ele><time>2026-04-15T15:00:07.305Z</time></trkpt><trkpt lat="40.87537" lon="14.2260433"><ele>221.85714285714286</ele><time>2026-04-15T15:00:09.306Z</time></trkpt><trkpt lat="40.8753617" lon="14.2259417"><ele>222.28571428571428</ele><time>2026-04-15T15:00:11.308Z</time></trkpt><trkpt lat="40.8753533" lon="14.2258433"><ele>222.71428571428572</ele><time>2026-04-15T15:00:13.31Z</time></trkpt><trkpt lat="40.8753517" lon="14.225745"><ele>223.14285714285714</ele><time>2026-04-15T15:00:15.309Z</time></trkpt><trkpt lat="40.875345" lon="14.2256483"><ele>223.57142857142858</ele><time>2026-04-15T15:00:17.305Z</time></trkpt><trkpt lat="40.8753567" lon="14.2255583"><ele>224.0</ele><time>2026-04-15T15:00:19.308Z</time></trkpt><trkpt lat="40.875375" lon="14.2254617"><ele>224.00000000000003</ele><time>2026-04-15T15:00:21.306Z</time></trkpt><trkpt lat="40.875395" lon="14.2253667"><ele>224.0</ele><time>2026-04-15T15:00:23.308Z</time></trkpt><trkpt lat="40.87542" lon="14.22527"><ele>224.0</ele><time>2026-04-15T15:00:25.308Z</time></trkpt><trkpt lat="40.8754533" lon="14.225175"><ele>224.0</ele><time>2026-04-15T15:00:27.308Z</time></trkpt><trkpt lat="40.875485" lon="14.22508"><ele>224.00000000000003</ele><time>2026-04-15T15:00:29.306Z</time></trkpt><trkpt lat="40.875515" lon="14.224985"><ele>224.0</ele><time>2026-04-15T15:00:31.305Z</time></trkpt><trkpt lat="40.87555" lon="14.2248917"><ele>224.33333333333334</ele><time>2026-04-15T15:00:33.305Z</time></trkpt><trkpt lat="40.8755833" lon="14.2247983"><ele>224.66666666666669</ele><time>2026-04-15T15:00:35.308Z</time></trkpt><trkpt lat="40.8756133" lon="14.224705"><ele>225.0</ele><time>2026-04-15T15:00:37.308Z</time></trkpt><trkpt lat="40.8756533" lon="14.2246117"><ele>225.33333333333331</ele><time>2026-04-15T15:00:39.307Z</time></trkpt><trkpt lat="40.8756917" lon="14.2245217"><ele>225.66666666666666</ele><time>2026-04-15T15:00:41.308Z</time></trkpt><trkpt lat="40.8757183" lon="14.224425"><ele>226.0</ele><time>2026-04-15T15:00:43.305Z</time></trkpt><trkpt lat="40.8757217" lon="14.2243267"><ele>226.0</ele><time>2026-04-15T15:00:45.307Z</time></trkpt><trkpt lat="40.8757167" lon="14.22423"><ele>226.0</ele><time>2026-04-15T15:00:47.306Z</time></trkpt><trkpt lat="40.875705" lon="14.224135"><ele>226.0</ele><time>2026-04-15T15:00:49.308Z</time></trkpt><trkpt lat="40.875685" lon="14.22405"><ele>226.0</ele><time>2026-04-15T15:00:51.306Z</time></trkpt><trkpt lat="40.8756583" lon="14.2239717"><ele>226.0</ele><time>2026-04-15T15:00:53.308Z</time></trkpt><trkpt lat="40.8756083" lon="14.2239083"><ele>226.0</ele><time>2026-04-15T15:00:55.307Z</time></trkpt><trkpt lat="40.875535" lon="14.223865"><ele>226.0</ele><time>2026-04-15T15:00:57.307Z</time></trkpt><trkpt lat="40.875445" lon="14.223825"><ele>226.49999999999997</ele><time>2026-04-15T15:01:00.309Z</time></trkpt><trkpt lat="40.8753733" lon="14.2238"><ele>227.0</ele><time>2026-04-15T15:01:02.309Z</time></trkpt><trkpt lat="40.8752933" lon="14.2237683"><ele>227.5</ele><time>2026-04-15T15:01:04.309Z</time></trkpt><trkpt lat="40.8752233" lon="14.223725"><ele>228.0</ele><time>2026-04-15T15:01:06.307Z</time></trkpt><trkpt lat="40.875165" lon="14.223665"><ele>228.49999999999997</ele><time>2026-04-15T15:01:08.308Z</time></trkpt><trkpt lat="40.8751067" lon="14.2235917"><ele>229.0</ele><time>2026-04-15T15:01:10.307Z</time></trkpt><trkpt lat="40.8750517" lon="14.2235217"><ele>229.0</ele><time>2026-04-15T15:01:12.307Z</time></trkpt><trkpt lat="40.8750067" lon="14.2234433"><ele>229.0</ele><time>2026-04-15T15:01:14.308Z</time></trkpt><trkpt lat="40.8749617" lon="14.223365"><ele>229.0</ele><time>2026-04-15T15:01:16.308Z</time></trkpt><trkpt lat="40.8749217" lon="14.22328"><ele>229.0</ele><time>2026-04-15T15:01:18.31Z</time></trkpt><trkpt lat="40.8748817" lon="14.223195"><ele>229.0</ele><time>2026-04-15T15:01:20.309Z</time></trkpt><trkpt lat="40.8748467" lon="14.2231083"><ele>229.0</ele><time>2026-04-15T15:01:22.308Z</time></trkpt><trkpt lat="40.8748183" lon="14.22303"><ele>229.0</ele><time>2026-04-15T15:01:24.309Z</time></trkpt><trkpt lat="40.874795" lon="14.2229433"><ele>229.85714285714283</ele><time>2026-04-15T15:01:26.309Z</time></trkpt><trkpt lat="40.8747667" lon="14.2228483"><ele>230.71428571428572</ele><time>2026-04-15T15:01:28.307Z</time></trkpt><trkpt lat="40.87476" lon="14.222745"><ele>231.57142857142856</ele><time>2026-04-15T15:01:30.308Z</time></trkpt><trkpt lat="40.874775" lon="14.2226467"><ele>232.42857142857142</ele><time>2026-04-15T15:01:32.308Z</time></trkpt><trkpt lat="40.874785" lon="14.2225567"><ele>233.28571428571428</ele><time>2026-04-15T15:01:34.306Z</time></trkpt><trkpt lat="40.8747833" lon="14.22246"><ele>234.14285714285714</ele><time>2026-04-15T15:01:36.306Z</time></trkpt><trkpt lat="40.87479" lon="14.22237"><ele>235.0</ele><time>2026-04-15T15:01:38.307Z</time></trkpt><trkpt lat="40.8747967" lon="14.2222833"><ele>235.16666666666666</ele><time>2026-04-15T15:01:40.308Z</time></trkpt><trkpt lat="40.8748017" lon="14.2221967"><ele>235.33333333333331</ele><time>2026-04-15T15:01:42.309Z</time></trkpt><trkpt lat="40.874815" lon="14.2220867"><ele>235.5</ele><time>2026-04-15T15:01:45.308Z</time></trkpt><trkpt lat="40.8748" lon="14.22199"><ele>235.66666666666669</ele><time>2026-04-15T15:01:49.309Z</time></trkpt><trkpt lat="40.874745" lon="14.2219017"><ele>235.83333333333334</ele><time>2026-04-15T15:01:56.308Z</time></trkpt><trkpt lat="40.8746767" lon="14.22186"><ele>236.0</ele><time>2026-04-15T15:01:59.307Z</time></trkpt><trkpt lat="40.8746267" lon="14.2217967"><ele>236.0</ele><time>2026-04-15T15:02:02.307Z</time></trkpt><trkpt lat="40.8745467" lon="14.2217283"><ele>236.00000000000003</ele><time>2026-04-15T15:02:05.308Z</time></trkpt><trkpt lat="40.8744567" lon="14.2216867"><ele>236.00000000000003</ele><time>2026-04-15T15:02:07.308Z</time></trkpt><trkpt lat="40.8743567" lon="14.2216617"><ele>236.0</ele><time>2026-04-15T15:02:09.306Z</time></trkpt><trkpt lat="40.8742567" lon="14.2216417"><ele>236.0</ele><time>2026-04-15T15:02:11.31Z</time></trkpt><trkpt lat="40.874165" lon="14.2216233"><ele>236.60000000000002</ele><time>2026-04-15T15:02:13.308Z</time></trkpt><trkpt lat="40.8740733" lon="14.221605"><ele>237.20000000000002</ele><time>2026-04-15T15:02:15.306Z</time></trkpt><trkpt lat="40.873985" lon="14.2215933"><ele>237.79999999999998</ele><time>2026-04-15T15:02:17.309Z</time></trkpt><trkpt lat="40.8738933" lon="14.2215767"><ele>238.39999999999998</ele><time>2026-04-15T15:02:19.306Z</time></trkpt><trkpt lat="40.873805" lon="14.2215633"><ele>239.0</ele><time>2026-04-15T15:02:21.307Z</time></trkpt><trkpt lat="40.8737183" lon="14.2215467"><ele>239.00000000000003</ele><time>2026-04-15T15:02:23.306Z</time></trkpt><trkpt lat="40.873635" lon="14.22153"><ele>239.0</ele><time>2026-04-15T15:02:25.307Z</time></trkpt><trkpt lat="40.87355" lon="14.2215183"><ele>239.0</ele><time>2026-04-15T15:02:27.308Z</time></trkpt><trkpt lat="40.8734567" lon="14.221505"><ele>239.0</ele><time>2026-04-15T15:02:29.307Z</time></trkpt><trkpt lat="40.8733667" lon="14.221485"><ele>239.00000000000003</ele><time>2026-04-15T15:02:31.308Z</time></trkpt><trkpt lat="40.8732783" lon="14.2214683"><ele>239.0</ele><time>2026-04-15T15:02:33.308Z</time></trkpt><trkpt lat="40.87319" lon="14.2214567"><ele>239.33333333333334</ele><time>2026-04-15T15:02:35.308Z</time></trkpt><trkpt lat="40.8730983" lon="14.221445"><ele>239.66666666666669</ele><time>2026-04-15T15:02:37.306Z</time></trkpt><trkpt lat="40.8730117" lon="14.2214667"><ele>240.0</ele><time>2026-04-15T15:02:39.305Z</time></trkpt><trkpt lat="40.8729283" lon="14.221505"><ele>240.33333333333331</ele><time>2026-04-15T15:02:41.306Z</time></trkpt><trkpt lat="40.8728467" lon="14.221555"><ele>240.66666666666666</ele><time>2026-04-15T15:02:43.309Z</time></trkpt><trkpt lat="40.8727683" lon="14.2216017"><ele>241.0</ele><time>2026-04-15T15:02:45.308Z</time></trkpt><trkpt lat="40.87269" lon="14.22165"><ele>241.0</ele><time>2026-04-15T15:02:47.306Z</time></trkpt><trkpt lat="40.87261" lon="14.2216983"><ele>241.00000000000003</ele><time>2026-04-15T15:02:49.305Z</time></trkpt><trkpt lat="40.872525" lon="14.2217417"><ele>241.00000000000003</ele><time>2026-04-15T15:02:51.307Z</time></trkpt><trkpt lat="40.8724383" lon="14.2217733"><ele>241.0</ele><time>2026-04-15T15:02:53.307Z</time></trkpt><trkpt lat="40.8723417" lon="14.221785"><ele>241.0</ele><time>2026-04-15T15:02:55.308Z</time></trkpt><trkpt lat="40.8722517" lon="14.2217567"><ele>241.8</ele><time>2026-04-15T15:02:57.31Z</time></trkpt><trkpt lat="40.8721617" lon="14.221725"><ele>242.60000000000002</ele><time>2026-04-15T15:02:59.307Z</time></trkpt><trkpt lat="40.8720733" lon="14.2216867"><ele>243.4</ele><time>2026-04-15T15:03:01.306Z</time></trkpt><trkpt lat="40.8719833" lon="14.22165"><ele>244.2</ele><time>2026-04-15T15:03:03.306Z</time></trkpt><trkpt lat="40.8718983" lon="14.2216233"><ele>245.0</ele><time>2026-04-15T15:03:05.307Z</time></trkpt><trkpt lat="40.8718033" lon="14.2216083"><ele>244.2</ele><time>2026-04-15T15:03:07.307Z</time></trkpt><trkpt lat="40.8717083" lon="14.2215933"><ele>243.4</ele><time>2026-04-15T15:03:09.308Z</time></trkpt><trkpt lat="40.8716183" lon="14.221585"><ele>242.60000000000002</ele><time>2026-04-15T15:03:11.306Z</time></trkpt><trkpt lat="40.87152" lon="14.2215883"><ele>241.8</ele><time>2026-04-15T15:03:13.31Z</time></trkpt><trkpt lat="40.871435" lon="14.2215817"><ele>241.0</ele><time>2026-04-15T15:03:15.306Z</time></trkpt><trkpt lat="40.8713483" lon="14.2215883"><ele>240.99999999999997</ele><time>2026-04-15T15:03:17.305Z</time></trkpt><trkpt lat="40.8712733" lon="14.22162"><ele>241.0</ele><time>2026-04-15T15:03:19.308Z</time></trkpt><trkpt lat="40.8711967" lon="14.221665"><ele>241.0</ele><time>2026-04-15T15:03:21.306Z</time></trkpt><trkpt lat="40.871125" lon="14.221715"><ele>241.0</ele><time>2026-04-15T15:03:23.307Z</time></trkpt><trkpt lat="40.8710467" lon="14.2217617"><ele>240.99999999999997</ele><time>2026-04-15T15:03:25.308Z</time></trkpt><trkpt lat="40.8709683" lon="14.2218067"><ele>241.0</ele><time>2026-04-15T15:03:27.306Z</time></trkpt><trkpt lat="40.870885" lon="14.2218533"><ele>241.99999999999997</ele><time>2026-04-15T15:03:29.307Z</time></trkpt><trkpt lat="40.8707933" lon="14.2218967"><ele>243.0</ele><time>2026-04-15T15:03:31.309Z</time></trkpt><trkpt lat="40.8707" lon="14.2219217"><ele>244.0</ele><time>2026-04-15T15:03:33.308Z</time></trkpt><trkpt lat="40.8706133" lon="14.221945"><ele>245.0</ele><time>2026-04-15T15:03:35.307Z</time></trkpt><trkpt lat="40.870535" lon="14.221965"><ele>245.99999999999997</ele><time>2026-04-15T15:03:37.306Z</time></trkpt><trkpt lat="40.87046" lon="14.221975"><ele>247.0</ele><time>2026-04-15T15:03:39.307Z</time></trkpt><trkpt lat="40.8703967" lon="14.221985"><ele>246.99999999999997</ele><time>2026-04-15T15:03:41.308Z</time></trkpt><trkpt lat="40.8703267" lon="14.222005"><ele>247.0</ele><time>2026-04-15T15:03:43.308Z</time></trkpt><trkpt lat="40.870255" lon="14.2220267"><ele>247.0</ele><time>2026-04-15T15:03:45.307Z</time></trkpt><trkpt lat="40.8701717" lon="14.222035"><ele>247.0</ele><time>2026-04-15T15:03:47.306Z</time></trkpt><trkpt lat="40.8700983" lon="14.2220433"><ele>246.99999999999997</ele><time>2026-04-15T15:03:49.307Z</time></trkpt><trkpt lat="40.8700183" lon="14.2220567"><ele>247.0</ele><time>2026-04-15T15:03:51.308Z</time></trkpt><trkpt lat="40.8699467" lon="14.2220767"><ele>248.33333333333331</ele><time>2026-04-15T15:03:53.308Z</time></trkpt><trkpt lat="40.8698717" lon="14.22208"><ele>249.66666666666666</ele><time>2026-04-15T15:03:55.306Z</time></trkpt><trkpt lat="40.8697983" lon="14.2220883"><ele>251.0</ele><time>2026-04-15T15:03:57.305Z</time></trkpt><trkpt lat="40.8697217" lon="14.2221033"><ele>252.33333333333331</ele><time>2026-04-15T15:03:59.309Z</time></trkpt><trkpt lat="40.8696467" lon="14.2221167"><ele>253.66666666666666</ele><time>2026-04-15T15:04:01.307Z</time></trkpt><trkpt lat="40.8695733" lon="14.2221383"><ele>255.0</ele><time>2026-04-15T15:04:03.307Z</time></trkpt><trkpt lat="40.8695" lon="14.2221717"><ele>255.0</ele><time>2026-04-15T15:04:05.308Z</time></trkpt><trkpt lat="40.869425" lon="14.2222083"><ele>255.0</ele><time>2026-04-15T15:04:07.308Z</time></trkpt><trkpt lat="40.8693517" lon="14.2222533"><ele>255.0</ele><time>2026-04-15T15:04:09.309Z</time></trkpt><trkpt lat="40.8692817" lon="14.2222817"><ele>255.0</ele><time>2026-04-15T15:04:11.306Z</time></trkpt><trkpt lat="40.8692083" lon="14.222325"><ele>255.0</ele><time>2026-04-15T15:04:13.307Z</time></trkpt><trkpt lat="40.86914" lon="14.22237"><ele>255.0</ele><time>2026-04-15T15:04:15.31Z</time></trkpt><trkpt lat="40.8690683" lon="14.2224167"><ele>256.0</ele><time>2026-04-15T15:04:17.307Z</time></trkpt><trkpt lat="40.868995" lon="14.2224617"><ele>257.0</ele><time>2026-04-15T15:04:19.308Z</time></trkpt><trkpt lat="40.8689233" lon="14.222505"><ele>258.0</ele><time>2026-04-15T15:04:21.308Z</time></trkpt><trkpt lat="40.8688633" lon="14.2225533"><ele>259.0</ele><time>2026-04-15T15:04:23.306Z</time></trkpt><trkpt lat="40.868795" lon="14.22261"><ele>260.0</ele><time>2026-04-15T15:04:25.306Z</time></trkpt><trkpt lat="40.8687183" lon="14.2226517"><ele>261.0</ele><time>2026-04-15T15:04:27.307Z</time></trkpt><trkpt lat="40.86864" lon="14.2226967"><ele>261.0</ele><time>2026-04-15T15:04:29.307Z</time></trkpt><trkpt lat="40.86856" lon="14.222735"><ele>261.0</ele><time>2026-04-15T15:04:31.307Z</time></trkpt><trkpt lat="40.8684783" lon="14.2227683"><ele>261.0</ele><time>2026-04-15T15:04:33.306Z</time></trkpt><trkpt lat="40.868395" lon="14.222805"><ele>261.0</ele><time>2026-04-15T15:04:35.308Z</time></trkpt><trkpt lat="40.8683117" lon="14.2228067"><ele>261.0</ele><time>2026-04-15T15:04:37.306Z</time></trkpt><trkpt lat="40.8682367" lon="14.2227783"><ele>261.0</ele><time>2026-04-15T15:04:39.307Z</time></trkpt><trkpt lat="40.8681617" lon="14.2227467"><ele>261.7142857142857</ele><time>2026-04-15T15:04:41.306Z</time></trkpt><trkpt lat="40.86809" lon="14.2227183"><ele>262.42857142857144</ele><time>2026-04-15T15:04:43.306Z</time></trkpt><trkpt lat="40.8680217" lon="14.22269"><ele>263.1428571428571</ele><time>2026-04-15T15:04:45.307Z</time></trkpt><trkpt lat="40.8679517" lon="14.2226667"><ele>263.8571428571429</ele><time>2026-04-15T15:04:47.308Z</time></trkpt><trkpt lat="40.86788" lon="14.2226433"><ele>264.57142857142856</ele><time>2026-04-15T15:04:49.307Z</time></trkpt><trkpt lat="40.8678083" lon="14.2226233"><ele>265.2857142857143</ele><time>2026-04-15T15:04:51.308Z</time></trkpt><trkpt lat="40.8677383" lon="14.2226083"><ele>266.0</ele><time>2026-04-15T15:04:53.305Z</time></trkpt><trkpt lat="40.86767" lon="14.222585"><ele>266.1666666666667</ele><time>2026-04-15T15:04:55.307Z</time></trkpt><trkpt lat="40.8676067" lon="14.222575"><ele>266.33333333333337</ele><time>2026-04-15T15:04:57.308Z</time></trkpt><trkpt lat="40.8675133" lon="14.2225517"><ele>266.5</ele><time>2026-04-15T15:05:00.31Z</time></trkpt><trkpt lat="40.8674467" lon="14.2225283"><ele>266.6666666666667</ele><time>2026-04-15T15:05:02.308Z</time></trkpt><trkpt lat="40.8673533" lon="14.222505"><ele>266.8333333333333</ele><time>2026-04-15T15:05:05.307Z</time></trkpt><trkpt lat="40.8672733" lon="14.22248"><ele>267.0</ele><time>2026-04-15T15:05:07.307Z</time></trkpt><trkpt lat="40.8672067" lon="14.2224533"><ele>267.0</ele><time>2026-04-15T15:05:09.308Z</time></trkpt><trkpt lat="40.86713" lon="14.2224317"><ele>267.0</ele><time>2026-04-15T15:05:11.31Z</time></trkpt><trkpt lat="40.8670583" lon="14.2224033"><ele>267.0</ele><time>2026-04-15T15:05:13.308Z</time></trkpt><trkpt lat="40.8669867" lon="14.2223733"><ele>267.0</ele><time>2026-04-15T15:05:15.306Z</time></trkpt><trkpt lat="40.86691" lon="14.2223317"><ele>267.0</ele><time>2026-04-15T15:05:17.308Z</time></trkpt><trkpt lat="40.8667917" lon="14.2222767"><ele>267.0</ele><time>2026-04-15T15:05:20.308Z</time></trkpt><trkpt lat="40.8667133" lon="14.2222417"><ele>267.1666666666667</ele><time>2026-04-15T15:05:22.307Z</time></trkpt><trkpt lat="40.866625" lon="14.2222033"><ele>267.3333333333333</ele><time>2026-04-15T15:05:24.308Z</time></trkpt><trkpt lat="40.866545" lon="14.2221717"><ele>267.5</ele><time>2026-04-15T15:05:26.308Z</time></trkpt><trkpt lat="40.8664767" lon="14.222155"><ele>267.66666666666663</ele><time>2026-04-15T15:05:28.31Z</time></trkpt><trkpt lat="40.8663917" lon="14.22212"><ele>267.8333333333333</ele><time>2026-04-15T15:05:31.306Z</time></trkpt><trkpt lat="40.8663033" lon="14.2220867"><ele>268.0</ele><time>2026-04-15T15:05:34.307Z</time></trkpt><trkpt lat="40.86623" lon="14.2220167"><ele>268.0</ele><time>2026-04-15T15:05:37.307Z</time></trkpt><trkpt lat="40.8661583" lon="14.222005"><ele>268.0</ele><time>2026-04-15T15:05:39.307Z</time></trkpt><trkpt lat="40.86608" lon="14.2220017"><ele>268.0</ele><time>2026-04-15T15:05:41.306Z</time></trkpt><trkpt lat="40.866" lon="14.22199"><ele>268.0</ele><time>2026-04-15T15:05:43.308Z</time></trkpt><trkpt lat="40.8659183" lon="14.2219567"><ele>268.0</ele><time>2026-04-15T15:05:45.308Z</time></trkpt><trkpt lat="40.86583" lon="14.2219167"><ele>268.0</ele><time>2026-04-15T15:05:47.307Z</time></trkpt><trkpt lat="40.8657583" lon="14.2218583"><ele>268.16666666666663</ele><time>2026-04-15T15:05:49.309Z</time></trkpt><trkpt lat="40.86569" lon="14.2218"><ele>268.3333333333333</ele><time>2026-04-15T15:05:51.307Z</time></trkpt><trkpt lat="40.865625" lon="14.2217483"><ele>268.5</ele><time>2026-04-15T15:05:53.308Z</time></trkpt><trkpt lat="40.86556" lon="14.2216983"><ele>268.6666666666667</ele><time>2026-04-15T15:05:55.305Z</time></trkpt><trkpt lat="40.8654967" lon="14.22166"><ele>268.83333333333337</ele><time>2026-04-15T15:05:58.307Z</time></trkpt><trkpt lat="40.8654167" lon="14.2216533"><ele>269.0</ele><time>2026-04-15T15:06:01.307Z</time></trkpt><trkpt lat="40.8653283" lon="14.2216233"><ele>269.0</ele><time>2026-04-15T15:06:04.307Z</time></trkpt><trkpt lat="40.8652417" lon="14.2215667"><ele>269.0</ele><time>2026-04-15T15:06:07.306Z</time></trkpt><trkpt lat="40.86516" lon="14.2215317"><ele>269.0</ele><time>2026-04-15T15:06:10.306Z</time></trkpt><trkpt lat="40.86507" lon="14.2214983"><ele>269.0</ele><time>2026-04-15T15:06:13.309Z</time></trkpt><trkpt lat="40.865005" lon="14.2214817"><ele>269.0</ele><time>2026-04-15T15:06:15.308Z</time></trkpt><trkpt lat="40.864935" lon="14.2214683"><ele>269.0</ele><time>2026-04-15T15:06:17.308Z</time></trkpt><trkpt lat="40.8648683" lon="14.221435"><ele>270.1666666666667</ele><time>2026-04-15T15:06:19.306Z</time></trkpt><trkpt lat="40.8647983" lon="14.2213933"><ele>271.33333333333337</ele><time>2026-04-15T15:06:22.307Z</time></trkpt><trkpt lat="40.8647183" lon="14.2213517"><ele>272.5</ele><time>2026-04-15T15:06:25.306Z</time></trkpt><trkpt lat="40.8646533" lon="14.22131"><ele>273.6666666666667</ele><time>2026-04-15T15:06:27.308Z</time></trkpt><trkpt lat="40.86459" lon="14.2212583"><ele>274.8333333333333</ele><time>2026-04-15T15:06:29.308Z</time></trkpt><trkpt lat="40.8645433" lon="14.2211867"><ele>276.0</ele><time>2026-04-15T15:06:31.307Z</time></trkpt><trkpt lat="40.86451" lon="14.2210983"><ele>276.0</ele><time>2026-04-15T15:06:33.309Z</time></trkpt><trkpt lat="40.864475" lon="14.2210267"><ele>276.0</ele><time>2026-04-15T15:06:35.306Z</time></trkpt><trkpt lat="40.8644533" lon="14.2209333"><ele>276.0</ele><time>2026-04-15T15:06:37.308Z</time></trkpt><trkpt lat="40.8644117" lon="14.220825"><ele>276.0</ele><time>2026-04-15T15:06:39.307Z</time></trkpt><trkpt lat="40.86437" lon="14.2207183"><ele>276.0</ele><time>2026-04-15T15:06:41.31Z</time></trkpt><trkpt lat="40.8643383" lon="14.2206183"><ele>276.0</ele><time>2026-04-15T15:06:43.305Z</time></trkpt><trkpt lat="40.8643083" lon="14.2205133"><ele>276.5</ele><time>2026-04-15T15:06:45.31Z</time></trkpt><trkpt lat="40.8642617" lon="14.2204083"><ele>277.0</ele><time>2026-04-15T15:06:47.308Z</time></trkpt><trkpt lat="40.8642317" lon="14.2203083"><ele>277.5</ele><time>2026-04-15T15:06:49.309Z</time></trkpt><trkpt lat="40.8642033" lon="14.2202117"><ele>278.0</ele><time>2026-04-15T15:06:51.309Z</time></trkpt><trkpt lat="40.8641767" lon="14.2201233"><ele>278.5</ele><time>2026-04-15T15:06:53.31Z</time></trkpt><trkpt lat="40.8641417" lon="14.220005"><ele>279.0</ele><time>2026-04-15T15:06:56.308Z</time></trkpt><trkpt lat="40.864115" lon="14.2199233"><ele>279.0</ele><time>2026-04-15T15:06:58.308Z</time></trkpt><trkpt lat="40.8640833" lon="14.2198267"><ele>279.0</ele><time>2026-04-15T15:07:00.307Z</time></trkpt><trkpt lat="40.8640567" lon="14.2197167"><ele>279.0</ele><time>2026-04-15T15:07:02.311Z</time></trkpt><trkpt lat="40.86402" lon="14.2195633"><ele>279.0</ele><time>2026-04-15T15:07:05.31Z</time></trkpt><trkpt lat="40.8640033" lon="14.2194683"><ele>279.0</ele><time>2026-04-15T15:07:07.31Z</time></trkpt><trkpt lat="40.863975" lon="14.2193833"><ele>279.0</ele><time>2026-04-15T15:07:09.305Z</time></trkpt><trkpt lat="40.86395" lon="14.219295"><ele>279.6666666666667</ele><time>2026-04-15T15:07:11.31Z</time></trkpt><trkpt lat="40.8639267" lon="14.219215"><ele>280.3333333333333</ele><time>2026-04-15T15:07:13.307Z</time></trkpt><trkpt lat="40.863885" lon="14.2191283"><ele>281.0</ele><time>2026-04-15T15:07:15.307Z</time></trkpt><trkpt lat="40.8638467" lon="14.219045"><ele>281.66666666666663</ele><time>2026-04-15T15:07:17.307Z</time></trkpt><trkpt lat="40.8638183" lon="14.21894"><ele>282.3333333333333</ele><time>2026-04-15T15:07:19.308Z</time></trkpt><trkpt lat="40.863785" lon="14.2188167"><ele>283.0</ele><time>2026-04-15T15:07:21.306Z</time></trkpt><trkpt lat="40.8637467" lon="14.218705"><ele>283.75</ele><time>2026-04-15T15:07:23.308Z</time></trkpt><trkpt lat="40.8637133" lon="14.21858"><ele>284.5</ele><time>2026-04-15T15:07:25.307Z</time></trkpt><trkpt lat="40.863675" lon="14.2184467"><ele>285.25</ele><time>2026-04-15T15:07:27.306Z</time></trkpt><trkpt lat="40.863645" lon="14.2182967"><ele>286.0</ele><time>2026-04-15T15:07:29.308Z</time></trkpt><trkpt lat="40.8635817" lon="14.218155"><ele>285.6</ele><time>2026-04-15T15:07:31.308Z</time></trkpt><trkpt lat="40.86352" lon="14.218035"><ele>285.20000000000005</ele><time>2026-04-15T15:07:33.308Z</time></trkpt><trkpt lat="40.863445" lon="14.2179183"><ele>284.79999999999995</ele><time>2026-04-15T15:07:35.309Z</time></trkpt><trkpt lat="40.8633667" lon="14.2178133"><ele>284.4</ele><time>2026-04-15T15:07:37.308Z</time></trkpt><trkpt lat="40.8633017" lon="14.2177683"><ele>284.0</ele><time>2026-04-15T15:07:38.31Z</time></trkpt><trkpt lat="40.8632367" lon="14.2177267"><ele>284.0</ele><time>2026-04-15T15:07:39.309Z</time></trkpt><trkpt lat="40.863135" lon="14.2176417"><ele>284.0</ele><time>2026-04-15T15:07:41.312Z</time></trkpt><trkpt lat="40.8630267" lon="14.2175633"><ele>284.0</ele><time>2026-04-15T15:07:43.309Z</time></trkpt><trkpt lat="40.8629683" lon="14.2175283"><ele>284.0</ele><time>2026-04-15T15:07:44.31Z</time></trkpt><trkpt lat="40.8628567" lon="14.217475"><ele>284.0</ele><time>2026-04-15T15:07:46.308Z</time></trkpt><trkpt lat="40.8627683" lon="14.2174033"><ele>284.1666666666667</ele><time>2026-04-15T15:07:48.31Z</time></trkpt><trkpt lat="40.86273" lon="14.2172767"><ele>284.33333333333337</ele><time>2026-04-15T15:07:50.311Z</time></trkpt><trkpt lat="40.862765" lon="14.217135"><ele>284.5</ele><time>2026-04-15T15:07:52.308Z</time></trkpt><trkpt lat="40.8627933" lon="14.21706"><ele>284.6666666666667</ele><time>2026-04-15T15:07:53.31Z</time></trkpt><trkpt lat="40.8628333" lon="14.2169833"><ele>284.8333333333333</ele><time>2026-04-15T15:07:54.309Z</time></trkpt><trkpt lat="40.86287" lon="14.2169117"><ele>285.0</ele><time>2026-04-15T15:07:55.307Z</time></trkpt><trkpt lat="40.862905" lon="14.2168367"><ele>285.0</ele><time>2026-04-15T15:07:56.311Z</time></trkpt><trkpt lat="40.8629333" lon="14.216675"><ele>285.0</ele><time>2026-04-15T15:07:58.31Z</time></trkpt><trkpt lat="40.8629133" lon="14.21652"><ele>285.0</ele><time>2026-04-15T15:08:00.311Z</time></trkpt><trkpt lat="40.86286" lon="14.2164483"><ele>285.0</ele><time>2026-04-15T15:08:01.309Z</time></trkpt><trkpt lat="40.8627983" lon="14.2164017"><ele>285.0</ele><time>2026-04-15T15:08:02.309Z</time></trkpt><trkpt lat="40.8627083" lon="14.2163817"><ele>284.6666666666667</ele><time>2026-04-15T15:08:03.308Z</time></trkpt><trkpt lat="40.86264" lon="14.216385"><ele>284.3333333333333</ele><time>2026-04-15T15:08:04.305Z</time></trkpt><trkpt lat="40.8625733" lon="14.2163883"><ele>284.0</ele><time>2026-04-15T15:08:05.307Z</time></trkpt><trkpt lat="40.86251" lon="14.21639"><ele>283.66666666666663</ele><time>2026-04-15T15:08:06.308Z</time></trkpt><trkpt lat="40.8623817" lon="14.21641"><ele>283.3333333333333</ele><time>2026-04-15T15:08:08.308Z</time></trkpt><trkpt lat="40.8623133" lon="14.2164233"><ele>283.0</ele><time>2026-04-15T15:08:09.309Z</time></trkpt><trkpt lat="40.862245" lon="14.2164367"><ele>283.0</ele><time>2026-04-15T15:08:10.309Z</time></trkpt><trkpt lat="40.8621767" lon="14.21644"><ele>283.0</ele><time>2026-04-15T15:08:11.309Z</time></trkpt><trkpt lat="40.8621083" lon="14.2164367"><ele>283.0</ele><time>2026-04-15T15:08:12.31Z</time></trkpt><trkpt lat="40.86199" lon="14.216385"><ele>283.0</ele><time>2026-04-15T15:08:14.309Z</time></trkpt><trkpt lat="40.861935" lon="14.216335"><ele>283.0</ele><time>2026-04-15T15:08:15.309Z</time></trkpt><trkpt lat="40.8618817" lon="14.2162817"><ele>283.0</ele><time>2026-04-15T15:08:16.307Z</time></trkpt><trkpt lat="40.8617733" lon="14.2161783"><ele>283.4</ele><time>2026-04-15T15:08:18.307Z</time></trkpt><trkpt lat="40.8617133" lon="14.21614"><ele>283.8</ele><time>2026-04-15T15:08:19.308Z</time></trkpt><trkpt lat="40.86158" lon="14.2160917"><ele>284.2</ele><time>2026-04-15T15:08:21.308Z</time></trkpt><trkpt lat="40.861475" lon="14.2161633"><ele>284.6</ele><time>2026-04-15T15:08:23.308Z</time></trkpt><trkpt lat="40.8614067" lon="14.2162933"><ele>285.0</ele><time>2026-04-15T15:08:25.309Z</time></trkpt><trkpt lat="40.86139" lon="14.2163767"><ele>285.2</ele><time>2026-04-15T15:08:26.308Z</time></trkpt><trkpt lat="40.8614067" lon="14.2165867"><ele>285.4</ele><time>2026-04-15T15:08:28.31Z</time></trkpt><trkpt lat="40.8614317" lon="14.2166933"><ele>285.6</ele><time>2026-04-15T15:08:29.308Z</time></trkpt><trkpt lat="40.861465" lon="14.2167983"><ele>285.8</ele><time>2026-04-15T15:08:30.31Z</time></trkpt><trkpt lat="40.8615" lon="14.2169117"><ele>286.0</ele><time>2026-04-15T15:08:31.308Z</time></trkpt><trkpt lat="40.8615733" lon="14.2170583"><ele>286.0</ele><time>2026-04-15T15:08:32.309Z</time></trkpt><trkpt lat="40.8616283" lon="14.2171583"><ele>286.0</ele><time>2026-04-15T15:08:33.308Z</time></trkpt><trkpt lat="40.861675" lon="14.2172517"><ele>286.0</ele><time>2026-04-15T15:08:34.311Z</time></trkpt><trkpt lat="40.8617233" lon="14.21733"><ele>286.0</ele><time>2026-04-15T15:08:35.307Z</time></trkpt><trkpt lat="40.8617583" lon="14.2174117"><ele>286.0</ele><time>2026-04-15T15:08:36.307Z</time></trkpt><trkpt lat="40.8617917" lon="14.2174933"><ele>286.0</ele><time>2026-04-15T15:08:37.307Z</time></trkpt><trkpt lat="40.8618183" lon="14.2176517"><ele>284.25</ele><time>2026-04-15T15:08:39.307Z</time></trkpt><trkpt lat="40.86176" lon="14.2177817"><ele>282.5</ele><time>2026-04-15T15:08:41.307Z</time></trkpt><trkpt lat="40.8616417" lon="14.217805"><ele>280.75</ele><time>2026-04-15T15:08:43.306Z</time></trkpt><trkpt lat="40.8614817" lon="14.2178017"><ele>279.0</ele><time>2026-04-15T15:08:45.307Z</time></trkpt><trkpt lat="40.8613833" lon="14.2177983"><ele>279.0</ele><time>2026-04-15T15:08:46.309Z</time></trkpt><trkpt lat="40.8612733" lon="14.2177933"><ele>279.0</ele><time>2026-04-15T15:08:47.308Z</time></trkpt><trkpt lat="40.8611667" lon="14.2177833"><ele>279.0</ele><time>2026-04-15T15:08:48.308Z</time></trkpt><trkpt lat="40.8610817" lon="14.217785"><ele>279.0</ele><time>2026-04-15T15:08:49.305Z</time></trkpt><trkpt lat="40.8609883" lon="14.2177783"><ele>279.0</ele><time>2026-04-15T15:08:50.306Z</time></trkpt><trkpt lat="40.8608883" lon="14.217765"><ele>278.6666666666667</ele><time>2026-04-15T15:08:51.307Z</time></trkpt><trkpt lat="40.8607933" lon="14.2177633"><ele>278.3333333333333</ele><time>2026-04-15T15:08:52.307Z</time></trkpt><trkpt lat="40.86072" lon="14.2177667"><ele>278.0</ele><time>2026-04-15T15:08:53.308Z</time></trkpt><trkpt lat="40.86065" lon="14.2177733"><ele>277.66666666666663</ele><time>2026-04-15T15:08:54.308Z</time></trkpt><trkpt lat="40.8605717" lon="14.2177783"><ele>277.3333333333333</ele><time>2026-04-15T15:08:55.306Z</time></trkpt><trkpt lat="40.860495" lon="14.2177817"><ele>277.0</ele><time>2026-04-15T15:08:56.306Z</time></trkpt><trkpt lat="40.8604167" lon="14.2177817"><ele>277.0</ele><time>2026-04-15T15:08:57.308Z</time></trkpt><trkpt lat="40.8603433" lon="14.2177817"><ele>277.0</ele><time>2026-04-15T15:08:58.307Z</time></trkpt><trkpt lat="40.8602217" lon="14.2177767"><ele>277.0</ele><time>2026-04-15T15:09:00.308Z</time></trkpt><trkpt lat="40.86011" lon="14.2177833"><ele>277.0</ele><time>2026-04-15T15:09:02.308Z</time></trkpt><trkpt lat="40.859995" lon="14.2178"><ele>277.0</ele><time>2026-04-15T15:09:04.307Z</time></trkpt><trkpt lat="40.859925" lon="14.217805"><ele>275.8333333333333</ele><time>2026-04-15T15:09:05.308Z</time></trkpt><trkpt lat="40.8598533" lon="14.2178033"><ele>274.66666666666663</ele><time>2026-04-15T15:09:06.31Z</time></trkpt><trkpt lat="40.85978" lon="14.2178017"><ele>273.5</ele><time>2026-04-15T15:09:07.305Z</time></trkpt><trkpt lat="40.85971" lon="14.2177983"><ele>272.3333333333333</ele><time>2026-04-15T15:09:08.307Z</time></trkpt><trkpt lat="40.8596433" lon="14.2178"><ele>271.1666666666667</ele><time>2026-04-15T15:09:09.307Z</time></trkpt><trkpt lat="40.8595783" lon="14.2178017"><ele>270.0</ele><time>2026-04-15T15:09:10.305Z</time></trkpt><trkpt lat="40.8594617" lon="14.2178067"><ele>270.0</ele><time>2026-04-15T15:09:12.306Z</time></trkpt><trkpt lat="40.859335" lon="14.21781"><ele>270.0</ele><time>2026-04-15T15:09:14.308Z</time></trkpt><trkpt lat="40.8592717" lon="14.2178167"><ele>270.0</ele><time>2026-04-15T15:09:15.306Z</time></trkpt><trkpt lat="40.8591533" lon="14.2178283"><ele>270.0</ele><time>2026-04-15T15:09:17.309Z</time></trkpt><trkpt lat="40.8590567" lon="14.2178117"><ele>270.0</ele><time>2026-04-15T15:09:19.309Z</time></trkpt><trkpt lat="40.8589883" lon="14.2177383"><ele>268.1666666666667</ele><time>2026-04-15T15:09:21.308Z</time></trkpt><trkpt lat="40.8589833" lon="14.21763"><ele>266.3333333333333</ele><time>2026-04-15T15:09:23.307Z</time></trkpt><trkpt lat="40.8590417" lon="14.217515"><ele>264.5</ele><time>2026-04-15T15:09:25.307Z</time></trkpt><trkpt lat="40.8591333" lon="14.2174083"><ele>262.66666666666663</ele><time>2026-04-15T15:09:27.305Z</time></trkpt><trkpt lat="40.8591833" lon="14.2173517"><ele>260.8333333333333</ele><time>2026-04-15T15:09:28.308Z</time></trkpt><trkpt lat="40.8592217" lon="14.2172817"><ele>259.0</ele><time>2026-04-15T15:09:29.308Z</time></trkpt><trkpt lat="40.85925" lon="14.2172"><ele>259.0</ele><time>2026-04-15T15:09:30.308Z</time></trkpt><trkpt lat="40.8592417" lon="14.2171133"><ele>259.0</ele><time>2026-04-15T15:09:31.307Z</time></trkpt><trkpt lat="40.8592" lon="14.2170283"><ele>259.0</ele><time>2026-04-15T15:09:32.309Z</time></trkpt><trkpt lat="40.859165" lon="14.216945"><ele>259.0</ele><time>2026-04-15T15:09:33.305Z</time></trkpt><trkpt lat="40.8591283" lon="14.2168683"><ele>259.0</ele><time>2026-04-15T15:09:34.305Z</time></trkpt><trkpt lat="40.8590483" lon="14.2167483"><ele>259.0</ele><time>2026-04-15T15:09:36.305Z</time></trkpt><trkpt lat="40.8589883" lon="14.2166767"><ele>259.0</ele><time>2026-04-15T15:09:37.307Z</time></trkpt><trkpt lat="40.8589183" lon="14.21661"><ele>259.0</ele><time>2026-04-15T15:09:38.305Z</time></trkpt><trkpt lat="40.8588417" lon="14.2165483"><ele>259.0</ele><time>2026-04-15T15:09:39.31Z</time></trkpt><trkpt lat="40.8587667" lon="14.2165017"><ele>259.0</ele><time>2026-04-15T15:09:40.307Z</time></trkpt><trkpt lat="40.8586933" lon="14.2164683"><ele>259.0</ele><time>2026-04-15T15:09:41.311Z</time></trkpt><trkpt lat="40.858625" lon="14.2164583"><ele>259.0</ele><time>2026-04-15T15:09:42.306Z</time></trkpt><trkpt lat="40.8585133" lon="14.2165267"><ele>259.0</ele><time>2026-04-15T15:09:44.305Z</time></trkpt><trkpt lat="40.8584767" lon="14.2166083"><ele>259.0</ele><time>2026-04-15T15:09:45.305Z</time></trkpt><trkpt lat="40.8584683" lon="14.2167"><ele>259.0</ele><time>2026-04-15T15:09:46.306Z</time></trkpt><trkpt lat="40.8584917" lon="14.2167833"><ele>259.0</ele><time>2026-04-15T15:09:47.306Z</time></trkpt><trkpt lat="40.8585567" lon="14.21686"><ele>259.0</ele><time>2026-04-15T15:09:48.308Z</time></trkpt><trkpt lat="40.8586217" lon="14.21691"><ele>259.0</ele><time>2026-04-15T15:09:49.306Z</time></trkpt><trkpt lat="40.8586933" lon="14.2169517"><ele>259.0</ele><time>2026-04-15T15:09:50.306Z</time></trkpt><trkpt lat="40.8587617" lon="14.2169883"><ele>259.0</ele><time>2026-04-15T15:09:51.308Z</time></trkpt><trkpt lat="40.85882" lon="14.2170267"><ele>259.0</ele><time>2026-04-15T15:09:52.306Z</time></trkpt><trkpt lat="40.858875" lon="14.21708"><ele>259.0</ele><time>2026-04-15T15:09:53.308Z</time></trkpt><trkpt lat="40.8589467" lon="14.2171983"><ele>259.0</ele><time>2026-04-15T15:09:55.306Z</time></trkpt><trkpt lat="40.8588467" lon="14.2173283"><ele>259.0</ele><time>2026-04-15T15:09:57.309Z</time></trkpt><trkpt lat="40.8587733" lon="14.2173383"><ele>259.0</ele><time>2026-04-15T15:09:58.308Z</time></trkpt><trkpt lat="40.8586883" lon="14.2173333"><ele>259.0</ele><time>2026-04-15T15:09:59.306Z</time></trkpt><trkpt lat="40.8585683" lon="14.2173167"><ele>259.0</ele><time>2026-04-15T15:10:00.306Z</time></trkpt><trkpt lat="40.8584367" lon="14.2173067"><ele>259.0</ele><time>2026-04-15T15:10:01.307Z</time></trkpt><trkpt lat="40.85834" lon="14.2172883"><ele>259.0</ele><time>2026-04-15T15:10:02.308Z</time></trkpt><trkpt lat="40.8582567" lon="14.2172783"><ele>256.8333333333333</ele><time>2026-04-15T15:10:03.308Z</time></trkpt><trkpt lat="40.8581733" lon="14.2172917"><ele>254.66666666666666</ele><time>2026-04-15T15:10:04.305Z</time></trkpt><trkpt lat="40.8580983" lon="14.2173217"><ele>252.5</ele><time>2026-04-15T15:10:05.307Z</time></trkpt><trkpt lat="40.858025" lon="14.2173567"><ele>250.33333333333331</ele><time>2026-04-15T15:10:06.308Z</time></trkpt><trkpt lat="40.8579517" lon="14.217405"><ele>248.16666666666666</ele><time>2026-04-15T15:10:07.307Z</time></trkpt><trkpt lat="40.85788" lon="14.2174683"><ele>246.0</ele><time>2026-04-15T15:10:08.309Z</time></trkpt><trkpt lat="40.8578133" lon="14.21753"><ele>246.0</ele><time>2026-04-15T15:10:09.31Z</time></trkpt><trkpt lat="40.8577567" lon="14.21759"><ele>246.00000000000003</ele><time>2026-04-15T15:10:10.309Z</time></trkpt><trkpt lat="40.85769" lon="14.21771"><ele>246.00000000000003</ele><time>2026-04-15T15:10:12.308Z</time></trkpt><trkpt lat="40.85769" lon="14.217875"><ele>246.0</ele><time>2026-04-15T15:10:14.308Z</time></trkpt><trkpt lat="40.8577333" lon="14.21802"><ele>246.0</ele><time>2026-04-15T15:10:16.309Z</time></trkpt><trkpt lat="40.85777" lon="14.2181483"><ele>247.16666666666666</ele><time>2026-04-15T15:10:18.306Z</time></trkpt><trkpt lat="40.8577917" lon="14.218275"><ele>248.33333333333331</ele><time>2026-04-15T15:10:20.308Z</time></trkpt><trkpt lat="40.85777" lon="14.2183683"><ele>249.5</ele><time>2026-04-15T15:10:22.306Z</time></trkpt><trkpt lat="40.85768" lon="14.2184183"><ele>250.66666666666666</ele><time>2026-04-15T15:10:24.31Z</time></trkpt><trkpt lat="40.8576217" lon="14.218455"><ele>251.83333333333331</ele><time>2026-04-15T15:10:25.306Z</time></trkpt><trkpt lat="40.85757" lon="14.2185067"><ele>253.0</ele><time>2026-04-15T15:10:26.307Z</time></trkpt><trkpt lat="40.8575117" lon="14.21856"><ele>250.66666666666666</ele><time>2026-04-15T15:10:27.308Z</time></trkpt><trkpt lat="40.8574517" lon="14.2186183"><ele>248.33333333333331</ele><time>2026-04-15T15:10:28.306Z</time></trkpt><trkpt lat="40.8573933" lon="14.2186867"><ele>246.0</ele><time>2026-04-15T15:10:29.305Z</time></trkpt><trkpt lat="40.857335" lon="14.2187567"><ele>243.66666666666669</ele><time>2026-04-15T15:10:30.307Z</time></trkpt><trkpt lat="40.85728" lon="14.21883"><ele>241.33333333333334</ele><time>2026-04-15T15:10:31.308Z</time></trkpt><trkpt lat="40.85722" lon="14.21889"><ele>239.0</ele><time>2026-04-15T15:10:32.308Z</time></trkpt><trkpt lat="40.8571567" lon="14.2189283"><ele>239.00000000000003</ele><time>2026-04-15T15:10:33.307Z</time></trkpt><trkpt lat="40.857085" lon="14.2189433"><ele>239.0</ele><time>2026-04-15T15:10:34.307Z</time></trkpt><trkpt lat="40.8570183" lon="14.2189233"><ele>239.0</ele><time>2026-04-15T15:10:35.308Z</time></trkpt><trkpt lat="40.8569633" lon="14.2188533"><ele>239.0</ele><time>2026-04-15T15:10:36.306Z</time></trkpt><trkpt lat="40.8569033" lon="14.21877"><ele>239.00000000000003</ele><time>2026-04-15T15:10:37.307Z</time></trkpt><trkpt lat="40.8568383" lon="14.2187067"><ele>239.0</ele><time>2026-04-15T15:10:38.306Z</time></trkpt><trkpt lat="40.856765" lon="14.21866"><ele>237.00000000000003</ele><time>2026-04-15T15:10:39.307Z</time></trkpt><trkpt lat="40.8566883" lon="14.2186317"><ele>235.0</ele><time>2026-04-15T15:10:40.306Z</time></trkpt><trkpt lat="40.8566017" lon="14.21863"><ele>233.0</ele><time>2026-04-15T15:10:41.305Z</time></trkpt><trkpt lat="40.85652" lon="14.2186533"><ele>231.0</ele><time>2026-04-15T15:10:42.307Z</time></trkpt><trkpt lat="40.856445" lon="14.2186833"><ele>229.00000000000003</ele><time>2026-04-15T15:10:43.305Z</time></trkpt><trkpt lat="40.85637" lon="14.2187017"><ele>227.0</ele><time>2026-04-15T15:10:44.308Z</time></trkpt><trkpt lat="40.8562933" lon="14.2187083"><ele>227.00000000000003</ele><time>2026-04-15T15:10:45.307Z</time></trkpt><trkpt lat="40.856215" lon="14.2187033"><ele>227.0</ele><time>2026-04-15T15:10:46.305Z</time></trkpt><trkpt lat="40.8561467" lon="14.2186717"><ele>227.0</ele><time>2026-04-15T15:10:47.307Z</time></trkpt><trkpt lat="40.8560783" lon="14.21862"><ele>227.0</ele><time>2026-04-15T15:10:48.308Z</time></trkpt><trkpt lat="40.8560083" lon="14.2185667"><ele>227.00000000000003</ele><time>2026-04-15T15:10:49.306Z</time></trkpt><trkpt lat="40.8559317" lon="14.218525"><ele>227.0</ele><time>2026-04-15T15:10:50.308Z</time></trkpt><trkpt lat="40.8558533" lon="14.21849"><ele>225.2857142857143</ele><time>2026-04-15T15:10:51.305Z</time></trkpt><trkpt lat="40.85578" lon="14.2184633"><ele>223.5714285714286</ele><time>2026-04-15T15:10:52.305Z</time></trkpt><trkpt lat="40.8557117" lon="14.218445"><ele>221.85714285714286</ele><time>2026-04-15T15:10:53.307Z</time></trkpt><trkpt lat="40.85565" lon="14.21842"><ele>220.14285714285717</ele><time>2026-04-15T15:10:54.307Z</time></trkpt><trkpt lat="40.8555883" lon="14.21839"><ele>218.42857142857144</ele><time>2026-04-15T15:10:55.307Z</time></trkpt><trkpt lat="40.85553" lon="14.218345"><ele>216.71428571428572</ele><time>2026-04-15T15:10:56.31Z</time></trkpt><trkpt lat="40.8554733" lon="14.2182867"><ele>215.0</ele><time>2026-04-15T15:10:57.308Z</time></trkpt><trkpt lat="40.8554167" lon="14.2182167"><ele>214.66666666666669</ele><time>2026-04-15T15:10:58.306Z</time></trkpt><trkpt lat="40.8553617" lon="14.218145"><ele>214.33333333333334</ele><time>2026-04-15T15:10:59.308Z</time></trkpt><trkpt lat="40.8552967" lon="14.218085"><ele>214.0</ele><time>2026-04-15T15:11:00.307Z</time></trkpt><trkpt lat="40.855225" lon="14.2180383"><ele>213.66666666666669</ele><time>2026-04-15T15:11:01.306Z</time></trkpt><trkpt lat="40.855145" lon="14.2180167"><ele>213.33333333333334</ele><time>2026-04-15T15:11:02.308Z</time></trkpt><trkpt lat="40.8550633" lon="14.21802"><ele>213.0</ele><time>2026-04-15T15:11:03.308Z</time></trkpt><trkpt lat="40.85498" lon="14.2180383"><ele>212.0</ele><time>2026-04-15T15:11:04.306Z</time></trkpt><trkpt lat="40.8548967" lon="14.218065"><ele>211.0</ele><time>2026-04-15T15:11:05.309Z</time></trkpt><trkpt lat="40.854815" lon="14.2181067"><ele>210.0</ele><time>2026-04-15T15:11:06.307Z</time></trkpt><trkpt lat="40.8547317" lon="14.21816"><ele>209.0</ele><time>2026-04-15T15:11:07.309Z</time></trkpt><trkpt lat="40.85465" lon="14.218225"><ele>208.0</ele><time>2026-04-15T15:11:08.308Z</time></trkpt><trkpt lat="40.854565" lon="14.2182983"><ele>208.0</ele><time>2026-04-15T15:11:09.31Z</time></trkpt><trkpt lat="40.85448" lon="14.2183783"><ele>208.0</ele><time>2026-04-15T15:11:10.309Z</time></trkpt><trkpt lat="40.8543983" lon="14.21847"><ele>208.0</ele><time>2026-04-15T15:11:11.308Z</time></trkpt><trkpt lat="40.85432" lon="14.2185667"><ele>208.0</ele><time>2026-04-15T15:11:12.31Z</time></trkpt><trkpt lat="40.8542467" lon="14.2186683"><ele>208.0</ele><time>2026-04-15T15:11:13.307Z</time></trkpt><trkpt lat="40.8541817" lon="14.2187667"><ele>206.60000000000002</ele><time>2026-04-15T15:11:14.306Z</time></trkpt><trkpt lat="40.854115" lon="14.2188617"><ele>205.20000000000002</ele><time>2026-04-15T15:11:15.307Z</time></trkpt><trkpt lat="40.854045" lon="14.2189583"><ele>203.8</ele><time>2026-04-15T15:11:16.309Z</time></trkpt><trkpt lat="40.8539683" lon="14.2190533"><ele>202.4</ele><time>2026-04-15T15:11:17.306Z</time></trkpt><trkpt lat="40.85389" lon="14.219145"><ele>201.0</ele><time>2026-04-15T15:11:18.309Z</time></trkpt><trkpt lat="40.853815" lon="14.21923"><ele>201.0</ele><time>2026-04-15T15:11:19.308Z</time></trkpt><trkpt lat="40.853745" lon="14.2193083"><ele>201.0</ele><time>2026-04-15T15:11:20.306Z</time></trkpt><trkpt lat="40.8536767" lon="14.2193867"><ele>201.0</ele><time>2026-04-15T15:11:21.309Z</time></trkpt><trkpt lat="40.8536067" lon="14.219465"><ele>201.0</ele><time>2026-04-15T15:11:22.307Z</time></trkpt><trkpt lat="40.8535383" lon="14.2195467"><ele>201.0</ele><time>2026-04-15T15:11:23.308Z</time></trkpt><trkpt lat="40.8534717" lon="14.2196217"><ele>200.33333333333334</ele><time>2026-04-15T15:11:24.308Z</time></trkpt><trkpt lat="40.853405" lon="14.2196917"><ele>199.66666666666669</ele><time>2026-04-15T15:11:25.307Z</time></trkpt><trkpt lat="40.8533383" lon="14.2197617"><ele>199.0</ele><time>2026-04-15T15:11:26.306Z</time></trkpt><trkpt lat="40.85327" lon="14.219825"><ele>198.33333333333334</ele><time>2026-04-15T15:11:27.308Z</time></trkpt><trkpt lat="40.8531967" lon="14.21988"><ele>197.66666666666669</ele><time>2026-04-15T15:11:28.305Z</time></trkpt><trkpt lat="40.8531183" lon="14.2199183"><ele>197.0</ele><time>2026-04-15T15:11:29.306Z</time></trkpt><trkpt lat="40.85304" lon="14.2199417"><ele>197.0</ele><time>2026-04-15T15:11:30.31Z</time></trkpt><trkpt lat="40.8529667" lon="14.2199533"><ele>197.0</ele><time>2026-04-15T15:11:31.308Z</time></trkpt><trkpt lat="40.852895" lon="14.2199567"><ele>197.0</ele><time>2026-04-15T15:11:32.307Z</time></trkpt><trkpt lat="40.8528217" lon="14.21994"><ele>197.0</ele><time>2026-04-15T15:11:33.307Z</time></trkpt><trkpt lat="40.8527533" lon="14.2199033"><ele>197.0</ele><time>2026-04-15T15:11:34.307Z</time></trkpt><trkpt lat="40.852705" lon="14.2198483"><ele>197.0</ele><time>2026-04-15T15:11:35.306Z</time></trkpt><trkpt lat="40.8526667" lon="14.219775"><ele>197.0</ele><time>2026-04-15T15:11:36.306Z</time></trkpt><trkpt lat="40.85264" lon="14.2196967"><ele>196.8</ele><time>2026-04-15T15:11:37.306Z</time></trkpt><trkpt lat="40.8526433" lon="14.21959"><ele>196.6</ele><time>2026-04-15T15:11:38.309Z</time></trkpt><trkpt lat="40.8526717" lon="14.2194733"><ele>196.4</ele><time>2026-04-15T15:11:39.308Z</time></trkpt><trkpt lat="40.8527067" lon="14.21935"><ele>196.20000000000002</ele><time>2026-04-15T15:11:40.311Z</time></trkpt><trkpt lat="40.8527417" lon="14.2192267"><ele>196.0</ele><time>2026-04-15T15:11:41.306Z</time></trkpt><trkpt lat="40.85278" lon="14.2191267"><ele>195.99999999999997</ele><time>2026-04-15T15:11:42.308Z</time></trkpt><trkpt lat="40.85283" lon="14.2190367"><ele>196.0</ele><time>2026-04-15T15:11:43.308Z</time></trkpt><trkpt lat="40.852885" lon="14.21896"><ele>196.0</ele><time>2026-04-15T15:11:44.308Z</time></trkpt><trkpt lat="40.8529667" lon="14.2189033"><ele>196.0</ele><time>2026-04-15T15:11:45.307Z</time></trkpt><trkpt lat="40.85304" lon="14.2188533"><ele>195.99999999999997</ele><time>2026-04-15T15:11:46.309Z</time></trkpt><trkpt lat="40.8531383" lon="14.21884"><ele>196.0</ele><time>2026-04-15T15:11:47.306Z</time></trkpt><trkpt lat="40.8532317" lon="14.2188533"><ele>195.99999999999997</ele><time>2026-04-15T15:11:48.309Z</time></trkpt><trkpt lat="40.8533233" lon="14.2188583"><ele>196.0</ele><time>2026-04-15T15:11:49.306Z</time></trkpt><trkpt lat="40.8534183" lon="14.2188567"><ele>196.0</ele><time>2026-04-15T15:11:50.306Z</time></trkpt><trkpt lat="40.85351" lon="14.2188467"><ele>196.0</ele><time>2026-04-15T15:11:51.308Z</time></trkpt><trkpt lat="40.8535917" lon="14.21882"><ele>195.99999999999997</ele><time>2026-04-15T15:11:52.306Z</time></trkpt><trkpt lat="40.85366" lon="14.218765"><ele>196.0</ele><time>2026-04-15T15:11:53.305Z</time></trkpt><trkpt lat="40.853715" lon="14.218685"><ele>196.0</ele><time>2026-04-15T15:11:54.309Z</time></trkpt><trkpt lat="40.8537433" lon="14.218555"><ele>196.0</ele><time>2026-04-15T15:11:56.307Z</time></trkpt><trkpt lat="40.8536817" lon="14.2184583"><ele>196.0</ele><time>2026-04-15T15:11:58.308Z</time></trkpt><trkpt lat="40.8535417" lon="14.21841"><ele>196.0</ele><time>2026-04-15T15:12:00.307Z</time></trkpt><trkpt lat="40.853455" lon="14.2184033"><ele>196.0</ele><time>2026-04-15T15:12:01.309Z</time></trkpt><trkpt lat="40.8533683" lon="14.218405"><ele>195.83333333333331</ele><time>2026-04-15T15:12:02.308Z</time></trkpt><trkpt lat="40.8532883" lon="14.21841"><ele>195.66666666666666</ele><time>2026-04-15T15:12:03.308Z</time></trkpt><trkpt lat="40.8532133" lon="14.21841"><ele>195.5</ele><time>2026-04-15T15:12:04.308Z</time></trkpt><trkpt lat="40.853095" lon="14.2184217"><ele>195.33333333333331</ele><time>2026-04-15T15:12:06.307Z</time></trkpt><trkpt lat="40.85308" lon="14.2183167"><ele>195.16666666666666</ele><time>2026-04-15T15:12:10.307Z</time></trkpt><trkpt lat="40.8530983" lon="14.2182317"><ele>195.0</ele><time>2026-04-15T15:12:12.305Z</time></trkpt><trkpt lat="40.85311" lon="14.21814"><ele>195.0</ele><time>2026-04-15T15:12:14.308Z</time></trkpt><trkpt lat="40.853125" lon="14.2180483"><ele>195.0</ele><time>2026-04-15T15:12:16.308Z</time></trkpt><trkpt lat="40.853125" lon="14.2179317"><ele>195.0</ele><time>2026-04-15T15:12:19.307Z</time></trkpt><trkpt lat="40.853105" lon="14.21782"><ele>195.0</ele><time>2026-04-15T15:12:22.308Z</time></trkpt><trkpt lat="40.8530633" lon="14.2177283"><ele>195.0</ele><time>2026-04-15T15:12:25.306Z</time></trkpt><trkpt lat="40.85301" lon="14.2176633"><ele>195.0</ele><time>2026-04-15T15:12:28.306Z</time></trkpt><trkpt lat="40.8529517" lon="14.2175983"><ele>195.0</ele><time>2026-04-15T15:12:31.31Z</time></trkpt><trkpt lat="40.8528967" lon="14.2175367"><ele>195.0</ele><time>2026-04-15T15:12:34.307Z</time></trkpt><trkpt lat="40.852845" lon="14.2174667"><ele>195.0</ele><time>2026-04-15T15:12:37.306Z</time></trkpt><trkpt lat="40.8527883" lon="14.2174083"><ele>195.0</ele><time>2026-04-15T15:12:40.306Z</time></trkpt><trkpt lat="40.8527483" lon="14.21734"><ele>195.0</ele><time>2026-04-15T15:12:43.306Z</time></trkpt><trkpt lat="40.8527217" lon="14.2172533"><ele>195.0</ele><time>2026-04-15T15:12:46.307Z</time></trkpt><trkpt lat="40.8526733" lon="14.2171667"><ele>195.0</ele><time>2026-04-15T15:12:49.307Z</time></trkpt><trkpt lat="40.8526283" lon="14.2170983"><ele>195.0</ele><time>2026-04-15T15:12:51.308Z</time></trkpt><trkpt lat="40.8525817" lon="14.217"><ele>195.0</ele><time>2026-04-15T15:12:54.308Z</time></trkpt><trkpt lat="40.85258" lon="14.2169083"><ele>195.0</ele><time>2026-04-15T15:12:57.306Z</time></trkpt><trkpt lat="40.8526467" lon="14.21685"><ele>195.0</ele><time>2026-04-15T15:13:00.309Z</time></trkpt><trkpt lat="40.8527017" lon="14.2167967"><ele>195.0</ele><time>2026-04-15T15:13:03.309Z</time></trkpt><trkpt lat="40.852765" lon="14.2167383"><ele>195.0</ele><time>2026-04-15T15:13:07.308Z</time></trkpt><trkpt lat="40.8528233" lon="14.2166883"><ele>196.28571428571428</ele><time>2026-04-15T15:13:11.307Z</time></trkpt><trkpt lat="40.8528817" lon="14.21663"><ele>197.57142857142856</ele><time>2026-04-15T15:13:15.308Z</time></trkpt><trkpt lat="40.85293" lon="14.2165467"><ele>198.85714285714286</ele><time>2026-04-15T15:13:19.308Z</time></trkpt><trkpt lat="40.8529717" lon="14.21647"><ele>200.14285714285714</ele><time>2026-04-15T15:13:23.306Z</time></trkpt><trkpt lat="40.8529883" lon="14.216375"><ele>201.42857142857144</ele><time>2026-04-15T15:13:27.31Z</time></trkpt><trkpt lat="40.8530033" lon="14.2162833"><ele>202.71428571428572</ele><time>2026-04-15T15:13:31.308Z</time></trkpt><trkpt lat="40.8530267" lon="14.2161867"><ele>204.0</ele><time>2026-04-15T15:13:34.307Z</time></trkpt><trkpt lat="40.853055" lon="14.2160967"><ele>205.71428571428572</ele><time>2026-04-15T15:13:37.307Z</time></trkpt><trkpt lat="40.853095" lon="14.2160267"><ele>207.42857142857144</ele><time>2026-04-15T15:13:40.308Z</time></trkpt><trkpt lat="40.8531383" lon="14.21594"><ele>209.14285714285714</ele><time>2026-04-15T15:13:44.309Z</time></trkpt><trkpt lat="40.8532017" lon="14.215875"><ele>210.85714285714286</ele><time>2026-04-15T15:13:48.309Z</time></trkpt><trkpt lat="40.8532717" lon="14.21582"><ele>212.57142857142856</ele><time>2026-04-15T15:13:52.308Z</time></trkpt><trkpt lat="40.853325" lon="14.215775"><ele>214.28571428571428</ele><time>2026-04-15T15:13:55.307Z</time></trkpt><trkpt lat="40.8533767" lon="14.2157217"><ele>216.0</ele><time>2026-04-15T15:13:58.307Z</time></trkpt><trkpt lat="40.8534367" lon="14.2156583"><ele>218.16666666666666</ele><time>2026-04-15T15:14:02.308Z</time></trkpt><trkpt lat="40.8535" lon="14.2156117"><ele>220.33333333333331</ele><time>2026-04-15T15:14:06.308Z</time></trkpt><trkpt lat="40.85357" lon="14.215565"><ele>222.5</ele><time>2026-04-15T15:14:10.308Z</time></trkpt><trkpt lat="40.8536333" lon="14.2155083"><ele>224.66666666666666</ele><time>2026-04-15T15:14:14.309Z</time></trkpt><trkpt lat="40.853695" lon="14.2154383"><ele>226.83333333333331</ele><time>2026-04-15T15:14:18.31Z</time></trkpt><trkpt lat="40.8537717" lon="14.2153867"><ele>229.0</ele><time>2026-04-15T15:14:22.306Z</time></trkpt><trkpt lat="40.85384" lon="14.2153433"><ele>229.0</ele><time>2026-04-15T15:14:26.308Z</time></trkpt><trkpt lat="40.8538967" lon="14.2153033"><ele>229.0</ele><time>2026-04-15T15:14:29.31Z</time></trkpt><trkpt lat="40.8539717" lon="14.2152767"><ele>229.0</ele><time>2026-04-15T15:14:33.307Z</time></trkpt><trkpt lat="40.854055" lon="14.21526"><ele>229.0</ele><time>2026-04-15T15:14:37.309Z</time></trkpt><trkpt lat="40.8541333" lon="14.2152267"><ele>229.0</ele><time>2026-04-15T15:14:41.308Z</time></trkpt><trkpt lat="40.854195" lon="14.215195"><ele>229.0</ele><time>2026-04-15T15:14:44.308Z</time></trkpt><trkpt lat="40.8542583" lon="14.2151633"><ele>229.0</ele><time>2026-04-15T15:14:47.308Z</time></trkpt><trkpt lat="40.8543217" lon="14.2151133"><ele>229.28571428571428</ele><time>2026-04-15T15:14:51.308Z</time></trkpt><trkpt lat="40.8543767" lon="14.215065"><ele>229.57142857142858</ele><time>2026-04-15T15:14:54.309Z</time></trkpt><trkpt lat="40.8544367" lon="14.21502"><ele>229.85714285714286</ele><time>2026-04-15T15:14:57.306Z</time></trkpt><trkpt lat="40.8544967" lon="14.2149617"><ele>230.14285714285714</ele><time>2026-04-15T15:15:01.307Z</time></trkpt><trkpt lat="40.85456" lon="14.2149067"><ele>230.42857142857144</ele><time>2026-04-15T15:15:05.306Z</time></trkpt><trkpt lat="40.8546133" lon="14.21486"><ele>230.71428571428572</ele><time>2026-04-15T15:15:08.308Z</time></trkpt><trkpt lat="40.85468" lon="14.2148017"><ele>231.0</ele><time>2026-04-15T15:15:12.308Z</time></trkpt><trkpt lat="40.8547433" lon="14.2147367"><ele>232.28571428571428</ele><time>2026-04-15T15:15:16.309Z</time></trkpt><trkpt lat="40.8548133" lon="14.2146733"><ele>233.57142857142856</ele><time>2026-04-15T15:15:20.308Z</time></trkpt><trkpt lat="40.8548817" lon="14.2146117"><ele>234.85714285714286</ele><time>2026-04-15T15:15:24.309Z</time></trkpt><trkpt lat="40.854935" lon="14.21456"><ele>236.14285714285714</ele><time>2026-04-15T15:15:27.309Z</time></trkpt><trkpt lat="40.855005" lon="14.214505"><ele>237.42857142857142</ele><time>2026-04-15T15:15:31.309Z</time></trkpt><trkpt lat="40.855065" lon="14.2144667"><ele>238.71428571428572</ele><time>2026-04-15T15:15:34.307Z</time></trkpt><trkpt lat="40.85512" lon="14.214425"><ele>240.0</ele><time>2026-04-15T15:15:37.306Z</time></trkpt><trkpt lat="40.8551767" lon="14.2143733"><ele>240.83333333333334</ele><time>2026-04-15T15:15:40.308Z</time></trkpt><trkpt lat="40.8552367" lon="14.2143"><ele>241.66666666666669</ele><time>2026-04-15T15:15:44.308Z</time></trkpt><trkpt lat="40.8552917" lon="14.21425"><ele>242.5</ele><time>2026-04-15T15:15:47.308Z</time></trkpt><trkpt lat="40.8553383" lon="14.2141833"><ele>243.33333333333334</ele><time>2026-04-15T15:15:50.308Z</time></trkpt><trkpt lat="40.8554133" lon="14.214145"><ele>244.16666666666669</ele><time>2026-04-15T15:15:54.31Z</time></trkpt><trkpt lat="40.8554833" lon="14.2141"><ele>245.0</ele><time>2026-04-15T15:15:58.312Z</time></trkpt><trkpt lat="40.85555" lon="14.214035"><ele>246.66666666666669</ele><time>2026-04-15T15:16:02.31Z</time></trkpt><trkpt lat="40.855605" lon="14.2139667"><ele>248.33333333333334</ele><time>2026-04-15T15:16:06.311Z</time></trkpt><trkpt lat="40.8556633" lon="14.2139017"><ele>250.0</ele><time>2026-04-15T15:16:10.307Z</time></trkpt><trkpt lat="40.8557233" lon="14.2138317"><ele>251.66666666666669</ele><time>2026-04-15T15:16:14.307Z</time></trkpt><trkpt lat="40.8557817" lon="14.2137667"><ele>253.33333333333334</ele><time>2026-04-15T15:16:18.309Z</time></trkpt><trkpt lat="40.8558383" lon="14.2136933"><ele>255.0</ele><time>2026-04-15T15:16:22.308Z</time></trkpt><trkpt lat="40.8558967" lon="14.2136267"><ele>255.0</ele><time>2026-04-15T15:16:26.309Z</time></trkpt><trkpt lat="40.8559483" lon="14.2135433"><ele>255.00000000000003</ele><time>2026-04-15T15:16:30.31Z</time></trkpt><trkpt lat="40.8559867" lon="14.21347"><ele>255.0</ele><time>2026-04-15T15:16:33.31Z</time></trkpt><trkpt lat="40.8560317" lon="14.2134117"><ele>255.0</ele><time>2026-04-15T15:16:36.309Z</time></trkpt><trkpt lat="40.856085" lon="14.2133583"><ele>255.00000000000003</ele><time>2026-04-15T15:16:40.309Z</time></trkpt><trkpt lat="40.856155" lon="14.2133233"><ele>255.0</ele><time>2026-04-15T15:16:44.308Z</time></trkpt><trkpt lat="40.85622" lon="14.2133017"><ele>255.0</ele><time>2026-04-15T15:16:48.308Z</time></trkpt><trkpt lat="40.8562917" lon="14.213255"><ele>255.71428571428572</ele><time>2026-04-15T15:16:52.308Z</time></trkpt><trkpt lat="40.8563583" lon="14.2132117"><ele>256.42857142857144</ele><time>2026-04-15T15:16:56.309Z</time></trkpt><trkpt lat="40.85642" lon="14.21318"><ele>257.14285714285717</ele><time>2026-04-15T15:17:00.308Z</time></trkpt><trkpt lat="40.856485" lon="14.213145"><ele>257.8571428571429</ele><time>2026-04-15T15:17:04.307Z</time></trkpt><trkpt lat="40.8565433" lon="14.21311"><ele>258.57142857142856</ele><time>2026-04-15T15:17:08.308Z</time></trkpt><trkpt lat="40.85661" lon="14.213055"><ele>259.28571428571433</ele><time>2026-04-15T15:17:12.311Z</time></trkpt><trkpt lat="40.8566733" lon="14.2130017"><ele>260.0</ele><time>2026-04-15T15:17:16.307Z</time></trkpt><trkpt lat="40.85675" lon="14.2129683"><ele>262.1666666666667</ele><time>2026-04-15T15:17:21.308Z</time></trkpt><trkpt lat="40.8568183" lon="14.2129317"><ele>264.33333333333337</ele><time>2026-04-15T15:17:25.307Z</time></trkpt><trkpt lat="40.856895" lon="14.2129117"><ele>266.5</ele><time>2026-04-15T15:17:29.309Z</time></trkpt><trkpt lat="40.8569583" lon="14.212855"><ele>268.6666666666667</ele><time>2026-04-15T15:17:33.306Z</time></trkpt><trkpt lat="40.857025" lon="14.212815"><ele>270.8333333333333</ele><time>2026-04-15T15:17:37.308Z</time></trkpt><trkpt lat="40.8570917" lon="14.21277"><ele>273.0</ele><time>2026-04-15T15:17:41.308Z</time></trkpt><trkpt lat="40.8571683" lon="14.212735"><ele>273.0</ele><time>2026-04-15T15:17:45.309Z</time></trkpt><trkpt lat="40.8572383" lon="14.2126933"><ele>273.0</ele><time>2026-04-15T15:17:49.307Z</time></trkpt><trkpt lat="40.8573033" lon="14.2126567"><ele>273.0</ele><time>2026-04-15T15:17:53.307Z</time></trkpt><trkpt lat="40.8573683" lon="14.2126283"><ele>273.0</ele><time>2026-04-15T15:17:57.306Z</time></trkpt><trkpt lat="40.8574367" lon="14.2125983"><ele>273.0</ele><time>2026-04-15T15:18:01.308Z</time></trkpt><trkpt lat="40.8575117" lon="14.2125667"><ele>273.0</ele><time>2026-04-15T15:18:05.31Z</time></trkpt><trkpt lat="40.8575783" lon="14.2125467"><ele>273.0</ele><time>2026-04-15T15:18:09.306Z</time></trkpt><trkpt lat="40.8576467" lon="14.21252"><ele>273.85714285714283</ele><time>2026-04-15T15:18:13.306Z</time></trkpt><trkpt lat="40.8577167" lon="14.2124733"><ele>274.7142857142857</ele><time>2026-04-15T15:18:17.31Z</time></trkpt><trkpt lat="40.8577967" lon="14.21244"><ele>275.57142857142856</ele><time>2026-04-15T15:18:21.308Z</time></trkpt><trkpt lat="40.8578533" lon="14.2124017"><ele>276.42857142857144</ele><time>2026-04-15T15:18:24.309Z</time></trkpt><trkpt lat="40.8579117" lon="14.212335"><ele>277.2857142857143</ele><time>2026-04-15T15:18:28.309Z</time></trkpt><trkpt lat="40.8579667" lon="14.2122817"><ele>278.1428571428571</ele><time>2026-04-15T15:18:32.309Z</time></trkpt><trkpt lat="40.8580333" lon="14.2122333"><ele>279.0</ele><time>2026-04-15T15:18:36.309Z</time></trkpt><trkpt lat="40.8580967" lon="14.212175"><ele>280.2857142857143</ele><time>2026-04-15T15:18:40.308Z</time></trkpt><trkpt lat="40.8581533" lon="14.21211"><ele>281.57142857142856</ele><time>2026-04-15T15:18:44.31Z</time></trkpt><trkpt lat="40.8581883" lon="14.21204"><ele>282.8571428571429</ele><time>2026-04-15T15:18:47.308Z</time></trkpt><trkpt lat="40.8582083" lon="14.2119467"><ele>284.1428571428571</ele><time>2026-04-15T15:18:51.31Z</time></trkpt><trkpt lat="40.8581933" lon="14.211855"><ele>285.42857142857144</ele><time>2026-04-15T15:18:55.311Z</time></trkpt><trkpt lat="40.858175" lon="14.2117617"><ele>286.7142857142857</ele><time>2026-04-15T15:18:59.309Z</time></trkpt><trkpt lat="40.8581667" lon="14.2116683"><ele>288.0</ele><time>2026-04-15T15:19:03.311Z</time></trkpt><trkpt lat="40.8581567" lon="14.2115767"><ele>288.00000000000006</ele><time>2026-04-15T15:19:07.309Z</time></trkpt><trkpt lat="40.8581417" lon="14.211495"><ele>288.0</ele><time>2026-04-15T15:19:11.308Z</time></trkpt><trkpt lat="40.858135" lon="14.2113967"><ele>288.0</ele><time>2026-04-15T15:19:16.308Z</time></trkpt><trkpt lat="40.8581333" lon="14.2113133"><ele>288.0</ele><time>2026-04-15T15:19:20.31Z</time></trkpt><trkpt lat="40.858125" lon="14.2112183"><ele>288.0</ele><time>2026-04-15T15:19:24.309Z</time></trkpt><trkpt lat="40.8581183" lon="14.2111217"><ele>288.00000000000006</ele><time>2026-04-15T15:19:28.31Z</time></trkpt><trkpt lat="40.8581183" lon="14.211035"><ele>288.0</ele><time>2026-04-15T15:19:32.307Z</time></trkpt><trkpt lat="40.8580917" lon="14.2109467"><ele>290.00000000000006</ele><time>2026-04-15T15:19:36.308Z</time></trkpt><trkpt lat="40.85807" lon="14.2108533"><ele>292.0</ele><time>2026-04-15T15:19:40.307Z</time></trkpt><trkpt lat="40.8580567" lon="14.2107583"><ele>294.0</ele><time>2026-04-15T15:19:45.309Z</time></trkpt><trkpt lat="40.858055" lon="14.210655"><ele>296.0</ele><time>2026-04-15T15:19:50.309Z</time></trkpt><trkpt lat="40.85804" lon="14.21056"><ele>298.0</ele><time>2026-04-15T15:19:55.308Z</time></trkpt><trkpt lat="40.8580217" lon="14.210465"><ele>300.00000000000006</ele><time>2026-04-15T15:20:00.307Z</time></trkpt><trkpt lat="40.857975" lon="14.2103867"><ele>302.0</ele><time>2026-04-15T15:20:06.307Z</time></trkpt><trkpt lat="40.8579067" lon="14.2103483"><ele>303.5</ele><time>2026-04-15T15:20:10.306Z</time></trkpt><trkpt lat="40.8578367" lon="14.2103217"><ele>305.0</ele><time>2026-04-15T15:20:14.306Z</time></trkpt><trkpt lat="40.85792" lon="14.210335"><ele>306.5</ele><time>2026-04-15T15:20:33.308Z</time></trkpt><trkpt lat="40.85799" lon="14.2103767"><ele>308.0</ele><time>2026-04-15T15:20:35.307Z</time></trkpt><trkpt lat="40.85806" lon="14.2104433"><ele>309.5</ele><time>2026-04-15T15:20:37.308Z</time></trkpt><trkpt lat="40.8581183" lon="14.2105167"><ele>311.0</ele><time>2026-04-15T15:20:39.307Z</time></trkpt><trkpt lat="40.858175" lon="14.21058"><ele>311.0</ele><time>2026-04-15T15:20:41.31Z</time></trkpt><trkpt lat="40.8582283" lon="14.21064"><ele>311.0</ele><time>2026-04-15T15:20:43.309Z</time></trkpt><trkpt lat="40.8582867" lon="14.2106967"><ele>311.0</ele><time>2026-04-15T15:20:45.309Z</time></trkpt><trkpt lat="40.858355" lon="14.2107333"><ele>311.0</ele><time>2026-04-15T15:20:47.309Z</time></trkpt><trkpt lat="40.858425" lon="14.2107333"><ele>311.0</ele><time>2026-04-15T15:20:49.308Z</time></trkpt><trkpt lat="40.8584883" lon="14.2107017"><ele>311.0</ele><time>2026-04-15T15:20:51.307Z</time></trkpt><trkpt lat="40.858535" lon="14.21063"><ele>311.0</ele><time>2026-04-15T15:20:54.309Z</time></trkpt><trkpt lat="40.8585483" lon="14.21052"><ele>311.33333333333337</ele><time>2026-04-15T15:20:58.31Z</time></trkpt><trkpt lat="40.85857" lon="14.2104117"><ele>311.6666666666667</ele><time>2026-04-15T15:21:02.309Z</time></trkpt><trkpt lat="40.8585983" lon="14.2103283"><ele>312.0</ele><time>2026-04-15T15:21:05.308Z</time></trkpt><trkpt lat="40.8586267" lon="14.210225"><ele>312.3333333333333</ele><time>2026-04-15T15:21:09.309Z</time></trkpt><trkpt lat="40.858625" lon="14.2101117"><ele>312.66666666666663</ele><time>2026-04-15T15:21:13.307Z</time></trkpt><trkpt lat="40.8586367" lon="14.21002"><ele>313.0</ele><time>2026-04-15T15:21:17.308Z</time></trkpt><trkpt lat="40.8586433" lon="14.2099367"><ele>313.0</ele><time>2026-04-15T15:21:20.31Z</time></trkpt><trkpt lat="40.8586533" lon="14.2098483"><ele>313.0</ele><time>2026-04-15T15:21:23.309Z</time></trkpt><trkpt lat="40.8586733" lon="14.209765"><ele>313.0</ele><time>2026-04-15T15:21:26.31Z</time></trkpt><trkpt lat="40.8587033" lon="14.2096633"><ele>313.0</ele><time>2026-04-15T15:21:29.307Z</time></trkpt><trkpt lat="40.8587333" lon="14.2095767"><ele>313.0</ele><time>2026-04-15T15:21:32.306Z</time></trkpt><trkpt lat="40.8587667" lon="14.209475"><ele>313.0</ele><time>2026-04-15T15:21:36.308Z</time></trkpt><trkpt lat="40.8588133" lon="14.2094083"><ele>313.0</ele><time>2026-04-15T15:21:39.308Z</time></trkpt><trkpt lat="40.8588767" lon="14.2093567"><ele>313.57142857142856</ele><time>2026-04-15T15:21:42.308Z</time></trkpt><trkpt lat="40.858935" lon="14.2093067"><ele>314.14285714285717</ele><time>2026-04-15T15:21:45.307Z</time></trkpt><trkpt lat="40.858985" lon="14.20924"><ele>314.7142857142857</ele><time>2026-04-15T15:21:50.307Z</time></trkpt><trkpt lat="40.8590333" lon="14.2091733"><ele>315.2857142857143</ele><time>2026-04-15T15:21:55.307Z</time></trkpt><trkpt lat="40.8590983" lon="14.2091117"><ele>315.85714285714283</ele><time>2026-04-15T15:21:59.306Z</time></trkpt><trkpt lat="40.8591667" lon="14.2090667"><ele>316.42857142857144</ele><time>2026-04-15T15:22:03.308Z</time></trkpt><trkpt lat="40.8592317" lon="14.20901"><ele>317.0</ele><time>2026-04-15T15:22:07.307Z</time></trkpt><trkpt lat="40.8592817" lon="14.2089567"><ele>318.14285714285717</ele><time>2026-04-15T15:22:10.305Z</time></trkpt><trkpt lat="40.8593317" lon="14.2088917"><ele>319.2857142857143</ele><time>2026-04-15T15:22:13.311Z</time></trkpt><trkpt lat="40.859385" lon="14.2088417"><ele>320.42857142857144</ele><time>2026-04-15T15:22:16.308Z</time></trkpt><trkpt lat="40.8594483" lon="14.2087883"><ele>321.57142857142856</ele><time>2026-04-15T15:22:19.307Z</time></trkpt><trkpt lat="40.8595083" lon="14.2087567"><ele>322.7142857142857</ele><time>2026-04-15T15:22:21.307Z</time></trkpt><trkpt lat="40.8595883" lon="14.2087067"><ele>323.85714285714283</ele><time>2026-04-15T15:22:24.307Z</time></trkpt><trkpt lat="40.8596617" lon="14.2086617"><ele>325.0</ele><time>2026-04-15T15:22:27.306Z</time></trkpt><trkpt lat="40.859725" lon="14.20865"><ele>325.0</ele><time>2026-04-15T15:22:30.308Z</time></trkpt><trkpt lat="40.859805" lon="14.20865"><ele>325.0</ele><time>2026-04-15T15:22:34.307Z</time></trkpt><trkpt lat="40.8598683" lon="14.2086683"><ele>325.0</ele><time>2026-04-15T15:22:37.308Z</time></trkpt><trkpt lat="40.8599317" lon="14.2086817"><ele>325.0</ele><time>2026-04-15T15:22:40.309Z</time></trkpt><trkpt lat="40.8600117" lon="14.2087033"><ele>325.0</ele><time>2026-04-15T15:22:44.307Z</time></trkpt><trkpt lat="40.8600867" lon="14.2087333"><ele>325.0</ele><time>2026-04-15T15:22:47.306Z</time></trkpt><trkpt lat="40.8601733" lon="14.20876"><ele>327.0</ele><time>2026-04-15T15:22:50.308Z</time></trkpt><trkpt lat="40.86024" lon="14.2087917"><ele>329.0</ele><time>2026-04-15T15:22:52.305Z</time></trkpt><trkpt lat="40.8602983" lon="14.2088283"><ele>331.0</ele><time>2026-04-15T15:22:54.306Z</time></trkpt><trkpt lat="40.8603467" lon="14.208885"><ele>333.0</ele><time>2026-04-15T15:22:56.307Z</time></trkpt><trkpt lat="40.8604" lon="14.208975"><ele>335.0</ele><time>2026-04-15T15:22:59.307Z</time></trkpt><trkpt lat="40.8604467" lon="14.2090433"><ele>337.0</ele><time>2026-04-15T15:23:02.306Z</time></trkpt><trkpt lat="40.8604933" lon="14.209115"><ele>339.0</ele><time>2026-04-15T15:23:06.307Z</time></trkpt><trkpt lat="40.8605417" lon="14.2092"><ele>339.0</ele><time>2026-04-15T15:23:10.308Z</time></trkpt><trkpt lat="40.8605774" lon="14.2092796"><ele>339.0</ele><time>2026-04-15T15:23:14.368Z</time></trkpt><trkpt lat="40.8605999" lon="14.2093827"><ele>339.0</ele><time>2026-04-15T15:23:18.401Z</time></trkpt><trkpt lat="40.8606528" lon="14.2094487"><ele>339.0</ele><time>2026-04-15T15:23:22.444Z</time></trkpt><trkpt lat="40.8607242" lon="14.2094323"><ele>339.0</ele><time>2026-04-15T15:23:25.368Z</time></trkpt><trkpt lat="40.8607971" lon="14.2095062"><ele>339.0</ele><time>2026-04-15T15:23:30.409Z</time></trkpt><trkpt lat="40.8608662" lon="14.2095418"><ele>339.0</ele><time>2026-04-15T15:23:32.425Z</time></trkpt><trkpt lat="40.8609317" lon="14.2095617"><ele>339.0</ele><time>2026-04-15T15:23:35.308Z</time></trkpt><trkpt lat="40.8609967" lon="14.2095267"><ele>339.0</ele><time>2026-04-15T15:23:38.308Z</time></trkpt><trkpt lat="40.86106" lon="14.2094883"><ele>339.0</ele><time>2026-04-15T15:23:40.308Z</time></trkpt><trkpt lat="40.861145" lon="14.2094317"><ele>339.0</ele><time>2026-04-15T15:23:42.307Z</time></trkpt><trkpt lat="40.86126" lon="14.2093783"><ele>339.0</ele><time>2026-04-15T15:23:44.309Z</time></trkpt><trkpt lat="40.8613483" lon="14.2093733"><ele>338.4</ele><time>2026-04-15T15:23:45.31Z</time></trkpt><trkpt lat="40.861435" lon="14.2093633"><ele>337.79999999999995</ele><time>2026-04-15T15:23:46.309Z</time></trkpt><trkpt lat="40.861525" lon="14.2093617"><ele>337.20000000000005</ele><time>2026-04-15T15:23:47.308Z</time></trkpt><trkpt lat="40.86162" lon="14.2093783"><ele>336.6</ele><time>2026-04-15T15:23:48.309Z</time></trkpt><trkpt lat="40.8617217" lon="14.2094017"><ele>336.0</ele><time>2026-04-15T15:23:49.308Z</time></trkpt><trkpt lat="40.8618167" lon="14.209425"><ele>335.1666666666667</ele><time>2026-04-15T15:23:50.307Z</time></trkpt><trkpt lat="40.8619083" lon="14.2094483"><ele>334.3333333333333</ele><time>2026-04-15T15:23:51.308Z</time></trkpt><trkpt lat="40.86199" lon="14.209465"><ele>333.5</ele><time>2026-04-15T15:23:52.308Z</time></trkpt><trkpt lat="40.862075" lon="14.2094817"><ele>332.66666666666663</ele><time>2026-04-15T15:23:53.307Z</time></trkpt><trkpt lat="40.8621617" lon="14.209495"><ele>331.8333333333333</ele><time>2026-04-15T15:23:54.308Z</time></trkpt><trkpt lat="40.8622517" lon="14.2095"><ele>331.0</ele><time>2026-04-15T15:23:55.31Z</time></trkpt><trkpt lat="40.8623433" lon="14.2095033"><ele>331.0</ele><time>2026-04-15T15:23:56.309Z</time></trkpt><trkpt lat="40.86243" lon="14.20951"><ele>331.0</ele><time>2026-04-15T15:23:57.309Z</time></trkpt><trkpt lat="40.8625167" lon="14.20951"><ele>331.0</ele><time>2026-04-15T15:23:58.31Z</time></trkpt><trkpt lat="40.8626067" lon="14.209515"><ele>331.0</ele><time>2026-04-15T15:23:59.31Z</time></trkpt><trkpt lat="40.8626933" lon="14.2095233"><ele>331.0</ele><time>2026-04-15T15:24:00.309Z</time></trkpt><trkpt lat="40.862775" lon="14.2095383"><ele>331.0</ele><time>2026-04-15T15:24:01.308Z</time></trkpt><trkpt lat="40.862855" lon="14.2095533"><ele>330.7142857142857</ele><time>2026-04-15T15:24:02.309Z</time></trkpt><trkpt lat="40.86293" lon="14.2095733"><ele>330.42857142857144</ele><time>2026-04-15T15:24:03.31Z</time></trkpt><trkpt lat="40.8629983" lon="14.2095883"><ele>330.1428571428571</ele><time>2026-04-15T15:24:04.309Z</time></trkpt><trkpt lat="40.8630583" lon="14.209615"><ele>329.8571428571429</ele><time>2026-04-15T15:24:05.309Z</time></trkpt><trkpt lat="40.8631333" lon="14.2096467"><ele>329.57142857142856</ele><time>2026-04-15T15:24:07.306Z</time></trkpt><trkpt lat="40.86318" lon="14.2095783"><ele>329.2857142857143</ele><time>2026-04-15T15:24:11.309Z</time></trkpt><trkpt lat="40.8632133" lon="14.2094967"><ele>329.0</ele><time>2026-04-15T15:24:14.307Z</time></trkpt><trkpt lat="40.8632367" lon="14.209405"><ele>329.0</ele><time>2026-04-15T15:24:17.307Z</time></trkpt><trkpt lat="40.86324" lon="14.209285"><ele>329.0</ele><time>2026-04-15T15:24:20.306Z</time></trkpt><trkpt lat="40.8632517" lon="14.209165"><ele>329.0</ele><time>2026-04-15T15:24:23.308Z</time></trkpt><trkpt lat="40.8632667" lon="14.2090533"><ele>329.0</ele><time>2026-04-15T15:24:26.307Z</time></trkpt><trkpt lat="40.8632667" lon="14.2089683"><ele>329.0</ele><time>2026-04-15T15:24:28.308Z</time></trkpt><trkpt lat="40.8632583" lon="14.2088833"><ele>329.0</ele><time>2026-04-15T15:24:30.308Z</time></trkpt><trkpt lat="40.86326" lon="14.20877"><ele>330.0</ele><time>2026-04-15T15:24:33.308Z</time></trkpt><trkpt lat="40.8632633" lon="14.2086583"><ele>331.0</ele><time>2026-04-15T15:24:36.308Z</time></trkpt><trkpt lat="40.8632717" lon="14.20855"><ele>332.0</ele><time>2026-04-15T15:24:39.308Z</time></trkpt><trkpt lat="40.86327" lon="14.2084433"><ele>333.0</ele><time>2026-04-15T15:24:42.311Z</time></trkpt><trkpt lat="40.8632667" lon="14.2083567"><ele>334.0</ele><time>2026-04-15T15:24:45.306Z</time></trkpt><trkpt lat="40.8632667" lon="14.2082567"><ele>335.0</ele><time>2026-04-15T15:24:48.306Z</time></trkpt><trkpt lat="40.8632667" lon="14.20816"><ele>335.57142857142856</ele><time>2026-04-15T15:24:51.306Z</time></trkpt><trkpt lat="40.86326" lon="14.2080683"><ele>336.1428571428571</ele><time>2026-04-15T15:24:54.309Z</time></trkpt><trkpt lat="40.8632633" lon="14.2079633"><ele>336.71428571428567</ele><time>2026-04-15T15:24:58.309Z</time></trkpt><trkpt lat="40.8632733" lon="14.2078783"><ele>337.2857142857143</ele><time>2026-04-15T15:25:01.305Z</time></trkpt><trkpt lat="40.8632883" lon="14.2077783"><ele>337.8571428571429</ele><time>2026-04-15T15:25:04.307Z</time></trkpt><trkpt lat="40.8633167" lon="14.207685"><ele>338.4285714285714</ele><time>2026-04-15T15:25:07.311Z</time></trkpt><trkpt lat="40.8633333" lon="14.2075983"><ele>339.0</ele><time>2026-04-15T15:25:10.307Z</time></trkpt><trkpt lat="40.8633433" lon="14.20751"><ele>339.0</ele><time>2026-04-15T15:25:13.31Z</time></trkpt><trkpt lat="40.8633533" lon="14.207415"><ele>339.0</ele><time>2026-04-15T15:25:16.307Z</time></trkpt><trkpt lat="40.863355" lon="14.2073033"><ele>339.0</ele><time>2026-04-15T15:25:19.308Z</time></trkpt><trkpt lat="40.8633567" lon="14.2071967"><ele>339.0</ele><time>2026-04-15T15:25:22.306Z</time></trkpt><trkpt lat="40.8633433" lon="14.2070967"><ele>339.0</ele><time>2026-04-15T15:25:25.309Z</time></trkpt><trkpt lat="40.8633383" lon="14.2070117"><ele>339.0</ele><time>2026-04-15T15:25:28.309Z</time></trkpt><trkpt lat="40.8633233" lon="14.20692"><ele>340.2857142857143</ele><time>2026-04-15T15:25:31.31Z</time></trkpt><trkpt lat="40.8632983" lon="14.206825"><ele>341.5714285714286</ele><time>2026-04-15T15:25:34.311Z</time></trkpt><trkpt lat="40.8632933" lon="14.2067367"><ele>342.8571428571429</ele><time>2026-04-15T15:25:37.307Z</time></trkpt><trkpt lat="40.86328" lon="14.206655"><ele>344.1428571428571</ele><time>2026-04-15T15:25:40.309Z</time></trkpt><trkpt lat="40.86325" lon="14.206575"><ele>345.42857142857144</ele><time>2026-04-15T15:25:43.309Z</time></trkpt><trkpt lat="40.8632133" lon="14.2064833"><ele>346.7142857142857</ele><time>2026-04-15T15:25:46.307Z</time></trkpt><trkpt lat="40.86318" lon="14.2063983"><ele>348.0</ele><time>2026-04-15T15:25:49.308Z</time></trkpt><trkpt lat="40.8631583" lon="14.2063167"><ele>349.0</ele><time>2026-04-15T15:25:52.307Z</time></trkpt><trkpt lat="40.8631333" lon="14.206235"><ele>350.0</ele><time>2026-04-15T15:25:55.308Z</time></trkpt><trkpt lat="40.8631067" lon="14.2061383"><ele>351.0</ele><time>2026-04-15T15:25:58.308Z</time></trkpt><trkpt lat="40.86309" lon="14.2060433"><ele>352.0</ele><time>2026-04-15T15:26:01.308Z</time></trkpt><trkpt lat="40.8630767" lon="14.205945"><ele>353.0</ele><time>2026-04-15T15:26:04.308Z</time></trkpt><trkpt lat="40.8630617" lon="14.2058567"><ele>354.0</ele><time>2026-04-15T15:26:07.308Z</time></trkpt><trkpt lat="40.863055" lon="14.2057667"><ele>355.0</ele><time>2026-04-15T15:26:10.31Z</time></trkpt><trkpt lat="40.8630533" lon="14.2056817"><ele>354.7142857142857</ele><time>2026-04-15T15:26:13.31Z</time></trkpt><trkpt lat="40.8630483" lon="14.205595"><ele>354.42857142857144</ele><time>2026-04-15T15:26:16.307Z</time></trkpt><trkpt lat="40.863045" lon="14.2055017"><ele>354.1428571428571</ele><time>2026-04-15T15:26:19.307Z</time></trkpt><trkpt lat="40.8630383" lon="14.2054"><ele>353.8571428571429</ele><time>2026-04-15T15:26:22.309Z</time></trkpt><trkpt lat="40.8630367" lon="14.2053083"><ele>353.5714285714286</ele><time>2026-04-15T15:26:25.308Z</time></trkpt><trkpt lat="40.86304" lon="14.205215"><ele>353.2857142857143</ele><time>2026-04-15T15:26:28.307Z</time></trkpt><trkpt lat="40.8630367" lon="14.2051233"><ele>353.0</ele><time>2026-04-15T15:26:31.308Z</time></trkpt><trkpt lat="40.86303" lon="14.205025"><ele>353.0</ele><time>2026-04-15T15:26:34.308Z</time></trkpt><trkpt lat="40.8630283" lon="14.2049267"><ele>353.0</ele><time>2026-04-15T15:26:37.31Z</time></trkpt><trkpt lat="40.86303" lon="14.204825"><ele>353.0</ele><time>2026-04-15T15:26:40.31Z</time></trkpt><trkpt lat="40.863035" lon="14.20473"><ele>353.0</ele><time>2026-04-15T15:26:43.309Z</time></trkpt><trkpt lat="40.8630467" lon="14.2046417"><ele>353.0</ele><time>2026-04-15T15:26:46.309Z</time></trkpt><trkpt lat="40.86306" lon="14.2045567"><ele>353.0</ele><time>2026-04-15T15:26:49.308Z</time></trkpt><trkpt lat="40.8630733" lon="14.204465"><ele>353.0</ele><time>2026-04-15T15:26:52.307Z</time></trkpt><trkpt lat="40.8630933" lon="14.2043717"><ele>353.6666666666667</ele><time>2026-04-15T15:26:55.308Z</time></trkpt><trkpt lat="40.863115" lon="14.204275"><ele>354.33333333333337</ele><time>2026-04-15T15:26:58.31Z</time></trkpt><trkpt lat="40.8631333" lon="14.2041883"><ele>355.0</ele><time>2026-04-15T15:27:01.309Z</time></trkpt><trkpt lat="40.8631633" lon="14.20409"><ele>355.6666666666667</ele><time>2026-04-15T15:27:04.305Z</time></trkpt><trkpt lat="40.8631617" lon="14.2039867"><ele>356.3333333333333</ele><time>2026-04-15T15:27:07.309Z</time></trkpt><trkpt lat="40.8631833" lon="14.2038883"><ele>357.0</ele><time>2026-04-15T15:27:10.308Z</time></trkpt><trkpt lat="40.86321" lon="14.20378"><ele>358.0</ele><time>2026-04-15T15:27:13.309Z</time></trkpt><trkpt lat="40.86324" lon="14.2036783"><ele>359.0</ele><time>2026-04-15T15:27:16.31Z</time></trkpt><trkpt lat="40.8632733" lon="14.2035717"><ele>360.0</ele><time>2026-04-15T15:27:19.308Z</time></trkpt><trkpt lat="40.8633117" lon="14.2034633"><ele>361.0</ele><time>2026-04-15T15:27:22.308Z</time></trkpt><trkpt lat="40.8633367" lon="14.2033467"><ele>362.0</ele><time>2026-04-15T15:27:25.309Z</time></trkpt><trkpt lat="40.863345" lon="14.203225"><ele>363.0</ele><time>2026-04-15T15:27:28.308Z</time></trkpt><trkpt lat="40.8633367" lon="14.2031067"><ele>363.5</ele><time>2026-04-15T15:27:31.31Z</time></trkpt><trkpt lat="40.863315" lon="14.203"><ele>364.0</ele><time>2026-04-15T15:27:34.307Z</time></trkpt><trkpt lat="40.8632917" lon="14.2029"><ele>364.5</ele><time>2026-04-15T15:27:37.308Z</time></trkpt><trkpt lat="40.8632633" lon="14.2028017"><ele>365.0</ele><time>2026-04-15T15:27:40.307Z</time></trkpt><trkpt lat="40.8632333" lon="14.2027017"><ele>365.5</ele><time>2026-04-15T15:27:43.308Z</time></trkpt><trkpt lat="40.863215" lon="14.2026067"><ele>366.0</ele><time>2026-04-15T15:27:46.307Z</time></trkpt><trkpt lat="40.8631967" lon="14.2025133"><ele>366.0</ele><time>2026-04-15T15:27:49.308Z</time></trkpt><trkpt lat="40.863165" lon="14.20242"><ele>366.0</ele><time>2026-04-15T15:27:52.305Z</time></trkpt><trkpt lat="40.8631267" lon="14.2023217"><ele>366.0</ele><time>2026-04-15T15:27:55.307Z</time></trkpt><trkpt lat="40.86309" lon="14.2022233"><ele>366.0</ele><time>2026-04-15T15:27:58.307Z</time></trkpt><trkpt lat="40.8630533" lon="14.20212"><ele>366.0</ele><time>2026-04-15T15:28:01.308Z</time></trkpt><trkpt lat="40.8630183" lon="14.2020283"><ele>366.0</ele><time>2026-04-15T15:28:04.308Z</time></trkpt><trkpt lat="40.86298" lon="14.20194"><ele>366.5</ele><time>2026-04-15T15:28:07.31Z</time></trkpt><trkpt lat="40.862935" lon="14.201845"><ele>367.0</ele><time>2026-04-15T15:28:10.31Z</time></trkpt><trkpt lat="40.862905" lon="14.20174"><ele>367.5</ele><time>2026-04-15T15:28:13.309Z</time></trkpt><trkpt lat="40.8629067" lon="14.2016233"><ele>368.0</ele><time>2026-04-15T15:28:16.308Z</time></trkpt><trkpt lat="40.862915" lon="14.2015183"><ele>368.5</ele><time>2026-04-15T15:28:19.308Z</time></trkpt><trkpt lat="40.8629183" lon="14.2014117"><ele>369.0</ele><time>2026-04-15T15:28:22.307Z</time></trkpt><trkpt lat="40.86292" lon="14.2013033"><ele>369.3333333333333</ele><time>2026-04-15T15:28:25.308Z</time></trkpt><trkpt lat="40.86293" lon="14.2012"><ele>369.6666666666667</ele><time>2026-04-15T15:28:28.309Z</time></trkpt><trkpt lat="40.8629283" lon="14.2010983"><ele>370.0</ele><time>2026-04-15T15:28:31.308Z</time></trkpt><trkpt lat="40.8629417" lon="14.2010083"><ele>370.33333333333337</ele><time>2026-04-15T15:28:34.307Z</time></trkpt><trkpt lat="40.86294" lon="14.2009033"><ele>370.6666666666667</ele><time>2026-04-15T15:28:37.307Z</time></trkpt><trkpt lat="40.8629483" lon="14.2008017"><ele>371.0</ele><time>2026-04-15T15:28:40.306Z</time></trkpt><trkpt lat="40.8629733" lon="14.200705"><ele>371.85714285714283</ele><time>2026-04-15T15:28:43.31Z</time></trkpt><trkpt lat="40.862985" lon="14.2006067"><ele>372.7142857142857</ele><time>2026-04-15T15:28:46.309Z</time></trkpt><trkpt lat="40.8630017" lon="14.20051"><ele>373.57142857142856</ele><time>2026-04-15T15:28:49.311Z</time></trkpt><trkpt lat="40.8630217" lon="14.2004183"><ele>374.42857142857144</ele><time>2026-04-15T15:28:52.31Z</time></trkpt><trkpt lat="40.8630567" lon="14.2003317"><ele>375.2857142857143</ele><time>2026-04-15T15:28:55.309Z</time></trkpt><trkpt lat="40.863105" lon="14.2002617"><ele>376.1428571428571</ele><time>2026-04-15T15:28:58.31Z</time></trkpt><trkpt lat="40.8631283" lon="14.2001817"><ele>377.0</ele><time>2026-04-15T15:29:29.308Z</time></trkpt><trkpt lat="40.8631633" lon="14.2000817"><ele>377.0</ele><time>2026-04-15T15:29:32.309Z</time></trkpt><trkpt lat="40.86322" lon="14.1999983"><ele>377.0</ele><time>2026-04-15T15:29:35.307Z</time></trkpt><trkpt lat="40.863255" lon="14.199915"><ele>377.0</ele><time>2026-04-15T15:29:38.309Z</time></trkpt><trkpt lat="40.863295" lon="14.1998233"><ele>377.0</ele><time>2026-04-15T15:29:41.308Z</time></trkpt><trkpt lat="40.8633283" lon="14.19973"><ele>377.0</ele><time>2026-04-15T15:29:44.308Z</time></trkpt><trkpt lat="40.8633733" lon="14.199635"><ele>377.0</ele><time>2026-04-15T15:29:47.308Z</time></trkpt><trkpt lat="40.8634217" lon="14.1995483"><ele>377.83333333333337</ele><time>2026-04-15T15:29:50.31Z</time></trkpt><trkpt lat="40.863465" lon="14.1994567"><ele>378.6666666666667</ele><time>2026-04-15T15:29:53.307Z</time></trkpt><trkpt lat="40.863515" lon="14.19937"><ele>379.5</ele><time>2026-04-15T15:29:56.309Z</time></trkpt><trkpt lat="40.863555" lon="14.1992867"><ele>380.3333333333333</ele><time>2026-04-15T15:29:59.309Z</time></trkpt><trkpt lat="40.8635933" lon="14.1991967"><ele>381.16666666666663</ele><time>2026-04-15T15:30:02.308Z</time></trkpt><trkpt lat="40.8636367" lon="14.1991017"><ele>382.0</ele><time>2026-04-15T15:30:05.308Z</time></trkpt><trkpt lat="40.86368" lon="14.19901"><ele>382.66666666666663</ele><time>2026-04-15T15:30:08.308Z</time></trkpt><trkpt lat="40.86372" lon="14.19893"><ele>383.3333333333333</ele><time>2026-04-15T15:30:11.309Z</time></trkpt><trkpt lat="40.8637583" lon="14.1988367"><ele>384.0</ele><time>2026-04-15T15:30:14.311Z</time></trkpt><trkpt lat="40.863805" lon="14.1987533"><ele>384.66666666666663</ele><time>2026-04-15T15:30:17.309Z</time></trkpt><trkpt lat="40.863845" lon="14.198665"><ele>385.3333333333333</ele><time>2026-04-15T15:30:20.307Z</time></trkpt><trkpt lat="40.863875" lon="14.19858"><ele>386.0</ele><time>2026-04-15T15:30:23.31Z</time></trkpt><trkpt lat="40.863905" lon="14.1984883"><ele>385.99999999999994</ele><time>2026-04-15T15:30:26.311Z</time></trkpt><trkpt lat="40.8639333" lon="14.1983917"><ele>386.0</ele><time>2026-04-15T15:30:29.307Z</time></trkpt><trkpt lat="40.8639567" lon="14.1982967"><ele>386.0</ele><time>2026-04-15T15:30:32.308Z</time></trkpt><trkpt lat="40.8639767" lon="14.1982"><ele>386.0</ele><time>2026-04-15T15:30:35.308Z</time></trkpt><trkpt lat="40.8639983" lon="14.1980967"><ele>385.99999999999994</ele><time>2026-04-15T15:30:38.308Z</time></trkpt><trkpt lat="40.8640117" lon="14.19798"><ele>386.0</ele><time>2026-04-15T15:30:41.309Z</time></trkpt><trkpt lat="40.8640267" lon="14.1978617"><ele>386.3333333333333</ele><time>2026-04-15T15:30:44.31Z</time></trkpt><trkpt lat="40.8640467" lon="14.1977417"><ele>386.66666666666663</ele><time>2026-04-15T15:30:47.306Z</time></trkpt><trkpt lat="40.8640717" lon="14.1976567"><ele>387.0</ele><time>2026-04-15T15:30:49.307Z</time></trkpt><trkpt lat="40.8640883" lon="14.19757"><ele>387.33333333333337</ele><time>2026-04-15T15:30:51.307Z</time></trkpt><trkpt lat="40.8641017" lon="14.197485"><ele>387.6666666666667</ele><time>2026-04-15T15:30:53.308Z</time></trkpt><trkpt lat="40.86412" lon="14.1973983"><ele>388.0</ele><time>2026-04-15T15:30:55.305Z</time></trkpt><trkpt lat="40.8641367" lon="14.197275"><ele>388.57142857142856</ele><time>2026-04-15T15:30:58.306Z</time></trkpt><trkpt lat="40.8641517" lon="14.1971883"><ele>389.14285714285717</ele><time>2026-04-15T15:31:00.309Z</time></trkpt><trkpt lat="40.8641717" lon="14.1970667"><ele>389.7142857142857</ele><time>2026-04-15T15:31:03.307Z</time></trkpt><trkpt lat="40.8641833" lon="14.1969833"><ele>390.2857142857143</ele><time>2026-04-15T15:31:05.307Z</time></trkpt><trkpt lat="40.86419" lon="14.1968933"><ele>390.8571428571429</ele><time>2026-04-15T15:31:07.307Z</time></trkpt><trkpt lat="40.8641983" lon="14.1967983"><ele>391.42857142857144</ele><time>2026-04-15T15:31:09.31Z</time></trkpt><trkpt lat="40.864205" lon="14.1967067"><ele>392.0</ele><time>2026-04-15T15:31:11.308Z</time></trkpt><trkpt lat="40.864205" lon="14.196615"><ele>391.99999999999994</ele><time>2026-04-15T15:31:13.308Z</time></trkpt><trkpt lat="40.864205" lon="14.19652"><ele>392.0</ele><time>2026-04-15T15:31:15.309Z</time></trkpt><trkpt lat="40.8641983" lon="14.1964317"><ele>392.0</ele><time>2026-04-15T15:31:17.306Z</time></trkpt><trkpt lat="40.8641867" lon="14.1963483"><ele>392.0</ele><time>2026-04-15T15:31:19.308Z</time></trkpt><trkpt lat="40.8641767" lon="14.1962317"><ele>391.99999999999994</ele><time>2026-04-15T15:31:22.306Z</time></trkpt><trkpt lat="40.8641867" lon="14.1961133"><ele>392.0</ele><time>2026-04-15T15:31:25.309Z</time></trkpt><trkpt lat="40.8641817" lon="14.1959967"><ele>393.16666666666663</ele><time>2026-04-15T15:31:28.307Z</time></trkpt><trkpt lat="40.8641867" lon="14.195875"><ele>394.3333333333333</ele><time>2026-04-15T15:31:31.307Z</time></trkpt><trkpt lat="40.8642017" lon="14.1957517"><ele>395.5</ele><time>2026-04-15T15:31:34.307Z</time></trkpt><trkpt lat="40.8642167" lon="14.19567"><ele>396.66666666666663</ele><time>2026-04-15T15:31:36.307Z</time></trkpt><trkpt lat="40.86424" lon="14.1955517"><ele>397.8333333333333</ele><time>2026-04-15T15:31:39.307Z</time></trkpt><trkpt lat="40.8642483" lon="14.1954667"><ele>399.0</ele><time>2026-04-15T15:31:41.308Z</time></trkpt><trkpt lat="40.8642683" lon="14.1953517"><ele>400.1666666666667</ele><time>2026-04-15T15:31:44.308Z</time></trkpt><trkpt lat="40.86427" lon="14.1952667"><ele>401.33333333333337</ele><time>2026-04-15T15:31:46.305Z</time></trkpt><trkpt lat="40.8642683" lon="14.1951817"><ele>402.5</ele><time>2026-04-15T15:31:48.308Z</time></trkpt><trkpt lat="40.8642617" lon="14.1950967"><ele>403.6666666666667</ele><time>2026-04-15T15:31:50.307Z</time></trkpt><trkpt lat="40.8642483" lon="14.1949783"><ele>404.83333333333337</ele><time>2026-04-15T15:31:53.309Z</time></trkpt><trkpt lat="40.8642367" lon="14.1948583"><ele>406.0</ele><time>2026-04-15T15:31:56.307Z</time></trkpt><trkpt lat="40.8642133" lon="14.194755"><ele>406.6666666666667</ele><time>2026-04-15T15:31:59.306Z</time></trkpt><trkpt lat="40.8641983" lon="14.194665"><ele>407.33333333333337</ele><time>2026-04-15T15:32:02.308Z</time></trkpt><trkpt lat="40.8641817" lon="14.194565"><ele>408.0</ele><time>2026-04-15T15:32:05.306Z</time></trkpt><trkpt lat="40.8641617" lon="14.1944733"><ele>408.66666666666663</ele><time>2026-04-15T15:32:08.308Z</time></trkpt><trkpt lat="40.8641483" lon="14.1943917"><ele>409.3333333333333</ele><time>2026-04-15T15:32:11.306Z</time></trkpt><trkpt lat="40.8641217" lon="14.1942617"><ele>410.0</ele><time>2026-04-15T15:32:16.307Z</time></trkpt><trkpt lat="40.8641117" lon="14.1941633"><ele>410.0</ele><time>2026-04-15T15:32:19.309Z</time></trkpt><trkpt lat="40.86409" lon="14.1940617"><ele>410.0</ele><time>2026-04-15T15:32:22.309Z</time></trkpt><trkpt lat="40.8640883" lon="14.19397"><ele>410.0</ele><time>2026-04-15T15:32:25.307Z</time></trkpt><trkpt lat="40.8640817" lon="14.1938817"><ele>410.0</ele><time>2026-04-15T15:32:28.306Z</time></trkpt><trkpt lat="40.864075" lon="14.19379"><ele>410.0</ele><time>2026-04-15T15:32:31.309Z</time></trkpt><trkpt lat="40.8640667" lon="14.1936967"><ele>410.0</ele><time>2026-04-15T15:32:34.307Z</time></trkpt><trkpt lat="40.8640617" lon="14.1936017"><ele>410.0</ele><time>2026-04-15T15:32:37.304Z</time></trkpt><trkpt lat="40.8640567" lon="14.1935033"><ele>410.5714285714286</ele><time>2026-04-15T15:32:40.308Z</time></trkpt><trkpt lat="40.8640517" lon="14.1934117"><ele>411.1428571428571</ele><time>2026-04-15T15:32:43.308Z</time></trkpt><trkpt lat="40.86404" lon="14.1933233"><ele>411.7142857142857</ele><time>2026-04-15T15:32:46.305Z</time></trkpt><trkpt lat="40.8640217" lon="14.1932383"><ele>412.28571428571433</ele><time>2026-04-15T15:32:49.308Z</time></trkpt><trkpt lat="40.863995" lon="14.193155"><ele>412.8571428571429</ele><time>2026-04-15T15:32:52.308Z</time></trkpt><trkpt lat="40.8639567" lon="14.1930767"><ele>413.42857142857144</ele><time>2026-04-15T15:32:55.308Z</time></trkpt><trkpt lat="40.86391" lon="14.1929917"><ele>414.0</ele><time>2026-04-15T15:32:58.307Z</time></trkpt><trkpt lat="40.863865" lon="14.192915"><ele>414.42857142857144</ele><time>2026-04-15T15:33:01.306Z</time></trkpt><trkpt lat="40.8638233" lon="14.1928433"><ele>414.8571428571429</ele><time>2026-04-15T15:33:04.305Z</time></trkpt><trkpt lat="40.8637667" lon="14.1927633"><ele>415.28571428571433</ele><time>2026-04-15T15:33:08.31Z</time></trkpt><trkpt lat="40.8637183" lon="14.192695"><ele>415.7142857142857</ele><time>2026-04-15T15:33:11.31Z</time></trkpt><trkpt lat="40.8636717" lon="14.1926333"><ele>416.1428571428571</ele><time>2026-04-15T15:33:14.309Z</time></trkpt><trkpt lat="40.86363" lon="14.19255"><ele>416.5714285714286</ele><time>2026-04-15T15:33:18.309Z</time></trkpt><trkpt lat="40.8636117" lon="14.19246"><ele>417.0</ele><time>2026-04-15T15:33:21.309Z</time></trkpt><trkpt lat="40.8636067" lon="14.1923617"><ele>417.42857142857144</ele><time>2026-04-15T15:33:24.308Z</time></trkpt><trkpt lat="40.863615" lon="14.1922617"><ele>417.85714285714283</ele><time>2026-04-15T15:33:27.307Z</time></trkpt><trkpt lat="40.8636183" lon="14.1921717"><ele>418.2857142857143</ele><time>2026-04-15T15:33:30.308Z</time></trkpt><trkpt lat="40.8636333" lon="14.1920833"><ele>418.7142857142857</ele><time>2026-04-15T15:33:33.31Z</time></trkpt><trkpt lat="40.8636467" lon="14.1919783"><ele>419.1428571428571</ele><time>2026-04-15T15:33:37.309Z</time></trkpt><trkpt lat="40.8636783" lon="14.1918967"><ele>419.57142857142856</ele><time>2026-04-15T15:33:40.308Z</time></trkpt><trkpt lat="40.8637133" lon="14.191815"><ele>420.0</ele><time>2026-04-15T15:33:43.308Z</time></trkpt><trkpt lat="40.86375" lon="14.1917317"><ele>420.0</ele><time>2026-04-15T15:33:46.308Z</time></trkpt><trkpt lat="40.863805" lon="14.1916483"><ele>420.0</ele><time>2026-04-15T15:33:49.308Z</time></trkpt><trkpt lat="40.8638633" lon="14.19156"><ele>420.0</ele><time>2026-04-15T15:33:52.307Z</time></trkpt><trkpt lat="40.8639083" lon="14.1915017"><ele>420.0</ele><time>2026-04-15T15:33:54.308Z</time></trkpt><trkpt lat="40.8639583" lon="14.1914417"><ele>420.0</ele><time>2026-04-15T15:33:56.308Z</time></trkpt><trkpt lat="40.8640083" lon="14.1913867"><ele>420.0</ele><time>2026-04-15T15:33:58.307Z</time></trkpt><trkpt lat="40.864055" lon="14.19133"><ele>420.0</ele><time>2026-04-15T15:34:00.308Z</time></trkpt><trkpt lat="40.86412" lon="14.191265"><ele>420.8333333333333</ele><time>2026-04-15T15:34:03.306Z</time></trkpt><trkpt lat="40.8641733" lon="14.1912"><ele>421.66666666666663</ele><time>2026-04-15T15:34:06.31Z</time></trkpt><trkpt lat="40.8642267" lon="14.1911183"><ele>422.5</ele><time>2026-04-15T15:34:09.308Z</time></trkpt><trkpt lat="40.8642883" lon="14.191045"><ele>423.3333333333333</ele><time>2026-04-15T15:34:12.309Z</time></trkpt><trkpt lat="40.8643433" lon="14.19098"><ele>424.16666666666663</ele><time>2026-04-15T15:34:15.309Z</time></trkpt><trkpt lat="40.8644133" lon="14.1909117"><ele>425.0</ele><time>2026-04-15T15:34:18.308Z</time></trkpt><trkpt lat="40.8644817" lon="14.190875"><ele>423.99999999999994</ele><time>2026-04-15T15:34:20.308Z</time></trkpt><trkpt lat="40.8645683" lon="14.1908267"><ele>423.0</ele><time>2026-04-15T15:34:22.307Z</time></trkpt><trkpt lat="40.8646417" lon="14.190725"><ele>422.0</ele><time>2026-04-15T15:34:24.311Z</time></trkpt><trkpt lat="40.8646817" lon="14.19062"><ele>421.0</ele><time>2026-04-15T15:34:26.31Z</time></trkpt><trkpt lat="40.8647283" lon="14.19054"><ele>419.99999999999994</ele><time>2026-04-15T15:34:28.31Z</time></trkpt><trkpt lat="40.8647983" lon="14.1905117"><ele>419.0</ele><time>2026-04-15T15:34:30.309Z</time></trkpt><trkpt lat="40.8648767" lon="14.19049"><ele>419.0</ele><time>2026-04-15T15:34:32.309Z</time></trkpt><trkpt lat="40.86496" lon="14.190455"><ele>419.0</ele><time>2026-04-15T15:34:34.306Z</time></trkpt><trkpt lat="40.8650483" lon="14.1903817"><ele>419.0</ele><time>2026-04-15T15:34:36.307Z</time></trkpt><trkpt lat="40.8651217" lon="14.19029"><ele>419.0</ele><time>2026-04-15T15:34:38.308Z</time></trkpt><trkpt lat="40.8651917" lon="14.1902"><ele>419.0</ele><time>2026-04-15T15:34:40.306Z</time></trkpt><trkpt lat="40.8652333" lon="14.1900817"><ele>418.49999999999994</ele><time>2026-04-15T15:34:42.307Z</time></trkpt><trkpt lat="40.8652333" lon="14.1899633"><ele>418.0</ele><time>2026-04-15T15:34:44.308Z</time></trkpt><trkpt lat="40.865215" lon="14.1898667"><ele>417.5</ele><time>2026-04-15T15:34:46.309Z</time></trkpt><trkpt lat="40.865235" lon="14.1897417"><ele>417.0</ele><time>2026-04-15T15:34:49.308Z</time></trkpt><trkpt lat="40.8653" lon="14.18968"><ele>416.49999999999994</ele><time>2026-04-15T15:34:51.307Z</time></trkpt><trkpt lat="40.8653967" lon="14.189655"><ele>416.0</ele><time>2026-04-15T15:34:53.307Z</time></trkpt><trkpt lat="40.8654967" lon="14.189645"><ele>416.0</ele><time>2026-04-15T15:34:55.308Z</time></trkpt><trkpt lat="40.8655917" lon="14.1896233"><ele>416.0</ele><time>2026-04-15T15:34:57.308Z</time></trkpt><trkpt lat="40.86569" lon="14.1896233"><ele>416.0</ele><time>2026-04-15T15:34:59.308Z</time></trkpt><trkpt lat="40.8657983" lon="14.1896433"><ele>416.0</ele><time>2026-04-15T15:35:01.308Z</time></trkpt><trkpt lat="40.8659183" lon="14.189655"><ele>416.0</ele><time>2026-04-15T15:35:03.31Z</time></trkpt><trkpt lat="40.866045" lon="14.18966"><ele>415.2857142857143</ele><time>2026-04-15T15:35:05.31Z</time></trkpt><trkpt lat="40.866115" lon="14.1896667"><ele>414.5714285714286</ele><time>2026-04-15T15:35:06.305Z</time></trkpt><trkpt lat="40.8661833" lon="14.1896733"><ele>413.8571428571429</ele><time>2026-04-15T15:35:07.309Z</time></trkpt><trkpt lat="40.8662517" lon="14.1896833"><ele>413.1428571428571</ele><time>2026-04-15T15:35:08.31Z</time></trkpt><trkpt lat="40.8663183" lon="14.1896883"><ele>412.42857142857144</ele><time>2026-04-15T15:35:09.309Z</time></trkpt><trkpt lat="40.8663833" lon="14.189695"><ele>411.7142857142857</ele><time>2026-04-15T15:35:10.309Z</time></trkpt><trkpt lat="40.8664467" lon="14.18971"><ele>411.0</ele><time>2026-04-15T15:35:11.31Z</time></trkpt><trkpt lat="40.866515" lon="14.189725"><ele>411.0</ele><time>2026-04-15T15:35:12.31Z</time></trkpt><trkpt lat="40.8665867" lon="14.18973"><ele>411.0</ele><time>2026-04-15T15:35:13.311Z</time></trkpt><trkpt lat="40.8666583" lon="14.1897383"><ele>411.0</ele><time>2026-04-15T15:35:14.308Z</time></trkpt><trkpt lat="40.8667283" lon="14.189745"><ele>411.0</ele><time>2026-04-15T15:35:15.309Z</time></trkpt><trkpt lat="40.8667967" lon="14.1897533"><ele>411.0</ele><time>2026-04-15T15:35:16.308Z</time></trkpt><trkpt lat="40.8668633" lon="14.18976"><ele>411.0</ele><time>2026-04-15T15:35:17.307Z</time></trkpt><trkpt lat="40.86693" lon="14.18977"><ele>411.0</ele><time>2026-04-15T15:35:18.307Z</time></trkpt><trkpt lat="40.8669983" lon="14.189775"><ele>410.85714285714283</ele><time>2026-04-15T15:35:19.307Z</time></trkpt><trkpt lat="40.8670683" lon="14.18978"><ele>410.71428571428567</ele><time>2026-04-15T15:35:20.307Z</time></trkpt><trkpt lat="40.8671383" lon="14.18979"><ele>410.57142857142856</ele><time>2026-04-15T15:35:21.307Z</time></trkpt><trkpt lat="40.8672067" lon="14.189795"><ele>410.42857142857144</ele><time>2026-04-15T15:35:22.307Z</time></trkpt><trkpt lat="40.8672833" lon="14.1897983"><ele>410.2857142857143</ele><time>2026-04-15T15:35:23.31Z</time></trkpt><trkpt lat="40.8673583" lon="14.1898033"><ele>410.14285714285717</ele><time>2026-04-15T15:35:24.309Z</time></trkpt><trkpt lat="40.867425" lon="14.1898083"><ele>410.0</ele><time>2026-04-15T15:35:25.31Z</time></trkpt><trkpt lat="40.8675433" lon="14.18983"><ele>408.4</ele><time>2026-04-15T15:35:27.31Z</time></trkpt><trkpt lat="40.8676033" lon="14.1898567"><ele>406.8</ele><time>2026-04-15T15:35:28.305Z</time></trkpt><trkpt lat="40.867665" lon="14.189885"><ele>405.20000000000005</ele><time>2026-04-15T15:35:29.308Z</time></trkpt><trkpt lat="40.8677567" lon="14.18996"><ele>403.6</ele><time>2026-04-15T15:35:31.309Z</time></trkpt><trkpt lat="40.8678367" lon="14.1900583"><ele>402.0</ele><time>2026-04-15T15:35:33.306Z</time></trkpt><trkpt lat="40.86791" lon="14.190175"><ele>401.20000000000005</ele><time>2026-04-15T15:35:35.307Z</time></trkpt><trkpt lat="40.8679767" lon="14.1903033"><ele>400.4</ele><time>2026-04-15T15:35:37.307Z</time></trkpt><trkpt lat="40.8680283" lon="14.190405"><ele>399.6</ele><time>2026-04-15T15:35:39.306Z</time></trkpt><trkpt lat="40.8680833" lon="14.19051"><ele>398.79999999999995</ele><time>2026-04-15T15:35:41.307Z</time></trkpt><trkpt lat="40.8681383" lon="14.190625"><ele>398.0</ele><time>2026-04-15T15:35:43.307Z</time></trkpt><trkpt lat="40.8681967" lon="14.1907533"><ele>397.4</ele><time>2026-04-15T15:35:45.305Z</time></trkpt><trkpt lat="40.8682583" lon="14.1908867"><ele>396.79999999999995</ele><time>2026-04-15T15:35:47.308Z</time></trkpt><trkpt lat="40.86831" lon="14.1909933"><ele>396.2</ele><time>2026-04-15T15:35:49.307Z</time></trkpt><trkpt lat="40.8683683" lon="14.1911"><ele>395.6</ele><time>2026-04-15T15:35:51.308Z</time></trkpt><trkpt lat="40.8684217" lon="14.1912083"><ele>395.0</ele><time>2026-04-15T15:35:53.307Z</time></trkpt><trkpt lat="40.8684617" lon="14.1913033"><ele>393.85714285714283</ele><time>2026-04-15T15:35:55.31Z</time></trkpt><trkpt lat="40.8684917" lon="14.191385"><ele>392.7142857142857</ele><time>2026-04-15T15:35:57.306Z</time></trkpt><trkpt lat="40.8685567" lon="14.1914683"><ele>391.57142857142856</ele><time>2026-04-15T15:36:00.308Z</time></trkpt><trkpt lat="40.86862" lon="14.1914817"><ele>390.42857142857144</ele><time>2026-04-15T15:36:02.308Z</time></trkpt><trkpt lat="40.8686767" lon="14.1914417"><ele>389.28571428571433</ele><time>2026-04-15T15:36:04.31Z</time></trkpt><trkpt lat="40.8687217" lon="14.191375"><ele>388.14285714285717</ele><time>2026-04-15T15:36:06.309Z</time></trkpt><trkpt lat="40.8687617" lon="14.191305"><ele>387.0</ele><time>2026-04-15T15:36:08.31Z</time></trkpt><trkpt lat="40.8688033" lon="14.1912383"><ele>387.0</ele><time>2026-04-15T15:36:10.308Z</time></trkpt><trkpt lat="40.8688683" lon="14.1911667"><ele>387.0</ele><time>2026-04-15T15:36:12.308Z</time></trkpt><trkpt lat="40.8689167" lon="14.1910567"><ele>387.0</ele><time>2026-04-15T15:36:14.307Z</time></trkpt><trkpt lat="40.8689617" lon="14.1909367"><ele>387.0</ele><time>2026-04-15T15:36:16.306Z</time></trkpt><trkpt lat="40.8690167" lon="14.1908283"><ele>387.0</ele><time>2026-04-15T15:36:18.307Z</time></trkpt><trkpt lat="40.86906" lon="14.1907583"><ele>387.0</ele><time>2026-04-15T15:36:20.308Z</time></trkpt><trkpt lat="40.86911" lon="14.1906533"><ele>386.6</ele><time>2026-04-15T15:36:23.308Z</time></trkpt><trkpt lat="40.8691467" lon="14.19056"><ele>386.20000000000005</ele><time>2026-04-15T15:36:25.307Z</time></trkpt><trkpt lat="40.8691867" lon="14.1904567"><ele>385.8</ele><time>2026-04-15T15:36:27.307Z</time></trkpt><trkpt lat="40.86923" lon="14.1903283"><ele>385.4</ele><time>2026-04-15T15:36:29.308Z</time></trkpt><trkpt lat="40.8692817" lon="14.1902"><ele>385.0</ele><time>2026-04-15T15:36:31.308Z</time></trkpt><trkpt lat="40.8693317" lon="14.1900717"><ele>385.0</ele><time>2026-04-15T15:36:33.308Z</time></trkpt><trkpt lat="40.8693817" lon="14.18995"><ele>385.0</ele><time>2026-04-15T15:36:35.308Z</time></trkpt><trkpt lat="40.8694567" lon="14.1898567"><ele>385.0</ele><time>2026-04-15T15:36:37.308Z</time></trkpt><trkpt lat="40.8695267" lon="14.1897567"><ele>385.0</ele><time>2026-04-15T15:36:39.31Z</time></trkpt><trkpt lat="40.8696" lon="14.1896567"><ele>385.0</ele><time>2026-04-15T15:36:41.308Z</time></trkpt><trkpt lat="40.8696783" lon="14.1895683"><ele>385.50000000000006</ele><time>2026-04-15T15:36:43.308Z</time></trkpt><trkpt lat="40.8697583" lon="14.1894833"><ele>386.0</ele><time>2026-04-15T15:36:45.309Z</time></trkpt><trkpt lat="40.869835" lon="14.1894267"><ele>386.5</ele><time>2026-04-15T15:36:47.307Z</time></trkpt><trkpt lat="40.8699283" lon="14.1893917"><ele>387.0</ele><time>2026-04-15T15:37:48.305Z</time></trkpt><trkpt lat="40.869985" lon="14.1893033"><ele>387.50000000000006</ele><time>2026-04-15T15:37:52.304Z</time></trkpt><trkpt lat="40.8700133" lon="14.189225"><ele>388.0</ele><time>2026-04-15T15:37:54.305Z</time></trkpt><trkpt lat="40.870055" lon="14.1891583"><ele>388.00000000000006</ele><time>2026-04-15T15:37:56.304Z</time></trkpt><trkpt lat="40.8701067" lon="14.1890833"><ele>388.0</ele><time>2026-04-15T15:37:58.305Z</time></trkpt><trkpt lat="40.8701733" lon="14.1889733"><ele>388.0</ele><time>2026-04-15T15:38:00.307Z</time></trkpt><trkpt lat="40.8702617" lon="14.1888667"><ele>388.0</ele><time>2026-04-15T15:38:02.307Z</time></trkpt><trkpt lat="40.870315" lon="14.1888167"><ele>388.00000000000006</ele><time>2026-04-15T15:38:03.307Z</time></trkpt><trkpt lat="40.8703717" lon="14.18877"><ele>388.0</ele><time>2026-04-15T15:38:04.306Z</time></trkpt><trkpt lat="40.8704233" lon="14.18872"><ele>386.83333333333337</ele><time>2026-04-15T15:38:05.307Z</time></trkpt><trkpt lat="40.8704783" lon="14.188665"><ele>385.6666666666667</ele><time>2026-04-15T15:38:06.308Z</time></trkpt><trkpt lat="40.87053" lon="14.188605"><ele>384.5</ele><time>2026-04-15T15:38:07.307Z</time></trkpt><trkpt lat="40.870575" lon="14.1885467"><ele>383.33333333333337</ele><time>2026-04-15T15:38:08.306Z</time></trkpt><trkpt lat="40.8706583" lon="14.1884467"><ele>382.1666666666667</ele><time>2026-04-15T15:38:10.306Z</time></trkpt><trkpt lat="40.8707483" lon="14.1883667"><ele>381.0</ele><time>2026-04-15T15:38:12.306Z</time></trkpt><trkpt lat="40.8708433" lon="14.18829"><ele>380.0</ele><time>2026-04-15T15:38:14.308Z</time></trkpt><trkpt lat="40.8709433" lon="14.1881867"><ele>379.0</ele><time>2026-04-15T15:38:16.304Z</time></trkpt><trkpt lat="40.8710017" lon="14.1881283"><ele>378.0</ele><time>2026-04-15T15:38:17.307Z</time></trkpt><trkpt lat="40.871065" lon="14.1880683"><ele>377.0</ele><time>2026-04-15T15:38:18.306Z</time></trkpt><trkpt lat="40.8711367" lon="14.1880083"><ele>376.0</ele><time>2026-04-15T15:38:19.307Z</time></trkpt><trkpt lat="40.8712133" lon="14.1879417"><ele>375.8</ele><time>2026-04-15T15:38:20.307Z</time></trkpt><trkpt lat="40.8712967" lon="14.1878833"><ele>375.6</ele><time>2026-04-15T15:38:21.307Z</time></trkpt><trkpt lat="40.8713817" lon="14.1878233"><ele>375.4</ele><time>2026-04-15T15:38:22.306Z</time></trkpt><trkpt lat="40.8714683" lon="14.1877633"><ele>375.2</ele><time>2026-04-15T15:38:23.307Z</time></trkpt><trkpt lat="40.8715617" lon="14.1877033"><ele>375.0</ele><time>2026-04-15T15:38:24.306Z</time></trkpt><trkpt lat="40.8716583" lon="14.1876517"><ele>375.0</ele><time>2026-04-15T15:38:25.307Z</time></trkpt><trkpt lat="40.871755" lon="14.1876033"><ele>375.0</ele><time>2026-04-15T15:38:26.307Z</time></trkpt><trkpt lat="40.87185" lon="14.1875583"><ele>375.0</ele><time>2026-04-15T15:38:27.307Z</time></trkpt><trkpt lat="40.87194" lon="14.1875217"><ele>375.0</ele><time>2026-04-15T15:38:28.307Z</time></trkpt><trkpt lat="40.87203" lon="14.1874833"><ele>375.0</ele><time>2026-04-15T15:38:29.306Z</time></trkpt><trkpt lat="40.8721233" lon="14.1874467"><ele>374.6</ele><time>2026-04-15T15:38:30.307Z</time></trkpt><trkpt lat="40.87222" lon="14.187415"><ele>374.2</ele><time>2026-04-15T15:38:31.306Z</time></trkpt><trkpt lat="40.87232" lon="14.1873833"><ele>373.79999999999995</ele><time>2026-04-15T15:38:32.306Z</time></trkpt><trkpt lat="40.8724233" lon="14.1873533"><ele>373.4</ele><time>2026-04-15T15:38:33.305Z</time></trkpt><trkpt lat="40.8725283" lon="14.1873183"><ele>373.0</ele><time>2026-04-15T15:38:34.307Z</time></trkpt><trkpt lat="40.872635" lon="14.18728"><ele>371.2</ele><time>2026-04-15T15:38:35.307Z</time></trkpt><trkpt lat="40.872745" lon="14.1872417"><ele>369.4</ele><time>2026-04-15T15:38:36.305Z</time></trkpt><trkpt lat="40.87285" lon="14.187205"><ele>367.59999999999997</ele><time>2026-04-15T15:38:37.308Z</time></trkpt><trkpt lat="40.8729517" lon="14.187175"><ele>365.79999999999995</ele><time>2026-04-15T15:38:38.307Z</time></trkpt><trkpt lat="40.8730467" lon="14.1871483"><ele>364.0</ele><time>2026-04-15T15:38:39.307Z</time></trkpt><trkpt lat="40.873145" lon="14.1871183"><ele>364.0</ele><time>2026-04-15T15:38:40.307Z</time></trkpt><trkpt lat="40.8732433" lon="14.1870867"><ele>364.0</ele><time>2026-04-15T15:38:41.306Z</time></trkpt><trkpt lat="40.873345" lon="14.1870567"><ele>364.0</ele><time>2026-04-15T15:38:42.307Z</time></trkpt><trkpt lat="40.8734417" lon="14.1870233"><ele>364.0</ele><time>2026-04-15T15:38:43.307Z</time></trkpt><trkpt lat="40.8735267" lon="14.187"><ele>364.0</ele><time>2026-04-15T15:38:44.307Z</time></trkpt><trkpt lat="40.8736067" lon="14.186975"><ele>363.0</ele><time>2026-04-15T15:38:45.307Z</time></trkpt><trkpt lat="40.873685" lon="14.1869483"><ele>362.0</ele><time>2026-04-15T15:38:46.306Z</time></trkpt><trkpt lat="40.8737567" lon="14.18692"><ele>361.0</ele><time>2026-04-15T15:38:47.306Z</time></trkpt><trkpt lat="40.873825" lon="14.186895"><ele>360.0</ele><time>2026-04-15T15:38:48.308Z</time></trkpt><trkpt lat="40.8738967" lon="14.186875"><ele>359.0</ele><time>2026-04-15T15:38:49.307Z</time></trkpt><trkpt lat="40.8739667" lon="14.186855"><ele>358.0</ele><time>2026-04-15T15:38:50.307Z</time></trkpt><trkpt lat="40.8740383" lon="14.18683"><ele>357.0</ele><time>2026-04-15T15:38:51.307Z</time></trkpt><trkpt lat="40.8741183" lon="14.1868117"><ele>357.0</ele><time>2026-04-15T15:38:52.307Z</time></trkpt><trkpt lat="40.8741917" lon="14.1867883"><ele>357.0</ele><time>2026-04-15T15:38:53.307Z</time></trkpt><trkpt lat="40.8742617" lon="14.18677"><ele>357.0</ele><time>2026-04-15T15:38:54.306Z</time></trkpt><trkpt lat="40.87433" lon="14.1867583"><ele>357.0</ele><time>2026-04-15T15:38:55.306Z</time></trkpt><trkpt lat="40.874395" lon="14.1867433"><ele>357.0</ele><time>2026-04-15T15:38:56.307Z</time></trkpt><trkpt lat="40.8744667" lon="14.186725"><ele>357.0</ele><time>2026-04-15T15:38:57.307Z</time></trkpt><trkpt lat="40.87454" lon="14.18671"><ele>357.0</ele><time>2026-04-15T15:38:58.306Z</time></trkpt><trkpt lat="40.8746083" lon="14.1867"><ele>356.0</ele><time>2026-04-15T15:38:59.307Z</time></trkpt><trkpt lat="40.874675" lon="14.1866967"><ele>355.0</ele><time>2026-04-15T15:39:00.308Z</time></trkpt><trkpt lat="40.8747417" lon="14.1866933"><ele>354.0</ele><time>2026-04-15T15:39:01.307Z</time></trkpt><trkpt lat="40.8748083" lon="14.1866833"><ele>353.0</ele><time>2026-04-15T15:39:02.306Z</time></trkpt><trkpt lat="40.87488" lon="14.1866717"><ele>352.0</ele><time>2026-04-15T15:39:03.307Z</time></trkpt><trkpt lat="40.87495" lon="14.1866583"><ele>351.0</ele><time>2026-04-15T15:39:04.307Z</time></trkpt><trkpt lat="40.87502" lon="14.1866417"><ele>350.0</ele><time>2026-04-15T15:39:05.306Z</time></trkpt><trkpt lat="40.875095" lon="14.1866167"><ele>349.83333333333337</ele><time>2026-04-15T15:39:06.306Z</time></trkpt><trkpt lat="40.8751633" lon="14.1865817"><ele>349.6666666666667</ele><time>2026-04-15T15:39:07.306Z</time></trkpt><trkpt lat="40.8752233" lon="14.1865333"><ele>349.5</ele><time>2026-04-15T15:39:08.305Z</time></trkpt><trkpt lat="40.8752817" lon="14.186495"><ele>349.3333333333333</ele><time>2026-04-15T15:39:09.306Z</time></trkpt><trkpt lat="40.87538" lon="14.18642"><ele>349.16666666666663</ele><time>2026-04-15T15:39:11.306Z</time></trkpt><trkpt lat="40.875465" lon="14.1863383"><ele>349.0</ele><time>2026-04-15T15:39:13.307Z</time></trkpt><trkpt lat="40.8755633" lon="14.1862583"><ele>349.0</ele><time>2026-04-15T15:39:15.307Z</time></trkpt><trkpt lat="40.8756633" lon="14.1861567"><ele>349.0</ele><time>2026-04-15T15:39:17.306Z</time></trkpt><trkpt lat="40.875715" lon="14.1861067"><ele>349.0</ele><time>2026-04-15T15:39:18.306Z</time></trkpt><trkpt lat="40.875805" lon="14.186025"><ele>349.0</ele><time>2026-04-15T15:39:20.306Z</time></trkpt><trkpt lat="40.875895" lon="14.1859517"><ele>349.0</ele><time>2026-04-15T15:39:22.306Z</time></trkpt><trkpt lat="40.87598" lon="14.1858667"><ele>349.6</ele><time>2026-04-15T15:39:24.306Z</time></trkpt><trkpt lat="40.8760783" lon="14.1857967"><ele>350.2</ele><time>2026-04-15T15:39:26.306Z</time></trkpt><trkpt lat="40.8761667" lon="14.185745"><ele>350.8</ele><time>2026-04-15T15:39:28.307Z</time></trkpt><trkpt lat="40.87626" lon="14.18572"><ele>351.40000000000003</ele><time>2026-04-15T15:39:30.305Z</time></trkpt><trkpt lat="40.8763567" lon="14.1857083"><ele>352.0</ele><time>2026-04-15T15:39:32.306Z</time></trkpt><trkpt lat="40.8764583" lon="14.1856933"><ele>352.0</ele><time>2026-04-15T15:39:34.305Z</time></trkpt><trkpt lat="40.8765617" lon="14.1856917"><ele>352.0</ele><time>2026-04-15T15:39:36.306Z</time></trkpt><trkpt lat="40.8766667" lon="14.1856933"><ele>352.0</ele><time>2026-04-15T15:39:38.307Z</time></trkpt><trkpt lat="40.876775" lon="14.1856917"><ele>352.0</ele><time>2026-04-15T15:39:40.306Z</time></trkpt><trkpt lat="40.87689" lon="14.1856517"><ele>352.0</ele><time>2026-04-15T15:39:42.307Z</time></trkpt><trkpt lat="40.87695" lon="14.1856167"><ele>351.3333333333333</ele><time>2026-04-15T15:39:43.305Z</time></trkpt><trkpt lat="40.87701" lon="14.1855733"><ele>350.66666666666663</ele><time>2026-04-15T15:39:44.306Z</time></trkpt><trkpt lat="40.87707" lon="14.185525"><ele>350.0</ele><time>2026-04-15T15:39:45.307Z</time></trkpt><trkpt lat="40.8771367" lon="14.1854783"><ele>349.3333333333333</ele><time>2026-04-15T15:39:46.307Z</time></trkpt><trkpt lat="40.8772033" lon="14.18543"><ele>348.6666666666667</ele><time>2026-04-15T15:39:47.307Z</time></trkpt><trkpt lat="40.877275" lon="14.1853817"><ele>348.0</ele><time>2026-04-15T15:39:48.307Z</time></trkpt><trkpt lat="40.8773483" lon="14.1853367"><ele>348.0</ele><time>2026-04-15T15:39:49.307Z</time></trkpt><trkpt lat="40.8774283" lon="14.1852983"><ele>348.0</ele><time>2026-04-15T15:39:50.307Z</time></trkpt><trkpt lat="40.8775033" lon="14.1852633"><ele>348.0</ele><time>2026-04-15T15:39:51.307Z</time></trkpt><trkpt lat="40.877585" lon="14.1852367"><ele>348.0</ele><time>2026-04-15T15:39:52.307Z</time></trkpt><trkpt lat="40.8776683" lon="14.1852167"><ele>348.0</ele><time>2026-04-15T15:39:53.307Z</time></trkpt><trkpt lat="40.87775" lon="14.1852017"><ele>348.0</ele><time>2026-04-15T15:39:54.307Z</time></trkpt><trkpt lat="40.8778333" lon="14.1851883"><ele>347.4</ele><time>2026-04-15T15:39:55.307Z</time></trkpt><trkpt lat="40.8779233" lon="14.1851817"><ele>346.79999999999995</ele><time>2026-04-15T15:39:56.307Z</time></trkpt><trkpt lat="40.8780167" lon="14.1851783"><ele>346.2</ele><time>2026-04-15T15:39:57.306Z</time></trkpt><trkpt lat="40.8781117" lon="14.1851717"><ele>345.6</ele><time>2026-04-15T15:39:58.307Z</time></trkpt><trkpt lat="40.8782033" lon="14.1851583"><ele>345.0</ele><time>2026-04-15T15:39:59.307Z</time></trkpt><trkpt lat="40.8783" lon="14.1851533"><ele>345.0</ele><time>2026-04-15T15:40:00.307Z</time></trkpt><trkpt lat="40.878395" lon="14.185145"><ele>345.0</ele><time>2026-04-15T15:40:01.307Z</time></trkpt><trkpt lat="40.8784867" lon="14.185125"><ele>345.0</ele><time>2026-04-15T15:40:02.306Z</time></trkpt><trkpt lat="40.8785817" lon="14.18511"><ele>345.0</ele><time>2026-04-15T15:40:03.306Z</time></trkpt><trkpt lat="40.8787783" lon="14.1850867"><ele>344.2</ele><time>2026-04-15T15:40:05.306Z</time></trkpt><trkpt lat="40.87888" lon="14.1850883"><ele>343.4</ele><time>2026-04-15T15:40:06.307Z</time></trkpt><trkpt lat="40.8789767" lon="14.1851"><ele>342.6</ele><time>2026-04-15T15:40:07.306Z</time></trkpt><trkpt lat="40.87907" lon="14.18512"><ele>341.8</ele><time>2026-04-15T15:40:08.307Z</time></trkpt><trkpt lat="40.8791667" lon="14.1851467"><ele>341.0</ele><time>2026-04-15T15:40:09.307Z</time></trkpt><trkpt lat="40.8792617" lon="14.1851683"><ele>340.20000000000005</ele><time>2026-04-15T15:40:10.305Z</time></trkpt><trkpt lat="40.8793567" lon="14.1851733"><ele>339.40000000000003</ele><time>2026-04-15T15:40:11.305Z</time></trkpt><trkpt lat="40.8794583" lon="14.18517"><ele>338.6</ele><time>2026-04-15T15:40:12.306Z</time></trkpt><trkpt lat="40.87955" lon="14.1851467"><ele>337.8</ele><time>2026-04-15T15:40:13.306Z</time></trkpt><trkpt lat="40.8796383" lon="14.185115"><ele>337.0</ele><time>2026-04-15T15:40:14.306Z</time></trkpt><trkpt lat="40.8797283" lon="14.185085"><ele>337.0</ele><time>2026-04-15T15:40:15.307Z</time></trkpt><trkpt lat="40.8798183" lon="14.18506"><ele>337.0</ele><time>2026-04-15T15:40:16.307Z</time></trkpt><trkpt lat="40.8799083" lon="14.1850383"><ele>337.0</ele><time>2026-04-15T15:40:17.307Z</time></trkpt><trkpt lat="40.8799967" lon="14.1850133"><ele>337.0</ele><time>2026-04-15T15:40:18.306Z</time></trkpt><trkpt lat="40.880085" lon="14.1849933"><ele>337.0</ele><time>2026-04-15T15:40:19.306Z</time></trkpt><trkpt lat="40.88017" lon="14.184985"><ele>337.0</ele><time>2026-04-15T15:40:20.305Z</time></trkpt><trkpt lat="40.8802533" lon="14.184975"><ele>336.66666666666663</ele><time>2026-04-15T15:40:21.307Z</time></trkpt><trkpt lat="40.8803383" lon="14.1849683"><ele>336.3333333333333</ele><time>2026-04-15T15:40:22.306Z</time></trkpt><trkpt lat="40.8804183" lon="14.184955"><ele>336.0</ele><time>2026-04-15T15:40:23.306Z</time></trkpt><trkpt lat="40.8804967" lon="14.184925"><ele>335.6666666666667</ele><time>2026-04-15T15:40:24.306Z</time></trkpt><trkpt lat="40.8805733" lon="14.18489"><ele>335.33333333333337</ele><time>2026-04-15T15:40:25.308Z</time></trkpt><trkpt lat="40.8806417" lon="14.1848467"><ele>335.0</ele><time>2026-04-15T15:40:26.308Z</time></trkpt><trkpt lat="40.88071" lon="14.1848067"><ele>334.99999999999994</ele><time>2026-04-15T15:40:27.307Z</time></trkpt><trkpt lat="40.8807783" lon="14.184785"><ele>335.0</ele><time>2026-04-15T15:40:28.306Z</time></trkpt><trkpt lat="40.88085" lon="14.1847783"><ele>335.0</ele><time>2026-04-15T15:40:29.307Z</time></trkpt><trkpt lat="40.8809167" lon="14.1848"><ele>335.0</ele><time>2026-04-15T15:40:30.307Z</time></trkpt><trkpt lat="40.8809833" lon="14.18484"><ele>335.0</ele><time>2026-04-15T15:40:31.305Z</time></trkpt><trkpt lat="40.88105" lon="14.1848767"><ele>334.99999999999994</ele><time>2026-04-15T15:40:32.306Z</time></trkpt><trkpt lat="40.8811183" lon="14.1849017"><ele>335.0</ele><time>2026-04-15T15:40:33.305Z</time></trkpt><trkpt lat="40.8811867" lon="14.1849133"><ele>334.71428571428567</ele><time>2026-04-15T15:40:34.306Z</time></trkpt><trkpt lat="40.8812583" lon="14.1849083"><ele>334.42857142857144</ele><time>2026-04-15T15:40:35.309Z</time></trkpt><trkpt lat="40.8813267" lon="14.18489"><ele>334.1428571428571</ele><time>2026-04-15T15:40:36.31Z</time></trkpt><trkpt lat="40.8813967" lon="14.1848583"><ele>333.85714285714283</ele><time>2026-04-15T15:40:37.307Z</time></trkpt><trkpt lat="40.88147" lon="14.1848267"><ele>333.57142857142856</ele><time>2026-04-15T15:40:38.307Z</time></trkpt><trkpt lat="40.8815417" lon="14.1848033"><ele>333.2857142857143</ele><time>2026-04-15T15:40:39.307Z</time></trkpt><trkpt lat="40.8816167" lon="14.1847833"><ele>333.0</ele><time>2026-04-15T15:40:40.307Z</time></trkpt><trkpt lat="40.8817617" lon="14.1847467"><ele>331.6666666666667</ele><time>2026-04-15T15:40:42.307Z</time></trkpt><trkpt lat="40.88183" lon="14.1847217"><ele>330.3333333333333</ele><time>2026-04-15T15:40:43.307Z</time></trkpt><trkpt lat="40.8818967" lon="14.1846817"><ele>329.0</ele><time>2026-04-15T15:40:44.307Z</time></trkpt><trkpt lat="40.8819583" lon="14.1846333"><ele>327.66666666666663</ele><time>2026-04-15T15:40:45.307Z</time></trkpt><trkpt lat="40.8820167" lon="14.184585"><ele>326.3333333333333</ele><time>2026-04-15T15:40:46.307Z</time></trkpt><trkpt lat="40.8821117" lon="14.1845317"><ele>325.0</ele><time>2026-04-15T15:40:48.306Z</time></trkpt><trkpt lat="40.8821967" lon="14.1845217"><ele>325.0</ele><time>2026-04-15T15:40:50.305Z</time></trkpt><trkpt lat="40.8822833" lon="14.184555"><ele>325.0</ele><time>2026-04-15T15:40:52.304Z</time></trkpt><trkpt lat="40.88238" lon="14.18466"><ele>325.0</ele><time>2026-04-15T15:40:54.304Z</time></trkpt><trkpt lat="40.882435" lon="14.1847233"><ele>325.0</ele><time>2026-04-15T15:40:55.304Z</time></trkpt><trkpt lat="40.8824967" lon="14.1847817"><ele>325.0</ele><time>2026-04-15T15:40:56.305Z</time></trkpt><trkpt lat="40.8825617" lon="14.1848367"><ele>325.0</ele><time>2026-04-15T15:40:57.304Z</time></trkpt><trkpt lat="40.882635" lon="14.1848933"><ele>324.3333333333333</ele><time>2026-04-15T15:40:58.305Z</time></trkpt><trkpt lat="40.8827117" lon="14.1849283"><ele>323.66666666666663</ele><time>2026-04-15T15:40:59.305Z</time></trkpt><trkpt lat="40.8827883" lon="14.1849583"><ele>323.0</ele><time>2026-04-15T15:41:00.305Z</time></trkpt><trkpt lat="40.8828567" lon="14.1849933"><ele>322.3333333333333</ele><time>2026-04-15T15:41:01.304Z</time></trkpt><trkpt lat="40.882925" lon="14.1850267"><ele>321.6666666666667</ele><time>2026-04-15T15:41:02.303Z</time></trkpt><trkpt lat="40.88299" lon="14.1850633"><ele>321.0</ele><time>2026-04-15T15:41:03.305Z</time></trkpt><trkpt lat="40.8830533" lon="14.1851167"><ele>321.0</ele><time>2026-04-15T15:41:04.305Z</time></trkpt><trkpt lat="40.8831117" lon="14.1851933"><ele>321.0</ele><time>2026-04-15T15:41:05.306Z</time></trkpt><trkpt lat="40.883155" lon="14.1852867"><ele>321.0</ele><time>2026-04-15T15:41:06.304Z</time></trkpt><trkpt lat="40.8831883" lon="14.1853967"><ele>321.0</ele><time>2026-04-15T15:41:07.305Z</time></trkpt><trkpt lat="40.8832117" lon="14.1855133"><ele>321.0</ele><time>2026-04-15T15:41:08.306Z</time></trkpt><trkpt lat="40.8832317" lon="14.1856317"><ele>321.0</ele><time>2026-04-15T15:41:09.305Z</time></trkpt><trkpt lat="40.8832367" lon="14.18574"><ele>321.0</ele><time>2026-04-15T15:41:10.305Z</time></trkpt><trkpt lat="40.8832417" lon="14.1858367"><ele>321.0</ele><time>2026-04-15T15:41:11.305Z</time></trkpt><trkpt lat="40.8832517" lon="14.1859217"><ele>321.0</ele><time>2026-04-15T15:41:12.305Z</time></trkpt><trkpt lat="40.883275" lon="14.186"><ele>321.0</ele><time>2026-04-15T15:41:13.306Z</time></trkpt><trkpt lat="40.883365" lon="14.1861017"><ele>321.0</ele><time>2026-04-15T15:41:15.305Z</time></trkpt><trkpt lat="40.88348" lon="14.1860683"><ele>321.0</ele><time>2026-04-15T15:41:17.305Z</time></trkpt><trkpt lat="40.883545" lon="14.1860683"><ele>320.1428571428571</ele><time>2026-04-15T15:41:18.305Z</time></trkpt><trkpt lat="40.88361" lon="14.1860867"><ele>319.2857142857143</ele><time>2026-04-15T15:41:19.306Z</time></trkpt><trkpt lat="40.8836733" lon="14.186125"><ele>318.42857142857144</ele><time>2026-04-15T15:41:20.307Z</time></trkpt><trkpt lat="40.8837383" lon="14.186155"><ele>317.57142857142856</ele><time>2026-04-15T15:41:21.305Z</time></trkpt><trkpt lat="40.883805" lon="14.1861783"><ele>316.7142857142857</ele><time>2026-04-15T15:41:22.305Z</time></trkpt><trkpt lat="40.883875" lon="14.18618"><ele>315.85714285714283</ele><time>2026-04-15T15:41:23.305Z</time></trkpt><trkpt lat="40.8839483" lon="14.186165"><ele>315.0</ele><time>2026-04-15T15:41:24.305Z</time></trkpt><trkpt lat="40.884025" lon="14.1861417"><ele>315.0</ele><time>2026-04-15T15:41:25.305Z</time></trkpt><trkpt lat="40.884105" lon="14.1861217"><ele>315.0</ele><time>2026-04-15T15:41:26.305Z</time></trkpt><trkpt lat="40.8841867" lon="14.1860917"><ele>315.0</ele><time>2026-04-15T15:41:27.305Z</time></trkpt><trkpt lat="40.8842717" lon="14.1860633"><ele>315.0</ele><time>2026-04-15T15:41:28.305Z</time></trkpt><trkpt lat="40.8843583" lon="14.18603"><ele>315.0</ele><time>2026-04-15T15:41:29.305Z</time></trkpt><trkpt lat="40.8844467" lon="14.1859917"><ele>315.0</ele><time>2026-04-15T15:41:30.306Z</time></trkpt><trkpt lat="40.88454" lon="14.1859617"><ele>313.5</ele><time>2026-04-15T15:41:31.305Z</time></trkpt><trkpt lat="40.8846317" lon="14.1859267"><ele>312.0</ele><time>2026-04-15T15:41:32.306Z</time></trkpt><trkpt lat="40.8847117" lon="14.1858933"><ele>310.5</ele><time>2026-04-15T15:41:33.305Z</time></trkpt><trkpt lat="40.8847833" lon="14.185865"><ele>309.0</ele><time>2026-04-15T15:41:34.305Z</time></trkpt><trkpt lat="40.88485" lon="14.1858433"><ele>307.5</ele><time>2026-04-15T15:41:35.306Z</time></trkpt><trkpt lat="40.8849217" lon="14.1858417"><ele>306.0</ele><time>2026-04-15T15:41:36.305Z</time></trkpt><trkpt lat="40.8849933" lon="14.1858717"><ele>306.0</ele><time>2026-04-15T15:41:37.305Z</time></trkpt><trkpt lat="40.8850483" lon="14.1859433"><ele>306.0</ele><time>2026-04-15T15:41:38.306Z</time></trkpt><trkpt lat="40.885105" lon="14.1860083"><ele>306.0</ele><time>2026-04-15T15:41:39.305Z</time></trkpt><trkpt lat="40.88517" lon="14.186055"><ele>306.0</ele><time>2026-04-15T15:41:40.305Z</time></trkpt><trkpt lat="40.88524" lon="14.1860783"><ele>306.0</ele><time>2026-04-15T15:41:41.306Z</time></trkpt><trkpt lat="40.8853133" lon="14.18607"><ele>306.0</ele><time>2026-04-15T15:41:42.304Z</time></trkpt><trkpt lat="40.8853833" lon="14.1860233"><ele>304.6666666666667</ele><time>2026-04-15T15:41:43.306Z</time></trkpt><trkpt lat="40.88545" lon="14.1859783"><ele>303.3333333333333</ele><time>2026-04-15T15:41:44.305Z</time></trkpt><trkpt lat="40.8855267" lon="14.1859183"><ele>302.0</ele><time>2026-04-15T15:41:45.305Z</time></trkpt><trkpt lat="40.8855983" lon="14.18585"><ele>300.66666666666663</ele><time>2026-04-15T15:41:46.306Z</time></trkpt><trkpt lat="40.885665" lon="14.1857917"><ele>299.3333333333333</ele><time>2026-04-15T15:41:47.304Z</time></trkpt><trkpt lat="40.8857383" lon="14.1857467"><ele>298.0</ele><time>2026-04-15T15:41:48.307Z</time></trkpt><trkpt lat="40.8858117" lon="14.185725"><ele>298.0</ele><time>2026-04-15T15:41:49.306Z</time></trkpt><trkpt lat="40.8858833" lon="14.1857267"><ele>298.0</ele><time>2026-04-15T15:41:50.305Z</time></trkpt><trkpt lat="40.88595" lon="14.1857467"><ele>298.0</ele><time>2026-04-15T15:41:51.305Z</time></trkpt><trkpt lat="40.8860083" lon="14.185805"><ele>298.0</ele><time>2026-04-15T15:41:52.304Z</time></trkpt><trkpt lat="40.8860567" lon="14.1858867"><ele>298.0</ele><time>2026-04-15T15:41:53.306Z</time></trkpt><trkpt lat="40.8861067" lon="14.18597"><ele>298.0</ele><time>2026-04-15T15:41:54.305Z</time></trkpt><trkpt lat="40.88616" lon="14.18605"><ele>296.66666666666663</ele><time>2026-04-15T15:41:55.305Z</time></trkpt><trkpt lat="40.886205" lon="14.186145"><ele>295.3333333333333</ele><time>2026-04-15T15:41:56.305Z</time></trkpt><trkpt lat="40.8862467" lon="14.1862433"><ele>294.0</ele><time>2026-04-15T15:41:57.304Z</time></trkpt><trkpt lat="40.8862817" lon="14.1863433"><ele>292.6666666666667</ele><time>2026-04-15T15:41:58.304Z</time></trkpt><trkpt lat="40.8863083" lon="14.186455"><ele>291.33333333333337</ele><time>2026-04-15T15:41:59.306Z</time></trkpt><trkpt lat="40.8863317" lon="14.18657"><ele>290.0</ele><time>2026-04-15T15:42:00.306Z</time></trkpt><trkpt lat="40.8863517" lon="14.1866767"><ele>290.0</ele><time>2026-04-15T15:42:01.306Z</time></trkpt><trkpt lat="40.8863767" lon="14.1867767"><ele>290.0</ele><time>2026-04-15T15:42:02.306Z</time></trkpt><trkpt lat="40.8864083" lon="14.1868633"><ele>290.0</ele><time>2026-04-15T15:42:03.307Z</time></trkpt><trkpt lat="40.8864417" lon="14.1869517"><ele>290.0</ele><time>2026-04-15T15:42:04.306Z</time></trkpt><trkpt lat="40.8864717" lon="14.1870417"><ele>290.0</ele><time>2026-04-15T15:42:05.306Z</time></trkpt><trkpt lat="40.886505" lon="14.18713"><ele>290.0</ele><time>2026-04-15T15:42:06.306Z</time></trkpt><trkpt lat="40.8865433" lon="14.18721"><ele>290.0</ele><time>2026-04-15T15:42:07.305Z</time></trkpt><trkpt lat="40.8865967" lon="14.187275"><ele>290.0</ele><time>2026-04-15T15:42:08.305Z</time></trkpt><trkpt lat="40.8866583" lon="14.1873167"><ele>290.0</ele><time>2026-04-15T15:42:09.306Z</time></trkpt><trkpt lat="40.8867233" lon="14.1873583"><ele>290.0</ele><time>2026-04-15T15:42:10.305Z</time></trkpt><trkpt lat="40.8867867" lon="14.18742"><ele>290.0</ele><time>2026-04-15T15:42:11.306Z</time></trkpt><trkpt lat="40.8868483" lon="14.187485"><ele>290.0</ele><time>2026-04-15T15:42:12.307Z</time></trkpt><trkpt lat="40.8869083" lon="14.1875533"><ele>290.0</ele><time>2026-04-15T15:42:13.306Z</time></trkpt><trkpt lat="40.8869667" lon="14.187625"><ele>288.6666666666667</ele><time>2026-04-15T15:42:14.306Z</time></trkpt><trkpt lat="40.8870233" lon="14.1877017"><ele>287.33333333333337</ele><time>2026-04-15T15:42:15.306Z</time></trkpt><trkpt lat="40.88708" lon="14.18777"><ele>286.0</ele><time>2026-04-15T15:42:16.305Z</time></trkpt><trkpt lat="40.8871417" lon="14.1878233"><ele>284.6666666666667</ele><time>2026-04-15T15:42:17.305Z</time></trkpt><trkpt lat="40.8872667" lon="14.1878417"><ele>283.3333333333333</ele><time>2026-04-15T15:42:19.305Z</time></trkpt><trkpt lat="40.8873267" lon="14.187805"><ele>282.0</ele><time>2026-04-15T15:42:20.304Z</time></trkpt><trkpt lat="40.8873783" lon="14.1877433"><ele>282.0</ele><time>2026-04-15T15:42:21.304Z</time></trkpt><trkpt lat="40.8874317" lon="14.1876833"><ele>282.0</ele><time>2026-04-15T15:42:22.304Z</time></trkpt><trkpt lat="40.887535" lon="14.187615"><ele>282.0</ele><time>2026-04-15T15:42:24.305Z</time></trkpt><trkpt lat="40.8876417" lon="14.1876467"><ele>282.0</ele><time>2026-04-15T15:42:26.304Z</time></trkpt><trkpt lat="40.887685" lon="14.18772"><ele>282.0</ele><time>2026-04-15T15:42:27.306Z</time></trkpt><trkpt lat="40.8877333" lon="14.1877967"><ele>282.0</ele><time>2026-04-15T15:42:28.303Z</time></trkpt><trkpt lat="40.8877717" lon="14.1878817"><ele>279.1666666666667</ele><time>2026-04-15T15:42:29.303Z</time></trkpt><trkpt lat="40.887795" lon="14.1879817"><ele>276.3333333333333</ele><time>2026-04-15T15:42:30.304Z</time></trkpt><trkpt lat="40.8878017" lon="14.1880933"><ele>273.5</ele><time>2026-04-15T15:42:31.305Z</time></trkpt><trkpt lat="40.8877983" lon="14.1882033"><ele>270.66666666666663</ele><time>2026-04-15T15:42:32.305Z</time></trkpt><trkpt lat="40.8877867" lon="14.18832"><ele>267.8333333333333</ele><time>2026-04-15T15:42:33.305Z</time></trkpt><trkpt lat="40.8877733" lon="14.1884367"><ele>265.0</ele><time>2026-04-15T15:42:34.304Z</time></trkpt><trkpt lat="40.8877633" lon="14.1885483"><ele>265.0</ele><time>2026-04-15T15:42:35.306Z</time></trkpt><trkpt lat="40.887745" lon="14.1886633"><ele>265.0</ele><time>2026-04-15T15:42:36.305Z</time></trkpt><trkpt lat="40.887735" lon="14.1887767"><ele>265.0</ele><time>2026-04-15T15:42:37.304Z</time></trkpt><trkpt lat="40.8877317" lon="14.1888883"><ele>265.0</ele><time>2026-04-15T15:42:38.305Z</time></trkpt><trkpt lat="40.8877433" lon="14.1889967"><ele>265.0</ele><time>2026-04-15T15:42:39.304Z</time></trkpt><trkpt lat="40.88777" lon="14.1891017"><ele>265.0</ele><time>2026-04-15T15:42:40.303Z</time></trkpt><trkpt lat="40.8878067" lon="14.1892033"><ele>265.0</ele><time>2026-04-15T15:42:41.304Z</time></trkpt><trkpt lat="40.8878367" lon="14.1893083"><ele>265.0</ele><time>2026-04-15T15:42:42.304Z</time></trkpt><trkpt lat="40.8878617" lon="14.189415"><ele>265.0</ele><time>2026-04-15T15:42:43.303Z</time></trkpt><trkpt lat="40.8878817" lon="14.1895167"><ele>265.0</ele><time>2026-04-15T15:42:44.305Z</time></trkpt><trkpt lat="40.8879017" lon="14.1896117"><ele>265.0</ele><time>2026-04-15T15:42:45.304Z</time></trkpt><trkpt lat="40.8879367" lon="14.1897017"><ele>265.0</ele><time>2026-04-15T15:42:46.305Z</time></trkpt><trkpt lat="40.88798" lon="14.189785"><ele>265.5</ele><time>2026-04-15T15:42:47.304Z</time></trkpt><trkpt lat="40.8880267" lon="14.18987"><ele>266.0</ele><time>2026-04-15T15:42:48.304Z</time></trkpt><trkpt lat="40.8880783" lon="14.1899483"><ele>266.5</ele><time>2026-04-15T15:42:49.304Z</time></trkpt><trkpt lat="40.8881333" lon="14.190025"><ele>267.0</ele><time>2026-04-15T15:42:50.305Z</time></trkpt><trkpt lat="40.8881917" lon="14.1901"><ele>267.5</ele><time>2026-04-15T15:42:51.303Z</time></trkpt><trkpt lat="40.88825" lon="14.1901767"><ele>268.0</ele><time>2026-04-15T15:42:52.305Z</time></trkpt><trkpt lat="40.8883133" lon="14.19025"><ele>268.0</ele><time>2026-04-15T15:42:53.303Z</time></trkpt><trkpt lat="40.88838" lon="14.1903183"><ele>268.0</ele><time>2026-04-15T15:42:54.305Z</time></trkpt><trkpt lat="40.8884517" lon="14.1903683"><ele>268.0</ele><time>2026-04-15T15:42:55.304Z</time></trkpt><trkpt lat="40.888525" lon="14.1904033"><ele>268.0</ele><time>2026-04-15T15:42:56.305Z</time></trkpt><trkpt lat="40.8885967" lon="14.1904233"><ele>268.0</ele><time>2026-04-15T15:42:57.308Z</time></trkpt><trkpt lat="40.88867" lon="14.1904433"><ele>268.0</ele><time>2026-04-15T15:42:58.308Z</time></trkpt><trkpt lat="40.8887433" lon="14.1904667"><ele>265.57142857142856</ele><time>2026-04-15T15:42:59.304Z</time></trkpt><trkpt lat="40.8888117" lon="14.1904967"><ele>263.1428571428571</ele><time>2026-04-15T15:43:00.304Z</time></trkpt><trkpt lat="40.888865" lon="14.190555"><ele>260.71428571428567</ele><time>2026-04-15T15:43:01.307Z</time></trkpt><trkpt lat="40.8889117" lon="14.190625"><ele>258.2857142857143</ele><time>2026-04-15T15:43:02.307Z</time></trkpt><trkpt lat="40.88894" lon="14.1907167"><ele>255.85714285714283</ele><time>2026-04-15T15:43:03.306Z</time></trkpt><trkpt lat="40.8889383" lon="14.19081"><ele>253.4285714285714</ele><time>2026-04-15T15:43:04.306Z</time></trkpt><trkpt lat="40.8889017" lon="14.1909083"><ele>250.99999999999997</ele><time>2026-04-15T15:43:05.307Z</time></trkpt><trkpt lat="40.8888433" lon="14.1909867"><ele>251.00000000000003</ele><time>2026-04-15T15:43:06.305Z</time></trkpt><trkpt lat="40.8887917" lon="14.1910683"><ele>251.0</ele><time>2026-04-15T15:43:07.306Z</time></trkpt><trkpt lat="40.8887333" lon="14.1911383"><ele>251.0</ele><time>2026-04-15T15:43:08.306Z</time></trkpt><trkpt lat="40.8886683" lon="14.1912033"><ele>251.0</ele><time>2026-04-15T15:43:09.306Z</time></trkpt><trkpt lat="40.8886" lon="14.1912583"><ele>251.00000000000003</ele><time>2026-04-15T15:43:10.306Z</time></trkpt><trkpt lat="40.8885283" lon="14.1913117"><ele>251.0</ele><time>2026-04-15T15:43:11.306Z</time></trkpt><trkpt lat="40.8884617" lon="14.1913717"><ele>252.83333333333334</ele><time>2026-04-15T15:43:12.306Z</time></trkpt><trkpt lat="40.888405" lon="14.1914517"><ele>254.66666666666669</ele><time>2026-04-15T15:43:13.306Z</time></trkpt><trkpt lat="40.8883717" lon="14.1915517"><ele>256.5</ele><time>2026-04-15T15:43:14.306Z</time></trkpt><trkpt lat="40.88836" lon="14.191665"><ele>258.3333333333333</ele><time>2026-04-15T15:43:15.305Z</time></trkpt><trkpt lat="40.8883567" lon="14.19178"><ele>260.16666666666663</ele><time>2026-04-15T15:43:16.305Z</time></trkpt><trkpt lat="40.8883633" lon="14.1918833"><ele>262.0</ele><time>2026-04-15T15:43:17.307Z</time></trkpt><trkpt lat="40.8883817" lon="14.1919683"><ele>258.0</ele><time>2026-04-15T15:43:18.304Z</time></trkpt><trkpt lat="40.8884333" lon="14.192105"><ele>254.0</ele><time>2026-04-15T15:43:20.305Z</time></trkpt><trkpt lat="40.88852" lon="14.1921983"><ele>250.0</ele><time>2026-04-15T15:43:22.306Z</time></trkpt><trkpt lat="40.888585" lon="14.19222"><ele>246.0</ele><time>2026-04-15T15:43:23.307Z</time></trkpt><trkpt lat="40.8886617" lon="14.1922283"><ele>242.0</ele><time>2026-04-15T15:43:24.305Z</time></trkpt><trkpt lat="40.88874" lon="14.1922283"><ele>242.00000000000003</ele><time>2026-04-15T15:43:25.306Z</time></trkpt><trkpt lat="40.88882" lon="14.1922367"><ele>242.0</ele><time>2026-04-15T15:43:26.307Z</time></trkpt><trkpt lat="40.8889" lon="14.1922517"><ele>242.0</ele><time>2026-04-15T15:43:27.306Z</time></trkpt><trkpt lat="40.88898" lon="14.1922783"><ele>242.0</ele><time>2026-04-15T15:43:28.307Z</time></trkpt><trkpt lat="40.8890633" lon="14.1923067"><ele>242.00000000000003</ele><time>2026-04-15T15:43:29.306Z</time></trkpt><trkpt lat="40.889145" lon="14.1923333"><ele>242.0</ele><time>2026-04-15T15:43:30.307Z</time></trkpt><trkpt lat="40.8892283" lon="14.19234"><ele>241.66666666666669</ele><time>2026-04-15T15:43:31.305Z</time></trkpt><trkpt lat="40.8893133" lon="14.1923333"><ele>241.33333333333334</ele><time>2026-04-15T15:43:32.307Z</time></trkpt><trkpt lat="40.8893967" lon="14.1923183"><ele>241.0</ele><time>2026-04-15T15:43:33.308Z</time></trkpt><trkpt lat="40.88948" lon="14.1923017"><ele>240.66666666666669</ele><time>2026-04-15T15:43:34.308Z</time></trkpt><trkpt lat="40.88956" lon="14.1922967"><ele>240.33333333333334</ele><time>2026-04-15T15:43:35.307Z</time></trkpt><trkpt lat="40.8896383" lon="14.1923067"><ele>240.0</ele><time>2026-04-15T15:43:36.305Z</time></trkpt><trkpt lat="40.8897117" lon="14.1923467"><ele>240.0</ele><time>2026-04-15T15:43:37.305Z</time></trkpt><trkpt lat="40.8897833" lon="14.1924067"><ele>240.0</ele><time>2026-04-15T15:43:38.305Z</time></trkpt><trkpt lat="40.8898483" lon="14.1924767"><ele>240.0</ele><time>2026-04-15T15:43:39.305Z</time></trkpt><trkpt lat="40.8899083" lon="14.1925433"><ele>240.0</ele><time>2026-04-15T15:43:40.304Z</time></trkpt><trkpt lat="40.8899567" lon="14.1926183"><ele>240.0</ele><time>2026-04-15T15:43:41.306Z</time></trkpt><trkpt lat="40.88999" lon="14.192695"><ele>240.0</ele><time>2026-04-15T15:43:42.304Z</time></trkpt><trkpt lat="40.8899833" lon="14.192855"><ele>240.0</ele><time>2026-04-15T15:43:44.304Z</time></trkpt><trkpt lat="40.8899333" lon="14.1929233"><ele>240.0</ele><time>2026-04-15T15:43:45.305Z</time></trkpt><trkpt lat="40.8898583" lon="14.1929883"><ele>240.0</ele><time>2026-04-15T15:43:46.305Z</time></trkpt><trkpt lat="40.8897917" lon="14.1930533"><ele>240.0</ele><time>2026-04-15T15:43:47.305Z</time></trkpt><trkpt lat="40.88975" lon="14.1931183"><ele>240.0</ele><time>2026-04-15T15:43:48.305Z</time></trkpt><trkpt lat="40.889715" lon="14.1932483"><ele>240.0</ele><time>2026-04-15T15:43:50.305Z</time></trkpt><trkpt lat="40.8897983" lon="14.193305"><ele>240.0</ele><time>2026-04-15T15:43:52.304Z</time></trkpt><trkpt lat="40.8898767" lon="14.1932667"><ele>240.0</ele><time>2026-04-15T15:43:53.305Z</time></trkpt><trkpt lat="40.8899483" lon="14.193225"><ele>240.0</ele><time>2026-04-15T15:43:54.308Z</time></trkpt><trkpt lat="40.890015" lon="14.19318"><ele>240.0</ele><time>2026-04-15T15:43:55.306Z</time></trkpt><trkpt lat="40.89008" lon="14.19313"><ele>240.0</ele><time>2026-04-15T15:43:56.308Z</time></trkpt><trkpt lat="40.8901367" lon="14.1930583"><ele>240.0</ele><time>2026-04-15T15:43:57.307Z</time></trkpt><trkpt lat="40.8901833" lon="14.1929717"><ele>237.66666666666666</ele><time>2026-04-15T15:43:58.308Z</time></trkpt><trkpt lat="40.8902167" lon="14.192875"><ele>235.33333333333331</ele><time>2026-04-15T15:43:59.308Z</time></trkpt><trkpt lat="40.8902483" lon="14.1927783"><ele>233.0</ele><time>2026-04-15T15:44:00.307Z</time></trkpt><trkpt lat="40.890275" lon="14.192675"><ele>230.66666666666666</ele><time>2026-04-15T15:44:01.308Z</time></trkpt><trkpt lat="40.89029" lon="14.19256"><ele>228.33333333333331</ele><time>2026-04-15T15:44:02.307Z</time></trkpt><trkpt lat="40.8903" lon="14.1924417"><ele>226.0</ele><time>2026-04-15T15:44:03.307Z</time></trkpt><trkpt lat="40.8903117" lon="14.1923233"><ele>226.0</ele><time>2026-04-15T15:44:04.305Z</time></trkpt><trkpt lat="40.8903233" lon="14.1922133"><ele>226.00000000000003</ele><time>2026-04-15T15:44:05.308Z</time></trkpt><trkpt lat="40.890335" lon="14.1921217"><ele>226.00000000000003</ele><time>2026-04-15T15:44:06.308Z</time></trkpt><trkpt lat="40.8903383" lon="14.1919767"><ele>226.0</ele><time>2026-04-15T15:44:08.308Z</time></trkpt><trkpt lat="40.8902767" lon="14.1918583"><ele>226.0</ele><time>2026-04-15T15:44:10.304Z</time></trkpt><trkpt lat="40.890175" lon="14.19183"><ele>225.99999999999997</ele><time>2026-04-15T15:44:12.306Z</time></trkpt><trkpt lat="40.8900783" lon="14.191845"><ele>226.0</ele><time>2026-04-15T15:44:14.306Z</time></trkpt><trkpt lat="40.8899883" lon="14.1918317"><ele>226.0</ele><time>2026-04-15T15:44:16.307Z</time></trkpt><trkpt lat="40.8899333" lon="14.1917467"><ele>226.0</ele><time>2026-04-15T15:44:18.305Z</time></trkpt><trkpt lat="40.8899933" lon="14.1916517"><ele>225.99999999999997</ele><time>2026-04-15T15:44:20.306Z</time></trkpt><trkpt lat="40.890045" lon="14.1916033"><ele>226.0</ele><time>2026-04-15T15:44:21.306Z</time></trkpt><trkpt lat="40.8901367" lon="14.1915633"><ele>226.0</ele><time>2026-04-15T15:44:22.305Z</time></trkpt><trkpt lat="40.890205" lon="14.1915233"><ele>226.0</ele><time>2026-04-15T15:44:23.306Z</time></trkpt><trkpt lat="40.8902783" lon="14.191485"><ele>226.0</ele><time>2026-04-15T15:44:24.305Z</time></trkpt><trkpt lat="40.8903517" lon="14.1914467"><ele>226.0</ele><time>2026-04-15T15:44:25.306Z</time></trkpt><trkpt lat="40.8904183" lon="14.191415"><ele>226.0</ele><time>2026-04-15T15:44:26.306Z</time></trkpt><trkpt lat="40.8904833" lon="14.1913833"><ele>226.0</ele><time>2026-04-15T15:44:27.305Z</time></trkpt><trkpt lat="40.89055" lon="14.19135"><ele>226.0</ele><time>2026-04-15T15:44:28.306Z</time></trkpt><trkpt lat="40.89062" lon="14.1913317"><ele>225.57142857142858</ele><time>2026-04-15T15:44:29.304Z</time></trkpt><trkpt lat="40.89069" lon="14.19132"><ele>225.14285714285714</ele><time>2026-04-15T15:44:30.305Z</time></trkpt><trkpt lat="40.8907567" lon="14.1913017"><ele>224.71428571428572</ele><time>2026-04-15T15:44:31.305Z</time></trkpt><trkpt lat="40.890825" lon="14.1912783"><ele>224.28571428571428</ele><time>2026-04-15T15:44:32.305Z</time></trkpt><trkpt lat="40.8908983" lon="14.191255"><ele>223.85714285714283</ele><time>2026-04-15T15:44:33.306Z</time></trkpt><trkpt lat="40.8909617" lon="14.19123"><ele>223.42857142857142</ele><time>2026-04-15T15:44:34.306Z</time></trkpt><trkpt lat="40.8910267" lon="14.1912"><ele>223.0</ele><time>2026-04-15T15:44:35.305Z</time></trkpt><trkpt lat="40.8910967" lon="14.1911733"><ele>222.66666666666666</ele><time>2026-04-15T15:44:36.307Z</time></trkpt><trkpt lat="40.8911583" lon="14.1911433"><ele>222.33333333333331</ele><time>2026-04-15T15:44:37.305Z</time></trkpt><trkpt lat="40.8912133" lon="14.1911017"><ele>222.0</ele><time>2026-04-15T15:44:38.305Z</time></trkpt><trkpt lat="40.8912717" lon="14.1910633"><ele>221.66666666666669</ele><time>2026-04-15T15:44:39.306Z</time></trkpt><trkpt lat="40.89139" lon="14.1910217"><ele>221.33333333333334</ele><time>2026-04-15T15:44:41.307Z</time></trkpt><trkpt lat="40.8914533" lon="14.1910433"><ele>221.0</ele><time>2026-04-15T15:44:42.306Z</time></trkpt><trkpt lat="40.89151" lon="14.19111"><ele>221.00000000000003</ele><time>2026-04-15T15:44:43.306Z</time></trkpt><trkpt lat="40.8915617" lon="14.1911783"><ele>221.0</ele><time>2026-04-15T15:44:44.307Z</time></trkpt><trkpt lat="40.891605" lon="14.191275"><ele>221.0</ele><time>2026-04-15T15:44:45.307Z</time></trkpt><trkpt lat="40.89163" lon="14.1914017"><ele>221.0</ele><time>2026-04-15T15:44:46.306Z</time></trkpt><trkpt lat="40.89167" lon="14.1915"><ele>221.00000000000003</ele><time>2026-04-15T15:44:47.306Z</time></trkpt><trkpt lat="40.8917133" lon="14.191595"><ele>221.0</ele><time>2026-04-15T15:44:48.306Z</time></trkpt><trkpt lat="40.89178" lon="14.1916583"><ele>218.20000000000002</ele><time>2026-04-15T15:44:49.305Z</time></trkpt><trkpt lat="40.8918567" lon="14.1916867"><ele>215.40000000000003</ele><time>2026-04-15T15:44:50.307Z</time></trkpt><trkpt lat="40.8919433" lon="14.19168"><ele>212.6</ele><time>2026-04-15T15:44:51.306Z</time></trkpt><trkpt lat="40.89203" lon="14.1916283"><ele>209.8</ele><time>2026-04-15T15:44:52.306Z</time></trkpt><trkpt lat="40.8921133" lon="14.1915483"><ele>207.0</ele><time>2026-04-15T15:44:53.306Z</time></trkpt><trkpt lat="40.892195" lon="14.19147"><ele>207.0</ele><time>2026-04-15T15:44:54.306Z</time></trkpt><trkpt lat="40.8922783" lon="14.1913983"><ele>207.0</ele><time>2026-04-15T15:44:55.306Z</time></trkpt><trkpt lat="40.8923533" lon="14.1913333"><ele>207.0</ele><time>2026-04-15T15:44:56.307Z</time></trkpt><trkpt lat="40.892425" lon="14.1912767"><ele>207.0</ele><time>2026-04-15T15:44:57.308Z</time></trkpt><trkpt lat="40.8924983" lon="14.1912233"><ele>207.0</ele><time>2026-04-15T15:44:58.306Z</time></trkpt><trkpt lat="40.892565" lon="14.1911633"><ele>207.0</ele><time>2026-04-15T15:44:59.306Z</time></trkpt><trkpt lat="40.8926317" lon="14.1911"><ele>205.00000000000003</ele><time>2026-04-15T15:45:00.307Z</time></trkpt><trkpt lat="40.8926967" lon="14.1910367"><ele>203.0</ele><time>2026-04-15T15:45:01.304Z</time></trkpt><trkpt lat="40.8927617" lon="14.19098"><ele>201.0</ele><time>2026-04-15T15:45:02.305Z</time></trkpt><trkpt lat="40.8928217" lon="14.1909167"><ele>199.0</ele><time>2026-04-15T15:45:03.305Z</time></trkpt><trkpt lat="40.892885" lon="14.1908633"><ele>197.0</ele><time>2026-04-15T15:45:04.308Z</time></trkpt><trkpt lat="40.8929467" lon="14.1908167"><ele>195.00000000000003</ele><time>2026-04-15T15:45:05.303Z</time></trkpt><trkpt lat="40.8929983" lon="14.1907633"><ele>193.0</ele><time>2026-04-15T15:45:06.308Z</time></trkpt><trkpt lat="40.8930367" lon="14.1906933"><ele>193.2</ele><time>2026-04-15T15:45:07.305Z</time></trkpt><trkpt lat="40.8930767" lon="14.1905283"><ele>193.4</ele><time>2026-04-15T15:45:09.305Z</time></trkpt><trkpt lat="40.8930767" lon="14.1904267"><ele>193.6</ele><time>2026-04-15T15:45:10.304Z</time></trkpt><trkpt lat="40.8930817" lon="14.190335"><ele>193.79999999999998</ele><time>2026-04-15T15:45:11.305Z</time></trkpt><trkpt lat="40.8930733" lon="14.1902517"><ele>194.0</ele><time>2026-04-15T15:45:12.305Z</time></trkpt><trkpt lat="40.8930283" lon="14.190105"><ele>194.00000000000003</ele><time>2026-04-15T15:45:14.305Z</time></trkpt><trkpt lat="40.8930117" lon="14.18997"><ele>194.0</ele><time>2026-04-15T15:45:16.305Z</time></trkpt><trkpt lat="40.8930733" lon="14.189845"><ele>194.0</ele><time>2026-04-15T15:45:18.304Z</time></trkpt><trkpt lat="40.89313" lon="14.1897983"><ele>194.0</ele><time>2026-04-15T15:45:19.304Z</time></trkpt><trkpt lat="40.8931983" lon="14.1897683"><ele>194.00000000000003</ele><time>2026-04-15T15:45:20.305Z</time></trkpt><trkpt lat="40.8932683" lon="14.1897517"><ele>194.0</ele><time>2026-04-15T15:45:21.305Z</time></trkpt><trkpt lat="40.893345" lon="14.18974"><ele>193.57142857142856</ele><time>2026-04-15T15:45:22.304Z</time></trkpt><trkpt lat="40.89341" lon="14.1897117"><ele>193.14285714285717</ele><time>2026-04-15T15:45:23.305Z</time></trkpt><trkpt lat="40.89347" lon="14.1896633"><ele>192.71428571428572</ele><time>2026-04-15T15:45:24.304Z</time></trkpt><trkpt lat="40.8935233" lon="14.1895967"><ele>192.28571428571428</ele><time>2026-04-15T15:45:25.305Z</time></trkpt><trkpt lat="40.8935567" lon="14.189515"><ele>191.85714285714283</ele><time>2026-04-15T15:45:26.305Z</time></trkpt><trkpt lat="40.8935633" lon="14.1894183"><ele>191.42857142857144</ele><time>2026-04-15T15:45:27.305Z</time></trkpt><trkpt lat="40.8935633" lon="14.189315"><ele>191.0</ele><time>2026-04-15T15:45:28.305Z</time></trkpt><trkpt lat="40.8935683" lon="14.189215"><ele>190.16666666666666</ele><time>2026-04-15T15:45:29.305Z</time></trkpt><trkpt lat="40.8935867" lon="14.189115"><ele>189.33333333333331</ele><time>2026-04-15T15:45:30.304Z</time></trkpt><trkpt lat="40.8936017" lon="14.1890083"><ele>188.5</ele><time>2026-04-15T15:45:31.306Z</time></trkpt><trkpt lat="40.8936183" lon="14.1889067"><ele>187.66666666666666</ele><time>2026-04-15T15:45:32.305Z</time></trkpt><trkpt lat="40.8936283" lon="14.1888067"><ele>186.83333333333334</ele><time>2026-04-15T15:45:33.304Z</time></trkpt><trkpt lat="40.893635" lon="14.1887133"><ele>186.0</ele><time>2026-04-15T15:45:34.304Z</time></trkpt><trkpt lat="40.8936317" lon="14.1886233"><ele>186.0</ele><time>2026-04-15T15:45:35.305Z</time></trkpt><trkpt lat="40.893625" lon="14.1885367"><ele>186.0</ele><time>2026-04-15T15:45:36.305Z</time></trkpt><trkpt lat="40.893615" lon="14.1884483"><ele>186.0</ele><time>2026-04-15T15:45:37.305Z</time></trkpt><trkpt lat="40.893595" lon="14.1883067"><ele>186.0</ele><time>2026-04-15T15:45:39.305Z</time></trkpt><trkpt lat="40.8935817" lon="14.1881917"><ele>186.0</ele><time>2026-04-15T15:45:41.305Z</time></trkpt><trkpt lat="40.8935983" lon="14.188065"><ele>186.0</ele><time>2026-04-15T15:45:43.305Z</time></trkpt><trkpt lat="40.8936467" lon="14.1880067"><ele>185.4</ele><time>2026-04-15T15:45:44.304Z</time></trkpt><trkpt lat="40.8937583" lon="14.1879467"><ele>184.8</ele><time>2026-04-15T15:45:46.304Z</time></trkpt><trkpt lat="40.89387" lon="14.1879233"><ele>184.20000000000002</ele><time>2026-04-15T15:45:48.305Z</time></trkpt><trkpt lat="40.8939633" lon="14.18796"><ele>183.60000000000002</ele><time>2026-04-15T15:45:50.305Z</time></trkpt><trkpt lat="40.8940067" lon="14.1880533"><ele>183.0</ele><time>2026-04-15T15:45:52.305Z</time></trkpt><trkpt lat="40.8940317" lon="14.1881617"><ele>183.0</ele><time>2026-04-15T15:45:55.305Z</time></trkpt><trkpt lat="40.894075" lon="14.1880917"><ele>183.0</ele><time>2026-04-15T15:46:02.304Z</time></trkpt><trkpt lat="40.894055" lon="14.188"><ele>183.0</ele><time>2026-04-15T15:46:04.305Z</time></trkpt><trkpt lat="40.89402" lon="14.1879033"><ele>183.0</ele><time>2026-04-15T15:46:06.306Z</time></trkpt><trkpt lat="40.8939467" lon="14.1878733"><ele>183.0</ele><time>2026-04-15T15:46:08.305Z</time></trkpt><trkpt lat="40.8938467" lon="14.1879033"><ele>183.0</ele><time>2026-04-15T15:46:10.305Z</time></trkpt><trkpt lat="40.89375" lon="14.18796"><ele>183.0</ele><time>2026-04-15T15:46:12.305Z</time></trkpt><trkpt lat="40.893665" lon="14.1879967"><ele>183.0</ele><time>2026-04-15T15:46:14.305Z</time></trkpt><trkpt lat="40.8935967" lon="14.188"><ele>183.0</ele><time>2026-04-15T15:46:16.306Z</time></trkpt><trkpt lat="40.893535" lon="14.187925"><ele>183.0</ele><time>2026-04-15T15:46:19.305Z</time></trkpt><trkpt lat="40.8935733" lon="14.1878333"><ele>183.0</ele><time>2026-04-15T15:46:22.305Z</time></trkpt><trkpt lat="40.8936083" lon="14.1877367"><ele>183.0</ele><time>2026-04-15T15:46:24.305Z</time></trkpt><trkpt lat="40.8936167" lon="14.187615"><ele>183.0</ele><time>2026-04-15T15:46:26.306Z</time></trkpt><trkpt lat="40.8936017" lon="14.1874883"><ele>183.0</ele><time>2026-04-15T15:46:28.304Z</time></trkpt><trkpt lat="40.8935833" lon="14.1873683"><ele>183.0</ele><time>2026-04-15T15:46:30.305Z</time></trkpt><trkpt lat="40.893565" lon="14.187255"><ele>183.0</ele><time>2026-04-15T15:46:32.304Z</time></trkpt><trkpt lat="40.8935483" lon="14.1871383"><ele>183.0</ele><time>2026-04-15T15:46:34.309Z</time></trkpt><trkpt lat="40.8935017" lon="14.1870267"><ele>183.5</ele><time>2026-04-15T15:46:36.305Z</time></trkpt><trkpt lat="40.8934233" lon="14.1869517"><ele>184.0</ele><time>2026-04-15T15:46:38.305Z</time></trkpt><trkpt lat="40.8933417" lon="14.1869183"><ele>184.5</ele><time>2026-04-15T15:46:40.305Z</time></trkpt><trkpt lat="40.89326" lon="14.1869083"><ele>185.0</ele><time>2026-04-15T15:46:42.305Z</time></trkpt><trkpt lat="40.8931817" lon="14.1869167"><ele>185.5</ele><time>2026-04-15T15:46:44.305Z</time></trkpt><trkpt lat="40.8931183" lon="14.1869233"><ele>186.0</ele><time>2026-04-15T15:46:46.304Z</time></trkpt><trkpt lat="40.8930383" lon="14.1869467"><ele>186.16666666666666</ele><time>2026-04-15T15:46:49.304Z</time></trkpt><trkpt lat="40.8929583" lon="14.1869583"><ele>186.33333333333334</ele><time>2026-04-15T15:46:52.304Z</time></trkpt><trkpt lat="40.8928717" lon="14.186975"><ele>186.5</ele><time>2026-04-15T15:46:55.304Z</time></trkpt><trkpt lat="40.892785" lon="14.1869917"><ele>186.66666666666669</ele><time>2026-04-15T15:46:58.305Z</time></trkpt><trkpt lat="40.8926917" lon="14.1869983"><ele>186.83333333333334</ele><time>2026-04-15T15:47:01.305Z</time></trkpt><trkpt lat="40.8926283" lon="14.187005"><ele>187.0</ele><time>2026-04-15T15:47:03.305Z</time></trkpt><trkpt lat="40.8925633" lon="14.1870083"><ele>187.0</ele><time>2026-04-15T15:47:05.304Z</time></trkpt><trkpt lat="40.8925033" lon="14.1869433"><ele>187.0</ele><time>2026-04-15T15:47:08.305Z</time></trkpt><trkpt lat="40.8924967" lon="14.18686"><ele>187.0</ele><time>2026-04-15T15:47:11.305Z</time></trkpt><trkpt lat="40.8925367" lon="14.1867917"><ele>187.0</ele><time>2026-04-15T15:47:15.304Z</time></trkpt><trkpt lat="40.8926" lon="14.1867783"><ele>187.0</ele><time>2026-04-15T15:47:18.306Z</time></trkpt><trkpt lat="40.89267" lon="14.1867617"><ele>187.0</ele><time>2026-04-15T15:47:22.305Z</time></trkpt><trkpt lat="40.892745" lon="14.1867433"><ele>187.0</ele><time>2026-04-15T15:47:26.305Z</time></trkpt><trkpt lat="40.8928183" lon="14.1867167"><ele>187.16666666666669</ele><time>2026-04-15T15:47:30.307Z</time></trkpt><trkpt lat="40.892905" lon="14.1866733"><ele>187.33333333333334</ele><time>2026-04-15T15:47:33.306Z</time></trkpt><trkpt lat="40.8929733" lon="14.1866383"><ele>187.5</ele><time>2026-04-15T15:47:35.305Z</time></trkpt><trkpt lat="40.8930117" lon="14.1865433"><ele>187.66666666666666</ele><time>2026-04-15T15:47:37.304Z</time></trkpt><trkpt lat="40.8930733" lon="14.18646"><ele>187.83333333333331</ele><time>2026-04-15T15:47:39.305Z</time></trkpt><trkpt lat="40.893155" lon="14.18639"><ele>188.0</ele><time>2026-04-15T15:47:41.304Z</time></trkpt><trkpt lat="40.8932433" lon="14.186335"><ele>189.33333333333331</ele><time>2026-04-15T15:47:43.305Z</time></trkpt><trkpt lat="40.8933233" lon="14.18631"><ele>190.66666666666666</ele><time>2026-04-15T15:47:45.306Z</time></trkpt><trkpt lat="40.8934033" lon="14.186285"><ele>192.0</ele><time>2026-04-15T15:47:47.305Z</time></trkpt><trkpt lat="40.8934717" lon="14.1862467"><ele>193.33333333333331</ele><time>2026-04-15T15:47:49.306Z</time></trkpt><trkpt lat="40.893525" lon="14.1862017"><ele>194.66666666666666</ele><time>2026-04-15T15:47:51.305Z</time></trkpt><trkpt lat="40.8935667" lon="14.1861"><ele>196.0</ele><time>2026-04-15T15:47:54.305Z</time></trkpt><trkpt lat="40.893555" lon="14.186015"><ele>196.0</ele><time>2026-04-15T15:47:57.305Z</time></trkpt><trkpt lat="40.8935" lon="14.1859417"><ele>196.0</ele><time>2026-04-15T15:48:01.305Z</time></trkpt><trkpt lat="40.89344" lon="14.18591"><ele>196.0</ele><time>2026-04-15T15:48:05.305Z</time></trkpt><trkpt lat="40.8933733" lon="14.185875"><ele>196.0</ele><time>2026-04-15T15:48:10.305Z</time></trkpt><trkpt lat="40.8933067" lon="14.1858583"><ele>196.0</ele><time>2026-04-15T15:48:14.305Z</time></trkpt><trkpt lat="40.89323" lon="14.1858133"><ele>196.0</ele><time>2026-04-15T15:48:18.305Z</time></trkpt><trkpt lat="40.8931617" lon="14.1857633"><ele>196.0</ele><time>2026-04-15T15:48:23.304Z</time></trkpt><trkpt lat="40.893115" lon="14.1856833"><ele>196.49999999999997</ele><time>2026-04-15T15:48:29.305Z</time></trkpt><trkpt lat="40.8931033" lon="14.1855817"><ele>197.0</ele><time>2026-04-15T15:48:33.304Z</time></trkpt><trkpt lat="40.8930833" lon="14.1854833"><ele>197.5</ele><time>2026-04-15T15:48:37.305Z</time></trkpt><trkpt lat="40.8930383" lon="14.185415"><ele>198.0</ele><time>2026-04-15T15:48:41.303Z</time></trkpt><trkpt lat="40.892985" lon="14.185335"><ele>198.49999999999997</ele><time>2026-04-15T15:48:44.305Z</time></trkpt><trkpt lat="40.892975" lon="14.1852217"><ele>199.0</ele><time>2026-04-15T15:48:47.303Z</time></trkpt><trkpt lat="40.8929483" lon="14.1851067"><ele>198.99999999999997</ele><time>2026-04-15T15:48:50.304Z</time></trkpt><trkpt lat="40.8929267" lon="14.1850267"><ele>199.0</ele><time>2026-04-15T15:48:52.303Z</time></trkpt><trkpt lat="40.89291" lon="14.1849417"><ele>199.0</ele><time>2026-04-15T15:48:54.306Z</time></trkpt><trkpt lat="40.892905" lon="14.1848567"><ele>199.0</ele><time>2026-04-15T15:48:56.305Z</time></trkpt><trkpt lat="40.8929133" lon="14.1847717"><ele>199.0</ele><time>2026-04-15T15:48:58.303Z</time></trkpt><trkpt lat="40.8929333" lon="14.1846917"><ele>198.99999999999997</ele><time>2026-04-15T15:49:00.305Z</time></trkpt><trkpt lat="40.89295" lon="14.184575"><ele>199.0</ele><time>2026-04-15T15:49:03.305Z</time></trkpt><trkpt lat="40.8929367" lon="14.184485"><ele>198.66666666666666</ele><time>2026-04-15T15:49:05.305Z</time></trkpt><trkpt lat="40.8929067" lon="14.1843667"><ele>198.33333333333331</ele><time>2026-04-15T15:49:08.304Z</time></trkpt><trkpt lat="40.8928833" lon="14.18428"><ele>198.0</ele><time>2026-04-15T15:49:10.304Z</time></trkpt><trkpt lat="40.892855" lon="14.18419"><ele>197.66666666666669</ele><time>2026-04-15T15:49:12.304Z</time></trkpt><trkpt lat="40.8928267" lon="14.184105"><ele>197.33333333333334</ele><time>2026-04-15T15:49:14.304Z</time></trkpt><trkpt lat="40.8928017" lon="14.1840133"><ele>197.0</ele><time>2026-04-15T15:49:16.303Z</time></trkpt><trkpt lat="40.8927783" lon="14.1839217"><ele>197.00000000000003</ele><time>2026-04-15T15:49:18.305Z</time></trkpt><trkpt lat="40.8927533" lon="14.1838367"><ele>197.0</ele><time>2026-04-15T15:49:20.305Z</time></trkpt><trkpt lat="40.8927283" lon="14.1837533"><ele>197.0</ele><time>2026-04-15T15:49:22.304Z</time></trkpt><trkpt lat="40.8926983" lon="14.18364"><ele>197.0</ele><time>2026-04-15T15:49:25.304Z</time></trkpt><trkpt lat="40.892665" lon="14.18352"><ele>197.00000000000003</ele><time>2026-04-15T15:49:28.303Z</time></trkpt><trkpt lat="40.89265" lon="14.1834283"><ele>197.0</ele><time>2026-04-15T15:49:30.304Z</time></trkpt><trkpt lat="40.892625" lon="14.183345"><ele>197.00000000000003</ele><time>2026-04-15T15:49:32.304Z</time></trkpt><trkpt lat="40.8925933" lon="14.1832717"><ele>197.0</ele><time>2026-04-15T15:49:34.305Z</time></trkpt><trkpt lat="40.89256" lon="14.183175"><ele>197.0</ele><time>2026-04-15T15:49:37.307Z</time></trkpt><trkpt lat="40.8925317" lon="14.1830833"><ele>197.0</ele><time>2026-04-15T15:49:40.308Z</time></trkpt><trkpt lat="40.8925117" lon="14.182985"><ele>197.00000000000003</ele><time>2026-04-15T15:49:43.305Z</time></trkpt><trkpt lat="40.8924917" lon="14.1829017"><ele>197.0</ele><time>2026-04-15T15:49:46.304Z</time></trkpt><trkpt lat="40.892465" lon="14.1827867"><ele>199.16666666666669</ele><time>2026-04-15T15:49:49.304Z</time></trkpt><trkpt lat="40.8924317" lon="14.18268"><ele>201.33333333333334</ele><time>2026-04-15T15:49:52.307Z</time></trkpt><trkpt lat="40.8923683" lon="14.1825983"><ele>203.5</ele><time>2026-04-15T15:49:55.304Z</time></trkpt><trkpt lat="40.8923083" lon="14.18254"><ele>205.66666666666669</ele><time>2026-04-15T15:49:58.304Z</time></trkpt><trkpt lat="40.8922167" lon="14.18249"><ele>207.83333333333334</ele><time>2026-04-15T15:50:03.305Z</time></trkpt><trkpt lat="40.8921483" lon="14.1824433"><ele>210.0</ele><time>2026-04-15T15:50:05.305Z</time></trkpt><trkpt lat="40.8920717" lon="14.182385"><ele>210.14285714285714</ele><time>2026-04-15T15:50:08.305Z</time></trkpt><trkpt lat="40.89201" lon="14.18234"><ele>210.28571428571428</ele><time>2026-04-15T15:50:11.305Z</time></trkpt><trkpt lat="40.8919483" lon="14.182305"><ele>210.42857142857144</ele><time>2026-04-15T15:50:14.305Z</time></trkpt><trkpt lat="40.8918783" lon="14.182285"><ele>210.57142857142856</ele><time>2026-04-15T15:50:17.304Z</time></trkpt><trkpt lat="40.8918083" lon="14.1822467"><ele>210.71428571428572</ele><time>2026-04-15T15:50:20.303Z</time></trkpt><trkpt lat="40.8917467" lon="14.182185"><ele>210.85714285714286</ele><time>2026-04-15T15:50:23.305Z</time></trkpt><trkpt lat="40.8916783" lon="14.1821367"><ele>211.0</ele><time>2026-04-15T15:50:26.305Z</time></trkpt><trkpt lat="40.89161" lon="14.1820867"><ele>212.57142857142858</ele><time>2026-04-15T15:50:29.303Z</time></trkpt><trkpt lat="40.891535" lon="14.18204"><ele>214.14285714285717</ele><time>2026-04-15T15:50:32.305Z</time></trkpt><trkpt lat="40.8914783" lon="14.1820033"><ele>215.71428571428572</ele><time>2026-04-15T15:50:35.305Z</time></trkpt><trkpt lat="40.8914117" lon="14.18195"><ele>217.28571428571428</ele><time>2026-04-15T15:50:38.305Z</time></trkpt><trkpt lat="40.8913517" lon="14.1818967"><ele>218.85714285714286</ele><time>2026-04-15T15:50:41.304Z</time></trkpt><trkpt lat="40.8912867" lon="14.1818833"><ele>220.42857142857142</ele><time>2026-04-15T15:50:43.304Z</time></trkpt><trkpt lat="40.8912067" lon="14.18184"><ele>222.0</ele><time>2026-04-15T15:50:46.305Z</time></trkpt><trkpt lat="40.8911233" lon="14.1818267"><ele>222.0</ele><time>2026-04-15T15:50:49.305Z</time></trkpt><trkpt lat="40.8910583" lon="14.1817783"><ele>222.0</ele><time>2026-04-15T15:50:52.304Z</time></trkpt><trkpt lat="40.8909917" lon="14.1817033"><ele>222.0</ele><time>2026-04-15T15:50:55.305Z</time></trkpt><trkpt lat="40.8909267" lon="14.1816183"><ele>222.0</ele><time>2026-04-15T15:50:58.304Z</time></trkpt><trkpt lat="40.8908867" lon="14.1815467"><ele>222.0</ele><time>2026-04-15T15:51:00.305Z</time></trkpt><trkpt lat="40.890855" lon="14.18147"><ele>222.0</ele><time>2026-04-15T15:51:02.305Z</time></trkpt><trkpt lat="40.8908317" lon="14.1813883"><ele>222.57142857142856</ele><time>2026-04-15T15:51:04.305Z</time></trkpt><trkpt lat="40.8907983" lon="14.1813117"><ele>223.14285714285717</ele><time>2026-04-15T15:51:06.304Z</time></trkpt><trkpt lat="40.890765" lon="14.181225"><ele>223.71428571428572</ele><time>2026-04-15T15:51:08.305Z</time></trkpt><trkpt lat="40.8907433" lon="14.1811283"><ele>224.28571428571428</ele><time>2026-04-15T15:51:10.304Z</time></trkpt><trkpt lat="40.89072" lon="14.1810317"><ele>224.85714285714283</ele><time>2026-04-15T15:51:12.305Z</time></trkpt><trkpt lat="40.8906883" lon="14.1809383"><ele>225.42857142857144</ele><time>2026-04-15T15:51:14.304Z</time></trkpt><trkpt lat="40.8906633" lon="14.1808417"><ele>226.0</ele><time>2026-04-15T15:51:16.304Z</time></trkpt><trkpt lat="40.890625" lon="14.1807583"><ele>225.83333333333331</ele><time>2026-04-15T15:51:18.305Z</time></trkpt><trkpt lat="40.89059" lon="14.1806683"><ele>225.66666666666666</ele><time>2026-04-15T15:51:20.305Z</time></trkpt><trkpt lat="40.89055" lon="14.1805833"><ele>225.5</ele><time>2026-04-15T15:51:22.304Z</time></trkpt><trkpt lat="40.8905083" lon="14.1804817"><ele>225.33333333333331</ele><time>2026-04-15T15:51:24.304Z</time></trkpt><trkpt lat="40.890465" lon="14.1803733"><ele>225.16666666666666</ele><time>2026-04-15T15:51:26.305Z</time></trkpt><trkpt lat="40.89042" lon="14.1802783"><ele>225.0</ele><time>2026-04-15T15:51:28.303Z</time></trkpt><trkpt lat="40.8903783" lon="14.1801833"><ele>225.0</ele><time>2026-04-15T15:51:30.305Z</time></trkpt><trkpt lat="40.890345" lon="14.1800633"><ele>225.0</ele><time>2026-04-15T15:51:32.306Z</time></trkpt><trkpt lat="40.89031" lon="14.1799517"><ele>225.0</ele><time>2026-04-15T15:51:34.305Z</time></trkpt><trkpt lat="40.8902783" lon="14.1798433"><ele>225.0</ele><time>2026-04-15T15:51:36.306Z</time></trkpt><trkpt lat="40.89024" lon="14.1797367"><ele>225.0</ele><time>2026-04-15T15:51:38.306Z</time></trkpt><trkpt lat="40.8902133" lon="14.179625"><ele>225.14285714285717</ele><time>2026-04-15T15:51:40.305Z</time></trkpt><trkpt lat="40.8902033" lon="14.179515"><ele>225.28571428571428</ele><time>2026-04-15T15:51:42.306Z</time></trkpt><trkpt lat="40.8901967" lon="14.17941"><ele>225.42857142857144</ele><time>2026-04-15T15:51:44.306Z</time></trkpt><trkpt lat="40.8901917" lon="14.17932"><ele>225.57142857142858</ele><time>2026-04-15T15:51:46.305Z</time></trkpt><trkpt lat="40.8901717" lon="14.1792317"><ele>225.71428571428572</ele><time>2026-04-15T15:51:49.306Z</time></trkpt><trkpt lat="40.8901183" lon="14.1791567"><ele>225.85714285714286</ele><time>2026-04-15T15:51:53.305Z</time></trkpt><trkpt lat="40.8901083" lon="14.1790667"><ele>226.0</ele><time>2026-04-15T15:51:56.306Z</time></trkpt><trkpt lat="40.8900867" lon="14.1789633"><ele>225.99999999999997</ele><time>2026-04-15T15:52:00.306Z</time></trkpt><trkpt lat="40.8901" lon="14.1790583"><ele>226.0</ele><time>2026-04-15T15:52:06.306Z</time></trkpt><trkpt lat="40.8901633" lon="14.1790717"><ele>226.0</ele><time>2026-04-15T15:52:11.305Z</time></trkpt><trkpt lat="40.8902367" lon="14.17908"><ele>226.0</ele><time>2026-04-15T15:52:13.306Z</time></trkpt><trkpt lat="40.8903367" lon="14.1791"><ele>225.99999999999997</ele><time>2026-04-15T15:52:15.306Z</time></trkpt><trkpt lat="40.8904433" lon="14.17912"><ele>226.0</ele><time>2026-04-15T15:52:17.305Z</time></trkpt><trkpt lat="40.8905483" lon="14.1791417"><ele>225.99999999999997</ele><time>2026-04-15T15:52:19.306Z</time></trkpt><trkpt lat="40.890665" lon="14.1792017"><ele>226.0</ele><time>2026-04-15T15:52:21.306Z</time></trkpt><trkpt lat="40.8907233" lon="14.17925"><ele>226.0</ele><time>2026-04-15T15:52:22.306Z</time></trkpt><trkpt lat="40.8907833" lon="14.1793017"><ele>226.0</ele><time>2026-04-15T15:52:23.306Z</time></trkpt><trkpt lat="40.890845" lon="14.1793583"><ele>225.99999999999997</ele><time>2026-04-15T15:52:24.305Z</time></trkpt><trkpt lat="40.8909067" lon="14.1794183"><ele>226.0</ele><time>2026-04-15T15:52:25.306Z</time></trkpt><trkpt lat="40.8909667" lon="14.179475"><ele>225.0</ele><time>2026-04-15T15:52:26.306Z</time></trkpt><trkpt lat="40.89102" lon="14.1795217"><ele>224.0</ele><time>2026-04-15T15:52:27.306Z</time></trkpt><trkpt lat="40.8910767" lon="14.1795683"><ele>223.0</ele><time>2026-04-15T15:52:28.305Z</time></trkpt><trkpt lat="40.8911367" lon="14.1796233"><ele>222.0</ele><time>2026-04-15T15:52:29.306Z</time></trkpt><trkpt lat="40.891195" lon="14.1796817"><ele>221.0</ele><time>2026-04-15T15:52:30.307Z</time></trkpt><trkpt lat="40.89125" lon="14.1797333"><ele>220.0</ele><time>2026-04-15T15:52:31.305Z</time></trkpt><trkpt lat="40.8913033" lon="14.1797833"><ele>219.0</ele><time>2026-04-15T15:52:32.307Z</time></trkpt><trkpt lat="40.89136" lon="14.1798383"><ele>218.71428571428572</ele><time>2026-04-15T15:52:33.306Z</time></trkpt><trkpt lat="40.89142" lon="14.1798967"><ele>218.42857142857142</ele><time>2026-04-15T15:52:34.306Z</time></trkpt><trkpt lat="40.89148" lon="14.1799517"><ele>218.14285714285714</ele><time>2026-04-15T15:52:35.306Z</time></trkpt><trkpt lat="40.89154" lon="14.1800033"><ele>217.85714285714286</ele><time>2026-04-15T15:52:36.306Z</time></trkpt><trkpt lat="40.8915983" lon="14.1800567"><ele>217.57142857142856</ele><time>2026-04-15T15:52:37.307Z</time></trkpt><trkpt lat="40.8916583" lon="14.1801117"><ele>217.28571428571428</ele><time>2026-04-15T15:52:38.306Z</time></trkpt><trkpt lat="40.89172" lon="14.1801667"><ele>217.0</ele><time>2026-04-15T15:52:39.307Z</time></trkpt><trkpt lat="40.8917867" lon="14.180225"><ele>215.16666666666666</ele><time>2026-04-15T15:52:40.307Z</time></trkpt><trkpt lat="40.8918583" lon="14.180275"><ele>213.33333333333331</ele><time>2026-04-15T15:52:41.308Z</time></trkpt><trkpt lat="40.8919317" lon="14.1803283"><ele>211.5</ele><time>2026-04-15T15:52:42.306Z</time></trkpt><trkpt lat="40.8920033" lon="14.1803933"><ele>209.66666666666669</ele><time>2026-04-15T15:52:43.307Z</time></trkpt><trkpt lat="40.892075" lon="14.18046"><ele>207.83333333333334</ele><time>2026-04-15T15:52:44.306Z</time></trkpt><trkpt lat="40.8921417" lon="14.180525"><ele>206.0</ele><time>2026-04-15T15:52:45.306Z</time></trkpt><trkpt lat="40.8922133" lon="14.1805817"><ele>206.00000000000003</ele><time>2026-04-15T15:52:46.306Z</time></trkpt><trkpt lat="40.892285" lon="14.1806383"><ele>206.0</ele><time>2026-04-15T15:52:47.305Z</time></trkpt><trkpt lat="40.8923633" lon="14.1806967"><ele>206.0</ele><time>2026-04-15T15:52:48.306Z</time></trkpt><trkpt lat="40.8924367" lon="14.1807467"><ele>206.0</ele><time>2026-04-15T15:52:49.306Z</time></trkpt><trkpt lat="40.8925233" lon="14.180795"><ele>206.00000000000003</ele><time>2026-04-15T15:52:50.305Z</time></trkpt><trkpt lat="40.89261" lon="14.18085"><ele>206.0</ele><time>2026-04-15T15:52:51.306Z</time></trkpt><trkpt lat="40.892705" lon="14.1808983"><ele>204.83333333333334</ele><time>2026-04-15T15:52:52.306Z</time></trkpt><trkpt lat="40.89279" lon="14.1809433"><ele>203.66666666666669</ele><time>2026-04-15T15:52:53.306Z</time></trkpt><trkpt lat="40.8928683" lon="14.1809883"><ele>202.5</ele><time>2026-04-15T15:52:54.306Z</time></trkpt><trkpt lat="40.892945" lon="14.1810267"><ele>201.33333333333331</ele><time>2026-04-15T15:52:55.306Z</time></trkpt><trkpt lat="40.893025" lon="14.18106"><ele>200.16666666666666</ele><time>2026-04-15T15:52:56.306Z</time></trkpt><trkpt lat="40.8931" lon="14.1810883"><ele>199.0</ele><time>2026-04-15T15:52:57.307Z</time></trkpt><trkpt lat="40.893175" lon="14.1811233"><ele>198.99999999999997</ele><time>2026-04-15T15:52:58.306Z</time></trkpt><trkpt lat="40.8932433" lon="14.1811467"><ele>199.0</ele><time>2026-04-15T15:52:59.306Z</time></trkpt><trkpt lat="40.89331" lon="14.1811633"><ele>199.0</ele><time>2026-04-15T15:53:00.306Z</time></trkpt><trkpt lat="40.893385" lon="14.18118"><ele>199.0</ele><time>2026-04-15T15:53:01.306Z</time></trkpt><trkpt lat="40.8934633" lon="14.181195"><ele>199.0</ele><time>2026-04-15T15:53:02.306Z</time></trkpt><trkpt lat="40.8935417" lon="14.181205"><ele>198.99999999999997</ele><time>2026-04-15T15:53:03.305Z</time></trkpt><trkpt lat="40.893615" lon="14.1812117"><ele>199.0</ele><time>2026-04-15T15:53:04.306Z</time></trkpt><trkpt lat="40.8936883" lon="14.1812183"><ele>197.33333333333331</ele><time>2026-04-15T15:53:05.306Z</time></trkpt><trkpt lat="40.8937617" lon="14.181225"><ele>195.66666666666666</ele><time>2026-04-15T15:53:06.305Z</time></trkpt><trkpt lat="40.893835" lon="14.1812317"><ele>194.0</ele><time>2026-04-15T15:53:07.306Z</time></trkpt><trkpt lat="40.8939083" lon="14.1812433"><ele>192.33333333333331</ele><time>2026-04-15T15:53:08.306Z</time></trkpt><trkpt lat="40.8939883" lon="14.1812533"><ele>190.66666666666666</ele><time>2026-04-15T15:53:09.307Z</time></trkpt><trkpt lat="40.894065" lon="14.1812683"><ele>189.0</ele><time>2026-04-15T15:53:10.308Z</time></trkpt><trkpt lat="40.8941433" lon="14.1812783"><ele>189.0</ele><time>2026-04-15T15:53:11.304Z</time></trkpt><trkpt lat="40.89422" lon="14.1812917"><ele>189.0</ele><time>2026-04-15T15:53:12.304Z</time></trkpt><trkpt lat="40.894295" lon="14.1813033"><ele>189.0</ele><time>2026-04-15T15:53:13.305Z</time></trkpt><trkpt lat="40.8943717" lon="14.18131"><ele>189.0</ele><time>2026-04-15T15:53:14.305Z</time></trkpt><trkpt lat="40.89445" lon="14.18132"><ele>189.0</ele><time>2026-04-15T15:53:15.304Z</time></trkpt><trkpt lat="40.8945267" lon="14.18133"><ele>189.0</ele><time>2026-04-15T15:53:16.304Z</time></trkpt><trkpt lat="40.8946" lon="14.1813367"><ele>187.16666666666666</ele><time>2026-04-15T15:53:17.305Z</time></trkpt><trkpt lat="40.89467" lon="14.18135"><ele>185.33333333333334</ele><time>2026-04-15T15:53:18.305Z</time></trkpt><trkpt lat="40.894735" lon="14.1813633"><ele>183.5</ele><time>2026-04-15T15:53:19.305Z</time></trkpt><trkpt lat="40.8948" lon="14.1813783"><ele>181.66666666666669</ele><time>2026-04-15T15:53:20.305Z</time></trkpt><trkpt lat="40.8949117" lon="14.1814"><ele>179.83333333333334</ele><time>2026-04-15T15:53:22.305Z</time></trkpt><trkpt lat="40.8950033" lon="14.1814183"><ele>178.0</ele><time>2026-04-15T15:53:24.304Z</time></trkpt><trkpt lat="40.8951067" lon="14.18144"><ele>177.66666666666669</ele><time>2026-04-15T15:53:26.304Z</time></trkpt><trkpt lat="40.89517" lon="14.1814533"><ele>177.33333333333334</ele><time>2026-04-15T15:53:27.304Z</time></trkpt><trkpt lat="40.89529" lon="14.1814667"><ele>177.0</ele><time>2026-04-15T15:53:29.305Z</time></trkpt><trkpt lat="40.8953717" lon="14.18147"><ele>176.66666666666666</ele><time>2026-04-15T15:53:31.309Z</time></trkpt><trkpt lat="40.8954333" lon="14.1814217"><ele>176.33333333333331</ele><time>2026-04-15T15:53:33.305Z</time></trkpt><trkpt lat="40.8954767" lon="14.18133"><ele>176.0</ele><time>2026-04-15T15:53:35.308Z</time></trkpt><trkpt lat="40.8954867" lon="14.1811967"><ele>176.0</ele><time>2026-04-15T15:53:37.305Z</time></trkpt><trkpt lat="40.8954667" lon="14.181065"><ele>176.0</ele><time>2026-04-15T15:53:39.305Z</time></trkpt><trkpt lat="40.8954167" lon="14.18094"><ele>176.0</ele><time>2026-04-15T15:53:41.305Z</time></trkpt><trkpt lat="40.8953533" lon="14.1808233"><ele>176.0</ele><time>2026-04-15T15:53:43.304Z</time></trkpt><trkpt lat="40.8952867" lon="14.180705"><ele>176.0</ele><time>2026-04-15T15:53:45.306Z</time></trkpt><trkpt lat="40.8952117" lon="14.1805817"><ele>176.4</ele><time>2026-04-15T15:53:47.305Z</time></trkpt><trkpt lat="40.8951467" lon="14.180475"><ele>176.8</ele><time>2026-04-15T15:53:49.305Z</time></trkpt><trkpt lat="40.8950667" lon="14.180375"><ele>177.20000000000002</ele><time>2026-04-15T15:53:51.306Z</time></trkpt><trkpt lat="40.8949917" lon="14.1802667"><ele>177.60000000000002</ele><time>2026-04-15T15:53:53.305Z</time></trkpt><trkpt lat="40.8949117" lon="14.1801633"><ele>178.0</ele><time>2026-04-15T15:53:55.306Z</time></trkpt><trkpt lat="40.894835" lon="14.1800567"><ele>178.33333333333334</ele><time>2026-04-15T15:53:57.306Z</time></trkpt><trkpt lat="40.894775" lon="14.1799483"><ele>178.66666666666669</ele><time>2026-04-15T15:53:59.305Z</time></trkpt><trkpt lat="40.8947217" lon="14.1798467"><ele>179.0</ele><time>2026-04-15T15:54:01.305Z</time></trkpt><trkpt lat="40.8946733" lon="14.1797583"><ele>179.33333333333334</ele><time>2026-04-15T15:54:03.305Z</time></trkpt><trkpt lat="40.8946383" lon="14.1796883"><ele>179.66666666666666</ele><time>2026-04-15T15:54:05.304Z</time></trkpt><trkpt lat="40.8945917" lon="14.1796"><ele>180.0</ele><time>2026-04-15T15:54:08.306Z</time></trkpt><trkpt lat="40.894555" lon="14.17949"><ele>180.42857142857142</ele><time>2026-04-15T15:54:11.305Z</time></trkpt><trkpt lat="40.894535" lon="14.1794083"><ele>180.85714285714286</ele><time>2026-04-15T15:54:13.305Z</time></trkpt><trkpt lat="40.894515" lon="14.1793233"><ele>181.28571428571428</ele><time>2026-04-15T15:54:15.306Z</time></trkpt><trkpt lat="40.894495" lon="14.1792233"><ele>181.71428571428572</ele><time>2026-04-15T15:54:17.306Z</time></trkpt><trkpt lat="40.8944717" lon="14.1791217"><ele>182.14285714285717</ele><time>2026-04-15T15:54:19.304Z</time></trkpt><trkpt lat="40.89445" lon="14.1790333"><ele>182.57142857142858</ele><time>2026-04-15T15:54:21.305Z</time></trkpt><trkpt lat="40.8944317" lon="14.1789417"><ele>183.0</ele><time>2026-04-15T15:54:23.306Z</time></trkpt><trkpt lat="40.89442" lon="14.1788333"><ele>183.57142857142858</ele><time>2026-04-15T15:54:25.305Z</time></trkpt><trkpt lat="40.89441" lon="14.17874"><ele>184.14285714285717</ele><time>2026-04-15T15:54:27.304Z</time></trkpt><trkpt lat="40.8944033" lon="14.1786433"><ele>184.71428571428572</ele><time>2026-04-15T15:54:29.304Z</time></trkpt><trkpt lat="40.8944083" lon="14.1785433"><ele>185.28571428571428</ele><time>2026-04-15T15:54:31.305Z</time></trkpt><trkpt lat="40.8944083" lon="14.1784467"><ele>185.85714285714286</ele><time>2026-04-15T15:54:33.305Z</time></trkpt><trkpt lat="40.8944167" lon="14.1783633"><ele>186.42857142857142</ele><time>2026-04-15T15:54:35.305Z</time></trkpt><trkpt lat="40.8944167" lon="14.1782467"><ele>187.0</ele><time>2026-04-15T15:54:38.305Z</time></trkpt><trkpt lat="40.89442" lon="14.1781317"><ele>187.33333333333334</ele><time>2026-04-15T15:54:41.305Z</time></trkpt><trkpt lat="40.8944367" lon="14.178045"><ele>187.66666666666669</ele><time>2026-04-15T15:54:43.306Z</time></trkpt><trkpt lat="40.894465" lon="14.17793"><ele>188.0</ele><time>2026-04-15T15:54:46.305Z</time></trkpt><trkpt lat="40.8944783" lon="14.1778217"><ele>188.33333333333334</ele><time>2026-04-15T15:54:49.305Z</time></trkpt><trkpt lat="40.89444" lon="14.1777467"><ele>188.66666666666666</ele><time>2026-04-15T15:55:16.304Z</time></trkpt><trkpt lat="40.8944333" lon="14.1776617"><ele>189.0</ele><time>2026-04-15T15:55:19.308Z</time></trkpt><trkpt lat="40.89443" lon="14.17756"><ele>189.0</ele><time>2026-04-15T15:55:22.305Z</time></trkpt><trkpt lat="40.8944117" lon="14.1774433"><ele>189.0</ele><time>2026-04-15T15:55:25.304Z</time></trkpt><trkpt lat="40.8944067" lon="14.1773233"><ele>189.0</ele><time>2026-04-15T15:55:28.304Z</time></trkpt><trkpt lat="40.89441" lon="14.17724"><ele>189.0</ele><time>2026-04-15T15:55:30.305Z</time></trkpt><trkpt lat="40.894405" lon="14.17714"><ele>189.0</ele><time>2026-04-15T15:55:32.305Z</time></trkpt><trkpt lat="40.8943983" lon="14.1770567"><ele>189.0</ele><time>2026-04-15T15:55:34.305Z</time></trkpt><trkpt lat="40.89438" lon="14.176965"><ele>189.28571428571428</ele><time>2026-04-15T15:55:36.306Z</time></trkpt><trkpt lat="40.894365" lon="14.1768767"><ele>189.57142857142856</ele><time>2026-04-15T15:55:38.304Z</time></trkpt><trkpt lat="40.8943433" lon="14.176785"><ele>189.85714285714286</ele><time>2026-04-15T15:55:40.305Z</time></trkpt><trkpt lat="40.89432" lon="14.1767"><ele>190.14285714285714</ele><time>2026-04-15T15:55:42.305Z</time></trkpt><trkpt lat="40.8942933" lon="14.1766117"><ele>190.42857142857142</ele><time>2026-04-15T15:55:44.306Z</time></trkpt><trkpt lat="40.8942683" lon="14.176525"><ele>190.71428571428572</ele><time>2026-04-15T15:55:46.304Z</time></trkpt><trkpt lat="40.8942283" lon="14.176455"><ele>191.0</ele><time>2026-04-15T15:55:48.306Z</time></trkpt><trkpt lat="40.8941783" lon="14.17638"><ele>191.83333333333331</ele><time>2026-04-15T15:55:50.305Z</time></trkpt><trkpt lat="40.8941483" lon="14.1763"><ele>192.66666666666666</ele><time>2026-04-15T15:55:52.305Z</time></trkpt><trkpt lat="40.8941133" lon="14.1761967"><ele>193.5</ele><time>2026-04-15T15:55:55.306Z</time></trkpt><trkpt lat="40.8940783" lon="14.1761167"><ele>194.33333333333331</ele><time>2026-04-15T15:55:57.304Z</time></trkpt><trkpt lat="40.8940267" lon="14.1760567"><ele>195.16666666666666</ele><time>2026-04-15T15:55:59.304Z</time></trkpt><trkpt lat="40.893965" lon="14.1759817"><ele>196.0</ele><time>2026-04-15T15:56:02.304Z</time></trkpt><trkpt lat="40.8939" lon="14.1759117"><ele>195.99999999999997</ele><time>2026-04-15T15:56:05.304Z</time></trkpt><trkpt lat="40.893835" lon="14.1758567"><ele>196.0</ele><time>2026-04-15T15:56:08.305Z</time></trkpt><trkpt lat="40.8937583" lon="14.1758117"><ele>196.0</ele><time>2026-04-15T15:56:11.304Z</time></trkpt><trkpt lat="40.893675" lon="14.1757667"><ele>196.0</ele><time>2026-04-15T15:56:14.306Z</time></trkpt><trkpt lat="40.8936067" lon="14.17573"><ele>195.99999999999997</ele><time>2026-04-15T15:56:16.304Z</time></trkpt><trkpt lat="40.8935217" lon="14.175685"><ele>196.0</ele><time>2026-04-15T15:56:19.303Z</time></trkpt><trkpt lat="40.8934617" lon="14.1756583"><ele>197.0</ele><time>2026-04-15T15:56:21.304Z</time></trkpt><trkpt lat="40.893395" lon="14.1756283"><ele>198.0</ele><time>2026-04-15T15:56:23.304Z</time></trkpt><trkpt lat="40.8933267" lon="14.1755983"><ele>199.0</ele><time>2026-04-15T15:56:25.306Z</time></trkpt><trkpt lat="40.8932617" lon="14.1755667"><ele>200.0</ele><time>2026-04-15T15:56:27.305Z</time></trkpt><trkpt lat="40.8932" lon="14.175535"><ele>201.0</ele><time>2026-04-15T15:56:29.306Z</time></trkpt><trkpt lat="40.89314" lon="14.1754983"><ele>202.0</ele><time>2026-04-15T15:56:31.306Z</time></trkpt><trkpt lat="40.893075" lon="14.17546"><ele>203.0</ele><time>2026-04-15T15:56:33.307Z</time></trkpt><trkpt lat="40.8930067" lon="14.1754167"><ele>203.00000000000003</ele><time>2026-04-15T15:56:35.306Z</time></trkpt><trkpt lat="40.8929483" lon="14.1753417"><ele>203.0</ele><time>2026-04-15T15:56:37.307Z</time></trkpt><trkpt lat="40.8929083" lon="14.1752667"><ele>203.0</ele><time>2026-04-15T15:56:39.306Z</time></trkpt><trkpt lat="40.8928617" lon="14.1751767"><ele>203.0</ele><time>2026-04-15T15:56:41.306Z</time></trkpt><trkpt lat="40.8928217" lon="14.1750967"><ele>203.00000000000003</ele><time>2026-04-15T15:56:43.306Z</time></trkpt><trkpt lat="40.8927883" lon="14.175015"><ele>203.0</ele><time>2026-04-15T15:56:45.306Z</time></trkpt><trkpt lat="40.892755" lon="14.1749217"><ele>203.2</ele><time>2026-04-15T15:56:47.306Z</time></trkpt><trkpt lat="40.8927183" lon="14.1748217"><ele>203.4</ele><time>2026-04-15T15:56:49.305Z</time></trkpt><trkpt lat="40.8926933" lon="14.1747117"><ele>203.6</ele><time>2026-04-15T15:56:51.307Z</time></trkpt><trkpt lat="40.8926567" lon="14.1745933"><ele>203.79999999999998</ele><time>2026-04-15T15:56:53.306Z</time></trkpt><trkpt lat="40.8926167" lon="14.17447"><ele>204.0</ele><time>2026-04-15T15:56:55.305Z</time></trkpt><trkpt lat="40.8925633" lon="14.1743367"><ele>204.0</ele><time>2026-04-15T15:56:57.306Z</time></trkpt><trkpt lat="40.8924917" lon="14.1742017"><ele>204.0</ele><time>2026-04-15T15:56:59.306Z</time></trkpt><trkpt lat="40.8924517" lon="14.1741333"><ele>204.0</ele><time>2026-04-15T15:57:00.306Z</time></trkpt><trkpt lat="40.8924117" lon="14.1740633"><ele>204.0</ele><time>2026-04-15T15:57:01.306Z</time></trkpt><trkpt lat="40.892375" lon="14.1739917"><ele>204.0</ele><time>2026-04-15T15:57:02.307Z</time></trkpt><trkpt lat="40.8923367" lon="14.173925"><ele>204.0</ele><time>2026-04-15T15:57:03.306Z</time></trkpt><trkpt lat="40.8922967" lon="14.17386"><ele>204.0</ele><time>2026-04-15T15:57:04.305Z</time></trkpt><trkpt lat="40.8922083" lon="14.173745"><ele>203.85714285714286</ele><time>2026-04-15T15:57:06.306Z</time></trkpt><trkpt lat="40.8921517" lon="14.173705"><ele>203.71428571428572</ele><time>2026-04-15T15:57:07.306Z</time></trkpt><trkpt lat="40.8920883" lon="14.1736767"><ele>203.57142857142856</ele><time>2026-04-15T15:57:08.306Z</time></trkpt><trkpt lat="40.892025" lon="14.1736567"><ele>203.42857142857144</ele><time>2026-04-15T15:57:09.309Z</time></trkpt><trkpt lat="40.8919633" lon="14.1736383"><ele>203.28571428571428</ele><time>2026-04-15T15:57:10.307Z</time></trkpt><trkpt lat="40.8918933" lon="14.1736183"><ele>203.14285714285714</ele><time>2026-04-15T15:57:11.307Z</time></trkpt><trkpt lat="40.89182" lon="14.17359"><ele>203.0</ele><time>2026-04-15T15:57:12.306Z</time></trkpt><trkpt lat="40.8917533" lon="14.173565"><ele>203.0</ele><time>2026-04-15T15:57:13.305Z</time></trkpt><trkpt lat="40.89169" lon="14.1735417"><ele>203.0</ele><time>2026-04-15T15:57:14.307Z</time></trkpt><trkpt lat="40.8915867" lon="14.17349"><ele>203.0</ele><time>2026-04-15T15:57:16.306Z</time></trkpt><trkpt lat="40.8914833" lon="14.1734317"><ele>203.0</ele><time>2026-04-15T15:57:18.306Z</time></trkpt><trkpt lat="40.8914033" lon="14.1733583"><ele>203.0</ele><time>2026-04-15T15:57:20.307Z</time></trkpt><trkpt lat="40.8913367" lon="14.1732833"><ele>203.00000000000003</ele><time>2026-04-15T15:57:22.306Z</time></trkpt><trkpt lat="40.8912783" lon="14.173205"><ele>203.0</ele><time>2026-04-15T15:57:24.307Z</time></trkpt><trkpt lat="40.8912233" lon="14.173145"><ele>203.0</ele><time>2026-04-15T15:57:26.306Z</time></trkpt><trkpt lat="40.89116" lon="14.173105"><ele>203.0</ele><time>2026-04-15T15:57:28.306Z</time></trkpt><trkpt lat="40.8910867" lon="14.1730817"><ele>203.00000000000003</ele><time>2026-04-15T15:57:31.305Z</time></trkpt><trkpt lat="40.890995" lon="14.1730833"><ele>203.0</ele><time>2026-04-15T15:57:34.306Z</time></trkpt><trkpt lat="40.8909117" lon="14.173125"><ele>204.66666666666669</ele><time>2026-04-15T15:57:37.306Z</time></trkpt><trkpt lat="40.890835" lon="14.1731567"><ele>206.33333333333334</ele><time>2026-04-15T15:57:40.306Z</time></trkpt><trkpt lat="40.8907583" lon="14.1732233"><ele>208.0</ele><time>2026-04-15T15:57:43.306Z</time></trkpt><trkpt lat="40.8907033" lon="14.173275"><ele>209.66666666666669</ele><time>2026-04-15T15:57:45.306Z</time></trkpt><trkpt lat="40.890635" lon="14.17336"><ele>211.33333333333334</ele><time>2026-04-15T15:57:48.306Z</time></trkpt><trkpt lat="40.890595" lon="14.173425"><ele>213.0</ele><time>2026-04-15T15:57:50.307Z</time></trkpt><trkpt lat="40.8905417" lon="14.1734983"><ele>212.99999999999997</ele><time>2026-04-15T15:57:53.307Z</time></trkpt><trkpt lat="40.8905067" lon="14.1735717"><ele>213.0</ele><time>2026-04-15T15:57:56.306Z</time></trkpt><trkpt lat="40.8904667" lon="14.1736417"><ele>213.0</ele><time>2026-04-15T15:57:59.306Z</time></trkpt><trkpt lat="40.890435" lon="14.1737233"><ele>213.0</ele><time>2026-04-15T15:58:02.307Z</time></trkpt><trkpt lat="40.890385" lon="14.173805"><ele>213.0</ele><time>2026-04-15T15:58:06.305Z</time></trkpt><trkpt lat="40.8903517" lon="14.1738817"><ele>212.99999999999997</ele><time>2026-04-15T15:58:10.305Z</time></trkpt><trkpt lat="40.8903" lon="14.1739683"><ele>213.0</ele><time>2026-04-15T15:58:14.305Z</time></trkpt><trkpt lat="40.8902467" lon="14.17405"><ele>213.28571428571428</ele><time>2026-04-15T15:58:18.306Z</time></trkpt><trkpt lat="40.8901983" lon="14.1741317"><ele>213.57142857142856</ele><time>2026-04-15T15:58:22.306Z</time></trkpt><trkpt lat="40.89015" lon="14.1742133"><ele>213.85714285714283</ele><time>2026-04-15T15:58:26.306Z</time></trkpt><trkpt lat="40.8901" lon="14.174265"><ele>214.14285714285714</ele><time>2026-04-15T15:58:29.307Z</time></trkpt><trkpt lat="40.890045" lon="14.1743067"><ele>214.42857142857144</ele><time>2026-04-15T15:58:31.306Z</time></trkpt><trkpt lat="40.889975" lon="14.17435"><ele>214.7142857142857</ele><time>2026-04-15T15:58:34.306Z</time></trkpt><trkpt lat="40.8899067" lon="14.1743933"><ele>215.0</ele><time>2026-04-15T15:58:38.306Z</time></trkpt><trkpt lat="40.8898483" lon="14.1744283"><ele>216.0</ele><time>2026-04-15T15:58:41.307Z</time></trkpt><trkpt lat="40.8898" lon="14.1744867"><ele>217.0</ele><time>2026-04-15T15:58:44.308Z</time></trkpt><trkpt lat="40.8897533" lon="14.174545"><ele>218.0</ele><time>2026-04-15T15:58:47.306Z</time></trkpt><trkpt lat="40.8897033" lon="14.1746"><ele>219.0</ele><time>2026-04-15T15:58:50.307Z</time></trkpt><trkpt lat="40.8896433" lon="14.1746583"><ele>220.0</ele><time>2026-04-15T15:58:54.306Z</time></trkpt><trkpt lat="40.8895683" lon="14.1746883"><ele>221.0</ele><time>2026-04-15T15:58:58.306Z</time></trkpt><trkpt lat="40.8895067" lon="14.1747383"><ele>222.0</ele><time>2026-04-15T15:59:02.306Z</time></trkpt><trkpt lat="40.8894467" lon="14.1747883"><ele>222.0</ele><time>2026-04-15T15:59:05.307Z</time></trkpt><trkpt lat="40.889375" lon="14.1748167"><ele>222.0</ele><time>2026-04-15T15:59:08.305Z</time></trkpt><trkpt lat="40.8893133" lon="14.1748367"><ele>222.0</ele><time>2026-04-15T15:59:12.307Z</time></trkpt><trkpt lat="40.8892367" lon="14.17487"><ele>222.0</ele><time>2026-04-15T15:59:16.319Z</time></trkpt><trkpt lat="40.8891617" lon="14.1748967"><ele>222.0</ele><time>2026-04-15T15:59:19.308Z</time></trkpt><trkpt lat="40.88909" lon="14.1749183"><ele>222.0</ele><time>2026-04-15T15:59:22.308Z</time></trkpt><trkpt lat="40.8890283" lon="14.1749417"><ele>222.0</ele><time>2026-04-15T15:59:25.309Z</time></trkpt><trkpt lat="40.888965" lon="14.1749633"><ele>223.42857142857142</ele><time>2026-04-15T15:59:28.307Z</time></trkpt><trkpt lat="40.8888933" lon="14.174985"><ele>224.8571428571429</ele><time>2026-04-15T15:59:31.309Z</time></trkpt><trkpt lat="40.8888283" lon="14.175005"><ele>226.2857142857143</ele><time>2026-04-15T15:59:34.31Z</time></trkpt><trkpt lat="40.88876" lon="14.17503"><ele>227.71428571428572</ele><time>2026-04-15T15:59:37.31Z</time></trkpt><trkpt lat="40.8886933" lon="14.1750533"><ele>229.14285714285717</ele><time>2026-04-15T15:59:40.31Z</time></trkpt><trkpt lat="40.8886183" lon="14.1750783"><ele>230.5714285714286</ele><time>2026-04-15T15:59:43.31Z</time></trkpt><trkpt lat="40.8885467" lon="14.1751033"><ele>232.00000000000003</ele><time>2026-04-15T15:59:46.31Z</time></trkpt><trkpt lat="40.8884783" lon="14.1751217"><ele>232.8571428571429</ele><time>2026-04-15T15:59:49.308Z</time></trkpt><trkpt lat="40.8884117" lon="14.1751383"><ele>233.71428571428572</ele><time>2026-04-15T15:59:52.308Z</time></trkpt><trkpt lat="40.8883467" lon="14.1751533"><ele>234.57142857142858</ele><time>2026-04-15T15:59:55.309Z</time></trkpt><trkpt lat="40.88828" lon="14.175175"><ele>235.42857142857144</ele><time>2026-04-15T15:59:58.308Z</time></trkpt><trkpt lat="40.88821" lon="14.175195"><ele>236.28571428571428</ele><time>2026-04-15T16:00:01.31Z</time></trkpt><trkpt lat="40.8881417" lon="14.1752183"><ele>237.14285714285714</ele><time>2026-04-15T16:00:04.308Z</time></trkpt><trkpt lat="40.8880683" lon="14.1752433"><ele>238.0</ele><time>2026-04-15T16:00:07.309Z</time></trkpt><trkpt lat="40.8879917" lon="14.17527"><ele>237.99999999999997</ele><time>2026-04-15T16:00:10.308Z</time></trkpt><trkpt lat="40.8879183" lon="14.17529"><ele>238.0</ele><time>2026-04-15T16:00:13.309Z</time></trkpt><trkpt lat="40.8878433" lon="14.17531"><ele>238.0</ele><time>2026-04-15T16:00:16.309Z</time></trkpt><trkpt lat="40.8877683" lon="14.175335"><ele>238.0</ele><time>2026-04-15T16:00:19.306Z</time></trkpt><trkpt lat="40.8877017" lon="14.17538"><ele>237.99999999999997</ele><time>2026-04-15T16:00:22.308Z</time></trkpt><trkpt lat="40.887635" lon="14.17543"><ele>238.0</ele><time>2026-04-15T16:00:25.311Z</time></trkpt><trkpt lat="40.8875667" lon="14.17549"><ele>238.28571428571428</ele><time>2026-04-15T16:00:28.309Z</time></trkpt><trkpt lat="40.8875083" lon="14.1755533"><ele>238.57142857142856</ele><time>2026-04-15T16:00:31.309Z</time></trkpt><trkpt lat="40.88746" lon="14.175635"><ele>238.85714285714286</ele><time>2026-04-15T16:00:34.309Z</time></trkpt><trkpt lat="40.8874183" lon="14.1757133"><ele>239.14285714285714</ele><time>2026-04-15T16:00:37.309Z</time></trkpt><trkpt lat="40.8873867" lon="14.17579"><ele>239.42857142857142</ele><time>2026-04-15T16:00:40.306Z</time></trkpt><trkpt lat="40.8873733" lon="14.1758783"><ele>239.71428571428572</ele><time>2026-04-15T16:00:43.307Z</time></trkpt><trkpt lat="40.8873467" lon="14.17598"><ele>240.0</ele><time>2026-04-15T16:00:47.306Z</time></trkpt><trkpt lat="40.8873233" lon="14.17606"><ele>240.57142857142858</ele><time>2026-04-15T16:00:50.307Z</time></trkpt><trkpt lat="40.8873017" lon="14.1761383"><ele>241.1428571428571</ele><time>2026-04-15T16:00:53.307Z</time></trkpt><trkpt lat="40.8872683" lon="14.176235"><ele>241.7142857142857</ele><time>2026-04-15T16:00:57.307Z</time></trkpt><trkpt lat="40.88724" lon="14.17633"><ele>242.28571428571428</ele><time>2026-04-15T16:01:00.307Z</time></trkpt><trkpt lat="40.887225" lon="14.1764233"><ele>242.85714285714283</ele><time>2026-04-15T16:01:03.306Z</time></trkpt><trkpt lat="40.8872117" lon="14.1765083"><ele>243.4285714285714</ele><time>2026-04-15T16:01:06.307Z</time></trkpt><trkpt lat="40.8871967" lon="14.1766033"><ele>243.99999999999997</ele><time>2026-04-15T16:01:09.308Z</time></trkpt><trkpt lat="40.8871933" lon="14.1766917"><ele>244.83333333333331</ele><time>2026-04-15T16:01:12.306Z</time></trkpt><trkpt lat="40.8871883" lon="14.1767967"><ele>245.66666666666666</ele><time>2026-04-15T16:01:16.308Z</time></trkpt><trkpt lat="40.887165" lon="14.1768783"><ele>246.5</ele><time>2026-04-15T16:01:19.307Z</time></trkpt><trkpt lat="40.8871517" lon="14.176985"><ele>247.33333333333331</ele><time>2026-04-15T16:01:23.305Z</time></trkpt><trkpt lat="40.8871117" lon="14.1770767"><ele>248.16666666666666</ele><time>2026-04-15T16:01:27.308Z</time></trkpt><trkpt lat="40.8870633" lon="14.1771417"><ele>249.0</ele><time>2026-04-15T16:01:30.306Z</time></trkpt><trkpt lat="40.8870033" lon="14.17721"><ele>249.0</ele><time>2026-04-15T16:01:34.306Z</time></trkpt><trkpt lat="40.88696" lon="14.1772883"><ele>248.99999999999997</ele><time>2026-04-15T16:01:38.31Z</time></trkpt><trkpt lat="40.8869083" lon="14.1773417"><ele>249.0</ele><time>2026-04-15T16:01:41.309Z</time></trkpt><trkpt lat="40.8868533" lon="14.177385"><ele>249.0</ele><time>2026-04-15T16:01:44.308Z</time></trkpt><trkpt lat="40.8867967" lon="14.17745"><ele>248.99999999999997</ele><time>2026-04-15T16:01:48.307Z</time></trkpt><trkpt lat="40.88674" lon="14.1775183"><ele>249.0</ele><time>2026-04-15T16:01:52.307Z</time></trkpt><trkpt lat="40.8866767" lon="14.177565"><ele>249.0</ele><time>2026-04-15T16:01:56.306Z</time></trkpt><trkpt lat="40.8866067" lon="14.177605"><ele>250.42857142857142</ele><time>2026-04-15T16:02:00.306Z</time></trkpt><trkpt lat="40.8865467" lon="14.1776517"><ele>251.85714285714283</ele><time>2026-04-15T16:02:04.309Z</time></trkpt><trkpt lat="40.8864933" lon="14.17772"><ele>253.28571428571428</ele><time>2026-04-15T16:02:08.31Z</time></trkpt><trkpt lat="40.88643" lon="14.1777583"><ele>254.71428571428572</ele><time>2026-04-15T16:02:12.308Z</time></trkpt><trkpt lat="40.8863667" lon="14.177795"><ele>256.1428571428571</ele><time>2026-04-15T16:02:16.307Z</time></trkpt><trkpt lat="40.886305" lon="14.17783"><ele>257.57142857142856</ele><time>2026-04-15T16:02:20.307Z</time></trkpt><trkpt lat="40.886245" lon="14.1778717"><ele>259.0</ele><time>2026-04-15T16:02:25.307Z</time></trkpt><trkpt lat="40.88618" lon="14.1779033"><ele>259.0</ele><time>2026-04-15T16:02:29.308Z</time></trkpt><trkpt lat="40.8861183" lon="14.1779267"><ele>259.0</ele><time>2026-04-15T16:02:33.308Z</time></trkpt><trkpt lat="40.8860367" lon="14.1779533"><ele>259.0</ele><time>2026-04-15T16:02:37.307Z</time></trkpt><trkpt lat="40.88597" lon="14.1779883"><ele>259.0</ele><time>2026-04-15T16:02:40.306Z</time></trkpt><trkpt lat="40.8858933" lon="14.1780383"><ele>259.0</ele><time>2026-04-15T16:02:44.308Z</time></trkpt><trkpt lat="40.88584" lon="14.17809"><ele>259.0</ele><time>2026-04-15T16:02:47.306Z</time></trkpt><trkpt lat="40.8858" lon="14.1781583"><ele>259.0</ele><time>2026-04-15T16:02:50.307Z</time></trkpt><trkpt lat="40.8857583" lon="14.1782333"><ele>260.85714285714283</ele><time>2026-04-15T16:02:53.307Z</time></trkpt><trkpt lat="40.8857167" lon="14.17831"><ele>262.7142857142857</ele><time>2026-04-15T16:02:56.308Z</time></trkpt><trkpt lat="40.8856667" lon="14.1783733"><ele>264.57142857142856</ele><time>2026-04-15T16:02:59.31Z</time></trkpt><trkpt lat="40.885615" lon="14.1784233"><ele>266.42857142857144</ele><time>2026-04-15T16:03:02.308Z</time></trkpt><trkpt lat="40.885575" lon="14.178495"><ele>268.2857142857143</ele><time>2026-04-15T16:03:05.305Z</time></trkpt><trkpt lat="40.8855283" lon="14.1785633"><ele>270.1428571428571</ele><time>2026-04-15T16:03:08.308Z</time></trkpt><trkpt lat="40.885485" lon="14.178635"><ele>272.0</ele><time>2026-04-15T16:03:11.306Z</time></trkpt><trkpt lat="40.8854517" lon="14.1787133"><ele>271.99999999999994</ele><time>2026-04-15T16:03:14.307Z</time></trkpt><trkpt lat="40.8854067" lon="14.1788117"><ele>272.0</ele><time>2026-04-15T16:03:18.309Z</time></trkpt><trkpt lat="40.88536" lon="14.1788867"><ele>272.0</ele><time>2026-04-15T16:03:21.308Z</time></trkpt><trkpt lat="40.885335" lon="14.178965"><ele>272.0</ele><time>2026-04-15T16:03:24.307Z</time></trkpt><trkpt lat="40.88529" lon="14.1790533"><ele>272.0</ele><time>2026-04-15T16:03:28.306Z</time></trkpt><trkpt lat="40.8852483" lon="14.179125"><ele>271.99999999999994</ele><time>2026-04-15T16:03:31.305Z</time></trkpt><trkpt lat="40.8852" lon="14.1791833"><ele>272.0</ele><time>2026-04-15T16:03:34.307Z</time></trkpt><trkpt lat="40.885155" lon="14.1792683"><ele>271.99999999999994</ele><time>2026-04-15T16:03:38.308Z</time></trkpt><trkpt lat="40.885105" lon="14.1793417"><ele>272.0</ele><time>2026-04-15T16:03:42.306Z</time></trkpt><trkpt lat="40.885055" lon="14.179425"><ele>272.0</ele><time>2026-04-15T16:03:46.308Z</time></trkpt><trkpt lat="40.8850083" lon="14.1795033"><ele>272.0</ele><time>2026-04-15T16:03:50.307Z</time></trkpt><trkpt lat="40.8849667" lon="14.1795833"><ele>272.0</ele><time>2026-04-15T16:03:54.308Z</time></trkpt><trkpt lat="40.88493" lon="14.1796633"><ele>271.99999999999994</ele><time>2026-04-15T16:03:58.306Z</time></trkpt><trkpt lat="40.88488" lon="14.1797283"><ele>272.0</ele><time>2026-04-15T16:04:02.309Z</time></trkpt><trkpt lat="40.884835" lon="14.179795"><ele>273.71428571428567</ele><time>2026-04-15T16:04:06.307Z</time></trkpt><trkpt lat="40.8847733" lon="14.1798617"><ele>275.42857142857144</ele><time>2026-04-15T16:04:11.308Z</time></trkpt><trkpt lat="40.8847083" lon="14.1799117"><ele>277.1428571428571</ele><time>2026-04-15T16:04:15.307Z</time></trkpt><trkpt lat="40.884635" lon="14.1799567"><ele>278.85714285714283</ele><time>2026-04-15T16:04:19.304Z</time></trkpt><trkpt lat="40.8845783" lon="14.1800049"><ele>280.57142857142856</ele><time>2026-04-15T16:04:23.353Z</time></trkpt><trkpt lat="40.8845027" lon="14.1800045"><ele>282.2857142857143</ele><time>2026-04-15T16:04:28.319Z</time></trkpt><trkpt lat="40.8844412" lon="14.1800367"><ele>284.0</ele><time>2026-04-15T16:04:32.363Z</time></trkpt><trkpt lat="40.8843683" lon="14.1800683"><ele>284.0</ele><time>2026-04-15T16:04:36.307Z</time></trkpt><trkpt lat="40.884295" lon="14.18012"><ele>284.0</ele><time>2026-04-15T16:04:40.307Z</time></trkpt><trkpt lat="40.8842283" lon="14.1801683"><ele>284.0</ele><time>2026-04-15T16:04:44.308Z</time></trkpt><trkpt lat="40.8841633" lon="14.18022"><ele>284.0</ele><time>2026-04-15T16:04:48.307Z</time></trkpt><trkpt lat="40.8841" lon="14.18026"><ele>284.0</ele><time>2026-04-15T16:04:51.308Z</time></trkpt><trkpt lat="40.8840367" lon="14.180305"><ele>284.0</ele><time>2026-04-15T16:04:54.308Z</time></trkpt><trkpt lat="40.883975" lon="14.1803317"><ele>284.0</ele><time>2026-04-15T16:04:57.307Z</time></trkpt><trkpt lat="40.883905" lon="14.1803583"><ele>285.6666666666667</ele><time>2026-04-15T16:05:00.307Z</time></trkpt><trkpt lat="40.883845" lon="14.1803883"><ele>287.33333333333337</ele><time>2026-04-15T16:05:03.306Z</time></trkpt><trkpt lat="40.883775" lon="14.18044"><ele>289.0</ele><time>2026-04-15T16:05:07.306Z</time></trkpt><trkpt lat="40.8837017" lon="14.1804917"><ele>290.6666666666667</ele><time>2026-04-15T16:05:11.309Z</time></trkpt><trkpt lat="40.88363" lon="14.18054"><ele>292.3333333333333</ele><time>2026-04-15T16:05:15.308Z</time></trkpt><trkpt lat="40.8835617" lon="14.1805917"><ele>294.0</ele><time>2026-04-15T16:05:19.308Z</time></trkpt><trkpt lat="40.8835033" lon="14.1806233"><ele>294.0</ele><time>2026-04-15T16:05:23.308Z</time></trkpt><trkpt lat="40.8834383" lon="14.1806667"><ele>294.0</ele><time>2026-04-15T16:05:27.306Z</time></trkpt><trkpt lat="40.88337" lon="14.18071"><ele>294.0</ele><time>2026-04-15T16:05:31.311Z</time></trkpt><trkpt lat="40.88331" lon="14.180755"><ele>294.0</ele><time>2026-04-15T16:05:35.307Z</time></trkpt><trkpt lat="40.8832517" lon="14.1807983"><ele>294.0</ele><time>2026-04-15T16:05:39.31Z</time></trkpt><trkpt lat="40.8831917" lon="14.18083"><ele>294.0</ele><time>2026-04-15T16:05:43.31Z</time></trkpt><trkpt lat="40.8831333" lon="14.1808633"><ele>294.0</ele><time>2026-04-15T16:05:47.307Z</time></trkpt><trkpt lat="40.88306" lon="14.1808967"><ele>295.85714285714283</ele><time>2026-04-15T16:05:52.308Z</time></trkpt><trkpt lat="40.8829933" lon="14.18093"><ele>297.7142857142857</ele><time>2026-04-15T16:05:56.31Z</time></trkpt><trkpt lat="40.88293" lon="14.1809617"><ele>299.57142857142856</ele><time>2026-04-15T16:06:00.308Z</time></trkpt><trkpt lat="40.8828583" lon="14.1809833"><ele>301.42857142857144</ele><time>2026-04-15T16:06:04.309Z</time></trkpt><trkpt lat="40.8828017" lon="14.1810217"><ele>303.2857142857143</ele><time>2026-04-15T16:06:08.308Z</time></trkpt><trkpt lat="40.8827333" lon="14.1810567"><ele>305.1428571428571</ele><time>2026-04-15T16:06:13.309Z</time></trkpt><trkpt lat="40.882665" lon="14.1811083"><ele>307.0</ele><time>2026-04-15T16:06:18.31Z</time></trkpt><trkpt lat="40.88261" lon="14.1811583"><ele>308.2857142857143</ele><time>2026-04-15T16:06:22.309Z</time></trkpt><trkpt lat="40.88255" lon="14.1812117"><ele>309.57142857142856</ele><time>2026-04-15T16:06:27.31Z</time></trkpt><trkpt lat="40.8825" lon="14.1812667"><ele>310.8571428571429</ele><time>2026-04-15T16:06:31.307Z</time></trkpt><trkpt lat="40.8824533" lon="14.1813267"><ele>312.1428571428571</ele><time>2026-04-15T16:06:35.31Z</time></trkpt><trkpt lat="40.8824133" lon="14.1813917"><ele>313.42857142857144</ele><time>2026-04-15T16:06:39.309Z</time></trkpt><trkpt lat="40.882375" lon="14.18148"><ele>314.7142857142857</ele><time>2026-04-15T16:06:44.307Z</time></trkpt><trkpt lat="40.88233" lon="14.1815633"><ele>316.0</ele><time>2026-04-15T16:06:49.31Z</time></trkpt><trkpt lat="40.8822817" lon="14.1816267"><ele>316.3333333333333</ele><time>2026-04-15T16:06:53.308Z</time></trkpt><trkpt lat="40.88223" lon="14.1817033"><ele>316.66666666666663</ele><time>2026-04-15T16:06:57.309Z</time></trkpt><trkpt lat="40.8821767" lon="14.181785"><ele>317.0</ele><time>2026-04-15T16:07:01.309Z</time></trkpt><trkpt lat="40.8821233" lon="14.1818633"><ele>317.3333333333333</ele><time>2026-04-15T16:07:05.308Z</time></trkpt><trkpt lat="40.8820617" lon="14.181895"><ele>317.6666666666667</ele><time>2026-04-15T16:07:08.308Z</time></trkpt><trkpt lat="40.88199" lon="14.1819267"><ele>318.0</ele><time>2026-04-15T16:07:11.309Z</time></trkpt><trkpt lat="40.88192" lon="14.181945"><ele>318.0</ele><time>2026-04-15T16:07:14.307Z</time></trkpt><trkpt lat="40.8818483" lon="14.181965"><ele>318.0</ele><time>2026-04-15T16:07:17.309Z</time></trkpt><trkpt lat="40.8817867" lon="14.181985"><ele>318.0</ele><time>2026-04-15T16:07:20.309Z</time></trkpt><trkpt lat="40.8817067" lon="14.18201"><ele>318.0</ele><time>2026-04-15T16:07:24.306Z</time></trkpt><trkpt lat="40.88164" lon="14.1820317"><ele>318.0</ele><time>2026-04-15T16:07:27.31Z</time></trkpt><trkpt lat="40.8815733" lon="14.1820733"><ele>318.0</ele><time>2026-04-15T16:07:30.31Z</time></trkpt><trkpt lat="40.881495" lon="14.18213"><ele>318.8333333333333</ele><time>2026-04-15T16:07:33.309Z</time></trkpt><trkpt lat="40.8814233" lon="14.182205"><ele>319.6666666666667</ele><time>2026-04-15T16:07:36.307Z</time></trkpt><trkpt lat="40.8813633" lon="14.1822933"><ele>320.5</ele><time>2026-04-15T16:07:39.309Z</time></trkpt><trkpt lat="40.8813117" lon="14.1823867"><ele>321.33333333333337</ele><time>2026-04-15T16:07:42.307Z</time></trkpt><trkpt lat="40.88126" lon="14.1824633"><ele>322.1666666666667</ele><time>2026-04-15T16:07:45.307Z</time></trkpt><trkpt lat="40.8812117" lon="14.182535"><ele>323.0</ele><time>2026-04-15T16:07:48.307Z</time></trkpt><trkpt lat="40.881165" lon="14.1826267"><ele>323.28571428571433</ele><time>2026-04-15T16:07:52.305Z</time></trkpt><trkpt lat="40.881105" lon="14.18268"><ele>323.57142857142856</ele><time>2026-04-15T16:07:55.308Z</time></trkpt><trkpt lat="40.8810367" lon="14.1827183"><ele>323.8571428571429</ele><time>2026-04-15T16:07:58.307Z</time></trkpt><trkpt lat="40.8809517" lon="14.1827267"><ele>324.14285714285717</ele><time>2026-04-15T16:08:02.309Z</time></trkpt><trkpt lat="40.880885" lon="14.1827283"><ele>324.42857142857144</ele><time>2026-04-15T16:08:05.31Z</time></trkpt><trkpt lat="40.8808217" lon="14.1827583"><ele>324.7142857142857</ele><time>2026-04-15T16:08:08.309Z</time></trkpt><trkpt lat="40.88076" lon="14.18282"><ele>325.0</ele><time>2026-04-15T16:08:11.306Z</time></trkpt><trkpt lat="40.8806933" lon="14.1828833"><ele>326.3333333333333</ele><time>2026-04-15T16:08:14.307Z</time></trkpt><trkpt lat="40.8806233" lon="14.1829667"><ele>327.66666666666663</ele><time>2026-04-15T16:08:17.306Z</time></trkpt><trkpt lat="40.880555" lon="14.1830283"><ele>329.0</ele><time>2026-04-15T16:08:20.307Z</time></trkpt><trkpt lat="40.8804833" lon="14.1830883"><ele>330.3333333333333</ele><time>2026-04-15T16:08:23.307Z</time></trkpt><trkpt lat="40.8804167" lon="14.1831367"><ele>331.6666666666667</ele><time>2026-04-15T16:08:25.305Z</time></trkpt><trkpt lat="40.880355" lon="14.1832017"><ele>333.0</ele><time>2026-04-15T16:08:27.308Z</time></trkpt><trkpt lat="40.88031" lon="14.1833033"><ele>333.0</ele><time>2026-04-15T16:08:29.307Z</time></trkpt><trkpt lat="40.8802983" lon="14.1834033"><ele>333.0</ele><time>2026-04-15T16:08:31.307Z</time></trkpt><trkpt lat="40.8802967" lon="14.1835083"><ele>333.0</ele><time>2026-04-15T16:08:33.306Z</time></trkpt><trkpt lat="40.880295" lon="14.1836117"><ele>333.0</ele><time>2026-04-15T16:08:35.309Z</time></trkpt><trkpt lat="40.880305" lon="14.1837167"><ele>333.0</ele><time>2026-04-15T16:08:37.307Z</time></trkpt><trkpt lat="40.8803317" lon="14.18381"><ele>333.0</ele><time>2026-04-15T16:08:39.305Z</time></trkpt><trkpt lat="40.8803617" lon="14.1839067"><ele>333.4</ele><time>2026-04-15T16:08:41.306Z</time></trkpt><trkpt lat="40.88039" lon="14.18402"><ele>333.79999999999995</ele><time>2026-04-15T16:08:43.307Z</time></trkpt><trkpt lat="40.8804133" lon="14.1841367"><ele>334.2</ele><time>2026-04-15T16:08:45.306Z</time></trkpt><trkpt lat="40.8804333" lon="14.1842533"><ele>334.6</ele><time>2026-04-15T16:08:47.306Z</time></trkpt><trkpt lat="40.88046" lon="14.184365"><ele>335.0</ele><time>2026-04-15T16:08:49.307Z</time></trkpt><trkpt lat="40.8804867" lon="14.1844783"><ele>335.0</ele><time>2026-04-15T16:08:51.308Z</time></trkpt><trkpt lat="40.8805067" lon="14.1846"><ele>335.0</ele><time>2026-04-15T16:08:53.307Z</time></trkpt><trkpt lat="40.88052" lon="14.1847167"><ele>335.0</ele><time>2026-04-15T16:08:55.307Z</time></trkpt><trkpt lat="40.88052" lon="14.18482"><ele>335.0</ele><time>2026-04-15T16:08:57.308Z</time></trkpt><trkpt lat="40.8804783" lon="14.1848917"><ele>335.0</ele><time>2026-04-15T16:08:59.308Z</time></trkpt><trkpt lat="40.88041" lon="14.1849267"><ele>335.0</ele><time>2026-04-15T16:09:01.306Z</time></trkpt><trkpt lat="40.880335" lon="14.184945"><ele>335.0</ele><time>2026-04-15T16:09:03.308Z</time></trkpt><trkpt lat="40.88026" lon="14.1849583"><ele>335.0</ele><time>2026-04-15T16:09:05.307Z</time></trkpt><trkpt lat="40.8801833" lon="14.1849683"><ele>335.0</ele><time>2026-04-15T16:09:07.307Z</time></trkpt><trkpt lat="40.880105" lon="14.1849767"><ele>335.0</ele><time>2026-04-15T16:09:09.307Z</time></trkpt><trkpt lat="40.880025" lon="14.1849983"><ele>335.0</ele><time>2026-04-15T16:09:11.307Z</time></trkpt><trkpt lat="40.8799333" lon="14.1850267"><ele>335.0</ele><time>2026-04-15T16:09:13.307Z</time></trkpt><trkpt lat="40.8798433" lon="14.18506"><ele>335.4</ele><time>2026-04-15T16:09:15.309Z</time></trkpt><trkpt lat="40.879755" lon="14.1850967"><ele>335.8</ele><time>2026-04-15T16:09:17.308Z</time></trkpt><trkpt lat="40.8796717" lon="14.1851183"><ele>336.20000000000005</ele><time>2026-04-15T16:09:19.307Z</time></trkpt><trkpt lat="40.8795817" lon="14.185145"><ele>336.6</ele><time>2026-04-15T16:09:21.306Z</time></trkpt><trkpt lat="40.8794867" lon="14.1851667"><ele>337.0</ele><time>2026-04-15T16:09:23.309Z</time></trkpt><trkpt lat="40.8794033" lon="14.1851967"><ele>337.00000000000006</ele><time>2026-04-15T16:09:25.306Z</time></trkpt><trkpt lat="40.879325" lon="14.1852133"><ele>337.0</ele><time>2026-04-15T16:09:27.308Z</time></trkpt><trkpt lat="40.8792483" lon="14.18521"><ele>337.0</ele><time>2026-04-15T16:09:29.305Z</time></trkpt><trkpt lat="40.87918" lon="14.1851867"><ele>337.0</ele><time>2026-04-15T16:09:31.308Z</time></trkpt><trkpt lat="40.879105" lon="14.1851617"><ele>337.0</ele><time>2026-04-15T16:09:33.307Z</time></trkpt><trkpt lat="40.8790367" lon="14.18513"><ele>337.00000000000006</ele><time>2026-04-15T16:09:35.308Z</time></trkpt><trkpt lat="40.8789733" lon="14.1851183"><ele>337.0</ele><time>2026-04-15T16:09:37.306Z</time></trkpt><trkpt lat="40.87889" lon="14.185115"><ele>337.66666666666663</ele><time>2026-04-15T16:09:40.308Z</time></trkpt><trkpt lat="40.8788167" lon="14.1851317"><ele>338.3333333333333</ele><time>2026-04-15T16:09:43.307Z</time></trkpt><trkpt lat="40.878735" lon="14.1851283"><ele>339.0</ele><time>2026-04-15T16:09:46.309Z</time></trkpt><trkpt lat="40.87867" lon="14.18513"><ele>339.6666666666667</ele><time>2026-04-15T16:09:48.306Z</time></trkpt><trkpt lat="40.878595" lon="14.185135"><ele>340.33333333333337</ele><time>2026-04-15T16:09:50.308Z</time></trkpt><trkpt lat="40.8785167" lon="14.1851383"><ele>341.0</ele><time>2026-04-15T16:09:52.305Z</time></trkpt><trkpt lat="40.8784367" lon="14.18515"><ele>341.6666666666667</ele><time>2026-04-15T16:09:54.31Z</time></trkpt><trkpt lat="40.8783617" lon="14.1851567"><ele>342.33333333333337</ele><time>2026-04-15T16:09:56.309Z</time></trkpt><trkpt lat="40.878285" lon="14.185165"><ele>343.0</ele><time>2026-04-15T16:09:58.307Z</time></trkpt><trkpt lat="40.87821" lon="14.1851733"><ele>343.6666666666667</ele><time>2026-04-15T16:10:00.307Z</time></trkpt><trkpt lat="40.8781267" lon="14.1851733"><ele>344.3333333333333</ele><time>2026-04-15T16:10:02.308Z</time></trkpt><trkpt lat="40.8780467" lon="14.18517"><ele>345.0</ele><time>2026-04-15T16:10:04.304Z</time></trkpt><trkpt lat="40.8779733" lon="14.1851733"><ele>345.0</ele><time>2026-04-15T16:10:06.309Z</time></trkpt><trkpt lat="40.8779" lon="14.1851833"><ele>345.0</ele><time>2026-04-15T16:10:08.308Z</time></trkpt><trkpt lat="40.87783" lon="14.1851917"><ele>345.0</ele><time>2026-04-15T16:10:10.308Z</time></trkpt><trkpt lat="40.8777617" lon="14.1851917"><ele>345.0</ele><time>2026-04-15T16:10:12.31Z</time></trkpt><trkpt lat="40.8776967" lon="14.1852033"><ele>345.0</ele><time>2026-04-15T16:10:14.31Z</time></trkpt><trkpt lat="40.8776333" lon="14.1852017"><ele>345.0</ele><time>2026-04-15T16:10:16.308Z</time></trkpt><trkpt lat="40.8775683" lon="14.1852067"><ele>345.0</ele><time>2026-04-15T16:10:18.309Z</time></trkpt><trkpt lat="40.8775017" lon="14.18522"><ele>345.42857142857144</ele><time>2026-04-15T16:10:20.308Z</time></trkpt><trkpt lat="40.8774333" lon="14.18524"><ele>345.85714285714283</ele><time>2026-04-15T16:10:22.307Z</time></trkpt><trkpt lat="40.8773617" lon="14.1852617"><ele>346.2857142857143</ele><time>2026-04-15T16:10:24.309Z</time></trkpt><trkpt lat="40.8772967" lon="14.185285"><ele>346.7142857142857</ele><time>2026-04-15T16:10:26.309Z</time></trkpt><trkpt lat="40.8772317" lon="14.1853233"><ele>347.14285714285717</ele><time>2026-04-15T16:10:28.306Z</time></trkpt><trkpt lat="40.8771683" lon="14.1853767"><ele>347.57142857142856</ele><time>2026-04-15T16:10:30.31Z</time></trkpt><trkpt lat="40.87711" lon="14.1854267"><ele>348.0</ele><time>2026-04-15T16:10:32.308Z</time></trkpt><trkpt lat="40.877055" lon="14.18548"><ele>348.0</ele><time>2026-04-15T16:10:34.307Z</time></trkpt><trkpt lat="40.8769967" lon="14.18553"><ele>348.0</ele><time>2026-04-15T16:10:36.307Z</time></trkpt><trkpt lat="40.876935" lon="14.1855667"><ele>348.0</ele><time>2026-04-15T16:10:38.31Z</time></trkpt><trkpt lat="40.87687" lon="14.185605"><ele>348.0</ele><time>2026-04-15T16:10:40.308Z</time></trkpt><trkpt lat="40.8768083" lon="14.1856333"><ele>348.0</ele><time>2026-04-15T16:10:42.307Z</time></trkpt><trkpt lat="40.8767133" lon="14.18565"><ele>348.0</ele><time>2026-04-15T16:10:45.31Z</time></trkpt><trkpt lat="40.8766483" lon="14.185645"><ele>348.0</ele><time>2026-04-15T16:10:47.307Z</time></trkpt><trkpt lat="40.876585" lon="14.1856333"><ele>348.1666666666667</ele><time>2026-04-15T16:10:49.308Z</time></trkpt><trkpt lat="40.8765183" lon="14.18561"><ele>348.3333333333333</ele><time>2026-04-15T16:10:53.308Z</time></trkpt><trkpt lat="40.8764433" lon="14.185625"><ele>348.5</ele><time>2026-04-15T16:11:31.307Z</time></trkpt><trkpt lat="40.876375" lon="14.1856383"><ele>348.66666666666663</ele><time>2026-04-15T16:11:35.308Z</time></trkpt><trkpt lat="40.87628" lon="14.18569"><ele>348.8333333333333</ele><time>2026-04-15T16:11:38.308Z</time></trkpt><trkpt lat="40.8762083" lon="14.1857267"><ele>349.0</ele><time>2026-04-15T16:11:40.309Z</time></trkpt><trkpt lat="40.876135" lon="14.1857617"><ele>349.0</ele><time>2026-04-15T16:11:42.308Z</time></trkpt><trkpt lat="40.87606" lon="14.185805"><ele>349.0</ele><time>2026-04-15T16:11:44.31Z</time></trkpt><trkpt lat="40.8759883" lon="14.1858667"><ele>349.0</ele><time>2026-04-15T16:11:46.307Z</time></trkpt><trkpt lat="40.87591" lon="14.1859217"><ele>349.0</ele><time>2026-04-15T16:11:48.309Z</time></trkpt><trkpt lat="40.87583" lon="14.1859833"><ele>349.0</ele><time>2026-04-15T16:11:50.308Z</time></trkpt><trkpt lat="40.8757583" lon="14.1860533"><ele>349.0</ele><time>2026-04-15T16:11:52.306Z</time></trkpt><trkpt lat="40.8756867" lon="14.1861333"><ele>349.0</ele><time>2026-04-15T16:11:54.308Z</time></trkpt><trkpt lat="40.8756133" lon="14.186215"><ele>349.0</ele><time>2026-04-15T16:11:56.308Z</time></trkpt><trkpt lat="40.8755317" lon="14.186275"><ele>349.0</ele><time>2026-04-15T16:11:58.307Z</time></trkpt><trkpt lat="40.8754483" lon="14.186335"><ele>349.0</ele><time>2026-04-15T16:12:00.31Z</time></trkpt><trkpt lat="40.8753683" lon="14.1864033"><ele>349.0</ele><time>2026-04-15T16:12:02.309Z</time></trkpt><trkpt lat="40.8752883" lon="14.1864767"><ele>348.8333333333333</ele><time>2026-04-15T16:12:04.31Z</time></trkpt><trkpt lat="40.8752067" lon="14.186535"><ele>348.66666666666663</ele><time>2026-04-15T16:12:06.309Z</time></trkpt><trkpt lat="40.8751333" lon="14.186575"><ele>348.5</ele><time>2026-04-15T16:12:08.307Z</time></trkpt><trkpt lat="40.875065" lon="14.1866067"><ele>348.3333333333333</ele><time>2026-04-15T16:12:10.309Z</time></trkpt><trkpt lat="40.874995" lon="14.1866233"><ele>348.1666666666667</ele><time>2026-04-15T16:12:12.306Z</time></trkpt><trkpt lat="40.8749083" lon="14.1866367"><ele>348.0</ele><time>2026-04-15T16:12:15.308Z</time></trkpt><trkpt lat="40.87482" lon="14.1866567"><ele>348.3333333333333</ele><time>2026-04-15T16:12:18.309Z</time></trkpt><trkpt lat="40.8747533" lon="14.1866667"><ele>348.6666666666667</ele><time>2026-04-15T16:12:20.305Z</time></trkpt><trkpt lat="40.8746633" lon="14.1866867"><ele>349.0</ele><time>2026-04-15T16:12:23.305Z</time></trkpt><trkpt lat="40.87457" lon="14.1867067"><ele>349.33333333333337</ele><time>2026-04-15T16:12:26.307Z</time></trkpt><trkpt lat="40.8744783" lon="14.18672"><ele>349.6666666666667</ele><time>2026-04-15T16:12:29.308Z</time></trkpt><trkpt lat="40.87441" lon="14.1867367"><ele>350.0</ele><time>2026-04-15T16:12:31.308Z</time></trkpt><trkpt lat="40.8743217" lon="14.1867433"><ele>351.1666666666667</ele><time>2026-04-15T16:12:34.309Z</time></trkpt><trkpt lat="40.874235" lon="14.1867533"><ele>352.33333333333337</ele><time>2026-04-15T16:12:37.307Z</time></trkpt><trkpt lat="40.87415" lon="14.1867783"><ele>353.5</ele><time>2026-04-15T16:12:40.308Z</time></trkpt><trkpt lat="40.8740733" lon="14.1867917"><ele>354.6666666666667</ele><time>2026-04-15T16:12:43.308Z</time></trkpt><trkpt lat="40.8740067" lon="14.1868083"><ele>355.8333333333333</ele><time>2026-04-15T16:12:46.31Z</time></trkpt><trkpt lat="40.873925" lon="14.1868317"><ele>357.0</ele><time>2026-04-15T16:12:49.307Z</time></trkpt><trkpt lat="40.873845" lon="14.186865"><ele>357.0</ele><time>2026-04-15T16:12:52.307Z</time></trkpt><trkpt lat="40.87377" lon="14.186895"><ele>357.0</ele><time>2026-04-15T16:12:55.31Z</time></trkpt><trkpt lat="40.8736983" lon="14.18692"><ele>357.0</ele><time>2026-04-15T16:12:58.306Z</time></trkpt><trkpt lat="40.8736117" lon="14.186945"><ele>357.0</ele><time>2026-04-15T16:13:01.31Z</time></trkpt><trkpt lat="40.8735283" lon="14.18697"><ele>357.0</ele><time>2026-04-15T16:13:04.308Z</time></trkpt><trkpt lat="40.873455" lon="14.1869833"><ele>357.0</ele><time>2026-04-15T16:13:07.309Z</time></trkpt><trkpt lat="40.8733867" lon="14.1870067"><ele>358.0</ele><time>2026-04-15T16:13:10.306Z</time></trkpt><trkpt lat="40.87332" lon="14.18704"><ele>359.0</ele><time>2026-04-15T16:13:13.308Z</time></trkpt><trkpt lat="40.8732483" lon="14.1870667"><ele>360.0</ele><time>2026-04-15T16:13:16.309Z</time></trkpt><trkpt lat="40.8731767" lon="14.18709"><ele>361.0</ele><time>2026-04-15T16:13:19.307Z</time></trkpt><trkpt lat="40.8731067" lon="14.1871067"><ele>362.0</ele><time>2026-04-15T16:13:22.308Z</time></trkpt><trkpt lat="40.8730333" lon="14.187125"><ele>363.0</ele><time>2026-04-15T16:13:25.309Z</time></trkpt><trkpt lat="40.8729667" lon="14.1871433"><ele>364.0</ele><time>2026-04-15T16:13:28.308Z</time></trkpt><trkpt lat="40.8728967" lon="14.187165"><ele>364.0</ele><time>2026-04-15T16:13:31.308Z</time></trkpt><trkpt lat="40.8728317" lon="14.1871833"><ele>364.0</ele><time>2026-04-15T16:13:34.307Z</time></trkpt><trkpt lat="40.8727683" lon="14.1871933"><ele>364.0</ele><time>2026-04-15T16:13:37.307Z</time></trkpt><trkpt lat="40.872695" lon="14.1872233"><ele>364.0</ele><time>2026-04-15T16:13:41.308Z</time></trkpt><trkpt lat="40.8726317" lon="14.1872417"><ele>364.0</ele><time>2026-04-15T16:13:44.311Z</time></trkpt><trkpt lat="40.8725633" lon="14.1872767"><ele>364.0</ele><time>2026-04-15T16:13:47.308Z</time></trkpt><trkpt lat="40.8724933" lon="14.1872933"><ele>364.0</ele><time>2026-04-15T16:13:50.308Z</time></trkpt><trkpt lat="40.87242" lon="14.1873183"><ele>365.2857142857143</ele><time>2026-04-15T16:13:53.311Z</time></trkpt><trkpt lat="40.8723433" lon="14.187345"><ele>366.57142857142856</ele><time>2026-04-15T16:13:56.308Z</time></trkpt><trkpt lat="40.8722667" lon="14.187365"><ele>367.8571428571429</ele><time>2026-04-15T16:13:59.309Z</time></trkpt><trkpt lat="40.8721883" lon="14.1873867"><ele>369.1428571428571</ele><time>2026-04-15T16:14:02.307Z</time></trkpt><trkpt lat="40.8721233" lon="14.18741"><ele>370.42857142857144</ele><time>2026-04-15T16:14:05.31Z</time></trkpt><trkpt lat="40.8720633" lon="14.1874433"><ele>371.7142857142857</ele><time>2026-04-15T16:14:08.311Z</time></trkpt><trkpt lat="40.8719917" lon="14.18748"><ele>373.0</ele><time>2026-04-15T16:14:12.31Z</time></trkpt><trkpt lat="40.87192" lon="14.1875067"><ele>373.0</ele><time>2026-04-15T16:14:15.311Z</time></trkpt><trkpt lat="40.8718467" lon="14.18752"><ele>373.0</ele><time>2026-04-15T16:14:18.307Z</time></trkpt><trkpt lat="40.8717717" lon="14.187555"><ele>373.0</ele><time>2026-04-15T16:14:22.307Z</time></trkpt><trkpt lat="40.87169" lon="14.1876217"><ele>373.0</ele><time>2026-04-15T16:14:26.31Z</time></trkpt><trkpt lat="40.8716133" lon="14.1876533"><ele>373.0</ele><time>2026-04-15T16:14:30.305Z</time></trkpt><trkpt lat="40.8715333" lon="14.187705"><ele>373.0</ele><time>2026-04-15T16:14:33.305Z</time></trkpt><trkpt lat="40.8714583" lon="14.187735"><ele>373.2857142857143</ele><time>2026-04-15T16:14:36.305Z</time></trkpt><trkpt lat="40.871375" lon="14.1877567"><ele>373.57142857142856</ele><time>2026-04-15T16:14:39.306Z</time></trkpt><trkpt lat="40.8713133" lon="14.187795"><ele>373.8571428571429</ele><time>2026-04-15T16:14:42.307Z</time></trkpt><trkpt lat="40.87127" lon="14.1878567"><ele>374.1428571428571</ele><time>2026-04-15T16:14:45.308Z</time></trkpt><trkpt lat="40.8712033" lon="14.1879017"><ele>374.4285714285714</ele><time>2026-04-15T16:14:48.31Z</time></trkpt><trkpt lat="40.8711433" lon="14.1879467"><ele>374.7142857142857</ele><time>2026-04-15T16:14:51.308Z</time></trkpt><trkpt lat="40.8710867" lon="14.1879967"><ele>375.0</ele><time>2026-04-15T16:14:54.309Z</time></trkpt><trkpt lat="40.8710283" lon="14.1880433"><ele>375.0</ele><time>2026-04-15T16:14:57.308Z</time></trkpt><trkpt lat="40.8709767" lon="14.1881133"><ele>375.0</ele><time>2026-04-15T16:15:00.307Z</time></trkpt><trkpt lat="40.87092" lon="14.1881667"><ele>375.0</ele><time>2026-04-15T16:15:03.307Z</time></trkpt><trkpt lat="40.87086" lon="14.1882183"><ele>375.0</ele><time>2026-04-15T16:15:06.308Z</time></trkpt><trkpt lat="40.87081" lon="14.1882817"><ele>375.0</ele><time>2026-04-15T16:15:09.308Z</time></trkpt><trkpt lat="40.87075" lon="14.1883283"><ele>375.0</ele><time>2026-04-15T16:15:12.309Z</time></trkpt><trkpt lat="40.8706917" lon="14.18825"><ele>375.0</ele><time>2026-04-15T16:15:17.308Z</time></trkpt><trkpt lat="40.870665" lon="14.188165"><ele>375.7142857142857</ele><time>2026-04-15T16:15:20.306Z</time></trkpt><trkpt lat="40.8706467" lon="14.1880833"><ele>376.4285714285714</ele><time>2026-04-15T16:15:23.308Z</time></trkpt><trkpt lat="40.8706233" lon="14.1879983"><ele>377.1428571428571</ele><time>2026-04-15T16:15:26.307Z</time></trkpt><trkpt lat="40.8706033" lon="14.187895"><ele>377.8571428571429</ele><time>2026-04-15T16:15:29.307Z</time></trkpt><trkpt lat="40.87059" lon="14.18778"><ele>378.57142857142856</ele><time>2026-04-15T16:15:32.307Z</time></trkpt><trkpt lat="40.870585" lon="14.187695"><ele>379.2857142857143</ele><time>2026-04-15T16:15:34.309Z</time></trkpt><trkpt lat="40.8705817" lon="14.1876083"><ele>380.0</ele><time>2026-04-15T16:15:36.31Z</time></trkpt><trkpt lat="40.8705867" lon="14.18751"><ele>380.0</ele><time>2026-04-15T16:15:38.307Z</time></trkpt><trkpt lat="40.8705883" lon="14.1874233"><ele>380.0</ele><time>2026-04-15T16:15:40.31Z</time></trkpt><trkpt lat="40.8705883" lon="14.187335"><ele>380.0</ele><time>2026-04-15T16:15:42.31Z</time></trkpt><trkpt lat="40.87059" lon="14.18725"><ele>380.0</ele><time>2026-04-15T16:15:44.311Z</time></trkpt><trkpt lat="40.8705917" lon="14.1871667"><ele>380.0</ele><time>2026-04-15T16:15:46.31Z</time></trkpt><trkpt lat="40.8706133" lon="14.1870633"><ele>380.0</ele><time>2026-04-15T16:15:49.306Z</time></trkpt><trkpt lat="40.870625" lon="14.1869667"><ele>380.0</ele><time>2026-04-15T16:17:34.303Z</time></trkpt><trkpt lat="40.870595" lon="14.1868517"><ele>380.0</ele><time>2026-04-15T16:17:37.304Z</time></trkpt><trkpt lat="40.870595" lon="14.18673"><ele>380.0</ele><time>2026-04-15T16:17:39.304Z</time></trkpt><trkpt lat="40.8705917" lon="14.1866117"><ele>380.0</ele><time>2026-04-15T16:17:41.304Z</time></trkpt><trkpt lat="40.8705933" lon="14.1864583"><ele>380.0</ele><time>2026-04-15T16:17:43.304Z</time></trkpt><trkpt lat="40.8705867" lon="14.186375"><ele>380.0</ele><time>2026-04-15T16:17:44.305Z</time></trkpt><trkpt lat="40.8705883" lon="14.186215"><ele>380.0</ele><time>2026-04-15T16:17:46.305Z</time></trkpt><trkpt lat="40.8705817" lon="14.1861283"><ele>380.0</ele><time>2026-04-15T16:17:47.305Z</time></trkpt><trkpt lat="40.8705733" lon="14.1860383"><ele>380.0</ele><time>2026-04-15T16:17:48.305Z</time></trkpt><trkpt lat="40.870565" lon="14.1859483"><ele>380.0</ele><time>2026-04-15T16:17:49.304Z</time></trkpt><trkpt lat="40.8705417" lon="14.1858417"><ele>380.0</ele><time>2026-04-15T16:17:51.304Z</time></trkpt><trkpt lat="40.8705283" lon="14.185685"><ele>380.0</ele><time>2026-04-15T16:17:53.304Z</time></trkpt><trkpt lat="40.8705317" lon="14.185535"><ele>379.2</ele><time>2026-04-15T16:17:55.305Z</time></trkpt><trkpt lat="40.8705483" lon="14.1854533"><ele>378.4</ele><time>2026-04-15T16:17:56.306Z</time></trkpt><trkpt lat="40.8706033" lon="14.1852817"><ele>377.6</ele><time>2026-04-15T16:17:58.304Z</time></trkpt><trkpt lat="40.8706633" lon="14.1851883"><ele>376.8</ele><time>2026-04-15T16:17:59.305Z</time></trkpt><trkpt lat="40.8707217" lon="14.1850967"><ele>376.0</ele><time>2026-04-15T16:18:00.307Z</time></trkpt><trkpt lat="40.870785" lon="14.1850067"><ele>376.0</ele><time>2026-04-15T16:18:01.305Z</time></trkpt><trkpt lat="40.8708567" lon="14.184925"><ele>376.0</ele><time>2026-04-15T16:18:02.305Z</time></trkpt><trkpt lat="40.87091" lon="14.1848583"><ele>376.0</ele><time>2026-04-15T16:18:03.305Z</time></trkpt><trkpt lat="40.8709883" lon="14.1847633"><ele>376.0</ele><time>2026-04-15T16:18:04.305Z</time></trkpt><trkpt lat="40.87106" lon="14.1846983"><ele>376.0</ele><time>2026-04-15T16:18:05.305Z</time></trkpt><trkpt lat="40.8711183" lon="14.1846283"><ele>376.0</ele><time>2026-04-15T16:18:06.305Z</time></trkpt><trkpt lat="40.8711883" lon="14.1845567"><ele>375.7142857142857</ele><time>2026-04-15T16:18:07.305Z</time></trkpt><trkpt lat="40.8712483" lon="14.18449"><ele>375.42857142857144</ele><time>2026-04-15T16:18:08.304Z</time></trkpt><trkpt lat="40.8713" lon="14.18443"><ele>375.1428571428571</ele><time>2026-04-15T16:18:09.304Z</time></trkpt><trkpt lat="40.87134" lon="14.1843583"><ele>374.8571428571429</ele><time>2026-04-15T16:18:10.305Z</time></trkpt><trkpt lat="40.871375" lon="14.184275"><ele>374.5714285714286</ele><time>2026-04-15T16:18:11.305Z</time></trkpt><trkpt lat="40.8713983" lon="14.1841833"><ele>374.2857142857143</ele><time>2026-04-15T16:18:12.304Z</time></trkpt><trkpt lat="40.8714267" lon="14.1840933"><ele>374.0</ele><time>2026-04-15T16:18:13.303Z</time></trkpt><trkpt lat="40.8714567" lon="14.1840033"><ele>373.5</ele><time>2026-04-15T16:18:14.304Z</time></trkpt><trkpt lat="40.8714783" lon="14.183905"><ele>373.0</ele><time>2026-04-15T16:18:15.305Z</time></trkpt><trkpt lat="40.8714917" lon="14.1838167"><ele>372.5</ele><time>2026-04-15T16:18:16.303Z</time></trkpt><trkpt lat="40.8715033" lon="14.1837217"><ele>372.0</ele><time>2026-04-15T16:18:17.304Z</time></trkpt><trkpt lat="40.8715117" lon="14.183605"><ele>371.5</ele><time>2026-04-15T16:18:18.305Z</time></trkpt><trkpt lat="40.8715217" lon="14.1835033"><ele>371.0</ele><time>2026-04-15T16:18:19.305Z</time></trkpt><trkpt lat="40.8715367" lon="14.1833983"><ele>371.0</ele><time>2026-04-15T16:18:20.304Z</time></trkpt><trkpt lat="40.87156" lon="14.183295"><ele>371.0</ele><time>2026-04-15T16:18:21.304Z</time></trkpt><trkpt lat="40.87158" lon="14.18319"><ele>371.0</ele><time>2026-04-15T16:18:22.304Z</time></trkpt><trkpt lat="40.8716133" lon="14.1830883"><ele>371.0</ele><time>2026-04-15T16:18:23.304Z</time></trkpt><trkpt lat="40.87165" lon="14.1830017"><ele>371.0</ele><time>2026-04-15T16:18:24.305Z</time></trkpt><trkpt lat="40.8716983" lon="14.18293"><ele>371.0</ele><time>2026-04-15T16:18:25.305Z</time></trkpt><trkpt lat="40.8717583" lon="14.1828317"><ele>370.0</ele><time>2026-04-15T16:18:27.305Z</time></trkpt><trkpt lat="40.8718233" lon="14.182765"><ele>369.0</ele><time>2026-04-15T16:18:30.305Z</time></trkpt><trkpt lat="40.8718983" lon="14.182715"><ele>368.0</ele><time>2026-04-15T16:18:33.305Z</time></trkpt><trkpt lat="40.8719667" lon="14.1827133"><ele>367.0</ele><time>2026-04-15T16:18:37.307Z</time></trkpt><trkpt lat="40.87204" lon="14.182715"><ele>366.0</ele><time>2026-04-15T16:18:40.307Z</time></trkpt><trkpt lat="40.8721033" lon="14.18273"><ele>365.0</ele><time>2026-04-15T16:18:42.307Z</time></trkpt><trkpt lat="40.8721733" lon="14.1827417"><ele>364.0</ele><time>2026-04-15T16:18:44.307Z</time></trkpt><trkpt lat="40.8722567" lon="14.1827967"><ele>364.0</ele><time>2026-04-15T16:18:46.307Z</time></trkpt><trkpt lat="40.872325" lon="14.18289"><ele>364.0</ele><time>2026-04-15T16:18:48.306Z</time></trkpt><trkpt lat="40.87239" lon="14.1829933"><ele>364.0</ele><time>2026-04-15T16:18:50.307Z</time></trkpt><trkpt lat="40.87247" lon="14.18303"><ele>364.0</ele><time>2026-04-15T16:18:52.305Z</time></trkpt><trkpt lat="40.87256" lon="14.1829983"><ele>364.0</ele><time>2026-04-15T16:18:54.307Z</time></trkpt><trkpt lat="40.87264" lon="14.1829517"><ele>363.79999999999995</ele><time>2026-04-15T16:18:56.307Z</time></trkpt><trkpt lat="40.8727283" lon="14.18289"><ele>363.59999999999997</ele><time>2026-04-15T16:18:58.307Z</time></trkpt><trkpt lat="40.8727967" lon="14.1827983"><ele>363.4</ele><time>2026-04-15T16:19:00.306Z</time></trkpt><trkpt lat="40.8728717" lon="14.182705"><ele>363.2</ele><time>2026-04-15T16:19:02.307Z</time></trkpt><trkpt lat="40.8729483" lon="14.182605"><ele>363.0</ele><time>2026-04-15T16:19:04.305Z</time></trkpt><trkpt lat="40.8730433" lon="14.182505"><ele>363.0</ele><time>2026-04-15T16:19:06.307Z</time></trkpt><trkpt lat="40.87313" lon="14.1823833"><ele>363.0</ele><time>2026-04-15T16:19:08.305Z</time></trkpt><trkpt lat="40.87318" lon="14.182325"><ele>363.0</ele><time>2026-04-15T16:19:09.306Z</time></trkpt><trkpt lat="40.8732233" lon="14.1822633"><ele>363.0</ele><time>2026-04-15T16:19:10.305Z</time></trkpt><trkpt lat="40.87327" lon="14.1821967"><ele>363.0</ele><time>2026-04-15T16:19:11.307Z</time></trkpt><trkpt lat="40.8733183" lon="14.182135"><ele>363.0</ele><time>2026-04-15T16:19:12.307Z</time></trkpt><trkpt lat="40.8733633" lon="14.18207"><ele>363.1666666666667</ele><time>2026-04-15T16:19:13.307Z</time></trkpt><trkpt lat="40.873405" lon="14.1819983"><ele>363.3333333333333</ele><time>2026-04-15T16:19:14.306Z</time></trkpt><trkpt lat="40.8734433" lon="14.1819217"><ele>363.5</ele><time>2026-04-15T16:19:15.307Z</time></trkpt><trkpt lat="40.873475" lon="14.1818417"><ele>363.66666666666663</ele><time>2026-04-15T16:19:16.306Z</time></trkpt><trkpt lat="40.8735067" lon="14.1817633"><ele>363.8333333333333</ele><time>2026-04-15T16:19:17.307Z</time></trkpt><trkpt lat="40.873535" lon="14.1816833"><ele>364.0</ele><time>2026-04-15T16:19:18.307Z</time></trkpt><trkpt lat="40.8735667" lon="14.1815183"><ele>364.2</ele><time>2026-04-15T16:19:20.306Z</time></trkpt><trkpt lat="40.8735867" lon="14.18136"><ele>364.4</ele><time>2026-04-15T16:19:22.306Z</time></trkpt><trkpt lat="40.8736183" lon="14.181215"><ele>364.6</ele><time>2026-04-15T16:19:24.307Z</time></trkpt><trkpt lat="40.8736683" lon="14.181085"><ele>364.8</ele><time>2026-04-15T16:19:26.306Z</time></trkpt><trkpt lat="40.8737233" lon="14.1809817"><ele>365.0</ele><time>2026-04-15T16:19:28.307Z</time></trkpt><trkpt lat="40.8737733" lon="14.18088"><ele>365.0</ele><time>2026-04-15T16:19:30.306Z</time></trkpt><trkpt lat="40.8738167" lon="14.1807883"><ele>365.0</ele><time>2026-04-15T16:19:32.307Z</time></trkpt><trkpt lat="40.87385" lon="14.1806683"><ele>365.0</ele><time>2026-04-15T16:19:35.305Z</time></trkpt><trkpt lat="40.8738833" lon="14.1805783"><ele>365.0</ele><time>2026-04-15T16:19:37.306Z</time></trkpt><trkpt lat="40.8739133" lon="14.180465"><ele>365.0</ele><time>2026-04-15T16:19:39.307Z</time></trkpt><trkpt lat="40.873945" lon="14.180325"><ele>365.28571428571433</ele><time>2026-04-15T16:19:41.307Z</time></trkpt><trkpt lat="40.8739817" lon="14.1801817"><ele>365.57142857142856</ele><time>2026-04-15T16:19:43.307Z</time></trkpt><trkpt lat="40.874" lon="14.1801"><ele>365.8571428571429</ele><time>2026-04-15T16:19:44.307Z</time></trkpt><trkpt lat="40.8740217" lon="14.1800217"><ele>366.14285714285717</ele><time>2026-04-15T16:19:45.306Z</time></trkpt><trkpt lat="40.87405" lon="14.17994"><ele>366.42857142857144</ele><time>2026-04-15T16:19:46.306Z</time></trkpt><trkpt lat="40.8740767" lon="14.1798617"><ele>366.7142857142857</ele><time>2026-04-15T16:19:47.306Z</time></trkpt><trkpt lat="40.8741133" lon="14.1797867"><ele>367.0</ele><time>2026-04-15T16:19:48.308Z</time></trkpt><trkpt lat="40.874145" lon="14.1797083"><ele>366.0</ele><time>2026-04-15T16:19:49.305Z</time></trkpt><trkpt lat="40.87417" lon="14.1796217"><ele>365.0</ele><time>2026-04-15T16:19:50.307Z</time></trkpt><trkpt lat="40.8741967" lon="14.1795317"><ele>364.0</ele><time>2026-04-15T16:19:51.307Z</time></trkpt><trkpt lat="40.8742133" lon="14.1794433"><ele>363.0</ele><time>2026-04-15T16:19:52.307Z</time></trkpt><trkpt lat="40.8742217" lon="14.179345"><ele>362.0</ele><time>2026-04-15T16:19:53.307Z</time></trkpt><trkpt lat="40.8742283" lon="14.1792317"><ele>361.0</ele><time>2026-04-15T16:19:54.307Z</time></trkpt><trkpt lat="40.874235" lon="14.1791167"><ele>360.4</ele><time>2026-04-15T16:19:55.307Z</time></trkpt><trkpt lat="40.8742417" lon="14.178995"><ele>359.8</ele><time>2026-04-15T16:19:56.307Z</time></trkpt><trkpt lat="40.8742517" lon="14.178875"><ele>359.2</ele><time>2026-04-15T16:19:57.305Z</time></trkpt><trkpt lat="40.8742583" lon="14.1787517"><ele>358.59999999999997</ele><time>2026-04-15T16:19:58.306Z</time></trkpt><trkpt lat="40.8742683" lon="14.1786333"><ele>358.0</ele><time>2026-04-15T16:19:59.306Z</time></trkpt><trkpt lat="40.8742817" lon="14.1785083"><ele>357.79999999999995</ele><time>2026-04-15T16:20:00.307Z</time></trkpt><trkpt lat="40.8742933" lon="14.1783717"><ele>357.6</ele><time>2026-04-15T16:20:01.307Z</time></trkpt><trkpt lat="40.8743167" lon="14.1782567"><ele>357.4</ele><time>2026-04-15T16:20:02.307Z</time></trkpt><trkpt lat="40.8743233" lon="14.1781333"><ele>357.20000000000005</ele><time>2026-04-15T16:20:03.307Z</time></trkpt><trkpt lat="40.87433" lon="14.1780117"><ele>357.0</ele><time>2026-04-15T16:20:04.307Z</time></trkpt><trkpt lat="40.8743333" lon="14.1778867"><ele>356.5</ele><time>2026-04-15T16:20:05.307Z</time></trkpt><trkpt lat="40.8743433" lon="14.1776833"><ele>356.0</ele><time>2026-04-15T16:20:07.307Z</time></trkpt><trkpt lat="40.8743633" lon="14.1775917"><ele>355.5</ele><time>2026-04-15T16:20:08.307Z</time></trkpt><trkpt lat="40.8743983" lon="14.1775183"><ele>355.0</ele><time>2026-04-15T16:20:09.307Z</time></trkpt><trkpt lat="40.8744417" lon="14.1774467"><ele>354.5</ele><time>2026-04-15T16:20:10.306Z</time></trkpt><trkpt lat="40.8745" lon="14.1773783"><ele>354.0</ele><time>2026-04-15T16:20:11.307Z</time></trkpt><trkpt lat="40.874555" lon="14.1773183"><ele>353.5</ele><time>2026-04-15T16:20:12.306Z</time></trkpt><trkpt lat="40.87462" lon="14.1772767"><ele>353.0</ele><time>2026-04-15T16:20:13.307Z</time></trkpt><trkpt lat="40.874695" lon="14.1772433"><ele>352.5</ele><time>2026-04-15T16:20:14.306Z</time></trkpt><trkpt lat="40.87478" lon="14.1772067"><ele>352.0</ele><time>2026-04-15T16:20:15.307Z</time></trkpt><trkpt lat="40.8748667" lon="14.1771667"><ele>351.5</ele><time>2026-04-15T16:20:16.306Z</time></trkpt><trkpt lat="40.874955" lon="14.1771233"><ele>351.0</ele><time>2026-04-15T16:20:17.307Z</time></trkpt><trkpt lat="40.8750433" lon="14.1770867"><ele>349.1666666666667</ele><time>2026-04-15T16:20:18.307Z</time></trkpt><trkpt lat="40.8751167" lon="14.1770533"><ele>347.3333333333333</ele><time>2026-04-15T16:20:19.307Z</time></trkpt><trkpt lat="40.8751767" lon="14.1770217"><ele>345.5</ele><time>2026-04-15T16:20:20.306Z</time></trkpt><trkpt lat="40.8752517" lon="14.1769567"><ele>343.66666666666663</ele><time>2026-04-15T16:20:22.308Z</time></trkpt><trkpt lat="40.87532" lon="14.1768967"><ele>341.8333333333333</ele><time>2026-04-15T16:20:24.306Z</time></trkpt><trkpt lat="40.8753567" lon="14.1767967"><ele>340.0</ele><time>2026-04-15T16:20:26.307Z</time></trkpt><trkpt lat="40.8753933" lon="14.1766417"><ele>340.0</ele><time>2026-04-15T16:20:28.307Z</time></trkpt><trkpt lat="40.8754083" lon="14.1765567"><ele>340.0</ele><time>2026-04-15T16:20:29.307Z</time></trkpt><trkpt lat="40.8754417" lon="14.1764"><ele>340.0</ele><time>2026-04-15T16:20:31.305Z</time></trkpt><trkpt lat="40.875465" lon="14.1763133"><ele>340.0</ele><time>2026-04-15T16:20:32.307Z</time></trkpt><trkpt lat="40.8754817" lon="14.1762267"><ele>340.0</ele><time>2026-04-15T16:20:33.307Z</time></trkpt><trkpt lat="40.8754867" lon="14.1761317"><ele>340.0</ele><time>2026-04-15T16:20:34.306Z</time></trkpt><trkpt lat="40.8754967" lon="14.176045"><ele>340.3333333333333</ele><time>2026-04-15T16:20:35.305Z</time></trkpt><trkpt lat="40.875505" lon="14.1759517"><ele>340.66666666666663</ele><time>2026-04-15T16:20:36.306Z</time></trkpt><trkpt lat="40.8755283" lon="14.1758617"><ele>341.0</ele><time>2026-04-15T16:20:37.306Z</time></trkpt><trkpt lat="40.87557" lon="14.1757817"><ele>341.3333333333333</ele><time>2026-04-15T16:20:38.307Z</time></trkpt><trkpt lat="40.87562" lon="14.1757083"><ele>341.6666666666667</ele><time>2026-04-15T16:20:39.307Z</time></trkpt><trkpt lat="40.87568" lon="14.1756383"><ele>342.0</ele><time>2026-04-15T16:20:40.306Z</time></trkpt><trkpt lat="40.87574" lon="14.1755683"><ele>341.99999999999994</ele><time>2026-04-15T16:20:41.307Z</time></trkpt><trkpt lat="40.875795" lon="14.175495"><ele>342.0</ele><time>2026-04-15T16:20:42.307Z</time></trkpt><trkpt lat="40.8758383" lon="14.175415"><ele>342.0</ele><time>2026-04-15T16:20:43.307Z</time></trkpt><trkpt lat="40.8758717" lon="14.17533"><ele>342.0</ele><time>2026-04-15T16:20:44.306Z</time></trkpt><trkpt lat="40.8759083" lon="14.175255"><ele>342.0</ele><time>2026-04-15T16:20:45.307Z</time></trkpt><trkpt lat="40.8759483" lon="14.1751867"><ele>341.99999999999994</ele><time>2026-04-15T16:20:46.306Z</time></trkpt><trkpt lat="40.8759967" lon="14.1751133"><ele>342.0</ele><time>2026-04-15T16:20:47.306Z</time></trkpt><trkpt lat="40.8760467" lon="14.1750433"><ele>341.3333333333333</ele><time>2026-04-15T16:20:48.306Z</time></trkpt><trkpt lat="40.8760933" lon="14.1749733"><ele>340.6666666666667</ele><time>2026-04-15T16:20:49.305Z</time></trkpt><trkpt lat="40.8761483" lon="14.17491"><ele>340.0</ele><time>2026-04-15T16:20:50.307Z</time></trkpt><trkpt lat="40.8762083" lon="14.1748467"><ele>339.33333333333337</ele><time>2026-04-15T16:20:51.307Z</time></trkpt><trkpt lat="40.8762683" lon="14.17478"><ele>338.6666666666667</ele><time>2026-04-15T16:20:52.307Z</time></trkpt><trkpt lat="40.876325" lon="14.1747067"><ele>338.0</ele><time>2026-04-15T16:20:53.307Z</time></trkpt><trkpt lat="40.8763817" lon="14.1746383"><ele>338.0</ele><time>2026-04-15T16:20:54.306Z</time></trkpt><trkpt lat="40.8764383" lon="14.174555"><ele>338.0</ele><time>2026-04-15T16:20:55.307Z</time></trkpt><trkpt lat="40.87649" lon="14.1744733"><ele>338.0</ele><time>2026-04-15T16:20:56.307Z</time></trkpt><trkpt lat="40.876525" lon="14.1743867"><ele>338.0</ele><time>2026-04-15T16:20:57.307Z</time></trkpt><trkpt lat="40.8765467" lon="14.17429"><ele>338.0</ele><time>2026-04-15T16:20:58.306Z</time></trkpt><trkpt lat="40.87657" lon="14.17419"><ele>338.0</ele><time>2026-04-15T16:20:59.307Z</time></trkpt><trkpt lat="40.87659" lon="14.1740817"><ele>337.5</ele><time>2026-04-15T16:21:00.307Z</time></trkpt><trkpt lat="40.8766033" lon="14.173965"><ele>337.0</ele><time>2026-04-15T16:21:01.306Z</time></trkpt><trkpt lat="40.8766033" lon="14.1738583"><ele>336.5</ele><time>2026-04-15T16:21:02.306Z</time></trkpt><trkpt lat="40.876585" lon="14.173755"><ele>336.0</ele><time>2026-04-15T16:21:03.307Z</time></trkpt><trkpt lat="40.8765517" lon="14.173655"><ele>335.5</ele><time>2026-04-15T16:21:04.306Z</time></trkpt><trkpt lat="40.876505" lon="14.17357"><ele>335.0</ele><time>2026-04-15T16:21:05.306Z</time></trkpt><trkpt lat="40.8764467" lon="14.1734983"><ele>335.0</ele><time>2026-04-15T16:21:06.307Z</time></trkpt><trkpt lat="40.87636" lon="14.1734633"><ele>335.0</ele><time>2026-04-15T16:21:07.308Z</time></trkpt><trkpt lat="40.8762683" lon="14.17346"><ele>335.0</ele><time>2026-04-15T16:21:08.306Z</time></trkpt><trkpt lat="40.876175" lon="14.17349"><ele>335.0</ele><time>2026-04-15T16:21:09.307Z</time></trkpt><trkpt lat="40.876075" lon="14.1735483"><ele>335.0</ele><time>2026-04-15T16:21:10.307Z</time></trkpt><trkpt lat="40.8759983" lon="14.1735983"><ele>333.4</ele><time>2026-04-15T16:21:11.306Z</time></trkpt><trkpt lat="40.8759367" lon="14.1736783"><ele>331.8</ele><time>2026-04-15T16:21:12.307Z</time></trkpt><trkpt lat="40.8758717" lon="14.1737583"><ele>330.20000000000005</ele><time>2026-04-15T16:21:13.306Z</time></trkpt><trkpt lat="40.8758167" lon="14.17381"><ele>328.6</ele><time>2026-04-15T16:21:14.307Z</time></trkpt><trkpt lat="40.8757083" lon="14.1738533"><ele>327.0</ele><time>2026-04-15T16:21:16.307Z</time></trkpt><trkpt lat="40.8755767" lon="14.1738133"><ele>327.0</ele><time>2026-04-15T16:21:18.307Z</time></trkpt><trkpt lat="40.8755033" lon="14.173785"><ele>327.0</ele><time>2026-04-15T16:21:19.306Z</time></trkpt><trkpt lat="40.8754417" lon="14.1737433"><ele>327.0</ele><time>2026-04-15T16:21:20.306Z</time></trkpt><trkpt lat="40.8753817" lon="14.173695"><ele>327.0</ele><time>2026-04-15T16:21:21.307Z</time></trkpt><trkpt lat="40.8753283" lon="14.1736333"><ele>327.0</ele><time>2026-04-15T16:21:22.308Z</time></trkpt><trkpt lat="40.875275" lon="14.1735683"><ele>327.0</ele><time>2026-04-15T16:21:23.307Z</time></trkpt><trkpt lat="40.8752117" lon="14.173495"><ele>327.0</ele><time>2026-04-15T16:21:24.307Z</time></trkpt><trkpt lat="40.875145" lon="14.17343"><ele>326.6666666666667</ele><time>2026-04-15T16:21:25.307Z</time></trkpt><trkpt lat="40.8750733" lon="14.1733667"><ele>326.3333333333333</ele><time>2026-04-15T16:21:26.307Z</time></trkpt><trkpt lat="40.8749983" lon="14.1733033"><ele>326.0</ele><time>2026-04-15T16:21:27.306Z</time></trkpt><trkpt lat="40.874925" lon="14.1732483"><ele>325.66666666666663</ele><time>2026-04-15T16:21:28.306Z</time></trkpt><trkpt lat="40.8748533" lon="14.1731817"><ele>325.3333333333333</ele><time>2026-04-15T16:21:29.306Z</time></trkpt><trkpt lat="40.8747833" lon="14.173105"><ele>325.0</ele><time>2026-04-15T16:21:30.306Z</time></trkpt><trkpt lat="40.874715" lon="14.1730283"><ele>322.8333333333333</ele><time>2026-04-15T16:21:31.307Z</time></trkpt><trkpt lat="40.874655" lon="14.17294"><ele>320.66666666666663</ele><time>2026-04-15T16:21:32.306Z</time></trkpt><trkpt lat="40.8746033" lon="14.1728567"><ele>318.5</ele><time>2026-04-15T16:21:33.306Z</time></trkpt><trkpt lat="40.87455" lon="14.1727783"><ele>316.3333333333333</ele><time>2026-04-15T16:21:34.305Z</time></trkpt><trkpt lat="40.8744883" lon="14.1727083"><ele>314.1666666666667</ele><time>2026-04-15T16:21:35.305Z</time></trkpt><trkpt lat="40.87442" lon="14.1726483"><ele>312.0</ele><time>2026-04-15T16:21:36.307Z</time></trkpt><trkpt lat="40.8743383" lon="14.1726033"><ele>312.5</ele><time>2026-04-15T16:21:37.307Z</time></trkpt><trkpt lat="40.8742683" lon="14.1725517"><ele>313.0</ele><time>2026-04-15T16:21:38.306Z</time></trkpt><trkpt lat="40.8741883" lon="14.1725183"><ele>313.5</ele><time>2026-04-15T16:21:39.307Z</time></trkpt><trkpt lat="40.8741083" lon="14.1724933"><ele>314.0</ele><time>2026-04-15T16:21:40.307Z</time></trkpt><trkpt lat="40.8740283" lon="14.1724917"><ele>314.5</ele><time>2026-04-15T16:21:41.306Z</time></trkpt><trkpt lat="40.8739583" lon="14.1724733"><ele>315.0</ele><time>2026-04-15T16:21:42.306Z</time></trkpt><trkpt lat="40.8738517" lon="14.1724217"><ele>315.0</ele><time>2026-04-15T16:21:44.306Z</time></trkpt><trkpt lat="40.8737633" lon="14.172385"><ele>315.0</ele><time>2026-04-15T16:21:46.307Z</time></trkpt><trkpt lat="40.8736933" lon="14.172335"><ele>315.0</ele><time>2026-04-15T16:21:49.307Z</time></trkpt><trkpt lat="40.873605" lon="14.1723967"><ele>315.0</ele><time>2026-04-15T16:22:51.305Z</time></trkpt><trkpt lat="40.8735333" lon="14.172485"><ele>315.0</ele><time>2026-04-15T16:22:53.305Z</time></trkpt><trkpt lat="40.8734533" lon="14.17261"><ele>314.1666666666667</ele><time>2026-04-15T16:22:55.305Z</time></trkpt><trkpt lat="40.873405" lon="14.1726817"><ele>313.3333333333333</ele><time>2026-04-15T16:22:56.306Z</time></trkpt><trkpt lat="40.8733567" lon="14.1727583"><ele>312.5</ele><time>2026-04-15T16:22:57.305Z</time></trkpt><trkpt lat="40.8733133" lon="14.1728417"><ele>311.66666666666663</ele><time>2026-04-15T16:22:58.305Z</time></trkpt><trkpt lat="40.8732667" lon="14.17292"><ele>310.8333333333333</ele><time>2026-04-15T16:22:59.305Z</time></trkpt><trkpt lat="40.8732183" lon="14.173005"><ele>310.0</ele><time>2026-04-15T16:23:00.304Z</time></trkpt><trkpt lat="40.87317" lon="14.1730917"><ele>310.0</ele><time>2026-04-15T16:23:01.307Z</time></trkpt><trkpt lat="40.87312" lon="14.1731783"><ele>310.0</ele><time>2026-04-15T16:23:02.306Z</time></trkpt><trkpt lat="40.8730667" lon="14.1732717"><ele>310.0</ele><time>2026-04-15T16:23:03.306Z</time></trkpt><trkpt lat="40.873015" lon="14.1733633"><ele>310.0</ele><time>2026-04-15T16:23:04.306Z</time></trkpt><trkpt lat="40.87296" lon="14.1734533"><ele>310.0</ele><time>2026-04-15T16:23:05.306Z</time></trkpt><trkpt lat="40.872905" lon="14.173535"><ele>310.0</ele><time>2026-04-15T16:23:06.305Z</time></trkpt><trkpt lat="40.8728517" lon="14.17361"><ele>310.3333333333333</ele><time>2026-04-15T16:23:07.305Z</time></trkpt><trkpt lat="40.8727933" lon="14.1736667"><ele>310.66666666666663</ele><time>2026-04-15T16:23:08.306Z</time></trkpt><trkpt lat="40.8727333" lon="14.1737017"><ele>311.0</ele><time>2026-04-15T16:23:09.306Z</time></trkpt><trkpt lat="40.8726067" lon="14.1736917"><ele>311.3333333333333</ele><time>2026-04-15T16:23:11.306Z</time></trkpt><trkpt lat="40.8725417" lon="14.1736667"><ele>311.6666666666667</ele><time>2026-04-15T16:23:12.305Z</time></trkpt><trkpt lat="40.8724683" lon="14.1736483"><ele>312.0</ele><time>2026-04-15T16:23:13.306Z</time></trkpt><trkpt lat="40.87239" lon="14.17365"><ele>310.0</ele><time>2026-04-15T16:23:14.306Z</time></trkpt><trkpt lat="40.8723183" lon="14.1736767"><ele>308.0</ele><time>2026-04-15T16:23:15.304Z</time></trkpt><trkpt lat="40.8722517" lon="14.173715"><ele>306.0</ele><time>2026-04-15T16:23:16.305Z</time></trkpt><trkpt lat="40.8721983" lon="14.1737633"><ele>304.0</ele><time>2026-04-15T16:23:17.305Z</time></trkpt><trkpt lat="40.87212" lon="14.1738483"><ele>302.0</ele><time>2026-04-15T16:23:19.306Z</time></trkpt><trkpt lat="40.8720517" lon="14.17386"><ele>300.0</ele><time>2026-04-15T16:23:21.306Z</time></trkpt><trkpt lat="40.8720517" lon="14.173745"><ele>300.0</ele><time>2026-04-15T16:23:24.305Z</time></trkpt><trkpt lat="40.872145" lon="14.173645"><ele>300.0</ele><time>2026-04-15T16:23:26.305Z</time></trkpt><trkpt lat="40.8722" lon="14.1735917"><ele>300.0</ele><time>2026-04-15T16:23:27.306Z</time></trkpt><trkpt lat="40.8722733" lon="14.1735217"><ele>300.0</ele><time>2026-04-15T16:23:28.307Z</time></trkpt><trkpt lat="40.8724183" lon="14.173435"><ele>300.0</ele><time>2026-04-15T16:23:30.306Z</time></trkpt><trkpt lat="40.87249" lon="14.17342"><ele>300.0</ele><time>2026-04-15T16:23:31.305Z</time></trkpt><trkpt lat="40.8725683" lon="14.173405"><ele>300.0</ele><time>2026-04-15T16:23:32.306Z</time></trkpt><trkpt lat="40.872665" lon="14.1732917"><ele>300.0</ele><time>2026-04-15T16:23:34.304Z</time></trkpt><trkpt lat="40.8726733" lon="14.1731217"><ele>300.0</ele><time>2026-04-15T16:23:36.303Z</time></trkpt><trkpt lat="40.8726533" lon="14.1730283"><ele>300.0</ele><time>2026-04-15T16:23:37.304Z</time></trkpt><trkpt lat="40.8726167" lon="14.1729367"><ele>300.2</ele><time>2026-04-15T16:23:38.304Z</time></trkpt><trkpt lat="40.8725533" lon="14.17286"><ele>300.4</ele><time>2026-04-15T16:23:39.305Z</time></trkpt><trkpt lat="40.87248" lon="14.1728017"><ele>300.6</ele><time>2026-04-15T16:23:40.304Z</time></trkpt><trkpt lat="40.8723867" lon="14.1727583"><ele>300.8</ele><time>2026-04-15T16:23:41.304Z</time></trkpt><trkpt lat="40.872285" lon="14.1727367"><ele>301.0</ele><time>2026-04-15T16:23:42.305Z</time></trkpt><trkpt lat="40.8721783" lon="14.1727233"><ele>301.0</ele><time>2026-04-15T16:23:43.304Z</time></trkpt><trkpt lat="40.872075" lon="14.17271"><ele>301.0</ele><time>2026-04-15T16:23:44.303Z</time></trkpt><trkpt lat="40.8719667" lon="14.1727"><ele>301.0</ele><time>2026-04-15T16:23:45.304Z</time></trkpt><trkpt lat="40.8718567" lon="14.172685"><ele>301.0</ele><time>2026-04-15T16:23:46.305Z</time></trkpt><trkpt lat="40.8717517" lon="14.172675"><ele>301.0</ele><time>2026-04-15T16:23:47.306Z</time></trkpt><trkpt lat="40.8716533" lon="14.1726667"><ele>298.0</ele><time>2026-04-15T16:23:48.304Z</time></trkpt><trkpt lat="40.871565" lon="14.1726567"><ele>295.0</ele><time>2026-04-15T16:23:49.307Z</time></trkpt><trkpt lat="40.8714817" lon="14.1726417"><ele>292.0</ele><time>2026-04-15T16:23:50.304Z</time></trkpt><trkpt lat="40.8714067" lon="14.1726083"><ele>289.0</ele><time>2026-04-15T16:23:51.303Z</time></trkpt><trkpt lat="40.8713467" lon="14.1725617"><ele>286.0</ele><time>2026-04-15T16:23:52.304Z</time></trkpt><trkpt lat="40.8712933" lon="14.172495"><ele>283.0</ele><time>2026-04-15T16:23:53.304Z</time></trkpt><trkpt lat="40.87127" lon="14.1724"><ele>282.2</ele><time>2026-04-15T16:23:54.304Z</time></trkpt><trkpt lat="40.871285" lon="14.172285"><ele>281.4</ele><time>2026-04-15T16:23:55.304Z</time></trkpt><trkpt lat="40.8713283" lon="14.1721883"><ele>280.59999999999997</ele><time>2026-04-15T16:23:56.304Z</time></trkpt><trkpt lat="40.8713783" lon="14.1720867"><ele>279.8</ele><time>2026-04-15T16:23:57.308Z</time></trkpt><trkpt lat="40.8714367" lon="14.171995"><ele>279.0</ele><time>2026-04-15T16:23:58.304Z</time></trkpt><trkpt lat="40.87151" lon="14.171915"><ele>279.0</ele><time>2026-04-15T16:23:59.305Z</time></trkpt><trkpt lat="40.8715717" lon="14.1718483"><ele>279.0</ele><time>2026-04-15T16:24:00.305Z</time></trkpt><trkpt lat="40.8716333" lon="14.171785"><ele>279.0</ele><time>2026-04-15T16:24:01.304Z</time></trkpt><trkpt lat="40.8716817" lon="14.1717117"><ele>279.0</ele><time>2026-04-15T16:24:02.305Z</time></trkpt><trkpt lat="40.871715" lon="14.1716383"><ele>279.0</ele><time>2026-04-15T16:24:03.305Z</time></trkpt><trkpt lat="40.871725" lon="14.1714983"><ele>279.0</ele><time>2026-04-15T16:24:05.304Z</time></trkpt><trkpt lat="40.871705" lon="14.171375"><ele>278.0</ele><time>2026-04-15T16:24:07.305Z</time></trkpt><trkpt lat="40.87168" lon="14.1712517"><ele>277.0</ele><time>2026-04-15T16:24:09.304Z</time></trkpt><trkpt lat="40.8717183" lon="14.1711183"><ele>276.0</ele><time>2026-04-15T16:24:11.304Z</time></trkpt><trkpt lat="40.87175" lon="14.17098"><ele>275.0</ele><time>2026-04-15T16:24:13.305Z</time></trkpt><trkpt lat="40.8717417" lon="14.17086"><ele>274.0</ele><time>2026-04-15T16:24:15.304Z</time></trkpt><trkpt lat="40.87168" lon="14.1707667"><ele>274.0</ele><time>2026-04-15T16:24:17.304Z</time></trkpt><trkpt lat="40.8715683" lon="14.17072"><ele>274.0</ele><time>2026-04-15T16:24:19.305Z</time></trkpt><trkpt lat="40.87147" lon="14.1706667"><ele>274.0</ele><time>2026-04-15T16:24:21.305Z</time></trkpt><trkpt lat="40.8714033" lon="14.1705833"><ele>274.0</ele><time>2026-04-15T16:24:23.305Z</time></trkpt><trkpt lat="40.8714117" lon="14.1704683"><ele>274.0</ele><time>2026-04-15T16:24:25.304Z</time></trkpt><trkpt lat="40.871455" lon="14.1703233"><ele>274.2</ele><time>2026-04-15T16:24:27.305Z</time></trkpt><trkpt lat="40.87147" lon="14.170185"><ele>274.4</ele><time>2026-04-15T16:24:29.305Z</time></trkpt><trkpt lat="40.8714267" lon="14.1700383"><ele>274.6</ele><time>2026-04-15T16:24:31.305Z</time></trkpt><trkpt lat="40.8713333" lon="14.1699267"><ele>274.8</ele><time>2026-04-15T16:24:33.305Z</time></trkpt><trkpt lat="40.8712633" lon="14.1699283"><ele>275.0</ele><time>2026-04-15T16:24:34.305Z</time></trkpt><trkpt lat="40.87112" lon="14.1700117"><ele>275.0</ele><time>2026-04-15T16:24:36.305Z</time></trkpt><trkpt lat="40.8710067" lon="14.1701333"><ele>275.0</ele><time>2026-04-15T16:24:37.304Z</time></trkpt><trkpt lat="40.8709217" lon="14.17023"><ele>275.0</ele><time>2026-04-15T16:24:38.305Z</time></trkpt><trkpt lat="40.8708533" lon="14.170325"><ele>275.0</ele><time>2026-04-15T16:24:39.305Z</time></trkpt><trkpt lat="40.8707967" lon="14.1704167"><ele>275.0</ele><time>2026-04-15T16:24:40.304Z</time></trkpt><trkpt lat="40.87075" lon="14.1705067"><ele>272.83333333333337</ele><time>2026-04-15T16:24:41.304Z</time></trkpt><trkpt lat="40.8707" lon="14.1705933"><ele>270.6666666666667</ele><time>2026-04-15T16:24:42.305Z</time></trkpt><trkpt lat="40.87065" lon="14.170675"><ele>268.5</ele><time>2026-04-15T16:24:43.305Z</time></trkpt><trkpt lat="40.870595" lon="14.1707383"><ele>266.3333333333333</ele><time>2026-04-15T16:24:44.305Z</time></trkpt><trkpt lat="40.87053" lon="14.17078"><ele>264.16666666666663</ele><time>2026-04-15T16:24:45.304Z</time></trkpt><trkpt lat="40.8704583" lon="14.1708033"><ele>262.0</ele><time>2026-04-15T16:24:46.305Z</time></trkpt><trkpt lat="40.8703833" lon="14.1708117"><ele>260.8333333333333</ele><time>2026-04-15T16:24:47.304Z</time></trkpt><trkpt lat="40.870315" lon="14.170815"><ele>259.66666666666663</ele><time>2026-04-15T16:24:48.305Z</time></trkpt><trkpt lat="40.8702467" lon="14.17082"><ele>258.5</ele><time>2026-04-15T16:24:49.305Z</time></trkpt><trkpt lat="40.87014" lon="14.170815"><ele>257.3333333333333</ele><time>2026-04-15T16:24:51.305Z</time></trkpt><trkpt lat="40.8700683" lon="14.1707467"><ele>256.1666666666667</ele><time>2026-04-15T16:24:53.304Z</time></trkpt><trkpt lat="40.8700533" lon="14.1706383"><ele>255.0</ele><time>2026-04-15T16:24:55.304Z</time></trkpt><trkpt lat="40.8701017" lon="14.1704883"><ele>256.1666666666667</ele><time>2026-04-15T16:24:57.305Z</time></trkpt><trkpt lat="40.870135" lon="14.1704017"><ele>257.3333333333333</ele><time>2026-04-15T16:24:58.305Z</time></trkpt><trkpt lat="40.8701717" lon="14.1703133"><ele>258.5</ele><time>2026-04-15T16:24:59.305Z</time></trkpt><trkpt lat="40.8702083" lon="14.1702233"><ele>259.66666666666663</ele><time>2026-04-15T16:25:00.304Z</time></trkpt><trkpt lat="40.870255" lon="14.1701367"><ele>260.8333333333333</ele><time>2026-04-15T16:25:01.304Z</time></trkpt><trkpt lat="40.870315" lon="14.1700533"><ele>262.0</ele><time>2026-04-15T16:25:02.305Z</time></trkpt><trkpt lat="40.8703883" lon="14.169975"><ele>262.0</ele><time>2026-04-15T16:25:03.305Z</time></trkpt><trkpt lat="40.8704717" lon="14.1699083"><ele>262.0</ele><time>2026-04-15T16:25:04.304Z</time></trkpt><trkpt lat="40.8705433" lon="14.169855"><ele>262.0</ele><time>2026-04-15T16:25:05.305Z</time></trkpt><trkpt lat="40.8706067" lon="14.1697967"><ele>262.0</ele><time>2026-04-15T16:25:06.305Z</time></trkpt><trkpt lat="40.8706583" lon="14.1697367"><ele>262.0</ele><time>2026-04-15T16:25:07.305Z</time></trkpt><trkpt lat="40.8706983" lon="14.1696717"><ele>262.0</ele><time>2026-04-15T16:25:08.305Z</time></trkpt><trkpt lat="40.8707033" lon="14.1695617"><ele>262.4</ele><time>2026-04-15T16:25:10.305Z</time></trkpt><trkpt lat="40.87065" lon="14.169495"><ele>262.79999999999995</ele><time>2026-04-15T16:25:11.305Z</time></trkpt><trkpt lat="40.8705917" lon="14.1694367"><ele>263.2</ele><time>2026-04-15T16:25:12.304Z</time></trkpt><trkpt lat="40.87048" lon="14.1694117"><ele>263.59999999999997</ele><time>2026-04-15T16:25:13.305Z</time></trkpt><trkpt lat="40.87033" lon="14.1694767"><ele>264.0</ele><time>2026-04-15T16:25:14.305Z</time></trkpt><trkpt lat="40.8701533" lon="14.16959"><ele>260.0</ele><time>2026-04-15T16:25:15.305Z</time></trkpt><trkpt lat="40.870015" lon="14.1696633"><ele>256.0</ele><time>2026-04-15T16:25:16.305Z</time></trkpt><trkpt lat="40.8698983" lon="14.16973"><ele>252.0</ele><time>2026-04-15T16:25:17.304Z</time></trkpt><trkpt lat="40.869785" lon="14.1697983"><ele>248.0</ele><time>2026-04-15T16:25:18.306Z</time></trkpt><trkpt lat="40.86968" lon="14.16987"><ele>246.0</ele><time>2026-04-15T16:25:19.305Z</time></trkpt><trkpt lat="40.8695767" lon="14.169955"><ele>244.0</ele><time>2026-04-15T16:25:20.305Z</time></trkpt><trkpt lat="40.869475" lon="14.1700533"><ele>242.0</ele><time>2026-04-15T16:25:21.306Z</time></trkpt><trkpt lat="40.86938" lon="14.170155"><ele>240.0</ele><time>2026-04-15T16:25:22.304Z</time></trkpt><trkpt lat="40.86929" lon="14.17026"><ele>240.5</ele><time>2026-04-15T16:25:23.304Z</time></trkpt><trkpt lat="40.8692117" lon="14.170385"><ele>241.0</ele><time>2026-04-15T16:25:24.305Z</time></trkpt><trkpt lat="40.8691417" lon="14.1705133"><ele>241.5</ele><time>2026-04-15T16:25:25.305Z</time></trkpt><trkpt lat="40.8690817" lon="14.1706333"><ele>242.0</ele><time>2026-04-15T16:25:26.304Z</time></trkpt><trkpt lat="40.869035" lon="14.17075"><ele>238.83333333333334</ele><time>2026-04-15T16:25:27.304Z</time></trkpt><trkpt lat="40.8689967" lon="14.1708683"><ele>235.66666666666669</ele><time>2026-04-15T16:25:28.305Z</time></trkpt><trkpt lat="40.868955" lon="14.1709733"><ele>232.5</ele><time>2026-04-15T16:25:29.305Z</time></trkpt><trkpt lat="40.8689067" lon="14.1710533"><ele>229.33333333333331</ele><time>2026-04-15T16:25:30.305Z</time></trkpt><trkpt lat="40.8688517" lon="14.1711083"><ele>226.16666666666666</ele><time>2026-04-15T16:25:31.304Z</time></trkpt><trkpt lat="40.86879" lon="14.1711333"><ele>223.0</ele><time>2026-04-15T16:25:32.305Z</time></trkpt><trkpt lat="40.8687167" lon="14.1711083"><ele>223.0</ele><time>2026-04-15T16:25:33.304Z</time></trkpt><trkpt lat="40.8686283" lon="14.1710483"><ele>223.0</ele><time>2026-04-15T16:25:34.305Z</time></trkpt><trkpt lat="40.8685333" lon="14.171"><ele>223.0</ele><time>2026-04-15T16:25:35.305Z</time></trkpt><trkpt lat="40.8684183" lon="14.170945"><ele>223.0</ele><time>2026-04-15T16:25:36.305Z</time></trkpt><trkpt lat="40.8683033" lon="14.170895"><ele>223.0</ele><time>2026-04-15T16:25:37.304Z</time></trkpt><trkpt lat="40.8681833" lon="14.17081"><ele>221.25</ele><time>2026-04-15T16:25:38.304Z</time></trkpt><trkpt lat="40.8680617" lon="14.17074"><ele>219.5</ele><time>2026-04-15T16:25:39.305Z</time></trkpt><trkpt lat="40.8679417" lon="14.1706917"><ele>217.75</ele><time>2026-04-15T16:25:40.305Z</time></trkpt><trkpt lat="40.8678167" lon="14.1706633"><ele>216.0</ele><time>2026-04-15T16:25:41.305Z</time></trkpt><trkpt lat="40.86769" lon="14.1706467"><ele>216.25</ele><time>2026-04-15T16:25:42.304Z</time></trkpt><trkpt lat="40.8675617" lon="14.1706433"><ele>216.5</ele><time>2026-04-15T16:25:43.305Z</time></trkpt><trkpt lat="40.8674283" lon="14.170655"><ele>216.75</ele><time>2026-04-15T16:25:44.305Z</time></trkpt><trkpt lat="40.8673" lon="14.17068"><ele>217.0</ele><time>2026-04-15T16:25:45.305Z</time></trkpt><trkpt lat="40.8671817" lon="14.1707067"><ele>217.0</ele><time>2026-04-15T16:25:46.305Z</time></trkpt><trkpt lat="40.8670767" lon="14.1707317"><ele>217.0</ele><time>2026-04-15T16:25:47.305Z</time></trkpt><trkpt lat="40.8669817" lon="14.1707317"><ele>217.0</ele><time>2026-04-15T16:25:48.307Z</time></trkpt><trkpt lat="40.8668967" lon="14.1707167"><ele>217.0</ele><time>2026-04-15T16:25:49.305Z</time></trkpt><trkpt lat="40.8668217" lon="14.1706683"><ele>217.0</ele><time>2026-04-15T16:25:50.306Z</time></trkpt><trkpt lat="40.8667617" lon="14.1705933"><ele>213.2</ele><time>2026-04-15T16:25:51.304Z</time></trkpt><trkpt lat="40.866725" lon="14.1704733"><ele>209.39999999999998</ele><time>2026-04-15T16:25:52.305Z</time></trkpt><trkpt lat="40.8667267" lon="14.1703367"><ele>205.60000000000002</ele><time>2026-04-15T16:25:53.305Z</time></trkpt><trkpt lat="40.8667367" lon="14.170205"><ele>201.8</ele><time>2026-04-15T16:25:54.305Z</time></trkpt><trkpt lat="40.866745" lon="14.17009"><ele>198.0</ele><time>2026-04-15T16:25:55.305Z</time></trkpt><trkpt lat="40.8667517" lon="14.1699667"><ele>198.16666666666666</ele><time>2026-04-15T16:25:56.305Z</time></trkpt><trkpt lat="40.866775" lon="14.1698567"><ele>198.33333333333331</ele><time>2026-04-15T16:25:57.305Z</time></trkpt><trkpt lat="40.8668017" lon="14.1697583"><ele>198.5</ele><time>2026-04-15T16:25:58.305Z</time></trkpt><trkpt lat="40.8668367" lon="14.1696767"><ele>198.66666666666666</ele><time>2026-04-15T16:25:59.305Z</time></trkpt><trkpt lat="40.866885" lon="14.1695833"><ele>198.83333333333331</ele><time>2026-04-15T16:26:00.305Z</time></trkpt><trkpt lat="40.8669433" lon="14.16949"><ele>199.0</ele><time>2026-04-15T16:26:01.305Z</time></trkpt><trkpt lat="40.8670283" lon="14.1694417"><ele>198.99999999999997</ele><time>2026-04-15T16:26:02.305Z</time></trkpt><trkpt lat="40.867065" lon="14.1693633"><ele>199.0</ele><time>2026-04-15T16:26:03.307Z</time></trkpt><trkpt lat="40.8670767" lon="14.1692283"><ele>199.0</ele><time>2026-04-15T16:26:05.305Z</time></trkpt><trkpt lat="40.8669883" lon="14.1691783"><ele>199.0</ele><time>2026-04-15T16:26:07.305Z</time></trkpt><trkpt lat="40.86691" lon="14.169165"><ele>198.99999999999997</ele><time>2026-04-15T16:26:08.305Z</time></trkpt><trkpt lat="40.866815" lon="14.16919"><ele>199.0</ele><time>2026-04-15T16:26:09.305Z</time></trkpt><trkpt lat="40.86672" lon="14.1691967"><ele>199.0</ele><time>2026-04-15T16:26:10.305Z</time></trkpt><trkpt lat="40.86661" lon="14.1692183"><ele>199.0</ele><time>2026-04-15T16:26:11.306Z</time></trkpt><trkpt lat="40.86649" lon="14.1692483"><ele>199.0</ele><time>2026-04-15T16:26:12.305Z</time></trkpt><trkpt lat="40.866385" lon="14.16928"><ele>199.0</ele><time>2026-04-15T16:26:13.305Z</time></trkpt><trkpt lat="40.866265" lon="14.1693283"><ele>199.0</ele><time>2026-04-15T16:26:14.304Z</time></trkpt><trkpt lat="40.8661333" lon="14.169405"><ele>199.0</ele><time>2026-04-15T16:26:15.305Z</time></trkpt><trkpt lat="40.86605" lon="14.169405"><ele>199.0</ele><time>2026-04-15T16:26:16.303Z</time></trkpt><trkpt lat="40.8659767" lon="14.169385"><ele>199.0</ele><time>2026-04-15T16:26:17.305Z</time></trkpt><trkpt lat="40.86592" lon="14.1692783"><ele>199.0</ele><time>2026-04-15T16:26:19.306Z</time></trkpt><trkpt lat="40.8659667" lon="14.16917"><ele>199.0</ele><time>2026-04-15T16:26:21.305Z</time></trkpt><trkpt lat="40.8660467" lon="14.1690683"><ele>199.0</ele><time>2026-04-15T16:26:22.304Z</time></trkpt><trkpt lat="40.86613" lon="14.16895"><ele>199.0</ele><time>2026-04-15T16:26:23.305Z</time></trkpt><trkpt lat="40.8661917" lon="14.1688533"><ele>199.0</ele><time>2026-04-15T16:26:24.306Z</time></trkpt><trkpt lat="40.8662483" lon="14.1687717"><ele>199.0</ele><time>2026-04-15T16:26:25.304Z</time></trkpt><trkpt lat="40.866315" lon="14.1686867"><ele>197.49999999999997</ele><time>2026-04-15T16:26:26.305Z</time></trkpt><trkpt lat="40.8663783" lon="14.16859"><ele>196.0</ele><time>2026-04-15T16:26:27.305Z</time></trkpt><trkpt lat="40.8664283" lon="14.16849"><ele>194.5</ele><time>2026-04-15T16:26:28.305Z</time></trkpt><trkpt lat="40.8664633" lon="14.1683967"><ele>193.0</ele><time>2026-04-15T16:26:29.305Z</time></trkpt><trkpt lat="40.8664817" lon="14.1682983"><ele>191.5</ele><time>2026-04-15T16:26:30.305Z</time></trkpt><trkpt lat="40.866475" lon="14.1681933"><ele>190.0</ele><time>2026-04-15T16:26:32.305Z</time></trkpt><trkpt lat="40.8664233" lon="14.168145"><ele>190.0</ele><time>2026-04-15T16:26:33.305Z</time></trkpt><trkpt lat="40.8663433" lon="14.1681667"><ele>190.0</ele><time>2026-04-15T16:26:34.304Z</time></trkpt><trkpt lat="40.8662733" lon="14.1682117"><ele>190.0</ele><time>2026-04-15T16:26:35.305Z</time></trkpt><trkpt lat="40.8661933" lon="14.1682967"><ele>190.0</ele><time>2026-04-15T16:26:36.304Z</time></trkpt><trkpt lat="40.86612" lon="14.168385"><ele>190.0</ele><time>2026-04-15T16:26:37.304Z</time></trkpt><trkpt lat="40.8660533" lon="14.16846"><ele>190.0</ele><time>2026-04-15T16:26:38.305Z</time></trkpt><trkpt lat="40.8659833" lon="14.1685583"><ele>188.16666666666669</ele><time>2026-04-15T16:26:39.305Z</time></trkpt><trkpt lat="40.8659267" lon="14.1686383"><ele>186.33333333333334</ele><time>2026-04-15T16:26:40.304Z</time></trkpt><trkpt lat="40.8658667" lon="14.168725"><ele>184.5</ele><time>2026-04-15T16:26:41.305Z</time></trkpt><trkpt lat="40.8658083" lon="14.168805"><ele>182.66666666666666</ele><time>2026-04-15T16:26:42.306Z</time></trkpt><trkpt lat="40.8657483" lon="14.168885"><ele>180.83333333333331</ele><time>2026-04-15T16:26:43.305Z</time></trkpt><trkpt lat="40.8656917" lon="14.1689633"><ele>179.0</ele><time>2026-04-15T16:26:44.305Z</time></trkpt><trkpt lat="40.8656333" lon="14.1690433"><ele>179.0</ele><time>2026-04-15T16:26:45.305Z</time></trkpt><trkpt lat="40.8655783" lon="14.1691267"><ele>179.0</ele><time>2026-04-15T16:26:46.305Z</time></trkpt><trkpt lat="40.8655283" lon="14.16921"><ele>179.0</ele><time>2026-04-15T16:26:47.304Z</time></trkpt><trkpt lat="40.8654867" lon="14.1693067"><ele>179.0</ele><time>2026-04-15T16:26:48.305Z</time></trkpt><trkpt lat="40.8654483" lon="14.1694033"><ele>179.0</ele><time>2026-04-15T16:26:49.304Z</time></trkpt><trkpt lat="40.8654233" lon="14.16951"><ele>179.0</ele><time>2026-04-15T16:26:50.304Z</time></trkpt><trkpt lat="40.8654067" lon="14.1696233"><ele>179.0</ele><time>2026-04-15T16:26:51.304Z</time></trkpt><trkpt lat="40.86539" lon="14.1697367"><ele>179.0</ele><time>2026-04-15T16:26:52.305Z</time></trkpt><trkpt lat="40.8653717" lon="14.1698467"><ele>179.0</ele><time>2026-04-15T16:26:53.304Z</time></trkpt><trkpt lat="40.86535" lon="14.169955"><ele>179.0</ele><time>2026-04-15T16:26:54.304Z</time></trkpt><trkpt lat="40.8653317" lon="14.17007"><ele>179.0</ele><time>2026-04-15T16:26:55.305Z</time></trkpt><trkpt lat="40.8653083" lon="14.1701817"><ele>179.0</ele><time>2026-04-15T16:26:56.306Z</time></trkpt><trkpt lat="40.8652867" lon="14.17029"><ele>178.83333333333331</ele><time>2026-04-15T16:26:57.304Z</time></trkpt><trkpt lat="40.865265" lon="14.170395"><ele>178.66666666666666</ele><time>2026-04-15T16:26:58.304Z</time></trkpt><trkpt lat="40.8652417" lon="14.1705"><ele>178.5</ele><time>2026-04-15T16:26:59.305Z</time></trkpt><trkpt lat="40.86522" lon="14.1706083"><ele>178.33333333333334</ele><time>2026-04-15T16:27:00.305Z</time></trkpt><trkpt lat="40.865205" lon="14.17072"><ele>178.16666666666669</ele><time>2026-04-15T16:27:01.305Z</time></trkpt><trkpt lat="40.8651867" lon="14.170825"><ele>178.0</ele><time>2026-04-15T16:27:02.304Z</time></trkpt><trkpt lat="40.8651717" lon="14.170935"><ele>177.83333333333334</ele><time>2026-04-15T16:27:03.305Z</time></trkpt><trkpt lat="40.86515" lon="14.17104"><ele>177.66666666666669</ele><time>2026-04-15T16:27:04.307Z</time></trkpt><trkpt lat="40.8651283" lon="14.17114"><ele>177.5</ele><time>2026-04-15T16:27:05.306Z</time></trkpt><trkpt lat="40.865105" lon="14.1712367"><ele>177.33333333333334</ele><time>2026-04-15T16:27:06.305Z</time></trkpt><trkpt lat="40.8650867" lon="14.171335"><ele>177.16666666666666</ele><time>2026-04-15T16:27:07.306Z</time></trkpt><trkpt lat="40.8650683" lon="14.171435"><ele>177.0</ele><time>2026-04-15T16:27:08.308Z</time></trkpt><trkpt lat="40.8650433" lon="14.171535"><ele>176.14285714285714</ele><time>2026-04-15T16:27:09.305Z</time></trkpt><trkpt lat="40.865015" lon="14.171635"><ele>175.28571428571428</ele><time>2026-04-15T16:27:10.305Z</time></trkpt><trkpt lat="40.864985" lon="14.1717333"><ele>174.42857142857142</ele><time>2026-04-15T16:27:11.304Z</time></trkpt><trkpt lat="40.8649533" lon="14.1718283"><ele>173.57142857142856</ele><time>2026-04-15T16:27:12.304Z</time></trkpt><trkpt lat="40.864925" lon="14.1719167"><ele>172.71428571428572</ele><time>2026-04-15T16:27:13.305Z</time></trkpt><trkpt lat="40.864895" lon="14.172005"><ele>171.85714285714283</ele><time>2026-04-15T16:27:14.304Z</time></trkpt><trkpt lat="40.864865" lon="14.17208"><ele>171.0</ele><time>2026-04-15T16:27:15.305Z</time></trkpt><trkpt lat="40.8648033" lon="14.1721583"><ele>171.0</ele><time>2026-04-15T16:27:17.305Z</time></trkpt><trkpt lat="40.864735" lon="14.1721217"><ele>171.0</ele><time>2026-04-15T16:27:19.305Z</time></trkpt><trkpt lat="40.864675" lon="14.17202"><ele>171.0</ele><time>2026-04-15T16:27:21.304Z</time></trkpt><trkpt lat="40.86462" lon="14.171885"><ele>171.0</ele><time>2026-04-15T16:27:23.305Z</time></trkpt><trkpt lat="40.8645917" lon="14.1718067"><ele>171.0</ele><time>2026-04-15T16:27:24.305Z</time></trkpt><trkpt lat="40.8645567" lon="14.171725"><ele>171.0</ele><time>2026-04-15T16:27:25.305Z</time></trkpt><trkpt lat="40.8645183" lon="14.171645"><ele>170.99999999999997</ele><time>2026-04-15T16:27:26.305Z</time></trkpt><trkpt lat="40.8644833" lon="14.1715683"><ele>171.0</ele><time>2026-04-15T16:27:27.304Z</time></trkpt><trkpt lat="40.86445" lon="14.171495"><ele>171.0</ele><time>2026-04-15T16:27:28.305Z</time></trkpt><trkpt lat="40.8644117" lon="14.1714133"><ele>171.0</ele><time>2026-04-15T16:27:29.305Z</time></trkpt><trkpt lat="40.864375" lon="14.171335"><ele>171.0</ele><time>2026-04-15T16:27:30.305Z</time></trkpt><trkpt lat="40.8643383" lon="14.1712533"><ele>170.99999999999997</ele><time>2026-04-15T16:27:31.305Z</time></trkpt><trkpt lat="40.864305" lon="14.1711717"><ele>171.0</ele><time>2026-04-15T16:27:32.305Z</time></trkpt><trkpt lat="40.8642667" lon="14.1710933"><ele>170.7142857142857</ele><time>2026-04-15T16:27:33.305Z</time></trkpt><trkpt lat="40.86423" lon="14.1710183"><ele>170.42857142857142</ele><time>2026-04-15T16:27:34.305Z</time></trkpt><trkpt lat="40.8641967" lon="14.1709467"><ele>170.14285714285714</ele><time>2026-04-15T16:27:35.306Z</time></trkpt><trkpt lat="40.8641567" lon="14.17087"><ele>169.85714285714283</ele><time>2026-04-15T16:27:36.305Z</time></trkpt><trkpt lat="40.86412" lon="14.1707983"><ele>169.57142857142856</ele><time>2026-04-15T16:27:37.305Z</time></trkpt><trkpt lat="40.8640833" lon="14.1707267"><ele>169.28571428571428</ele><time>2026-04-15T16:27:38.304Z</time></trkpt><trkpt lat="40.8640433" lon="14.1706517"><ele>169.0</ele><time>2026-04-15T16:27:39.305Z</time></trkpt><trkpt lat="40.8640017" lon="14.17058"><ele>169.0</ele><time>2026-04-15T16:27:40.305Z</time></trkpt><trkpt lat="40.863965" lon="14.1704967"><ele>169.0</ele><time>2026-04-15T16:27:41.304Z</time></trkpt><trkpt lat="40.8639233" lon="14.1704133"><ele>169.0</ele><time>2026-04-15T16:27:42.305Z</time></trkpt><trkpt lat="40.8638867" lon="14.1703233"><ele>169.0</ele><time>2026-04-15T16:27:43.304Z</time></trkpt><trkpt lat="40.8638517" lon="14.170235"><ele>169.0</ele><time>2026-04-15T16:27:44.305Z</time></trkpt><trkpt lat="40.8638133" lon="14.1701467"><ele>169.0</ele><time>2026-04-15T16:27:45.306Z</time></trkpt><trkpt lat="40.86378" lon="14.17006"><ele>169.0</ele><time>2026-04-15T16:27:46.305Z</time></trkpt><trkpt lat="40.863745" lon="14.1699733"><ele>169.0</ele><time>2026-04-15T16:27:47.305Z</time></trkpt><trkpt lat="40.8637067" lon="14.169895"><ele>169.0</ele><time>2026-04-15T16:27:48.304Z</time></trkpt><trkpt lat="40.86367" lon="14.1698183"><ele>169.0</ele><time>2026-04-15T16:27:49.306Z</time></trkpt><trkpt lat="40.863635" lon="14.1697367"><ele>169.0</ele><time>2026-04-15T16:27:50.306Z</time></trkpt><trkpt lat="40.8635983" lon="14.1696567"><ele>169.0</ele><time>2026-04-15T16:27:51.304Z</time></trkpt><trkpt lat="40.86356" lon="14.1695733"><ele>169.0</ele><time>2026-04-15T16:27:52.305Z</time></trkpt><trkpt lat="40.8635183" lon="14.1694917"><ele>169.16666666666669</ele><time>2026-04-15T16:27:53.305Z</time></trkpt><trkpt lat="40.8634767" lon="14.1694033"><ele>169.33333333333334</ele><time>2026-04-15T16:27:54.305Z</time></trkpt><trkpt lat="40.8634417" lon="14.16931"><ele>169.5</ele><time>2026-04-15T16:27:55.304Z</time></trkpt><trkpt lat="40.8634083" lon="14.1692217"><ele>169.66666666666666</ele><time>2026-04-15T16:27:56.308Z</time></trkpt><trkpt lat="40.8633733" lon="14.1691317"><ele>169.83333333333331</ele><time>2026-04-15T16:27:57.305Z</time></trkpt><trkpt lat="40.86334" lon="14.169045"><ele>170.0</ele><time>2026-04-15T16:27:58.305Z</time></trkpt><trkpt lat="40.863305" lon="14.16896"><ele>169.66666666666666</ele><time>2026-04-15T16:27:59.306Z</time></trkpt><trkpt lat="40.8632717" lon="14.1688683"><ele>169.33333333333331</ele><time>2026-04-15T16:28:00.306Z</time></trkpt><trkpt lat="40.86324" lon="14.1687717"><ele>169.0</ele><time>2026-04-15T16:28:01.305Z</time></trkpt><trkpt lat="40.863215" lon="14.1686817"><ele>168.66666666666666</ele><time>2026-04-15T16:28:02.305Z</time></trkpt><trkpt lat="40.86319" lon="14.16859"><ele>168.33333333333334</ele><time>2026-04-15T16:28:03.305Z</time></trkpt><trkpt lat="40.8631683" lon="14.168495"><ele>168.0</ele><time>2026-04-15T16:28:04.304Z</time></trkpt><trkpt lat="40.86314" lon="14.1684"><ele>168.0</ele><time>2026-04-15T16:28:05.304Z</time></trkpt><trkpt lat="40.86311" lon="14.1683083"><ele>168.0</ele><time>2026-04-15T16:28:06.305Z</time></trkpt><trkpt lat="40.8630833" lon="14.16821"><ele>168.0</ele><time>2026-04-15T16:28:07.306Z</time></trkpt><trkpt lat="40.8630567" lon="14.1681217"><ele>168.0</ele><time>2026-04-15T16:28:08.306Z</time></trkpt><trkpt lat="40.8630217" lon="14.1680267"><ele>168.0</ele><time>2026-04-15T16:28:09.305Z</time></trkpt><trkpt lat="40.863" lon="14.1679417"><ele>168.0</ele><time>2026-04-15T16:28:10.304Z</time></trkpt><trkpt lat="40.8629667" lon="14.1678533"><ele>168.0</ele><time>2026-04-15T16:28:11.306Z</time></trkpt><trkpt lat="40.86293" lon="14.167765"><ele>168.0</ele><time>2026-04-15T16:28:12.305Z</time></trkpt><trkpt lat="40.8628933" lon="14.167675"><ele>168.0</ele><time>2026-04-15T16:28:13.306Z</time></trkpt><trkpt lat="40.8628567" lon="14.167585"><ele>168.0</ele><time>2026-04-15T16:28:14.305Z</time></trkpt><trkpt lat="40.8628083" lon="14.1675133"><ele>168.0</ele><time>2026-04-15T16:28:15.305Z</time></trkpt><trkpt lat="40.8627667" lon="14.1674367"><ele>168.0</ele><time>2026-04-15T16:28:16.306Z</time></trkpt><trkpt lat="40.862725" lon="14.1673633"><ele>168.0</ele><time>2026-04-15T16:28:17.305Z</time></trkpt><trkpt lat="40.862675" lon="14.1673"><ele>168.0</ele><time>2026-04-15T16:28:18.305Z</time></trkpt><trkpt lat="40.862625" lon="14.16724"><ele>167.57142857142858</ele><time>2026-04-15T16:28:19.304Z</time></trkpt><trkpt lat="40.8625717" lon="14.1671883"><ele>167.14285714285714</ele><time>2026-04-15T16:28:20.306Z</time></trkpt><trkpt lat="40.8625167" lon="14.1671433"><ele>166.71428571428572</ele><time>2026-04-15T16:28:21.305Z</time></trkpt><trkpt lat="40.862455" lon="14.1671033"><ele>166.28571428571428</ele><time>2026-04-15T16:28:22.305Z</time></trkpt><trkpt lat="40.8623933" lon="14.1670633"><ele>165.85714285714286</ele><time>2026-04-15T16:28:23.304Z</time></trkpt><trkpt lat="40.86233" lon="14.16703"><ele>165.42857142857144</ele><time>2026-04-15T16:28:24.304Z</time></trkpt><trkpt lat="40.862265" lon="14.1670083"><ele>165.0</ele><time>2026-04-15T16:28:25.305Z</time></trkpt><trkpt lat="40.8622017" lon="14.1669883"><ele>165.00000000000003</ele><time>2026-04-15T16:28:26.306Z</time></trkpt><trkpt lat="40.862135" lon="14.1669717"><ele>165.0</ele><time>2026-04-15T16:28:27.304Z</time></trkpt><trkpt lat="40.8620683" lon="14.166955"><ele>165.0</ele><time>2026-04-15T16:28:28.303Z</time></trkpt><trkpt lat="40.8619967" lon="14.1669433"><ele>165.0</ele><time>2026-04-15T16:28:29.304Z</time></trkpt><trkpt lat="40.8619283" lon="14.16693"><ele>165.0</ele><time>2026-04-15T16:28:30.303Z</time></trkpt><trkpt lat="40.861855" lon="14.1669267"><ele>165.00000000000003</ele><time>2026-04-15T16:28:31.305Z</time></trkpt><trkpt lat="40.86178" lon="14.1669267"><ele>165.0</ele><time>2026-04-15T16:28:32.305Z</time></trkpt><trkpt lat="40.8617033" lon="14.1669317"><ele>164.57142857142858</ele><time>2026-04-15T16:28:33.304Z</time></trkpt><trkpt lat="40.8616283" lon="14.16694"><ele>164.14285714285714</ele><time>2026-04-15T16:28:34.303Z</time></trkpt><trkpt lat="40.8615567" lon="14.16696"><ele>163.71428571428572</ele><time>2026-04-15T16:28:35.304Z</time></trkpt><trkpt lat="40.8614883" lon="14.16698"><ele>163.28571428571428</ele><time>2026-04-15T16:28:36.307Z</time></trkpt><trkpt lat="40.8614183" lon="14.1670017"><ele>162.85714285714286</ele><time>2026-04-15T16:28:37.304Z</time></trkpt><trkpt lat="40.8613517" lon="14.1670267"><ele>162.42857142857144</ele><time>2026-04-15T16:28:38.304Z</time></trkpt><trkpt lat="40.8612867" lon="14.1670533"><ele>162.0</ele><time>2026-04-15T16:28:39.305Z</time></trkpt><trkpt lat="40.8612217" lon="14.1670783"><ele>162.0</ele><time>2026-04-15T16:28:40.303Z</time></trkpt><trkpt lat="40.8611533" lon="14.1671067"><ele>162.0</ele><time>2026-04-15T16:28:41.303Z</time></trkpt><trkpt lat="40.861085" lon="14.1671317"><ele>162.0</ele><time>2026-04-15T16:28:42.304Z</time></trkpt><trkpt lat="40.8610167" lon="14.167155"><ele>162.0</ele><time>2026-04-15T16:28:43.305Z</time></trkpt><trkpt lat="40.860945" lon="14.167175"><ele>162.0</ele><time>2026-04-15T16:28:44.305Z</time></trkpt><trkpt lat="40.8608717" lon="14.1671917"><ele>162.0</ele><time>2026-04-15T16:28:45.303Z</time></trkpt><trkpt lat="40.8608" lon="14.1672083"><ele>162.0</ele><time>2026-04-15T16:28:46.304Z</time></trkpt><trkpt lat="40.8607267" lon="14.1672167"><ele>161.85714285714286</ele><time>2026-04-15T16:28:47.303Z</time></trkpt><trkpt lat="40.8606567" lon="14.1672167"><ele>161.71428571428572</ele><time>2026-04-15T16:28:48.304Z</time></trkpt><trkpt lat="40.8605817" lon="14.1672117"><ele>161.57142857142856</ele><time>2026-04-15T16:28:49.304Z</time></trkpt><trkpt lat="40.8605083" lon="14.1672017"><ele>161.42857142857144</ele><time>2026-04-15T16:28:50.303Z</time></trkpt><trkpt lat="40.860435" lon="14.1671867"><ele>161.28571428571428</ele><time>2026-04-15T16:28:51.303Z</time></trkpt><trkpt lat="40.8603683" lon="14.167165"><ele>161.14285714285714</ele><time>2026-04-15T16:28:52.303Z</time></trkpt><trkpt lat="40.8603067" lon="14.1671367"><ele>161.0</ele><time>2026-04-15T16:28:53.304Z</time></trkpt><trkpt lat="40.860245" lon="14.1671033"><ele>161.0</ele><time>2026-04-15T16:28:54.304Z</time></trkpt><trkpt lat="40.8601883" lon="14.167065"><ele>161.0</ele><time>2026-04-15T16:28:55.305Z</time></trkpt><trkpt lat="40.8601283" lon="14.1670233"><ele>161.0</ele><time>2026-04-15T16:28:56.303Z</time></trkpt><trkpt lat="40.8600717" lon="14.16698"><ele>161.0</ele><time>2026-04-15T16:28:57.304Z</time></trkpt><trkpt lat="40.860015" lon="14.16693"><ele>161.0</ele><time>2026-04-15T16:28:58.304Z</time></trkpt><trkpt lat="40.8599633" lon="14.1668767"><ele>161.0</ele><time>2026-04-15T16:28:59.305Z</time></trkpt><trkpt lat="40.8599083" lon="14.1668183"><ele>161.0</ele><time>2026-04-15T16:29:00.303Z</time></trkpt><trkpt lat="40.85986" lon="14.166755"><ele>160.85714285714286</ele><time>2026-04-15T16:29:01.304Z</time></trkpt><trkpt lat="40.8598133" lon="14.16669"><ele>160.71428571428572</ele><time>2026-04-15T16:29:02.303Z</time></trkpt><trkpt lat="40.8597667" lon="14.1666267"><ele>160.57142857142856</ele><time>2026-04-15T16:29:03.305Z</time></trkpt><trkpt lat="40.8597217" lon="14.16656"><ele>160.42857142857144</ele><time>2026-04-15T16:29:04.304Z</time></trkpt><trkpt lat="40.8596767" lon="14.1664933"><ele>160.28571428571428</ele><time>2026-04-15T16:29:05.305Z</time></trkpt><trkpt lat="40.859635" lon="14.16642"><ele>160.14285714285714</ele><time>2026-04-15T16:29:06.304Z</time></trkpt><trkpt lat="40.8595983" lon="14.1663433"><ele>160.0</ele><time>2026-04-15T16:29:07.305Z</time></trkpt><trkpt lat="40.8595533" lon="14.1662667"><ele>160.0</ele><time>2026-04-15T16:29:08.304Z</time></trkpt><trkpt lat="40.8595067" lon="14.1661917"><ele>160.0</ele><time>2026-04-15T16:29:09.304Z</time></trkpt><trkpt lat="40.8594583" lon="14.166115"><ele>160.0</ele><time>2026-04-15T16:29:10.304Z</time></trkpt><trkpt lat="40.8594183" lon="14.1660367"><ele>160.0</ele><time>2026-04-15T16:29:11.304Z</time></trkpt><trkpt lat="40.8593783" lon="14.1659567"><ele>160.0</ele><time>2026-04-15T16:29:12.304Z</time></trkpt><trkpt lat="40.8593383" lon="14.1658767"><ele>160.0</ele><time>2026-04-15T16:29:13.305Z</time></trkpt><trkpt lat="40.8593017" lon="14.165795"><ele>160.0</ele><time>2026-04-15T16:29:14.305Z</time></trkpt><trkpt lat="40.85927" lon="14.165705"><ele>160.0</ele><time>2026-04-15T16:29:15.304Z</time></trkpt><trkpt lat="40.859235" lon="14.1656233"><ele>160.0</ele><time>2026-04-15T16:29:16.304Z</time></trkpt><trkpt lat="40.8592" lon="14.1655433"><ele>160.0</ele><time>2026-04-15T16:29:17.304Z</time></trkpt><trkpt lat="40.8591617" lon="14.1654633"><ele>160.0</ele><time>2026-04-15T16:29:18.304Z</time></trkpt><trkpt lat="40.859125" lon="14.165385"><ele>160.0</ele><time>2026-04-15T16:29:19.304Z</time></trkpt><trkpt lat="40.8590883" lon="14.1653083"><ele>160.0</ele><time>2026-04-15T16:29:20.305Z</time></trkpt><trkpt lat="40.85905" lon="14.1652417"><ele>160.0</ele><time>2026-04-15T16:29:21.305Z</time></trkpt><trkpt lat="40.85898" lon="14.1651017"><ele>160.0</ele><time>2026-04-15T16:29:23.304Z</time></trkpt><trkpt lat="40.8589433" lon="14.165025"><ele>160.0</ele><time>2026-04-15T16:29:24.303Z</time></trkpt><trkpt lat="40.8589083" lon="14.1649467"><ele>160.0</ele><time>2026-04-15T16:29:25.305Z</time></trkpt><trkpt lat="40.858875" lon="14.164865"><ele>160.0</ele><time>2026-04-15T16:29:26.305Z</time></trkpt><trkpt lat="40.85884" lon="14.1647917"><ele>160.0</ele><time>2026-04-15T16:29:27.304Z</time></trkpt><trkpt lat="40.8588017" lon="14.16472"><ele>160.0</ele><time>2026-04-15T16:29:28.304Z</time></trkpt><trkpt lat="40.858735" lon="14.1645783"><ele>160.2</ele><time>2026-04-15T16:29:30.304Z</time></trkpt><trkpt lat="40.8586717" lon="14.1644367"><ele>160.4</ele><time>2026-04-15T16:29:32.305Z</time></trkpt><trkpt lat="40.8586067" lon="14.1642967"><ele>160.60000000000002</ele><time>2026-04-15T16:29:34.304Z</time></trkpt><trkpt lat="40.8585717" lon="14.1642233"><ele>160.8</ele><time>2026-04-15T16:29:35.304Z</time></trkpt><trkpt lat="40.8585383" lon="14.16415"><ele>161.0</ele><time>2026-04-15T16:29:36.304Z</time></trkpt><trkpt lat="40.8584717" lon="14.16401"><ele>161.5</ele><time>2026-04-15T16:29:38.304Z</time></trkpt><trkpt lat="40.8584117" lon="14.1638667"><ele>162.0</ele><time>2026-04-15T16:29:40.304Z</time></trkpt><trkpt lat="40.8583633" lon="14.1637317"><ele>162.5</ele><time>2026-04-15T16:29:42.304Z</time></trkpt><trkpt lat="40.8583183" lon="14.1635917"><ele>163.0</ele><time>2026-04-15T16:29:44.303Z</time></trkpt><trkpt lat="40.8582683" lon="14.16345"><ele>163.0</ele><time>2026-04-15T16:29:46.304Z</time></trkpt><trkpt lat="40.8582217" lon="14.16331"><ele>163.0</ele><time>2026-04-15T16:29:48.305Z</time></trkpt><trkpt lat="40.8581767" lon="14.1631683"><ele>163.0</ele><time>2026-04-15T16:29:50.304Z</time></trkpt><trkpt lat="40.8581383" lon="14.1630233"><ele>163.0</ele><time>2026-04-15T16:29:52.304Z</time></trkpt><trkpt lat="40.8580983" lon="14.1628783"><ele>163.25</ele><time>2026-04-15T16:29:54.304Z</time></trkpt><trkpt lat="40.8580567" lon="14.162735"><ele>163.5</ele><time>2026-04-15T16:29:56.305Z</time></trkpt><trkpt lat="40.8580217" lon="14.16259"><ele>163.75</ele><time>2026-04-15T16:29:58.304Z</time></trkpt><trkpt lat="40.857975" lon="14.1624467"><ele>164.0</ele><time>2026-04-15T16:30:00.303Z</time></trkpt><trkpt lat="40.8579217" lon="14.1623"><ele>164.25</ele><time>2026-04-15T16:30:02.305Z</time></trkpt><trkpt lat="40.857855" lon="14.1621633"><ele>164.5</ele><time>2026-04-15T16:30:04.304Z</time></trkpt><trkpt lat="40.857785" lon="14.1620267"><ele>164.75</ele><time>2026-04-15T16:30:06.303Z</time></trkpt><trkpt lat="40.8577117" lon="14.1618983"><ele>165.0</ele><time>2026-04-15T16:30:08.304Z</time></trkpt><trkpt lat="40.857635" lon="14.16179"><ele>165.2</ele><time>2026-04-15T16:30:10.304Z</time></trkpt><trkpt lat="40.857555" lon="14.1616917"><ele>165.4</ele><time>2026-04-15T16:30:12.304Z</time></trkpt><trkpt lat="40.8574767" lon="14.16161"><ele>165.60000000000002</ele><time>2026-04-15T16:30:14.304Z</time></trkpt><trkpt lat="40.8574033" lon="14.1615317"><ele>165.8</ele><time>2026-04-15T16:30:16.304Z</time></trkpt><trkpt lat="40.8573383" lon="14.1614617"><ele>166.0</ele><time>2026-04-15T16:30:18.304Z</time></trkpt><trkpt lat="40.8572783" lon="14.1613883"><ele>166.33333333333334</ele><time>2026-04-15T16:30:20.303Z</time></trkpt><trkpt lat="40.8572267" lon="14.161325"><ele>166.66666666666669</ele><time>2026-04-15T16:30:22.303Z</time></trkpt><trkpt lat="40.8571733" lon="14.1612567"><ele>167.0</ele><time>2026-04-15T16:30:24.303Z</time></trkpt><trkpt lat="40.8571183" lon="14.1611883"><ele>167.33333333333334</ele><time>2026-04-15T16:30:26.303Z</time></trkpt><trkpt lat="40.8570667" lon="14.1611117"><ele>167.66666666666666</ele><time>2026-04-15T16:30:28.304Z</time></trkpt><trkpt lat="40.857015" lon="14.1610333"><ele>168.0</ele><time>2026-04-15T16:30:30.304Z</time></trkpt><trkpt lat="40.8569617" lon="14.1609617"><ele>168.0</ele><time>2026-04-15T16:30:32.304Z</time></trkpt><trkpt lat="40.8569117" lon="14.16088"><ele>168.0</ele><time>2026-04-15T16:30:34.304Z</time></trkpt><trkpt lat="40.8568617" lon="14.16079"><ele>168.0</ele><time>2026-04-15T16:30:36.304Z</time></trkpt><trkpt lat="40.8568133" lon="14.1606967"><ele>168.0</ele><time>2026-04-15T16:30:38.304Z</time></trkpt><trkpt lat="40.8567683" lon="14.1606133"><ele>168.0</ele><time>2026-04-15T16:30:40.304Z</time></trkpt><trkpt lat="40.85672" lon="14.1605233"><ele>168.0</ele><time>2026-04-15T16:30:42.305Z</time></trkpt><trkpt lat="40.8566717" lon="14.1604167"><ele>168.66666666666666</ele><time>2026-04-15T16:30:44.305Z</time></trkpt><trkpt lat="40.8566333" lon="14.160305"><ele>169.33333333333334</ele><time>2026-04-15T16:30:46.303Z</time></trkpt><trkpt lat="40.8566017" lon="14.160215"><ele>170.0</ele><time>2026-04-15T16:30:48.305Z</time></trkpt><trkpt lat="40.85657" lon="14.1601333"><ele>170.66666666666669</ele><time>2026-04-15T16:30:50.304Z</time></trkpt><trkpt lat="40.8565383" lon="14.16005"><ele>171.33333333333334</ele><time>2026-04-15T16:30:52.304Z</time></trkpt><trkpt lat="40.856505" lon="14.159965"><ele>172.0</ele><time>2026-04-15T16:30:54.306Z</time></trkpt><trkpt lat="40.8564783" lon="14.1598783"><ele>172.5</ele><time>2026-04-15T16:30:56.305Z</time></trkpt><trkpt lat="40.8564533" lon="14.1597867"><ele>173.0</ele><time>2026-04-15T16:30:58.304Z</time></trkpt><trkpt lat="40.856425" lon="14.15967"><ele>173.5</ele><time>2026-04-15T16:31:01.304Z</time></trkpt><trkpt lat="40.8563933" lon="14.1595633"><ele>174.0</ele><time>2026-04-15T16:31:04.304Z</time></trkpt><trkpt lat="40.85636" lon="14.1594783"><ele>174.5</ele><time>2026-04-15T16:31:07.304Z</time></trkpt><trkpt lat="40.85631" lon="14.1593933"><ele>175.0</ele><time>2026-04-15T16:31:10.304Z</time></trkpt><trkpt lat="40.856255" lon="14.15933"><ele>175.0</ele><time>2026-04-15T16:31:13.305Z</time></trkpt><trkpt lat="40.8561867" lon="14.1592467"><ele>175.0</ele><time>2026-04-15T16:31:53.307Z</time></trkpt><trkpt lat="40.856135" lon="14.1591733"><ele>175.0</ele><time>2026-04-15T16:31:57.305Z</time></trkpt><trkpt lat="40.8560767" lon="14.1590983"><ele>175.0</ele><time>2026-04-15T16:32:00.306Z</time></trkpt><trkpt lat="40.8560083" lon="14.1590183"><ele>175.0</ele><time>2026-04-15T16:32:03.305Z</time></trkpt><trkpt lat="40.8559617" lon="14.1589583"><ele>175.0</ele><time>2026-04-15T16:32:05.306Z</time></trkpt><trkpt lat="40.855915" lon="14.15889"><ele>175.33333333333334</ele><time>2026-04-15T16:32:07.306Z</time></trkpt><trkpt lat="40.85589" lon="14.15879"><ele>175.66666666666669</ele><time>2026-04-15T16:32:09.305Z</time></trkpt><trkpt lat="40.8558833" lon="14.158675"><ele>176.0</ele><time>2026-04-15T16:32:11.306Z</time></trkpt><trkpt lat="40.85586" lon="14.1585617"><ele>176.33333333333334</ele><time>2026-04-15T16:32:13.306Z</time></trkpt><trkpt lat="40.8558483" lon="14.1584583"><ele>176.66666666666666</ele><time>2026-04-15T16:32:15.305Z</time></trkpt><trkpt lat="40.85586" lon="14.158375"><ele>177.0</ele><time>2026-04-15T16:32:17.306Z</time></trkpt><trkpt lat="40.8559" lon="14.1582633"><ele>177.0</ele><time>2026-04-15T16:32:20.306Z</time></trkpt><trkpt lat="40.8558283" lon="14.15832"><ele>177.0</ele><time>2026-04-15T16:32:27.308Z</time></trkpt><trkpt lat="40.8557917" lon="14.1584217"><ele>177.0</ele><time>2026-04-15T16:32:29.307Z</time></trkpt><trkpt lat="40.8557417" lon="14.15852"><ele>177.0</ele><time>2026-04-15T16:32:31.305Z</time></trkpt><trkpt lat="40.85571" lon="14.1586317"><ele>177.0</ele><time>2026-04-15T16:32:33.305Z</time></trkpt><trkpt lat="40.855685" lon="14.1587417"><ele>177.0</ele><time>2026-04-15T16:32:35.305Z</time></trkpt><trkpt lat="40.85565" lon="14.158855"><ele>177.0</ele><time>2026-04-15T16:32:37.306Z</time></trkpt><trkpt lat="40.85562" lon="14.1589717"><ele>177.0</ele><time>2026-04-15T16:32:39.308Z</time></trkpt><trkpt lat="40.8555917" lon="14.1590883"><ele>177.0</ele><time>2026-04-15T16:32:41.306Z</time></trkpt><trkpt lat="40.8555567" lon="14.159205"><ele>177.0</ele><time>2026-04-15T16:32:43.306Z</time></trkpt><trkpt lat="40.8555183" lon="14.1593167"><ele>177.0</ele><time>2026-04-15T16:32:45.306Z</time></trkpt><trkpt lat="40.85549" lon="14.15941"><ele>176.6</ele><time>2026-04-15T16:32:47.307Z</time></trkpt><trkpt lat="40.8554567" lon="14.1595117"><ele>176.2</ele><time>2026-04-15T16:32:49.306Z</time></trkpt><trkpt lat="40.8554233" lon="14.15962"><ele>175.8</ele><time>2026-04-15T16:32:51.306Z</time></trkpt><trkpt lat="40.855385" lon="14.159745"><ele>175.4</ele><time>2026-04-15T16:32:53.307Z</time></trkpt><trkpt lat="40.8553417" lon="14.1598933"><ele>175.0</ele><time>2026-04-15T16:32:55.306Z</time></trkpt><trkpt lat="40.8553167" lon="14.1599717"><ele>174.42857142857142</ele><time>2026-04-15T16:32:56.305Z</time></trkpt><trkpt lat="40.855285" lon="14.1600467"><ele>173.85714285714286</ele><time>2026-04-15T16:32:57.306Z</time></trkpt><trkpt lat="40.855255" lon="14.16012"><ele>173.28571428571428</ele><time>2026-04-15T16:32:58.306Z</time></trkpt><trkpt lat="40.855225" lon="14.1602017"><ele>172.71428571428572</ele><time>2026-04-15T16:32:59.307Z</time></trkpt><trkpt lat="40.8551967" lon="14.1602917"><ele>172.14285714285714</ele><time>2026-04-15T16:33:00.306Z</time></trkpt><trkpt lat="40.8551767" lon="14.1603867"><ele>171.57142857142856</ele><time>2026-04-15T16:33:01.306Z</time></trkpt><trkpt lat="40.8551533" lon="14.1604833"><ele>171.0</ele><time>2026-04-15T16:33:02.306Z</time></trkpt><trkpt lat="40.85513" lon="14.1605833"><ele>171.83333333333334</ele><time>2026-04-15T16:33:03.306Z</time></trkpt><trkpt lat="40.8551067" lon="14.160685"><ele>172.66666666666666</ele><time>2026-04-15T16:33:04.305Z</time></trkpt><trkpt lat="40.8550817" lon="14.1607833"><ele>173.5</ele><time>2026-04-15T16:33:05.306Z</time></trkpt><trkpt lat="40.8550517" lon="14.1608767"><ele>174.33333333333331</ele><time>2026-04-15T16:33:06.307Z</time></trkpt><trkpt lat="40.8550183" lon="14.16097"><ele>175.16666666666666</ele><time>2026-04-15T16:33:07.307Z</time></trkpt><trkpt lat="40.854985" lon="14.161065"><ele>176.0</ele><time>2026-04-15T16:33:08.307Z</time></trkpt><trkpt lat="40.8549583" lon="14.1611633"><ele>176.0</ele><time>2026-04-15T16:33:09.307Z</time></trkpt><trkpt lat="40.8549317" lon="14.161255"><ele>176.0</ele><time>2026-04-15T16:33:10.306Z</time></trkpt><trkpt lat="40.8549033" lon="14.1613533"><ele>176.0</ele><time>2026-04-15T16:33:11.306Z</time></trkpt><trkpt lat="40.8548717" lon="14.1614567"><ele>176.0</ele><time>2026-04-15T16:33:12.306Z</time></trkpt><trkpt lat="40.8548383" lon="14.1615517"><ele>176.0</ele><time>2026-04-15T16:33:13.306Z</time></trkpt><trkpt lat="40.8548017" lon="14.16164"><ele>176.0</ele><time>2026-04-15T16:33:14.307Z</time></trkpt><trkpt lat="40.8547667" lon="14.1617267"><ele>175.14285714285714</ele><time>2026-04-15T16:33:15.306Z</time></trkpt><trkpt lat="40.8547367" lon="14.161815"><ele>174.28571428571428</ele><time>2026-04-15T16:33:16.306Z</time></trkpt><trkpt lat="40.8547117" lon="14.161905"><ele>173.42857142857144</ele><time>2026-04-15T16:33:17.306Z</time></trkpt><trkpt lat="40.8546833" lon="14.1619917"><ele>172.57142857142856</ele><time>2026-04-15T16:33:18.306Z</time></trkpt><trkpt lat="40.85465" lon="14.16208"><ele>171.7142857142857</ele><time>2026-04-15T16:33:19.306Z</time></trkpt><trkpt lat="40.8546133" lon="14.16217"><ele>170.85714285714286</ele><time>2026-04-15T16:33:20.306Z</time></trkpt><trkpt lat="40.854585" lon="14.162265"><ele>170.0</ele><time>2026-04-15T16:33:21.307Z</time></trkpt><trkpt lat="40.8545617" lon="14.16236"><ele>169.83333333333331</ele><time>2026-04-15T16:33:22.307Z</time></trkpt><trkpt lat="40.8545383" lon="14.1624567"><ele>169.66666666666666</ele><time>2026-04-15T16:33:23.306Z</time></trkpt><trkpt lat="40.8545217" lon="14.16255"><ele>169.5</ele><time>2026-04-15T16:33:24.306Z</time></trkpt><trkpt lat="40.8545117" lon="14.1626483"><ele>169.33333333333334</ele><time>2026-04-15T16:33:25.307Z</time></trkpt><trkpt lat="40.8544933" lon="14.1627467"><ele>169.16666666666669</ele><time>2026-04-15T16:33:26.306Z</time></trkpt><trkpt lat="40.8544667" lon="14.1628433"><ele>169.0</ele><time>2026-04-15T16:33:27.306Z</time></trkpt><trkpt lat="40.8544367" lon="14.1629367"><ele>169.0</ele><time>2026-04-15T16:33:28.306Z</time></trkpt><trkpt lat="40.8544067" lon="14.1630317"><ele>169.0</ele><time>2026-04-15T16:33:29.306Z</time></trkpt><trkpt lat="40.8543817" lon="14.1631333"><ele>169.0</ele><time>2026-04-15T16:33:30.305Z</time></trkpt><trkpt lat="40.8543583" lon="14.163235"><ele>169.0</ele><time>2026-04-15T16:33:31.306Z</time></trkpt><trkpt lat="40.8543283" lon="14.163335"><ele>169.0</ele><time>2026-04-15T16:33:32.307Z</time></trkpt><trkpt lat="40.8542983" lon="14.163435"><ele>169.0</ele><time>2026-04-15T16:33:33.308Z</time></trkpt><trkpt lat="40.8542767" lon="14.1635333"><ele>169.16666666666669</ele><time>2026-04-15T16:33:34.306Z</time></trkpt><trkpt lat="40.8542517" lon="14.1636333"><ele>169.33333333333334</ele><time>2026-04-15T16:33:35.307Z</time></trkpt><trkpt lat="40.8542217" lon="14.1637267"><ele>169.5</ele><time>2026-04-15T16:33:36.304Z</time></trkpt><trkpt lat="40.854185" lon="14.1638133"><ele>169.66666666666666</ele><time>2026-04-15T16:33:37.305Z</time></trkpt><trkpt lat="40.854145" lon="14.1639033"><ele>169.83333333333331</ele><time>2026-04-15T16:33:38.305Z</time></trkpt><trkpt lat="40.8541117" lon="14.1640017"><ele>170.0</ele><time>2026-04-15T16:33:39.305Z</time></trkpt><trkpt lat="40.854085" lon="14.1641"><ele>169.66666666666666</ele><time>2026-04-15T16:33:40.305Z</time></trkpt><trkpt lat="40.8540567" lon="14.1642"><ele>169.33333333333331</ele><time>2026-04-15T16:33:41.304Z</time></trkpt><trkpt lat="40.8540267" lon="14.1643"><ele>169.0</ele><time>2026-04-15T16:33:42.306Z</time></trkpt><trkpt lat="40.8539933" lon="14.1643983"><ele>168.66666666666666</ele><time>2026-04-15T16:33:43.305Z</time></trkpt><trkpt lat="40.8539633" lon="14.1644933"><ele>168.33333333333334</ele><time>2026-04-15T16:33:44.307Z</time></trkpt><trkpt lat="40.8539333" lon="14.1645917"><ele>168.0</ele><time>2026-04-15T16:33:45.305Z</time></trkpt><trkpt lat="40.8539017" lon="14.16469"><ele>168.0</ele><time>2026-04-15T16:33:46.306Z</time></trkpt><trkpt lat="40.8538733" lon="14.1647867"><ele>168.0</ele><time>2026-04-15T16:33:47.305Z</time></trkpt><trkpt lat="40.853845" lon="14.16488"><ele>168.0</ele><time>2026-04-15T16:33:48.305Z</time></trkpt><trkpt lat="40.8538133" lon="14.16498"><ele>168.0</ele><time>2026-04-15T16:33:49.305Z</time></trkpt><trkpt lat="40.8537817" lon="14.1650717"><ele>168.0</ele><time>2026-04-15T16:33:50.306Z</time></trkpt><trkpt lat="40.85375" lon="14.1651633"><ele>168.0</ele><time>2026-04-15T16:33:51.305Z</time></trkpt><trkpt lat="40.8537167" lon="14.1652517"><ele>167.83333333333334</ele><time>2026-04-15T16:33:52.304Z</time></trkpt><trkpt lat="40.8536783" lon="14.1653333"><ele>167.66666666666666</ele><time>2026-04-15T16:33:53.304Z</time></trkpt><trkpt lat="40.8536317" lon="14.1653983"><ele>167.5</ele><time>2026-04-15T16:33:54.306Z</time></trkpt><trkpt lat="40.85354" lon="14.1654917"><ele>167.33333333333331</ele><time>2026-04-15T16:33:56.307Z</time></trkpt><trkpt lat="40.8534217" lon="14.1654667"><ele>167.16666666666666</ele><time>2026-04-15T16:33:58.305Z</time></trkpt><trkpt lat="40.8533583" lon="14.1654217"><ele>167.0</ele><time>2026-04-15T16:33:59.304Z</time></trkpt><trkpt lat="40.8533117" lon="14.1653433"><ele>167.0</ele><time>2026-04-15T16:34:00.304Z</time></trkpt><trkpt lat="40.8532683" lon="14.165235"><ele>167.0</ele><time>2026-04-15T16:34:01.306Z</time></trkpt><trkpt lat="40.8532133" lon="14.165165"><ele>167.0</ele><time>2026-04-15T16:34:02.304Z</time></trkpt><trkpt lat="40.8531583" lon="14.1650633"><ele>167.0</ele><time>2026-04-15T16:34:03.305Z</time></trkpt><trkpt lat="40.8531" lon="14.1649917"><ele>167.0</ele><time>2026-04-15T16:34:04.304Z</time></trkpt><trkpt lat="40.8530383" lon="14.1649233"><ele>167.0</ele><time>2026-04-15T16:34:05.305Z</time></trkpt><trkpt lat="40.8529717" lon="14.164855"><ele>167.0</ele><time>2026-04-15T16:34:06.305Z</time></trkpt><trkpt lat="40.8528983" lon="14.16478"><ele>167.0</ele><time>2026-04-15T16:34:07.303Z</time></trkpt><trkpt lat="40.85283" lon="14.1646967"><ele>167.0</ele><time>2026-04-15T16:34:08.304Z</time></trkpt><trkpt lat="40.852755" lon="14.1646167"><ele>167.0</ele><time>2026-04-15T16:34:09.304Z</time></trkpt><trkpt lat="40.85268" lon="14.1645333"><ele>167.0</ele><time>2026-04-15T16:34:10.304Z</time></trkpt><trkpt lat="40.852605" lon="14.164445"><ele>167.0</ele><time>2026-04-15T16:34:11.304Z</time></trkpt><trkpt lat="40.852525" lon="14.1643517"><ele>167.0</ele><time>2026-04-15T16:34:12.305Z</time></trkpt><trkpt lat="40.85244" lon="14.164255"><ele>167.0</ele><time>2026-04-15T16:34:13.304Z</time></trkpt><trkpt lat="40.8523533" lon="14.1641567"><ele>167.0</ele><time>2026-04-15T16:34:14.304Z</time></trkpt><trkpt lat="40.8522633" lon="14.16405"><ele>169.75</ele><time>2026-04-15T16:34:15.305Z</time></trkpt><trkpt lat="40.852175" lon="14.1639417"><ele>172.5</ele><time>2026-04-15T16:34:16.304Z</time></trkpt><trkpt lat="40.8520867" lon="14.1638283"><ele>175.25</ele><time>2026-04-15T16:34:17.303Z</time></trkpt><trkpt lat="40.8519967" lon="14.163715"><ele>178.0</ele><time>2026-04-15T16:34:18.305Z</time></trkpt><trkpt lat="40.8519067" lon="14.163595"><ele>178.0</ele><time>2026-04-15T16:34:19.305Z</time></trkpt><trkpt lat="40.8518083" lon="14.1634667"><ele>178.0</ele><time>2026-04-15T16:34:20.303Z</time></trkpt><trkpt lat="40.8517117" lon="14.1633317"><ele>178.0</ele><time>2026-04-15T16:34:21.304Z</time></trkpt><trkpt lat="40.8516217" lon="14.1631867"><ele>178.0</ele><time>2026-04-15T16:34:22.303Z</time></trkpt><trkpt lat="40.85153" lon="14.163045"><ele>173.5</ele><time>2026-04-15T16:34:23.303Z</time></trkpt><trkpt lat="40.85144" lon="14.1629133"><ele>169.0</ele><time>2026-04-15T16:34:24.304Z</time></trkpt><trkpt lat="40.851355" lon="14.1627917"><ele>164.5</ele><time>2026-04-15T16:34:25.303Z</time></trkpt><trkpt lat="40.8512717" lon="14.16267"><ele>160.0</ele><time>2026-04-15T16:34:26.304Z</time></trkpt><trkpt lat="40.8511917" lon="14.1625483"><ele>160.0</ele><time>2026-04-15T16:34:27.304Z</time></trkpt><trkpt lat="40.8511117" lon="14.1624233"><ele>160.0</ele><time>2026-04-15T16:34:28.304Z</time></trkpt><trkpt lat="40.8510267" lon="14.1623067"><ele>160.0</ele><time>2026-04-15T16:34:29.303Z</time></trkpt><trkpt lat="40.8509433" lon="14.162185"><ele>160.0</ele><time>2026-04-15T16:34:30.304Z</time></trkpt><trkpt lat="40.85087" lon="14.1620717"><ele>157.0</ele><time>2026-04-15T16:34:31.304Z</time></trkpt><trkpt lat="40.8508017" lon="14.1619767"><ele>154.0</ele><time>2026-04-15T16:34:32.303Z</time></trkpt><trkpt lat="40.8507333" lon="14.1619"><ele>151.0</ele><time>2026-04-15T16:34:33.304Z</time></trkpt><trkpt lat="40.8506683" lon="14.1618333"><ele>148.0</ele><time>2026-04-15T16:34:34.304Z</time></trkpt><trkpt lat="40.8506" lon="14.1617667"><ele>145.0</ele><time>2026-04-15T16:34:35.304Z</time></trkpt><trkpt lat="40.8505383" lon="14.1616967"><ele>142.0</ele><time>2026-04-15T16:34:36.305Z</time></trkpt><trkpt lat="40.85047" lon="14.1616367"><ele>142.0</ele><time>2026-04-15T16:34:37.303Z</time></trkpt><trkpt lat="40.85039" lon="14.1615883"><ele>142.0</ele><time>2026-04-15T16:34:38.305Z</time></trkpt><trkpt lat="40.8503033" lon="14.1615617"><ele>142.0</ele><time>2026-04-15T16:34:39.304Z</time></trkpt><trkpt lat="40.850215" lon="14.161565"><ele>142.0</ele><time>2026-04-15T16:34:40.303Z</time></trkpt><trkpt lat="40.8501183" lon="14.1615883"><ele>142.0</ele><time>2026-04-15T16:34:41.304Z</time></trkpt><trkpt lat="40.8500217" lon="14.161605"><ele>140.25</ele><time>2026-04-15T16:34:42.305Z</time></trkpt><trkpt lat="40.8499217" lon="14.161625"><ele>138.5</ele><time>2026-04-15T16:34:43.304Z</time></trkpt><trkpt lat="40.8498083" lon="14.1616517"><ele>136.75</ele><time>2026-04-15T16:34:44.304Z</time></trkpt><trkpt lat="40.8496917" lon="14.1616783"><ele>135.0</ele><time>2026-04-15T16:34:45.303Z</time></trkpt><trkpt lat="40.8495767" lon="14.1617167"><ele>135.0</ele><time>2026-04-15T16:34:46.305Z</time></trkpt><trkpt lat="40.849455" lon="14.1617633"><ele>135.0</ele><time>2026-04-15T16:34:47.305Z</time></trkpt><trkpt lat="40.8493383" lon="14.1618217"><ele>135.0</ele><time>2026-04-15T16:34:48.305Z</time></trkpt><trkpt lat="40.8492217" lon="14.1618833"><ele>135.0</ele><time>2026-04-15T16:34:49.304Z</time></trkpt><trkpt lat="40.8491067" lon="14.1619517"><ele>134.5</ele><time>2026-04-15T16:34:50.304Z</time></trkpt><trkpt lat="40.8489967" lon="14.1620367"><ele>134.0</ele><time>2026-04-15T16:34:51.304Z</time></trkpt><trkpt lat="40.8488883" lon="14.162125"><ele>133.5</ele><time>2026-04-15T16:34:52.303Z</time></trkpt><trkpt lat="40.84879" lon="14.1622167"><ele>133.0</ele><time>2026-04-15T16:34:53.304Z</time></trkpt><trkpt lat="40.848695" lon="14.1623267"><ele>131.5</ele><time>2026-04-15T16:34:54.304Z</time></trkpt><trkpt lat="40.8486083" lon="14.1624617"><ele>130.0</ele><time>2026-04-15T16:34:55.303Z</time></trkpt><trkpt lat="40.8485283" lon="14.1626"><ele>128.5</ele><time>2026-04-15T16:34:56.303Z</time></trkpt><trkpt lat="40.8484517" lon="14.16275"><ele>127.0</ele><time>2026-04-15T16:34:57.304Z</time></trkpt><trkpt lat="40.8483817" lon="14.1629083"><ele>125.5</ele><time>2026-04-15T16:34:58.308Z</time></trkpt><trkpt lat="40.8483233" lon="14.1630733"><ele>124.0</ele><time>2026-04-15T16:34:59.304Z</time></trkpt><trkpt lat="40.848265" lon="14.1632433"><ele>122.5</ele><time>2026-04-15T16:35:00.305Z</time></trkpt><trkpt lat="40.8482" lon="14.1634117"><ele>121.0</ele><time>2026-04-15T16:35:01.305Z</time></trkpt><trkpt lat="40.8481283" lon="14.163575"><ele>120.0</ele><time>2026-04-15T16:35:02.303Z</time></trkpt><trkpt lat="40.8480483" lon="14.1637283"><ele>119.0</ele><time>2026-04-15T16:35:03.305Z</time></trkpt><trkpt lat="40.8479533" lon="14.1638667"><ele>118.0</ele><time>2026-04-15T16:35:04.304Z</time></trkpt><trkpt lat="40.8478483" lon="14.1639867"><ele>117.0</ele><time>2026-04-15T16:35:05.304Z</time></trkpt><trkpt lat="40.8477283" lon="14.16409"><ele>115.0</ele><time>2026-04-15T16:35:06.305Z</time></trkpt><trkpt lat="40.8476" lon="14.164165"><ele>113.0</ele><time>2026-04-15T16:35:07.304Z</time></trkpt><trkpt lat="40.84746" lon="14.1642117"><ele>111.0</ele><time>2026-04-15T16:35:08.304Z</time></trkpt><trkpt lat="40.8473133" lon="14.164235"><ele>109.0</ele><time>2026-04-15T16:35:09.304Z</time></trkpt><trkpt lat="40.84717" lon="14.1642317"><ele>109.0</ele><time>2026-04-15T16:35:10.304Z</time></trkpt><trkpt lat="40.84702" lon="14.1642067"><ele>109.0</ele><time>2026-04-15T16:35:11.304Z</time></trkpt><trkpt lat="40.8468733" lon="14.16416"><ele>109.0</ele><time>2026-04-15T16:35:12.305Z</time></trkpt><trkpt lat="40.8467317" lon="14.1640983"><ele>105.0</ele><time>2026-04-15T16:35:13.308Z</time></trkpt><trkpt lat="40.84659" lon="14.1640283"><ele>101.0</ele><time>2026-04-15T16:35:14.305Z</time></trkpt><trkpt lat="40.8464517" lon="14.16395"><ele>97.0</ele><time>2026-04-15T16:35:15.303Z</time></trkpt><trkpt lat="40.8463083" lon="14.1638667"><ele>97.0</ele><time>2026-04-15T16:35:16.304Z</time></trkpt><trkpt lat="40.8461683" lon="14.1637783"><ele>97.0</ele><time>2026-04-15T16:35:17.304Z</time></trkpt><trkpt lat="40.84603" lon="14.1636917"><ele>97.0</ele><time>2026-04-15T16:35:18.304Z</time></trkpt><trkpt lat="40.84589" lon="14.1636033"><ele>93.5</ele><time>2026-04-15T16:35:19.304Z</time></trkpt><trkpt lat="40.8457483" lon="14.1635183"><ele>90.0</ele><time>2026-04-15T16:35:20.305Z</time></trkpt><trkpt lat="40.8456133" lon="14.1634533"><ele>86.5</ele><time>2026-04-15T16:35:21.303Z</time></trkpt><trkpt lat="40.8454767" lon="14.163405"><ele>83.0</ele><time>2026-04-15T16:35:22.305Z</time></trkpt><trkpt lat="40.845335" lon="14.1633817"><ele>83.0</ele><time>2026-04-15T16:35:23.304Z</time></trkpt><trkpt lat="40.84519" lon="14.1633867"><ele>83.0</ele><time>2026-04-15T16:35:24.306Z</time></trkpt><trkpt lat="40.8450483" lon="14.1634233"><ele>83.0</ele><time>2026-04-15T16:35:25.304Z</time></trkpt><trkpt lat="40.8449167" lon="14.16349"><ele>83.0</ele><time>2026-04-15T16:35:26.304Z</time></trkpt><trkpt lat="40.8447983" lon="14.1635817"><ele>85.0</ele><time>2026-04-15T16:35:27.308Z</time></trkpt><trkpt lat="40.8446967" lon="14.16369"><ele>87.0</ele><time>2026-04-15T16:35:28.308Z</time></trkpt><trkpt lat="40.844605" lon="14.1638233"><ele>89.0</ele><time>2026-04-15T16:35:29.305Z</time></trkpt><trkpt lat="40.84452" lon="14.1639583"><ele>91.0</ele><time>2026-04-15T16:35:30.305Z</time></trkpt><trkpt lat="40.84444" lon="14.16409"><ele>86.25</ele><time>2026-04-15T16:35:31.304Z</time></trkpt><trkpt lat="40.8443533" lon="14.1642133"><ele>81.5</ele><time>2026-04-15T16:35:32.308Z</time></trkpt><trkpt lat="40.8442567" lon="14.1643217"><ele>76.75</ele><time>2026-04-15T16:35:33.304Z</time></trkpt><trkpt lat="40.8441533" lon="14.164405"><ele>72.0</ele><time>2026-04-15T16:35:34.305Z</time></trkpt><trkpt lat="40.8440433" lon="14.16446"><ele>72.0</ele><time>2026-04-15T16:35:35.304Z</time></trkpt><trkpt lat="40.8439317" lon="14.1644933"><ele>72.0</ele><time>2026-04-15T16:35:36.308Z</time></trkpt><trkpt lat="40.8438217" lon="14.1645217"><ele>72.0</ele><time>2026-04-15T16:35:37.305Z</time></trkpt><trkpt lat="40.8437067" lon="14.1645333"><ele>72.0</ele><time>2026-04-15T16:35:38.305Z</time></trkpt><trkpt lat="40.843585" lon="14.1645383"><ele>72.5</ele><time>2026-04-15T16:35:39.304Z</time></trkpt><trkpt lat="40.8434633" lon="14.1645383"><ele>73.0</ele><time>2026-04-15T16:35:40.303Z</time></trkpt><trkpt lat="40.8433383" lon="14.1645267"><ele>73.5</ele><time>2026-04-15T16:35:41.305Z</time></trkpt><trkpt lat="40.84321" lon="14.1645017"><ele>74.0</ele><time>2026-04-15T16:35:42.304Z</time></trkpt><trkpt lat="40.8430817" lon="14.16447"><ele>74.0</ele><time>2026-04-15T16:35:43.305Z</time></trkpt><trkpt lat="40.842955" lon="14.1644317"><ele>74.0</ele><time>2026-04-15T16:35:44.304Z</time></trkpt><trkpt lat="40.8428267" lon="14.1643917"><ele>74.0</ele><time>2026-04-15T16:35:45.308Z</time></trkpt><trkpt lat="40.842695" lon="14.1643517"><ele>74.0</ele><time>2026-04-15T16:35:46.305Z</time></trkpt><trkpt lat="40.8425633" lon="14.164315"><ele>71.75</ele><time>2026-04-15T16:35:47.304Z</time></trkpt><trkpt lat="40.8424333" lon="14.164285"><ele>69.5</ele><time>2026-04-15T16:35:48.304Z</time></trkpt><trkpt lat="40.8423033" lon="14.1642583"><ele>67.25</ele><time>2026-04-15T16:35:49.305Z</time></trkpt><trkpt lat="40.8421717" lon="14.1642433"><ele>65.0</ele><time>2026-04-15T16:35:50.304Z</time></trkpt><trkpt lat="40.8420383" lon="14.1642383"><ele>65.0</ele><time>2026-04-15T16:35:51.305Z</time></trkpt><trkpt lat="40.8419067" lon="14.16424"><ele>65.0</ele><time>2026-04-15T16:35:52.304Z</time></trkpt><trkpt lat="40.8417733" lon="14.1642433"><ele>65.0</ele><time>2026-04-15T16:35:53.308Z</time></trkpt><trkpt lat="40.8416433" lon="14.164235"><ele>65.0</ele><time>2026-04-15T16:35:54.304Z</time></trkpt><trkpt lat="40.8415117" lon="14.1642117"><ele>65.75</ele><time>2026-04-15T16:35:55.303Z</time></trkpt><trkpt lat="40.8413833" lon="14.1641633"><ele>66.5</ele><time>2026-04-15T16:35:56.304Z</time></trkpt><trkpt lat="40.8412617" lon="14.1640967"><ele>67.25</ele><time>2026-04-15T16:35:57.304Z</time></trkpt><trkpt lat="40.8411533" lon="14.1639967"><ele>68.0</ele><time>2026-04-15T16:35:58.304Z</time></trkpt><trkpt lat="40.8410633" lon="14.163875"><ele>68.0</ele><time>2026-04-15T16:35:59.305Z</time></trkpt><trkpt lat="40.84099" lon="14.16373"><ele>68.0</ele><time>2026-04-15T16:36:00.306Z</time></trkpt><trkpt lat="40.8409383" lon="14.1635717"><ele>68.0</ele><time>2026-04-15T16:36:01.305Z</time></trkpt><trkpt lat="40.8408983" lon="14.1634083"><ele>68.0</ele><time>2026-04-15T16:36:02.305Z</time></trkpt><trkpt lat="40.8408617" lon="14.1632483"><ele>63.75</ele><time>2026-04-15T16:36:03.305Z</time></trkpt><trkpt lat="40.8408217" lon="14.1630883"><ele>59.5</ele><time>2026-04-15T16:36:04.303Z</time></trkpt><trkpt lat="40.8407767" lon="14.1629367"><ele>55.25</ele><time>2026-04-15T16:36:05.304Z</time></trkpt><trkpt lat="40.8407183" lon="14.16279"><ele>51.0</ele><time>2026-04-15T16:36:06.305Z</time></trkpt><trkpt lat="40.8406483" lon="14.162655"><ele>51.0</ele><time>2026-04-15T16:36:07.304Z</time></trkpt><trkpt lat="40.840565" lon="14.1625383"><ele>51.0</ele><time>2026-04-15T16:36:08.305Z</time></trkpt><trkpt lat="40.84047" lon="14.1624383"><ele>51.0</ele><time>2026-04-15T16:36:09.305Z</time></trkpt><trkpt lat="40.8403667" lon="14.1623517"><ele>51.0</ele><time>2026-04-15T16:36:10.303Z</time></trkpt><trkpt lat="40.840265" lon="14.1622817"><ele>50.8</ele><time>2026-04-15T16:36:11.308Z</time></trkpt><trkpt lat="40.840165" lon="14.1622267"><ele>50.599999999999994</ele><time>2026-04-15T16:36:12.304Z</time></trkpt><trkpt lat="40.8400633" lon="14.16218"><ele>50.4</ele><time>2026-04-15T16:36:13.308Z</time></trkpt><trkpt lat="40.8399617" lon="14.1621333"><ele>50.2</ele><time>2026-04-15T16:36:14.304Z</time></trkpt><trkpt lat="40.8398617" lon="14.162085"><ele>50.0</ele><time>2026-04-15T16:36:15.309Z</time></trkpt><trkpt lat="40.8397633" lon="14.1620367"><ele>50.0</ele><time>2026-04-15T16:36:16.304Z</time></trkpt><trkpt lat="40.8396667" lon="14.1619867"><ele>50.0</ele><time>2026-04-15T16:36:17.304Z</time></trkpt><trkpt lat="40.83957" lon="14.1619367"><ele>50.0</ele><time>2026-04-15T16:36:18.305Z</time></trkpt><trkpt lat="40.8394733" lon="14.1618867"><ele>50.0</ele><time>2026-04-15T16:36:19.303Z</time></trkpt><trkpt lat="40.8393767" lon="14.1618433"><ele>50.0</ele><time>2026-04-15T16:36:20.304Z</time></trkpt><trkpt lat="40.8392817" lon="14.1617983"><ele>48.6</ele><time>2026-04-15T16:36:21.305Z</time></trkpt><trkpt lat="40.839185" lon="14.1617583"><ele>47.2</ele><time>2026-04-15T16:36:22.303Z</time></trkpt><trkpt lat="40.8390867" lon="14.1617167"><ele>45.8</ele><time>2026-04-15T16:36:23.305Z</time></trkpt><trkpt lat="40.8389917" lon="14.16167"><ele>44.4</ele><time>2026-04-15T16:36:24.304Z</time></trkpt><trkpt lat="40.8388983" lon="14.16162"><ele>43.0</ele><time>2026-04-15T16:36:25.304Z</time></trkpt><trkpt lat="40.838805" lon="14.1615717"><ele>42.4</ele><time>2026-04-15T16:36:26.304Z</time></trkpt><trkpt lat="40.83871" lon="14.1615233"><ele>41.8</ele><time>2026-04-15T16:36:27.309Z</time></trkpt><trkpt lat="40.838615" lon="14.1614767"><ele>41.2</ele><time>2026-04-15T16:36:28.308Z</time></trkpt><trkpt lat="40.8385167" lon="14.1614267"><ele>40.6</ele><time>2026-04-15T16:36:29.308Z</time></trkpt><trkpt lat="40.8384217" lon="14.1613783"><ele>40.0</ele><time>2026-04-15T16:36:30.308Z</time></trkpt><trkpt lat="40.838325" lon="14.1613317"><ele>40.0</ele><time>2026-04-15T16:36:31.308Z</time></trkpt><trkpt lat="40.83823" lon="14.1612833"><ele>40.0</ele><time>2026-04-15T16:36:32.307Z</time></trkpt><trkpt lat="40.83813" lon="14.1612383"><ele>40.0</ele><time>2026-04-15T16:36:33.304Z</time></trkpt><trkpt lat="40.83803" lon="14.1611867"><ele>40.0</ele><time>2026-04-15T16:36:34.308Z</time></trkpt><trkpt lat="40.8379283" lon="14.1611333"><ele>40.0</ele><time>2026-04-15T16:36:35.308Z</time></trkpt><trkpt lat="40.837825" lon="14.1610833"><ele>40.0</ele><time>2026-04-15T16:36:36.304Z</time></trkpt><trkpt lat="40.837715" lon="14.16103"><ele>40.0</ele><time>2026-04-15T16:36:37.305Z</time></trkpt><trkpt lat="40.8376117" lon="14.1609783"><ele>40.0</ele><time>2026-04-15T16:36:38.308Z</time></trkpt><trkpt lat="40.8375" lon="14.1609217"><ele>40.0</ele><time>2026-04-15T16:36:39.303Z</time></trkpt><trkpt lat="40.837395" lon="14.1608567"><ele>39.2</ele><time>2026-04-15T16:36:40.308Z</time></trkpt><trkpt lat="40.8373" lon="14.1607867"><ele>38.4</ele><time>2026-04-15T16:36:41.308Z</time></trkpt><trkpt lat="40.8372117" lon="14.1607233"><ele>37.6</ele><time>2026-04-15T16:36:42.307Z</time></trkpt><trkpt lat="40.8371217" lon="14.1606617"><ele>36.8</ele><time>2026-04-15T16:36:43.307Z</time></trkpt><trkpt lat="40.8370283" lon="14.1605983"><ele>36.0</ele><time>2026-04-15T16:36:44.308Z</time></trkpt><trkpt lat="40.83693" lon="14.1605333"><ele>36.0</ele><time>2026-04-15T16:36:45.308Z</time></trkpt><trkpt lat="40.8368383" lon="14.1604617"><ele>36.0</ele><time>2026-04-15T16:36:46.307Z</time></trkpt><trkpt lat="40.8367567" lon="14.1603767"><ele>36.0</ele><time>2026-04-15T16:36:47.303Z</time></trkpt><trkpt lat="40.8366817" lon="14.1602933"><ele>36.0</ele><time>2026-04-15T16:36:48.304Z</time></trkpt><trkpt lat="40.8366" lon="14.1602267"><ele>36.0</ele><time>2026-04-15T16:36:49.304Z</time></trkpt><trkpt lat="40.83651" lon="14.1601967"><ele>34.6</ele><time>2026-04-15T16:36:50.305Z</time></trkpt><trkpt lat="40.8364183" lon="14.160195"><ele>33.2</ele><time>2026-04-15T16:36:51.304Z</time></trkpt><trkpt lat="40.8363367" lon="14.16022"><ele>31.799999999999997</ele><time>2026-04-15T16:36:52.304Z</time></trkpt><trkpt lat="40.8362567" lon="14.1602783"><ele>30.4</ele><time>2026-04-15T16:36:53.304Z</time></trkpt><trkpt lat="40.8361783" lon="14.1603367"><ele>29.0</ele><time>2026-04-15T16:36:54.308Z</time></trkpt><trkpt lat="40.83609" lon="14.1603867"><ele>29.0</ele><time>2026-04-15T16:36:55.304Z</time></trkpt><trkpt lat="40.8360033" lon="14.1604283"><ele>29.0</ele><time>2026-04-15T16:36:56.305Z</time></trkpt><trkpt lat="40.8359133" lon="14.1604733"><ele>29.0</ele><time>2026-04-15T16:36:57.304Z</time></trkpt><trkpt lat="40.835825" lon="14.1605267"><ele>29.0</ele><time>2026-04-15T16:36:58.304Z</time></trkpt><trkpt lat="40.8357417" lon="14.1605867"><ele>29.0</ele><time>2026-04-15T16:36:59.303Z</time></trkpt><trkpt lat="40.8356567" lon="14.1606483"><ele>27.4</ele><time>2026-04-15T16:37:00.304Z</time></trkpt><trkpt lat="40.8355733" lon="14.1607067"><ele>25.799999999999997</ele><time>2026-04-15T16:37:01.304Z</time></trkpt><trkpt lat="40.8354883" lon="14.160765"><ele>24.200000000000003</ele><time>2026-04-15T16:37:02.305Z</time></trkpt><trkpt lat="40.8354017" lon="14.16083"><ele>22.6</ele><time>2026-04-15T16:37:03.305Z</time></trkpt><trkpt lat="40.83532" lon="14.160895"><ele>21.0</ele><time>2026-04-15T16:37:04.303Z</time></trkpt><trkpt lat="40.8352367" lon="14.1609633"><ele>21.0</ele><time>2026-04-15T16:37:05.304Z</time></trkpt><trkpt lat="40.8351583" lon="14.1610283"><ele>21.0</ele><time>2026-04-15T16:37:06.305Z</time></trkpt><trkpt lat="40.835075" lon="14.1610967"><ele>21.0</ele><time>2026-04-15T16:37:07.303Z</time></trkpt><trkpt lat="40.8349883" lon="14.1611667"><ele>21.0</ele><time>2026-04-15T16:37:08.305Z</time></trkpt><trkpt lat="40.8349033" lon="14.1612267"><ele>21.0</ele><time>2026-04-15T16:37:09.305Z</time></trkpt><trkpt lat="40.8348267" lon="14.1612867"><ele>20.8</ele><time>2026-04-15T16:37:10.304Z</time></trkpt><trkpt lat="40.8347483" lon="14.1613517"><ele>20.6</ele><time>2026-04-15T16:37:11.304Z</time></trkpt><trkpt lat="40.8346667" lon="14.161415"><ele>20.4</ele><time>2026-04-15T16:37:12.305Z</time></trkpt><trkpt lat="40.8345867" lon="14.1614767"><ele>20.2</ele><time>2026-04-15T16:37:13.307Z</time></trkpt><trkpt lat="40.8345067" lon="14.16154"><ele>20.0</ele><time>2026-04-15T16:37:14.308Z</time></trkpt><trkpt lat="40.8344283" lon="14.1616017"><ele>19.4</ele><time>2026-04-15T16:37:15.306Z</time></trkpt><trkpt lat="40.8343483" lon="14.161665"><ele>18.8</ele><time>2026-04-15T16:37:16.305Z</time></trkpt><trkpt lat="40.8342717" lon="14.1617267"><ele>18.2</ele><time>2026-04-15T16:37:17.304Z</time></trkpt><trkpt lat="40.8341933" lon="14.161785"><ele>17.6</ele><time>2026-04-15T16:37:18.305Z</time></trkpt><trkpt lat="40.834115" lon="14.161845"><ele>17.0</ele><time>2026-04-15T16:37:19.304Z</time></trkpt><trkpt lat="40.8340383" lon="14.1619017"><ele>16.833333333333336</ele><time>2026-04-15T16:37:20.305Z</time></trkpt><trkpt lat="40.8339617" lon="14.161955"><ele>16.666666666666668</ele><time>2026-04-15T16:37:21.305Z</time></trkpt><trkpt lat="40.83389" lon="14.1620067"><ele>16.5</ele><time>2026-04-15T16:37:22.304Z</time></trkpt><trkpt lat="40.8338183" lon="14.1620583"><ele>16.333333333333332</ele><time>2026-04-15T16:37:23.306Z</time></trkpt><trkpt lat="40.8337467" lon="14.1621167"><ele>16.166666666666664</ele><time>2026-04-15T16:37:24.306Z</time></trkpt><trkpt lat="40.833675" lon="14.16217"><ele>16.0</ele><time>2026-04-15T16:37:25.304Z</time></trkpt><trkpt lat="40.8336067" lon="14.1622217"><ele>15.999999999999998</ele><time>2026-04-15T16:37:26.305Z</time></trkpt><trkpt lat="40.83354" lon="14.162275"><ele>16.0</ele><time>2026-04-15T16:37:27.305Z</time></trkpt><trkpt lat="40.8334767" lon="14.1623333"><ele>16.0</ele><time>2026-04-15T16:37:28.305Z</time></trkpt><trkpt lat="40.8334083" lon="14.1623917"><ele>16.0</ele><time>2026-04-15T16:37:29.305Z</time></trkpt><trkpt lat="40.8333367" lon="14.1624467"><ele>15.999999999999998</ele><time>2026-04-15T16:37:30.305Z</time></trkpt><trkpt lat="40.8332683" lon="14.1624983"><ele>16.0</ele><time>2026-04-15T16:37:31.305Z</time></trkpt><trkpt lat="40.833205" lon="14.1625533"><ele>15.600000000000001</ele><time>2026-04-15T16:37:33.308Z</time></trkpt><trkpt lat="40.833075" lon="14.1626567"><ele>15.200000000000001</ele><time>2026-04-15T16:37:34.307Z</time></trkpt><trkpt lat="40.83301" lon="14.1627083"><ele>14.799999999999999</ele><time>2026-04-15T16:37:35.304Z</time></trkpt><trkpt lat="40.8329467" lon="14.16276"><ele>14.399999999999999</ele><time>2026-04-15T16:37:36.305Z</time></trkpt><trkpt lat="40.8328817" lon="14.1628083"><ele>14.0</ele><time>2026-04-15T16:37:37.308Z</time></trkpt><trkpt lat="40.8328167" lon="14.1628567"><ele>14.0</ele><time>2026-04-15T16:37:38.305Z</time></trkpt><trkpt lat="40.83275" lon="14.1629033"><ele>14.0</ele><time>2026-04-15T16:37:39.307Z</time></trkpt><trkpt lat="40.8326817" lon="14.1629483"><ele>14.0</ele><time>2026-04-15T16:37:40.304Z</time></trkpt><trkpt lat="40.832615" lon="14.1629883"><ele>14.0</ele><time>2026-04-15T16:37:41.308Z</time></trkpt><trkpt lat="40.8325483" lon="14.1630333"><ele>14.0</ele><time>2026-04-15T16:37:42.304Z</time></trkpt><trkpt lat="40.8324867" lon="14.16308"><ele>14.0</ele><time>2026-04-15T16:37:43.304Z</time></trkpt><trkpt lat="40.8324267" lon="14.163135"><ele>14.0</ele><time>2026-04-15T16:37:44.305Z</time></trkpt><trkpt lat="40.83237" lon="14.1631917"><ele>14.0</ele><time>2026-04-15T16:37:45.308Z</time></trkpt><trkpt lat="40.8323183" lon="14.163245"><ele>14.0</ele><time>2026-04-15T16:37:46.305Z</time></trkpt><trkpt lat="40.832265" lon="14.1633017"><ele>14.0</ele><time>2026-04-15T16:37:47.305Z</time></trkpt><trkpt lat="40.83221" lon="14.1633567"><ele>14.0</ele><time>2026-04-15T16:37:48.304Z</time></trkpt><trkpt lat="40.83216" lon="14.1634183"><ele>14.0</ele><time>2026-04-15T16:37:49.304Z</time></trkpt><trkpt lat="40.8321117" lon="14.1634717"><ele>14.0</ele><time>2026-04-15T16:37:50.309Z</time></trkpt><trkpt lat="40.83206" lon="14.1635283"><ele>14.0</ele><time>2026-04-15T16:37:51.308Z</time></trkpt><trkpt lat="40.8320117" lon="14.16359"><ele>14.0</ele><time>2026-04-15T16:37:52.308Z</time></trkpt><trkpt lat="40.83196" lon="14.163645"><ele>14.0</ele><time>2026-04-15T16:37:53.303Z</time></trkpt><trkpt lat="40.8319067" lon="14.1637017"><ele>14.0</ele><time>2026-04-15T16:37:54.308Z</time></trkpt><trkpt lat="40.8318517" lon="14.1637617"><ele>14.0</ele><time>2026-04-15T16:37:55.308Z</time></trkpt><trkpt lat="40.8317983" lon="14.163815"><ele>14.0</ele><time>2026-04-15T16:37:56.309Z</time></trkpt><trkpt lat="40.8317433" lon="14.16387"><ele>14.0</ele><time>2026-04-15T16:37:57.308Z</time></trkpt><trkpt lat="40.8316883" lon="14.1639233"><ele>14.0</ele><time>2026-04-15T16:37:58.304Z</time></trkpt><trkpt lat="40.8316333" lon="14.1639733"><ele>14.142857142857142</ele><time>2026-04-15T16:37:59.304Z</time></trkpt><trkpt lat="40.8315733" lon="14.1640167"><ele>14.285714285714285</ele><time>2026-04-15T16:38:00.305Z</time></trkpt><trkpt lat="40.831515" lon="14.1640667"><ele>14.428571428571429</ele><time>2026-04-15T16:38:01.307Z</time></trkpt><trkpt lat="40.8314633" lon="14.1641217"><ele>14.571428571428571</ele><time>2026-04-15T16:38:02.309Z</time></trkpt><trkpt lat="40.83141" lon="14.1641767"><ele>14.714285714285714</ele><time>2026-04-15T16:38:03.305Z</time></trkpt><trkpt lat="40.8313567" lon="14.16423"><ele>14.857142857142858</ele><time>2026-04-15T16:38:04.308Z</time></trkpt><trkpt lat="40.8313033" lon="14.1642817"><ele>15.0</ele><time>2026-04-15T16:38:05.308Z</time></trkpt><trkpt lat="40.83125" lon="14.1643333"><ele>15.0</ele><time>2026-04-15T16:38:06.305Z</time></trkpt><trkpt lat="40.831195" lon="14.164385"><ele>15.0</ele><time>2026-04-15T16:38:07.305Z</time></trkpt><trkpt lat="40.8311383" lon="14.1644383"><ele>15.0</ele><time>2026-04-15T16:38:08.308Z</time></trkpt><trkpt lat="40.8310817" lon="14.1644933"><ele>15.0</ele><time>2026-04-15T16:38:09.308Z</time></trkpt><trkpt lat="40.8310267" lon="14.164545"><ele>15.0</ele><time>2026-04-15T16:38:10.305Z</time></trkpt><trkpt lat="40.8309717" lon="14.1645933"><ele>15.0</ele><time>2026-04-15T16:38:11.306Z</time></trkpt><trkpt lat="40.83092" lon="14.164645"><ele>15.0</ele><time>2026-04-15T16:38:12.304Z</time></trkpt><trkpt lat="40.8308233" lon="14.1647367"><ele>15.0</ele><time>2026-04-15T16:38:14.306Z</time></trkpt><trkpt lat="40.8307267" lon="14.1648183"><ele>15.0</ele><time>2026-04-15T16:38:16.304Z</time></trkpt><trkpt lat="40.830645" lon="14.164895"><ele>15.0</ele><time>2026-04-15T16:38:18.305Z</time></trkpt><trkpt lat="40.8305967" lon="14.1649567"><ele>15.0</ele><time>2026-04-15T16:38:20.305Z</time></trkpt><trkpt lat="40.8305333" lon="14.1650233"><ele>15.0</ele><time>2026-04-15T16:38:23.305Z</time></trkpt><trkpt lat="40.8304617" lon="14.1650017"><ele>15.0</ele><time>2026-04-15T16:38:26.305Z</time></trkpt><trkpt lat="40.8304483" lon="14.16488"><ele>15.4</ele><time>2026-04-15T16:38:29.305Z</time></trkpt><trkpt lat="40.8304617" lon="14.1647783"><ele>15.8</ele><time>2026-04-15T16:38:31.305Z</time></trkpt><trkpt lat="40.83048" lon="14.164665"><ele>16.2</ele><time>2026-04-15T16:38:33.305Z</time></trkpt><trkpt lat="40.8304983" lon="14.164535"><ele>16.6</ele><time>2026-04-15T16:38:35.306Z</time></trkpt><trkpt lat="40.8305167" lon="14.1644033"><ele>17.0</ele><time>2026-04-15T16:38:37.305Z</time></trkpt><trkpt lat="40.8305283" lon="14.16427"><ele>17.0</ele><time>2026-04-15T16:38:39.305Z</time></trkpt><trkpt lat="40.8305433" lon="14.16413"><ele>17.0</ele><time>2026-04-15T16:38:41.305Z</time></trkpt><trkpt lat="40.8305617" lon="14.1639917"><ele>17.0</ele><time>2026-04-15T16:38:43.305Z</time></trkpt><trkpt lat="40.830575" lon="14.16386"><ele>17.0</ele><time>2026-04-15T16:38:45.305Z</time></trkpt><trkpt lat="40.8305867" lon="14.1637333"><ele>17.0</ele><time>2026-04-15T16:38:47.305Z</time></trkpt><trkpt lat="40.8305917" lon="14.1636083"><ele>17.0</ele><time>2026-04-15T16:38:49.304Z</time></trkpt><trkpt lat="40.8305933" lon="14.163475"><ele>17.0</ele><time>2026-04-15T16:38:51.305Z</time></trkpt><trkpt lat="40.8305917" lon="14.1633417"><ele>17.0</ele><time>2026-04-15T16:38:53.304Z</time></trkpt><trkpt lat="40.8305783" lon="14.163215"><ele>17.0</ele><time>2026-04-15T16:38:55.306Z</time></trkpt><trkpt lat="40.8305533" lon="14.1630917"><ele>17.0</ele><time>2026-04-15T16:38:57.305Z</time></trkpt><trkpt lat="40.8305133" lon="14.1629617"><ele>17.2</ele><time>2026-04-15T16:38:59.306Z</time></trkpt><trkpt lat="40.830475" lon="14.162835"><ele>17.4</ele><time>2026-04-15T16:39:01.306Z</time></trkpt><trkpt lat="40.8304333" lon="14.1627167"><ele>17.6</ele><time>2026-04-15T16:39:03.304Z</time></trkpt><trkpt lat="40.8303883" lon="14.1625967"><ele>17.8</ele><time>2026-04-15T16:39:05.305Z</time></trkpt><trkpt lat="40.8303417" lon="14.162475"><ele>18.0</ele><time>2026-04-15T16:39:07.305Z</time></trkpt><trkpt lat="40.8302967" lon="14.1623517"><ele>18.0</ele><time>2026-04-15T16:39:09.305Z</time></trkpt><trkpt lat="40.8302483" lon="14.16223"><ele>18.0</ele><time>2026-04-15T16:39:11.305Z</time></trkpt><trkpt lat="40.8301967" lon="14.162105"><ele>18.0</ele><time>2026-04-15T16:39:13.305Z</time></trkpt><trkpt lat="40.83015" lon="14.1619933"><ele>18.0</ele><time>2026-04-15T16:39:15.305Z</time></trkpt><trkpt lat="40.830105" lon="14.161875"><ele>18.0</ele><time>2026-04-15T16:39:17.305Z</time></trkpt><trkpt lat="40.8300583" lon="14.1617617"><ele>18.2</ele><time>2026-04-15T16:39:19.304Z</time></trkpt><trkpt lat="40.8300083" lon="14.1616433"><ele>18.4</ele><time>2026-04-15T16:39:21.305Z</time></trkpt><trkpt lat="40.8299617" lon="14.1615217"><ele>18.599999999999998</ele><time>2026-04-15T16:39:23.305Z</time></trkpt><trkpt lat="40.8299217" lon="14.1613983"><ele>18.8</ele><time>2026-04-15T16:39:25.304Z</time></trkpt><trkpt lat="40.8298733" lon="14.1612867"><ele>19.0</ele><time>2026-04-15T16:39:27.305Z</time></trkpt><trkpt lat="40.8298283" lon="14.16117"><ele>19.0</ele><time>2026-04-15T16:39:29.305Z</time></trkpt><trkpt lat="40.82978" lon="14.161055"><ele>19.0</ele><time>2026-04-15T16:39:31.304Z</time></trkpt><trkpt lat="40.8297333" lon="14.1609367"><ele>19.0</ele><time>2026-04-15T16:39:33.305Z</time></trkpt><trkpt lat="40.8296933" lon="14.16082"><ele>19.0</ele><time>2026-04-15T16:39:35.305Z</time></trkpt><trkpt lat="40.8296533" lon="14.1607"><ele>19.0</ele><time>2026-04-15T16:39:37.304Z</time></trkpt><trkpt lat="40.8296033" lon="14.1605783"><ele>19.0</ele><time>2026-04-15T16:39:39.304Z</time></trkpt><trkpt lat="40.8295533" lon="14.1604517"><ele>19.0</ele><time>2026-04-15T16:39:41.304Z</time></trkpt><trkpt lat="40.8295083" lon="14.1603333"><ele>19.0</ele><time>2026-04-15T16:39:43.304Z</time></trkpt><trkpt lat="40.829455" lon="14.16022"><ele>19.0</ele><time>2026-04-15T16:39:45.303Z</time></trkpt><trkpt lat="40.8293933" lon="14.16011"><ele>19.0</ele><time>2026-04-15T16:39:47.304Z</time></trkpt><trkpt lat="40.8293567" lon="14.15999"><ele>19.0</ele><time>2026-04-15T16:39:49.304Z</time></trkpt><trkpt lat="40.8293183" lon="14.1598683"><ele>19.0</ele><time>2026-04-15T16:39:51.303Z</time></trkpt><trkpt lat="40.8292767" lon="14.15974"><ele>19.0</ele><time>2026-04-15T16:39:53.305Z</time></trkpt><trkpt lat="40.829235" lon="14.159605"><ele>19.0</ele><time>2026-04-15T16:39:55.303Z</time></trkpt><trkpt lat="40.8291967" lon="14.1594767"><ele>19.0</ele><time>2026-04-15T16:39:57.304Z</time></trkpt><trkpt lat="40.82916" lon="14.1593567"><ele>19.2</ele><time>2026-04-15T16:39:59.304Z</time></trkpt><trkpt lat="40.8291183" lon="14.15924"><ele>19.4</ele><time>2026-04-15T16:40:01.304Z</time></trkpt><trkpt lat="40.8290833" lon="14.15912"><ele>19.6</ele><time>2026-04-15T16:40:03.304Z</time></trkpt><trkpt lat="40.82904" lon="14.159005"><ele>19.8</ele><time>2026-04-15T16:40:05.304Z</time></trkpt><trkpt lat="40.82899" lon="14.158885"><ele>20.0</ele><time>2026-04-15T16:40:07.304Z</time></trkpt><trkpt lat="40.8289517" lon="14.15876"><ele>20.2</ele><time>2026-04-15T16:40:09.304Z</time></trkpt><trkpt lat="40.8289033" lon="14.15864"><ele>20.4</ele><time>2026-04-15T16:40:11.304Z</time></trkpt><trkpt lat="40.8288633" lon="14.1585117"><ele>20.6</ele><time>2026-04-15T16:40:13.304Z</time></trkpt><trkpt lat="40.8288233" lon="14.158385"><ele>20.8</ele><time>2026-04-15T16:40:15.305Z</time></trkpt><trkpt lat="40.8287717" lon="14.1582667"><ele>21.0</ele><time>2026-04-15T16:40:17.303Z</time></trkpt><trkpt lat="40.8287233" lon="14.1581467"><ele>21.4</ele><time>2026-04-15T16:40:19.304Z</time></trkpt><trkpt lat="40.828675" lon="14.1580267"><ele>21.8</ele><time>2026-04-15T16:40:21.305Z</time></trkpt><trkpt lat="40.828625" lon="14.157905"><ele>22.2</ele><time>2026-04-15T16:40:23.304Z</time></trkpt><trkpt lat="40.8285767" lon="14.157785"><ele>22.599999999999998</ele><time>2026-04-15T16:40:25.305Z</time></trkpt><trkpt lat="40.828535" lon="14.1576583"><ele>23.0</ele><time>2026-04-15T16:40:27.304Z</time></trkpt><trkpt lat="40.8285017" lon="14.15754"><ele>22.799999999999997</ele><time>2026-04-15T16:40:29.303Z</time></trkpt><trkpt lat="40.828465" lon="14.1574183"><ele>22.6</ele><time>2026-04-15T16:40:31.305Z</time></trkpt><trkpt lat="40.828425" lon="14.1572983"><ele>22.4</ele><time>2026-04-15T16:40:33.305Z</time></trkpt><trkpt lat="40.8283867" lon="14.157165"><ele>22.200000000000003</ele><time>2026-04-15T16:40:35.304Z</time></trkpt><trkpt lat="40.8283433" lon="14.1570417"><ele>22.0</ele><time>2026-04-15T16:40:37.303Z</time></trkpt><trkpt lat="40.8283" lon="14.1569133"><ele>22.400000000000002</ele><time>2026-04-15T16:40:39.304Z</time></trkpt><trkpt lat="40.8282567" lon="14.1567917"><ele>22.8</ele><time>2026-04-15T16:40:41.304Z</time></trkpt><trkpt lat="40.8282183" lon="14.1566733"><ele>23.2</ele><time>2026-04-15T16:40:43.304Z</time></trkpt><trkpt lat="40.828185" lon="14.15655"><ele>23.6</ele><time>2026-04-15T16:40:45.304Z</time></trkpt><trkpt lat="40.82815" lon="14.15643"><ele>24.0</ele><time>2026-04-15T16:40:47.303Z</time></trkpt><trkpt lat="40.828105" lon="14.1563083"><ele>24.2</ele><time>2026-04-15T16:40:49.304Z</time></trkpt><trkpt lat="40.8280733" lon="14.1561883"><ele>24.4</ele><time>2026-04-15T16:40:51.305Z</time></trkpt><trkpt lat="40.8280433" lon="14.1560583"><ele>24.6</ele><time>2026-04-15T16:40:53.304Z</time></trkpt><trkpt lat="40.82802" lon="14.1559317"><ele>24.8</ele><time>2026-04-15T16:40:55.305Z</time></trkpt><trkpt lat="40.82799" lon="14.1558133"><ele>25.0</ele><time>2026-04-15T16:40:57.304Z</time></trkpt><trkpt lat="40.8279617" lon="14.1556883"><ele>25.166666666666668</ele><time>2026-04-15T16:40:59.303Z</time></trkpt><trkpt lat="40.8279433" lon="14.155575"><ele>25.333333333333336</ele><time>2026-04-15T16:41:01.303Z</time></trkpt><trkpt lat="40.8279233" lon="14.15547"><ele>25.5</ele><time>2026-04-15T16:41:03.305Z</time></trkpt><trkpt lat="40.8279083" lon="14.15536"><ele>25.666666666666664</ele><time>2026-04-15T16:41:05.304Z</time></trkpt><trkpt lat="40.827885" lon="14.1552533"><ele>25.833333333333332</ele><time>2026-04-15T16:41:07.304Z</time></trkpt><trkpt lat="40.827865" lon="14.1551383"><ele>26.0</ele><time>2026-04-15T16:41:09.305Z</time></trkpt><trkpt lat="40.82785" lon="14.1550317"><ele>25.999999999999996</ele><time>2026-04-15T16:41:11.304Z</time></trkpt><trkpt lat="40.82783" lon="14.15493"><ele>26.0</ele><time>2026-04-15T16:41:13.305Z</time></trkpt><trkpt lat="40.8278133" lon="14.154825"><ele>26.0</ele><time>2026-04-15T16:41:15.305Z</time></trkpt><trkpt lat="40.827805" lon="14.1547167"><ele>26.0</ele><time>2026-04-15T16:41:17.305Z</time></trkpt><trkpt lat="40.8277983" lon="14.154625"><ele>25.999999999999996</ele><time>2026-04-15T16:41:19.307Z</time></trkpt><trkpt lat="40.8277917" lon="14.154525"><ele>26.0</ele><time>2026-04-15T16:41:21.304Z</time></trkpt><trkpt lat="40.827795" lon="14.15443"><ele>26.166666666666664</ele><time>2026-04-15T16:41:23.304Z</time></trkpt><trkpt lat="40.8277967" lon="14.15434"><ele>26.333333333333332</ele><time>2026-04-15T16:41:25.304Z</time></trkpt><trkpt lat="40.8277983" lon="14.15425"><ele>26.5</ele><time>2026-04-15T16:41:27.304Z</time></trkpt><trkpt lat="40.8278017" lon="14.15414"><ele>26.666666666666664</ele><time>2026-04-15T16:41:30.305Z</time></trkpt><trkpt lat="40.8278067" lon="14.15403"><ele>26.833333333333332</ele><time>2026-04-15T16:41:33.323Z</time></trkpt><trkpt lat="40.8278117" lon="14.1539267"><ele>27.0</ele><time>2026-04-15T16:41:36.305Z</time></trkpt><trkpt lat="40.8278067" lon="14.153825"><ele>27.285714285714285</ele><time>2026-04-15T16:41:39.303Z</time></trkpt><trkpt lat="40.8277983" lon="14.1537383"><ele>27.57142857142857</ele><time>2026-04-15T16:41:42.304Z</time></trkpt><trkpt lat="40.827785" lon="14.1536517"><ele>27.85714285714286</ele><time>2026-04-15T16:41:45.304Z</time></trkpt><trkpt lat="40.8277617" lon="14.153545"><ele>28.142857142857146</ele><time>2026-04-15T16:41:48.305Z</time></trkpt><trkpt lat="40.82774" lon="14.1534567"><ele>28.42857142857143</ele><time>2026-04-15T16:41:51.304Z</time></trkpt><trkpt lat="40.8277217" lon="14.1533567"><ele>28.71428571428572</ele><time>2026-04-15T16:41:54.304Z</time></trkpt><trkpt lat="40.8277" lon="14.1532733"><ele>29.000000000000004</ele><time>2026-04-15T16:41:57.304Z</time></trkpt><trkpt lat="40.8276667" lon="14.1531767"><ele>29.571428571428577</ele><time>2026-04-15T16:42:00.304Z</time></trkpt><trkpt lat="40.827625" lon="14.1530883"><ele>30.142857142857146</ele><time>2026-04-15T16:42:03.309Z</time></trkpt><trkpt lat="40.8275933" lon="14.153"><ele>30.714285714285715</ele><time>2026-04-15T16:42:06.308Z</time></trkpt><trkpt lat="40.8275583" lon="14.152925"><ele>31.28571428571429</ele><time>2026-04-15T16:42:09.306Z</time></trkpt><trkpt lat="40.827525" lon="14.1528317"><ele>31.85714285714286</ele><time>2026-04-15T16:42:13.306Z</time></trkpt><trkpt lat="40.8274883" lon="14.1527417"><ele>32.42857142857143</ele><time>2026-04-15T16:42:17.305Z</time></trkpt><trkpt lat="40.8274483" lon="14.152665"><ele>33.0</ele><time>2026-04-15T16:42:20.306Z</time></trkpt><trkpt lat="40.8274017" lon="14.1525783"><ele>33.0</ele><time>2026-04-15T16:42:24.303Z</time></trkpt><trkpt lat="40.8273633" lon="14.1525067"><ele>33.0</ele><time>2026-04-15T16:42:27.304Z</time></trkpt><trkpt lat="40.8273217" lon="14.15244"><ele>33.0</ele><time>2026-04-15T16:42:30.305Z</time></trkpt><trkpt lat="40.8272767" lon="14.1523583"><ele>33.0</ele><time>2026-04-15T16:42:34.306Z</time></trkpt><trkpt lat="40.827225" lon="14.1522967"><ele>33.0</ele><time>2026-04-15T16:42:37.306Z</time></trkpt><trkpt lat="40.8271717" lon="14.1522467"><ele>33.0</ele><time>2026-04-15T16:42:40.309Z</time></trkpt><trkpt lat="40.8271067" lon="14.1522"><ele>33.0</ele><time>2026-04-15T16:42:44.306Z</time></trkpt><trkpt lat="40.82704" lon="14.1521517"><ele>32.857142857142854</ele><time>2026-04-15T16:42:47.305Z</time></trkpt><trkpt lat="40.8269783" lon="14.1521083"><ele>32.714285714285715</ele><time>2026-04-15T16:42:50.309Z</time></trkpt><trkpt lat="40.8269083" lon="14.15208"><ele>32.57142857142857</ele><time>2026-04-15T16:42:53.307Z</time></trkpt><trkpt lat="40.826845" lon="14.152065"><ele>32.42857142857143</ele><time>2026-04-15T16:42:56.307Z</time></trkpt><trkpt lat="40.8267717" lon="14.1520517"><ele>32.285714285714285</ele><time>2026-04-15T16:42:59.306Z</time></trkpt><trkpt lat="40.8267017" lon="14.152035"><ele>32.14285714285714</ele><time>2026-04-15T16:43:02.306Z</time></trkpt><trkpt lat="40.8266367" lon="14.1520333"><ele>32.0</ele><time>2026-04-15T16:43:05.307Z</time></trkpt><trkpt lat="40.8265517" lon="14.1520283"><ele>34.285714285714285</ele><time>2026-04-15T16:43:09.305Z</time></trkpt><trkpt lat="40.8264733" lon="14.1520233"><ele>36.57142857142857</ele><time>2026-04-15T16:43:12.306Z</time></trkpt><trkpt lat="40.8264067" lon="14.1520317"><ele>38.857142857142854</ele><time>2026-04-15T16:43:15.308Z</time></trkpt><trkpt lat="40.8263333" lon="14.1520433"><ele>41.14285714285714</ele><time>2026-04-15T16:43:18.31Z</time></trkpt><trkpt lat="40.82626" lon="14.1520517"><ele>43.42857142857143</ele><time>2026-04-15T16:43:21.306Z</time></trkpt><trkpt lat="40.8261933" lon="14.1520583"><ele>45.71428571428571</ele><time>2026-04-15T16:43:24.305Z</time></trkpt><trkpt lat="40.8261283" lon="14.1520733"><ele>48.0</ele><time>2026-04-15T16:43:27.306Z</time></trkpt><trkpt lat="40.82606" lon="14.1520633"><ele>47.99999999999999</ele><time>2026-04-15T16:43:30.306Z</time></trkpt><trkpt lat="40.8259883" lon="14.1520483"><ele>48.0</ele><time>2026-04-15T16:43:33.309Z</time></trkpt><trkpt lat="40.825915" lon="14.1520517"><ele>48.0</ele><time>2026-04-15T16:43:36.31Z</time></trkpt><trkpt lat="40.8258483" lon="14.1520467"><ele>48.0</ele><time>2026-04-15T16:43:39.309Z</time></trkpt><trkpt lat="40.8257767" lon="14.1520517"><ele>48.0</ele><time>2026-04-15T16:43:42.305Z</time></trkpt><trkpt lat="40.8257033" lon="14.1520317"><ele>47.99999999999999</ele><time>2026-04-15T16:43:45.305Z</time></trkpt><trkpt lat="40.8256317" lon="14.152015"><ele>48.0</ele><time>2026-04-15T16:43:48.306Z</time></trkpt><trkpt lat="40.8255667" lon="14.152005"><ele>48.857142857142854</ele><time>2026-04-15T16:43:51.308Z</time></trkpt><trkpt lat="40.8254967" lon="14.151985"><ele>49.714285714285715</ele><time>2026-04-15T16:43:54.309Z</time></trkpt><trkpt lat="40.82542" lon="14.151965"><ele>50.57142857142857</ele><time>2026-04-15T16:43:57.304Z</time></trkpt><trkpt lat="40.8253533" lon="14.1519483"><ele>51.42857142857143</ele><time>2026-04-15T16:44:00.305Z</time></trkpt><trkpt lat="40.82529" lon="14.1519283"><ele>52.285714285714285</ele><time>2026-04-15T16:44:03.307Z</time></trkpt><trkpt lat="40.8252317" lon="14.1518867"><ele>53.14285714285714</ele><time>2026-04-15T16:44:06.307Z</time></trkpt><trkpt lat="40.82519" lon="14.1518017"><ele>54.0</ele><time>2026-04-15T16:44:09.306Z</time></trkpt><trkpt lat="40.825165" lon="14.1517083"><ele>54.833333333333336</ele><time>2026-04-15T16:44:12.305Z</time></trkpt><trkpt lat="40.8251433" lon="14.1516083"><ele>55.66666666666667</ele><time>2026-04-15T16:44:15.307Z</time></trkpt><trkpt lat="40.82512" lon="14.1515083"><ele>56.5</ele><time>2026-04-15T16:44:18.307Z</time></trkpt><trkpt lat="40.82509" lon="14.1514033"><ele>57.333333333333336</ele><time>2026-04-15T16:44:21.306Z</time></trkpt><trkpt lat="40.8250583" lon="14.151295"><ele>58.16666666666667</ele><time>2026-04-15T16:44:24.305Z</time></trkpt><trkpt lat="40.8250367" lon="14.1512167"><ele>59.0</ele><time>2026-04-15T16:44:26.306Z</time></trkpt><trkpt lat="40.8250117" lon="14.151115"><ele>59.00000000000001</ele><time>2026-04-15T16:44:29.307Z</time></trkpt><trkpt lat="40.8249817" lon="14.1510083"><ele>59.0</ele><time>2026-04-15T16:44:32.306Z</time></trkpt><trkpt lat="40.8249567" lon="14.1509083"><ele>59.0</ele><time>2026-04-15T16:44:35.306Z</time></trkpt><trkpt lat="40.8249333" lon="14.1508"><ele>59.0</ele><time>2026-04-15T16:44:38.307Z</time></trkpt><trkpt lat="40.8249133" lon="14.1506833"><ele>59.00000000000001</ele><time>2026-04-15T16:44:41.307Z</time></trkpt><trkpt lat="40.8249" lon="14.1505933"><ele>59.0</ele><time>2026-04-15T16:44:43.306Z</time></trkpt><trkpt lat="40.8248883" lon="14.1505067"><ele>58.857142857142854</ele><time>2026-04-15T16:44:45.304Z</time></trkpt><trkpt lat="40.82487" lon="14.1504167"><ele>58.71428571428572</ele><time>2026-04-15T16:44:47.307Z</time></trkpt><trkpt lat="40.8248567" lon="14.1503233"><ele>58.57142857142858</ele><time>2026-04-15T16:44:49.308Z</time></trkpt><trkpt lat="40.82484" lon="14.1502267"><ele>58.42857142857143</ele><time>2026-04-15T16:44:51.305Z</time></trkpt><trkpt lat="40.8248217" lon="14.1501283"><ele>58.28571428571429</ele><time>2026-04-15T16:44:53.308Z</time></trkpt><trkpt lat="40.8248083" lon="14.15003"><ele>58.14285714285715</ele><time>2026-04-15T16:44:55.305Z</time></trkpt><trkpt lat="40.8247983" lon="14.14993"><ele>58.00000000000001</ele><time>2026-04-15T16:44:57.305Z</time></trkpt><trkpt lat="40.824795" lon="14.1498317"><ele>58.42857142857144</ele><time>2026-04-15T16:44:59.306Z</time></trkpt><trkpt lat="40.824805" lon="14.14974"><ele>58.85714285714286</ele><time>2026-04-15T16:45:01.307Z</time></trkpt><trkpt lat="40.8248117" lon="14.1496417"><ele>59.285714285714285</ele><time>2026-04-15T16:45:03.305Z</time></trkpt><trkpt lat="40.8248167" lon="14.1495417"><ele>59.714285714285715</ele><time>2026-04-15T16:45:05.307Z</time></trkpt><trkpt lat="40.82483" lon="14.14946"><ele>60.14285714285714</ele><time>2026-04-15T16:45:07.305Z</time></trkpt><trkpt lat="40.8248467" lon="14.1493783"><ele>60.57142857142856</ele><time>2026-04-15T16:45:09.305Z</time></trkpt><trkpt lat="40.824865" lon="14.1492967"><ele>60.99999999999999</ele><time>2026-04-15T16:45:11.305Z</time></trkpt><trkpt lat="40.824885" lon="14.14919"><ele>60.99999999999999</ele><time>2026-04-15T16:45:14.306Z</time></trkpt><trkpt lat="40.824905" lon="14.1490883"><ele>61.0</ele><time>2026-04-15T16:45:17.306Z</time></trkpt><trkpt lat="40.8249283" lon="14.1489917"><ele>60.99999999999999</ele><time>2026-04-15T16:45:20.306Z</time></trkpt><trkpt lat="40.8249467" lon="14.1489"><ele>60.99999999999999</ele><time>2026-04-15T16:45:23.306Z</time></trkpt><trkpt lat="40.8249567" lon="14.1488167"><ele>61.0</ele><time>2026-04-15T16:45:26.305Z</time></trkpt><trkpt lat="40.82497" lon="14.1487317"><ele>60.99999999999999</ele><time>2026-04-15T16:45:29.306Z</time></trkpt><trkpt lat="40.8249817" lon="14.1486233"><ele>60.99999999999999</ele><time>2026-04-15T16:45:33.306Z</time></trkpt><trkpt lat="40.8250133" lon="14.1485483"><ele>61.28571428571428</ele><time>2026-04-15T16:45:36.307Z</time></trkpt><trkpt lat="40.825035" lon="14.1484483"><ele>61.57142857142857</ele><time>2026-04-15T16:45:40.306Z</time></trkpt><trkpt lat="40.825055" lon="14.148365"><ele>61.857142857142854</ele><time>2026-04-15T16:45:43.305Z</time></trkpt><trkpt lat="40.8250667" lon="14.1482733"><ele>62.14285714285714</ele><time>2026-04-15T16:45:46.304Z</time></trkpt><trkpt lat="40.825085" lon="14.1481917"><ele>62.42857142857143</ele><time>2026-04-15T16:45:49.306Z</time></trkpt><trkpt lat="40.8251033" lon="14.1481067"><ele>62.714285714285715</ele><time>2026-04-15T16:45:52.305Z</time></trkpt><trkpt lat="40.825125" lon="14.1480017"><ele>63.0</ele><time>2026-04-15T16:45:56.305Z</time></trkpt><trkpt lat="40.8251433" lon="14.14791"><ele>64.57142857142857</ele><time>2026-04-15T16:46:00.305Z</time></trkpt><trkpt lat="40.8251533" lon="14.147825"><ele>66.14285714285714</ele><time>2026-04-15T16:46:04.304Z</time></trkpt><trkpt lat="40.82517" lon="14.1477417"><ele>67.71428571428572</ele><time>2026-04-15T16:46:08.306Z</time></trkpt><trkpt lat="40.8251933" lon="14.1476633"><ele>69.28571428571428</ele><time>2026-04-15T16:46:12.305Z</time></trkpt><trkpt lat="40.8251983" lon="14.1475633"><ele>70.85714285714286</ele><time>2026-04-15T16:46:17.305Z</time></trkpt><trkpt lat="40.82521" lon="14.1474667"><ele>72.42857142857143</ele><time>2026-04-15T16:46:23.306Z</time></trkpt><trkpt lat="40.8252333" lon="14.147385"><ele>74.0</ele><time>2026-04-15T16:46:28.305Z</time></trkpt><trkpt lat="40.82526" lon="14.1473083"><ele>76.85714285714286</ele><time>2026-04-15T16:46:33.306Z</time></trkpt><trkpt lat="40.8253067" lon="14.1472217"><ele>79.71428571428571</ele><time>2026-04-15T16:46:39.305Z</time></trkpt><trkpt lat="40.8253533" lon="14.1471483"><ele>82.57142857142857</ele><time>2026-04-15T16:46:42.305Z</time></trkpt><trkpt lat="40.8253983" lon="14.1470683"><ele>85.42857142857143</ele><time>2026-04-15T16:46:47.306Z</time></trkpt><trkpt lat="40.8254317" lon="14.1469767"><ele>88.28571428571428</ele><time>2026-04-15T16:46:52.305Z</time></trkpt><trkpt lat="40.8254517" lon="14.1468867"><ele>91.14285714285714</ele><time>2026-04-15T16:46:56.307Z</time></trkpt><trkpt lat="40.825465" lon="14.1467917"><ele>94.0</ele><time>2026-04-15T16:47:01.305Z</time></trkpt><trkpt lat="40.8254517" lon="14.1466933"><ele>94.0</ele><time>2026-04-15T16:47:06.306Z</time></trkpt><trkpt lat="40.82542" lon="14.1466167"><ele>94.0</ele><time>2026-04-15T16:47:10.306Z</time></trkpt><trkpt lat="40.8253667" lon="14.1465667"><ele>94.0</ele><time>2026-04-15T16:47:14.307Z</time></trkpt><trkpt lat="40.8253067" lon="14.1465033"><ele>94.0</ele><time>2026-04-15T16:47:18.306Z</time></trkpt><trkpt lat="40.8252283" lon="14.14647"><ele>94.0</ele><time>2026-04-15T16:47:23.306Z</time></trkpt><trkpt lat="40.8251683" lon="14.1464383"><ele>94.0</ele><time>2026-04-15T16:47:26.305Z</time></trkpt><trkpt lat="40.8251033" lon="14.1463933"><ele>94.0</ele><time>2026-04-15T16:47:30.306Z</time></trkpt><trkpt lat="40.8250433" lon="14.14636"><ele>96.14285714285714</ele><time>2026-04-15T16:47:33.305Z</time></trkpt><trkpt lat="40.824975" lon="14.146325"><ele>98.28571428571428</ele><time>2026-04-15T16:47:37.306Z</time></trkpt><trkpt lat="40.824905" lon="14.1462917"><ele>100.42857142857143</ele><time>2026-04-15T16:47:41.307Z</time></trkpt><trkpt lat="40.8248417" lon="14.1462567"><ele>102.57142857142857</ele><time>2026-04-15T16:47:45.305Z</time></trkpt><trkpt lat="40.82478" lon="14.146215"><ele>104.71428571428572</ele><time>2026-04-15T16:47:49.306Z</time></trkpt><trkpt lat="40.8247183" lon="14.1461833"><ele>106.85714285714286</ele><time>2026-04-15T16:47:52.305Z</time></trkpt><trkpt lat="40.82466" lon="14.14612"><ele>109.0</ele><time>2026-04-15T16:47:56.307Z</time></trkpt><trkpt lat="40.824595" lon="14.1460667"><ele>109.0</ele><time>2026-04-15T16:48:00.305Z</time></trkpt><trkpt lat="40.824535" lon="14.1460233"><ele>109.0</ele><time>2026-04-15T16:48:03.306Z</time></trkpt><trkpt lat="40.8244817" lon="14.1459717"><ele>109.0</ele><time>2026-04-15T16:48:06.306Z</time></trkpt><trkpt lat="40.824435" lon="14.1459117"><ele>109.0</ele><time>2026-04-15T16:48:09.306Z</time></trkpt><trkpt lat="40.824385" lon="14.14585"><ele>109.0</ele><time>2026-04-15T16:48:13.304Z</time></trkpt><trkpt lat="40.8243383" lon="14.14578"><ele>109.0</ele><time>2026-04-15T16:48:17.305Z</time></trkpt><trkpt lat="40.8243067" lon="14.1456983"><ele>109.0</ele><time>2026-04-15T16:48:21.307Z</time></trkpt><trkpt lat="40.8242683" lon="14.1456083"><ele>108.66666666666667</ele><time>2026-04-15T16:48:25.305Z</time></trkpt><trkpt lat="40.8241933" lon="14.1455533"><ele>108.33333333333334</ele><time>2026-04-15T16:48:29.305Z</time></trkpt><trkpt lat="40.82412" lon="14.145525"><ele>108.0</ele><time>2026-04-15T16:48:32.306Z</time></trkpt><trkpt lat="40.824045" lon="14.1454883"><ele>107.66666666666666</ele><time>2026-04-15T16:48:35.306Z</time></trkpt><trkpt lat="40.82396" lon="14.1454517"><ele>107.33333333333333</ele><time>2026-04-15T16:48:38.305Z</time></trkpt><trkpt lat="40.8238967" lon="14.1454267"><ele>107.0</ele><time>2026-04-15T16:48:40.307Z</time></trkpt><trkpt lat="40.8238317" lon="14.1454033"><ele>107.00000000000001</ele><time>2026-04-15T16:48:42.306Z</time></trkpt><trkpt lat="40.823765" lon="14.1453667"><ele>107.0</ele><time>2026-04-15T16:48:44.305Z</time></trkpt><trkpt lat="40.8237067" lon="14.145325"><ele>107.0</ele><time>2026-04-15T16:48:46.306Z</time></trkpt><trkpt lat="40.8236583" lon="14.1452633"><ele>107.0</ele><time>2026-04-15T16:48:48.307Z</time></trkpt><trkpt lat="40.8236167" lon="14.1451983"><ele>107.0</ele><time>2026-04-15T16:48:50.307Z</time></trkpt><trkpt lat="40.8235767" lon="14.1451217"><ele>107.00000000000001</ele><time>2026-04-15T16:48:52.307Z</time></trkpt><trkpt lat="40.8235367" lon="14.1450467"><ele>107.0</ele><time>2026-04-15T16:48:54.307Z</time></trkpt><trkpt lat="40.8234867" lon="14.14498"><ele>107.83333333333333</ele><time>2026-04-15T16:48:56.306Z</time></trkpt><trkpt lat="40.823425" lon="14.14493"><ele>108.66666666666666</ele><time>2026-04-15T16:48:58.306Z</time></trkpt><trkpt lat="40.823355" lon="14.1449067"><ele>109.5</ele><time>2026-04-15T16:49:00.305Z</time></trkpt><trkpt lat="40.8232867" lon="14.1449117"><ele>110.33333333333334</ele><time>2026-04-15T16:49:02.306Z</time></trkpt><trkpt lat="40.8231983" lon="14.14496"><ele>111.16666666666667</ele><time>2026-04-15T16:49:05.305Z</time></trkpt><trkpt lat="40.8231433" lon="14.1450167"><ele>112.0</ele><time>2026-04-15T16:49:07.306Z</time></trkpt><trkpt lat="40.8230967" lon="14.1450967"><ele>112.0</ele><time>2026-04-15T16:49:09.306Z</time></trkpt><trkpt lat="40.8230683" lon="14.14518"><ele>112.0</ele><time>2026-04-15T16:49:11.307Z</time></trkpt><trkpt lat="40.8230667" lon="14.1452733"><ele>112.0</ele><time>2026-04-15T16:49:13.308Z</time></trkpt><trkpt lat="40.8230917" lon="14.1453617"><ele>112.0</ele><time>2026-04-15T16:49:15.306Z</time></trkpt><trkpt lat="40.8231183" lon="14.1454417"><ele>112.0</ele><time>2026-04-15T16:49:17.305Z</time></trkpt><trkpt lat="40.8231567" lon="14.14552"><ele>112.0</ele><time>2026-04-15T16:49:19.307Z</time></trkpt><trkpt lat="40.8232017" lon="14.1456"><ele>112.0</ele><time>2026-04-15T16:49:21.307Z</time></trkpt><trkpt lat="40.8232467" lon="14.145675"><ele>111.0</ele><time>2026-04-15T16:49:23.306Z</time></trkpt><trkpt lat="40.823285" lon="14.1457633"><ele>110.0</ele><time>2026-04-15T16:49:25.306Z</time></trkpt><trkpt lat="40.82331" lon="14.1458533"><ele>109.0</ele><time>2026-04-15T16:49:27.306Z</time></trkpt><trkpt lat="40.82332" lon="14.1459583"><ele>108.0</ele><time>2026-04-15T16:49:29.305Z</time></trkpt><trkpt lat="40.823305" lon="14.1460583"><ele>107.0</ele><time>2026-04-15T16:49:31.307Z</time></trkpt><trkpt lat="40.8232583" lon="14.1461267"><ele>106.0</ele><time>2026-04-15T16:49:33.306Z</time></trkpt><trkpt lat="40.8231917" lon="14.146155"><ele>105.0</ele><time>2026-04-15T16:49:35.306Z</time></trkpt><trkpt lat="40.8231283" lon="14.1461583"><ele>105.0</ele><time>2026-04-15T16:49:37.305Z</time></trkpt><trkpt lat="40.8230667" lon="14.1461167"><ele>105.0</ele><time>2026-04-15T16:49:40.306Z</time></trkpt><trkpt lat="40.8230283" lon="14.1460467"><ele>105.0</ele><time>2026-04-15T16:49:43.305Z</time></trkpt><trkpt lat="40.823015" lon="14.1459367"><ele>105.0</ele><time>2026-04-15T16:49:47.305Z</time></trkpt><trkpt lat="40.8230163" lon="14.1458455"><ele>105.0</ele><time>2026-04-15T16:49:50.419Z</time></trkpt><trkpt lat="40.8230233" lon="14.14574"><ele>105.0</ele><time>2026-04-15T16:49:55.306Z</time></trkpt><trkpt lat="40.823005" lon="14.1456517"><ele>105.0</ele><time>2026-04-15T16:49:59.306Z</time></trkpt><trkpt lat="40.8229583" lon="14.1455817"><ele>106.0</ele><time>2026-04-15T16:50:04.305Z</time></trkpt><trkpt lat="40.8228967" lon="14.1455217"><ele>107.0</ele><time>2026-04-15T16:50:09.305Z</time></trkpt><trkpt lat="40.8228333" lon="14.145495"><ele>108.0</ele><time>2026-04-15T16:50:13.306Z</time></trkpt><trkpt lat="40.8227717" lon="14.1454433"><ele>109.0</ele><time>2026-04-15T16:50:17.306Z</time></trkpt><trkpt lat="40.8227117" lon="14.14541"><ele>110.0</ele><time>2026-04-15T16:50:21.304Z</time></trkpt><trkpt lat="40.82264" lon="14.1453617"><ele>111.0</ele><time>2026-04-15T16:50:26.305Z</time></trkpt><trkpt lat="40.8225883" lon="14.1452967"><ele>112.0</ele><time>2026-04-15T16:50:30.305Z</time></trkpt><trkpt lat="40.8225467" lon="14.14523"><ele>115.14285714285714</ele><time>2026-04-15T16:50:34.304Z</time></trkpt><trkpt lat="40.82251" lon="14.1451467"><ele>118.28571428571428</ele><time>2026-04-15T16:50:38.304Z</time></trkpt><trkpt lat="40.8224902" lon="14.1450586"><ele>121.42857142857143</ele><time>2026-04-15T16:50:42.388Z</time></trkpt><trkpt lat="40.8224867" lon="14.1449603"><ele>124.57142857142857</ele><time>2026-04-15T16:50:46.433Z</time></trkpt><trkpt lat="40.8224858" lon="14.144859"><ele>127.71428571428571</ele><time>2026-04-15T16:50:51.387Z</time></trkpt><trkpt lat="40.8224828" lon="14.1447617"><ele>130.85714285714286</ele><time>2026-04-15T16:50:55.431Z</time></trkpt><trkpt lat="40.8224661" lon="14.1446623"><ele>134.0</ele><time>2026-04-15T16:50:59.306Z</time></trkpt><trkpt lat="40.8224583" lon="14.1445667"><ele>134.85714285714286</ele><time>2026-04-15T16:51:03.304Z</time></trkpt><trkpt lat="40.8224691" lon="14.1444806"><ele>135.71428571428572</ele><time>2026-04-15T16:51:07.362Z</time></trkpt><trkpt lat="40.8224817" lon="14.1443941"><ele>136.57142857142856</ele><time>2026-04-15T16:51:11.289Z</time></trkpt><trkpt lat="40.8224925" lon="14.1443029"><ele>137.42857142857144</ele><time>2026-04-15T16:51:15.45Z</time></trkpt><trkpt lat="40.8225007" lon="14.144208"><ele>138.28571428571428</ele><time>2026-04-15T16:51:19.394Z</time></trkpt><trkpt lat="40.8224983" lon="14.1440933"><ele>139.14285714285714</ele><time>2026-04-15T16:51:24.305Z</time></trkpt><trkpt lat="40.82251" lon="14.1440062"><ele>140.0</ele><time>2026-04-15T16:51:28.391Z</time></trkpt><trkpt lat="40.8225165" lon="14.1439132"><ele>140.0</ele><time>2026-04-15T16:51:35.368Z</time></trkpt><trkpt lat="40.8223423" lon="14.1441131"><ele>140.0</ele><time>2026-04-15T16:51:48.305Z</time></trkpt><trkpt lat="40.8222796" lon="14.1442235"><ele>140.0</ele><time>2026-04-15T16:51:50.434Z</time></trkpt><trkpt lat="40.8222357" lon="14.144308"><ele>140.0</ele><time>2026-04-15T16:51:55.299Z</time></trkpt><trkpt lat="40.8221555" lon="14.1444371"><ele>140.0</ele><time>2026-04-15T16:52:20.463Z</time></trkpt><trkpt lat="40.8220898" lon="14.1446005"><ele>140.0</ele><time>2026-04-15T16:52:23.395Z</time></trkpt><trkpt lat="40.8219818" lon="14.1448859"><ele>140.0</ele><time>2026-04-15T16:52:27.306Z</time></trkpt><trkpt lat="40.8219476" lon="14.1449633"><ele>140.0</ele><time>2026-04-15T16:52:28.306Z</time></trkpt><trkpt lat="40.8219151" lon="14.1450388"><ele>139.71428571428572</ele><time>2026-04-15T16:52:29.306Z</time></trkpt><trkpt lat="40.8218747" lon="14.1451142"><ele>139.42857142857144</ele><time>2026-04-15T16:52:30.306Z</time></trkpt><trkpt lat="40.8218347" lon="14.1451908"><ele>139.14285714285714</ele><time>2026-04-15T16:52:31.306Z</time></trkpt><trkpt lat="40.8217991" lon="14.1452686"><ele>138.85714285714286</ele><time>2026-04-15T16:52:32.305Z</time></trkpt><trkpt lat="40.8217664" lon="14.1453542"><ele>138.57142857142858</ele><time>2026-04-15T16:52:33.305Z</time></trkpt><trkpt lat="40.8217295" lon="14.1454392"><ele>138.28571428571428</ele><time>2026-04-15T16:52:34.305Z</time></trkpt><trkpt lat="40.821703" lon="14.1455313"><ele>138.0</ele><time>2026-04-15T16:52:35.305Z</time></trkpt><trkpt lat="40.8216898" lon="14.1456345"><ele>137.8</ele><time>2026-04-15T16:52:36.306Z</time></trkpt><trkpt lat="40.8216842" lon="14.1457455"><ele>137.60000000000002</ele><time>2026-04-15T16:52:37.305Z</time></trkpt><trkpt lat="40.8216859" lon="14.1458624"><ele>137.39999999999998</ele><time>2026-04-15T16:52:38.306Z</time></trkpt><trkpt lat="40.821696" lon="14.1459873"><ele>137.2</ele><time>2026-04-15T16:52:39.305Z</time></trkpt><trkpt lat="40.8217062" lon="14.1461161"><ele>137.0</ele><time>2026-04-15T16:52:40.305Z</time></trkpt><trkpt lat="40.8217158" lon="14.1462482"><ele>137.0</ele><time>2026-04-15T16:52:41.306Z</time></trkpt><trkpt lat="40.8217319" lon="14.1463855"><ele>137.0</ele><time>2026-04-15T16:52:42.307Z</time></trkpt><trkpt lat="40.8217558" lon="14.1465259"><ele>137.0</ele><time>2026-04-15T16:52:43.305Z</time></trkpt><trkpt lat="40.8217777" lon="14.1466669"><ele>137.0</ele><time>2026-04-15T16:52:44.306Z</time></trkpt><trkpt lat="40.8218001" lon="14.1468083"><ele>137.0</ele><time>2026-04-15T16:52:45.306Z</time></trkpt><trkpt lat="40.8218197" lon="14.146957"><ele>132.0</ele><time>2026-04-15T16:52:46.306Z</time></trkpt><trkpt lat="40.8218315" lon="14.1471112"><ele>127.0</ele><time>2026-04-15T16:52:47.305Z</time></trkpt><trkpt lat="40.8218317" lon="14.147268"><ele>122.0</ele><time>2026-04-15T16:52:48.305Z</time></trkpt><trkpt lat="40.8218237" lon="14.1474236"><ele>117.0</ele><time>2026-04-15T16:52:49.305Z</time></trkpt><trkpt lat="40.821805" lon="14.1475714"><ele>117.0</ele><time>2026-04-15T16:52:50.305Z</time></trkpt><trkpt lat="40.8217802" lon="14.1477143"><ele>117.0</ele><time>2026-04-15T16:52:51.306Z</time></trkpt><trkpt lat="40.8217498" lon="14.1478613"><ele>117.0</ele><time>2026-04-15T16:52:52.306Z</time></trkpt><trkpt lat="40.8217167" lon="14.1480065"><ele>117.0</ele><time>2026-04-15T16:52:53.305Z</time></trkpt><trkpt lat="40.8216825" lon="14.14815"><ele>116.0</ele><time>2026-04-15T16:52:54.306Z</time></trkpt><trkpt lat="40.82165" lon="14.1482905"><ele>114.99999999999999</ele><time>2026-04-15T16:52:55.306Z</time></trkpt><trkpt lat="40.8216193" lon="14.1484316"><ele>113.99999999999999</ele><time>2026-04-15T16:52:56.306Z</time></trkpt><trkpt lat="40.8215837" lon="14.1485728"><ele>113.0</ele><time>2026-04-15T16:52:57.304Z</time></trkpt><trkpt lat="40.8215522" lon="14.1487131"><ele>112.0</ele><time>2026-04-15T16:52:58.306Z</time></trkpt><trkpt lat="40.821527" lon="14.1488542"><ele>112.0</ele><time>2026-04-15T16:52:59.306Z</time></trkpt><trkpt lat="40.8215021" lon="14.1489891"><ele>111.99999999999999</ele><time>2026-04-15T16:53:00.306Z</time></trkpt><trkpt lat="40.8214748" lon="14.1491186"><ele>111.99999999999999</ele><time>2026-04-15T16:53:01.306Z</time></trkpt><trkpt lat="40.8214471" lon="14.1492402"><ele>112.0</ele><time>2026-04-15T16:53:02.305Z</time></trkpt><trkpt lat="40.8214203" lon="14.1493534"><ele>112.0</ele><time>2026-04-15T16:53:03.306Z</time></trkpt><trkpt lat="40.8213898" lon="14.1494642"><ele>112.00000000000001</ele><time>2026-04-15T16:53:04.306Z</time></trkpt><trkpt lat="40.8213609" lon="14.1495734"><ele>112.0</ele><time>2026-04-15T16:53:05.305Z</time></trkpt><trkpt lat="40.8213312" lon="14.1496791"><ele>112.0</ele><time>2026-04-15T16:53:06.307Z</time></trkpt><trkpt lat="40.8213015" lon="14.1497859"><ele>112.0</ele><time>2026-04-15T16:53:07.306Z</time></trkpt><trkpt lat="40.8212794" lon="14.1498919"><ele>112.00000000000001</ele><time>2026-04-15T16:53:08.305Z</time></trkpt><trkpt lat="40.8212633" lon="14.1499939"><ele>112.0</ele><time>2026-04-15T16:53:09.307Z</time></trkpt><trkpt lat="40.8212503" lon="14.1500866"><ele>112.0</ele><time>2026-04-15T16:53:10.305Z</time></trkpt><trkpt lat="40.8212405" lon="14.1501787"><ele>112.0</ele><time>2026-04-15T16:53:11.306Z</time></trkpt><trkpt lat="40.8212336" lon="14.1502656"><ele>112.0</ele><time>2026-04-15T16:53:12.306Z</time></trkpt><trkpt lat="40.821226" lon="14.1503516"><ele>112.0</ele><time>2026-04-15T16:53:13.305Z</time></trkpt><trkpt lat="40.8212207" lon="14.1504391"><ele>112.0</ele><time>2026-04-15T16:53:14.307Z</time></trkpt><trkpt lat="40.8212149" lon="14.1505244"><ele>112.0</ele><time>2026-04-15T16:53:15.307Z</time></trkpt><trkpt lat="40.8212127" lon="14.150609"><ele>112.0</ele><time>2026-04-15T16:53:16.306Z</time></trkpt><trkpt lat="40.8212099" lon="14.1506946"><ele>113.00000000000001</ele><time>2026-04-15T16:53:17.306Z</time></trkpt><trkpt lat="40.8212103" lon="14.1508596"><ele>114.0</ele><time>2026-04-15T16:53:19.307Z</time></trkpt><trkpt lat="40.8212233" lon="14.151025"><ele>115.0</ele><time>2026-04-15T16:53:21.307Z</time></trkpt><trkpt lat="40.8212283" lon="14.1511083"><ele>116.0</ele><time>2026-04-15T16:53:22.307Z</time></trkpt><trkpt lat="40.821235" lon="14.1511933"><ele>117.00000000000001</ele><time>2026-04-15T16:53:23.305Z</time></trkpt><trkpt lat="40.8212417" lon="14.1512833"><ele>118.0</ele><time>2026-04-15T16:53:24.306Z</time></trkpt><trkpt lat="40.8212517" lon="14.1513817"><ele>118.00000000000001</ele><time>2026-04-15T16:53:25.306Z</time></trkpt><trkpt lat="40.8212617" lon="14.1514817"><ele>118.0</ele><time>2026-04-15T16:53:26.305Z</time></trkpt><trkpt lat="40.8212783" lon="14.15159"><ele>118.0</ele><time>2026-04-15T16:53:27.306Z</time></trkpt><trkpt lat="40.8212883" lon="14.1517017"><ele>118.0</ele><time>2026-04-15T16:53:28.306Z</time></trkpt><trkpt lat="40.8212983" lon="14.1518167"><ele>118.00000000000001</ele><time>2026-04-15T16:53:29.306Z</time></trkpt><trkpt lat="40.8213117" lon="14.1519433"><ele>118.0</ele><time>2026-04-15T16:53:30.307Z</time></trkpt><trkpt lat="40.8213183" lon="14.1520733"><ele>119.2</ele><time>2026-04-15T16:53:31.307Z</time></trkpt><trkpt lat="40.8213133" lon="14.1522067"><ele>120.4</ele><time>2026-04-15T16:53:32.307Z</time></trkpt><trkpt lat="40.821305" lon="14.1523467"><ele>121.60000000000001</ele><time>2026-04-15T16:53:33.306Z</time></trkpt><trkpt lat="40.8212933" lon="14.1524917"><ele>122.80000000000001</ele><time>2026-04-15T16:53:34.305Z</time></trkpt><trkpt lat="40.8212733" lon="14.1526383"><ele>124.0</ele><time>2026-04-15T16:53:35.305Z</time></trkpt><trkpt lat="40.8212433" lon="14.152785"><ele>124.25</ele><time>2026-04-15T16:53:36.306Z</time></trkpt><trkpt lat="40.8212133" lon="14.15294"><ele>124.5</ele><time>2026-04-15T16:53:37.305Z</time></trkpt><trkpt lat="40.8211517" lon="14.153085"><ele>124.75</ele><time>2026-04-15T16:53:38.305Z</time></trkpt><trkpt lat="40.821085" lon="14.15323"><ele>125.0</ele><time>2026-04-15T16:53:39.306Z</time></trkpt><trkpt lat="40.8210267" lon="14.15338"><ele>121.0</ele><time>2026-04-15T16:53:40.307Z</time></trkpt><trkpt lat="40.82097" lon="14.15353"><ele>117.0</ele><time>2026-04-15T16:53:41.306Z</time></trkpt><trkpt lat="40.82092" lon="14.1536817"><ele>113.0</ele><time>2026-04-15T16:53:42.307Z</time></trkpt><trkpt lat="40.8208767" lon="14.153835"><ele>109.0</ele><time>2026-04-15T16:53:43.307Z</time></trkpt><trkpt lat="40.8208467" lon="14.154"><ele>106.0</ele><time>2026-04-15T16:53:44.305Z</time></trkpt><trkpt lat="40.8208217" lon="14.15417"><ele>103.0</ele><time>2026-04-15T16:53:45.306Z</time></trkpt><trkpt lat="40.8207967" lon="14.1543367"><ele>100.0</ele><time>2026-04-15T16:53:46.306Z</time></trkpt><trkpt lat="40.8207717" lon="14.154505"><ele>97.0</ele><time>2026-04-15T16:53:47.305Z</time></trkpt><trkpt lat="40.8207467" lon="14.15467"><ele>97.0</ele><time>2026-04-15T16:53:48.307Z</time></trkpt><trkpt lat="40.820715" lon="14.154835"><ele>97.0</ele><time>2026-04-15T16:53:49.306Z</time></trkpt><trkpt lat="40.820685" lon="14.1550017"><ele>97.0</ele><time>2026-04-15T16:53:50.306Z</time></trkpt><trkpt lat="40.820645" lon="14.1551683"><ele>97.0</ele><time>2026-04-15T16:53:51.306Z</time></trkpt><trkpt lat="40.82061" lon="14.1553283"><ele>95.5</ele><time>2026-04-15T16:53:52.305Z</time></trkpt><trkpt lat="40.8205817" lon="14.155485"><ele>94.0</ele><time>2026-04-15T16:53:53.306Z</time></trkpt><trkpt lat="40.82055" lon="14.1556367"><ele>92.5</ele><time>2026-04-15T16:53:54.307Z</time></trkpt><trkpt lat="40.8205183" lon="14.1557867"><ele>91.0</ele><time>2026-04-15T16:53:55.306Z</time></trkpt><trkpt lat="40.82049" lon="14.1559333"><ele>90.6</ele><time>2026-04-15T16:53:56.305Z</time></trkpt><trkpt lat="40.8204633" lon="14.15608"><ele>90.19999999999999</ele><time>2026-04-15T16:53:57.306Z</time></trkpt><trkpt lat="40.8204433" lon="14.1562217"><ele>89.80000000000001</ele><time>2026-04-15T16:53:58.306Z</time></trkpt><trkpt lat="40.820425" lon="14.1563633"><ele>89.4</ele><time>2026-04-15T16:53:59.306Z</time></trkpt><trkpt lat="40.8204133" lon="14.156505"><ele>89.0</ele><time>2026-04-15T16:54:00.306Z</time></trkpt><trkpt lat="40.8204117" lon="14.1566467"><ele>89.0</ele><time>2026-04-15T16:54:01.305Z</time></trkpt><trkpt lat="40.8204167" lon="14.1567883"><ele>89.0</ele><time>2026-04-15T16:54:02.306Z</time></trkpt><trkpt lat="40.8204367" lon="14.1569283"><ele>89.0</ele><time>2026-04-15T16:54:03.306Z</time></trkpt><trkpt lat="40.820465" lon="14.1570683"><ele>89.0</ele><time>2026-04-15T16:54:04.305Z</time></trkpt><trkpt lat="40.8204967" lon="14.1572033"><ele>89.0</ele><time>2026-04-15T16:54:05.306Z</time></trkpt><trkpt lat="40.820535" lon="14.157335"><ele>88.6</ele><time>2026-04-15T16:54:06.306Z</time></trkpt><trkpt lat="40.820575" lon="14.1574667"><ele>88.2</ele><time>2026-04-15T16:54:07.306Z</time></trkpt><trkpt lat="40.82063" lon="14.157595"><ele>87.8</ele><time>2026-04-15T16:54:08.306Z</time></trkpt><trkpt lat="40.8206967" lon="14.15771"><ele>87.39999999999999</ele><time>2026-04-15T16:54:09.306Z</time></trkpt><trkpt lat="40.820775" lon="14.1578167"><ele>87.0</ele><time>2026-04-15T16:54:10.305Z</time></trkpt><trkpt lat="40.82086" lon="14.1579117"><ele>87.0</ele><time>2026-04-15T16:54:11.305Z</time></trkpt><trkpt lat="40.8209483" lon="14.158"><ele>87.0</ele><time>2026-04-15T16:54:12.305Z</time></trkpt><trkpt lat="40.82104" lon="14.1580867"><ele>87.0</ele><time>2026-04-15T16:54:13.305Z</time></trkpt><trkpt lat="40.8211367" lon="14.1581583"><ele>87.0</ele><time>2026-04-15T16:54:14.306Z</time></trkpt><trkpt lat="40.821235" lon="14.15823"><ele>87.0</ele><time>2026-04-15T16:54:15.305Z</time></trkpt><trkpt lat="40.821335" lon="14.1582983"><ele>84.8</ele><time>2026-04-15T16:54:16.306Z</time></trkpt><trkpt lat="40.82143" lon="14.1583683"><ele>82.6</ele><time>2026-04-15T16:54:17.306Z</time></trkpt><trkpt lat="40.8215183" lon="14.158445"><ele>80.39999999999999</ele><time>2026-04-15T16:54:18.307Z</time></trkpt><trkpt lat="40.8216" lon="14.158525"><ele>78.19999999999999</ele><time>2026-04-15T16:54:19.306Z</time></trkpt><trkpt lat="40.82167" lon="14.1586117"><ele>76.0</ele><time>2026-04-15T16:54:20.307Z</time></trkpt><trkpt lat="40.8217283" lon="14.1587083"><ele>76.0</ele><time>2026-04-15T16:54:21.305Z</time></trkpt><trkpt lat="40.82178" lon="14.1588"><ele>76.0</ele><time>2026-04-15T16:54:22.306Z</time></trkpt><trkpt lat="40.8218283" lon="14.1588867"><ele>76.0</ele><time>2026-04-15T16:54:23.306Z</time></trkpt><trkpt lat="40.821875" lon="14.15897"><ele>76.0</ele><time>2026-04-15T16:54:24.307Z</time></trkpt><trkpt lat="40.8219233" lon="14.15905"><ele>76.0</ele><time>2026-04-15T16:54:25.306Z</time></trkpt><trkpt lat="40.8219667" lon="14.1591283"><ele>76.0</ele><time>2026-04-15T16:54:26.307Z</time></trkpt><trkpt lat="40.8220067" lon="14.1591983"><ele>79.33333333333333</ele><time>2026-04-15T16:54:27.307Z</time></trkpt><trkpt lat="40.822045" lon="14.1592733"><ele>82.66666666666666</ele><time>2026-04-15T16:54:28.305Z</time></trkpt><trkpt lat="40.8220817" lon="14.1593433"><ele>86.0</ele><time>2026-04-15T16:54:29.306Z</time></trkpt><trkpt lat="40.822145" lon="14.15946"><ele>89.33333333333333</ele><time>2026-04-15T16:54:31.304Z</time></trkpt><trkpt lat="40.8221983" lon="14.159555"><ele>92.66666666666667</ele><time>2026-04-15T16:54:33.306Z</time></trkpt><trkpt lat="40.8222533" lon="14.15964"><ele>96.0</ele><time>2026-04-15T16:54:35.305Z</time></trkpt><trkpt lat="40.822305" lon="14.159725"><ele>96.0</ele><time>2026-04-15T16:54:37.307Z</time></trkpt><trkpt lat="40.822355" lon="14.1598083"><ele>96.0</ele><time>2026-04-15T16:54:39.307Z</time></trkpt><trkpt lat="40.8224033" lon="14.159895"><ele>96.0</ele><time>2026-04-15T16:54:41.306Z</time></trkpt><trkpt lat="40.82245" lon="14.1599683"><ele>96.0</ele><time>2026-04-15T16:54:43.306Z</time></trkpt><trkpt lat="40.8224883" lon="14.1600483"><ele>96.0</ele><time>2026-04-15T16:54:45.306Z</time></trkpt><trkpt lat="40.8225333" lon="14.160125"><ele>96.0</ele><time>2026-04-15T16:54:47.306Z</time></trkpt><trkpt lat="40.82258" lon="14.1602017"><ele>96.28571428571428</ele><time>2026-04-15T16:54:49.307Z</time></trkpt><trkpt lat="40.8226217" lon="14.16028"><ele>96.57142857142857</ele><time>2026-04-15T16:54:51.307Z</time></trkpt><trkpt lat="40.8226733" lon="14.16035"><ele>96.85714285714286</ele><time>2026-04-15T16:54:53.306Z</time></trkpt><trkpt lat="40.82272" lon="14.16042"><ele>97.14285714285714</ele><time>2026-04-15T16:54:55.307Z</time></trkpt><trkpt lat="40.8227583" lon="14.1604883"><ele>97.42857142857143</ele><time>2026-04-15T16:54:57.306Z</time></trkpt><trkpt lat="40.8228083" lon="14.1605833"><ele>97.71428571428571</ele><time>2026-04-15T16:55:00.305Z</time></trkpt><trkpt lat="40.8228567" lon="14.1606617"><ele>98.0</ele><time>2026-04-15T16:55:03.306Z</time></trkpt><trkpt lat="40.822915" lon="14.1607333"><ele>98.16666666666666</ele><time>2026-04-15T16:55:06.307Z</time></trkpt><trkpt lat="40.82296" lon="14.16082"><ele>98.33333333333333</ele><time>2026-04-15T16:55:09.305Z</time></trkpt><trkpt lat="40.8230183" lon="14.1608967"><ele>98.5</ele><time>2026-04-15T16:55:12.306Z</time></trkpt><trkpt lat="40.8230717" lon="14.16098"><ele>98.66666666666666</ele><time>2026-04-15T16:55:15.307Z</time></trkpt><trkpt lat="40.8231333" lon="14.16106"><ele>98.83333333333333</ele><time>2026-04-15T16:55:18.306Z</time></trkpt><trkpt lat="40.8231983" lon="14.16114"><ele>99.0</ele><time>2026-04-15T16:55:21.306Z</time></trkpt><trkpt lat="40.823265" lon="14.16122"><ele>99.0</ele><time>2026-04-15T16:55:24.306Z</time></trkpt><trkpt lat="40.8233117" lon="14.1612783"><ele>99.0</ele><time>2026-04-15T16:55:26.306Z</time></trkpt><trkpt lat="40.8233767" lon="14.16135"><ele>99.0</ele><time>2026-04-15T16:55:29.305Z</time></trkpt><trkpt lat="40.8234467" lon="14.16142"><ele>99.0</ele><time>2026-04-15T16:55:32.307Z</time></trkpt><trkpt lat="40.8235117" lon="14.1614917"><ele>99.0</ele><time>2026-04-15T16:55:35.306Z</time></trkpt><trkpt lat="40.8235783" lon="14.1615617"><ele>99.0</ele><time>2026-04-15T16:55:38.306Z</time></trkpt><trkpt lat="40.8236433" lon="14.1616267"><ele>100.5</ele><time>2026-04-15T16:55:41.307Z</time></trkpt><trkpt lat="40.82371" lon="14.161705"><ele>102.0</ele><time>2026-04-15T16:55:44.306Z</time></trkpt><trkpt lat="40.8237667" lon="14.1617833"><ele>103.5</ele><time>2026-04-15T16:55:47.306Z</time></trkpt><trkpt lat="40.8238333" lon="14.1618667"><ele>105.0</ele><time>2026-04-15T16:55:50.305Z</time></trkpt><trkpt lat="40.8239067" lon="14.16195"><ele>106.5</ele><time>2026-04-15T16:55:53.306Z</time></trkpt><trkpt lat="40.8239633" lon="14.1620033"><ele>108.0</ele><time>2026-04-15T16:55:55.306Z</time></trkpt><trkpt lat="40.8240117" lon="14.1620667"><ele>108.0</ele><time>2026-04-15T16:55:57.305Z</time></trkpt><trkpt lat="40.8240567" lon="14.1621267"><ele>108.0</ele><time>2026-04-15T16:55:59.306Z</time></trkpt><trkpt lat="40.8241017" lon="14.16219"><ele>108.0</ele><time>2026-04-15T16:56:01.306Z</time></trkpt><trkpt lat="40.8241417" lon="14.1622583"><ele>108.0</ele><time>2026-04-15T16:56:03.305Z</time></trkpt><trkpt lat="40.8241767" lon="14.1623367"><ele>108.0</ele><time>2026-04-15T16:56:05.304Z</time></trkpt><trkpt lat="40.82421" lon="14.16243"><ele>108.0</ele><time>2026-04-15T16:56:07.305Z</time></trkpt><trkpt lat="40.8242467" lon="14.1625367"><ele>108.0</ele><time>2026-04-15T16:56:09.305Z</time></trkpt><trkpt lat="40.824275" lon="14.16265"><ele>108.0</ele><time>2026-04-15T16:56:11.307Z</time></trkpt><trkpt lat="40.8243" lon="14.1627783"><ele>108.0</ele><time>2026-04-15T16:56:13.306Z</time></trkpt><trkpt lat="40.8243133" lon="14.1629367"><ele>108.0</ele><time>2026-04-15T16:56:15.304Z</time></trkpt><trkpt lat="40.82432" lon="14.16302"><ele>108.0</ele><time>2026-04-15T16:56:16.306Z</time></trkpt><trkpt lat="40.8243233" lon="14.1631033"><ele>108.0</ele><time>2026-04-15T16:56:17.306Z</time></trkpt><trkpt lat="40.824335" lon="14.1631933"><ele>108.0</ele><time>2026-04-15T16:56:18.305Z</time></trkpt><trkpt lat="40.8243483" lon="14.1632917"><ele>108.0</ele><time>2026-04-15T16:56:19.307Z</time></trkpt><trkpt lat="40.8243567" lon="14.1634"><ele>108.00000000000001</ele><time>2026-04-15T16:56:20.306Z</time></trkpt><trkpt lat="40.824365" lon="14.1635167"><ele>108.00000000000001</ele><time>2026-04-15T16:56:21.305Z</time></trkpt><trkpt lat="40.82437" lon="14.16364"><ele>108.0</ele><time>2026-04-15T16:56:22.307Z</time></trkpt><trkpt lat="40.8243767" lon="14.16377"><ele>108.0</ele><time>2026-04-15T16:56:23.306Z</time></trkpt><trkpt lat="40.82438" lon="14.1639083"><ele>106.0</ele><time>2026-04-15T16:56:24.304Z</time></trkpt><trkpt lat="40.824385" lon="14.16405"><ele>104.0</ele><time>2026-04-15T16:56:25.306Z</time></trkpt><trkpt lat="40.8243917" lon="14.164195"><ele>102.0</ele><time>2026-04-15T16:56:26.306Z</time></trkpt><trkpt lat="40.8243933" lon="14.1643467"><ele>100.0</ele><time>2026-04-15T16:56:27.305Z</time></trkpt><trkpt lat="40.8243917" lon="14.164505"><ele>100.0</ele><time>2026-04-15T16:56:28.306Z</time></trkpt><trkpt lat="40.824385" lon="14.1646683"><ele>100.0</ele><time>2026-04-15T16:56:29.306Z</time></trkpt><trkpt lat="40.8243783" lon="14.1648317"><ele>100.0</ele><time>2026-04-15T16:56:30.307Z</time></trkpt><trkpt lat="40.8243733" lon="14.1649983"><ele>100.0</ele><time>2026-04-15T16:56:31.306Z</time></trkpt><trkpt lat="40.8243717" lon="14.1651667"><ele>98.0</ele><time>2026-04-15T16:56:32.306Z</time></trkpt><trkpt lat="40.8243617" lon="14.1653417"><ele>96.0</ele><time>2026-04-15T16:56:33.306Z</time></trkpt><trkpt lat="40.8243483" lon="14.165515"><ele>94.0</ele><time>2026-04-15T16:56:34.306Z</time></trkpt><trkpt lat="40.824335" lon="14.1656917"><ele>92.0</ele><time>2026-04-15T16:56:35.304Z</time></trkpt><trkpt lat="40.82432" lon="14.1658717"><ele>88.75</ele><time>2026-04-15T16:56:36.305Z</time></trkpt><trkpt lat="40.8242983" lon="14.1660567"><ele>85.5</ele><time>2026-04-15T16:56:37.306Z</time></trkpt><trkpt lat="40.8242767" lon="14.1662367"><ele>82.25</ele><time>2026-04-15T16:56:38.307Z</time></trkpt><trkpt lat="40.8242483" lon="14.1664183"><ele>79.0</ele><time>2026-04-15T16:56:39.304Z</time></trkpt><trkpt lat="40.824215" lon="14.166595"><ele>78.0</ele><time>2026-04-15T16:56:40.305Z</time></trkpt><trkpt lat="40.8241783" lon="14.1667817"><ele>77.0</ele><time>2026-04-15T16:56:41.305Z</time></trkpt><trkpt lat="40.8241367" lon="14.166965"><ele>76.0</ele><time>2026-04-15T16:56:42.305Z</time></trkpt><trkpt lat="40.8240983" lon="14.16715"><ele>75.0</ele><time>2026-04-15T16:56:43.305Z</time></trkpt><trkpt lat="40.8240617" lon="14.1673333"><ele>73.5</ele><time>2026-04-15T16:56:44.305Z</time></trkpt><trkpt lat="40.8240183" lon="14.1675167"><ele>72.0</ele><time>2026-04-15T16:56:45.304Z</time></trkpt><trkpt lat="40.823975" lon="14.16769"><ele>70.5</ele><time>2026-04-15T16:56:46.306Z</time></trkpt><trkpt lat="40.8239333" lon="14.16787"><ele>69.0</ele><time>2026-04-15T16:56:47.305Z</time></trkpt><trkpt lat="40.8238883" lon="14.1680483"><ele>68.5</ele><time>2026-04-15T16:56:48.306Z</time></trkpt><trkpt lat="40.823845" lon="14.1682283"><ele>68.0</ele><time>2026-04-15T16:56:49.306Z</time></trkpt><trkpt lat="40.8238033" lon="14.1684133"><ele>67.5</ele><time>2026-04-15T16:56:50.306Z</time></trkpt><trkpt lat="40.82376" lon="14.1686"><ele>67.0</ele><time>2026-04-15T16:56:51.304Z</time></trkpt><trkpt lat="40.8237217" lon="14.1687833"><ele>67.0</ele><time>2026-04-15T16:56:52.306Z</time></trkpt><trkpt lat="40.8236883" lon="14.1689633"><ele>67.0</ele><time>2026-04-15T16:56:53.304Z</time></trkpt><trkpt lat="40.8236583" lon="14.1691317"><ele>67.0</ele><time>2026-04-15T16:56:54.306Z</time></trkpt><trkpt lat="40.8236333" lon="14.169285"><ele>67.0</ele><time>2026-04-15T16:56:55.306Z</time></trkpt><trkpt lat="40.8236167" lon="14.1694317"><ele>65.6</ele><time>2026-04-15T16:56:56.305Z</time></trkpt><trkpt lat="40.8236017" lon="14.16958"><ele>64.2</ele><time>2026-04-15T16:56:57.306Z</time></trkpt><trkpt lat="40.82359" lon="14.1697267"><ele>62.8</ele><time>2026-04-15T16:56:58.304Z</time></trkpt><trkpt lat="40.823585" lon="14.169865"><ele>61.4</ele><time>2026-04-15T16:56:59.306Z</time></trkpt><trkpt lat="40.82358" lon="14.1699883"><ele>60.0</ele><time>2026-04-15T16:57:00.306Z</time></trkpt><trkpt lat="40.8235733" lon="14.170095"><ele>59.5</ele><time>2026-04-15T16:57:01.306Z</time></trkpt><trkpt lat="40.823555" lon="14.1701933"><ele>59.0</ele><time>2026-04-15T16:57:02.306Z</time></trkpt><trkpt lat="40.8235183" lon="14.1702817"><ele>58.5</ele><time>2026-04-15T16:57:03.306Z</time></trkpt><trkpt lat="40.823465" lon="14.17036"><ele>58.0</ele><time>2026-04-15T16:57:04.305Z</time></trkpt><trkpt lat="40.8234033" lon="14.170425"><ele>57.5</ele><time>2026-04-15T16:57:05.304Z</time></trkpt><trkpt lat="40.8233267" lon="14.1704833"><ele>57.0</ele><time>2026-04-15T16:57:06.305Z</time></trkpt><trkpt lat="40.8232433" lon="14.1705417"><ele>56.6</ele><time>2026-04-15T16:57:07.305Z</time></trkpt><trkpt lat="40.8231667" lon="14.1706067"><ele>56.2</ele><time>2026-04-15T16:57:08.306Z</time></trkpt><trkpt lat="40.8230883" lon="14.1706667"><ele>55.8</ele><time>2026-04-15T16:57:09.306Z</time></trkpt><trkpt lat="40.8230033" lon="14.1707283"><ele>55.4</ele><time>2026-04-15T16:57:10.306Z</time></trkpt><trkpt lat="40.8229167" lon="14.1707933"><ele>55.0</ele><time>2026-04-15T16:57:11.305Z</time></trkpt><trkpt lat="40.8228317" lon="14.17086"><ele>54.0</ele><time>2026-04-15T16:57:12.306Z</time></trkpt><trkpt lat="40.822745" lon="14.1709267"><ele>53.0</ele><time>2026-04-15T16:57:13.306Z</time></trkpt><trkpt lat="40.8226583" lon="14.1709983"><ele>52.0</ele><time>2026-04-15T16:57:14.306Z</time></trkpt><trkpt lat="40.8225717" lon="14.1710683"><ele>51.0</ele><time>2026-04-15T16:57:15.306Z</time></trkpt><trkpt lat="40.822485" lon="14.17114"><ele>50.0</ele><time>2026-04-15T16:57:16.306Z</time></trkpt><trkpt lat="40.822395" lon="14.171215"><ele>49.4</ele><time>2026-04-15T16:57:17.306Z</time></trkpt><trkpt lat="40.8223067" lon="14.1712933"><ele>48.8</ele><time>2026-04-15T16:57:18.305Z</time></trkpt><trkpt lat="40.8222167" lon="14.171375"><ele>48.2</ele><time>2026-04-15T16:57:19.306Z</time></trkpt><trkpt lat="40.822125" lon="14.1714567"><ele>47.6</ele><time>2026-04-15T16:57:20.306Z</time></trkpt><trkpt lat="40.8220333" lon="14.1715317"><ele>47.0</ele><time>2026-04-15T16:57:21.305Z</time></trkpt><trkpt lat="40.8219417" lon="14.1716033"><ele>46.0</ele><time>2026-04-15T16:57:22.306Z</time></trkpt><trkpt lat="40.8218483" lon="14.1716783"><ele>45.0</ele><time>2026-04-15T16:57:23.307Z</time></trkpt><trkpt lat="40.8217567" lon="14.1717583"><ele>44.0</ele><time>2026-04-15T16:57:24.306Z</time></trkpt><trkpt lat="40.82168" lon="14.1718267"><ele>43.0</ele><time>2026-04-15T16:57:25.308Z</time></trkpt><trkpt lat="40.8216067" lon="14.1718883"><ele>42.0</ele><time>2026-04-15T16:57:26.308Z</time></trkpt><trkpt lat="40.8215367" lon="14.1719417"><ele>41.0</ele><time>2026-04-15T16:57:27.305Z</time></trkpt><trkpt lat="40.821475" lon="14.1719883"><ele>40.0</ele><time>2026-04-15T16:57:28.306Z</time></trkpt><trkpt lat="40.8213733" lon="14.1720617"><ele>39.0</ele><time>2026-04-15T16:57:30.308Z</time></trkpt><trkpt lat="40.8212883" lon="14.172135"><ele>38.0</ele><time>2026-04-15T16:57:32.309Z</time></trkpt><trkpt lat="40.8212233" lon="14.172195"><ele>37.0</ele><time>2026-04-15T16:57:34.307Z</time></trkpt><trkpt lat="40.82114" lon="14.1722833"><ele>37.0</ele><time>2026-04-15T16:57:43.306Z</time></trkpt><trkpt lat="40.821075" lon="14.17235"><ele>37.0</ele><time>2026-04-15T16:57:46.306Z</time></trkpt><trkpt lat="40.82103" lon="14.1724367"><ele>37.0</ele><time>2026-04-15T16:57:48.305Z</time></trkpt><trkpt lat="40.82096" lon="14.1725317"><ele>37.0</ele><time>2026-04-15T16:57:50.306Z</time></trkpt><trkpt lat="40.8208833" lon="14.172635"><ele>37.0</ele><time>2026-04-15T16:57:52.307Z</time></trkpt><trkpt lat="40.8208117" lon="14.1727617"><ele>36.285714285714285</ele><time>2026-04-15T16:57:54.306Z</time></trkpt><trkpt lat="40.8207817" lon="14.172835"><ele>35.57142857142857</ele><time>2026-04-15T16:57:55.306Z</time></trkpt><trkpt lat="40.820745" lon="14.17291"><ele>34.857142857142854</ele><time>2026-04-15T16:57:56.306Z</time></trkpt><trkpt lat="40.8207083" lon="14.1729833"><ele>34.14285714285714</ele><time>2026-04-15T16:57:57.306Z</time></trkpt><trkpt lat="40.82067" lon="14.1730583"><ele>33.42857142857142</ele><time>2026-04-15T16:57:58.305Z</time></trkpt><trkpt lat="40.82064" lon="14.1731367"><ele>32.714285714285715</ele><time>2026-04-15T16:57:59.306Z</time></trkpt><trkpt lat="40.8206117" lon="14.1732217"><ele>32.0</ele><time>2026-04-15T16:58:00.305Z</time></trkpt><trkpt lat="40.8205833" lon="14.17331"><ele>31.999999999999996</ele><time>2026-04-15T16:58:01.306Z</time></trkpt><trkpt lat="40.8205483" lon="14.1734"><ele>32.0</ele><time>2026-04-15T16:58:02.308Z</time></trkpt><trkpt lat="40.8205183" lon="14.1734867"><ele>32.0</ele><time>2026-04-15T16:58:03.306Z</time></trkpt><trkpt lat="40.8204917" lon="14.1735767"><ele>32.0</ele><time>2026-04-15T16:58:04.305Z</time></trkpt><trkpt lat="40.8204683" lon="14.1736717"><ele>31.999999999999996</ele><time>2026-04-15T16:58:05.306Z</time></trkpt><trkpt lat="40.8204433" lon="14.173765"><ele>32.0</ele><time>2026-04-15T16:58:06.305Z</time></trkpt><trkpt lat="40.8204117" lon="14.17386"><ele>31.999999999999996</ele><time>2026-04-15T16:58:07.305Z</time></trkpt><trkpt lat="40.8203817" lon="14.1739483"><ele>32.0</ele><time>2026-04-15T16:58:08.306Z</time></trkpt><trkpt lat="40.8203517" lon="14.1740367"><ele>32.0</ele><time>2026-04-15T16:58:09.305Z</time></trkpt><trkpt lat="40.8203167" lon="14.1741217"><ele>32.0</ele><time>2026-04-15T16:58:10.305Z</time></trkpt><trkpt lat="40.8202783" lon="14.1742083"><ele>31.999999999999996</ele><time>2026-04-15T16:58:11.305Z</time></trkpt><trkpt lat="40.8202383" lon="14.1742967"><ele>32.0</ele><time>2026-04-15T16:58:12.306Z</time></trkpt><trkpt lat="40.8202067" lon="14.174395"><ele>31.499999999999996</ele><time>2026-04-15T16:58:13.306Z</time></trkpt><trkpt lat="40.82018" lon="14.1744867"><ele>31.0</ele><time>2026-04-15T16:58:14.306Z</time></trkpt><trkpt lat="40.82013" lon="14.17463"><ele>30.5</ele><time>2026-04-15T16:58:16.306Z</time></trkpt><trkpt lat="40.8200883" lon="14.1747417"><ele>30.0</ele><time>2026-04-15T16:58:18.306Z</time></trkpt><trkpt lat="40.820045" lon="14.1748217"><ele>29.499999999999996</ele><time>2026-04-15T16:58:20.306Z</time></trkpt><trkpt lat="40.8199783" lon="14.1748617"><ele>29.0</ele><time>2026-04-15T16:58:22.309Z</time></trkpt><trkpt lat="40.8198933" lon="14.1748883"><ele>28.2</ele><time>2026-04-15T16:58:24.307Z</time></trkpt><trkpt lat="40.819805" lon="14.1749217"><ele>27.4</ele><time>2026-04-15T16:58:26.304Z</time></trkpt><trkpt lat="40.819715" lon="14.1749583"><ele>26.6</ele><time>2026-04-15T16:58:28.309Z</time></trkpt><trkpt lat="40.81962" lon="14.1750017"><ele>25.8</ele><time>2026-04-15T16:58:30.306Z</time></trkpt><trkpt lat="40.8195217" lon="14.17503"><ele>25.0</ele><time>2026-04-15T16:58:32.307Z</time></trkpt><trkpt lat="40.8194133" lon="14.1750633"><ele>25.000000000000004</ele><time>2026-04-15T16:58:34.307Z</time></trkpt><trkpt lat="40.8193517" lon="14.1750833"><ele>25.0</ele><time>2026-04-15T16:58:35.307Z</time></trkpt><trkpt lat="40.8192867" lon="14.175105"><ele>25.0</ele><time>2026-04-15T16:58:36.31Z</time></trkpt><trkpt lat="40.8192183" lon="14.1751267"><ele>25.0</ele><time>2026-04-15T16:58:37.309Z</time></trkpt><trkpt lat="40.8191483" lon="14.17515"><ele>25.0</ele><time>2026-04-15T16:58:38.307Z</time></trkpt><trkpt lat="40.81908" lon="14.17517"><ele>25.000000000000004</ele><time>2026-04-15T16:58:39.307Z</time></trkpt><trkpt lat="40.8190133" lon="14.1751933"><ele>25.0</ele><time>2026-04-15T16:58:40.309Z</time></trkpt><trkpt lat="40.81895" lon="14.1752233"><ele>24.500000000000004</ele><time>2026-04-15T16:58:41.308Z</time></trkpt><trkpt lat="40.8188833" lon="14.17525"><ele>24.0</ele><time>2026-04-15T16:58:42.309Z</time></trkpt><trkpt lat="40.818815" lon="14.1752717"><ele>23.5</ele><time>2026-04-15T16:58:43.307Z</time></trkpt><trkpt lat="40.8187483" lon="14.1752917"><ele>23.0</ele><time>2026-04-15T16:58:44.305Z</time></trkpt><trkpt lat="40.818685" lon="14.1753083"><ele>22.5</ele><time>2026-04-15T16:58:45.309Z</time></trkpt><trkpt lat="40.818565" lon="14.17534"><ele>22.0</ele><time>2026-04-15T16:58:47.308Z</time></trkpt><trkpt lat="40.8184467" lon="14.175385"><ele>21.333333333333332</ele><time>2026-04-15T16:58:49.307Z</time></trkpt><trkpt lat="40.8183817" lon="14.1754083"><ele>20.666666666666664</ele><time>2026-04-15T16:58:50.307Z</time></trkpt><trkpt lat="40.8183133" lon="14.175435"><ele>20.0</ele><time>2026-04-15T16:58:51.307Z</time></trkpt><trkpt lat="40.81825" lon="14.1754517"><ele>19.333333333333332</ele><time>2026-04-15T16:58:52.306Z</time></trkpt><trkpt lat="40.8181833" lon="14.1754683"><ele>18.666666666666668</ele><time>2026-04-15T16:58:53.306Z</time></trkpt><trkpt lat="40.8181183" lon="14.17549"><ele>18.0</ele><time>2026-04-15T16:58:54.308Z</time></trkpt><trkpt lat="40.8180017" lon="14.1755283"><ele>18.0</ele><time>2026-04-15T16:58:56.309Z</time></trkpt><trkpt lat="40.81794" lon="14.1755467"><ele>18.0</ele><time>2026-04-15T16:58:57.305Z</time></trkpt><trkpt lat="40.8178283" lon="14.17558"><ele>18.0</ele><time>2026-04-15T16:58:59.306Z</time></trkpt><trkpt lat="40.8177283" lon="14.175625"><ele>18.0</ele><time>2026-04-15T16:59:01.307Z</time></trkpt><trkpt lat="40.8176583" lon="14.1756533"><ele>18.0</ele><time>2026-04-15T16:59:03.308Z</time></trkpt><trkpt lat="40.8175783" lon="14.1756667"><ele>18.0</ele><time>2026-04-15T16:59:07.306Z</time></trkpt><trkpt lat="40.8174983" lon="14.1757067"><ele>18.0</ele><time>2026-04-15T17:01:31.304Z</time></trkpt><trkpt lat="40.8174083" lon="14.1757283"><ele>18.0</ele><time>2026-04-15T17:01:34.307Z</time></trkpt><trkpt lat="40.8173317" lon="14.1757583"><ele>18.0</ele><time>2026-04-15T17:01:36.304Z</time></trkpt><trkpt lat="40.8172617" lon="14.175795"><ele>18.0</ele><time>2026-04-15T17:01:38.304Z</time></trkpt><trkpt lat="40.8171583" lon="14.1758133"><ele>18.0</ele><time>2026-04-15T17:01:40.304Z</time></trkpt><trkpt lat="40.8170617" lon="14.175795"><ele>18.0</ele><time>2026-04-15T17:01:42.305Z</time></trkpt><trkpt lat="40.816985" lon="14.1757"><ele>18.5</ele><time>2026-04-15T17:01:44.308Z</time></trkpt><trkpt lat="40.8169383" lon="14.1755683"><ele>19.0</ele><time>2026-04-15T17:01:46.308Z</time></trkpt><trkpt lat="40.8168933" lon="14.17543"><ele>19.5</ele><time>2026-04-15T17:01:48.307Z</time></trkpt><trkpt lat="40.816845" lon="14.1752867"><ele>20.0</ele><time>2026-04-15T17:01:50.305Z</time></trkpt><trkpt lat="40.81679" lon="14.175135"><ele>19.0</ele><time>2026-04-15T17:01:52.308Z</time></trkpt><trkpt lat="40.81676" lon="14.1750517"><ele>18.0</ele><time>2026-04-15T17:01:53.304Z</time></trkpt><trkpt lat="40.8167317" lon="14.1749733"><ele>17.0</ele><time>2026-04-15T17:01:54.307Z</time></trkpt><trkpt lat="40.8167017" lon="14.1748967"><ele>16.0</ele><time>2026-04-15T17:01:55.303Z</time></trkpt><trkpt lat="40.8166733" lon="14.1748117"><ele>15.0</ele><time>2026-04-15T17:01:56.308Z</time></trkpt><trkpt lat="40.8166483" lon="14.1747267"><ele>14.0</ele><time>2026-04-15T17:01:57.307Z</time></trkpt><trkpt lat="40.8166267" lon="14.1746417"><ele>13.0</ele><time>2026-04-15T17:01:58.304Z</time></trkpt><trkpt lat="40.8166033" lon="14.17456"><ele>13.0</ele><time>2026-04-15T17:01:59.304Z</time></trkpt><trkpt lat="40.8165767" lon="14.1744733"><ele>13.0</ele><time>2026-04-15T17:02:00.303Z</time></trkpt><trkpt lat="40.81655" lon="14.1743867"><ele>13.0</ele><time>2026-04-15T17:02:01.307Z</time></trkpt><trkpt lat="40.8165267" lon="14.1743017"><ele>13.0</ele><time>2026-04-15T17:02:02.308Z</time></trkpt><trkpt lat="40.8164983" lon="14.174215"><ele>13.0</ele><time>2026-04-15T17:02:03.304Z</time></trkpt><trkpt lat="40.8164717" lon="14.1741283"><ele>13.0</ele><time>2026-04-15T17:02:04.308Z</time></trkpt><trkpt lat="40.8164483" lon="14.1740467"><ele>13.0</ele><time>2026-04-15T17:02:05.308Z</time></trkpt><trkpt lat="40.816425" lon="14.1739633"><ele>13.285714285714285</ele><time>2026-04-15T17:02:06.307Z</time></trkpt><trkpt lat="40.8164033" lon="14.1738767"><ele>13.571428571428573</ele><time>2026-04-15T17:02:07.304Z</time></trkpt><trkpt lat="40.8163783" lon="14.1737917"><ele>13.857142857142858</ele><time>2026-04-15T17:02:08.308Z</time></trkpt><trkpt lat="40.816355" lon="14.17371"><ele>14.142857142857142</ele><time>2026-04-15T17:02:09.304Z</time></trkpt><trkpt lat="40.8163333" lon="14.1736283"><ele>14.428571428571427</ele><time>2026-04-15T17:02:10.305Z</time></trkpt><trkpt lat="40.8163117" lon="14.1735467"><ele>14.714285714285715</ele><time>2026-04-15T17:02:11.308Z</time></trkpt><trkpt lat="40.8162833" lon="14.173465"><ele>15.0</ele><time>2026-04-15T17:02:12.307Z</time></trkpt><trkpt lat="40.8162467" lon="14.173385"><ele>15.0</ele><time>2026-04-15T17:02:13.308Z</time></trkpt><trkpt lat="40.8162117" lon="14.1733033"><ele>15.0</ele><time>2026-04-15T17:02:14.305Z</time></trkpt><trkpt lat="40.8161817" lon="14.1732233"><ele>15.0</ele><time>2026-04-15T17:02:15.305Z</time></trkpt><trkpt lat="40.81615" lon="14.1731333"><ele>15.0</ele><time>2026-04-15T17:02:16.307Z</time></trkpt><trkpt lat="40.81612" lon="14.1730483"><ele>15.0</ele><time>2026-04-15T17:02:17.307Z</time></trkpt><trkpt lat="40.816095" lon="14.172965"><ele>15.0</ele><time>2026-04-15T17:02:18.303Z</time></trkpt><trkpt lat="40.816065" lon="14.17288"><ele>15.0</ele><time>2026-04-15T17:02:19.308Z</time></trkpt><trkpt lat="40.8160367" lon="14.1727983"><ele>15.142857142857142</ele><time>2026-04-15T17:02:20.308Z</time></trkpt><trkpt lat="40.8160083" lon="14.172715"><ele>15.285714285714285</ele><time>2026-04-15T17:02:21.307Z</time></trkpt><trkpt lat="40.8159783" lon="14.1726283"><ele>15.428571428571427</ele><time>2026-04-15T17:02:22.307Z</time></trkpt><trkpt lat="40.8159467" lon="14.172545"><ele>15.571428571428571</ele><time>2026-04-15T17:02:23.308Z</time></trkpt><trkpt lat="40.815915" lon="14.17246"><ele>15.714285714285712</ele><time>2026-04-15T17:02:24.307Z</time></trkpt><trkpt lat="40.81589" lon="14.1723733"><ele>15.857142857142856</ele><time>2026-04-15T17:02:25.308Z</time></trkpt><trkpt lat="40.81586" lon="14.1722883"><ele>16.0</ele><time>2026-04-15T17:02:26.308Z</time></trkpt><trkpt lat="40.8158283" lon="14.1722033"><ele>15.571428571428571</ele><time>2026-04-15T17:02:27.308Z</time></trkpt><trkpt lat="40.815795" lon="14.172115"><ele>15.142857142857142</ele><time>2026-04-15T17:02:28.308Z</time></trkpt><trkpt lat="40.8157617" lon="14.1720283"><ele>14.714285714285714</ele><time>2026-04-15T17:02:29.308Z</time></trkpt><trkpt lat="40.81573" lon="14.1719417"><ele>14.285714285714285</ele><time>2026-04-15T17:02:30.308Z</time></trkpt><trkpt lat="40.8157033" lon="14.1718533"><ele>13.857142857142858</ele><time>2026-04-15T17:02:31.307Z</time></trkpt><trkpt lat="40.8156817" lon="14.1717667"><ele>13.428571428571427</ele><time>2026-04-15T17:02:32.308Z</time></trkpt><trkpt lat="40.8156567" lon="14.1716817"><ele>13.0</ele><time>2026-04-15T17:02:33.307Z</time></trkpt><trkpt lat="40.8156267" lon="14.17159"><ele>13.285714285714285</ele><time>2026-04-15T17:02:34.308Z</time></trkpt><trkpt lat="40.8155933" lon="14.1715017"><ele>13.571428571428573</ele><time>2026-04-15T17:02:35.303Z</time></trkpt><trkpt lat="40.81556" lon="14.171415"><ele>13.857142857142858</ele><time>2026-04-15T17:02:36.307Z</time></trkpt><trkpt lat="40.815525" lon="14.17133"><ele>14.142857142857142</ele><time>2026-04-15T17:02:37.308Z</time></trkpt><trkpt lat="40.81549" lon="14.1712433"><ele>14.428571428571427</ele><time>2026-04-15T17:02:38.307Z</time></trkpt><trkpt lat="40.8154567" lon="14.1711583"><ele>14.714285714285715</ele><time>2026-04-15T17:02:39.308Z</time></trkpt><trkpt lat="40.8154267" lon="14.1710717"><ele>15.0</ele><time>2026-04-15T17:02:40.308Z</time></trkpt><trkpt lat="40.8153933" lon="14.1709817"><ele>15.0</ele><time>2026-04-15T17:02:41.309Z</time></trkpt><trkpt lat="40.8153667" lon="14.1708967"><ele>15.0</ele><time>2026-04-15T17:02:42.307Z</time></trkpt><trkpt lat="40.8153383" lon="14.1708117"><ele>15.0</ele><time>2026-04-15T17:02:43.303Z</time></trkpt><trkpt lat="40.81531" lon="14.1707267"><ele>15.0</ele><time>2026-04-15T17:02:44.304Z</time></trkpt><trkpt lat="40.8152817" lon="14.1706433"><ele>15.0</ele><time>2026-04-15T17:02:45.308Z</time></trkpt><trkpt lat="40.8152517" lon="14.170555"><ele>15.0</ele><time>2026-04-15T17:02:46.304Z</time></trkpt><trkpt lat="40.8152217" lon="14.170465"><ele>15.0</ele><time>2026-04-15T17:02:47.303Z</time></trkpt><trkpt lat="40.8151917" lon="14.1703733"><ele>15.142857142857142</ele><time>2026-04-15T17:02:48.305Z</time></trkpt><trkpt lat="40.8151617" lon="14.1702883"><ele>15.285714285714285</ele><time>2026-04-15T17:02:49.307Z</time></trkpt><trkpt lat="40.8151317" lon="14.170205"><ele>15.428571428571427</ele><time>2026-04-15T17:02:50.305Z</time></trkpt><trkpt lat="40.8151067" lon="14.170115"><ele>15.571428571428571</ele><time>2026-04-15T17:02:51.305Z</time></trkpt><trkpt lat="40.81508" lon="14.17003"><ele>15.714285714285712</ele><time>2026-04-15T17:02:52.308Z</time></trkpt><trkpt lat="40.8150533" lon="14.1699433"><ele>15.857142857142856</ele><time>2026-04-15T17:02:53.303Z</time></trkpt><trkpt lat="40.8150233" lon="14.1698633"><ele>16.0</ele><time>2026-04-15T17:02:54.304Z</time></trkpt><trkpt lat="40.8149983" lon="14.169775"><ele>15.428571428571427</ele><time>2026-04-15T17:02:55.307Z</time></trkpt><trkpt lat="40.8149683" lon="14.16969"><ele>14.857142857142856</ele><time>2026-04-15T17:02:56.308Z</time></trkpt><trkpt lat="40.81494" lon="14.1696017"><ele>14.285714285714285</ele><time>2026-04-15T17:02:57.308Z</time></trkpt><trkpt lat="40.8149117" lon="14.1695133"><ele>13.714285714285714</ele><time>2026-04-15T17:02:58.307Z</time></trkpt><trkpt lat="40.8148833" lon="14.169425"><ele>13.142857142857142</ele><time>2026-04-15T17:02:59.308Z</time></trkpt><trkpt lat="40.8148517" lon="14.16934"><ele>12.57142857142857</ele><time>2026-04-15T17:03:00.308Z</time></trkpt><trkpt lat="40.81482" lon="14.1692567"><ele>12.0</ele><time>2026-04-15T17:03:01.307Z</time></trkpt><trkpt lat="40.81479" lon="14.1691717"><ele>11.999999999999998</ele><time>2026-04-15T17:03:02.307Z</time></trkpt><trkpt lat="40.8147617" lon="14.1690883"><ele>12.0</ele><time>2026-04-15T17:03:03.304Z</time></trkpt><trkpt lat="40.8147367" lon="14.169005"><ele>12.0</ele><time>2026-04-15T17:03:04.305Z</time></trkpt><trkpt lat="40.81471" lon="14.1689183"><ele>12.0</ele><time>2026-04-15T17:03:05.306Z</time></trkpt><trkpt lat="40.8146867" lon="14.1688283"><ele>12.0</ele><time>2026-04-15T17:03:06.307Z</time></trkpt><trkpt lat="40.8146633" lon="14.1687417"><ele>11.999999999999998</ele><time>2026-04-15T17:03:07.303Z</time></trkpt><trkpt lat="40.8146367" lon="14.16865"><ele>12.0</ele><time>2026-04-15T17:03:08.304Z</time></trkpt><trkpt lat="40.81461" lon="14.1685633"><ele>12.142857142857142</ele><time>2026-04-15T17:03:09.305Z</time></trkpt><trkpt lat="40.8145817" lon="14.1684783"><ele>12.285714285714285</ele><time>2026-04-15T17:03:10.304Z</time></trkpt><trkpt lat="40.8145517" lon="14.1683933"><ele>12.428571428571427</ele><time>2026-04-15T17:03:11.304Z</time></trkpt><trkpt lat="40.814525" lon="14.168315"><ele>12.571428571428571</ele><time>2026-04-15T17:03:12.305Z</time></trkpt><trkpt lat="40.8144967" lon="14.16824"><ele>12.714285714285715</ele><time>2026-04-15T17:03:13.304Z</time></trkpt><trkpt lat="40.8144733" lon="14.168155"><ele>12.857142857142856</ele><time>2026-04-15T17:03:14.306Z</time></trkpt><trkpt lat="40.8144417" lon="14.1680717"><ele>13.0</ele><time>2026-04-15T17:03:15.308Z</time></trkpt><trkpt lat="40.8144117" lon="14.1679983"><ele>12.8</ele><time>2026-04-15T17:03:16.304Z</time></trkpt><trkpt lat="40.81437" lon="14.1678583"><ele>12.600000000000001</ele><time>2026-04-15T17:03:18.305Z</time></trkpt><trkpt lat="40.8143417" lon="14.1677583"><ele>12.399999999999999</ele><time>2026-04-15T17:03:20.305Z</time></trkpt><trkpt lat="40.8143133" lon="14.1676733"><ele>12.2</ele><time>2026-04-15T17:03:22.304Z</time></trkpt><trkpt lat="40.8142717" lon="14.1675567"><ele>12.0</ele><time>2026-04-15T17:03:24.304Z</time></trkpt><trkpt lat="40.8142283" lon="14.16744"><ele>11.75</ele><time>2026-04-15T17:03:26.305Z</time></trkpt><trkpt lat="40.8141783" lon="14.1673183"><ele>11.5</ele><time>2026-04-15T17:03:28.305Z</time></trkpt><trkpt lat="40.81413" lon="14.16718"><ele>11.25</ele><time>2026-04-15T17:03:30.305Z</time></trkpt><trkpt lat="40.8140817" lon="14.1670317"><ele>11.0</ele><time>2026-04-15T17:03:32.304Z</time></trkpt><trkpt lat="40.8140317" lon="14.1668883"><ele>11.0</ele><time>2026-04-15T17:03:34.305Z</time></trkpt><trkpt lat="40.81401" lon="14.16681"><ele>11.0</ele><time>2026-04-15T17:03:35.305Z</time></trkpt><trkpt lat="40.81399" lon="14.1667267"><ele>11.0</ele><time>2026-04-15T17:03:36.305Z</time></trkpt><trkpt lat="40.8139433" lon="14.1665733"><ele>11.0</ele><time>2026-04-15T17:03:38.305Z</time></trkpt><trkpt lat="40.81392" lon="14.166415"><ele>11.0</ele><time>2026-04-15T17:03:40.303Z</time></trkpt><trkpt lat="40.81393" lon="14.16633"><ele>11.0</ele><time>2026-04-15T17:03:41.308Z</time></trkpt><trkpt lat="40.81395" lon="14.1662467"><ele>10.600000000000001</ele><time>2026-04-15T17:03:42.304Z</time></trkpt><trkpt lat="40.81398" lon="14.1660933"><ele>10.200000000000001</ele><time>2026-04-15T17:03:44.307Z</time></trkpt><trkpt lat="40.8140067" lon="14.1660133"><ele>9.8</ele><time>2026-04-15T17:03:45.305Z</time></trkpt><trkpt lat="40.814065" lon="14.1658683"><ele>9.4</ele><time>2026-04-15T17:03:47.305Z</time></trkpt><trkpt lat="40.8141183" lon="14.1657283"><ele>9.0</ele><time>2026-04-15T17:03:49.304Z</time></trkpt><trkpt lat="40.8141583" lon="14.16562"><ele>8.8</ele><time>2026-04-15T17:03:51.305Z</time></trkpt><trkpt lat="40.8141917" lon="14.16552"><ele>8.600000000000001</ele><time>2026-04-15T17:03:53.305Z</time></trkpt><trkpt lat="40.8142267" lon="14.1654283"><ele>8.4</ele><time>2026-04-15T17:03:55.306Z</time></trkpt><trkpt lat="40.81428" lon="14.1653217"><ele>8.200000000000001</ele><time>2026-04-15T17:03:57.303Z</time></trkpt><trkpt lat="40.8143333" lon="14.1652033"><ele>8.0</ele><time>2026-04-15T17:03:59.304Z</time></trkpt><trkpt lat="40.8143967" lon="14.1650683"><ele>8.200000000000001</ele><time>2026-04-15T17:04:01.304Z</time></trkpt><trkpt lat="40.8144517" lon="14.16493"><ele>8.4</ele><time>2026-04-15T17:04:03.305Z</time></trkpt><trkpt lat="40.81451" lon="14.1647917"><ele>8.600000000000001</ele><time>2026-04-15T17:04:05.305Z</time></trkpt><trkpt lat="40.8145367" lon="14.164715"><ele>8.8</ele><time>2026-04-15T17:04:06.305Z</time></trkpt><trkpt lat="40.81459" lon="14.16457"><ele>9.0</ele><time>2026-04-15T17:04:08.305Z</time></trkpt><trkpt lat="40.81464" lon="14.1644367"><ele>9.0</ele><time>2026-04-15T17:04:10.304Z</time></trkpt><trkpt lat="40.8146917" lon="14.1642967"><ele>9.0</ele><time>2026-04-15T17:04:12.304Z</time></trkpt><trkpt lat="40.8147267" lon="14.164225"><ele>9.0</ele><time>2026-04-15T17:04:13.303Z</time></trkpt><trkpt lat="40.8147933" lon="14.164095"><ele>9.0</ele><time>2026-04-15T17:04:15.304Z</time></trkpt><trkpt lat="40.8148533" lon="14.1639567"><ele>9.0</ele><time>2026-04-15T17:04:17.304Z</time></trkpt><trkpt lat="40.8149183" lon="14.1638217"><ele>9.2</ele><time>2026-04-15T17:04:19.305Z</time></trkpt><trkpt lat="40.8149983" lon="14.1637083"><ele>9.4</ele><time>2026-04-15T17:04:21.305Z</time></trkpt><trkpt lat="40.8150617" lon="14.1635983"><ele>9.6</ele><time>2026-04-15T17:04:23.304Z</time></trkpt><trkpt lat="40.815115" lon="14.1634933"><ele>9.8</ele><time>2026-04-15T17:04:25.305Z</time></trkpt><trkpt lat="40.8151667" lon="14.1634033"><ele>10.0</ele><time>2026-04-15T17:04:27.305Z</time></trkpt><trkpt lat="40.815225" lon="14.163295"><ele>9.2</ele><time>2026-04-15T17:04:29.305Z</time></trkpt><trkpt lat="40.8152883" lon="14.16317"><ele>8.4</ele><time>2026-04-15T17:04:31.305Z</time></trkpt><trkpt lat="40.8153433" lon="14.16304"><ele>7.6</ele><time>2026-04-15T17:04:33.304Z</time></trkpt><trkpt lat="40.8154" lon="14.1629267"><ele>6.8</ele><time>2026-04-15T17:04:35.304Z</time></trkpt><trkpt lat="40.815455" lon="14.162825"><ele>6.0</ele><time>2026-04-15T17:04:37.305Z</time></trkpt><trkpt lat="40.815505" lon="14.1627183"><ele>6.0</ele><time>2026-04-15T17:04:39.305Z</time></trkpt><trkpt lat="40.8155233" lon="14.1626"><ele>6.0</ele><time>2026-04-15T17:04:41.305Z</time></trkpt><trkpt lat="40.8155417" lon="14.16249"><ele>6.0</ele><time>2026-04-15T17:04:43.305Z</time></trkpt><trkpt lat="40.8155833" lon="14.16239"><ele>6.0</ele><time>2026-04-15T17:04:45.304Z</time></trkpt><trkpt lat="40.8156333" lon="14.1622817"><ele>6.0</ele><time>2026-04-15T17:04:47.305Z</time></trkpt><trkpt lat="40.815685" lon="14.1621583"><ele>5.5</ele><time>2026-04-15T17:04:49.305Z</time></trkpt><trkpt lat="40.8157367" lon="14.1620383"><ele>5.0</ele><time>2026-04-15T17:04:51.305Z</time></trkpt><trkpt lat="40.8157767" lon="14.1619483"><ele>4.5</ele><time>2026-04-15T17:04:53.305Z</time></trkpt><trkpt lat="40.8157867" lon="14.1618633"><ele>4.0</ele><time>2026-04-15T17:04:56.305Z</time></trkpt><trkpt lat="40.815835" lon="14.1617567"><ele>3.5</ele><time>2026-04-15T17:04:59.305Z</time></trkpt><trkpt lat="40.8158767" lon="14.16167"><ele>3.0</ele><time>2026-04-15T17:05:01.304Z</time></trkpt><trkpt lat="40.8159183" lon="14.1615717"><ele>2.8</ele><time>2026-04-15T17:05:03.304Z</time></trkpt><trkpt lat="40.81597" lon="14.1614533"><ele>2.5999999999999996</ele><time>2026-04-15T17:05:05.305Z</time></trkpt><trkpt lat="40.8160233" lon="14.1613367"><ele>2.4000000000000004</ele><time>2026-04-15T17:05:07.305Z</time></trkpt><trkpt lat="40.8160833" lon="14.16122"><ele>2.2</ele><time>2026-04-15T17:05:09.304Z</time></trkpt><trkpt lat="40.8161417" lon="14.1610867"><ele>2.0</ele><time>2026-04-15T17:05:11.305Z</time></trkpt><trkpt lat="40.8162033" lon="14.16096"><ele>2.4000000000000004</ele><time>2026-04-15T17:05:13.304Z</time></trkpt><trkpt lat="40.8162517" lon="14.1608467"><ele>2.8000000000000003</ele><time>2026-04-15T17:05:15.304Z</time></trkpt><trkpt lat="40.8162917" lon="14.1607467"><ele>3.2</ele><time>2026-04-15T17:05:17.305Z</time></trkpt><trkpt lat="40.816335" lon="14.1606567"><ele>3.6</ele><time>2026-04-15T17:05:19.305Z</time></trkpt><trkpt lat="40.8163867" lon="14.1605467"><ele>4.0</ele><time>2026-04-15T17:05:21.305Z</time></trkpt><trkpt lat="40.8164383" lon="14.16043"><ele>4.0</ele><time>2026-04-15T17:05:23.305Z</time></trkpt><trkpt lat="40.8164917" lon="14.1603067"><ele>4.0</ele><time>2026-04-15T17:05:25.305Z</time></trkpt><trkpt lat="40.8165517" lon="14.160185"><ele>4.0</ele><time>2026-04-15T17:05:27.308Z</time></trkpt><trkpt lat="40.81661" lon="14.1600517"><ele>4.0</ele><time>2026-04-15T17:05:29.305Z</time></trkpt><trkpt lat="40.8166617" lon="14.1599483"><ele>4.0</ele><time>2026-04-15T17:05:31.305Z</time></trkpt><trkpt lat="40.816695" lon="14.1598733"><ele>4.285714285714286</ele><time>2026-04-15T17:05:33.305Z</time></trkpt><trkpt lat="40.8167333" lon="14.1597983"><ele>4.571428571428571</ele><time>2026-04-15T17:05:35.305Z</time></trkpt><trkpt lat="40.8167783" lon="14.1597317"><ele>4.857142857142857</ele><time>2026-04-15T17:05:37.308Z</time></trkpt><trkpt lat="40.81683" lon="14.1596483"><ele>5.142857142857142</ele><time>2026-04-15T17:05:39.304Z</time></trkpt><trkpt lat="40.8168717" lon="14.159555"><ele>5.428571428571429</ele><time>2026-04-15T17:05:41.308Z</time></trkpt><trkpt lat="40.8169083" lon="14.1594733"><ele>5.7142857142857135</ele><time>2026-04-15T17:05:43.307Z</time></trkpt><trkpt lat="40.81695" lon="14.1593867"><ele>6.0</ele><time>2026-04-15T17:05:46.309Z</time></trkpt><trkpt lat="40.817" lon="14.1592883"><ele>6.0</ele><time>2026-04-15T17:05:50.305Z</time></trkpt><trkpt lat="40.8170333" lon="14.1592117"><ele>6.0</ele><time>2026-04-15T17:05:52.306Z</time></trkpt><trkpt lat="40.817075" lon="14.159115"><ele>6.0</ele><time>2026-04-15T17:05:54.305Z</time></trkpt><trkpt lat="40.8171167" lon="14.1590283"><ele>6.0</ele><time>2026-04-15T17:05:56.309Z</time></trkpt><trkpt lat="40.817175" lon="14.1589567"><ele>6.0</ele><time>2026-04-15T17:05:58.305Z</time></trkpt><trkpt lat="40.8172233" lon="14.1588667"><ele>6.0</ele><time>2026-04-15T17:06:00.304Z</time></trkpt><trkpt lat="40.8172683" lon="14.1587633"><ele>6.199999999999999</ele><time>2026-04-15T17:06:02.304Z</time></trkpt><trkpt lat="40.81731" lon="14.1586517"><ele>6.3999999999999995</ele><time>2026-04-15T17:06:04.305Z</time></trkpt><trkpt lat="40.81736" lon="14.158545"><ele>6.6</ele><time>2026-04-15T17:06:06.305Z</time></trkpt><trkpt lat="40.8174083" lon="14.1584267"><ele>6.8</ele><time>2026-04-15T17:06:08.304Z</time></trkpt><trkpt lat="40.81745" lon="14.1583117"><ele>7.0</ele><time>2026-04-15T17:06:10.304Z</time></trkpt><trkpt lat="40.8174833" lon="14.1582317"><ele>6.666666666666667</ele><time>2026-04-15T17:06:12.304Z</time></trkpt><trkpt lat="40.817505" lon="14.1581483"><ele>6.333333333333334</ele><time>2026-04-15T17:06:17.303Z</time></trkpt><trkpt lat="40.81753" lon="14.1580633"><ele>6.0</ele><time>2026-04-15T17:06:20.304Z</time></trkpt><trkpt lat="40.81756" lon="14.1579467"><ele>5.666666666666667</ele><time>2026-04-15T17:06:23.304Z</time></trkpt><trkpt lat="40.817605" lon="14.15787"><ele>5.333333333333334</ele><time>2026-04-15T17:06:25.304Z</time></trkpt><trkpt lat="40.8176467" lon="14.15778"><ele>5.0</ele><time>2026-04-15T17:06:27.303Z</time></trkpt><trkpt lat="40.8176867" lon="14.1576883"><ele>6.333333333333334</ele><time>2026-04-15T17:06:29.304Z</time></trkpt><trkpt lat="40.8177183" lon="14.1576033"><ele>7.666666666666666</ele><time>2026-04-15T17:06:31.304Z</time></trkpt><trkpt lat="40.817765" lon="14.157495"><ele>9.0</ele><time>2026-04-15T17:06:34.303Z</time></trkpt><trkpt lat="40.81779" lon="14.1573933"><ele>10.333333333333332</ele><time>2026-04-15T17:06:37.304Z</time></trkpt><trkpt lat="40.8178233" lon="14.157305"><ele>11.666666666666666</ele><time>2026-04-15T17:06:42.303Z</time></trkpt><trkpt lat="40.8178467" lon="14.157195"><ele>13.0</ele><time>2026-04-15T17:06:45.303Z</time></trkpt><trkpt lat="40.8178767" lon="14.15711"><ele>13.0</ele><time>2026-04-15T17:06:47.305Z</time></trkpt><trkpt lat="40.8179167" lon="14.1570217"><ele>13.0</ele><time>2026-04-15T17:06:49.303Z</time></trkpt><trkpt lat="40.8179583" lon="14.1569117"><ele>13.0</ele><time>2026-04-15T17:06:51.303Z</time></trkpt><trkpt lat="40.8179933" lon="14.156805"><ele>13.0</ele><time>2026-04-15T17:06:53.303Z</time></trkpt><trkpt lat="40.818035" lon="14.1566867"><ele>13.0</ele><time>2026-04-15T17:06:55.304Z</time></trkpt><trkpt lat="40.8180733" lon="14.1565633"><ele>13.2</ele><time>2026-04-15T17:06:57.303Z</time></trkpt><trkpt lat="40.8181167" lon="14.1564417"><ele>13.4</ele><time>2026-04-15T17:06:59.304Z</time></trkpt><trkpt lat="40.81815" lon="14.156305"><ele>13.599999999999998</ele><time>2026-04-15T17:07:01.304Z</time></trkpt><trkpt lat="40.8181717" lon="14.1561933"><ele>13.799999999999999</ele><time>2026-04-15T17:07:03.304Z</time></trkpt><trkpt lat="40.8181817" lon="14.156075"><ele>14.0</ele><time>2026-04-15T17:07:05.304Z</time></trkpt><trkpt lat="40.81817" lon="14.1559633"><ele>14.0</ele><time>2026-04-15T17:07:07.303Z</time></trkpt><trkpt lat="40.81815" lon="14.1558517"><ele>13.999999999999998</ele><time>2026-04-15T17:07:09.303Z</time></trkpt><trkpt lat="40.818125" lon="14.1557383"><ele>13.999999999999998</ele><time>2026-04-15T17:07:11.304Z</time></trkpt><trkpt lat="40.8180767" lon="14.15564"><ele>14.0</ele><time>2026-04-15T17:07:13.305Z</time></trkpt><trkpt lat="40.8180133" lon="14.1555483"><ele>14.0</ele><time>2026-04-15T17:07:15.305Z</time></trkpt><trkpt lat="40.8179483" lon="14.1554467"><ele>15.5</ele><time>2026-04-15T17:07:17.304Z</time></trkpt><trkpt lat="40.8178767" lon="14.1553417"><ele>17.0</ele><time>2026-04-15T17:07:19.303Z</time></trkpt><trkpt lat="40.8177967" lon="14.1552283"><ele>18.5</ele><time>2026-04-15T17:07:21.308Z</time></trkpt><trkpt lat="40.8177283" lon="14.1550967"><ele>20.0</ele><time>2026-04-15T17:07:23.308Z</time></trkpt><trkpt lat="40.817675" lon="14.1549567"><ele>20.25</ele><time>2026-04-15T17:07:25.303Z</time></trkpt><trkpt lat="40.8176667" lon="14.1547983"><ele>20.5</ele><time>2026-04-15T17:07:27.308Z</time></trkpt><trkpt lat="40.8177217" lon="14.1546583"><ele>20.75</ele><time>2026-04-15T17:07:29.307Z</time></trkpt><trkpt lat="40.8178067" lon="14.1545433"><ele>21.0</ele><time>2026-04-15T17:07:31.304Z</time></trkpt><trkpt lat="40.8179" lon="14.1544367"><ele>21.0</ele><time>2026-04-15T17:07:33.304Z</time></trkpt><trkpt lat="40.817975" lon="14.1543183"><ele>21.0</ele><time>2026-04-15T17:07:35.303Z</time></trkpt><trkpt lat="40.8180467" lon="14.1541817"><ele>21.0</ele><time>2026-04-15T17:07:37.304Z</time></trkpt><trkpt lat="40.8180917" lon="14.1540333"><ele>21.0</ele><time>2026-04-15T17:07:39.304Z</time></trkpt><trkpt lat="40.8180967" lon="14.1539483"><ele>21.0</ele><time>2026-04-15T17:07:40.304Z</time></trkpt><trkpt lat="40.8180917" lon="14.15379"><ele>21.428571428571427</ele><time>2026-04-15T17:07:42.305Z</time></trkpt><trkpt lat="40.8180717" lon="14.15363"><ele>21.857142857142858</ele><time>2026-04-15T17:07:44.305Z</time></trkpt><trkpt lat="40.8180667" lon="14.1535433"><ele>22.285714285714285</ele><time>2026-04-15T17:07:45.304Z</time></trkpt><trkpt lat="40.8180633" lon="14.1534567"><ele>22.714285714285715</ele><time>2026-04-15T17:07:46.304Z</time></trkpt><trkpt lat="40.8180517" lon="14.1533717"><ele>23.142857142857142</ele><time>2026-04-15T17:07:47.305Z</time></trkpt><trkpt lat="40.8180467" lon="14.1532867"><ele>23.57142857142857</ele><time>2026-04-15T17:07:48.305Z</time></trkpt><trkpt lat="40.818045" lon="14.1532017"><ele>24.0</ele><time>2026-04-15T17:07:49.306Z</time></trkpt><trkpt lat="40.81804" lon="14.15304"><ele>25.6</ele><time>2026-04-15T17:07:51.305Z</time></trkpt><trkpt lat="40.818045" lon="14.15288"><ele>27.2</ele><time>2026-04-15T17:07:53.305Z</time></trkpt><trkpt lat="40.8180467" lon="14.1527967"><ele>28.800000000000004</ele><time>2026-04-15T17:07:54.304Z</time></trkpt><trkpt lat="40.8180267" lon="14.1526417"><ele>30.400000000000002</ele><time>2026-04-15T17:07:56.305Z</time></trkpt><trkpt lat="40.8179867" lon="14.15249"><ele>32.0</ele><time>2026-04-15T17:07:58.304Z</time></trkpt><trkpt lat="40.8179633" lon="14.15241"><ele>31.6</ele><time>2026-04-15T17:07:59.304Z</time></trkpt><trkpt lat="40.8179233" lon="14.1522483"><ele>31.200000000000003</ele><time>2026-04-15T17:08:01.304Z</time></trkpt><trkpt lat="40.817905" lon="14.1521683"><ele>30.8</ele><time>2026-04-15T17:08:02.308Z</time></trkpt><trkpt lat="40.81787" lon="14.1520133"><ele>30.4</ele><time>2026-04-15T17:08:04.304Z</time></trkpt><trkpt lat="40.8178083" lon="14.1518833"><ele>30.0</ele><time>2026-04-15T17:08:06.308Z</time></trkpt><trkpt lat="40.8177483" lon="14.1517583"><ele>30.0</ele><time>2026-04-15T17:08:08.308Z</time></trkpt><trkpt lat="40.817715" lon="14.1516233"><ele>30.0</ele><time>2026-04-15T17:08:10.307Z</time></trkpt><trkpt lat="40.8177083" lon="14.1514983"><ele>30.0</ele><time>2026-04-15T17:08:12.308Z</time></trkpt><trkpt lat="40.8177467" lon="14.1513817"><ele>30.0</ele><time>2026-04-15T17:08:14.308Z</time></trkpt><trkpt lat="40.8178017" lon="14.1512717"><ele>30.0</ele><time>2026-04-15T17:08:16.304Z</time></trkpt><trkpt lat="40.817855" lon="14.15117"><ele>28.0</ele><time>2026-04-15T17:08:18.305Z</time></trkpt><trkpt lat="40.8179033" lon="14.151085"><ele>26.0</ele><time>2026-04-15T17:08:20.304Z</time></trkpt><trkpt lat="40.8179483" lon="14.1510017"><ele>24.0</ele><time>2026-04-15T17:08:22.304Z</time></trkpt><trkpt lat="40.81801" lon="14.1509"><ele>22.0</ele><time>2026-04-15T17:08:24.305Z</time></trkpt><trkpt lat="40.8180733" lon="14.15078"><ele>20.0</ele><time>2026-04-15T17:08:26.305Z</time></trkpt><trkpt lat="40.818125" lon="14.1506467"><ele>17.6</ele><time>2026-04-15T17:08:28.304Z</time></trkpt><trkpt lat="40.8181583" lon="14.1505033"><ele>15.2</ele><time>2026-04-15T17:08:30.304Z</time></trkpt><trkpt lat="40.8181867" lon="14.1503683"><ele>12.8</ele><time>2026-04-15T17:08:32.305Z</time></trkpt><trkpt lat="40.8182133" lon="14.150245"><ele>10.4</ele><time>2026-04-15T17:08:34.304Z</time></trkpt><trkpt lat="40.8182483" lon="14.1501267"><ele>8.0</ele><time>2026-04-15T17:08:36.305Z</time></trkpt><trkpt lat="40.8182733" lon="14.1500033"><ele>7.2</ele><time>2026-04-15T17:08:38.304Z</time></trkpt><trkpt lat="40.818295" lon="14.149875"><ele>6.4</ele><time>2026-04-15T17:08:40.304Z</time></trkpt><trkpt lat="40.8183283" lon="14.1497533"><ele>5.6000000000000005</ele><time>2026-04-15T17:08:42.305Z</time></trkpt><trkpt lat="40.81838" lon="14.1496467"><ele>4.800000000000001</ele><time>2026-04-15T17:08:44.305Z</time></trkpt><trkpt lat="40.8184267" lon="14.1495283"><ele>4.0</ele><time>2026-04-15T17:08:46.305Z</time></trkpt><trkpt lat="40.81847" lon="14.1493783"><ele>8.428571428571429</ele><time>2026-04-15T17:08:48.305Z</time></trkpt><trkpt lat="40.818495" lon="14.149295"><ele>12.857142857142858</ele><time>2026-04-15T17:08:49.304Z</time></trkpt><trkpt lat="40.8185217" lon="14.1492167"><ele>17.285714285714285</ele><time>2026-04-15T17:08:50.305Z</time></trkpt><trkpt lat="40.81855" lon="14.1491333"><ele>21.714285714285715</ele><time>2026-04-15T17:08:51.305Z</time></trkpt><trkpt lat="40.8185767" lon="14.14905"><ele>26.142857142857142</ele><time>2026-04-15T17:08:52.305Z</time></trkpt><trkpt lat="40.8186" lon="14.1489667"><ele>30.571428571428573</ele><time>2026-04-15T17:08:53.305Z</time></trkpt><trkpt lat="40.81862" lon="14.1488783"><ele>35.0</ele><time>2026-04-15T17:08:54.305Z</time></trkpt><trkpt lat="40.8186367" lon="14.1487933"><ele>35.0</ele><time>2026-04-15T17:08:55.305Z</time></trkpt><trkpt lat="40.8186483" lon="14.1487083"><ele>35.0</ele><time>2026-04-15T17:08:56.305Z</time></trkpt><trkpt lat="40.8186483" lon="14.14862"><ele>35.0</ele><time>2026-04-15T17:08:57.305Z</time></trkpt><trkpt lat="40.81865" lon="14.1485317"><ele>35.0</ele><time>2026-04-15T17:08:58.304Z</time></trkpt><trkpt lat="40.818645" lon="14.148445"><ele>35.0</ele><time>2026-04-15T17:08:59.304Z</time></trkpt><trkpt lat="40.8186433" lon="14.14836"><ele>35.0</ele><time>2026-04-15T17:09:00.305Z</time></trkpt><trkpt lat="40.8186333" lon="14.1481917"><ele>36.0</ele><time>2026-04-15T17:09:02.306Z</time></trkpt><trkpt lat="40.8186283" lon="14.1481067"><ele>37.0</ele><time>2026-04-15T17:09:03.305Z</time></trkpt><trkpt lat="40.8186233" lon="14.1480183"><ele>38.0</ele><time>2026-04-15T17:09:04.305Z</time></trkpt><trkpt lat="40.81862" lon="14.1479333"><ele>39.0</ele><time>2026-04-15T17:09:05.305Z</time></trkpt><trkpt lat="40.8186167" lon="14.14785"><ele>40.0</ele><time>2026-04-15T17:09:06.304Z</time></trkpt><trkpt lat="40.8186117" lon="14.1476867"><ele>41.0</ele><time>2026-04-15T17:09:08.305Z</time></trkpt><trkpt lat="40.8186067" lon="14.1476017"><ele>42.0</ele><time>2026-04-15T17:09:09.305Z</time></trkpt><trkpt lat="40.8186017" lon="14.1475167"><ele>42.0</ele><time>2026-04-15T17:09:10.303Z</time></trkpt><trkpt lat="40.8186" lon="14.1474317"><ele>42.0</ele><time>2026-04-15T17:09:11.305Z</time></trkpt><trkpt lat="40.818605" lon="14.1473433"><ele>42.0</ele><time>2026-04-15T17:09:12.306Z</time></trkpt><trkpt lat="40.8186133" lon="14.147255"><ele>42.0</ele><time>2026-04-15T17:09:13.305Z</time></trkpt><trkpt lat="40.81862" lon="14.1471667"><ele>42.0</ele><time>2026-04-15T17:09:14.308Z</time></trkpt><trkpt lat="40.8186267" lon="14.14708"><ele>42.0</ele><time>2026-04-15T17:09:15.308Z</time></trkpt><trkpt lat="40.818635" lon="14.146995"><ele>42.0</ele><time>2026-04-15T17:09:16.304Z</time></trkpt><trkpt lat="40.8186517" lon="14.1469033"><ele>41.833333333333336</ele><time>2026-04-15T17:09:17.307Z</time></trkpt><trkpt lat="40.8186683" lon="14.1468117"><ele>41.666666666666664</ele><time>2026-04-15T17:09:18.304Z</time></trkpt><trkpt lat="40.8186783" lon="14.146725"><ele>41.5</ele><time>2026-04-15T17:09:19.305Z</time></trkpt><trkpt lat="40.8186867" lon="14.1466417"><ele>41.33333333333333</ele><time>2026-04-15T17:09:20.305Z</time></trkpt><trkpt lat="40.8186917" lon="14.1465583"><ele>41.166666666666664</ele><time>2026-04-15T17:09:21.308Z</time></trkpt><trkpt lat="40.8187117" lon="14.14639"><ele>41.0</ele><time>2026-04-15T17:09:23.305Z</time></trkpt><trkpt lat="40.818725" lon="14.146305"><ele>40.666666666666664</ele><time>2026-04-15T17:09:24.305Z</time></trkpt><trkpt lat="40.8187333" lon="14.1462167"><ele>40.33333333333333</ele><time>2026-04-15T17:09:25.304Z</time></trkpt><trkpt lat="40.81875" lon="14.1460533"><ele>40.0</ele><time>2026-04-15T17:09:27.305Z</time></trkpt><trkpt lat="40.818755" lon="14.1459683"><ele>39.666666666666664</ele><time>2026-04-15T17:09:28.303Z</time></trkpt><trkpt lat="40.8187567" lon="14.14588"><ele>39.333333333333336</ele><time>2026-04-15T17:09:29.305Z</time></trkpt><trkpt lat="40.8187533" lon="14.1457967"><ele>39.0</ele><time>2026-04-15T17:09:30.305Z</time></trkpt><trkpt lat="40.8187467" lon="14.14571"><ele>39.0</ele><time>2026-04-15T17:09:31.305Z</time></trkpt><trkpt lat="40.8187383" lon="14.1456267"><ele>39.0</ele><time>2026-04-15T17:09:32.305Z</time></trkpt><trkpt lat="40.818725" lon="14.14554"><ele>39.0</ele><time>2026-04-15T17:09:33.304Z</time></trkpt><trkpt lat="40.8187117" lon="14.145455"><ele>39.0</ele><time>2026-04-15T17:09:34.304Z</time></trkpt><trkpt lat="40.8187" lon="14.14537"><ele>39.0</ele><time>2026-04-15T17:09:35.304Z</time></trkpt><trkpt lat="40.818685" lon="14.14528"><ele>39.0</ele><time>2026-04-15T17:09:36.305Z</time></trkpt><trkpt lat="40.8186717" lon="14.1451917"><ele>39.0</ele><time>2026-04-15T17:09:37.304Z</time></trkpt><trkpt lat="40.8186617" lon="14.145105"><ele>39.0</ele><time>2026-04-15T17:09:38.305Z</time></trkpt><trkpt lat="40.81865" lon="14.14502"><ele>39.0</ele><time>2026-04-15T17:09:39.305Z</time></trkpt><trkpt lat="40.8186333" lon="14.144865"><ele>39.0</ele><time>2026-04-15T17:09:41.304Z</time></trkpt><trkpt lat="40.8186217" lon="14.144705"><ele>39.0</ele><time>2026-04-15T17:09:43.303Z</time></trkpt><trkpt lat="40.8186083" lon="14.14455"><ele>39.0</ele><time>2026-04-15T17:09:45.304Z</time></trkpt><trkpt lat="40.8185983" lon="14.1444667"><ele>40.0</ele><time>2026-04-15T17:09:46.305Z</time></trkpt><trkpt lat="40.8185783" lon="14.1443083"><ele>41.0</ele><time>2026-04-15T17:09:48.304Z</time></trkpt><trkpt lat="40.8185517" lon="14.1441517"><ele>42.0</ele><time>2026-04-15T17:09:50.304Z</time></trkpt><trkpt lat="40.8185333" lon="14.14399"><ele>43.0</ele><time>2026-04-15T17:09:52.304Z</time></trkpt><trkpt lat="40.8185217" lon="14.143905"><ele>44.0</ele><time>2026-04-15T17:09:53.304Z</time></trkpt><trkpt lat="40.818505" lon="14.14374"><ele>44.0</ele><time>2026-04-15T17:09:55.304Z</time></trkpt><trkpt lat="40.8184917" lon="14.1435783"><ele>44.0</ele><time>2026-04-15T17:09:57.305Z</time></trkpt><trkpt lat="40.8184917" lon="14.1434167"><ele>44.0</ele><time>2026-04-15T17:09:59.305Z</time></trkpt><trkpt lat="40.818505" lon="14.1432567"><ele>44.0</ele><time>2026-04-15T17:10:01.305Z</time></trkpt><trkpt lat="40.8185183" lon="14.1431017"><ele>44.6</ele><time>2026-04-15T17:10:03.305Z</time></trkpt><trkpt lat="40.8185217" lon="14.142945"><ele>45.2</ele><time>2026-04-15T17:10:05.304Z</time></trkpt><trkpt lat="40.81853" lon="14.1428617"><ele>45.800000000000004</ele><time>2026-04-15T17:10:06.305Z</time></trkpt><trkpt lat="40.818545" lon="14.1427"><ele>46.400000000000006</ele><time>2026-04-15T17:10:08.304Z</time></trkpt><trkpt lat="40.81855" lon="14.1425467"><ele>47.0</ele><time>2026-04-15T17:10:10.304Z</time></trkpt><trkpt lat="40.8185433" lon="14.1424033"><ele>50.2</ele><time>2026-04-15T17:10:12.308Z</time></trkpt><trkpt lat="40.81855" lon="14.1422567"><ele>53.400000000000006</ele><time>2026-04-15T17:10:14.304Z</time></trkpt><trkpt lat="40.818555" lon="14.1421033"><ele>56.599999999999994</ele><time>2026-04-15T17:10:16.304Z</time></trkpt><trkpt lat="40.8185483" lon="14.1419567"><ele>59.8</ele><time>2026-04-15T17:10:18.306Z</time></trkpt><trkpt lat="40.81852" lon="14.1418183"><ele>63.0</ele><time>2026-04-15T17:10:20.305Z</time></trkpt><trkpt lat="40.81847" lon="14.14169"><ele>54.199999999999996</ele><time>2026-04-15T17:10:22.305Z</time></trkpt><trkpt lat="40.8184117" lon="14.141555"><ele>45.4</ele><time>2026-04-15T17:10:24.308Z</time></trkpt><trkpt lat="40.8183633" lon="14.1414417"><ele>36.599999999999994</ele><time>2026-04-15T17:10:26.308Z</time></trkpt><trkpt lat="40.8183133" lon="14.1413233"><ele>27.799999999999997</ele><time>2026-04-15T17:10:28.308Z</time></trkpt><trkpt lat="40.8182533" lon="14.1412083"><ele>19.0</ele><time>2026-04-15T17:10:30.308Z</time></trkpt><trkpt lat="40.8181983" lon="14.141085"><ele>19.0</ele><time>2026-04-15T17:10:32.305Z</time></trkpt><trkpt lat="40.8181517" lon="14.1409533"><ele>19.0</ele><time>2026-04-15T17:10:34.304Z</time></trkpt><trkpt lat="40.8181133" lon="14.1408233"><ele>19.0</ele><time>2026-04-15T17:10:36.308Z</time></trkpt><trkpt lat="40.81807" lon="14.1406883"><ele>19.0</ele><time>2026-04-15T17:10:38.308Z</time></trkpt><trkpt lat="40.8180333" lon="14.140555"><ele>19.0</ele><time>2026-04-15T17:10:40.308Z</time></trkpt><trkpt lat="40.8179933" lon="14.1404217"><ele>20.4</ele><time>2026-04-15T17:10:42.308Z</time></trkpt><trkpt lat="40.8179683" lon="14.1402817"><ele>21.799999999999997</ele><time>2026-04-15T17:10:44.307Z</time></trkpt><trkpt lat="40.8179433" lon="14.1401333"><ele>23.200000000000003</ele><time>2026-04-15T17:10:46.305Z</time></trkpt><trkpt lat="40.8179317" lon="14.1399967"><ele>24.6</ele><time>2026-04-15T17:10:48.306Z</time></trkpt><trkpt lat="40.8179233" lon="14.1398483"><ele>26.0</ele><time>2026-04-15T17:10:50.305Z</time></trkpt><trkpt lat="40.8179167" lon="14.139705"><ele>26.0</ele><time>2026-04-15T17:10:52.305Z</time></trkpt><trkpt lat="40.81791" lon="14.1395667"><ele>26.0</ele><time>2026-04-15T17:10:54.304Z</time></trkpt><trkpt lat="40.8179117" lon="14.139425"><ele>26.0</ele><time>2026-04-15T17:10:56.309Z</time></trkpt><trkpt lat="40.8179117" lon="14.1392733"><ele>26.0</ele><time>2026-04-15T17:10:58.308Z</time></trkpt><trkpt lat="40.81792" lon="14.13912"><ele>26.0</ele><time>2026-04-15T17:11:00.308Z</time></trkpt><trkpt lat="40.8179333" lon="14.1389633"><ele>25.499999999999996</ele><time>2026-04-15T17:11:02.309Z</time></trkpt><trkpt lat="40.8179583" lon="14.1388017"><ele>25.0</ele><time>2026-04-15T17:11:04.305Z</time></trkpt><trkpt lat="40.81797" lon="14.1387183"><ele>24.5</ele><time>2026-04-15T17:11:05.309Z</time></trkpt><trkpt lat="40.8179817" lon="14.138625"><ele>24.0</ele><time>2026-04-15T17:11:06.308Z</time></trkpt><trkpt lat="40.817995" lon="14.1385367"><ele>23.5</ele><time>2026-04-15T17:11:07.305Z</time></trkpt><trkpt lat="40.8180117" lon="14.1384517"><ele>23.0</ele><time>2026-04-15T17:11:08.411Z</time></trkpt><trkpt lat="40.8180467" lon="14.138285"><ele>22.142857142857142</ele><time>2026-04-15T17:11:10.309Z</time></trkpt><trkpt lat="40.818065" lon="14.1382033"><ele>21.285714285714285</ele><time>2026-04-15T17:11:11.305Z</time></trkpt><trkpt lat="40.8180817" lon="14.1381217"><ele>20.428571428571427</ele><time>2026-04-15T17:11:12.305Z</time></trkpt><trkpt lat="40.8181017" lon="14.1380383"><ele>19.57142857142857</ele><time>2026-04-15T17:11:13.304Z</time></trkpt><trkpt lat="40.818125" lon="14.137955"><ele>18.714285714285715</ele><time>2026-04-15T17:11:14.305Z</time></trkpt><trkpt lat="40.8181467" lon="14.1378717"><ele>17.857142857142854</ele><time>2026-04-15T17:11:15.309Z</time></trkpt><trkpt lat="40.81817" lon="14.1377883"><ele>17.0</ele><time>2026-04-15T17:11:16.308Z</time></trkpt><trkpt lat="40.8181917" lon="14.1377017"><ele>16.999999999999996</ele><time>2026-04-15T17:11:17.305Z</time></trkpt><trkpt lat="40.818215" lon="14.1376183"><ele>17.0</ele><time>2026-04-15T17:11:18.305Z</time></trkpt><trkpt lat="40.8182383" lon="14.1375367"><ele>17.0</ele><time>2026-04-15T17:11:19.305Z</time></trkpt><trkpt lat="40.8182633" lon="14.137455"><ele>17.0</ele><time>2026-04-15T17:11:20.306Z</time></trkpt><trkpt lat="40.8182933" lon="14.1373783"><ele>17.0</ele><time>2026-04-15T17:11:21.305Z</time></trkpt><trkpt lat="40.8183233" lon="14.137305"><ele>16.999999999999996</ele><time>2026-04-15T17:11:22.305Z</time></trkpt><trkpt lat="40.818355" lon="14.1372283"><ele>17.0</ele><time>2026-04-15T17:11:23.305Z</time></trkpt><trkpt lat="40.81841" lon="14.1370833"><ele>17.142857142857142</ele><time>2026-04-15T17:11:25.304Z</time></trkpt><trkpt lat="40.8184433" lon="14.1370083"><ele>17.285714285714285</ele><time>2026-04-15T17:11:26.305Z</time></trkpt><trkpt lat="40.8184817" lon="14.1369333"><ele>17.42857142857143</ele><time>2026-04-15T17:11:27.304Z</time></trkpt><trkpt lat="40.8185233" lon="14.1368617"><ele>17.57142857142857</ele><time>2026-04-15T17:11:28.305Z</time></trkpt><trkpt lat="40.8185633" lon="14.136795"><ele>17.714285714285715</ele><time>2026-04-15T17:11:29.303Z</time></trkpt><trkpt lat="40.8186033" lon="14.13673"><ele>17.857142857142858</ele><time>2026-04-15T17:11:30.304Z</time></trkpt><trkpt lat="40.8186417" lon="14.1366567"><ele>18.0</ele><time>2026-04-15T17:11:31.304Z</time></trkpt><trkpt lat="40.8187233" lon="14.136525"><ele>16.8</ele><time>2026-04-15T17:11:33.304Z</time></trkpt><trkpt lat="40.8187667" lon="14.13646"><ele>15.600000000000001</ele><time>2026-04-15T17:11:34.303Z</time></trkpt><trkpt lat="40.818805" lon="14.1363933"><ele>14.399999999999999</ele><time>2026-04-15T17:11:35.303Z</time></trkpt><trkpt lat="40.81888" lon="14.1362633"><ele>13.2</ele><time>2026-04-15T17:11:37.304Z</time></trkpt><trkpt lat="40.8189567" lon="14.1361317"><ele>12.0</ele><time>2026-04-15T17:11:39.304Z</time></trkpt><trkpt lat="40.8190333" lon="14.136"><ele>12.0</ele><time>2026-04-15T17:11:41.304Z</time></trkpt><trkpt lat="40.8191167" lon="14.13588"><ele>12.0</ele><time>2026-04-15T17:11:43.304Z</time></trkpt><trkpt lat="40.81916" lon="14.135815"><ele>12.0</ele><time>2026-04-15T17:11:44.304Z</time></trkpt><trkpt lat="40.8192033" lon="14.135745"><ele>12.0</ele><time>2026-04-15T17:11:45.303Z</time></trkpt><trkpt lat="40.819245" lon="14.1356783"><ele>12.0</ele><time>2026-04-15T17:11:46.308Z</time></trkpt><trkpt lat="40.8192867" lon="14.135615"><ele>12.0</ele><time>2026-04-15T17:11:47.303Z</time></trkpt><trkpt lat="40.8193667" lon="14.13549"><ele>11.714285714285714</ele><time>2026-04-15T17:11:49.304Z</time></trkpt><trkpt lat="40.8194067" lon="14.13542"><ele>11.428571428571429</ele><time>2026-04-15T17:11:50.304Z</time></trkpt><trkpt lat="40.8194467" lon="14.1353483"><ele>11.142857142857142</ele><time>2026-04-15T17:11:51.304Z</time></trkpt><trkpt lat="40.819485" lon="14.135275"><ele>10.857142857142858</ele><time>2026-04-15T17:11:52.303Z</time></trkpt><trkpt lat="40.8195233" lon="14.1352017"><ele>10.571428571428571</ele><time>2026-04-15T17:11:53.303Z</time></trkpt><trkpt lat="40.8195617" lon="14.13513"><ele>10.285714285714285</ele><time>2026-04-15T17:11:54.303Z</time></trkpt><trkpt lat="40.819605" lon="14.1350633"><ele>10.0</ele><time>2026-04-15T17:11:55.304Z</time></trkpt><trkpt lat="40.8196467" lon="14.1349967"><ele>10.0</ele><time>2026-04-15T17:11:56.305Z</time></trkpt><trkpt lat="40.8196883" lon="14.1349317"><ele>10.0</ele><time>2026-04-15T17:11:57.303Z</time></trkpt><trkpt lat="40.8197283" lon="14.1348617"><ele>10.0</ele><time>2026-04-15T17:11:58.304Z</time></trkpt><trkpt lat="40.81977" lon="14.13479"><ele>10.0</ele><time>2026-04-15T17:11:59.303Z</time></trkpt><trkpt lat="40.8198083" lon="14.1347217"><ele>10.0</ele><time>2026-04-15T17:12:00.303Z</time></trkpt><trkpt lat="40.8198483" lon="14.1346533"><ele>10.0</ele><time>2026-04-15T17:12:01.303Z</time></trkpt><trkpt lat="40.8198883" lon="14.1345817"><ele>10.0</ele><time>2026-04-15T17:12:02.305Z</time></trkpt><trkpt lat="40.8199317" lon="14.1345133"><ele>9.5</ele><time>2026-04-15T17:12:03.304Z</time></trkpt><trkpt lat="40.8199783" lon="14.1344467"><ele>9.0</ele><time>2026-04-15T17:12:04.304Z</time></trkpt><trkpt lat="40.82002" lon="14.1343767"><ele>8.5</ele><time>2026-04-15T17:12:05.306Z</time></trkpt><trkpt lat="40.8200583" lon="14.1343067"><ele>8.0</ele><time>2026-04-15T17:12:06.304Z</time></trkpt><trkpt lat="40.8201333" lon="14.1341917"><ele>7.500000000000001</ele><time>2026-04-15T17:12:08.305Z</time></trkpt><trkpt lat="40.8201833" lon="14.1341017"><ele>7.0</ele><time>2026-04-15T17:12:10.304Z</time></trkpt><trkpt lat="40.8202" lon="14.134015"><ele>6.833333333333334</ele><time>2026-04-15T17:12:12.307Z</time></trkpt><trkpt lat="40.8202017" lon="14.133925"><ele>6.666666666666667</ele><time>2026-04-15T17:12:17.304Z</time></trkpt><trkpt lat="40.8202067" lon="14.1338367"><ele>6.5</ele><time>2026-04-15T17:12:20.303Z</time></trkpt><trkpt lat="40.8202317" lon="14.133735"><ele>6.333333333333334</ele><time>2026-04-15T17:12:23.304Z</time></trkpt><trkpt lat="40.8202433" lon="14.1335467"><ele>6.166666666666667</ele><time>2026-04-15T17:13:07.305Z</time></trkpt><trkpt lat="40.8202833" lon="14.1334483"><ele>6.0</ele><time>2026-04-15T17:13:10.306Z</time></trkpt><trkpt lat="40.82032" lon="14.1333633"><ele>5.999999999999999</ele><time>2026-04-15T17:13:12.307Z</time></trkpt><trkpt lat="40.820365" lon="14.133275"><ele>6.0</ele><time>2026-04-15T17:13:14.306Z</time></trkpt><trkpt lat="40.8204033" lon="14.1331983"><ele>6.0</ele><time>2026-04-15T17:13:16.306Z</time></trkpt><trkpt lat="40.8204417" lon="14.1331267"><ele>6.0</ele><time>2026-04-15T17:13:18.306Z</time></trkpt><trkpt lat="40.8204783" lon="14.1330333"><ele>6.0</ele><time>2026-04-15T17:13:20.306Z</time></trkpt><trkpt lat="40.8205083" lon="14.1329567"><ele>5.999999999999999</ele><time>2026-04-15T17:13:22.307Z</time></trkpt><trkpt lat="40.820525" lon="14.13285"><ele>6.0</ele><time>2026-04-15T17:13:24.304Z</time></trkpt><trkpt lat="40.8205533" lon="14.1327417"><ele>5.8</ele><time>2026-04-15T17:13:26.305Z</time></trkpt><trkpt lat="40.820575" lon="14.1326433"><ele>5.6</ele><time>2026-04-15T17:13:28.304Z</time></trkpt><trkpt lat="40.8205883" lon="14.1325333"><ele>5.4</ele><time>2026-04-15T17:13:30.305Z</time></trkpt><trkpt lat="40.8206067" lon="14.132415"><ele>5.2</ele><time>2026-04-15T17:13:32.306Z</time></trkpt><trkpt lat="40.8206233" lon="14.1322917"><ele>5.0</ele><time>2026-04-15T17:13:34.309Z</time></trkpt><trkpt lat="40.8206533" lon="14.132155"><ele>4.6</ele><time>2026-04-15T17:13:36.306Z</time></trkpt><trkpt lat="40.820675" lon="14.1320233"><ele>4.2</ele><time>2026-04-15T17:13:38.305Z</time></trkpt><trkpt lat="40.8206917" lon="14.131885"><ele>3.8</ele><time>2026-04-15T17:13:40.308Z</time></trkpt><trkpt lat="40.820705" lon="14.1317533"><ele>3.4</ele><time>2026-04-15T17:13:42.307Z</time></trkpt><trkpt lat="40.8207283" lon="14.1316233"><ele>3.0</ele><time>2026-04-15T17:13:44.308Z</time></trkpt><trkpt lat="40.8207583" lon="14.1314883"><ele>2.6</ele><time>2026-04-15T17:13:46.305Z</time></trkpt><trkpt lat="40.820775" lon="14.1313617"><ele>2.1999999999999997</ele><time>2026-04-15T17:13:48.306Z</time></trkpt><trkpt lat="40.8207967" lon="14.1312417"><ele>1.8</ele><time>2026-04-15T17:13:50.306Z</time></trkpt><trkpt lat="40.8208083" lon="14.1311217"><ele>1.4</ele><time>2026-04-15T17:13:52.31Z</time></trkpt><trkpt lat="40.8208267" lon="14.131005"><ele>1.0</ele><time>2026-04-15T17:13:54.304Z</time></trkpt><trkpt lat="40.82085" lon="14.130895"><ele>1.0</ele><time>2026-04-15T17:13:56.313Z</time></trkpt><trkpt lat="40.8208667" lon="14.13078"><ele>1.0</ele><time>2026-04-15T17:13:58.305Z</time></trkpt><trkpt lat="40.8208833" lon="14.1306567"><ele>1.0</ele><time>2026-04-15T17:14:00.308Z</time></trkpt><trkpt lat="40.8208967" lon="14.1305267"><ele>1.0</ele><time>2026-04-15T17:14:02.307Z</time></trkpt><trkpt lat="40.8209217" lon="14.1303967"><ele>1.0</ele><time>2026-04-15T17:14:04.308Z</time></trkpt><trkpt lat="40.8209383" lon="14.1302767"><ele>0.8</ele><time>2026-04-15T17:14:06.312Z</time></trkpt><trkpt lat="40.8209583" lon="14.1301617"><ele>0.6000000000000001</ele><time>2026-04-15T17:14:08.305Z</time></trkpt><trkpt lat="40.820975" lon="14.1300533"><ele>0.4</ele><time>2026-04-15T17:14:10.305Z</time></trkpt><trkpt lat="40.82099" lon="14.1299467"><ele>0.2</ele><time>2026-04-15T17:14:12.304Z</time></trkpt><trkpt lat="40.8210017" lon="14.1298233"><ele>0.0</ele><time>2026-04-15T17:14:14.304Z</time></trkpt><trkpt lat="40.8210233" lon="14.1296933"><ele>0.2</ele><time>2026-04-15T17:14:16.305Z</time></trkpt><trkpt lat="40.821015" lon="14.1295617"><ele>0.4</ele><time>2026-04-15T17:14:18.304Z</time></trkpt><trkpt lat="40.8210083" lon="14.1294183"><ele>0.6000000000000001</ele><time>2026-04-15T17:14:20.306Z</time></trkpt><trkpt lat="40.82099" lon="14.1292867"><ele>0.8</ele><time>2026-04-15T17:14:22.305Z</time></trkpt><trkpt lat="40.8209833" lon="14.1291567"><ele>1.0</ele><time>2026-04-15T17:14:24.323Z</time></trkpt><trkpt lat="40.8209783" lon="14.1290267"><ele>2.0</ele><time>2026-04-15T17:14:26.306Z</time></trkpt><trkpt lat="40.8209833" lon="14.1288833"><ele>3.0</ele><time>2026-04-15T17:14:28.305Z</time></trkpt><trkpt lat="40.8209933" lon="14.1287483"><ele>3.9999999999999996</ele><time>2026-04-15T17:14:30.305Z</time></trkpt><trkpt lat="40.821005" lon="14.128615"><ele>5.0</ele><time>2026-04-15T17:14:32.314Z</time></trkpt><trkpt lat="40.82101" lon="14.1284817"><ele>6.0</ele><time>2026-04-15T17:14:34.313Z</time></trkpt><trkpt lat="40.8210167" lon="14.1283433"><ele>6.0</ele><time>2026-04-15T17:14:36.305Z</time></trkpt><trkpt lat="40.8210233" lon="14.1282033"><ele>6.0</ele><time>2026-04-15T17:14:38.306Z</time></trkpt><trkpt lat="40.821025" lon="14.1280683"><ele>6.0</ele><time>2026-04-15T17:14:40.307Z</time></trkpt><trkpt lat="40.8210317" lon="14.1279367"><ele>6.0</ele><time>2026-04-15T17:14:42.308Z</time></trkpt><trkpt lat="40.8210533" lon="14.12781"><ele>6.0</ele><time>2026-04-15T17:14:44.306Z</time></trkpt><trkpt lat="40.82105" lon="14.127685"><ele>6.0</ele><time>2026-04-15T17:14:46.307Z</time></trkpt><trkpt lat="40.821045" lon="14.127565"><ele>6.0</ele><time>2026-04-15T17:14:48.305Z</time></trkpt><trkpt lat="40.82104" lon="14.127435"><ele>6.0</ele><time>2026-04-15T17:14:50.305Z</time></trkpt><trkpt lat="40.8210433" lon="14.127305"><ele>6.0</ele><time>2026-04-15T17:14:52.306Z</time></trkpt><trkpt lat="40.8210467" lon="14.1271767"><ele>6.0</ele><time>2026-04-15T17:14:54.306Z</time></trkpt><trkpt lat="40.8210383" lon="14.1270483"><ele>5.8</ele><time>2026-04-15T17:14:56.306Z</time></trkpt><trkpt lat="40.8210383" lon="14.12691"><ele>5.6</ele><time>2026-04-15T17:14:58.309Z</time></trkpt><trkpt lat="40.8210383" lon="14.126785"><ele>5.4</ele><time>2026-04-15T17:15:00.313Z</time></trkpt><trkpt lat="40.8210417" lon="14.1266467"><ele>5.2</ele><time>2026-04-15T17:15:02.308Z</time></trkpt><trkpt lat="40.82105" lon="14.12651"><ele>5.0</ele><time>2026-04-15T17:15:04.309Z</time></trkpt><trkpt lat="40.8210567" lon="14.1264017"><ele>5.333333333333334</ele><time>2026-04-15T17:15:06.307Z</time></trkpt><trkpt lat="40.8210217" lon="14.1263167"><ele>5.666666666666667</ele><time>2026-04-15T17:18:18.304Z</time></trkpt><trkpt lat="40.8210067" lon="14.1262117"><ele>6.0</ele><time>2026-04-15T17:18:21.304Z</time></trkpt><trkpt lat="40.821005" lon="14.12612"><ele>6.333333333333334</ele><time>2026-04-15T17:18:23.304Z</time></trkpt><trkpt lat="40.821" lon="14.1260233"><ele>6.666666666666667</ele><time>2026-04-15T17:18:25.305Z</time></trkpt><trkpt lat="40.8209883" lon="14.1259033"><ele>7.0</ele><time>2026-04-15T17:18:27.308Z</time></trkpt><trkpt lat="40.8209683" lon="14.1257717"><ele>7.166666666666667</ele><time>2026-04-15T17:18:29.307Z</time></trkpt><trkpt lat="40.8209567" lon="14.125635"><ele>7.333333333333334</ele><time>2026-04-15T17:18:31.308Z</time></trkpt><trkpt lat="40.8209517" lon="14.125515"><ele>7.5</ele><time>2026-04-15T17:18:33.307Z</time></trkpt><trkpt lat="40.8209817" lon="14.1254133"><ele>7.666666666666666</ele><time>2026-04-15T17:18:35.304Z</time></trkpt><trkpt lat="40.8210283" lon="14.125325"><ele>7.833333333333333</ele><time>2026-04-15T17:18:37.308Z</time></trkpt><trkpt lat="40.8210317" lon="14.125225"><ele>8.0</ele><time>2026-04-15T17:18:39.308Z</time></trkpt><trkpt lat="40.8210533" lon="14.125125"><ele>7.999999999999999</ele><time>2026-04-15T17:18:41.304Z</time></trkpt><trkpt lat="40.821105" lon="14.125035"><ele>8.0</ele><time>2026-04-15T17:18:43.304Z</time></trkpt><trkpt lat="40.821165" lon="14.1249567"><ele>8.0</ele><time>2026-04-15T17:18:45.305Z</time></trkpt><trkpt lat="40.821195" lon="14.1248817"><ele>8.0</ele><time>2026-04-15T17:18:47.308Z</time></trkpt><trkpt lat="40.8212067" lon="14.1247567"><ele>7.999999999999999</ele><time>2026-04-15T17:18:50.304Z</time></trkpt><trkpt lat="40.82122" lon="14.1246567"><ele>8.0</ele><time>2026-04-15T17:18:52.305Z</time></trkpt><trkpt lat="40.8212483" lon="14.1245367"><ele>8.4</ele><time>2026-04-15T17:18:54.305Z</time></trkpt><trkpt lat="40.8212733" lon="14.124415"><ele>8.8</ele><time>2026-04-15T17:18:56.305Z</time></trkpt><trkpt lat="40.8212867" lon="14.1242967"><ele>9.2</ele><time>2026-04-15T17:18:58.307Z</time></trkpt><trkpt lat="40.8212967" lon="14.1241617"><ele>9.6</ele><time>2026-04-15T17:19:00.305Z</time></trkpt><trkpt lat="40.8213083" lon="14.1240183"><ele>10.0</ele><time>2026-04-15T17:19:02.304Z</time></trkpt><trkpt lat="40.8213233" lon="14.12387"><ele>10.6</ele><time>2026-04-15T17:19:04.303Z</time></trkpt><trkpt lat="40.8213367" lon="14.123705"><ele>11.2</ele><time>2026-04-15T17:19:06.304Z</time></trkpt><trkpt lat="40.8213517" lon="14.1236217"><ele>11.8</ele><time>2026-04-15T17:19:07.303Z</time></trkpt><trkpt lat="40.8213783" lon="14.1234633"><ele>12.4</ele><time>2026-04-15T17:19:09.304Z</time></trkpt><trkpt lat="40.8213967" lon="14.12331"><ele>13.0</ele><time>2026-04-15T17:19:11.304Z</time></trkpt><trkpt lat="40.8214" lon="14.123225"><ele>13.8</ele><time>2026-04-15T17:19:12.304Z</time></trkpt><trkpt lat="40.8214017" lon="14.1231417"><ele>14.600000000000001</ele><time>2026-04-15T17:19:13.304Z</time></trkpt><trkpt lat="40.8214083" lon="14.1229783"><ele>15.399999999999999</ele><time>2026-04-15T17:19:15.304Z</time></trkpt><trkpt lat="40.8214167" lon="14.122895"><ele>16.2</ele><time>2026-04-15T17:19:16.303Z</time></trkpt><trkpt lat="40.8214383" lon="14.12274"><ele>17.0</ele><time>2026-04-15T17:19:18.304Z</time></trkpt><trkpt lat="40.8214617" lon="14.1225983"><ele>17.0</ele><time>2026-04-15T17:19:20.304Z</time></trkpt><trkpt lat="40.82147" lon="14.12245"><ele>17.0</ele><time>2026-04-15T17:19:22.303Z</time></trkpt><trkpt lat="40.8215117" lon="14.1223033"><ele>17.0</ele><time>2026-04-15T17:19:24.304Z</time></trkpt><trkpt lat="40.8215717" lon="14.1221867"><ele>17.0</ele><time>2026-04-15T17:19:26.304Z</time></trkpt><trkpt lat="40.8216467" lon="14.1221417"><ele>17.0</ele><time>2026-04-15T17:19:28.303Z</time></trkpt><trkpt lat="40.82172" lon="14.1221517"><ele>16.833333333333336</ele><time>2026-04-15T17:19:30.303Z</time></trkpt><trkpt lat="40.8217967" lon="14.1221533"><ele>16.666666666666668</ele><time>2026-04-15T17:19:32.304Z</time></trkpt><trkpt lat="40.8218383" lon="14.12209"><ele>16.5</ele><time>2026-04-15T17:20:53.305Z</time></trkpt><trkpt lat="40.821885" lon="14.1219933"><ele>16.333333333333332</ele><time>2026-04-15T17:20:55.304Z</time></trkpt><trkpt lat="40.8219467" lon="14.1218867"><ele>16.166666666666664</ele><time>2026-04-15T17:20:57.306Z</time></trkpt><trkpt lat="40.8220167" lon="14.1217933"><ele>16.0</ele><time>2026-04-15T17:20:59.308Z</time></trkpt><trkpt lat="40.8220917" lon="14.1216933"><ele>16.0</ele><time>2026-04-15T17:21:01.305Z</time></trkpt><trkpt lat="40.8221433" lon="14.121605"><ele>16.0</ele><time>2026-04-15T17:21:03.304Z</time></trkpt><trkpt lat="40.8221883" lon="14.1215033"><ele>16.0</ele><time>2026-04-15T17:21:05.303Z</time></trkpt><trkpt lat="40.822285" lon="14.1214283"><ele>16.0</ele><time>2026-04-15T17:21:07.304Z</time></trkpt><trkpt lat="40.8223933" lon="14.1214067"><ele>16.0</ele><time>2026-04-15T17:21:09.304Z</time></trkpt><trkpt lat="40.8225" lon="14.1214367"><ele>15.600000000000001</ele><time>2026-04-15T17:21:11.304Z</time></trkpt><trkpt lat="40.82259" lon="14.12149"><ele>15.200000000000001</ele><time>2026-04-15T17:21:13.304Z</time></trkpt><trkpt lat="40.8226717" lon="14.1215333"><ele>14.799999999999999</ele><time>2026-04-15T17:21:15.304Z</time></trkpt><trkpt lat="40.82275" lon="14.1216017"><ele>14.399999999999999</ele><time>2026-04-15T17:21:17.304Z</time></trkpt><trkpt lat="40.822835" lon="14.1216617"><ele>14.0</ele><time>2026-04-15T17:21:19.303Z</time></trkpt><trkpt lat="40.8229117" lon="14.121775"><ele>14.0</ele><time>2026-04-15T17:21:21.305Z</time></trkpt><trkpt lat="40.8229933" lon="14.1218417"><ele>13.999999999999998</ele><time>2026-04-15T17:21:23.305Z</time></trkpt><trkpt lat="40.8230833" lon="14.1219117"><ele>13.999999999999998</ele><time>2026-04-15T17:21:25.305Z</time></trkpt><trkpt lat="40.8231683" lon="14.1219583"><ele>14.0</ele><time>2026-04-15T17:21:27.305Z</time></trkpt><trkpt lat="40.8232783" lon="14.1219383"><ele>14.0</ele><time>2026-04-15T17:21:29.305Z</time></trkpt><trkpt lat="40.82339" lon="14.12192"><ele>13.2</ele><time>2026-04-15T17:21:31.305Z</time></trkpt><trkpt lat="40.8234967" lon="14.1218633"><ele>12.399999999999999</ele><time>2026-04-15T17:21:33.303Z</time></trkpt><trkpt lat="40.8235967" lon="14.1218383"><ele>11.6</ele><time>2026-04-15T17:21:35.304Z</time></trkpt><trkpt lat="40.8236983" lon="14.1217567"><ele>10.8</ele><time>2026-04-15T17:21:37.305Z</time></trkpt><trkpt lat="40.823795" lon="14.12169"><ele>10.0</ele><time>2026-04-15T17:21:39.304Z</time></trkpt><trkpt lat="40.8238917" lon="14.12165"><ele>10.0</ele><time>2026-04-15T17:21:41.305Z</time></trkpt><trkpt lat="40.8240033" lon="14.1216083"><ele>10.0</ele><time>2026-04-15T17:21:43.304Z</time></trkpt><trkpt lat="40.8240683" lon="14.1215883"><ele>10.0</ele><time>2026-04-15T17:21:44.305Z</time></trkpt><trkpt lat="40.8241933" lon="14.121515"><ele>10.0</ele><time>2026-04-15T17:21:46.303Z</time></trkpt><trkpt lat="40.8242567" lon="14.1214983"><ele>10.0</ele><time>2026-04-15T17:21:47.303Z</time></trkpt><trkpt lat="40.8243767" lon="14.1214767"><ele>9.6</ele><time>2026-04-15T17:21:49.305Z</time></trkpt><trkpt lat="40.82449" lon="14.1214617"><ele>9.2</ele><time>2026-04-15T17:21:51.304Z</time></trkpt><trkpt lat="40.8246017" lon="14.12144"><ele>8.8</ele><time>2026-04-15T17:21:53.305Z</time></trkpt><trkpt lat="40.824695" lon="14.1214117"><ele>8.4</ele><time>2026-04-15T17:21:55.305Z</time></trkpt><trkpt lat="40.824785" lon="14.121385"><ele>8.0</ele><time>2026-04-15T17:21:57.303Z</time></trkpt><trkpt lat="40.8248667" lon="14.1213633"><ele>7.999999999999999</ele><time>2026-04-15T17:21:59.305Z</time></trkpt><trkpt lat="40.824945" lon="14.1213483"><ele>8.0</ele><time>2026-04-15T17:22:01.305Z</time></trkpt><trkpt lat="40.82503" lon="14.12134"><ele>8.0</ele><time>2026-04-15T17:22:03.305Z</time></trkpt><trkpt lat="40.8251067" lon="14.1213233"><ele>8.0</ele><time>2026-04-15T17:22:05.304Z</time></trkpt><trkpt lat="40.8251783" lon="14.121315"><ele>7.999999999999999</ele><time>2026-04-15T17:22:07.304Z</time></trkpt><trkpt lat="40.8252567" lon="14.1213083"><ele>8.0</ele><time>2026-04-15T17:22:09.305Z</time></trkpt><trkpt lat="40.8253433" lon="14.121295"><ele>8.200000000000001</ele><time>2026-04-15T17:22:11.305Z</time></trkpt><trkpt lat="40.8254333" lon="14.1212817"><ele>8.4</ele><time>2026-04-15T17:22:13.304Z</time></trkpt><trkpt lat="40.82553" lon="14.121275"><ele>8.600000000000001</ele><time>2026-04-15T17:22:15.304Z</time></trkpt><trkpt lat="40.82563" lon="14.1212817"><ele>8.8</ele><time>2026-04-15T17:22:17.304Z</time></trkpt><trkpt lat="40.8257283" lon="14.1212833"><ele>9.0</ele><time>2026-04-15T17:22:19.304Z</time></trkpt><trkpt lat="40.8258433" lon="14.1212933"><ele>9.0</ele><time>2026-04-15T17:22:21.304Z</time></trkpt><trkpt lat="40.8259567" lon="14.1212617"><ele>9.0</ele><time>2026-04-15T17:22:23.306Z</time></trkpt><trkpt lat="40.8260667" lon="14.1212117"><ele>9.0</ele><time>2026-04-15T17:22:25.304Z</time></trkpt><trkpt lat="40.8261733" lon="14.121155"><ele>9.0</ele><time>2026-04-15T17:22:27.304Z</time></trkpt><trkpt lat="40.8262333" lon="14.1211267"><ele>9.0</ele><time>2026-04-15T17:22:28.304Z</time></trkpt><trkpt lat="40.8262933" lon="14.1210833"><ele>9.2</ele><time>2026-04-15T17:22:29.305Z</time></trkpt><trkpt lat="40.826405" lon="14.1210067"><ele>9.4</ele><time>2026-04-15T17:22:31.305Z</time></trkpt><trkpt lat="40.8265083" lon="14.1209267"><ele>9.6</ele><time>2026-04-15T17:22:33.305Z</time></trkpt><trkpt lat="40.8265633" lon="14.1208833"><ele>9.8</ele><time>2026-04-15T17:22:34.305Z</time></trkpt><trkpt lat="40.82667" lon="14.1207967"><ele>10.0</ele><time>2026-04-15T17:22:36.305Z</time></trkpt><trkpt lat="40.8267667" lon="14.1207033"><ele>10.333333333333334</ele><time>2026-04-15T17:22:38.304Z</time></trkpt><trkpt lat="40.826855" lon="14.1205933"><ele>10.666666666666668</ele><time>2026-04-15T17:22:40.304Z</time></trkpt><trkpt lat="40.8268967" lon="14.12053"><ele>11.0</ele><time>2026-04-15T17:22:41.304Z</time></trkpt><trkpt lat="40.82694" lon="14.1204633"><ele>11.333333333333334</ele><time>2026-04-15T17:22:42.305Z</time></trkpt><trkpt lat="40.8269767" lon="14.1203917"><ele>11.666666666666666</ele><time>2026-04-15T17:22:43.305Z</time></trkpt><trkpt lat="40.8270117" lon="14.1203117"><ele>12.0</ele><time>2026-04-15T17:22:44.304Z</time></trkpt><trkpt lat="40.8270367" lon="14.1202283"><ele>12.0</ele><time>2026-04-15T17:22:45.306Z</time></trkpt><trkpt lat="40.8270617" lon="14.12015"><ele>12.0</ele><time>2026-04-15T17:22:46.304Z</time></trkpt><trkpt lat="40.8271067" lon="14.1199917"><ele>12.0</ele><time>2026-04-15T17:22:48.305Z</time></trkpt><trkpt lat="40.8271383" lon="14.1199183"><ele>12.0</ele><time>2026-04-15T17:22:49.305Z</time></trkpt><trkpt lat="40.8271683" lon="14.11976"><ele>12.0</ele><time>2026-04-15T17:22:51.305Z</time></trkpt><trkpt lat="40.8271883" lon="14.11968"><ele>12.0</ele><time>2026-04-15T17:22:52.305Z</time></trkpt><trkpt lat="40.8272117" lon="14.1195933"><ele>11.666666666666666</ele><time>2026-04-15T17:22:53.305Z</time></trkpt><trkpt lat="40.827235" lon="14.1195083"><ele>11.333333333333334</ele><time>2026-04-15T17:22:54.305Z</time></trkpt><trkpt lat="40.8272633" lon="14.1194217"><ele>11.0</ele><time>2026-04-15T17:22:55.305Z</time></trkpt><trkpt lat="40.8272933" lon="14.1193467"><ele>10.666666666666668</ele><time>2026-04-15T17:22:56.305Z</time></trkpt><trkpt lat="40.8273317" lon="14.1192733"><ele>10.333333333333334</ele><time>2026-04-15T17:22:57.303Z</time></trkpt><trkpt lat="40.8274117" lon="14.1191417"><ele>10.0</ele><time>2026-04-15T17:22:59.306Z</time></trkpt><trkpt lat="40.8274533" lon="14.1190717"><ele>9.2</ele><time>2026-04-15T17:23:00.305Z</time></trkpt><trkpt lat="40.8275383" lon="14.1189483"><ele>8.4</ele><time>2026-04-15T17:23:02.304Z</time></trkpt><trkpt lat="40.8276267" lon="14.1188333"><ele>7.6</ele><time>2026-04-15T17:23:04.304Z</time></trkpt><trkpt lat="40.8276767" lon="14.1187817"><ele>6.8</ele><time>2026-04-15T17:23:05.304Z</time></trkpt><trkpt lat="40.8277333" lon="14.118735"><ele>6.0</ele><time>2026-04-15T17:23:06.306Z</time></trkpt><trkpt lat="40.827835" lon="14.1186583"><ele>6.0</ele><time>2026-04-15T17:23:08.306Z</time></trkpt><trkpt lat="40.8279483" lon="14.1185783"><ele>6.0</ele><time>2026-04-15T17:23:10.306Z</time></trkpt><trkpt lat="40.8280067" lon="14.1185433"><ele>6.0</ele><time>2026-04-15T17:23:11.303Z</time></trkpt><trkpt lat="40.8280633" lon="14.118505"><ele>6.0</ele><time>2026-04-15T17:23:12.305Z</time></trkpt><trkpt lat="40.8281233" lon="14.1184683"><ele>6.0</ele><time>2026-04-15T17:23:13.303Z</time></trkpt><trkpt lat="40.828185" lon="14.1184317"><ele>6.0</ele><time>2026-04-15T17:23:14.305Z</time></trkpt><trkpt lat="40.8282467" lon="14.1183983"><ele>5.999999999999999</ele><time>2026-04-15T17:23:15.303Z</time></trkpt><trkpt lat="40.8283083" lon="14.1183533"><ele>6.0</ele><time>2026-04-15T17:23:16.305Z</time></trkpt><trkpt lat="40.8283683" lon="14.118295"><ele>6.0</ele><time>2026-04-15T17:23:17.303Z</time></trkpt><trkpt lat="40.8284283" lon="14.118235"><ele>6.0</ele><time>2026-04-15T17:23:18.305Z</time></trkpt><trkpt lat="40.8284867" lon="14.118175"><ele>6.0</ele><time>2026-04-15T17:23:19.304Z</time></trkpt><trkpt lat="40.8285467" lon="14.1181067"><ele>5.999999999999999</ele><time>2026-04-15T17:23:20.305Z</time></trkpt><trkpt lat="40.8285983" lon="14.1180367"><ele>6.0</ele><time>2026-04-15T17:23:21.305Z</time></trkpt><trkpt lat="40.828645" lon="14.1179633"><ele>6.857142857142857</ele><time>2026-04-15T17:23:22.304Z</time></trkpt><trkpt lat="40.82869" lon="14.1178917"><ele>7.7142857142857135</ele><time>2026-04-15T17:23:23.304Z</time></trkpt><trkpt lat="40.82873" lon="14.1178183"><ele>8.571428571428571</ele><time>2026-04-15T17:23:24.305Z</time></trkpt><trkpt lat="40.8287733" lon="14.11774"><ele>9.428571428571427</ele><time>2026-04-15T17:23:25.304Z</time></trkpt><trkpt lat="40.828815" lon="14.1176633"><ele>10.285714285714285</ele><time>2026-04-15T17:23:26.305Z</time></trkpt><trkpt lat="40.8288567" lon="14.11759"><ele>11.142857142857142</ele><time>2026-04-15T17:23:27.305Z</time></trkpt><trkpt lat="40.828895" lon="14.117515"><ele>12.0</ele><time>2026-04-15T17:23:28.305Z</time></trkpt><trkpt lat="40.8289267" lon="14.1174383"><ele>11.142857142857142</ele><time>2026-04-15T17:23:29.305Z</time></trkpt><trkpt lat="40.8289617" lon="14.117355"><ele>10.285714285714285</ele><time>2026-04-15T17:23:30.305Z</time></trkpt><trkpt lat="40.8289983" lon="14.1172717"><ele>9.428571428571427</ele><time>2026-04-15T17:23:31.304Z</time></trkpt><trkpt lat="40.8290317" lon="14.1171917"><ele>8.571428571428571</ele><time>2026-04-15T17:23:32.305Z</time></trkpt><trkpt lat="40.8290617" lon="14.11711"><ele>7.7142857142857135</ele><time>2026-04-15T17:23:33.305Z</time></trkpt><trkpt lat="40.829095" lon="14.1170283"><ele>6.857142857142857</ele><time>2026-04-15T17:23:34.305Z</time></trkpt><trkpt lat="40.8291267" lon="14.116945"><ele>6.0</ele><time>2026-04-15T17:23:35.305Z</time></trkpt><trkpt lat="40.8291583" lon="14.1168617"><ele>5.999999999999999</ele><time>2026-04-15T17:23:36.305Z</time></trkpt><trkpt lat="40.829185" lon="14.1167833"><ele>6.0</ele><time>2026-04-15T17:23:37.305Z</time></trkpt><trkpt lat="40.8292167" lon="14.1166983"><ele>6.0</ele><time>2026-04-15T17:23:38.304Z</time></trkpt><trkpt lat="40.8292483" lon="14.116615"><ele>6.0</ele><time>2026-04-15T17:23:39.305Z</time></trkpt><trkpt lat="40.8292767" lon="14.1165317"><ele>6.0</ele><time>2026-04-15T17:23:40.305Z</time></trkpt><trkpt lat="40.8293033" lon="14.1164467"><ele>5.999999999999999</ele><time>2026-04-15T17:23:41.304Z</time></trkpt><trkpt lat="40.829325" lon="14.1163633"><ele>6.0</ele><time>2026-04-15T17:23:42.305Z</time></trkpt><trkpt lat="40.82935" lon="14.1162817"><ele>6.428571428571428</ele><time>2026-04-15T17:23:43.305Z</time></trkpt><trkpt lat="40.829375" lon="14.116205"><ele>6.857142857142858</ele><time>2026-04-15T17:23:44.305Z</time></trkpt><trkpt lat="40.8294067" lon="14.1161267"><ele>7.2857142857142865</ele><time>2026-04-15T17:23:45.305Z</time></trkpt><trkpt lat="40.829445" lon="14.1160433"><ele>7.714285714285714</ele><time>2026-04-15T17:23:46.304Z</time></trkpt><trkpt lat="40.8294817" lon="14.1159617"><ele>8.142857142857142</ele><time>2026-04-15T17:23:47.306Z</time></trkpt><trkpt lat="40.829515" lon="14.1158883"><ele>8.571428571428573</ele><time>2026-04-15T17:23:48.305Z</time></trkpt><trkpt lat="40.8295433" lon="14.1158133"><ele>9.0</ele><time>2026-04-15T17:23:49.305Z</time></trkpt><trkpt lat="40.8295883" lon="14.1156667"><ele>9.0</ele><time>2026-04-15T17:23:51.304Z</time></trkpt><trkpt lat="40.8296067" lon="14.1155867"><ele>9.0</ele><time>2026-04-15T17:23:52.303Z</time></trkpt><trkpt lat="40.82966" lon="14.115445"><ele>9.0</ele><time>2026-04-15T17:23:54.305Z</time></trkpt><trkpt lat="40.8297367" lon="14.11532"><ele>9.0</ele><time>2026-04-15T17:23:56.305Z</time></trkpt><trkpt lat="40.8297833" lon="14.1152567"><ele>9.0</ele><time>2026-04-15T17:23:57.305Z</time></trkpt><trkpt lat="40.82983" lon="14.1151967"><ele>9.0</ele><time>2026-04-15T17:23:58.305Z</time></trkpt><trkpt lat="40.82987" lon="14.115125"><ele>9.000000000000002</ele><time>2026-04-15T17:23:59.305Z</time></trkpt><trkpt lat="40.8298917" lon="14.1150417"><ele>9.0</ele><time>2026-04-15T17:24:00.305Z</time></trkpt><trkpt lat="40.8299033" lon="14.1149483"><ele>9.0</ele><time>2026-04-15T17:24:01.305Z</time></trkpt><trkpt lat="40.8299017" lon="14.114855"><ele>9.0</ele><time>2026-04-15T17:24:02.304Z</time></trkpt><trkpt lat="40.8298867" lon="14.1147667"><ele>9.0</ele><time>2026-04-15T17:24:03.305Z</time></trkpt><trkpt lat="40.82987" lon="14.1146817"><ele>9.000000000000002</ele><time>2026-04-15T17:24:04.305Z</time></trkpt><trkpt lat="40.829865" lon="14.1145967"><ele>9.0</ele><time>2026-04-15T17:24:05.305Z</time></trkpt><trkpt lat="40.8298733" lon="14.1145133"><ele>9.166666666666666</ele><time>2026-04-15T17:24:06.305Z</time></trkpt><trkpt lat="40.8299133" lon="14.1144333"><ele>9.333333333333334</ele><time>2026-04-15T17:24:07.304Z</time></trkpt><trkpt lat="40.8299583" lon="14.1143567"><ele>9.5</ele><time>2026-04-15T17:24:08.305Z</time></trkpt><trkpt lat="40.8300083" lon="14.11428"><ele>9.666666666666668</ele><time>2026-04-15T17:24:09.305Z</time></trkpt><trkpt lat="40.8300567" lon="14.1142"><ele>9.833333333333334</ele><time>2026-04-15T17:24:10.304Z</time></trkpt><trkpt lat="40.830105" lon="14.11412"><ele>10.0</ele><time>2026-04-15T17:24:11.303Z</time></trkpt><trkpt lat="40.8301517" lon="14.1140417"><ele>10.0</ele><time>2026-04-15T17:24:12.304Z</time></trkpt><trkpt lat="40.8301967" lon="14.1139667"><ele>10.0</ele><time>2026-04-15T17:24:13.304Z</time></trkpt><trkpt lat="40.8302433" lon="14.11389"><ele>10.0</ele><time>2026-04-15T17:24:14.305Z</time></trkpt><trkpt lat="40.8302883" lon="14.1138133"><ele>10.0</ele><time>2026-04-15T17:24:15.304Z</time></trkpt><trkpt lat="40.8303317" lon="14.1137383"><ele>10.0</ele><time>2026-04-15T17:24:16.304Z</time></trkpt><trkpt lat="40.8303717" lon="14.113665"><ele>10.0</ele><time>2026-04-15T17:24:17.304Z</time></trkpt><trkpt lat="40.830415" lon="14.1135933"><ele>10.0</ele><time>2026-04-15T17:24:18.304Z</time></trkpt><trkpt lat="40.8304683" lon="14.1135333"><ele>10.0</ele><time>2026-04-15T17:24:19.304Z</time></trkpt><trkpt lat="40.8305267" lon="14.1134917"><ele>10.0</ele><time>2026-04-15T17:24:20.305Z</time></trkpt><trkpt lat="40.8305917" lon="14.1134633"><ele>10.0</ele><time>2026-04-15T17:24:21.304Z</time></trkpt><trkpt lat="40.8306583" lon="14.1134317"><ele>10.0</ele><time>2026-04-15T17:24:22.305Z</time></trkpt><trkpt lat="40.8307217" lon="14.113425"><ele>10.0</ele><time>2026-04-15T17:24:23.304Z</time></trkpt><trkpt lat="40.8308317" lon="14.1133633"><ele>10.0</ele><time>2026-04-15T17:24:25.305Z</time></trkpt><trkpt lat="40.83092" lon="14.1132533"><ele>9.285714285714285</ele><time>2026-04-15T17:24:27.303Z</time></trkpt><trkpt lat="40.8309583" lon="14.113185"><ele>8.571428571428571</ele><time>2026-04-15T17:24:28.303Z</time></trkpt><trkpt lat="40.831025" lon="14.113045"><ele>7.857142857142858</ele><time>2026-04-15T17:24:30.304Z</time></trkpt><trkpt lat="40.8310583" lon="14.1129733"><ele>7.142857142857142</ele><time>2026-04-15T17:24:31.304Z</time></trkpt><trkpt lat="40.8310933" lon="14.1129033"><ele>6.428571428571429</ele><time>2026-04-15T17:24:32.304Z</time></trkpt><trkpt lat="40.83113" lon="14.1128333"><ele>5.714285714285714</ele><time>2026-04-15T17:24:33.304Z</time></trkpt><trkpt lat="40.8311717" lon="14.1127633"><ele>5.0</ele><time>2026-04-15T17:24:34.304Z</time></trkpt><trkpt lat="40.8312133" lon="14.1126933"><ele>5.142857142857142</ele><time>2026-04-15T17:24:35.305Z</time></trkpt><trkpt lat="40.8312533" lon="14.11262"><ele>5.285714285714286</ele><time>2026-04-15T17:24:36.304Z</time></trkpt><trkpt lat="40.831295" lon="14.1125533"><ele>5.428571428571429</ele><time>2026-04-15T17:24:37.304Z</time></trkpt><trkpt lat="40.83134" lon="14.1124817"><ele>5.571428571428571</ele><time>2026-04-15T17:24:38.304Z</time></trkpt><trkpt lat="40.831385" lon="14.1124033"><ele>5.714285714285714</ele><time>2026-04-15T17:24:39.304Z</time></trkpt><trkpt lat="40.8314267" lon="14.1123217"><ele>5.857142857142857</ele><time>2026-04-15T17:24:40.304Z</time></trkpt><trkpt lat="40.831465" lon="14.1122433"><ele>6.0</ele><time>2026-04-15T17:24:41.304Z</time></trkpt><trkpt lat="40.8315" lon="14.112165"><ele>6.0</ele><time>2026-04-15T17:24:42.303Z</time></trkpt><trkpt lat="40.831535" lon="14.1120917"><ele>6.0</ele><time>2026-04-15T17:24:43.303Z</time></trkpt><trkpt lat="40.831605" lon="14.11196"><ele>6.0</ele><time>2026-04-15T17:24:45.304Z</time></trkpt><trkpt lat="40.8316833" lon="14.1118317"><ele>6.0</ele><time>2026-04-15T17:24:47.304Z</time></trkpt><trkpt lat="40.8317217" lon="14.1117617"><ele>6.0</ele><time>2026-04-15T17:24:48.304Z</time></trkpt><trkpt lat="40.8317617" lon="14.11169"><ele>6.0</ele><time>2026-04-15T17:24:49.304Z</time></trkpt><trkpt lat="40.8318033" lon="14.1116183"><ele>7.333333333333334</ele><time>2026-04-15T17:24:50.304Z</time></trkpt><trkpt lat="40.8318467" lon="14.1115417"><ele>8.666666666666668</ele><time>2026-04-15T17:24:51.304Z</time></trkpt><trkpt lat="40.83189" lon="14.1114633"><ele>10.0</ele><time>2026-04-15T17:24:52.303Z</time></trkpt><trkpt lat="40.8319383" lon="14.1113883"><ele>11.333333333333334</ele><time>2026-04-15T17:24:53.303Z</time></trkpt><trkpt lat="40.83199" lon="14.1113133"><ele>12.666666666666668</ele><time>2026-04-15T17:24:54.304Z</time></trkpt><trkpt lat="40.83204" lon="14.111235"><ele>14.0</ele><time>2026-04-15T17:24:55.304Z</time></trkpt><trkpt lat="40.8320833" lon="14.1111533"><ele>14.0</ele><time>2026-04-15T17:24:56.303Z</time></trkpt><trkpt lat="40.8321283" lon="14.1110733"><ele>14.0</ele><time>2026-04-15T17:24:57.304Z</time></trkpt><trkpt lat="40.832155" lon="14.1109783"><ele>14.0</ele><time>2026-04-15T17:24:58.303Z</time></trkpt><trkpt lat="40.8321967" lon="14.1109"><ele>14.0</ele><time>2026-04-15T17:24:59.304Z</time></trkpt><trkpt lat="40.8322333" lon="14.11082"><ele>14.0</ele><time>2026-04-15T17:25:00.305Z</time></trkpt><trkpt lat="40.8322783" lon="14.1107383"><ele>14.0</ele><time>2026-04-15T17:25:01.304Z</time></trkpt><trkpt lat="40.83232" lon="14.1106667"><ele>14.0</ele><time>2026-04-15T17:25:02.304Z</time></trkpt><trkpt lat="40.8323633" lon="14.1105983"><ele>13.142857142857142</ele><time>2026-04-15T17:25:03.304Z</time></trkpt><trkpt lat="40.83241" lon="14.1105283"><ele>12.285714285714285</ele><time>2026-04-15T17:25:04.305Z</time></trkpt><trkpt lat="40.8324567" lon="14.1104583"><ele>11.428571428571429</ele><time>2026-04-15T17:25:05.304Z</time></trkpt><trkpt lat="40.8325017" lon="14.1103883"><ele>10.571428571428571</ele><time>2026-04-15T17:25:06.304Z</time></trkpt><trkpt lat="40.8325433" lon="14.1103217"><ele>9.714285714285714</ele><time>2026-04-15T17:25:07.307Z</time></trkpt><trkpt lat="40.8325833" lon="14.1102533"><ele>8.857142857142858</ele><time>2026-04-15T17:25:08.304Z</time></trkpt><trkpt lat="40.83262" lon="14.11018"><ele>8.0</ele><time>2026-04-15T17:25:09.304Z</time></trkpt><trkpt lat="40.8326533" lon="14.1101067"><ele>8.142857142857142</ele><time>2026-04-15T17:25:10.304Z</time></trkpt><trkpt lat="40.832685" lon="14.1100267"><ele>8.285714285714285</ele><time>2026-04-15T17:25:11.304Z</time></trkpt><trkpt lat="40.8327117" lon="14.109945"><ele>8.428571428571429</ele><time>2026-04-15T17:25:12.305Z</time></trkpt><trkpt lat="40.8327383" lon="14.10986"><ele>8.571428571428571</ele><time>2026-04-15T17:25:13.304Z</time></trkpt><trkpt lat="40.832765" lon="14.10978"><ele>8.714285714285715</ele><time>2026-04-15T17:25:14.304Z</time></trkpt><trkpt lat="40.8327933" lon="14.1096933"><ele>8.857142857142858</ele><time>2026-04-15T17:25:15.304Z</time></trkpt><trkpt lat="40.832825" lon="14.1096033"><ele>9.0</ele><time>2026-04-15T17:25:16.303Z</time></trkpt><trkpt lat="40.832865" lon="14.1095183"><ele>9.000000000000002</ele><time>2026-04-15T17:25:17.304Z</time></trkpt><trkpt lat="40.8329067" lon="14.1094433"><ele>9.0</ele><time>2026-04-15T17:25:18.305Z</time></trkpt><trkpt lat="40.832965" lon="14.1093783"><ele>9.0</ele><time>2026-04-15T17:25:19.305Z</time></trkpt><trkpt lat="40.8330317" lon="14.10932"><ele>9.0</ele><time>2026-04-15T17:25:20.306Z</time></trkpt><trkpt lat="40.8330933" lon="14.1092667"><ele>9.0</ele><time>2026-04-15T17:25:21.306Z</time></trkpt><trkpt lat="40.8331583" lon="14.1092217"><ele>9.000000000000002</ele><time>2026-04-15T17:25:22.305Z</time></trkpt><trkpt lat="40.833225" lon="14.1091817"><ele>9.0</ele><time>2026-04-15T17:25:23.303Z</time></trkpt><trkpt lat="40.8332833" lon="14.1091417"><ele>9.0</ele><time>2026-04-15T17:25:24.304Z</time></trkpt><trkpt lat="40.8334083" lon="14.1090667"><ele>9.0</ele><time>2026-04-15T17:25:26.304Z</time></trkpt><trkpt lat="40.8334667" lon="14.109035"><ele>9.0</ele><time>2026-04-15T17:25:27.304Z</time></trkpt><trkpt lat="40.8335667" lon="14.1089583"><ele>9.0</ele><time>2026-04-15T17:25:29.303Z</time></trkpt><trkpt lat="40.8336133" lon="14.1089"><ele>9.0</ele><time>2026-04-15T17:25:30.304Z</time></trkpt><trkpt lat="40.83369" lon="14.1088183"><ele>10.0</ele><time>2026-04-15T17:25:32.304Z</time></trkpt><trkpt lat="40.8337483" lon="14.10874"><ele>11.0</ele><time>2026-04-15T17:25:34.304Z</time></trkpt><trkpt lat="40.8338017" lon="14.1086467"><ele>12.0</ele><time>2026-04-15T17:25:36.305Z</time></trkpt><trkpt lat="40.8338383" lon="14.1085417"><ele>13.0</ele><time>2026-04-15T17:25:38.304Z</time></trkpt><trkpt lat="40.833865" lon="14.1084267"><ele>14.0</ele><time>2026-04-15T17:25:40.304Z</time></trkpt><trkpt lat="40.83388" lon="14.108325"><ele>15.0</ele><time>2026-04-15T17:25:42.303Z</time></trkpt><trkpt lat="40.8338933" lon="14.108215"><ele>15.0</ele><time>2026-04-15T17:25:44.306Z</time></trkpt><trkpt lat="40.83391" lon="14.1080983"><ele>15.0</ele><time>2026-04-15T17:25:46.305Z</time></trkpt><trkpt lat="40.8339333" lon="14.1079633"><ele>15.0</ele><time>2026-04-15T17:25:48.304Z</time></trkpt><trkpt lat="40.833955" lon="14.10784"><ele>15.0</ele><time>2026-04-15T17:25:50.304Z</time></trkpt><trkpt lat="40.8339767" lon="14.10771"><ele>15.0</ele><time>2026-04-15T17:25:52.304Z</time></trkpt><trkpt lat="40.834" lon="14.107565"><ele>15.0</ele><time>2026-04-15T17:25:54.304Z</time></trkpt><trkpt lat="40.8340183" lon="14.1074167"><ele>15.0</ele><time>2026-04-15T17:25:56.305Z</time></trkpt><trkpt lat="40.834035" lon="14.1072583"><ele>15.0</ele><time>2026-04-15T17:25:58.304Z</time></trkpt><trkpt lat="40.8340483" lon="14.1071117"><ele>15.0</ele><time>2026-04-15T17:26:00.304Z</time></trkpt><trkpt lat="40.83407" lon="14.106965"><ele>14.75</ele><time>2026-04-15T17:26:02.305Z</time></trkpt><trkpt lat="40.8341" lon="14.10683"><ele>14.5</ele><time>2026-04-15T17:26:04.303Z</time></trkpt><trkpt lat="40.8341233" lon="14.1066833"><ele>14.25</ele><time>2026-04-15T17:26:06.304Z</time></trkpt><trkpt lat="40.8341433" lon="14.10653"><ele>14.0</ele><time>2026-04-15T17:26:08.305Z</time></trkpt><trkpt lat="40.8341533" lon="14.1063733"><ele>13.833333333333334</ele><time>2026-04-15T17:26:10.304Z</time></trkpt><trkpt lat="40.8341683" lon="14.1062117"><ele>13.666666666666668</ele><time>2026-04-15T17:26:12.304Z</time></trkpt><trkpt lat="40.8341917" lon="14.106055"><ele>13.5</ele><time>2026-04-15T17:26:14.305Z</time></trkpt><trkpt lat="40.8341967" lon="14.1059717"><ele>13.333333333333332</ele><time>2026-04-15T17:26:15.303Z</time></trkpt><trkpt lat="40.8342017" lon="14.1058883"><ele>13.166666666666666</ele><time>2026-04-15T17:26:16.303Z</time></trkpt><trkpt lat="40.8342033" lon="14.1058017"><ele>13.0</ele><time>2026-04-15T17:26:17.303Z</time></trkpt><trkpt lat="40.8342083" lon="14.1057167"><ele>12.857142857142856</ele><time>2026-04-15T17:26:18.305Z</time></trkpt><trkpt lat="40.83421" lon="14.1056317"><ele>12.714285714285715</ele><time>2026-04-15T17:26:19.304Z</time></trkpt><trkpt lat="40.8342117" lon="14.105545"><ele>12.571428571428571</ele><time>2026-04-15T17:26:20.305Z</time></trkpt><trkpt lat="40.83421" lon="14.1054583"><ele>12.428571428571427</ele><time>2026-04-15T17:26:21.305Z</time></trkpt><trkpt lat="40.8342083" lon="14.1053733"><ele>12.285714285714285</ele><time>2026-04-15T17:26:22.304Z</time></trkpt><trkpt lat="40.83421" lon="14.1052883"><ele>12.142857142857142</ele><time>2026-04-15T17:26:23.305Z</time></trkpt><trkpt lat="40.8342083" lon="14.1051967"><ele>12.0</ele><time>2026-04-15T17:26:24.305Z</time></trkpt><trkpt lat="40.8342067" lon="14.1051117"><ele>11.999999999999998</ele><time>2026-04-15T17:26:25.305Z</time></trkpt><trkpt lat="40.8342083" lon="14.105025"><ele>12.0</ele><time>2026-04-15T17:26:26.305Z</time></trkpt><trkpt lat="40.83421" lon="14.1049367"><ele>12.0</ele><time>2026-04-15T17:26:27.304Z</time></trkpt><trkpt lat="40.834205" lon="14.1048483"><ele>12.0</ele><time>2026-04-15T17:26:28.304Z</time></trkpt><trkpt lat="40.834205" lon="14.1047633"><ele>12.0</ele><time>2026-04-15T17:26:29.305Z</time></trkpt><trkpt lat="40.8342067" lon="14.1046733"><ele>11.999999999999998</ele><time>2026-04-15T17:26:30.305Z</time></trkpt><trkpt lat="40.8342067" lon="14.104585"><ele>12.0</ele><time>2026-04-15T17:26:31.304Z</time></trkpt><trkpt lat="40.8342067" lon="14.1044967"><ele>11.857142857142856</ele><time>2026-04-15T17:26:32.305Z</time></trkpt><trkpt lat="40.8342083" lon="14.1044083"><ele>11.714285714285714</ele><time>2026-04-15T17:26:33.304Z</time></trkpt><trkpt lat="40.8342083" lon="14.1043183"><ele>11.571428571428571</ele><time>2026-04-15T17:26:34.306Z</time></trkpt><trkpt lat="40.8342067" lon="14.104225"><ele>11.428571428571427</ele><time>2026-04-15T17:26:35.304Z</time></trkpt><trkpt lat="40.8342017" lon="14.10413"><ele>11.285714285714285</ele><time>2026-04-15T17:26:36.306Z</time></trkpt><trkpt lat="40.8342017" lon="14.1040383"><ele>11.142857142857142</ele><time>2026-04-15T17:26:37.305Z</time></trkpt><trkpt lat="40.8341983" lon="14.1039467"><ele>11.0</ele><time>2026-04-15T17:26:38.304Z</time></trkpt><trkpt lat="40.8341967" lon="14.103855"><ele>11.0</ele><time>2026-04-15T17:26:39.305Z</time></trkpt><trkpt lat="40.8341933" lon="14.1037633"><ele>11.0</ele><time>2026-04-15T17:26:40.304Z</time></trkpt><trkpt lat="40.83419" lon="14.1036717"><ele>11.0</ele><time>2026-04-15T17:26:41.304Z</time></trkpt><trkpt lat="40.8341867" lon="14.1035817"><ele>11.0</ele><time>2026-04-15T17:26:42.305Z</time></trkpt><trkpt lat="40.8341783" lon="14.1034833"><ele>11.0</ele><time>2026-04-15T17:26:43.304Z</time></trkpt><trkpt lat="40.834165" lon="14.1033883"><ele>11.0</ele><time>2026-04-15T17:26:44.305Z</time></trkpt><trkpt lat="40.8341567" lon="14.1032983"><ele>11.0</ele><time>2026-04-15T17:26:45.304Z</time></trkpt><trkpt lat="40.8341433" lon="14.1032083"><ele>10.714285714285715</ele><time>2026-04-15T17:26:46.305Z</time></trkpt><trkpt lat="40.8341233" lon="14.103115"><ele>10.428571428571429</ele><time>2026-04-15T17:26:47.305Z</time></trkpt><trkpt lat="40.8341017" lon="14.1030267"><ele>10.142857142857142</ele><time>2026-04-15T17:26:48.304Z</time></trkpt><trkpt lat="40.8340733" lon="14.1029433"><ele>9.857142857142858</ele><time>2026-04-15T17:26:49.304Z</time></trkpt><trkpt lat="40.8340367" lon="14.1028683"><ele>9.571428571428571</ele><time>2026-04-15T17:26:50.304Z</time></trkpt><trkpt lat="40.8340033" lon="14.1027967"><ele>9.285714285714286</ele><time>2026-04-15T17:26:51.304Z</time></trkpt><trkpt lat="40.8339633" lon="14.102725"><ele>9.0</ele><time>2026-04-15T17:26:52.304Z</time></trkpt><trkpt lat="40.8338933" lon="14.1025967"><ele>9.000000000000002</ele><time>2026-04-15T17:26:54.304Z</time></trkpt><trkpt lat="40.8338483" lon="14.1025333"><ele>9.0</ele><time>2026-04-15T17:26:55.305Z</time></trkpt><trkpt lat="40.8337967" lon="14.1024733"><ele>9.0</ele><time>2026-04-15T17:26:56.305Z</time></trkpt><trkpt lat="40.833745" lon="14.102405"><ele>9.0</ele><time>2026-04-15T17:26:57.305Z</time></trkpt><trkpt lat="40.8336967" lon="14.1023367"><ele>9.0</ele><time>2026-04-15T17:26:58.303Z</time></trkpt><trkpt lat="40.8336367" lon="14.102275"><ele>9.000000000000002</ele><time>2026-04-15T17:26:59.305Z</time></trkpt><trkpt lat="40.8335867" lon="14.1022067"><ele>9.0</ele><time>2026-04-15T17:27:00.305Z</time></trkpt><trkpt lat="40.83354" lon="14.1021367"><ele>8.857142857142858</ele><time>2026-04-15T17:27:01.303Z</time></trkpt><trkpt lat="40.83349" lon="14.1020683"><ele>8.714285714285715</ele><time>2026-04-15T17:27:02.305Z</time></trkpt><trkpt lat="40.83344" lon="14.1019967"><ele>8.571428571428571</ele><time>2026-04-15T17:27:03.305Z</time></trkpt><trkpt lat="40.8333933" lon="14.101925"><ele>8.428571428571429</ele><time>2026-04-15T17:27:04.305Z</time></trkpt><trkpt lat="40.83335" lon="14.1018533"><ele>8.285714285714285</ele><time>2026-04-15T17:27:05.306Z</time></trkpt><trkpt lat="40.8333083" lon="14.1017783"><ele>8.142857142857142</ele><time>2026-04-15T17:27:06.304Z</time></trkpt><trkpt lat="40.8332667" lon="14.101705"><ele>8.0</ele><time>2026-04-15T17:27:07.304Z</time></trkpt><trkpt lat="40.8332267" lon="14.10163"><ele>8.0</ele><time>2026-04-15T17:27:08.305Z</time></trkpt><trkpt lat="40.8331817" lon="14.1015583"><ele>7.999999999999999</ele><time>2026-04-15T17:27:09.305Z</time></trkpt><trkpt lat="40.8331367" lon="14.101485"><ele>8.0</ele><time>2026-04-15T17:27:10.305Z</time></trkpt><trkpt lat="40.8330917" lon="14.1014117"><ele>8.0</ele><time>2026-04-15T17:27:11.305Z</time></trkpt><trkpt lat="40.8330383" lon="14.1013417"><ele>7.999999999999999</ele><time>2026-04-15T17:27:12.306Z</time></trkpt><trkpt lat="40.8329917" lon="14.1012667"><ele>8.0</ele><time>2026-04-15T17:27:13.303Z</time></trkpt><trkpt lat="40.8329433" lon="14.10119"><ele>8.0</ele><time>2026-04-15T17:27:14.305Z</time></trkpt><trkpt lat="40.8328917" lon="14.10112"><ele>8.0</ele><time>2026-04-15T17:27:15.305Z</time></trkpt><trkpt lat="40.8328383" lon="14.1010533"><ele>7.999999999999999</ele><time>2026-04-15T17:27:16.305Z</time></trkpt><trkpt lat="40.8327833" lon="14.1009883"><ele>8.0</ele><time>2026-04-15T17:27:17.304Z</time></trkpt><trkpt lat="40.8327383" lon="14.1009133"><ele>8.0</ele><time>2026-04-15T17:27:18.305Z</time></trkpt><trkpt lat="40.8327067" lon="14.1008333"><ele>7.999999999999999</ele><time>2026-04-15T17:27:19.305Z</time></trkpt><trkpt lat="40.8326883" lon="14.100745"><ele>8.0</ele><time>2026-04-15T17:27:20.305Z</time></trkpt><trkpt lat="40.8326867" lon="14.1006517"><ele>8.0</ele><time>2026-04-15T17:27:21.304Z</time></trkpt><trkpt lat="40.8326983" lon="14.10056"><ele>7.857142857142857</ele><time>2026-04-15T17:27:22.304Z</time></trkpt><trkpt lat="40.8327267" lon="14.1004767"><ele>7.7142857142857135</ele><time>2026-04-15T17:27:23.304Z</time></trkpt><trkpt lat="40.8327667" lon="14.100395"><ele>7.571428571428571</ele><time>2026-04-15T17:27:24.305Z</time></trkpt><trkpt lat="40.8328083" lon="14.100315"><ele>7.428571428571429</ele><time>2026-04-15T17:27:25.304Z</time></trkpt><trkpt lat="40.8328517" lon="14.10024"><ele>7.285714285714286</ele><time>2026-04-15T17:27:26.305Z</time></trkpt><trkpt lat="40.8328917" lon="14.100165"><ele>7.142857142857142</ele><time>2026-04-15T17:27:27.304Z</time></trkpt><trkpt lat="40.8329317" lon="14.1000833"><ele>7.0</ele><time>2026-04-15T17:27:28.305Z</time></trkpt><trkpt lat="40.8329667" lon="14.1000067"><ele>7.0</ele><time>2026-04-15T17:27:29.305Z</time></trkpt><trkpt lat="40.833005" lon="14.099935"><ele>7.0</ele><time>2026-04-15T17:27:30.305Z</time></trkpt><trkpt lat="40.8330433" lon="14.0998633"><ele>7.0</ele><time>2026-04-15T17:27:31.304Z</time></trkpt><trkpt lat="40.833085" lon="14.09979"><ele>7.0</ele><time>2026-04-15T17:27:32.305Z</time></trkpt><trkpt lat="40.833125" lon="14.0997167"><ele>7.0</ele><time>2026-04-15T17:27:33.304Z</time></trkpt><trkpt lat="40.83316" lon="14.09964"><ele>7.0</ele><time>2026-04-15T17:27:34.305Z</time></trkpt><trkpt lat="40.8331983" lon="14.0995633"><ele>7.0</ele><time>2026-04-15T17:27:35.304Z</time></trkpt><trkpt lat="40.833235" lon="14.0994867"><ele>7.166666666666667</ele><time>2026-04-15T17:27:36.305Z</time></trkpt><trkpt lat="40.8332717" lon="14.0994117"><ele>7.333333333333334</ele><time>2026-04-15T17:27:37.305Z</time></trkpt><trkpt lat="40.8333317" lon="14.0992733"><ele>7.5</ele><time>2026-04-15T17:27:39.305Z</time></trkpt><trkpt lat="40.8333633" lon="14.0991983"><ele>7.666666666666666</ele><time>2026-04-15T17:27:40.304Z</time></trkpt><trkpt lat="40.8333983" lon="14.0991233"><ele>7.833333333333333</ele><time>2026-04-15T17:27:41.305Z</time></trkpt><trkpt lat="40.8334333" lon="14.0990517"><ele>8.0</ele><time>2026-04-15T17:27:42.304Z</time></trkpt><trkpt lat="40.8335" lon="14.0989167"><ele>9.0</ele><time>2026-04-15T17:27:44.306Z</time></trkpt><trkpt lat="40.83357" lon="14.0987767"><ele>10.0</ele><time>2026-04-15T17:27:46.305Z</time></trkpt><trkpt lat="40.8336317" lon="14.0986533"><ele>11.0</ele><time>2026-04-15T17:27:48.305Z</time></trkpt><trkpt lat="40.8336917" lon="14.09854"><ele>12.0</ele><time>2026-04-15T17:27:50.305Z</time></trkpt><trkpt lat="40.8337483" lon="14.0984283"><ele>13.0</ele><time>2026-04-15T17:27:52.305Z</time></trkpt><trkpt lat="40.8338017" lon="14.09833"><ele>13.166666666666666</ele><time>2026-04-15T17:27:54.305Z</time></trkpt><trkpt lat="40.8338483" lon="14.0982417"><ele>13.333333333333332</ele><time>2026-04-15T17:27:56.305Z</time></trkpt><trkpt lat="40.83387" lon="14.0981417"><ele>13.5</ele><time>2026-04-15T17:27:58.304Z</time></trkpt><trkpt lat="40.83386" lon="14.0980483"><ele>13.666666666666668</ele><time>2026-04-15T17:28:00.304Z</time></trkpt><trkpt lat="40.8338483" lon="14.0979583"><ele>13.833333333333334</ele><time>2026-04-15T17:28:02.305Z</time></trkpt><trkpt lat="40.83384" lon="14.097855"><ele>14.0</ele><time>2026-04-15T17:28:04.305Z</time></trkpt><trkpt lat="40.8338117" lon="14.0977583"><ele>14.0</ele><time>2026-04-15T17:28:06.305Z</time></trkpt><trkpt lat="40.8337833" lon="14.09765"><ele>13.999999999999998</ele><time>2026-04-15T17:28:08.305Z</time></trkpt><trkpt lat="40.8337483" lon="14.09753"><ele>13.999999999999998</ele><time>2026-04-15T17:28:10.305Z</time></trkpt><trkpt lat="40.83371" lon="14.0973917"><ele>14.0</ele><time>2026-04-15T17:28:12.305Z</time></trkpt><trkpt lat="40.8336733" lon="14.097235"><ele>14.0</ele><time>2026-04-15T17:28:14.304Z</time></trkpt><trkpt lat="40.8336483" lon="14.0971533"><ele>14.166666666666668</ele><time>2026-04-15T17:28:15.305Z</time></trkpt><trkpt lat="40.8336217" lon="14.0970717"><ele>14.333333333333334</ele><time>2026-04-15T17:28:16.304Z</time></trkpt><trkpt lat="40.8335933" lon="14.0969933"><ele>14.5</ele><time>2026-04-15T17:28:17.305Z</time></trkpt><trkpt lat="40.83357" lon="14.0969117"><ele>14.666666666666668</ele><time>2026-04-15T17:28:18.305Z</time></trkpt><trkpt lat="40.8335467" lon="14.0968333"><ele>14.833333333333334</ele><time>2026-04-15T17:28:19.304Z</time></trkpt><trkpt lat="40.8335" lon="14.0966767"><ele>15.0</ele><time>2026-04-15T17:28:21.304Z</time></trkpt><trkpt lat="40.8334717" lon="14.0965983"><ele>15.6</ele><time>2026-04-15T17:28:22.304Z</time></trkpt><trkpt lat="40.8334467" lon="14.0965217"><ele>16.2</ele><time>2026-04-15T17:28:23.304Z</time></trkpt><trkpt lat="40.833395" lon="14.09638"><ele>16.8</ele><time>2026-04-15T17:28:25.305Z</time></trkpt><trkpt lat="40.8333417" lon="14.0962467"><ele>17.4</ele><time>2026-04-15T17:28:27.304Z</time></trkpt><trkpt lat="40.8332967" lon="14.09613"><ele>18.0</ele><time>2026-04-15T17:28:29.304Z</time></trkpt><trkpt lat="40.8332383" lon="14.0960167"><ele>18.0</ele><time>2026-04-15T17:28:31.305Z</time></trkpt><trkpt lat="40.8331967" lon="14.0959067"><ele>18.0</ele><time>2026-04-15T17:28:33.305Z</time></trkpt><trkpt lat="40.833155" lon="14.0957933"><ele>18.0</ele><time>2026-04-15T17:28:35.304Z</time></trkpt><trkpt lat="40.83312" lon="14.0956767"><ele>18.0</ele><time>2026-04-15T17:28:37.305Z</time></trkpt><trkpt lat="40.83308" lon="14.0955583"><ele>18.0</ele><time>2026-04-15T17:28:39.305Z</time></trkpt><trkpt lat="40.83305" lon="14.0954267"><ele>18.8</ele><time>2026-04-15T17:28:41.307Z</time></trkpt><trkpt lat="40.8330117" lon="14.095295"><ele>19.6</ele><time>2026-04-15T17:28:43.304Z</time></trkpt><trkpt lat="40.832975" lon="14.0951567"><ele>20.400000000000002</ele><time>2026-04-15T17:28:45.304Z</time></trkpt><trkpt lat="40.832925" lon="14.09503"><ele>21.200000000000003</ele><time>2026-04-15T17:28:47.304Z</time></trkpt><trkpt lat="40.8328683" lon="14.0949083"><ele>22.0</ele><time>2026-04-15T17:28:49.305Z</time></trkpt><trkpt lat="40.8328117" lon="14.0947717"><ele>22.6</ele><time>2026-04-15T17:28:51.305Z</time></trkpt><trkpt lat="40.832765" lon="14.0946433"><ele>23.200000000000003</ele><time>2026-04-15T17:28:53.305Z</time></trkpt><trkpt lat="40.8327117" lon="14.0945133"><ele>23.8</ele><time>2026-04-15T17:28:55.305Z</time></trkpt><trkpt lat="40.8326717" lon="14.0943717"><ele>24.4</ele><time>2026-04-15T17:28:57.304Z</time></trkpt><trkpt lat="40.8326333" lon="14.0942367"><ele>25.0</ele><time>2026-04-15T17:28:59.305Z</time></trkpt><trkpt lat="40.8325867" lon="14.0940967"><ele>24.5</ele><time>2026-04-15T17:29:01.304Z</time></trkpt><trkpt lat="40.8325367" lon="14.0939583"><ele>24.0</ele><time>2026-04-15T17:29:03.305Z</time></trkpt><trkpt lat="40.8324867" lon="14.0938183"><ele>23.5</ele><time>2026-04-15T17:29:05.305Z</time></trkpt><trkpt lat="40.8324367" lon="14.09368"><ele>23.0</ele><time>2026-04-15T17:29:07.305Z</time></trkpt><trkpt lat="40.8323917" lon="14.0935367"><ele>23.0</ele><time>2026-04-15T17:29:09.304Z</time></trkpt><trkpt lat="40.832345" lon="14.0934033"><ele>23.0</ele><time>2026-04-15T17:29:11.304Z</time></trkpt><trkpt lat="40.8323" lon="14.0932667"><ele>23.0</ele><time>2026-04-15T17:29:13.304Z</time></trkpt><trkpt lat="40.8322433" lon="14.0931417"><ele>23.0</ele><time>2026-04-15T17:29:15.305Z</time></trkpt><trkpt lat="40.8321933" lon="14.0929967"><ele>24.833333333333336</ele><time>2026-04-15T17:29:17.306Z</time></trkpt><trkpt lat="40.832145" lon="14.092845"><ele>26.666666666666668</ele><time>2026-04-15T17:29:19.305Z</time></trkpt><trkpt lat="40.83212" lon="14.092765"><ele>28.5</ele><time>2026-04-15T17:29:20.304Z</time></trkpt><trkpt lat="40.83209" lon="14.0926867"><ele>30.333333333333336</ele><time>2026-04-15T17:29:21.305Z</time></trkpt><trkpt lat="40.8320567" lon="14.09261"><ele>32.16666666666667</ele><time>2026-04-15T17:29:22.305Z</time></trkpt><trkpt lat="40.8320267" lon="14.0925283"><ele>34.0</ele><time>2026-04-15T17:29:23.305Z</time></trkpt><trkpt lat="40.8319917" lon="14.0924433"><ele>35.16666666666667</ele><time>2026-04-15T17:29:24.305Z</time></trkpt><trkpt lat="40.8319617" lon="14.092355"><ele>36.333333333333336</ele><time>2026-04-15T17:29:25.307Z</time></trkpt><trkpt lat="40.8319233" lon="14.0922717"><ele>37.5</ele><time>2026-04-15T17:29:26.305Z</time></trkpt><trkpt lat="40.8318833" lon="14.092185"><ele>38.666666666666664</ele><time>2026-04-15T17:29:27.306Z</time></trkpt><trkpt lat="40.8318467" lon="14.092095"><ele>39.83333333333333</ele><time>2026-04-15T17:29:28.304Z</time></trkpt><trkpt lat="40.83181" lon="14.0920033"><ele>41.0</ele><time>2026-04-15T17:29:29.306Z</time></trkpt><trkpt lat="40.8317683" lon="14.0919117"><ele>37.0</ele><time>2026-04-15T17:29:30.305Z</time></trkpt><trkpt lat="40.8317283" lon="14.0918167"><ele>33.0</ele><time>2026-04-15T17:29:31.305Z</time></trkpt><trkpt lat="40.83169" lon="14.0917217"><ele>29.0</ele><time>2026-04-15T17:29:32.304Z</time></trkpt><trkpt lat="40.8316583" lon="14.0916233"><ele>25.0</ele><time>2026-04-15T17:29:33.305Z</time></trkpt><trkpt lat="40.8316317" lon="14.0915233"><ele>21.0</ele><time>2026-04-15T17:29:34.305Z</time></trkpt><trkpt lat="40.8316117" lon="14.0914167"><ele>17.0</ele><time>2026-04-15T17:29:35.305Z</time></trkpt><trkpt lat="40.8315933" lon="14.091315"><ele>16.5</ele><time>2026-04-15T17:29:36.305Z</time></trkpt><trkpt lat="40.831575" lon="14.0912117"><ele>16.0</ele><time>2026-04-15T17:29:37.306Z</time></trkpt><trkpt lat="40.8315617" lon="14.0911033"><ele>15.5</ele><time>2026-04-15T17:29:38.305Z</time></trkpt><trkpt lat="40.8315517" lon="14.09099"><ele>15.0</ele><time>2026-04-15T17:29:39.305Z</time></trkpt><trkpt lat="40.8315417" lon="14.0908783"><ele>14.500000000000002</ele><time>2026-04-15T17:29:40.304Z</time></trkpt><trkpt lat="40.83153" lon="14.0907667"><ele>14.0</ele><time>2026-04-15T17:29:41.305Z</time></trkpt><trkpt lat="40.8315133" lon="14.0906617"><ele>13.500000000000002</ele><time>2026-04-15T17:29:42.305Z</time></trkpt><trkpt lat="40.8314967" lon="14.0905533"><ele>13.0</ele><time>2026-04-15T17:29:43.304Z</time></trkpt><trkpt lat="40.831485" lon="14.09044"><ele>12.5</ele><time>2026-04-15T17:29:44.305Z</time></trkpt><trkpt lat="40.8314667" lon="14.0903283"><ele>12.0</ele><time>2026-04-15T17:29:45.304Z</time></trkpt><trkpt lat="40.831445" lon="14.0902217"><ele>11.5</ele><time>2026-04-15T17:29:46.305Z</time></trkpt><trkpt lat="40.8314283" lon="14.090105"><ele>11.0</ele><time>2026-04-15T17:29:47.305Z</time></trkpt><trkpt lat="40.8314133" lon="14.0899967"><ele>11.166666666666666</ele><time>2026-04-15T17:29:48.305Z</time></trkpt><trkpt lat="40.8313933" lon="14.089885"><ele>11.333333333333332</ele><time>2026-04-15T17:29:49.305Z</time></trkpt><trkpt lat="40.8313767" lon="14.0897717"><ele>11.5</ele><time>2026-04-15T17:29:50.306Z</time></trkpt><trkpt lat="40.8313583" lon="14.0896533"><ele>11.666666666666666</ele><time>2026-04-15T17:29:51.306Z</time></trkpt><trkpt lat="40.8313333" lon="14.0895367"><ele>11.833333333333334</ele><time>2026-04-15T17:29:52.306Z</time></trkpt><trkpt lat="40.8313033" lon="14.0894217"><ele>12.0</ele><time>2026-04-15T17:29:53.305Z</time></trkpt><trkpt lat="40.83127" lon="14.0893083"><ele>12.0</ele><time>2026-04-15T17:29:54.305Z</time></trkpt><trkpt lat="40.83123" lon="14.0891967"><ele>12.0</ele><time>2026-04-15T17:29:55.304Z</time></trkpt><trkpt lat="40.8311883" lon="14.089085"><ele>12.0</ele><time>2026-04-15T17:29:56.305Z</time></trkpt><trkpt lat="40.83115" lon="14.088975"><ele>12.0</ele><time>2026-04-15T17:29:57.305Z</time></trkpt><trkpt lat="40.831115" lon="14.0888617"><ele>12.0</ele><time>2026-04-15T17:29:58.305Z</time></trkpt><trkpt lat="40.8310867" lon="14.088745"><ele>11.5</ele><time>2026-04-15T17:29:59.304Z</time></trkpt><trkpt lat="40.8310633" lon="14.0886283"><ele>11.0</ele><time>2026-04-15T17:30:00.305Z</time></trkpt><trkpt lat="40.83104" lon="14.0885133"><ele>10.5</ele><time>2026-04-15T17:30:01.304Z</time></trkpt><trkpt lat="40.8310117" lon="14.0884033"><ele>10.0</ele><time>2026-04-15T17:30:02.305Z</time></trkpt><trkpt lat="40.8309833" lon="14.0882933"><ele>9.5</ele><time>2026-04-15T17:30:03.305Z</time></trkpt><trkpt lat="40.83096" lon="14.08818"><ele>9.0</ele><time>2026-04-15T17:30:04.305Z</time></trkpt><trkpt lat="40.8309367" lon="14.0880667"><ele>9.0</ele><time>2026-04-15T17:30:05.304Z</time></trkpt><trkpt lat="40.8309183" lon="14.0879517"><ele>9.0</ele><time>2026-04-15T17:30:06.305Z</time></trkpt><trkpt lat="40.830895" lon="14.0878383"><ele>9.0</ele><time>2026-04-15T17:30:07.305Z</time></trkpt><trkpt lat="40.8308733" lon="14.0877267"><ele>9.0</ele><time>2026-04-15T17:30:08.307Z</time></trkpt><trkpt lat="40.83085" lon="14.087615"><ele>9.0</ele><time>2026-04-15T17:30:09.304Z</time></trkpt><trkpt lat="40.830825" lon="14.087505"><ele>9.0</ele><time>2026-04-15T17:30:10.304Z</time></trkpt><trkpt lat="40.8308033" lon="14.0874"><ele>9.5</ele><time>2026-04-15T17:30:11.304Z</time></trkpt><trkpt lat="40.8307783" lon="14.0872967"><ele>10.0</ele><time>2026-04-15T17:30:12.305Z</time></trkpt><trkpt lat="40.8307533" lon="14.0871933"><ele>10.5</ele><time>2026-04-15T17:30:13.304Z</time></trkpt><trkpt lat="40.83073" lon="14.08709"><ele>11.0</ele><time>2026-04-15T17:30:14.304Z</time></trkpt><trkpt lat="40.8307067" lon="14.086985"><ele>11.5</ele><time>2026-04-15T17:30:15.304Z</time></trkpt><trkpt lat="40.830685" lon="14.08688"><ele>12.0</ele><time>2026-04-15T17:30:16.305Z</time></trkpt><trkpt lat="40.8306617" lon="14.0867717"><ele>12.0</ele><time>2026-04-15T17:30:17.305Z</time></trkpt><trkpt lat="40.83064" lon="14.0866633"><ele>12.0</ele><time>2026-04-15T17:30:18.305Z</time></trkpt><trkpt lat="40.830615" lon="14.0865567"><ele>12.0</ele><time>2026-04-15T17:30:19.305Z</time></trkpt><trkpt lat="40.83059" lon="14.0864533"><ele>12.0</ele><time>2026-04-15T17:30:20.305Z</time></trkpt><trkpt lat="40.8305667" lon="14.086345"><ele>12.0</ele><time>2026-04-15T17:30:21.305Z</time></trkpt><trkpt lat="40.8305467" lon="14.0862383"><ele>12.0</ele><time>2026-04-15T17:30:22.306Z</time></trkpt><trkpt lat="40.8305283" lon="14.086135"><ele>12.2</ele><time>2026-04-15T17:30:23.305Z</time></trkpt><trkpt lat="40.8305067" lon="14.0860317"><ele>12.399999999999999</ele><time>2026-04-15T17:30:24.305Z</time></trkpt><trkpt lat="40.8304917" lon="14.0859317"><ele>12.600000000000001</ele><time>2026-04-15T17:30:25.305Z</time></trkpt><trkpt lat="40.8304767" lon="14.0858433"><ele>12.8</ele><time>2026-04-15T17:30:26.305Z</time></trkpt><trkpt lat="40.8304467" lon="14.085695"><ele>13.0</ele><time>2026-04-15T17:30:28.305Z</time></trkpt><trkpt lat="40.8304117" lon="14.0855483"><ele>12.999999999999998</ele><time>2026-04-15T17:30:30.306Z</time></trkpt><trkpt lat="40.8303767" lon="14.0853917"><ele>13.0</ele><time>2026-04-15T17:30:32.305Z</time></trkpt><trkpt lat="40.830335" lon="14.0852383"><ele>13.0</ele><time>2026-04-15T17:30:34.305Z</time></trkpt><trkpt lat="40.8303167" lon="14.085155"><ele>13.0</ele><time>2026-04-15T17:30:35.306Z</time></trkpt><trkpt lat="40.830295" lon="14.0850683"><ele>12.999999999999998</ele><time>2026-04-15T17:30:36.305Z</time></trkpt><trkpt lat="40.8302717" lon="14.084985"><ele>13.0</ele><time>2026-04-15T17:30:37.305Z</time></trkpt><trkpt lat="40.8302483" lon="14.0849"><ele>13.428571428571427</ele><time>2026-04-15T17:30:38.305Z</time></trkpt><trkpt lat="40.830225" lon="14.0848133"><ele>13.857142857142858</ele><time>2026-04-15T17:30:39.304Z</time></trkpt><trkpt lat="40.8301967" lon="14.0847283"><ele>14.285714285714285</ele><time>2026-04-15T17:30:40.305Z</time></trkpt><trkpt lat="40.8301667" lon="14.084645"><ele>14.714285714285714</ele><time>2026-04-15T17:30:41.305Z</time></trkpt><trkpt lat="40.8301317" lon="14.084565"><ele>15.142857142857142</ele><time>2026-04-15T17:30:42.304Z</time></trkpt><trkpt lat="40.8300983" lon="14.0844833"><ele>15.571428571428571</ele><time>2026-04-15T17:30:43.304Z</time></trkpt><trkpt lat="40.8300617" lon="14.0844033"><ele>16.0</ele><time>2026-04-15T17:30:44.305Z</time></trkpt><trkpt lat="40.83003" lon="14.0843217"><ele>14.0</ele><time>2026-04-15T17:30:45.305Z</time></trkpt><trkpt lat="40.8299917" lon="14.084245"><ele>12.000000000000002</ele><time>2026-04-15T17:30:46.305Z</time></trkpt><trkpt lat="40.8299533" lon="14.0841667"><ele>10.0</ele><time>2026-04-15T17:30:47.305Z</time></trkpt><trkpt lat="40.8299183" lon="14.0840933"><ele>8.0</ele><time>2026-04-15T17:30:48.308Z</time></trkpt><trkpt lat="40.8298867" lon="14.0839333"><ele>6.0</ele><time>2026-04-15T17:30:50.305Z</time></trkpt><trkpt lat="40.8298933" lon="14.083775"><ele>5.999999999999999</ele><time>2026-04-15T17:30:52.304Z</time></trkpt><trkpt lat="40.8298983" lon="14.0836917"><ele>6.0</ele><time>2026-04-15T17:30:53.305Z</time></trkpt><trkpt lat="40.8299067" lon="14.083605"><ele>6.0</ele><time>2026-04-15T17:30:54.305Z</time></trkpt><trkpt lat="40.82992" lon="14.0835233"><ele>6.0</ele><time>2026-04-15T17:30:55.304Z</time></trkpt><trkpt lat="40.8299533" lon="14.0834467"><ele>6.0</ele><time>2026-04-15T17:30:56.306Z</time></trkpt><trkpt lat="40.8299817" lon="14.08337"><ele>5.999999999999999</ele><time>2026-04-15T17:30:57.304Z</time></trkpt><trkpt lat="40.8300167" lon="14.08329"><ele>6.0</ele><time>2026-04-15T17:30:58.304Z</time></trkpt><trkpt lat="40.830075" lon="14.0831317"><ele>6.142857142857142</ele><time>2026-04-15T17:31:00.305Z</time></trkpt><trkpt lat="40.8301083" lon="14.08305"><ele>6.285714285714286</ele><time>2026-04-15T17:31:01.306Z</time></trkpt><trkpt lat="40.830145" lon="14.08297"><ele>6.428571428571429</ele><time>2026-04-15T17:31:02.305Z</time></trkpt><trkpt lat="40.8301817" lon="14.0828917"><ele>6.571428571428571</ele><time>2026-04-15T17:31:03.306Z</time></trkpt><trkpt lat="40.8302217" lon="14.0828083"><ele>6.714285714285714</ele><time>2026-04-15T17:31:04.304Z</time></trkpt><trkpt lat="40.8302533" lon="14.08273"><ele>6.857142857142857</ele><time>2026-04-15T17:31:05.305Z</time></trkpt><trkpt lat="40.8302867" lon="14.082655"><ele>7.0</ele><time>2026-04-15T17:31:06.304Z</time></trkpt><trkpt lat="40.83032" lon="14.0825817"><ele>7.0</ele><time>2026-04-15T17:31:07.305Z</time></trkpt><trkpt lat="40.83036" lon="14.08251"><ele>7.0</ele><time>2026-04-15T17:31:08.305Z</time></trkpt><trkpt lat="40.8304" lon="14.08244"><ele>7.0</ele><time>2026-04-15T17:31:09.304Z</time></trkpt><trkpt lat="40.830445" lon="14.082375"><ele>7.0</ele><time>2026-04-15T17:31:10.305Z</time></trkpt><trkpt lat="40.8304883" lon="14.0823117"><ele>7.0</ele><time>2026-04-15T17:31:11.305Z</time></trkpt><trkpt lat="40.830535" lon="14.082255"><ele>7.0</ele><time>2026-04-15T17:31:12.306Z</time></trkpt><trkpt lat="40.8305867" lon="14.082195"><ele>7.0</ele><time>2026-04-15T17:31:13.304Z</time></trkpt><trkpt lat="40.8306333" lon="14.0821333"><ele>6.833333333333334</ele><time>2026-04-15T17:31:14.305Z</time></trkpt><trkpt lat="40.8307267" lon="14.082025"><ele>6.666666666666667</ele><time>2026-04-15T17:31:16.305Z</time></trkpt><trkpt lat="40.8307767" lon="14.0819733"><ele>6.5</ele><time>2026-04-15T17:31:17.305Z</time></trkpt><trkpt lat="40.8308283" lon="14.0819233"><ele>6.333333333333334</ele><time>2026-04-15T17:31:18.307Z</time></trkpt><trkpt lat="40.8308833" lon="14.0818717"><ele>6.166666666666667</ele><time>2026-04-15T17:31:19.305Z</time></trkpt><trkpt lat="40.8309833" lon="14.0817767"><ele>6.0</ele><time>2026-04-15T17:31:21.305Z</time></trkpt><trkpt lat="40.8310367" lon="14.08173"><ele>6.0</ele><time>2026-04-15T17:31:22.306Z</time></trkpt><trkpt lat="40.8311433" lon="14.0816383"><ele>6.0</ele><time>2026-04-15T17:31:24.306Z</time></trkpt><trkpt lat="40.8311983" lon="14.0815917"><ele>6.0</ele><time>2026-04-15T17:31:25.305Z</time></trkpt><trkpt lat="40.8312533" lon="14.0815483"><ele>6.0</ele><time>2026-04-15T17:31:26.304Z</time></trkpt><trkpt lat="40.83131" lon="14.0815067"><ele>6.0</ele><time>2026-04-15T17:31:27.306Z</time></trkpt><trkpt lat="40.8313683" lon="14.0814683"><ele>6.0</ele><time>2026-04-15T17:31:28.305Z</time></trkpt><trkpt lat="40.831485" lon="14.0814083"><ele>6.0</ele><time>2026-04-15T17:31:30.306Z</time></trkpt><trkpt lat="40.8316017" lon="14.0813567"><ele>6.0</ele><time>2026-04-15T17:31:32.305Z</time></trkpt><trkpt lat="40.831725" lon="14.0813017"><ele>6.0</ele><time>2026-04-15T17:31:34.305Z</time></trkpt><trkpt lat="40.8317867" lon="14.0812767"><ele>6.0</ele><time>2026-04-15T17:31:35.304Z</time></trkpt><trkpt lat="40.8318467" lon="14.0812483"><ele>6.0</ele><time>2026-04-15T17:31:36.306Z</time></trkpt><trkpt lat="40.8319067" lon="14.0812217"><ele>6.0</ele><time>2026-04-15T17:31:37.305Z</time></trkpt><trkpt lat="40.8320267" lon="14.081165"><ele>5.999999999999999</ele><time>2026-04-15T17:31:39.305Z</time></trkpt><trkpt lat="40.8320867" lon="14.0811333"><ele>6.0</ele><time>2026-04-15T17:31:40.305Z</time></trkpt><trkpt lat="40.832145" lon="14.0811"><ele>6.0</ele><time>2026-04-15T17:31:41.306Z</time></trkpt><trkpt lat="40.832205" lon="14.08107"><ele>6.0</ele><time>2026-04-15T17:31:42.306Z</time></trkpt><trkpt lat="40.8322683" lon="14.08104"><ele>6.0</ele><time>2026-04-15T17:31:43.306Z</time></trkpt><trkpt lat="40.83233" lon="14.0810117"><ele>5.999999999999999</ele><time>2026-04-15T17:31:44.305Z</time></trkpt><trkpt lat="40.8323933" lon="14.08098"><ele>6.0</ele><time>2026-04-15T17:31:45.305Z</time></trkpt><trkpt lat="40.832455" lon="14.0809467"><ele>6.0</ele><time>2026-04-15T17:31:46.305Z</time></trkpt><trkpt lat="40.8325733" lon="14.080885"><ele>6.0</ele><time>2026-04-15T17:31:48.305Z</time></trkpt><trkpt lat="40.8326333" lon="14.080855"><ele>6.0</ele><time>2026-04-15T17:31:49.305Z</time></trkpt><trkpt lat="40.8326967" lon="14.0808233"><ele>6.0</ele><time>2026-04-15T17:31:50.305Z</time></trkpt><trkpt lat="40.832755" lon="14.08079"><ele>6.0</ele><time>2026-04-15T17:31:51.306Z</time></trkpt><trkpt lat="40.8328167" lon="14.0807583"><ele>6.0</ele><time>2026-04-15T17:31:52.305Z</time></trkpt><trkpt lat="40.83288" lon="14.08073"><ele>5.7142857142857135</ele><time>2026-04-15T17:31:53.306Z</time></trkpt><trkpt lat="40.8329433" lon="14.0807033"><ele>5.428571428571429</ele><time>2026-04-15T17:31:54.306Z</time></trkpt><trkpt lat="40.833005" lon="14.080675"><ele>5.142857142857142</ele><time>2026-04-15T17:31:55.304Z</time></trkpt><trkpt lat="40.8330683" lon="14.0806417"><ele>4.857142857142857</ele><time>2026-04-15T17:31:56.305Z</time></trkpt><trkpt lat="40.83313" lon="14.08061"><ele>4.571428571428571</ele><time>2026-04-15T17:31:57.305Z</time></trkpt><trkpt lat="40.83319" lon="14.08057"><ele>4.285714285714286</ele><time>2026-04-15T17:31:58.305Z</time></trkpt><trkpt lat="40.8332467" lon="14.0805317"><ele>4.0</ele><time>2026-04-15T17:31:59.305Z</time></trkpt><trkpt lat="40.8333633" lon="14.0804683"><ele>3.9999999999999996</ele><time>2026-04-15T17:32:01.305Z</time></trkpt><trkpt lat="40.833425" lon="14.0804433"><ele>4.0</ele><time>2026-04-15T17:32:02.306Z</time></trkpt><trkpt lat="40.8334867" lon="14.0804267"><ele>4.0</ele><time>2026-04-15T17:32:03.305Z</time></trkpt><trkpt lat="40.83355" lon="14.0803983"><ele>4.0</ele><time>2026-04-15T17:32:04.305Z</time></trkpt><trkpt lat="40.833665" lon="14.08034"><ele>3.9999999999999996</ele><time>2026-04-15T17:32:06.306Z</time></trkpt><trkpt lat="40.8337267" lon="14.080305"><ele>4.0</ele><time>2026-04-15T17:32:07.304Z</time></trkpt><trkpt lat="40.8337867" lon="14.08027"><ele>4.428571428571429</ele><time>2026-04-15T17:32:08.306Z</time></trkpt><trkpt lat="40.8338483" lon="14.0802367"><ele>4.857142857142857</ele><time>2026-04-15T17:32:09.305Z</time></trkpt><trkpt lat="40.83391" lon="14.0802083"><ele>5.285714285714286</ele><time>2026-04-15T17:32:10.304Z</time></trkpt><trkpt lat="40.8339733" lon="14.0801783"><ele>5.714285714285714</ele><time>2026-04-15T17:32:11.305Z</time></trkpt><trkpt lat="40.8340317" lon="14.080145"><ele>6.142857142857142</ele><time>2026-04-15T17:32:12.306Z</time></trkpt><trkpt lat="40.8340917" lon="14.080115"><ele>6.571428571428571</ele><time>2026-04-15T17:32:13.306Z</time></trkpt><trkpt lat="40.83415" lon="14.08008"><ele>7.0</ele><time>2026-04-15T17:32:14.306Z</time></trkpt><trkpt lat="40.834265" lon="14.0800183"><ele>6.5</ele><time>2026-04-15T17:32:16.305Z</time></trkpt><trkpt lat="40.8343817" lon="14.0799717"><ele>6.0</ele><time>2026-04-15T17:32:18.306Z</time></trkpt><trkpt lat="40.8344933" lon="14.0799317"><ele>5.5</ele><time>2026-04-15T17:32:20.304Z</time></trkpt><trkpt lat="40.8346033" lon="14.0798867"><ele>5.0</ele><time>2026-04-15T17:32:22.305Z</time></trkpt><trkpt lat="40.83471" lon="14.0798267"><ele>5.0</ele><time>2026-04-15T17:32:24.306Z</time></trkpt><trkpt lat="40.8348167" lon="14.0797717"><ele>5.0</ele><time>2026-04-15T17:32:26.306Z</time></trkpt><trkpt lat="40.83492" lon="14.0797217"><ele>5.0</ele><time>2026-04-15T17:32:28.305Z</time></trkpt><trkpt lat="40.83503" lon="14.07967"><ele>5.0</ele><time>2026-04-15T17:32:30.306Z</time></trkpt><trkpt lat="40.83509" lon="14.0796383"><ele>5.0</ele><time>2026-04-15T17:32:31.305Z</time></trkpt><trkpt lat="40.8352017" lon="14.0795883"><ele>5.0</ele><time>2026-04-15T17:32:33.305Z</time></trkpt><trkpt lat="40.8353083" lon="14.079545"><ele>5.0</ele><time>2026-04-15T17:32:35.306Z</time></trkpt><trkpt lat="40.8354167" lon="14.0794883"><ele>5.0</ele><time>2026-04-15T17:32:37.306Z</time></trkpt><trkpt lat="40.8355217" lon="14.079435"><ele>5.0</ele><time>2026-04-15T17:32:39.306Z</time></trkpt><trkpt lat="40.8356333" lon="14.0793833"><ele>5.0</ele><time>2026-04-15T17:32:41.306Z</time></trkpt><trkpt lat="40.8357383" lon="14.07933"><ele>5.0</ele><time>2026-04-15T17:32:43.306Z</time></trkpt><trkpt lat="40.8358333" lon="14.0792783"><ele>5.0</ele><time>2026-04-15T17:32:45.306Z</time></trkpt><trkpt lat="40.8359267" lon="14.0792117"><ele>5.0</ele><time>2026-04-15T17:32:47.305Z</time></trkpt><trkpt lat="40.8360133" lon="14.0791517"><ele>5.0</ele><time>2026-04-15T17:32:49.306Z</time></trkpt><trkpt lat="40.8361" lon="14.0791067"><ele>4.0</ele><time>2026-04-15T17:32:51.305Z</time></trkpt><trkpt lat="40.836185" lon="14.079105"><ele>3.0</ele><time>2026-04-15T17:32:53.305Z</time></trkpt><trkpt lat="40.83625" lon="14.0791617"><ele>2.0</ele><time>2026-04-15T17:32:55.305Z</time></trkpt><trkpt lat="40.8363167" lon="14.0792483"><ele>1.0</ele><time>2026-04-15T17:32:57.305Z</time></trkpt><trkpt lat="40.8363833" lon="14.0793417"><ele>0.0</ele><time>2026-04-15T17:32:59.304Z</time></trkpt><trkpt lat="40.8364633" lon="14.0794433"><ele>0.0</ele><time>2026-04-15T17:33:01.305Z</time></trkpt><trkpt lat="40.8365317" lon="14.0795483"><ele>0.0</ele><time>2026-04-15T17:33:03.306Z</time></trkpt><trkpt lat="40.836605" lon="14.0796417"><ele>0.0</ele><time>2026-04-15T17:33:05.305Z</time></trkpt><trkpt lat="40.836685" lon="14.0797283"><ele>0.0</ele><time>2026-04-15T17:33:07.304Z</time></trkpt><trkpt lat="40.8367767" lon="14.079825"><ele>0.0</ele><time>2026-04-15T17:33:09.306Z</time></trkpt><trkpt lat="40.8368567" lon="14.0799367"><ele>0.0</ele><time>2026-04-15T17:33:11.306Z</time></trkpt><trkpt lat="40.836935" lon="14.0800483"><ele>0.0</ele><time>2026-04-15T17:33:13.305Z</time></trkpt><trkpt lat="40.83701" lon="14.08017"><ele>0.0</ele><time>2026-04-15T17:33:15.305Z</time></trkpt><trkpt lat="40.837075" lon="14.0803"><ele>0.0</ele><time>2026-04-15T17:33:17.306Z</time></trkpt><trkpt lat="40.837105" lon="14.080375"><ele>0.0</ele><time>2026-04-15T17:33:18.305Z</time></trkpt><trkpt lat="40.837135" lon="14.0804483"><ele>0.0</ele><time>2026-04-15T17:33:19.306Z</time></trkpt><trkpt lat="40.8371833" lon="14.08058"><ele>0.0</ele><time>2026-04-15T17:33:21.305Z</time></trkpt><trkpt lat="40.8372267" lon="14.080715"><ele>0.0</ele><time>2026-04-15T17:33:23.305Z</time></trkpt><trkpt lat="40.837275" lon="14.0808517"><ele>0.0</ele><time>2026-04-15T17:33:25.306Z</time></trkpt><trkpt lat="40.8373217" lon="14.0809883"><ele>0.0</ele><time>2026-04-15T17:33:27.306Z</time></trkpt><trkpt lat="40.83738" lon="14.0811083"><ele>0.0</ele><time>2026-04-15T17:33:29.306Z</time></trkpt><trkpt lat="40.8374517" lon="14.0812"><ele>0.0</ele><time>2026-04-15T17:33:31.306Z</time></trkpt><trkpt lat="40.837515" lon="14.0812983"><ele>0.0</ele><time>2026-04-15T17:33:33.306Z</time></trkpt><trkpt lat="40.8375767" lon="14.0814067"><ele>0.0</ele><time>2026-04-15T17:33:35.306Z</time></trkpt><trkpt lat="40.83762" lon="14.0815383"><ele>0.0</ele><time>2026-04-15T17:33:37.304Z</time></trkpt><trkpt lat="40.837685" lon="14.0816567"><ele>0.0</ele><time>2026-04-15T17:33:39.305Z</time></trkpt><trkpt lat="40.83776" lon="14.0817733"><ele>0.0</ele><time>2026-04-15T17:33:41.306Z</time></trkpt><trkpt lat="40.83784" lon="14.08185"><ele>0.0</ele><time>2026-04-15T17:33:43.306Z</time></trkpt><trkpt lat="40.8379283" lon="14.08191"><ele>0.0</ele><time>2026-04-15T17:33:45.306Z</time></trkpt><trkpt lat="40.838035" lon="14.081965"><ele>0.0</ele><time>2026-04-15T17:33:47.307Z</time></trkpt><trkpt lat="40.83814" lon="14.08201"><ele>0.0</ele><time>2026-04-15T17:33:49.305Z</time></trkpt><trkpt lat="40.838245" lon="14.0820617"><ele>0.0</ele><time>2026-04-15T17:33:51.305Z</time></trkpt><trkpt lat="40.8383667" lon="14.0821033"><ele>0.0</ele><time>2026-04-15T17:33:53.304Z</time></trkpt><trkpt lat="40.8384817" lon="14.0821283"><ele>0.0</ele><time>2026-04-15T17:33:55.305Z</time></trkpt><trkpt lat="40.8385867" lon="14.0821517"><ele>0.6</ele><time>2026-04-15T17:33:57.306Z</time></trkpt><trkpt lat="40.83869" lon="14.0821617"><ele>1.2</ele><time>2026-04-15T17:33:59.305Z</time></trkpt><trkpt lat="40.8388" lon="14.082165"><ele>1.7999999999999998</ele><time>2026-04-15T17:34:01.306Z</time></trkpt><trkpt lat="40.8389083" lon="14.082135"><ele>2.4</ele><time>2026-04-15T17:34:03.305Z</time></trkpt><trkpt lat="40.8390133" lon="14.082085"><ele>3.0</ele><time>2026-04-15T17:34:05.305Z</time></trkpt><trkpt lat="40.8391167" lon="14.08203"><ele>3.0</ele><time>2026-04-15T17:34:07.306Z</time></trkpt><trkpt lat="40.83922" lon="14.0819583"><ele>3.0</ele><time>2026-04-15T17:34:09.308Z</time></trkpt><trkpt lat="40.8393217" lon="14.081895"><ele>3.0</ele><time>2026-04-15T17:34:11.307Z</time></trkpt><trkpt lat="40.8394233" lon="14.0818233"><ele>3.0</ele><time>2026-04-15T17:34:13.306Z</time></trkpt><trkpt lat="40.8395317" lon="14.0817583"><ele>3.2</ele><time>2026-04-15T17:34:15.306Z</time></trkpt><trkpt lat="40.83963" lon="14.081685"><ele>3.4</ele><time>2026-04-15T17:34:17.306Z</time></trkpt><trkpt lat="40.8397233" lon="14.0816133"><ele>3.6000000000000005</ele><time>2026-04-15T17:34:19.306Z</time></trkpt><trkpt lat="40.8398117" lon="14.0815533"><ele>3.8000000000000003</ele><time>2026-04-15T17:34:21.306Z</time></trkpt><trkpt lat="40.839905" lon="14.08148"><ele>4.0</ele><time>2026-04-15T17:34:23.306Z</time></trkpt><trkpt lat="40.83999" lon="14.0813967"><ele>3.75</ele><time>2026-04-15T17:34:25.306Z</time></trkpt><trkpt lat="40.8400783" lon="14.0813033"><ele>3.5</ele><time>2026-04-15T17:34:27.306Z</time></trkpt><trkpt lat="40.8401717" lon="14.0812233"><ele>3.25</ele><time>2026-04-15T17:34:29.306Z</time></trkpt><trkpt lat="40.840275" lon="14.08114"><ele>3.0</ele><time>2026-04-15T17:34:31.306Z</time></trkpt><trkpt lat="40.8403733" lon="14.08106"><ele>3.0</ele><time>2026-04-15T17:34:33.306Z</time></trkpt><trkpt lat="40.8404667" lon="14.0809683"><ele>3.0</ele><time>2026-04-15T17:34:35.305Z</time></trkpt><trkpt lat="40.8405567" lon="14.08088"><ele>3.0</ele><time>2026-04-15T17:34:37.306Z</time></trkpt><trkpt lat="40.8406483" lon="14.0807883"><ele>3.0</ele><time>2026-04-15T17:34:39.307Z</time></trkpt><trkpt lat="40.8407367" lon="14.0807017"><ele>3.0</ele><time>2026-04-15T17:34:41.306Z</time></trkpt><trkpt lat="40.8408217" lon="14.0806217"><ele>3.0</ele><time>2026-04-15T17:34:43.305Z</time></trkpt><trkpt lat="40.8409067" lon="14.0805367"><ele>3.0</ele><time>2026-04-15T17:34:45.306Z</time></trkpt><trkpt lat="40.8409867" lon="14.0804467"><ele>3.0</ele><time>2026-04-15T17:34:47.305Z</time></trkpt><trkpt lat="40.841065" lon="14.08035"><ele>3.0</ele><time>2026-04-15T17:34:49.306Z</time></trkpt><trkpt lat="40.8411367" lon="14.080255"><ele>3.0</ele><time>2026-04-15T17:34:51.307Z</time></trkpt><trkpt lat="40.8412117" lon="14.08015"><ele>3.0</ele><time>2026-04-15T17:34:53.306Z</time></trkpt><trkpt lat="40.841285" lon="14.08004"><ele>3.0</ele><time>2026-04-15T17:34:55.306Z</time></trkpt><trkpt lat="40.841375" lon="14.0799383"><ele>3.0</ele><time>2026-04-15T17:34:57.306Z</time></trkpt><trkpt lat="40.841475" lon="14.0798567"><ele>2.5</ele><time>2026-04-15T17:34:59.306Z</time></trkpt><trkpt lat="40.84157" lon="14.07977"><ele>2.0</ele><time>2026-04-15T17:35:01.306Z</time></trkpt><trkpt lat="40.841655" lon="14.0796683"><ele>1.5</ele><time>2026-04-15T17:35:03.306Z</time></trkpt><trkpt lat="40.8417367" lon="14.0795667"><ele>1.0</ele><time>2026-04-15T17:35:05.306Z</time></trkpt><trkpt lat="40.84182" lon="14.0794533"><ele>1.6</ele><time>2026-04-15T17:35:07.305Z</time></trkpt><trkpt lat="40.8418967" lon="14.07934"><ele>2.2</ele><time>2026-04-15T17:35:09.306Z</time></trkpt><trkpt lat="40.841965" lon="14.0792217"><ele>2.8000000000000003</ele><time>2026-04-15T17:35:11.305Z</time></trkpt><trkpt lat="40.8420267" lon="14.0791017"><ele>3.4000000000000004</ele><time>2026-04-15T17:35:13.306Z</time></trkpt><trkpt lat="40.8420833" lon="14.07898"><ele>4.0</ele><time>2026-04-15T17:35:15.305Z</time></trkpt><trkpt lat="40.84214" lon="14.0788483"><ele>4.0</ele><time>2026-04-15T17:35:17.306Z</time></trkpt><trkpt lat="40.8422017" lon="14.0787117"><ele>4.0</ele><time>2026-04-15T17:35:19.306Z</time></trkpt><trkpt lat="40.8422567" lon="14.0785817"><ele>4.0</ele><time>2026-04-15T17:35:21.306Z</time></trkpt><trkpt lat="40.8423" lon="14.0784367"><ele>4.0</ele><time>2026-04-15T17:35:23.306Z</time></trkpt><trkpt lat="40.8423383" lon="14.078305"><ele>3.8000000000000003</ele><time>2026-04-15T17:35:25.305Z</time></trkpt><trkpt lat="40.84237" lon="14.0781917"><ele>3.6000000000000005</ele><time>2026-04-15T17:35:27.306Z</time></trkpt><trkpt lat="40.842395" lon="14.078075"><ele>3.4</ele><time>2026-04-15T17:35:29.306Z</time></trkpt><trkpt lat="40.8424017" lon="14.0779567"><ele>3.2</ele><time>2026-04-15T17:35:31.306Z</time></trkpt><trkpt lat="40.8424083" lon="14.0778217"><ele>3.0</ele><time>2026-04-15T17:35:33.306Z</time></trkpt><trkpt lat="40.8424" lon="14.077705"><ele>3.0</ele><time>2026-04-15T17:35:35.306Z</time></trkpt><trkpt lat="40.8423833" lon="14.0775783"><ele>3.0</ele><time>2026-04-15T17:35:37.306Z</time></trkpt><trkpt lat="40.8423617" lon="14.0774467"><ele>3.0</ele><time>2026-04-15T17:35:39.306Z</time></trkpt><trkpt lat="40.8423467" lon="14.0773"><ele>3.0</ele><time>2026-04-15T17:35:41.305Z</time></trkpt><trkpt lat="40.842335" lon="14.0771667"><ele>3.0</ele><time>2026-04-15T17:35:43.306Z</time></trkpt><trkpt lat="40.8423133" lon="14.0770317"><ele>3.2</ele><time>2026-04-15T17:35:45.306Z</time></trkpt><trkpt lat="40.842295" lon="14.0769017"><ele>3.4</ele><time>2026-04-15T17:35:47.307Z</time></trkpt><trkpt lat="40.8422683" lon="14.0767817"><ele>3.6000000000000005</ele><time>2026-04-15T17:35:49.306Z</time></trkpt><trkpt lat="40.84225" lon="14.0766517"><ele>3.8000000000000003</ele><time>2026-04-15T17:35:51.306Z</time></trkpt><trkpt lat="40.84222" lon="14.0765283"><ele>4.0</ele><time>2026-04-15T17:35:53.305Z</time></trkpt><trkpt lat="40.8421917" lon="14.0764"><ele>4.800000000000001</ele><time>2026-04-15T17:35:55.306Z</time></trkpt><trkpt lat="40.8421817" lon="14.0762717"><ele>5.6000000000000005</ele><time>2026-04-15T17:35:57.306Z</time></trkpt><trkpt lat="40.84217" lon="14.0761467"><ele>6.4</ele><time>2026-04-15T17:35:59.306Z</time></trkpt><trkpt lat="40.84215" lon="14.0760383"><ele>7.2</ele><time>2026-04-15T17:36:01.304Z</time></trkpt><trkpt lat="40.84212" lon="14.07594"><ele>8.0</ele><time>2026-04-15T17:36:03.305Z</time></trkpt><trkpt lat="40.8421033" lon="14.0758117"><ele>8.200000000000001</ele><time>2026-04-15T17:36:05.305Z</time></trkpt><trkpt lat="40.84209" lon="14.075675"><ele>8.4</ele><time>2026-04-15T17:36:07.304Z</time></trkpt><trkpt lat="40.8420567" lon="14.0755483"><ele>8.600000000000001</ele><time>2026-04-15T17:36:09.305Z</time></trkpt><trkpt lat="40.8420183" lon="14.07543"><ele>8.8</ele><time>2026-04-15T17:36:11.305Z</time></trkpt><trkpt lat="40.84199" lon="14.0753117"><ele>9.0</ele><time>2026-04-15T17:36:13.305Z</time></trkpt><trkpt lat="40.841975" lon="14.0751833"><ele>9.0</ele><time>2026-04-15T17:36:15.304Z</time></trkpt><trkpt lat="40.841985" lon="14.07504"><ele>9.0</ele><time>2026-04-15T17:36:17.304Z</time></trkpt><trkpt lat="40.8419883" lon="14.074885"><ele>9.0</ele><time>2026-04-15T17:36:19.304Z</time></trkpt><trkpt lat="40.8419867" lon="14.0747533"><ele>9.0</ele><time>2026-04-15T17:36:21.305Z</time></trkpt><trkpt lat="40.8419833" lon="14.074615"><ele>9.0</ele><time>2026-04-15T17:36:23.305Z</time></trkpt><trkpt lat="40.8419767" lon="14.0744667"><ele>8.8</ele><time>2026-04-15T17:36:25.305Z</time></trkpt><trkpt lat="40.8419733" lon="14.0743283"><ele>8.600000000000001</ele><time>2026-04-15T17:36:27.305Z</time></trkpt><trkpt lat="40.841965" lon="14.0741833"><ele>8.4</ele><time>2026-04-15T17:36:29.306Z</time></trkpt><trkpt lat="40.8419567" lon="14.0740367"><ele>8.200000000000001</ele><time>2026-04-15T17:36:31.305Z</time></trkpt><trkpt lat="40.841955" lon="14.07389"><ele>8.0</ele><time>2026-04-15T17:36:33.305Z</time></trkpt><trkpt lat="40.8419483" lon="14.0737467"><ele>8.0</ele><time>2026-04-15T17:36:35.305Z</time></trkpt><trkpt lat="40.84193" lon="14.0736017"><ele>8.0</ele><time>2026-04-15T17:36:37.305Z</time></trkpt><trkpt lat="40.8418983" lon="14.073465"><ele>8.0</ele><time>2026-04-15T17:36:39.305Z</time></trkpt><trkpt lat="40.841855" lon="14.07334"><ele>8.0</ele><time>2026-04-15T17:36:41.305Z</time></trkpt><trkpt lat="40.8418067" lon="14.073215"><ele>8.0</ele><time>2026-04-15T17:36:43.305Z</time></trkpt><trkpt lat="40.8417533" lon="14.0730867"><ele>7.6000000000000005</ele><time>2026-04-15T17:36:45.304Z</time></trkpt><trkpt lat="40.8416883" lon="14.0729667"><ele>7.200000000000001</ele><time>2026-04-15T17:36:47.305Z</time></trkpt><trkpt lat="40.8416167" lon="14.0728583"><ele>6.8</ele><time>2026-04-15T17:36:49.305Z</time></trkpt><trkpt lat="40.84154" lon="14.072775"><ele>6.4</ele><time>2026-04-15T17:36:51.305Z</time></trkpt><trkpt lat="40.8414833" lon="14.0727017"><ele>6.0</ele><time>2026-04-15T17:36:53.305Z</time></trkpt><trkpt lat="40.8414067" lon="14.0726467"><ele>6.0</ele><time>2026-04-15T17:36:55.305Z</time></trkpt><trkpt lat="40.84131" lon="14.0725883"><ele>6.0</ele><time>2026-04-15T17:36:57.305Z</time></trkpt><trkpt lat="40.8412317" lon="14.0724933"><ele>6.0</ele><time>2026-04-15T17:36:59.305Z</time></trkpt><trkpt lat="40.8411483" lon="14.0724033"><ele>6.0</ele><time>2026-04-15T17:37:01.305Z</time></trkpt><trkpt lat="40.84107" lon="14.072315"><ele>6.0</ele><time>2026-04-15T17:37:03.304Z</time></trkpt><trkpt lat="40.8410417" lon="14.0722383"><ele>6.6</ele><time>2026-04-15T17:37:04.303Z</time></trkpt><trkpt lat="40.8410133" lon="14.07216"><ele>7.199999999999999</ele><time>2026-04-15T17:37:05.305Z</time></trkpt><trkpt lat="40.8409567" lon="14.0720433"><ele>7.800000000000001</ele><time>2026-04-15T17:37:07.305Z</time></trkpt><trkpt lat="40.8408833" lon="14.0719433"><ele>8.4</ele><time>2026-04-15T17:37:09.305Z</time></trkpt><trkpt lat="40.8407967" lon="14.0718683"><ele>9.0</ele><time>2026-04-15T17:37:11.304Z</time></trkpt><trkpt lat="40.8407283" lon="14.0717933"><ele>9.0</ele><time>2026-04-15T17:37:13.305Z</time></trkpt><trkpt lat="40.84064" lon="14.071735"><ele>9.0</ele><time>2026-04-15T17:37:15.305Z</time></trkpt><trkpt lat="40.8405417" lon="14.0717"><ele>9.0</ele><time>2026-04-15T17:37:17.304Z</time></trkpt><trkpt lat="40.8404467" lon="14.07166"><ele>9.0</ele><time>2026-04-15T17:37:19.305Z</time></trkpt><trkpt lat="40.840355" lon="14.0716083"><ele>9.0</ele><time>2026-04-15T17:37:21.305Z</time></trkpt><trkpt lat="40.8402683" lon="14.0715617"><ele>9.666666666666666</ele><time>2026-04-15T17:37:23.305Z</time></trkpt><trkpt lat="40.8401717" lon="14.07153"><ele>10.333333333333332</ele><time>2026-04-15T17:37:25.305Z</time></trkpt><trkpt lat="40.8400933" lon="14.07148"><ele>11.0</ele><time>2026-04-15T17:37:27.304Z</time></trkpt><trkpt lat="40.84003" lon="14.07141"><ele>11.666666666666666</ele><time>2026-04-15T17:37:29.305Z</time></trkpt><trkpt lat="40.8399717" lon="14.071335"><ele>12.333333333333332</ele><time>2026-04-15T17:37:31.304Z</time></trkpt><trkpt lat="40.8398967" lon="14.07128"><ele>13.0</ele><time>2026-04-15T17:37:33.304Z</time></trkpt><trkpt lat="40.8398083" lon="14.07123"><ele>13.0</ele><time>2026-04-15T17:37:35.305Z</time></trkpt><trkpt lat="40.8397067" lon="14.0711767"><ele>13.0</ele><time>2026-04-15T17:37:37.305Z</time></trkpt><trkpt lat="40.839595" lon="14.0711083"><ele>13.0</ele><time>2026-04-15T17:37:39.305Z</time></trkpt><trkpt lat="40.839505" lon="14.0710333"><ele>13.0</ele><time>2026-04-15T17:37:41.305Z</time></trkpt><trkpt lat="40.8394117" lon="14.070965"><ele>13.0</ele><time>2026-04-15T17:37:43.305Z</time></trkpt><trkpt lat="40.8393083" lon="14.0709033"><ele>11.8</ele><time>2026-04-15T17:37:45.305Z</time></trkpt><trkpt lat="40.839215" lon="14.070845"><ele>10.600000000000001</ele><time>2026-04-15T17:37:47.305Z</time></trkpt><trkpt lat="40.83911" lon="14.0708017"><ele>9.399999999999999</ele><time>2026-04-15T17:37:49.305Z</time></trkpt><trkpt lat="40.8390067" lon="14.07077"><ele>8.2</ele><time>2026-04-15T17:37:51.304Z</time></trkpt><trkpt lat="40.8388967" lon="14.0707617"><ele>7.0</ele><time>2026-04-15T17:37:53.305Z</time></trkpt><trkpt lat="40.8387833" lon="14.0707583"><ele>13.25</ele><time>2026-04-15T17:37:55.305Z</time></trkpt><trkpt lat="40.8386683" lon="14.07075"><ele>19.5</ele><time>2026-04-15T17:37:57.304Z</time></trkpt><trkpt lat="40.83855" lon="14.0707483"><ele>25.75</ele><time>2026-04-15T17:37:59.304Z</time></trkpt><trkpt lat="40.8384367" lon="14.0707233"><ele>32.0</ele><time>2026-04-15T17:38:01.304Z</time></trkpt><trkpt lat="40.838335" lon="14.0706917"><ele>32.0</ele><time>2026-04-15T17:38:03.304Z</time></trkpt><trkpt lat="40.8382317" lon="14.0707017"><ele>32.0</ele><time>2026-04-15T17:38:05.305Z</time></trkpt><trkpt lat="40.838125" lon="14.0707617"><ele>32.0</ele><time>2026-04-15T17:38:07.305Z</time></trkpt><trkpt lat="40.8380133" lon="14.0708267"><ele>32.0</ele><time>2026-04-15T17:38:09.304Z</time></trkpt><trkpt lat="40.83795" lon="14.07085"><ele>32.0</ele><time>2026-04-15T17:38:10.304Z</time></trkpt><trkpt lat="40.8378283" lon="14.07087"><ele>26.6</ele><time>2026-04-15T17:38:12.305Z</time></trkpt><trkpt lat="40.8377583" lon="14.07088"><ele>21.200000000000003</ele><time>2026-04-15T17:38:13.306Z</time></trkpt><trkpt lat="40.8376333" lon="14.0708917"><ele>15.8</ele><time>2026-04-15T17:38:15.306Z</time></trkpt><trkpt lat="40.8375683" lon="14.0709033"><ele>10.4</ele><time>2026-04-15T17:38:16.305Z</time></trkpt><trkpt lat="40.83745" lon="14.070925"><ele>5.0</ele><time>2026-04-15T17:38:18.306Z</time></trkpt><trkpt lat="40.8373333" lon="14.07096"><ele>5.0</ele><time>2026-04-15T17:38:20.306Z</time></trkpt><trkpt lat="40.83721" lon="14.0710133"><ele>5.0</ele><time>2026-04-15T17:38:22.306Z</time></trkpt><trkpt lat="40.837095" lon="14.0710683"><ele>5.0</ele><time>2026-04-15T17:38:24.306Z</time></trkpt><trkpt lat="40.8369917" lon="14.0711117"><ele>5.0</ele><time>2026-04-15T17:38:26.305Z</time></trkpt><trkpt lat="40.8368833" lon="14.07116"><ele>5.0</ele><time>2026-04-15T17:38:28.304Z</time></trkpt><trkpt lat="40.8368183" lon="14.07118"><ele>5.0</ele><time>2026-04-15T17:38:29.306Z</time></trkpt><trkpt lat="40.836705" lon="14.0711667"><ele>5.0</ele><time>2026-04-15T17:38:31.305Z</time></trkpt><trkpt lat="40.8366067" lon="14.0711667"><ele>5.0</ele><time>2026-04-15T17:38:33.305Z</time></trkpt><trkpt lat="40.8365067" lon="14.0711883"><ele>5.0</ele><time>2026-04-15T17:38:35.305Z</time></trkpt><trkpt lat="40.8364117" lon="14.0712033"><ele>5.4</ele><time>2026-04-15T17:38:37.311Z</time></trkpt><trkpt lat="40.8362967" lon="14.071225"><ele>5.8</ele><time>2026-04-15T17:38:39.307Z</time></trkpt><trkpt lat="40.83619" lon="14.0712617"><ele>6.199999999999999</ele><time>2026-04-15T17:38:41.307Z</time></trkpt><trkpt lat="40.836115" lon="14.071335"><ele>6.6</ele><time>2026-04-15T17:38:43.305Z</time></trkpt><trkpt lat="40.8360767" lon="14.07148"><ele>7.0</ele><time>2026-04-15T17:38:45.309Z</time></trkpt><trkpt lat="40.83606" lon="14.0716233"><ele>5.75</ele><time>2026-04-15T17:38:47.307Z</time></trkpt><trkpt lat="40.836045" lon="14.071775"><ele>4.5</ele><time>2026-04-15T17:38:49.309Z</time></trkpt><trkpt lat="40.8360317" lon="14.071935"><ele>3.25</ele><time>2026-04-15T17:38:51.307Z</time></trkpt><trkpt lat="40.8359983" lon="14.07209"><ele>2.0</ele><time>2026-04-15T17:38:53.309Z</time></trkpt><trkpt lat="40.8359367" lon="14.07221"><ele>2.0</ele><time>2026-04-15T17:38:55.307Z</time></trkpt><trkpt lat="40.8358483" lon="14.0723017"><ele>2.0</ele><time>2026-04-15T17:38:57.307Z</time></trkpt><trkpt lat="40.8357467" lon="14.0723683"><ele>2.0</ele><time>2026-04-15T17:38:59.306Z</time></trkpt><trkpt lat="40.8356383" lon="14.0724167"><ele>2.0</ele><time>2026-04-15T17:39:01.31Z</time></trkpt><trkpt lat="40.8355267" lon="14.0724583"><ele>2.0</ele><time>2026-04-15T17:39:03.306Z</time></trkpt><trkpt lat="40.8354167" lon="14.072505"><ele>2.0</ele><time>2026-04-15T17:39:05.309Z</time></trkpt><trkpt lat="40.8353267" lon="14.0726017"><ele>2.0</ele><time>2026-04-15T17:39:07.309Z</time></trkpt><trkpt lat="40.8352533" lon="14.0727217"><ele>2.0</ele><time>2026-04-15T17:39:09.308Z</time></trkpt><trkpt lat="40.835195" lon="14.0728483"><ele>2.0</ele><time>2026-04-15T17:39:11.308Z</time></trkpt><trkpt lat="40.8351667" lon="14.0729867"><ele>2.0</ele><time>2026-04-15T17:39:13.307Z</time></trkpt><trkpt lat="40.8351567" lon="14.0731333"><ele>2.0</ele><time>2026-04-15T17:39:15.306Z</time></trkpt><trkpt lat="40.8351533" lon="14.07329"><ele>2.0</ele><time>2026-04-15T17:39:17.309Z</time></trkpt><trkpt lat="40.8351483" lon="14.073435"><ele>2.0</ele><time>2026-04-15T17:39:19.308Z</time></trkpt><trkpt lat="40.835165" lon="14.07358"><ele>1.5</ele><time>2026-04-15T17:39:21.306Z</time></trkpt><trkpt lat="40.83517" lon="14.07373"><ele>1.0</ele><time>2026-04-15T17:39:23.305Z</time></trkpt><trkpt lat="40.8351667" lon="14.0738883"><ele>0.5</ele><time>2026-04-15T17:39:25.308Z</time></trkpt><trkpt lat="40.8351683" lon="14.0740317"><ele>0.0</ele><time>2026-04-15T17:39:27.305Z</time></trkpt><trkpt lat="40.8351717" lon="14.0741817"><ele>0.0</ele><time>2026-04-15T17:39:29.307Z</time></trkpt><trkpt lat="40.8351717" lon="14.0743233"><ele>0.0</ele><time>2026-04-15T17:39:31.306Z</time></trkpt><trkpt lat="40.83519" lon="14.0744633"><ele>0.0</ele><time>2026-04-15T17:39:33.305Z</time></trkpt><trkpt lat="40.8352217" lon="14.0745833"><ele>0.0</ele><time>2026-04-15T17:39:35.307Z</time></trkpt><trkpt lat="40.8352283" lon="14.07469"><ele>0.0</ele><time>2026-04-15T17:39:37.307Z</time></trkpt><trkpt lat="40.8352417" lon="14.0748067"><ele>0.0</ele><time>2026-04-15T17:39:39.307Z</time></trkpt><trkpt lat="40.8352583" lon="14.0749367"><ele>0.0</ele><time>2026-04-15T17:39:41.307Z</time></trkpt><trkpt lat="40.8352917" lon="14.0750733"><ele>0.0</ele><time>2026-04-15T17:39:43.307Z</time></trkpt><trkpt lat="40.835325" lon="14.0752167"><ele>0.0</ele><time>2026-04-15T17:39:45.307Z</time></trkpt><trkpt lat="40.835345" lon="14.0753617"><ele>0.0</ele><time>2026-04-15T17:39:47.307Z</time></trkpt><trkpt lat="40.8353567" lon="14.0755067"><ele>0.0</ele><time>2026-04-15T17:39:49.308Z</time></trkpt><trkpt lat="40.835365" lon="14.0756567"><ele>0.0</ele><time>2026-04-15T17:39:51.307Z</time></trkpt><trkpt lat="40.835375" lon="14.075805"><ele>0.0</ele><time>2026-04-15T17:39:53.308Z</time></trkpt><trkpt lat="40.8353867" lon="14.0759567"><ele>0.0</ele><time>2026-04-15T17:39:55.307Z</time></trkpt><trkpt lat="40.8353967" lon="14.0761033"><ele>0.0</ele><time>2026-04-15T17:39:57.306Z</time></trkpt><trkpt lat="40.8353983" lon="14.0762483"><ele>0.0</ele><time>2026-04-15T17:39:59.308Z</time></trkpt><trkpt lat="40.8354067" lon="14.0763917"><ele>0.0</ele><time>2026-04-15T17:40:01.305Z</time></trkpt><trkpt lat="40.8354167" lon="14.0765283"><ele>0.0</ele><time>2026-04-15T17:40:03.306Z</time></trkpt><trkpt lat="40.83543" lon="14.0766767"><ele>0.0</ele><time>2026-04-15T17:40:05.307Z</time></trkpt><trkpt lat="40.8354417" lon="14.0768167"><ele>0.0</ele><time>2026-04-15T17:40:07.306Z</time></trkpt><trkpt lat="40.835455" lon="14.076965"><ele>0.0</ele><time>2026-04-15T17:40:09.307Z</time></trkpt><trkpt lat="40.8354633" lon="14.07711"><ele>0.0</ele><time>2026-04-15T17:40:11.305Z</time></trkpt><trkpt lat="40.8354733" lon="14.0772433"><ele>0.0</ele><time>2026-04-15T17:40:13.307Z</time></trkpt><trkpt lat="40.8354833" lon="14.077375"><ele>0.0</ele><time>2026-04-15T17:40:15.307Z</time></trkpt><trkpt lat="40.8355017" lon="14.077505"><ele>0.8</ele><time>2026-04-15T17:40:17.309Z</time></trkpt><trkpt lat="40.8355367" lon="14.077635"><ele>1.6</ele><time>2026-04-15T17:40:19.305Z</time></trkpt><trkpt lat="40.83559" lon="14.0777517"><ele>2.4000000000000004</ele><time>2026-04-15T17:40:21.307Z</time></trkpt><trkpt lat="40.835645" lon="14.0778683"><ele>3.2</ele><time>2026-04-15T17:40:23.306Z</time></trkpt><trkpt lat="40.835695" lon="14.07799"><ele>4.0</ele><time>2026-04-15T17:40:25.308Z</time></trkpt><trkpt lat="40.83575" lon="14.0781067"><ele>4.0</ele><time>2026-04-15T17:40:27.309Z</time></trkpt><trkpt lat="40.8358017" lon="14.0782267"><ele>4.0</ele><time>2026-04-15T17:40:29.308Z</time></trkpt><trkpt lat="40.8358533" lon="14.0783333"><ele>4.0</ele><time>2026-04-15T17:40:31.308Z</time></trkpt><trkpt lat="40.8359017" lon="14.0784317"><ele>4.0</ele><time>2026-04-15T17:40:33.308Z</time></trkpt><trkpt lat="40.8359517" lon="14.0785283"><ele>4.0</ele><time>2026-04-15T17:40:35.308Z</time></trkpt><trkpt lat="40.8360017" lon="14.0786167"><ele>4.166666666666666</ele><time>2026-04-15T17:40:37.307Z</time></trkpt><trkpt lat="40.8360467" lon="14.0786983"><ele>4.333333333333333</ele><time>2026-04-15T17:40:39.308Z</time></trkpt><trkpt lat="40.8360783" lon="14.0787783"><ele>4.5</ele><time>2026-04-15T17:40:42.311Z</time></trkpt><trkpt lat="40.83609" lon="14.0788717"><ele>4.666666666666667</ele><time>2026-04-15T17:42:08.307Z</time></trkpt><trkpt lat="40.8360783" lon="14.07899"><ele>4.833333333333334</ele><time>2026-04-15T17:42:11.306Z</time></trkpt><trkpt lat="40.8360133" lon="14.0790817"><ele>5.0</ele><time>2026-04-15T17:42:14.306Z</time></trkpt><trkpt lat="40.8359467" lon="14.07913"><ele>5.0</ele><time>2026-04-15T17:42:16.306Z</time></trkpt><trkpt lat="40.835885" lon="14.0791783"><ele>5.0</ele><time>2026-04-15T17:42:18.306Z</time></trkpt><trkpt lat="40.8358217" lon="14.0792283"><ele>5.0</ele><time>2026-04-15T17:42:20.309Z</time></trkpt><trkpt lat="40.83575" lon="14.07927"><ele>5.0</ele><time>2026-04-15T17:42:22.309Z</time></trkpt><trkpt lat="40.8356767" lon="14.0793017"><ele>5.0</ele><time>2026-04-15T17:42:24.307Z</time></trkpt><trkpt lat="40.835605" lon="14.0793567"><ele>5.0</ele><time>2026-04-15T17:42:26.309Z</time></trkpt><trkpt lat="40.8355217" lon="14.0794117"><ele>5.0</ele><time>2026-04-15T17:42:28.306Z</time></trkpt><trkpt lat="40.8354367" lon="14.07945"><ele>5.0</ele><time>2026-04-15T17:42:30.309Z</time></trkpt><trkpt lat="40.8353517" lon="14.0794883"><ele>5.0</ele><time>2026-04-15T17:42:32.307Z</time></trkpt><trkpt lat="40.83527" lon="14.0795233"><ele>5.0</ele><time>2026-04-15T17:42:34.308Z</time></trkpt><trkpt lat="40.8351817" lon="14.0795583"><ele>5.0</ele><time>2026-04-15T17:42:36.31Z</time></trkpt><trkpt lat="40.835095" lon="14.0795917"><ele>5.0</ele><time>2026-04-15T17:42:38.309Z</time></trkpt><trkpt lat="40.83501" lon="14.0796367"><ele>6.6</ele><time>2026-04-15T17:42:40.31Z</time></trkpt><trkpt lat="40.8349133" lon="14.0796883"><ele>8.2</ele><time>2026-04-15T17:42:42.308Z</time></trkpt><trkpt lat="40.8348167" lon="14.079735"><ele>9.8</ele><time>2026-04-15T17:42:44.308Z</time></trkpt><trkpt lat="40.8347283" lon="14.0797833"><ele>11.4</ele><time>2026-04-15T17:42:46.309Z</time></trkpt><trkpt lat="40.8346333" lon="14.0798317"><ele>13.0</ele><time>2026-04-15T17:42:48.31Z</time></trkpt><trkpt lat="40.8345283" lon="14.0798817"><ele>13.0</ele><time>2026-04-15T17:42:50.306Z</time></trkpt><trkpt lat="40.8344333" lon="14.07993"><ele>13.0</ele><time>2026-04-15T17:42:52.31Z</time></trkpt><trkpt lat="40.834335" lon="14.07998"><ele>13.0</ele><time>2026-04-15T17:42:54.307Z</time></trkpt><trkpt lat="40.8342383" lon="14.08003"><ele>13.0</ele><time>2026-04-15T17:42:56.31Z</time></trkpt><trkpt lat="40.8341417" lon="14.0800783"><ele>13.0</ele><time>2026-04-15T17:42:58.308Z</time></trkpt><trkpt lat="40.83405" lon="14.0801317"><ele>11.8</ele><time>2026-04-15T17:43:00.307Z</time></trkpt><trkpt lat="40.833955" lon="14.0801783"><ele>10.600000000000001</ele><time>2026-04-15T17:43:02.31Z</time></trkpt><trkpt lat="40.8338617" lon="14.0802283"><ele>9.399999999999999</ele><time>2026-04-15T17:43:04.309Z</time></trkpt><trkpt lat="40.83376" lon="14.0802717"><ele>8.2</ele><time>2026-04-15T17:43:06.308Z</time></trkpt><trkpt lat="40.8336633" lon="14.0803183"><ele>7.0</ele><time>2026-04-15T17:43:08.306Z</time></trkpt><trkpt lat="40.8335633" lon="14.0803583"><ele>6.3999999999999995</ele><time>2026-04-15T17:43:10.305Z</time></trkpt><trkpt lat="40.8334683" lon="14.0804083"><ele>5.799999999999999</ele><time>2026-04-15T17:43:12.307Z</time></trkpt><trkpt lat="40.83337" lon="14.08046"><ele>5.2</ele><time>2026-04-15T17:43:14.306Z</time></trkpt><trkpt lat="40.8332617" lon="14.0805083"><ele>4.6</ele><time>2026-04-15T17:43:16.309Z</time></trkpt><trkpt lat="40.8331567" lon="14.0805583"><ele>4.0</ele><time>2026-04-15T17:43:18.309Z</time></trkpt><trkpt lat="40.83306" lon="14.08061"><ele>4.0</ele><time>2026-04-15T17:43:20.31Z</time></trkpt><trkpt lat="40.83296" lon="14.08067"><ele>4.0</ele><time>2026-04-15T17:43:22.308Z</time></trkpt><trkpt lat="40.8328583" lon="14.08072"><ele>4.0</ele><time>2026-04-15T17:43:24.307Z</time></trkpt><trkpt lat="40.83276" lon="14.0807683"><ele>4.0</ele><time>2026-04-15T17:43:26.306Z</time></trkpt><trkpt lat="40.8326567" lon="14.08081"><ele>4.0</ele><time>2026-04-15T17:43:28.305Z</time></trkpt><trkpt lat="40.8325583" lon="14.08086"><ele>4.4</ele><time>2026-04-15T17:43:30.31Z</time></trkpt><trkpt lat="40.8324667" lon="14.0809133"><ele>4.800000000000001</ele><time>2026-04-15T17:43:32.305Z</time></trkpt><trkpt lat="40.8323667" lon="14.080965"><ele>5.199999999999999</ele><time>2026-04-15T17:43:34.309Z</time></trkpt><trkpt lat="40.8322583" lon="14.0810267"><ele>5.6</ele><time>2026-04-15T17:43:36.309Z</time></trkpt><trkpt lat="40.832155" lon="14.08109"><ele>6.0</ele><time>2026-04-15T17:43:38.308Z</time></trkpt><trkpt lat="40.832045" lon="14.0811417"><ele>6.0</ele><time>2026-04-15T17:43:40.309Z</time></trkpt><trkpt lat="40.8319783" lon="14.0811667"><ele>6.0</ele><time>2026-04-15T17:43:41.306Z</time></trkpt><trkpt lat="40.8318583" lon="14.0812183"><ele>6.0</ele><time>2026-04-15T17:43:43.306Z</time></trkpt><trkpt lat="40.831745" lon="14.0812767"><ele>6.0</ele><time>2026-04-15T17:43:45.309Z</time></trkpt><trkpt lat="40.8316367" lon="14.0813383"><ele>6.0</ele><time>2026-04-15T17:43:47.31Z</time></trkpt><trkpt lat="40.8315233" lon="14.0814"><ele>6.0</ele><time>2026-04-15T17:43:49.31Z</time></trkpt><trkpt lat="40.8314133" lon="14.08146"><ele>6.0</ele><time>2026-04-15T17:43:51.309Z</time></trkpt><trkpt lat="40.8313067" lon="14.0815167"><ele>6.0</ele><time>2026-04-15T17:43:53.306Z</time></trkpt><trkpt lat="40.8312" lon="14.0815833"><ele>6.0</ele><time>2026-04-15T17:43:55.31Z</time></trkpt><trkpt lat="40.831145" lon="14.081625"><ele>6.0</ele><time>2026-04-15T17:43:56.308Z</time></trkpt><trkpt lat="40.8310417" lon="14.0817033"><ele>6.0</ele><time>2026-04-15T17:43:58.305Z</time></trkpt><trkpt lat="40.8309467" lon="14.0817867"><ele>6.0</ele><time>2026-04-15T17:44:00.308Z</time></trkpt><trkpt lat="40.8308583" lon="14.08188"><ele>6.0</ele><time>2026-04-15T17:44:02.308Z</time></trkpt><trkpt lat="40.8307783" lon="14.0819683"><ele>6.0</ele><time>2026-04-15T17:44:04.31Z</time></trkpt><trkpt lat="40.8306983" lon="14.0820617"><ele>6.0</ele><time>2026-04-15T17:44:06.306Z</time></trkpt><trkpt lat="40.830625" lon="14.0821567"><ele>6.0</ele><time>2026-04-15T17:44:08.308Z</time></trkpt><trkpt lat="40.8305483" lon="14.0821967"><ele>6.0</ele><time>2026-04-15T17:44:10.307Z</time></trkpt><trkpt lat="40.8304833" lon="14.0821267"><ele>6.0</ele><time>2026-04-15T17:44:12.308Z</time></trkpt><trkpt lat="40.8304583" lon="14.0820067"><ele>6.0</ele><time>2026-04-15T17:44:14.308Z</time></trkpt><trkpt lat="40.8304567" lon="14.0818683"><ele>6.0</ele><time>2026-04-15T17:44:16.308Z</time></trkpt><trkpt lat="40.83044" lon="14.0817333"><ele>5.6</ele><time>2026-04-15T17:44:18.307Z</time></trkpt><trkpt lat="40.8304283" lon="14.0815933"><ele>5.199999999999999</ele><time>2026-04-15T17:44:20.307Z</time></trkpt><trkpt lat="40.8304183" lon="14.081445"><ele>4.800000000000001</ele><time>2026-04-15T17:44:22.306Z</time></trkpt><trkpt lat="40.830405" lon="14.0812983"><ele>4.4</ele><time>2026-04-15T17:44:24.31Z</time></trkpt><trkpt lat="40.8303883" lon="14.0811533"><ele>4.0</ele><time>2026-04-15T17:44:26.307Z</time></trkpt><trkpt lat="40.830375" lon="14.0810017"><ele>4.0</ele><time>2026-04-15T17:44:28.308Z</time></trkpt><trkpt lat="40.83036" lon="14.0808533"><ele>4.0</ele><time>2026-04-15T17:44:30.309Z</time></trkpt><trkpt lat="40.83035" lon="14.0807083"><ele>4.0</ele><time>2026-04-15T17:44:32.308Z</time></trkpt><trkpt lat="40.8303333" lon="14.080565"><ele>4.0</ele><time>2026-04-15T17:44:34.306Z</time></trkpt><trkpt lat="40.8303183" lon="14.0804217"><ele>4.0</ele><time>2026-04-15T17:44:36.306Z</time></trkpt><trkpt lat="40.8303017" lon="14.080275"><ele>3.8000000000000003</ele><time>2026-04-15T17:44:38.31Z</time></trkpt><trkpt lat="40.83029" lon="14.0801367"><ele>3.6000000000000005</ele><time>2026-04-15T17:44:40.306Z</time></trkpt><trkpt lat="40.830275" lon="14.079995"><ele>3.4</ele><time>2026-04-15T17:44:42.308Z</time></trkpt><trkpt lat="40.8302583" lon="14.079855"><ele>3.2</ele><time>2026-04-15T17:44:44.308Z</time></trkpt><trkpt lat="40.8302433" lon="14.07971"><ele>3.0</ele><time>2026-04-15T17:44:46.309Z</time></trkpt><trkpt lat="40.8302267" lon="14.0795683"><ele>2.8</ele><time>2026-04-15T17:44:48.308Z</time></trkpt><trkpt lat="40.8302133" lon="14.079425"><ele>2.5999999999999996</ele><time>2026-04-15T17:44:50.31Z</time></trkpt><trkpt lat="40.8301967" lon="14.0792783"><ele>2.4000000000000004</ele><time>2026-04-15T17:44:52.308Z</time></trkpt><trkpt lat="40.83018" lon="14.0791267"><ele>2.2</ele><time>2026-04-15T17:44:54.306Z</time></trkpt><trkpt lat="40.830165" lon="14.07898"><ele>2.0</ele><time>2026-04-15T17:44:56.308Z</time></trkpt><trkpt lat="40.8301533" lon="14.0788333"><ele>2.0</ele><time>2026-04-15T17:44:58.308Z</time></trkpt><trkpt lat="40.8301467" lon="14.078685"><ele>2.0</ele><time>2026-04-15T17:45:00.309Z</time></trkpt><trkpt lat="40.83014" lon="14.0785483"><ele>2.0</ele><time>2026-04-15T17:45:02.31Z</time></trkpt><trkpt lat="40.8301367" lon="14.0784167"><ele>2.0</ele><time>2026-04-15T17:45:04.309Z</time></trkpt><trkpt lat="40.8301467" lon="14.0783117"><ele>2.0</ele><time>2026-04-15T17:45:06.307Z</time></trkpt><trkpt lat="40.8301633" lon="14.078395"><ele>1.9999999999999998</ele><time>2026-04-15T17:45:13.309Z</time></trkpt><trkpt lat="40.830105" lon="14.0784583"><ele>2.0</ele><time>2026-04-15T17:46:37.308Z</time></trkpt><trkpt lat="40.83011" lon="14.07855"><ele>2.0</ele><time>2026-04-15T17:46:40.306Z</time></trkpt><trkpt lat="40.8301217" lon="14.0784483"><ele>2.0</ele><time>2026-04-15T17:48:33.304Z</time></trkpt><trkpt lat="40.8301267" lon="14.0783217"><ele>1.9999999999999998</ele><time>2026-04-15T17:48:36.306Z</time></trkpt><trkpt lat="40.830125" lon="14.0782183"><ele>2.0</ele><time>2026-04-15T17:48:38.308Z</time></trkpt><trkpt lat="40.8301267" lon="14.0781217"><ele>1.9999999999999998</ele><time>2026-04-15T17:48:40.307Z</time></trkpt><trkpt lat="40.830125" lon="14.078025"><ele>2.0</ele><time>2026-04-15T17:48:42.307Z</time></trkpt><trkpt lat="40.83013" lon="14.07791"><ele>2.0</ele><time>2026-04-15T17:48:45.305Z</time></trkpt><trkpt lat="40.8300783" lon="14.0778383"><ele>2.0</ele><time>2026-04-15T17:48:48.308Z</time></trkpt><trkpt lat="40.83002" lon="14.0777683"><ele>1.9999999999999998</ele><time>2026-04-15T17:48:50.308Z</time></trkpt><trkpt lat="40.829965" lon="14.077685"><ele>2.0</ele><time>2026-04-15T17:48:52.307Z</time></trkpt><trkpt lat="40.8299117" lon="14.077605"><ele>2.0</ele><time>2026-04-15T17:48:54.309Z</time></trkpt><trkpt lat="40.8298433" lon="14.0775367"><ele>2.0</ele><time>2026-04-15T17:48:56.308Z</time></trkpt><trkpt lat="40.8297733" lon="14.0774617"><ele>2.0</ele><time>2026-04-15T17:48:58.305Z</time></trkpt><trkpt lat="40.8297017" lon="14.0773783"><ele>2.0</ele><time>2026-04-15T17:49:00.308Z</time></trkpt><trkpt lat="40.8296283" lon="14.0772967"><ele>2.0</ele><time>2026-04-15T17:49:02.308Z</time></trkpt><trkpt lat="40.8295633" lon="14.0772067"><ele>2.0</ele><time>2026-04-15T17:49:04.309Z</time></trkpt><trkpt lat="40.82949" lon="14.0771133"><ele>2.0</ele><time>2026-04-15T17:49:06.308Z</time></trkpt><trkpt lat="40.8294167" lon="14.0770167"><ele>2.0</ele><time>2026-04-15T17:49:08.309Z</time></trkpt><trkpt lat="40.8293317" lon="14.07694"><ele>2.0</ele><time>2026-04-15T17:49:10.306Z</time></trkpt><trkpt lat="40.829235" lon="14.07688"><ele>2.0</ele><time>2026-04-15T17:49:12.31Z</time></trkpt><trkpt lat="40.8291417" lon="14.0768333"><ele>2.1666666666666665</ele><time>2026-04-15T17:49:14.31Z</time></trkpt><trkpt lat="40.8290583" lon="14.07681"><ele>2.333333333333333</ele><time>2026-04-15T17:49:16.308Z</time></trkpt><trkpt lat="40.82897" lon="14.0768367"><ele>2.5</ele><time>2026-04-15T17:50:27.304Z</time></trkpt><trkpt lat="40.8288917" lon="14.0768617"><ele>2.6666666666666665</ele><time>2026-04-15T17:50:29.304Z</time></trkpt><trkpt lat="40.828805" lon="14.0768883"><ele>2.8333333333333335</ele><time>2026-04-15T17:50:31.304Z</time></trkpt><trkpt lat="40.8287133" lon="14.076915"><ele>3.0</ele><time>2026-04-15T17:50:33.305Z</time></trkpt><trkpt lat="40.8286133" lon="14.0769367"><ele>3.0</ele><time>2026-04-15T17:50:35.304Z</time></trkpt><trkpt lat="40.8285133" lon="14.0769633"><ele>3.0</ele><time>2026-04-15T17:50:37.308Z</time></trkpt><trkpt lat="40.8284183" lon="14.0770033"><ele>3.0</ele><time>2026-04-15T17:50:39.308Z</time></trkpt><trkpt lat="40.8283283" lon="14.0770683"><ele>3.0</ele><time>2026-04-15T17:50:41.308Z</time></trkpt><trkpt lat="40.8282617" lon="14.0771683"><ele>3.0</ele><time>2026-04-15T17:50:43.307Z</time></trkpt><trkpt lat="40.82821" lon="14.0772933"><ele>3.0</ele><time>2026-04-15T17:50:45.304Z</time></trkpt><trkpt lat="40.8281683" lon="14.0774233"><ele>3.0</ele><time>2026-04-15T17:50:47.305Z</time></trkpt><trkpt lat="40.8281233" lon="14.07756"><ele>3.0</ele><time>2026-04-15T17:50:49.305Z</time></trkpt><trkpt lat="40.8280833" lon="14.0776983"><ele>3.0</ele><time>2026-04-15T17:50:51.308Z</time></trkpt><trkpt lat="40.8280467" lon="14.07784"><ele>3.0</ele><time>2026-04-15T17:50:53.304Z</time></trkpt><trkpt lat="40.8280033" lon="14.0779767"><ele>3.0</ele><time>2026-04-15T17:50:55.305Z</time></trkpt><trkpt lat="40.8279483" lon="14.07812"><ele>3.0</ele><time>2026-04-15T17:50:57.304Z</time></trkpt><trkpt lat="40.827915" lon="14.0781917"><ele>3.0</ele><time>2026-04-15T17:50:58.308Z</time></trkpt><trkpt lat="40.8278367" lon="14.078315"><ele>3.0</ele><time>2026-04-15T17:51:00.305Z</time></trkpt><trkpt lat="40.8277867" lon="14.0783683"><ele>3.0</ele><time>2026-04-15T17:51:01.307Z</time></trkpt><trkpt lat="40.8276867" lon="14.07846"><ele>2.8</ele><time>2026-04-15T17:51:03.304Z</time></trkpt><trkpt lat="40.827635" lon="14.0785083"><ele>2.5999999999999996</ele><time>2026-04-15T17:51:04.304Z</time></trkpt><trkpt lat="40.82754" lon="14.078595"><ele>2.4000000000000004</ele><time>2026-04-15T17:51:06.304Z</time></trkpt><trkpt lat="40.8274483" lon="14.0786867"><ele>2.2</ele><time>2026-04-15T17:51:08.308Z</time></trkpt><trkpt lat="40.8273483" lon="14.0787133"><ele>2.0</ele><time>2026-04-15T17:51:10.308Z</time></trkpt><trkpt lat="40.827265" lon="14.0786483"><ele>2.0</ele><time>2026-04-15T17:51:12.304Z</time></trkpt><trkpt lat="40.8272067" lon="14.0785483"><ele>2.0</ele><time>2026-04-15T17:51:14.308Z</time></trkpt><trkpt lat="40.8271333" lon="14.078435"><ele>2.0</ele><time>2026-04-15T17:51:16.306Z</time></trkpt><trkpt lat="40.827055" lon="14.0783083"><ele>2.0</ele><time>2026-04-15T17:51:18.304Z</time></trkpt><trkpt lat="40.82698" lon="14.0781683"><ele>1.9999999999999998</ele><time>2026-04-15T17:51:20.306Z</time></trkpt><trkpt lat="40.8269433" lon="14.0780933"><ele>2.0</ele><time>2026-04-15T17:51:21.305Z</time></trkpt><trkpt lat="40.8269033" lon="14.0780233"><ele>2.0</ele><time>2026-04-15T17:51:22.305Z</time></trkpt><trkpt lat="40.8268633" lon="14.077955"><ele>2.0</ele><time>2026-04-15T17:51:23.303Z</time></trkpt><trkpt lat="40.82679" lon="14.0778267"><ele>1.9999999999999998</ele><time>2026-04-15T17:51:25.305Z</time></trkpt><trkpt lat="40.82673" lon="14.0777017"><ele>2.0</ele><time>2026-04-15T17:51:27.305Z</time></trkpt><trkpt lat="40.82667" lon="14.077595"><ele>1.9999999999999998</ele><time>2026-04-15T17:51:29.308Z</time></trkpt><trkpt lat="40.8266217" lon="14.0775033"><ele>2.0</ele><time>2026-04-15T17:51:31.308Z</time></trkpt><trkpt lat="40.82658" lon="14.077425"><ele>2.0</ele><time>2026-04-15T17:51:33.305Z</time></trkpt><trkpt lat="40.826535" lon="14.0773367"><ele>2.0</ele><time>2026-04-15T17:51:35.305Z</time></trkpt><trkpt lat="40.826485" lon="14.0772433"><ele>1.9999999999999998</ele><time>2026-04-15T17:51:37.304Z</time></trkpt><trkpt lat="40.8264283" lon="14.0771583"><ele>2.0</ele><time>2026-04-15T17:51:39.304Z</time></trkpt><trkpt lat="40.8263717" lon="14.0770833"><ele>2.5</ele><time>2026-04-15T17:51:41.308Z</time></trkpt><trkpt lat="40.826315" lon="14.0770167"><ele>3.0</ele><time>2026-04-15T17:51:43.305Z</time></trkpt><trkpt lat="40.8262583" lon="14.076955"><ele>3.5</ele><time>2026-04-15T17:51:45.308Z</time></trkpt><trkpt lat="40.8261983" lon="14.0769"><ele>4.0</ele><time>2026-04-15T17:51:47.307Z</time></trkpt><trkpt lat="40.8261383" lon="14.076845"><ele>4.5</ele><time>2026-04-15T17:51:49.304Z</time></trkpt><trkpt lat="40.82607" lon="14.07679"><ele>5.0</ele><time>2026-04-15T17:51:51.305Z</time></trkpt><trkpt lat="40.8260033" lon="14.0767417"><ele>7.0</ele><time>2026-04-15T17:51:53.305Z</time></trkpt><trkpt lat="40.8259467" lon="14.076685"><ele>9.0</ele><time>2026-04-15T17:51:55.305Z</time></trkpt><trkpt lat="40.8259483" lon="14.076575"><ele>11.0</ele><time>2026-04-15T17:51:58.304Z</time></trkpt><trkpt lat="40.8259933" lon="14.0765117"><ele>13.0</ele><time>2026-04-15T17:52:01.304Z</time></trkpt><trkpt lat="40.8260583" lon="14.0764567"><ele>15.000000000000002</ele><time>2026-04-15T17:52:05.304Z</time></trkpt><trkpt lat="40.8261167" lon="14.0764117"><ele>17.0</ele><time>2026-04-15T17:52:09.305Z</time></trkpt><trkpt lat="40.8261783" lon="14.0763633"><ele>19.0</ele><time>2026-04-15T17:52:13.308Z</time></trkpt><trkpt lat="40.826225" lon="14.0763067"><ele>19.0</ele><time>2026-04-15T17:52:16.307Z</time></trkpt><trkpt lat="40.82628" lon="14.076255"><ele>19.0</ele><time>2026-04-15T17:52:20.304Z</time></trkpt><trkpt lat="40.82633" lon="14.0762"><ele>19.0</ele><time>2026-04-15T17:52:24.305Z</time></trkpt><trkpt lat="40.8263717" lon="14.07612"><ele>19.0</ele><time>2026-04-15T17:52:29.307Z</time></trkpt><trkpt lat="40.8263878" lon="14.0760391"><ele>19.0</ele><time>2026-04-15T17:52:33.357Z</time></trkpt><trkpt lat="40.826416" lon="14.0759399"><ele>19.0</ele><time>2026-04-15T17:52:38.419Z</time></trkpt><trkpt lat="40.8264552" lon="14.0758668"><ele>19.0</ele><time>2026-04-15T17:52:42.447Z</time></trkpt><trkpt lat="40.8265227" lon="14.0758137"><ele>19.0</ele><time>2026-04-15T17:52:46.279Z</time></trkpt><trkpt lat="40.826585" lon="14.0757717"><ele>19.0</ele><time>2026-04-15T17:52:49.305Z</time></trkpt><trkpt lat="40.826645" lon="14.0757217"><ele>19.0</ele><time>2026-04-15T17:52:52.303Z</time></trkpt><trkpt lat="40.82671" lon="14.07566"><ele>19.0</ele><time>2026-04-15T17:52:55.304Z</time></trkpt><trkpt lat="40.82677" lon="14.0756033"><ele>19.0</ele><time>2026-04-15T17:52:58.305Z</time></trkpt><trkpt lat="40.826835" lon="14.0755383"><ele>19.0</ele><time>2026-04-15T17:53:01.305Z</time></trkpt><trkpt lat="40.8268967" lon="14.07548"><ele>20.857142857142854</ele><time>2026-04-15T17:53:04.305Z</time></trkpt><trkpt lat="40.826955" lon="14.0754317"><ele>22.714285714285715</ele><time>2026-04-15T17:53:07.304Z</time></trkpt><trkpt lat="40.8270183" lon="14.07538"><ele>24.57142857142857</ele><time>2026-04-15T17:53:10.305Z</time></trkpt><trkpt lat="40.8270833" lon="14.0753283"><ele>26.428571428571427</ele><time>2026-04-15T17:53:13.304Z</time></trkpt><trkpt lat="40.8271467" lon="14.075275"><ele>28.285714285714285</ele><time>2026-04-15T17:53:16.303Z</time></trkpt><trkpt lat="40.82721" lon="14.075225"><ele>30.142857142857142</ele><time>2026-04-15T17:53:19.306Z</time></trkpt><trkpt lat="40.827275" lon="14.0751717"><ele>32.0</ele><time>2026-04-15T17:53:22.305Z</time></trkpt><trkpt lat="40.8273483" lon="14.0751017"><ele>31.999999999999996</ele><time>2026-04-15T17:53:25.308Z</time></trkpt><trkpt lat="40.82741" lon="14.075035"><ele>32.0</ele><time>2026-04-15T17:53:28.308Z</time></trkpt><trkpt lat="40.8274767" lon="14.0749867"><ele>32.0</ele><time>2026-04-15T17:53:31.306Z</time></trkpt><trkpt lat="40.82754" lon="14.0749467"><ele>32.0</ele><time>2026-04-15T17:53:34.308Z</time></trkpt><trkpt lat="40.8276083" lon="14.0748917"><ele>31.999999999999996</ele><time>2026-04-15T17:53:37.306Z</time></trkpt><trkpt lat="40.8276717" lon="14.07484"><ele>32.0</ele><time>2026-04-15T17:53:40.303Z</time></trkpt><trkpt lat="40.8277367" lon="14.0747867"><ele>35.714285714285715</ele><time>2026-04-15T17:53:43.307Z</time></trkpt><trkpt lat="40.827795" lon="14.074725"><ele>39.42857142857143</ele><time>2026-04-15T17:53:46.308Z</time></trkpt><trkpt lat="40.8278517" lon="14.0746783"><ele>43.142857142857146</ele><time>2026-04-15T17:53:49.306Z</time></trkpt><trkpt lat="40.8279183" lon="14.07463"><ele>46.85714285714286</ele><time>2026-04-15T17:53:52.306Z</time></trkpt><trkpt lat="40.8279817" lon="14.0745983"><ele>50.57142857142857</ele><time>2026-04-15T17:53:55.305Z</time></trkpt><trkpt lat="40.8280483" lon="14.0745583"><ele>54.28571428571429</ele><time>2026-04-15T17:53:58.303Z</time></trkpt><trkpt lat="40.8281133" lon="14.07456"><ele>58.00000000000001</ele><time>2026-04-15T17:54:01.305Z</time></trkpt><trkpt lat="40.8281867" lon="14.0745717"><ele>57.99999999999999</ele><time>2026-04-15T17:54:04.303Z</time></trkpt><trkpt lat="40.82828" lon="14.0745783"><ele>58.0</ele><time>2026-04-15T17:54:07.303Z</time></trkpt><trkpt lat="40.8283667" lon="14.0745733"><ele>58.0</ele><time>2026-04-15T17:54:10.304Z</time></trkpt><trkpt lat="40.828455" lon="14.0745817"><ele>58.0</ele><time>2026-04-15T17:54:13.305Z</time></trkpt><trkpt lat="40.8285217" lon="14.074595"><ele>57.99999999999999</ele><time>2026-04-15T17:54:15.304Z</time></trkpt><trkpt lat="40.8285883" lon="14.0746183"><ele>58.0</ele><time>2026-04-15T17:54:17.305Z</time></trkpt><trkpt lat="40.828665" lon="14.0746333"><ele>58.42857142857144</ele><time>2026-04-15T17:54:19.308Z</time></trkpt><trkpt lat="40.828735" lon="14.0746467"><ele>58.85714285714286</ele><time>2026-04-15T17:54:21.308Z</time></trkpt><trkpt lat="40.8288067" lon="14.07465"><ele>59.285714285714285</ele><time>2026-04-15T17:54:23.308Z</time></trkpt><trkpt lat="40.8288817" lon="14.07466"><ele>59.714285714285715</ele><time>2026-04-15T17:54:25.305Z</time></trkpt><trkpt lat="40.8289533" lon="14.0746683"><ele>60.14285714285714</ele><time>2026-04-15T17:54:27.305Z</time></trkpt><trkpt lat="40.82903" lon="14.07469"><ele>60.57142857142856</ele><time>2026-04-15T17:54:29.308Z</time></trkpt><trkpt lat="40.8291" lon="14.0747083"><ele>60.99999999999999</ele><time>2026-04-15T17:54:31.305Z</time></trkpt><trkpt lat="40.82917" lon="14.0747267"><ele>60.99999999999999</ele><time>2026-04-15T17:54:33.304Z</time></trkpt><trkpt lat="40.82924" lon="14.074745"><ele>61.0</ele><time>2026-04-15T17:54:35.305Z</time></trkpt><trkpt lat="40.8293067" lon="14.0747667"><ele>60.99999999999999</ele><time>2026-04-15T17:54:37.307Z</time></trkpt><trkpt lat="40.8293767" lon="14.074785"><ele>60.99999999999999</ele><time>2026-04-15T17:54:39.308Z</time></trkpt><trkpt lat="40.8294483" lon="14.07479"><ele>61.0</ele><time>2026-04-15T17:54:41.307Z</time></trkpt><trkpt lat="40.8295267" lon="14.07479"><ele>60.99999999999999</ele><time>2026-04-15T17:54:43.305Z</time></trkpt><trkpt lat="40.82961" lon="14.0747767"><ele>60.99999999999999</ele><time>2026-04-15T17:54:45.308Z</time></trkpt><trkpt lat="40.8296883" lon="14.074745"><ele>60.83333333333333</ele><time>2026-04-15T17:54:47.305Z</time></trkpt><trkpt lat="40.8297633" lon="14.074685"><ele>60.666666666666664</ele><time>2026-04-15T17:54:49.304Z</time></trkpt><trkpt lat="40.8298217" lon="14.0745933"><ele>60.5</ele><time>2026-04-15T17:54:51.308Z</time></trkpt><trkpt lat="40.8298467" lon="14.0745017"><ele>60.33333333333333</ele><time>2026-04-15T17:54:53.304Z</time></trkpt><trkpt lat="40.82986" lon="14.0744183"><ele>60.166666666666664</ele><time>2026-04-15T17:54:55.306Z</time></trkpt><trkpt lat="40.829875" lon="14.074305"><ele>60.0</ele><time>2026-04-15T17:54:58.304Z</time></trkpt><trkpt lat="40.8298933" lon="14.0742"><ele>60.666666666666664</ele><time>2026-04-15T17:55:01.304Z</time></trkpt><trkpt lat="40.8298967" lon="14.0741"><ele>61.33333333333333</ele><time>2026-04-15T17:55:04.304Z</time></trkpt><trkpt lat="40.829905" lon="14.0739883"><ele>62.0</ele><time>2026-04-15T17:55:07.304Z</time></trkpt><trkpt lat="40.8299067" lon="14.073885"><ele>62.666666666666664</ele><time>2026-04-15T17:55:10.304Z</time></trkpt><trkpt lat="40.829925" lon="14.07378"><ele>63.33333333333333</ele><time>2026-04-15T17:55:13.303Z</time></trkpt><trkpt lat="40.8299533" lon="14.0736717"><ele>64.0</ele><time>2026-04-15T17:55:16.303Z</time></trkpt><trkpt lat="40.8299817" lon="14.07358"><ele>63.99999999999999</ele><time>2026-04-15T17:55:19.304Z</time></trkpt><trkpt lat="40.8300267" lon="14.0734833"><ele>64.0</ele><time>2026-04-15T17:55:22.304Z</time></trkpt><trkpt lat="40.8300783" lon="14.0733783"><ele>64.0</ele><time>2026-04-15T17:55:25.304Z</time></trkpt><trkpt lat="40.83014" lon="14.07329"><ele>64.0</ele><time>2026-04-15T17:55:28.307Z</time></trkpt><trkpt lat="40.8301967" lon="14.0732033"><ele>63.99999999999999</ele><time>2026-04-15T17:55:31.304Z</time></trkpt><trkpt lat="40.83023" lon="14.0731283"><ele>64.0</ele><time>2026-04-15T17:55:33.304Z</time></trkpt><trkpt lat="40.83027" lon="14.0730233"><ele>64.83333333333333</ele><time>2026-04-15T17:55:36.303Z</time></trkpt><trkpt lat="40.8303267" lon="14.0729233"><ele>65.66666666666666</ele><time>2026-04-15T17:55:39.305Z</time></trkpt><trkpt lat="40.830365" lon="14.0728567"><ele>66.5</ele><time>2026-04-15T17:55:41.303Z</time></trkpt><trkpt lat="40.830415" lon="14.0727567"><ele>67.33333333333333</ele><time>2026-04-15T17:55:44.304Z</time></trkpt><trkpt lat="40.83047" lon="14.0726517"><ele>68.16666666666667</ele><time>2026-04-15T17:55:47.303Z</time></trkpt><trkpt lat="40.830515" lon="14.0725867"><ele>69.0</ele><time>2026-04-15T17:55:49.304Z</time></trkpt><trkpt lat="40.8305617" lon="14.0725167"><ele>68.42857142857143</ele><time>2026-04-15T17:55:51.304Z</time></trkpt><trkpt lat="40.8306" lon="14.0724383"><ele>67.85714285714286</ele><time>2026-04-15T17:55:53.303Z</time></trkpt><trkpt lat="40.8306383" lon="14.072365"><ele>67.28571428571429</ele><time>2026-04-15T17:55:55.303Z</time></trkpt><trkpt lat="40.83068" lon="14.0722967"><ele>66.71428571428572</ele><time>2026-04-15T17:55:57.303Z</time></trkpt><trkpt lat="40.8307183" lon="14.07222"><ele>66.14285714285714</ele><time>2026-04-15T17:55:59.305Z</time></trkpt><trkpt lat="40.8307567" lon="14.072135"><ele>65.57142857142858</ele><time>2026-04-15T17:56:01.305Z</time></trkpt><trkpt lat="40.83079" lon="14.0720517"><ele>65.0</ele><time>2026-04-15T17:56:03.303Z</time></trkpt><trkpt lat="40.8308167" lon="14.0719633"><ele>65.00000000000001</ele><time>2026-04-15T17:56:05.303Z</time></trkpt><trkpt lat="40.830835" lon="14.0718783"><ele>65.0</ele><time>2026-04-15T17:56:07.304Z</time></trkpt><trkpt lat="40.8308617" lon="14.07179"><ele>65.0</ele><time>2026-04-15T17:56:09.304Z</time></trkpt><trkpt lat="40.830885" lon="14.0717"><ele>65.0</ele><time>2026-04-15T17:56:11.304Z</time></trkpt><trkpt lat="40.83091" lon="14.0716083"><ele>65.0</ele><time>2026-04-15T17:56:13.303Z</time></trkpt><trkpt lat="40.83094" lon="14.071515"><ele>65.00000000000001</ele><time>2026-04-15T17:56:15.303Z</time></trkpt><trkpt lat="40.8309633" lon="14.0714183"><ele>65.0</ele><time>2026-04-15T17:56:17.303Z</time></trkpt><trkpt lat="40.8309983" lon="14.0713333"><ele>66.16666666666667</ele><time>2026-04-15T17:56:19.304Z</time></trkpt><trkpt lat="40.8310417" lon="14.071245"><ele>67.33333333333334</ele><time>2026-04-15T17:56:21.303Z</time></trkpt><trkpt lat="40.8310867" lon="14.071155"><ele>68.5</ele><time>2026-04-15T17:56:23.304Z</time></trkpt><trkpt lat="40.83115" lon="14.0710683"><ele>69.66666666666667</ele><time>2026-04-15T17:56:25.303Z</time></trkpt><trkpt lat="40.8311983" lon="14.07098"><ele>70.83333333333333</ele><time>2026-04-15T17:56:27.304Z</time></trkpt><trkpt lat="40.831245" lon="14.07088"><ele>72.0</ele><time>2026-04-15T17:56:29.304Z</time></trkpt><trkpt lat="40.8312967" lon="14.0707817"><ele>71.2</ele><time>2026-04-15T17:56:31.304Z</time></trkpt><trkpt lat="40.8313583" lon="14.0706883"><ele>70.4</ele><time>2026-04-15T17:56:33.304Z</time></trkpt><trkpt lat="40.8314133" lon="14.070595"><ele>69.6</ele><time>2026-04-15T17:56:35.304Z</time></trkpt><trkpt lat="40.831465" lon="14.0705017"><ele>68.8</ele><time>2026-04-15T17:56:37.304Z</time></trkpt><trkpt lat="40.831525" lon="14.0704033"><ele>68.0</ele><time>2026-04-15T17:56:39.304Z</time></trkpt><trkpt lat="40.8315767" lon="14.0702917"><ele>68.0</ele><time>2026-04-15T17:56:41.308Z</time></trkpt><trkpt lat="40.831645" lon="14.0701867"><ele>68.0</ele><time>2026-04-15T17:56:43.304Z</time></trkpt><trkpt lat="40.8317233" lon="14.0700883"><ele>68.0</ele><time>2026-04-15T17:56:45.304Z</time></trkpt><trkpt lat="40.8318" lon="14.07"><ele>68.0</ele><time>2026-04-15T17:56:47.304Z</time></trkpt><trkpt lat="40.8318733" lon="14.0699"><ele>68.0</ele><time>2026-04-15T17:56:49.303Z</time></trkpt><trkpt lat="40.8319367" lon="14.069795"><ele>69.2</ele><time>2026-04-15T17:56:51.304Z</time></trkpt><trkpt lat="40.8319933" lon="14.06968"><ele>70.4</ele><time>2026-04-15T17:56:53.304Z</time></trkpt><trkpt lat="40.8320467" lon="14.06956"><ele>71.60000000000001</ele><time>2026-04-15T17:56:55.305Z</time></trkpt><trkpt lat="40.8320983" lon="14.0694383"><ele>72.8</ele><time>2026-04-15T17:56:57.304Z</time></trkpt><trkpt lat="40.8321517" lon="14.069325"><ele>74.0</ele><time>2026-04-15T17:56:59.305Z</time></trkpt><trkpt lat="40.8322017" lon="14.0692117"><ele>73.0</ele><time>2026-04-15T17:57:01.304Z</time></trkpt><trkpt lat="40.8322533" lon="14.0690867"><ele>72.0</ele><time>2026-04-15T17:57:03.305Z</time></trkpt><trkpt lat="40.8323067" lon="14.068965"><ele>71.0</ele><time>2026-04-15T17:57:05.304Z</time></trkpt><trkpt lat="40.8323633" lon="14.0688383"><ele>70.0</ele><time>2026-04-15T17:57:07.304Z</time></trkpt><trkpt lat="40.83241" lon="14.06872"><ele>69.0</ele><time>2026-04-15T17:57:09.303Z</time></trkpt><trkpt lat="40.8324683" lon="14.0686067"><ele>69.0</ele><time>2026-04-15T17:57:11.304Z</time></trkpt><trkpt lat="40.8325183" lon="14.068495"><ele>69.0</ele><time>2026-04-15T17:57:13.304Z</time></trkpt><trkpt lat="40.8325583" lon="14.0683833"><ele>69.0</ele><time>2026-04-15T17:57:15.304Z</time></trkpt><trkpt lat="40.8326117" lon="14.0682683"><ele>69.0</ele><time>2026-04-15T17:57:17.304Z</time></trkpt><trkpt lat="40.8326717" lon="14.06815"><ele>69.0</ele><time>2026-04-15T17:57:19.304Z</time></trkpt><trkpt lat="40.8327467" lon="14.0680517"><ele>69.60000000000001</ele><time>2026-04-15T17:57:21.304Z</time></trkpt><trkpt lat="40.8328117" lon="14.0679533"><ele>70.2</ele><time>2026-04-15T17:57:23.304Z</time></trkpt><trkpt lat="40.83288" lon="14.06785"><ele>70.80000000000001</ele><time>2026-04-15T17:57:25.305Z</time></trkpt><trkpt lat="40.8329483" lon="14.067735"><ele>71.4</ele><time>2026-04-15T17:57:27.303Z</time></trkpt><trkpt lat="40.833015" lon="14.0676267"><ele>72.0</ele><time>2026-04-15T17:57:29.305Z</time></trkpt><trkpt lat="40.8330933" lon="14.0675183"><ele>70.25</ele><time>2026-04-15T17:57:31.303Z</time></trkpt><trkpt lat="40.8331767" lon="14.0674167"><ele>68.5</ele><time>2026-04-15T17:57:33.305Z</time></trkpt><trkpt lat="40.8332617" lon="14.0673167"><ele>66.75</ele><time>2026-04-15T17:57:35.303Z</time></trkpt><trkpt lat="40.833345" lon="14.0672133"><ele>65.0</ele><time>2026-04-15T17:57:37.303Z</time></trkpt><trkpt lat="40.83342" lon="14.0671"><ele>65.0</ele><time>2026-04-15T17:57:39.304Z</time></trkpt><trkpt lat="40.833465" lon="14.0670417"><ele>65.0</ele><time>2026-04-15T17:57:40.303Z</time></trkpt><trkpt lat="40.83354" lon="14.0669233"><ele>65.0</ele><time>2026-04-15T17:57:42.304Z</time></trkpt><trkpt lat="40.833595" lon="14.0668"><ele>65.0</ele><time>2026-04-15T17:57:44.305Z</time></trkpt><trkpt lat="40.8336533" lon="14.0666667"><ele>65.0</ele><time>2026-04-15T17:57:46.304Z</time></trkpt><trkpt lat="40.8337067" lon="14.0665333"><ele>66.25</ele><time>2026-04-15T17:57:48.305Z</time></trkpt><trkpt lat="40.83376" lon="14.0664017"><ele>67.5</ele><time>2026-04-15T17:57:50.305Z</time></trkpt><trkpt lat="40.8338067" lon="14.0662667"><ele>68.75</ele><time>2026-04-15T17:57:52.303Z</time></trkpt><trkpt lat="40.8338533" lon="14.0661383"><ele>70.0</ele><time>2026-04-15T17:57:54.305Z</time></trkpt><trkpt lat="40.833905" lon="14.066"><ele>70.0</ele><time>2026-04-15T17:57:56.305Z</time></trkpt><trkpt lat="40.833955" lon="14.065865"><ele>70.0</ele><time>2026-04-15T17:57:58.304Z</time></trkpt><trkpt lat="40.83402" lon="14.0657367"><ele>70.0</ele><time>2026-04-15T17:58:00.305Z</time></trkpt><trkpt lat="40.8340917" lon="14.0656167"><ele>70.0</ele><time>2026-04-15T17:58:02.305Z</time></trkpt><trkpt lat="40.83417" lon="14.0655017"><ele>69.25</ele><time>2026-04-15T17:58:04.304Z</time></trkpt><trkpt lat="40.8342567" lon="14.0653817"><ele>68.5</ele><time>2026-04-15T17:58:06.305Z</time></trkpt><trkpt lat="40.8343283" lon="14.0652733"><ele>67.75</ele><time>2026-04-15T17:58:08.305Z</time></trkpt><trkpt lat="40.8344017" lon="14.0651683"><ele>67.0</ele><time>2026-04-15T17:58:10.307Z</time></trkpt><trkpt lat="40.8344883" lon="14.0650617"><ele>67.4</ele><time>2026-04-15T17:58:12.303Z</time></trkpt><trkpt lat="40.83458" lon="14.06496"><ele>67.80000000000001</ele><time>2026-04-15T17:58:14.305Z</time></trkpt><trkpt lat="40.8346783" lon="14.0648767"><ele>68.2</ele><time>2026-04-15T17:58:16.304Z</time></trkpt><trkpt lat="40.8347783" lon="14.0648117"><ele>68.60000000000001</ele><time>2026-04-15T17:58:18.305Z</time></trkpt><trkpt lat="40.8348683" lon="14.064755"><ele>69.0</ele><time>2026-04-15T17:58:20.305Z</time></trkpt><trkpt lat="40.834965" lon="14.06472"><ele>69.0</ele><time>2026-04-15T17:58:22.303Z</time></trkpt><trkpt lat="40.8350617" lon="14.064705"><ele>69.0</ele><time>2026-04-15T17:58:24.304Z</time></trkpt><trkpt lat="40.835155" lon="14.0646933"><ele>69.0</ele><time>2026-04-15T17:58:26.305Z</time></trkpt><trkpt lat="40.8352567" lon="14.0646767"><ele>69.0</ele><time>2026-04-15T17:58:28.304Z</time></trkpt><trkpt lat="40.83535" lon="14.0646533"><ele>69.0</ele><time>2026-04-15T17:58:30.305Z</time></trkpt><trkpt lat="40.83545" lon="14.06462"><ele>69.8</ele><time>2026-04-15T17:58:32.305Z</time></trkpt><trkpt lat="40.8355533" lon="14.06459"><ele>70.60000000000001</ele><time>2026-04-15T17:58:34.308Z</time></trkpt><trkpt lat="40.8356483" lon="14.0645617"><ele>71.4</ele><time>2026-04-15T17:58:36.304Z</time></trkpt><trkpt lat="40.83574" lon="14.0645333"><ele>72.2</ele><time>2026-04-15T17:58:38.305Z</time></trkpt><trkpt lat="40.83583" lon="14.0645117"><ele>73.0</ele><time>2026-04-15T17:58:40.305Z</time></trkpt><trkpt lat="40.8359267" lon="14.0644917"><ele>73.8</ele><time>2026-04-15T17:58:42.308Z</time></trkpt><trkpt lat="40.8360383" lon="14.0644667"><ele>74.6</ele><time>2026-04-15T17:58:44.303Z</time></trkpt><trkpt lat="40.8361417" lon="14.0644433"><ele>75.4</ele><time>2026-04-15T17:58:46.305Z</time></trkpt><trkpt lat="40.8362483" lon="14.064415"><ele>76.2</ele><time>2026-04-15T17:58:48.305Z</time></trkpt><trkpt lat="40.8363583" lon="14.06439"><ele>77.0</ele><time>2026-04-15T17:58:50.305Z</time></trkpt><trkpt lat="40.8364467" lon="14.0643667"><ele>77.0</ele><time>2026-04-15T17:58:52.304Z</time></trkpt><trkpt lat="40.836545" lon="14.0643467"><ele>77.0</ele><time>2026-04-15T17:58:54.305Z</time></trkpt><trkpt lat="40.836645" lon="14.0643217"><ele>77.0</ele><time>2026-04-15T17:58:56.305Z</time></trkpt><trkpt lat="40.836745" lon="14.0642867"><ele>77.0</ele><time>2026-04-15T17:58:58.305Z</time></trkpt><trkpt lat="40.8368367" lon="14.064245"><ele>77.0</ele><time>2026-04-15T17:59:00.304Z</time></trkpt><trkpt lat="40.8369267" lon="14.064195"><ele>76.4</ele><time>2026-04-15T17:59:02.304Z</time></trkpt><trkpt lat="40.8370233" lon="14.0641433"><ele>75.80000000000001</ele><time>2026-04-15T17:59:04.304Z</time></trkpt><trkpt lat="40.8371183" lon="14.06409"><ele>75.2</ele><time>2026-04-15T17:59:06.304Z</time></trkpt><trkpt lat="40.8372133" lon="14.06403"><ele>74.60000000000001</ele><time>2026-04-15T17:59:08.306Z</time></trkpt><trkpt lat="40.8373067" lon="14.0639667"><ele>74.0</ele><time>2026-04-15T17:59:10.306Z</time></trkpt><trkpt lat="40.8373983" lon="14.0639067"><ele>74.0</ele><time>2026-04-15T17:59:12.305Z</time></trkpt><trkpt lat="40.8374833" lon="14.0638317"><ele>74.0</ele><time>2026-04-15T17:59:14.305Z</time></trkpt><trkpt lat="40.837575" lon="14.0637533"><ele>74.0</ele><time>2026-04-15T17:59:16.303Z</time></trkpt><trkpt lat="40.837665" lon="14.0636717"><ele>74.0</ele><time>2026-04-15T17:59:18.305Z</time></trkpt><trkpt lat="40.837755" lon="14.0635883"><ele>74.0</ele><time>2026-04-15T17:59:20.305Z</time></trkpt><trkpt lat="40.8378417" lon="14.063505"><ele>73.0</ele><time>2026-04-15T17:59:22.303Z</time></trkpt><trkpt lat="40.8379283" lon="14.0634217"><ele>72.0</ele><time>2026-04-15T17:59:24.305Z</time></trkpt><trkpt lat="40.838015" lon="14.063335"><ele>71.0</ele><time>2026-04-15T17:59:26.305Z</time></trkpt><trkpt lat="40.8381117" lon="14.06325"><ele>70.0</ele><time>2026-04-15T17:59:28.305Z</time></trkpt><trkpt lat="40.8382017" lon="14.06318"><ele>69.0</ele><time>2026-04-15T17:59:30.305Z</time></trkpt><trkpt lat="40.8382983" lon="14.0631117"><ele>69.0</ele><time>2026-04-15T17:59:32.304Z</time></trkpt><trkpt lat="40.8384" lon="14.0630567"><ele>69.0</ele><time>2026-04-15T17:59:34.305Z</time></trkpt><trkpt lat="40.838505" lon="14.0630117"><ele>69.0</ele><time>2026-04-15T17:59:36.304Z</time></trkpt><trkpt lat="40.8386083" lon="14.0629683"><ele>69.0</ele><time>2026-04-15T17:59:38.304Z</time></trkpt><trkpt lat="40.838705" lon="14.0629267"><ele>69.0</ele><time>2026-04-15T17:59:40.304Z</time></trkpt><trkpt lat="40.8387933" lon="14.0628967"><ele>70.5</ele><time>2026-04-15T17:59:42.305Z</time></trkpt><trkpt lat="40.8388833" lon="14.062875"><ele>72.0</ele><time>2026-04-15T17:59:44.305Z</time></trkpt><trkpt lat="40.83897" lon="14.062845"><ele>73.5</ele><time>2026-04-15T17:59:46.305Z</time></trkpt><trkpt lat="40.8390533" lon="14.0628167"><ele>75.0</ele><time>2026-04-15T17:59:48.305Z</time></trkpt><trkpt lat="40.8391283" lon="14.0627917"><ele>76.5</ele><time>2026-04-15T17:59:50.305Z</time></trkpt><trkpt lat="40.8392083" lon="14.0627617"><ele>78.0</ele><time>2026-04-15T17:59:52.305Z</time></trkpt><trkpt lat="40.839295" lon="14.0627383"><ele>79.0</ele><time>2026-04-15T17:59:54.305Z</time></trkpt><trkpt lat="40.8393767" lon="14.0627117"><ele>80.0</ele><time>2026-04-15T17:59:56.306Z</time></trkpt><trkpt lat="40.8394667" lon="14.0626967"><ele>81.0</ele><time>2026-04-15T17:59:58.306Z</time></trkpt><trkpt lat="40.8395533" lon="14.0626883"><ele>82.0</ele><time>2026-04-15T18:00:00.304Z</time></trkpt><trkpt lat="40.83965" lon="14.0626767"><ele>83.0</ele><time>2026-04-15T18:00:02.305Z</time></trkpt><trkpt lat="40.839745" lon="14.0626683"><ele>83.0</ele><time>2026-04-15T18:00:04.304Z</time></trkpt><trkpt lat="40.8398317" lon="14.062665"><ele>83.0</ele><time>2026-04-15T18:00:06.305Z</time></trkpt><trkpt lat="40.8399267" lon="14.0626683"><ele>83.0</ele><time>2026-04-15T18:00:08.307Z</time></trkpt><trkpt lat="40.840025" lon="14.062675"><ele>83.0</ele><time>2026-04-15T18:00:10.307Z</time></trkpt><trkpt lat="40.84012" lon="14.0626883"><ele>83.0</ele><time>2026-04-15T18:00:12.305Z</time></trkpt><trkpt lat="40.8402183" lon="14.0626967"><ele>82.80000000000001</ele><time>2026-04-15T18:00:14.304Z</time></trkpt><trkpt lat="40.8403083" lon="14.0626917"><ele>82.6</ele><time>2026-04-15T18:00:16.304Z</time></trkpt><trkpt lat="40.8404" lon="14.0626983"><ele>82.4</ele><time>2026-04-15T18:00:18.305Z</time></trkpt><trkpt lat="40.840495" lon="14.062705"><ele>82.19999999999999</ele><time>2026-04-15T18:00:20.305Z</time></trkpt><trkpt lat="40.8405933" lon="14.0627233"><ele>82.0</ele><time>2026-04-15T18:00:22.304Z</time></trkpt><trkpt lat="40.8406817" lon="14.0627483"><ele>82.0</ele><time>2026-04-15T18:00:24.309Z</time></trkpt><trkpt lat="40.8407667" lon="14.06278"><ele>82.0</ele><time>2026-04-15T18:00:26.305Z</time></trkpt><trkpt lat="40.8408483" lon="14.0628217"><ele>82.0</ele><time>2026-04-15T18:00:28.305Z</time></trkpt><trkpt lat="40.8409183" lon="14.0628633"><ele>82.0</ele><time>2026-04-15T18:00:30.308Z</time></trkpt><trkpt lat="40.8409867" lon="14.0628967"><ele>82.0</ele><time>2026-04-15T18:00:32.305Z</time></trkpt><trkpt lat="40.841045" lon="14.0629283"><ele>82.0</ele><time>2026-04-15T18:00:34.304Z</time></trkpt><trkpt lat="40.84113" lon="14.0629767"><ele>81.99999999999999</ele><time>2026-04-15T18:00:37.305Z</time></trkpt><trkpt lat="40.8411917" lon="14.0630133"><ele>82.0</ele><time>2026-04-15T18:00:39.304Z</time></trkpt><trkpt lat="40.841275" lon="14.0630567"><ele>82.0</ele><time>2026-04-15T18:00:42.304Z</time></trkpt><trkpt lat="40.8413383" lon="14.063085"><ele>82.0</ele><time>2026-04-15T18:00:44.305Z</time></trkpt><trkpt lat="40.8414033" lon="14.0631217"><ele>82.0</ele><time>2026-04-15T18:00:46.304Z</time></trkpt><trkpt lat="40.841465" lon="14.06316"><ele>81.99999999999999</ele><time>2026-04-15T18:00:48.304Z</time></trkpt><trkpt lat="40.84153" lon="14.063195"><ele>82.0</ele><time>2026-04-15T18:00:50.304Z</time></trkpt><trkpt lat="40.8415983" lon="14.0632283"><ele>82.0</ele><time>2026-04-15T18:00:52.304Z</time></trkpt><trkpt lat="40.841665" lon="14.0632733"><ele>82.0</ele><time>2026-04-15T18:00:54.305Z</time></trkpt><trkpt lat="40.8417317" lon="14.0633267"><ele>82.0</ele><time>2026-04-15T18:00:56.304Z</time></trkpt><trkpt lat="40.8418" lon="14.0633817"><ele>82.0</ele><time>2026-04-15T18:00:58.303Z</time></trkpt><trkpt lat="40.84186" lon="14.06344"><ele>82.0</ele><time>2026-04-15T18:01:00.304Z</time></trkpt><trkpt lat="40.841925" lon="14.0634983"><ele>82.0</ele><time>2026-04-15T18:01:02.303Z</time></trkpt><trkpt lat="40.8419833" lon="14.0635533"><ele>83.71428571428571</ele><time>2026-04-15T18:01:04.304Z</time></trkpt><trkpt lat="40.8420383" lon="14.06361"><ele>85.42857142857143</ele><time>2026-04-15T18:01:06.304Z</time></trkpt><trkpt lat="40.842095" lon="14.063665"><ele>87.14285714285714</ele><time>2026-04-15T18:01:08.304Z</time></trkpt><trkpt lat="40.84215" lon="14.0637317"><ele>88.85714285714286</ele><time>2026-04-15T18:01:10.303Z</time></trkpt><trkpt lat="40.8422033" lon="14.0637933"><ele>90.57142857142857</ele><time>2026-04-15T18:01:12.307Z</time></trkpt><trkpt lat="40.8422617" lon="14.0638583"><ele>92.28571428571428</ele><time>2026-04-15T18:01:14.304Z</time></trkpt><trkpt lat="40.8423283" lon="14.063925"><ele>94.0</ele><time>2026-04-15T18:01:16.304Z</time></trkpt><trkpt lat="40.8424083" lon="14.0640033"><ele>94.0</ele><time>2026-04-15T18:01:18.303Z</time></trkpt><trkpt lat="40.8424983" lon="14.0641033"><ele>94.0</ele><time>2026-04-15T18:01:20.304Z</time></trkpt><trkpt lat="40.8425417" lon="14.0641717"><ele>94.0</ele><time>2026-04-15T18:01:21.304Z</time></trkpt><trkpt lat="40.8425883" lon="14.0642317"><ele>94.0</ele><time>2026-04-15T18:01:22.303Z</time></trkpt><trkpt lat="40.842635" lon="14.0643067"><ele>94.0</ele><time>2026-04-15T18:01:23.304Z</time></trkpt><trkpt lat="40.8426783" lon="14.0643833"><ele>94.0</ele><time>2026-04-15T18:01:24.304Z</time></trkpt><trkpt lat="40.84272" lon="14.0644667"><ele>93.0</ele><time>2026-04-15T18:01:25.304Z</time></trkpt><trkpt lat="40.8427533" lon="14.06456"><ele>92.0</ele><time>2026-04-15T18:01:26.305Z</time></trkpt><trkpt lat="40.8427817" lon="14.0646633"><ele>91.0</ele><time>2026-04-15T18:01:27.304Z</time></trkpt><trkpt lat="40.842805" lon="14.0647733"><ele>90.0</ele><time>2026-04-15T18:01:28.305Z</time></trkpt><trkpt lat="40.8428183" lon="14.06489"><ele>89.0</ele><time>2026-04-15T18:01:29.303Z</time></trkpt><trkpt lat="40.842815" lon="14.06501"><ele>88.0</ele><time>2026-04-15T18:01:30.304Z</time></trkpt><trkpt lat="40.8428067" lon="14.0651367"><ele>88.0</ele><time>2026-04-15T18:01:31.304Z</time></trkpt><trkpt lat="40.8427883" lon="14.0652617"><ele>88.0</ele><time>2026-04-15T18:01:32.305Z</time></trkpt><trkpt lat="40.842765" lon="14.0653933"><ele>88.0</ele><time>2026-04-15T18:01:33.304Z</time></trkpt><trkpt lat="40.8427383" lon="14.0655233"><ele>88.0</ele><time>2026-04-15T18:01:34.303Z</time></trkpt><trkpt lat="40.842705" lon="14.0656583"><ele>88.0</ele><time>2026-04-15T18:01:35.303Z</time></trkpt><trkpt lat="40.842675" lon="14.0657983"><ele>87.4</ele><time>2026-04-15T18:01:36.304Z</time></trkpt><trkpt lat="40.8426483" lon="14.0659367"><ele>86.80000000000001</ele><time>2026-04-15T18:01:37.304Z</time></trkpt><trkpt lat="40.842625" lon="14.0660767"><ele>86.2</ele><time>2026-04-15T18:01:38.304Z</time></trkpt><trkpt lat="40.8425983" lon="14.066215"><ele>85.6</ele><time>2026-04-15T18:01:39.303Z</time></trkpt><trkpt lat="40.8425733" lon="14.0663417"><ele>85.0</ele><time>2026-04-15T18:01:40.304Z</time></trkpt><trkpt lat="40.8425433" lon="14.0664517"><ele>84.83333333333333</ele><time>2026-04-15T18:01:41.303Z</time></trkpt><trkpt lat="40.84252" lon="14.0665517"><ele>84.66666666666666</ele><time>2026-04-15T18:01:42.304Z</time></trkpt><trkpt lat="40.842505" lon="14.0666517"><ele>84.5</ele><time>2026-04-15T18:01:43.304Z</time></trkpt><trkpt lat="40.8425033" lon="14.06675"><ele>84.33333333333333</ele><time>2026-04-15T18:01:44.304Z</time></trkpt><trkpt lat="40.8425267" lon="14.0668333"><ele>84.16666666666667</ele><time>2026-04-15T18:01:45.304Z</time></trkpt><trkpt lat="40.8425767" lon="14.0669167"><ele>84.0</ele><time>2026-04-15T18:01:46.304Z</time></trkpt><trkpt lat="40.8426367" lon="14.06699"><ele>83.33333333333333</ele><time>2026-04-15T18:01:47.304Z</time></trkpt><trkpt lat="40.8426967" lon="14.0670633"><ele>82.66666666666667</ele><time>2026-04-15T18:01:48.307Z</time></trkpt><trkpt lat="40.8427617" lon="14.0671283"><ele>82.0</ele><time>2026-04-15T18:01:49.304Z</time></trkpt><trkpt lat="40.8428333" lon="14.06719"><ele>81.33333333333334</ele><time>2026-04-15T18:01:50.308Z</time></trkpt><trkpt lat="40.8429017" lon="14.0672367"><ele>80.66666666666667</ele><time>2026-04-15T18:01:51.307Z</time></trkpt><trkpt lat="40.8429717" lon="14.0672833"><ele>80.0</ele><time>2026-04-15T18:01:52.303Z</time></trkpt><trkpt lat="40.8430467" lon="14.067325"><ele>80.0</ele><time>2026-04-15T18:01:53.304Z</time></trkpt><trkpt lat="40.8431183" lon="14.067365"><ele>80.0</ele><time>2026-04-15T18:01:54.303Z</time></trkpt><trkpt lat="40.8431917" lon="14.067395"><ele>80.0</ele><time>2026-04-15T18:01:55.303Z</time></trkpt><trkpt lat="40.8432667" lon="14.0674233"><ele>80.0</ele><time>2026-04-15T18:01:56.304Z</time></trkpt><trkpt lat="40.8433467" lon="14.0674517"><ele>80.0</ele><time>2026-04-15T18:01:57.303Z</time></trkpt><trkpt lat="40.8434267" lon="14.0674817"><ele>80.0</ele><time>2026-04-15T18:01:58.303Z</time></trkpt><trkpt lat="40.8435017" lon="14.067515"><ele>79.33333333333334</ele><time>2026-04-15T18:01:59.307Z</time></trkpt><trkpt lat="40.84358" lon="14.067545"><ele>78.66666666666667</ele><time>2026-04-15T18:02:00.304Z</time></trkpt><trkpt lat="40.8436567" lon="14.067575"><ele>78.0</ele><time>2026-04-15T18:02:01.308Z</time></trkpt><trkpt lat="40.843735" lon="14.06761"><ele>77.33333333333333</ele><time>2026-04-15T18:02:02.304Z</time></trkpt><trkpt lat="40.84381" lon="14.067645"><ele>76.66666666666666</ele><time>2026-04-15T18:02:03.307Z</time></trkpt><trkpt lat="40.843885" lon="14.0676783"><ele>76.0</ele><time>2026-04-15T18:02:04.307Z</time></trkpt><trkpt lat="40.8439617" lon="14.06771"><ele>76.0</ele><time>2026-04-15T18:02:05.303Z</time></trkpt><trkpt lat="40.8440367" lon="14.06774"><ele>76.0</ele><time>2026-04-15T18:02:06.305Z</time></trkpt><trkpt lat="40.8441117" lon="14.06777"><ele>76.0</ele><time>2026-04-15T18:02:07.303Z</time></trkpt><trkpt lat="40.844185" lon="14.0678017"><ele>76.0</ele><time>2026-04-15T18:02:08.304Z</time></trkpt><trkpt lat="40.84426" lon="14.067835"><ele>76.0</ele><time>2026-04-15T18:02:09.304Z</time></trkpt><trkpt lat="40.8443333" lon="14.0678717"><ele>76.0</ele><time>2026-04-15T18:02:10.304Z</time></trkpt><trkpt lat="40.8444067" lon="14.067915"><ele>75.66666666666666</ele><time>2026-04-15T18:02:11.304Z</time></trkpt><trkpt lat="40.844475" lon="14.0679583"><ele>75.33333333333333</ele><time>2026-04-15T18:02:12.304Z</time></trkpt><trkpt lat="40.8445383" lon="14.06801"><ele>75.0</ele><time>2026-04-15T18:02:13.304Z</time></trkpt><trkpt lat="40.8445983" lon="14.06807"><ele>74.66666666666667</ele><time>2026-04-15T18:02:14.305Z</time></trkpt><trkpt lat="40.844655" lon="14.0681417"><ele>74.33333333333334</ele><time>2026-04-15T18:02:15.304Z</time></trkpt><trkpt lat="40.8447083" lon="14.0682183"><ele>74.0</ele><time>2026-04-15T18:02:16.304Z</time></trkpt><trkpt lat="40.8447567" lon="14.068305"><ele>73.33333333333334</ele><time>2026-04-15T18:02:17.305Z</time></trkpt><trkpt lat="40.8448017" lon="14.0683967"><ele>72.66666666666667</ele><time>2026-04-15T18:02:18.304Z</time></trkpt><trkpt lat="40.84484" lon="14.06849"><ele>72.0</ele><time>2026-04-15T18:02:19.303Z</time></trkpt><trkpt lat="40.8448717" lon="14.068585"><ele>71.33333333333333</ele><time>2026-04-15T18:02:20.305Z</time></trkpt><trkpt lat="40.844895" lon="14.068685"><ele>70.66666666666666</ele><time>2026-04-15T18:02:21.304Z</time></trkpt><trkpt lat="40.8449117" lon="14.0687883"><ele>70.0</ele><time>2026-04-15T18:02:22.304Z</time></trkpt><trkpt lat="40.8449233" lon="14.0688933"><ele>70.0</ele><time>2026-04-15T18:02:23.304Z</time></trkpt><trkpt lat="40.84493" lon="14.068995"><ele>70.0</ele><time>2026-04-15T18:02:24.304Z</time></trkpt><trkpt lat="40.8449333" lon="14.069095"><ele>70.0</ele><time>2026-04-15T18:02:25.304Z</time></trkpt><trkpt lat="40.8449383" lon="14.069195"><ele>70.0</ele><time>2026-04-15T18:02:26.305Z</time></trkpt><trkpt lat="40.84494" lon="14.069295"><ele>70.0</ele><time>2026-04-15T18:02:27.304Z</time></trkpt><trkpt lat="40.844945" lon="14.0693917"><ele>70.0</ele><time>2026-04-15T18:02:28.304Z</time></trkpt><trkpt lat="40.84495" lon="14.06949"><ele>69.85714285714286</ele><time>2026-04-15T18:02:29.303Z</time></trkpt><trkpt lat="40.8449533" lon="14.0695833"><ele>69.71428571428572</ele><time>2026-04-15T18:02:30.308Z</time></trkpt><trkpt lat="40.8449567" lon="14.0696817"><ele>69.57142857142857</ele><time>2026-04-15T18:02:31.303Z</time></trkpt><trkpt lat="40.8449617" lon="14.0697733"><ele>69.42857142857143</ele><time>2026-04-15T18:02:32.304Z</time></trkpt><trkpt lat="40.8449683" lon="14.0698667"><ele>69.28571428571429</ele><time>2026-04-15T18:02:33.305Z</time></trkpt><trkpt lat="40.8449733" lon="14.0699533"><ele>69.14285714285714</ele><time>2026-04-15T18:02:34.304Z</time></trkpt><trkpt lat="40.8449783" lon="14.0700383"><ele>69.0</ele><time>2026-04-15T18:02:35.303Z</time></trkpt><trkpt lat="40.8449833" lon="14.070125"><ele>69.0</ele><time>2026-04-15T18:02:36.304Z</time></trkpt><trkpt lat="40.84499" lon="14.07021"><ele>69.0</ele><time>2026-04-15T18:02:37.303Z</time></trkpt><trkpt lat="40.8449933" lon="14.070295"><ele>69.0</ele><time>2026-04-15T18:02:38.305Z</time></trkpt><trkpt lat="40.8449917" lon="14.0703833"><ele>69.0</ele><time>2026-04-15T18:02:39.304Z</time></trkpt><trkpt lat="40.8449967" lon="14.0704683"><ele>69.0</ele><time>2026-04-15T18:02:40.304Z</time></trkpt><trkpt lat="40.8449983" lon="14.0705517"><ele>69.0</ele><time>2026-04-15T18:02:41.304Z</time></trkpt><trkpt lat="40.8450017" lon="14.07064"><ele>69.0</ele><time>2026-04-15T18:02:42.305Z</time></trkpt><trkpt lat="40.8449983" lon="14.070725"><ele>69.0</ele><time>2026-04-15T18:02:43.304Z</time></trkpt><trkpt lat="40.8449983" lon="14.0708167"><ele>69.0</ele><time>2026-04-15T18:02:44.303Z</time></trkpt><trkpt lat="40.8450017" lon="14.070905"><ele>69.0</ele><time>2026-04-15T18:02:45.304Z</time></trkpt><trkpt lat="40.8450083" lon="14.0709933"><ele>69.0</ele><time>2026-04-15T18:02:46.304Z</time></trkpt><trkpt lat="40.8450133" lon="14.07108"><ele>69.0</ele><time>2026-04-15T18:02:47.303Z</time></trkpt><trkpt lat="40.8450183" lon="14.0711683"><ele>69.0</ele><time>2026-04-15T18:02:48.305Z</time></trkpt><trkpt lat="40.8450233" lon="14.0712517"><ele>69.0</ele><time>2026-04-15T18:02:49.305Z</time></trkpt><trkpt lat="40.8450267" lon="14.0713367"><ele>69.0</ele><time>2026-04-15T18:02:50.303Z</time></trkpt><trkpt lat="40.8450317" lon="14.0714283"><ele>69.0</ele><time>2026-04-15T18:02:51.304Z</time></trkpt><trkpt lat="40.8450367" lon="14.0715167"><ele>69.0</ele><time>2026-04-15T18:02:52.303Z</time></trkpt><trkpt lat="40.8450383" lon="14.071605"><ele>69.0</ele><time>2026-04-15T18:02:53.304Z</time></trkpt><trkpt lat="40.84504" lon="14.071695"><ele>69.0</ele><time>2026-04-15T18:02:54.304Z</time></trkpt><trkpt lat="40.84504" lon="14.071785"><ele>69.0</ele><time>2026-04-15T18:02:55.304Z</time></trkpt><trkpt lat="40.84504" lon="14.0718733"><ele>69.0</ele><time>2026-04-15T18:02:56.306Z</time></trkpt><trkpt lat="40.84504" lon="14.07196"><ele>68.8</ele><time>2026-04-15T18:02:57.304Z</time></trkpt><trkpt lat="40.845045" lon="14.0720483"><ele>68.60000000000001</ele><time>2026-04-15T18:02:58.305Z</time></trkpt><trkpt lat="40.84506" lon="14.0722133"><ele>68.4</ele><time>2026-04-15T18:03:00.306Z</time></trkpt><trkpt lat="40.845065" lon="14.0723017"><ele>68.2</ele><time>2026-04-15T18:03:01.305Z</time></trkpt><trkpt lat="40.84507" lon="14.07239"><ele>68.0</ele><time>2026-04-15T18:03:02.305Z</time></trkpt><trkpt lat="40.8450833" lon="14.072555"><ele>68.0</ele><time>2026-04-15T18:03:04.303Z</time></trkpt><trkpt lat="40.8450883" lon="14.0726383"><ele>68.0</ele><time>2026-04-15T18:03:05.304Z</time></trkpt><trkpt lat="40.8450983" lon="14.072805"><ele>68.0</ele><time>2026-04-15T18:03:07.304Z</time></trkpt><trkpt lat="40.8451067" lon="14.0728933"><ele>68.0</ele><time>2026-04-15T18:03:08.305Z</time></trkpt><trkpt lat="40.8451133" lon="14.0730517"><ele>68.0</ele><time>2026-04-15T18:03:10.304Z</time></trkpt><trkpt lat="40.8451167" lon="14.073215"><ele>68.25</ele><time>2026-04-15T18:03:12.303Z</time></trkpt><trkpt lat="40.845115" lon="14.073375"><ele>68.5</ele><time>2026-04-15T18:03:14.305Z</time></trkpt><trkpt lat="40.84511" lon="14.0735283"><ele>68.75</ele><time>2026-04-15T18:03:16.303Z</time></trkpt><trkpt lat="40.8450917" lon="14.07368"><ele>69.0</ele><time>2026-04-15T18:03:18.305Z</time></trkpt><trkpt lat="40.8450483" lon="14.0738267"><ele>69.0</ele><time>2026-04-15T18:03:20.305Z</time></trkpt><trkpt lat="40.8449933" lon="14.0739683"><ele>69.0</ele><time>2026-04-15T18:03:22.304Z</time></trkpt><trkpt lat="40.8449267" lon="14.0741"><ele>69.0</ele><time>2026-04-15T18:03:24.304Z</time></trkpt><trkpt lat="40.8448617" lon="14.0742233"><ele>69.0</ele><time>2026-04-15T18:03:26.304Z</time></trkpt><trkpt lat="40.8448" lon="14.07435"><ele>70.0</ele><time>2026-04-15T18:03:28.304Z</time></trkpt><trkpt lat="40.844735" lon="14.0744817"><ele>71.0</ele><time>2026-04-15T18:03:30.304Z</time></trkpt><trkpt lat="40.84468" lon="14.074615"><ele>72.0</ele><time>2026-04-15T18:03:32.305Z</time></trkpt><trkpt lat="40.8446317" lon="14.0747433"><ele>73.0</ele><time>2026-04-15T18:03:34.304Z</time></trkpt><trkpt lat="40.8445933" lon="14.0748933"><ele>73.6</ele><time>2026-04-15T18:03:36.304Z</time></trkpt><trkpt lat="40.8445683" lon="14.0750517"><ele>74.19999999999999</ele><time>2026-04-15T18:03:38.305Z</time></trkpt><trkpt lat="40.844545" lon="14.07522"><ele>74.8</ele><time>2026-04-15T18:03:40.304Z</time></trkpt><trkpt lat="40.8445333" lon="14.0753083"><ele>75.39999999999999</ele><time>2026-04-15T18:03:41.305Z</time></trkpt><trkpt lat="40.84452" lon="14.0754017"><ele>76.0</ele><time>2026-04-15T18:03:42.305Z</time></trkpt><trkpt lat="40.8445083" lon="14.0754967"><ele>76.0</ele><time>2026-04-15T18:03:43.304Z</time></trkpt><trkpt lat="40.8444933" lon="14.075595"><ele>76.0</ele><time>2026-04-15T18:03:44.304Z</time></trkpt><trkpt lat="40.8444783" lon="14.075695"><ele>76.0</ele><time>2026-04-15T18:03:45.303Z</time></trkpt><trkpt lat="40.8444667" lon="14.0758017"><ele>76.0</ele><time>2026-04-15T18:03:46.305Z</time></trkpt><trkpt lat="40.8444517" lon="14.07591"><ele>76.0</ele><time>2026-04-15T18:03:47.305Z</time></trkpt><trkpt lat="40.8444383" lon="14.07603"><ele>76.0</ele><time>2026-04-15T18:03:48.305Z</time></trkpt><trkpt lat="40.8444267" lon="14.0761467"><ele>75.8</ele><time>2026-04-15T18:03:49.305Z</time></trkpt><trkpt lat="40.8444083" lon="14.076265"><ele>75.6</ele><time>2026-04-15T18:03:50.305Z</time></trkpt><trkpt lat="40.84439" lon="14.0763833"><ele>75.4</ele><time>2026-04-15T18:03:51.303Z</time></trkpt><trkpt lat="40.8443667" lon="14.0765083"><ele>75.2</ele><time>2026-04-15T18:03:52.304Z</time></trkpt><trkpt lat="40.8443467" lon="14.0766333"><ele>75.0</ele><time>2026-04-15T18:03:53.305Z</time></trkpt><trkpt lat="40.8443233" lon="14.07676"><ele>75.6</ele><time>2026-04-15T18:03:54.305Z</time></trkpt><trkpt lat="40.8443" lon="14.0768833"><ele>76.2</ele><time>2026-04-15T18:03:55.305Z</time></trkpt><trkpt lat="40.8442767" lon="14.077005"><ele>76.8</ele><time>2026-04-15T18:03:56.305Z</time></trkpt><trkpt lat="40.844245" lon="14.0771267"><ele>77.4</ele><time>2026-04-15T18:03:57.304Z</time></trkpt><trkpt lat="40.84421" lon="14.0772483"><ele>78.0</ele><time>2026-04-15T18:03:58.304Z</time></trkpt><trkpt lat="40.8441733" lon="14.0773683"><ele>74.2</ele><time>2026-04-15T18:03:59.304Z</time></trkpt><trkpt lat="40.844135" lon="14.07749"><ele>70.4</ele><time>2026-04-15T18:04:00.304Z</time></trkpt><trkpt lat="40.8441017" lon="14.077605"><ele>66.60000000000001</ele><time>2026-04-15T18:04:01.303Z</time></trkpt><trkpt lat="40.844065" lon="14.0777217"><ele>62.800000000000004</ele><time>2026-04-15T18:04:02.304Z</time></trkpt><trkpt lat="40.8440267" lon="14.077835"><ele>59.0</ele><time>2026-04-15T18:04:03.305Z</time></trkpt><trkpt lat="40.84399" lon="14.0779533"><ele>59.0</ele><time>2026-04-15T18:04:04.305Z</time></trkpt><trkpt lat="40.843945" lon="14.07808"><ele>59.00000000000001</ele><time>2026-04-15T18:04:05.305Z</time></trkpt><trkpt lat="40.843905" lon="14.0782067"><ele>59.00000000000001</ele><time>2026-04-15T18:04:06.305Z</time></trkpt><trkpt lat="40.8438617" lon="14.078335"><ele>59.0</ele><time>2026-04-15T18:04:07.304Z</time></trkpt><trkpt lat="40.8438183" lon="14.0784667"><ele>59.0</ele><time>2026-04-15T18:04:08.304Z</time></trkpt><trkpt lat="40.8437733" lon="14.078605"><ele>60.800000000000004</ele><time>2026-04-15T18:04:09.304Z</time></trkpt><trkpt lat="40.843725" lon="14.0787433"><ele>62.60000000000001</ele><time>2026-04-15T18:04:10.305Z</time></trkpt><trkpt lat="40.843685" lon="14.07887"><ele>64.4</ele><time>2026-04-15T18:04:11.303Z</time></trkpt><trkpt lat="40.8436433" lon="14.0789967"><ele>66.2</ele><time>2026-04-15T18:04:12.305Z</time></trkpt><trkpt lat="40.8436017" lon="14.0791233"><ele>68.0</ele><time>2026-04-15T18:04:13.305Z</time></trkpt><trkpt lat="40.84356" lon="14.0792517"><ele>69.6</ele><time>2026-04-15T18:04:14.305Z</time></trkpt><trkpt lat="40.84352" lon="14.0793817"><ele>71.19999999999999</ele><time>2026-04-15T18:04:15.304Z</time></trkpt><trkpt lat="40.8434817" lon="14.0795117"><ele>72.8</ele><time>2026-04-15T18:04:16.304Z</time></trkpt><trkpt lat="40.84344" lon="14.0796417"><ele>74.39999999999999</ele><time>2026-04-15T18:04:17.305Z</time></trkpt><trkpt lat="40.8434" lon="14.0797667"><ele>76.0</ele><time>2026-04-15T18:04:18.305Z</time></trkpt><trkpt lat="40.8433617" lon="14.0798933"><ele>70.2</ele><time>2026-04-15T18:04:19.305Z</time></trkpt><trkpt lat="40.843325" lon="14.0800133"><ele>64.39999999999999</ele><time>2026-04-15T18:04:20.304Z</time></trkpt><trkpt lat="40.8432867" lon="14.0801283"><ele>58.6</ele><time>2026-04-15T18:04:21.305Z</time></trkpt><trkpt lat="40.8432517" lon="14.0802467"><ele>52.8</ele><time>2026-04-15T18:04:22.304Z</time></trkpt><trkpt lat="40.8432217" lon="14.080365"><ele>47.0</ele><time>2026-04-15T18:04:23.303Z</time></trkpt><trkpt lat="40.8431867" lon="14.0804833"><ele>47.0</ele><time>2026-04-15T18:04:24.304Z</time></trkpt><trkpt lat="40.84315" lon="14.0805983"><ele>47.0</ele><time>2026-04-15T18:04:25.305Z</time></trkpt><trkpt lat="40.8431083" lon="14.0807133"><ele>47.0</ele><time>2026-04-15T18:04:26.304Z</time></trkpt><trkpt lat="40.8430633" lon="14.0808233"><ele>47.0</ele><time>2026-04-15T18:04:27.305Z</time></trkpt><trkpt lat="40.84302" lon="14.0809333"><ele>47.0</ele><time>2026-04-15T18:04:28.305Z</time></trkpt><trkpt lat="40.84298" lon="14.08105"><ele>46.400000000000006</ele><time>2026-04-15T18:04:29.304Z</time></trkpt><trkpt lat="40.8429533" lon="14.0811733"><ele>45.800000000000004</ele><time>2026-04-15T18:04:30.304Z</time></trkpt><trkpt lat="40.84293" lon="14.0813017"><ele>45.2</ele><time>2026-04-15T18:04:31.304Z</time></trkpt><trkpt lat="40.8429133" lon="14.08144"><ele>44.6</ele><time>2026-04-15T18:04:32.305Z</time></trkpt><trkpt lat="40.8429" lon="14.0815567"><ele>44.0</ele><time>2026-04-15T18:04:33.305Z</time></trkpt><trkpt lat="40.8428783" lon="14.0816533"><ele>44.0</ele><time>2026-04-15T18:04:34.305Z</time></trkpt><trkpt lat="40.8428433" lon="14.08174"><ele>44.0</ele><time>2026-04-15T18:04:35.305Z</time></trkpt><trkpt lat="40.8428" lon="14.0818117"><ele>44.0</ele><time>2026-04-15T18:04:36.305Z</time></trkpt><trkpt lat="40.8427567" lon="14.08189"><ele>44.0</ele><time>2026-04-15T18:04:37.305Z</time></trkpt><trkpt lat="40.8427217" lon="14.0819817"><ele>44.0</ele><time>2026-04-15T18:04:38.305Z</time></trkpt><trkpt lat="40.8426833" lon="14.0820733"><ele>44.0</ele><time>2026-04-15T18:04:39.304Z</time></trkpt><trkpt lat="40.842635" lon="14.0821633"><ele>42.6</ele><time>2026-04-15T18:04:40.304Z</time></trkpt><trkpt lat="40.8425783" lon="14.0822533"><ele>41.2</ele><time>2026-04-15T18:04:41.304Z</time></trkpt><trkpt lat="40.8425167" lon="14.082345"><ele>39.800000000000004</ele><time>2026-04-15T18:04:42.305Z</time></trkpt><trkpt lat="40.8424617" lon="14.08244"><ele>38.400000000000006</ele><time>2026-04-15T18:04:43.308Z</time></trkpt><trkpt lat="40.8424083" lon="14.082535"><ele>37.0</ele><time>2026-04-15T18:04:44.305Z</time></trkpt><trkpt lat="40.8423517" lon="14.08263"><ele>37.0</ele><time>2026-04-15T18:04:45.308Z</time></trkpt><trkpt lat="40.8422983" lon="14.0827267"><ele>37.0</ele><time>2026-04-15T18:04:46.308Z</time></trkpt><trkpt lat="40.842245" lon="14.0828267"><ele>37.0</ele><time>2026-04-15T18:04:47.305Z</time></trkpt><trkpt lat="40.842195" lon="14.08293"><ele>37.0</ele><time>2026-04-15T18:04:48.305Z</time></trkpt><trkpt lat="40.842145" lon="14.08304"><ele>37.0</ele><time>2026-04-15T18:04:49.304Z</time></trkpt><trkpt lat="40.842095" lon="14.0831533"><ele>36.2</ele><time>2026-04-15T18:04:50.305Z</time></trkpt><trkpt lat="40.84205" lon="14.083265"><ele>35.400000000000006</ele><time>2026-04-15T18:04:51.304Z</time></trkpt><trkpt lat="40.8420133" lon="14.0833817"><ele>34.599999999999994</ele><time>2026-04-15T18:04:52.305Z</time></trkpt><trkpt lat="40.8419733" lon="14.0834983"><ele>33.8</ele><time>2026-04-15T18:04:53.304Z</time></trkpt><trkpt lat="40.841935" lon="14.0836233"><ele>33.0</ele><time>2026-04-15T18:04:54.305Z</time></trkpt><trkpt lat="40.8419033" lon="14.0837517"><ele>33.0</ele><time>2026-04-15T18:04:55.305Z</time></trkpt><trkpt lat="40.841875" lon="14.08388"><ele>33.0</ele><time>2026-04-15T18:04:56.305Z</time></trkpt><trkpt lat="40.8418467" lon="14.084"><ele>33.0</ele><time>2026-04-15T18:04:57.304Z</time></trkpt><trkpt lat="40.841825" lon="14.08412"><ele>33.0</ele><time>2026-04-15T18:04:58.305Z</time></trkpt><trkpt lat="40.8417883" lon="14.0842467"><ele>33.0</ele><time>2026-04-15T18:04:59.305Z</time></trkpt><trkpt lat="40.84175" lon="14.0843683"><ele>32.8</ele><time>2026-04-15T18:05:00.304Z</time></trkpt><trkpt lat="40.8417167" lon="14.0844933"><ele>32.599999999999994</ele><time>2026-04-15T18:05:01.305Z</time></trkpt><trkpt lat="40.841685" lon="14.0846183"><ele>32.400000000000006</ele><time>2026-04-15T18:05:02.305Z</time></trkpt><trkpt lat="40.8416567" lon="14.0847433"><ele>32.2</ele><time>2026-04-15T18:05:03.304Z</time></trkpt><trkpt lat="40.8416283" lon="14.0848633"><ele>32.0</ele><time>2026-04-15T18:05:04.304Z</time></trkpt><trkpt lat="40.8415983" lon="14.0849833"><ele>31.166666666666664</ele><time>2026-04-15T18:05:05.304Z</time></trkpt><trkpt lat="40.84157" lon="14.0851033"><ele>30.333333333333332</ele><time>2026-04-15T18:05:06.305Z</time></trkpt><trkpt lat="40.8415433" lon="14.0852167"><ele>29.5</ele><time>2026-04-15T18:05:07.305Z</time></trkpt><trkpt lat="40.84152" lon="14.0853283"><ele>28.666666666666664</ele><time>2026-04-15T18:05:08.305Z</time></trkpt><trkpt lat="40.8414983" lon="14.08544"><ele>27.833333333333332</ele><time>2026-04-15T18:05:09.305Z</time></trkpt><trkpt lat="40.84148" lon="14.085555"><ele>27.0</ele><time>2026-04-15T18:05:10.304Z</time></trkpt><trkpt lat="40.8414567" lon="14.0856683"><ele>26.5</ele><time>2026-04-15T18:05:11.305Z</time></trkpt><trkpt lat="40.8414333" lon="14.0857783"><ele>26.0</ele><time>2026-04-15T18:05:12.305Z</time></trkpt><trkpt lat="40.84141" lon="14.0858817"><ele>25.5</ele><time>2026-04-15T18:05:13.305Z</time></trkpt><trkpt lat="40.8413867" lon="14.0859817"><ele>25.0</ele><time>2026-04-15T18:05:14.305Z</time></trkpt><trkpt lat="40.841365" lon="14.0860833"><ele>24.5</ele><time>2026-04-15T18:05:15.305Z</time></trkpt><trkpt lat="40.8413433" lon="14.086185"><ele>24.0</ele><time>2026-04-15T18:05:16.304Z</time></trkpt><trkpt lat="40.84132" lon="14.0862867"><ele>24.0</ele><time>2026-04-15T18:05:17.305Z</time></trkpt><trkpt lat="40.8412917" lon="14.0863917"><ele>24.0</ele><time>2026-04-15T18:05:18.305Z</time></trkpt><trkpt lat="40.8412583" lon="14.0864933"><ele>24.0</ele><time>2026-04-15T18:05:19.305Z</time></trkpt><trkpt lat="40.8412233" lon="14.086595"><ele>24.0</ele><time>2026-04-15T18:05:20.304Z</time></trkpt><trkpt lat="40.8411933" lon="14.0866983"><ele>24.0</ele><time>2026-04-15T18:05:21.305Z</time></trkpt><trkpt lat="40.8411683" lon="14.086805"><ele>24.0</ele><time>2026-04-15T18:05:22.304Z</time></trkpt><trkpt lat="40.841145" lon="14.0869067"><ele>23.833333333333332</ele><time>2026-04-15T18:05:23.305Z</time></trkpt><trkpt lat="40.8411217" lon="14.08701"><ele>23.666666666666668</ele><time>2026-04-15T18:05:24.304Z</time></trkpt><trkpt lat="40.8411033" lon="14.0871117"><ele>23.5</ele><time>2026-04-15T18:05:25.305Z</time></trkpt><trkpt lat="40.8410883" lon="14.0872083"><ele>23.333333333333336</ele><time>2026-04-15T18:05:26.306Z</time></trkpt><trkpt lat="40.8410733" lon="14.0873083"><ele>23.166666666666668</ele><time>2026-04-15T18:05:27.305Z</time></trkpt><trkpt lat="40.8410533" lon="14.0874017"><ele>23.0</ele><time>2026-04-15T18:05:28.305Z</time></trkpt><trkpt lat="40.8410317" lon="14.0874983"><ele>22.833333333333336</ele><time>2026-04-15T18:05:29.305Z</time></trkpt><trkpt lat="40.8410067" lon="14.0875983"><ele>22.666666666666668</ele><time>2026-04-15T18:05:30.305Z</time></trkpt><trkpt lat="40.84098" lon="14.0876933"><ele>22.5</ele><time>2026-04-15T18:05:31.305Z</time></trkpt><trkpt lat="40.8409533" lon="14.0877883"><ele>22.333333333333332</ele><time>2026-04-15T18:05:32.305Z</time></trkpt><trkpt lat="40.8409283" lon="14.087885"><ele>22.166666666666664</ele><time>2026-04-15T18:05:33.304Z</time></trkpt><trkpt lat="40.8409067" lon="14.08798"><ele>22.0</ele><time>2026-04-15T18:05:34.304Z</time></trkpt><trkpt lat="40.8408883" lon="14.088075"><ele>22.857142857142858</ele><time>2026-04-15T18:05:35.304Z</time></trkpt><trkpt lat="40.840865" lon="14.0881733"><ele>23.714285714285715</ele><time>2026-04-15T18:05:36.305Z</time></trkpt><trkpt lat="40.8408433" lon="14.0882683"><ele>24.57142857142857</ele><time>2026-04-15T18:05:37.305Z</time></trkpt><trkpt lat="40.8408233" lon="14.0883567"><ele>25.42857142857143</ele><time>2026-04-15T18:05:38.305Z</time></trkpt><trkpt lat="40.8408" lon="14.0884467"><ele>26.285714285714285</ele><time>2026-04-15T18:05:39.305Z</time></trkpt><trkpt lat="40.8407783" lon="14.0885367"><ele>27.142857142857142</ele><time>2026-04-15T18:05:40.305Z</time></trkpt><trkpt lat="40.840755" lon="14.0886233"><ele>28.0</ele><time>2026-04-15T18:05:41.304Z</time></trkpt><trkpt lat="40.84074" lon="14.0887083"><ele>28.0</ele><time>2026-04-15T18:05:42.305Z</time></trkpt><trkpt lat="40.8407233" lon="14.08879"><ele>27.999999999999996</ele><time>2026-04-15T18:05:43.304Z</time></trkpt><trkpt lat="40.8406933" lon="14.0889417"><ele>27.999999999999996</ele><time>2026-04-15T18:05:45.305Z</time></trkpt><trkpt lat="40.840665" lon="14.0890917"><ele>28.0</ele><time>2026-04-15T18:05:47.304Z</time></trkpt><trkpt lat="40.8406333" lon="14.0892367"><ele>28.0</ele><time>2026-04-15T18:05:49.305Z</time></trkpt><trkpt lat="40.8406033" lon="14.089375"><ele>28.0</ele><time>2026-04-15T18:05:51.305Z</time></trkpt><trkpt lat="40.8405733" lon="14.0895167"><ele>27.999999999999996</ele><time>2026-04-15T18:05:53.304Z</time></trkpt><trkpt lat="40.8405483" lon="14.08965"><ele>27.999999999999996</ele><time>2026-04-15T18:05:55.305Z</time></trkpt><trkpt lat="40.840515" lon="14.0897867"><ele>28.0</ele><time>2026-04-15T18:05:57.305Z</time></trkpt><trkpt lat="40.8404717" lon="14.089925"><ele>28.0</ele><time>2026-04-15T18:05:59.308Z</time></trkpt><trkpt lat="40.840435" lon="14.0900633"><ele>28.0</ele><time>2026-04-15T18:06:01.305Z</time></trkpt><trkpt lat="40.8403983" lon="14.0902"><ele>28.0</ele><time>2026-04-15T18:06:03.305Z</time></trkpt><trkpt lat="40.8403683" lon="14.09034"><ele>28.0</ele><time>2026-04-15T18:06:05.305Z</time></trkpt><trkpt lat="40.84034" lon="14.090485"><ele>28.0</ele><time>2026-04-15T18:06:07.305Z</time></trkpt><trkpt lat="40.8403117" lon="14.0906433"><ele>28.0</ele><time>2026-04-15T18:06:09.304Z</time></trkpt><trkpt lat="40.84028" lon="14.0907983"><ele>27.999999999999996</ele><time>2026-04-15T18:06:11.305Z</time></trkpt><trkpt lat="40.8402617" lon="14.0908783"><ele>27.999999999999996</ele><time>2026-04-15T18:06:12.305Z</time></trkpt><trkpt lat="40.8402283" lon="14.091025"><ele>28.0</ele><time>2026-04-15T18:06:14.305Z</time></trkpt><trkpt lat="40.8402" lon="14.091165"><ele>28.0</ele><time>2026-04-15T18:06:16.305Z</time></trkpt><trkpt lat="40.840185" lon="14.0912867"><ele>28.0</ele><time>2026-04-15T18:06:18.305Z</time></trkpt><trkpt lat="40.84017" lon="14.0914333"><ele>27.999999999999996</ele><time>2026-04-15T18:06:20.305Z</time></trkpt><trkpt lat="40.8401417" lon="14.0915617"><ele>27.999999999999996</ele><time>2026-04-15T18:06:22.304Z</time></trkpt><trkpt lat="40.840105" lon="14.0916917"><ele>28.0</ele><time>2026-04-15T18:06:24.304Z</time></trkpt><trkpt lat="40.8400717" lon="14.0918167"><ele>28.0</ele><time>2026-04-15T18:06:26.305Z</time></trkpt><trkpt lat="40.8400467" lon="14.09194"><ele>28.799999999999997</ele><time>2026-04-15T18:06:28.302Z</time></trkpt><trkpt lat="40.8400117" lon="14.092065"><ele>29.599999999999998</ele><time>2026-04-15T18:06:30.304Z</time></trkpt><trkpt lat="40.8399683" lon="14.0921883"><ele>30.400000000000002</ele><time>2026-04-15T18:06:32.303Z</time></trkpt><trkpt lat="40.8399217" lon="14.092315"><ele>31.200000000000003</ele><time>2026-04-15T18:06:34.307Z</time></trkpt><trkpt lat="40.8398583" lon="14.0924417"><ele>32.0</ele><time>2026-04-15T18:06:36.304Z</time></trkpt><trkpt lat="40.8397967" lon="14.0925733"><ele>32.0</ele><time>2026-04-15T18:06:38.304Z</time></trkpt><trkpt lat="40.839735" lon="14.0927083"><ele>32.0</ele><time>2026-04-15T18:06:40.303Z</time></trkpt><trkpt lat="40.839665" lon="14.0928433"><ele>32.0</ele><time>2026-04-15T18:06:42.304Z</time></trkpt><trkpt lat="40.8395933" lon="14.0929733"><ele>32.0</ele><time>2026-04-15T18:06:44.303Z</time></trkpt><trkpt lat="40.8395083" lon="14.093075"><ele>32.0</ele><time>2026-04-15T18:06:46.307Z</time></trkpt><trkpt lat="40.8394133" lon="14.0931583"><ele>32.0</ele><time>2026-04-15T18:06:48.307Z</time></trkpt><trkpt lat="40.83932" lon="14.0932433"><ele>32.0</ele><time>2026-04-15T18:06:50.303Z</time></trkpt><trkpt lat="40.8392183" lon="14.0933283"><ele>32.0</ele><time>2026-04-15T18:06:52.303Z</time></trkpt><trkpt lat="40.83912" lon="14.0934117"><ele>32.2</ele><time>2026-04-15T18:06:54.304Z</time></trkpt><trkpt lat="40.8390267" lon="14.0934883"><ele>32.400000000000006</ele><time>2026-04-15T18:06:56.304Z</time></trkpt><trkpt lat="40.8389267" lon="14.093575"><ele>32.599999999999994</ele><time>2026-04-15T18:06:58.304Z</time></trkpt><trkpt lat="40.8388217" lon="14.093665"><ele>32.8</ele><time>2026-04-15T18:07:00.306Z</time></trkpt><trkpt lat="40.8387717" lon="14.0937167"><ele>33.0</ele><time>2026-04-15T18:07:01.305Z</time></trkpt><trkpt lat="40.838715" lon="14.0937667"><ele>33.0</ele><time>2026-04-15T18:07:02.305Z</time></trkpt><trkpt lat="40.8386533" lon="14.0938167"><ele>33.0</ele><time>2026-04-15T18:07:03.305Z</time></trkpt><trkpt lat="40.8386033" lon="14.0938817"><ele>33.0</ele><time>2026-04-15T18:07:04.306Z</time></trkpt><trkpt lat="40.8385567" lon="14.0939517"><ele>33.0</ele><time>2026-04-15T18:07:05.305Z</time></trkpt><trkpt lat="40.8385083" lon="14.0940283"><ele>33.0</ele><time>2026-04-15T18:07:06.305Z</time></trkpt><trkpt lat="40.838465" lon="14.0941083"><ele>33.0</ele><time>2026-04-15T18:07:07.306Z</time></trkpt><trkpt lat="40.8384317" lon="14.09418"><ele>33.0</ele><time>2026-04-15T18:07:08.306Z</time></trkpt><trkpt lat="40.8384067" lon="14.0942617"><ele>32.714285714285715</ele><time>2026-04-15T18:07:09.306Z</time></trkpt><trkpt lat="40.8383833" lon="14.0943417"><ele>32.42857142857143</ele><time>2026-04-15T18:07:10.305Z</time></trkpt><trkpt lat="40.8383717" lon="14.0944517"><ele>32.142857142857146</ele><time>2026-04-15T18:07:11.306Z</time></trkpt><trkpt lat="40.8383417" lon="14.094545"><ele>31.857142857142858</ele><time>2026-04-15T18:07:12.305Z</time></trkpt><trkpt lat="40.8383217" lon="14.0946383"><ele>31.571428571428577</ele><time>2026-04-15T18:07:13.306Z</time></trkpt><trkpt lat="40.8383" lon="14.0947283"><ele>31.28571428571429</ele><time>2026-04-15T18:07:14.305Z</time></trkpt><trkpt lat="40.8382783" lon="14.0948217"><ele>31.0</ele><time>2026-04-15T18:07:15.306Z</time></trkpt><trkpt lat="40.83827" lon="14.0949233"><ele>30.833333333333336</ele><time>2026-04-15T18:07:16.305Z</time></trkpt><trkpt lat="40.8382517" lon="14.0950317"><ele>30.666666666666668</ele><time>2026-04-15T18:07:17.305Z</time></trkpt><trkpt lat="40.83824" lon="14.0951317"><ele>30.5</ele><time>2026-04-15T18:07:18.306Z</time></trkpt><trkpt lat="40.8382367" lon="14.0952217"><ele>30.333333333333336</ele><time>2026-04-15T18:07:19.304Z</time></trkpt><trkpt lat="40.8382433" lon="14.0953083"><ele>30.166666666666668</ele><time>2026-04-15T18:07:20.306Z</time></trkpt><trkpt lat="40.8382483" lon="14.0953917"><ele>30.0</ele><time>2026-04-15T18:07:21.305Z</time></trkpt><trkpt lat="40.8382533" lon="14.0955317"><ele>30.0</ele><time>2026-04-15T18:07:23.306Z</time></trkpt><trkpt lat="40.83824" lon="14.0956633"><ele>30.0</ele><time>2026-04-15T18:07:25.306Z</time></trkpt><trkpt lat="40.8381983" lon="14.095795"><ele>30.0</ele><time>2026-04-15T18:07:27.305Z</time></trkpt><trkpt lat="40.8381417" lon="14.0959183"><ele>30.0</ele><time>2026-04-15T18:07:29.306Z</time></trkpt><trkpt lat="40.8380733" lon="14.0960483"><ele>30.0</ele><time>2026-04-15T18:07:31.306Z</time></trkpt><trkpt lat="40.838035" lon="14.096115"><ele>30.166666666666668</ele><time>2026-04-15T18:07:32.308Z</time></trkpt><trkpt lat="40.837995" lon="14.0961817"><ele>30.333333333333336</ele><time>2026-04-15T18:07:33.308Z</time></trkpt><trkpt lat="40.8379533" lon="14.0962517"><ele>30.5</ele><time>2026-04-15T18:07:34.307Z</time></trkpt><trkpt lat="40.8379117" lon="14.09632"><ele>30.666666666666668</ele><time>2026-04-15T18:07:35.306Z</time></trkpt><trkpt lat="40.8378717" lon="14.09639"><ele>30.833333333333336</ele><time>2026-04-15T18:07:36.306Z</time></trkpt><trkpt lat="40.8377917" lon="14.0965233"><ele>31.0</ele><time>2026-04-15T18:07:38.309Z</time></trkpt><trkpt lat="40.8377533" lon="14.09659"><ele>31.0</ele><time>2026-04-15T18:07:39.306Z</time></trkpt><trkpt lat="40.8377133" lon="14.09666"><ele>31.000000000000004</ele><time>2026-04-15T18:07:40.306Z</time></trkpt><trkpt lat="40.8376733" lon="14.0967283"><ele>31.0</ele><time>2026-04-15T18:07:41.308Z</time></trkpt><trkpt lat="40.8376317" lon="14.0967967"><ele>31.0</ele><time>2026-04-15T18:07:42.309Z</time></trkpt><trkpt lat="40.8375917" lon="14.0968633"><ele>31.000000000000004</ele><time>2026-04-15T18:07:43.308Z</time></trkpt><trkpt lat="40.8375533" lon="14.09693"><ele>31.0</ele><time>2026-04-15T18:07:44.308Z</time></trkpt><trkpt lat="40.8375117" lon="14.0970017"><ele>31.0</ele><time>2026-04-15T18:07:45.309Z</time></trkpt><trkpt lat="40.8374717" lon="14.0970683"><ele>30.571428571428573</ele><time>2026-04-15T18:07:46.307Z</time></trkpt><trkpt lat="40.83743" lon="14.097135"><ele>30.142857142857146</ele><time>2026-04-15T18:07:47.309Z</time></trkpt><trkpt lat="40.8373883" lon="14.0972033"><ele>29.714285714285715</ele><time>2026-04-15T18:07:48.308Z</time></trkpt><trkpt lat="40.8373467" lon="14.09727"><ele>29.285714285714285</ele><time>2026-04-15T18:07:49.309Z</time></trkpt><trkpt lat="40.8373083" lon="14.0973367"><ele>28.857142857142858</ele><time>2026-04-15T18:07:50.31Z</time></trkpt><trkpt lat="40.8372683" lon="14.0974083"><ele>28.42857142857143</ele><time>2026-04-15T18:07:51.309Z</time></trkpt><trkpt lat="40.8372267" lon="14.0974783"><ele>28.0</ele><time>2026-04-15T18:07:52.308Z</time></trkpt><trkpt lat="40.8371867" lon="14.0975483"><ele>28.0</ele><time>2026-04-15T18:07:53.308Z</time></trkpt><trkpt lat="40.8371467" lon="14.0976217"><ele>28.0</ele><time>2026-04-15T18:07:54.308Z</time></trkpt><trkpt lat="40.837105" lon="14.0976933"><ele>28.0</ele><time>2026-04-15T18:07:55.308Z</time></trkpt><trkpt lat="40.8370617" lon="14.097765"><ele>28.0</ele><time>2026-04-15T18:07:56.31Z</time></trkpt><trkpt lat="40.8370183" lon="14.0978367"><ele>28.0</ele><time>2026-04-15T18:07:57.309Z</time></trkpt><trkpt lat="40.836975" lon="14.0979083"><ele>28.0</ele><time>2026-04-15T18:07:58.307Z</time></trkpt><trkpt lat="40.83693" lon="14.0979817"><ele>28.0</ele><time>2026-04-15T18:07:59.308Z</time></trkpt><trkpt lat="40.8368917" lon="14.098055"><ele>28.000000000000004</ele><time>2026-04-15T18:08:00.308Z</time></trkpt><trkpt lat="40.8368533" lon="14.0981267"><ele>28.0</ele><time>2026-04-15T18:08:01.307Z</time></trkpt><trkpt lat="40.836815" lon="14.0981983"><ele>28.0</ele><time>2026-04-15T18:08:02.31Z</time></trkpt><trkpt lat="40.8367733" lon="14.0982717"><ele>28.0</ele><time>2026-04-15T18:08:03.31Z</time></trkpt><trkpt lat="40.8367333" lon="14.0983417"><ele>28.000000000000004</ele><time>2026-04-15T18:08:04.308Z</time></trkpt><trkpt lat="40.8366917" lon="14.098415"><ele>28.0</ele><time>2026-04-15T18:08:05.309Z</time></trkpt><trkpt lat="40.8366183" lon="14.0985417"><ele>27.666666666666668</ele><time>2026-04-15T18:08:07.308Z</time></trkpt><trkpt lat="40.836545" lon="14.098675"><ele>27.333333333333336</ele><time>2026-04-15T18:08:09.309Z</time></trkpt><trkpt lat="40.8365067" lon="14.0987433"><ele>27.0</ele><time>2026-04-15T18:08:10.309Z</time></trkpt><trkpt lat="40.8364667" lon="14.09881"><ele>26.666666666666664</ele><time>2026-04-15T18:08:11.309Z</time></trkpt><trkpt lat="40.836425" lon="14.0988783"><ele>26.333333333333332</ele><time>2026-04-15T18:08:12.307Z</time></trkpt><trkpt lat="40.8363483" lon="14.099015"><ele>26.0</ele><time>2026-04-15T18:08:14.305Z</time></trkpt><trkpt lat="40.83631" lon="14.0990883"><ele>26.0</ele><time>2026-04-15T18:08:15.31Z</time></trkpt><trkpt lat="40.8362683" lon="14.0991633"><ele>26.0</ele><time>2026-04-15T18:08:16.309Z</time></trkpt><trkpt lat="40.8362267" lon="14.0992367"><ele>26.0</ele><time>2026-04-15T18:08:17.309Z</time></trkpt><trkpt lat="40.83619" lon="14.09931"><ele>26.0</ele><time>2026-04-15T18:08:18.309Z</time></trkpt><trkpt lat="40.83615" lon="14.09938"><ele>26.0</ele><time>2026-04-15T18:08:19.309Z</time></trkpt><trkpt lat="40.836115" lon="14.0994533"><ele>26.0</ele><time>2026-04-15T18:08:20.307Z</time></trkpt><trkpt lat="40.836075" lon="14.0995283"><ele>26.0</ele><time>2026-04-15T18:08:21.308Z</time></trkpt><trkpt lat="40.836035" lon="14.0995983"><ele>26.0</ele><time>2026-04-15T18:08:22.309Z</time></trkpt><trkpt lat="40.8359967" lon="14.09967"><ele>26.0</ele><time>2026-04-15T18:08:23.309Z</time></trkpt><trkpt lat="40.8359583" lon="14.0997483"><ele>26.0</ele><time>2026-04-15T18:08:24.309Z</time></trkpt><trkpt lat="40.8359217" lon="14.0998233"><ele>26.0</ele><time>2026-04-15T18:08:25.309Z</time></trkpt><trkpt lat="40.8358867" lon="14.0999"><ele>26.0</ele><time>2026-04-15T18:08:26.31Z</time></trkpt><trkpt lat="40.835855" lon="14.0999767"><ele>26.0</ele><time>2026-04-15T18:08:27.308Z</time></trkpt><trkpt lat="40.8358267" lon="14.100055"><ele>26.0</ele><time>2026-04-15T18:08:28.309Z</time></trkpt><trkpt lat="40.8358033" lon="14.1001333"><ele>25.833333333333332</ele><time>2026-04-15T18:08:29.307Z</time></trkpt><trkpt lat="40.835775" lon="14.1002483"><ele>25.666666666666664</ele><time>2026-04-15T18:08:31.307Z</time></trkpt><trkpt lat="40.8357483" lon="14.10035"><ele>25.5</ele><time>2026-04-15T18:08:34.309Z</time></trkpt><trkpt lat="40.835745" lon="14.100435"><ele>25.333333333333336</ele><time>2026-04-15T18:08:56.309Z</time></trkpt><trkpt lat="40.835715" lon="14.1005567"><ele>25.166666666666668</ele><time>2026-04-15T18:08:59.309Z</time></trkpt><trkpt lat="40.8356883" lon="14.1006567"><ele>25.0</ele><time>2026-04-15T18:09:01.309Z</time></trkpt><trkpt lat="40.835665" lon="14.1007617"><ele>25.8</ele><time>2026-04-15T18:09:03.308Z</time></trkpt><trkpt lat="40.8356383" lon="14.1009367"><ele>26.6</ele><time>2026-04-15T18:09:06.309Z</time></trkpt><trkpt lat="40.83563" lon="14.1010533"><ele>27.4</ele><time>2026-04-15T18:09:08.308Z</time></trkpt><trkpt lat="40.8356267" lon="14.1011717"><ele>28.2</ele><time>2026-04-15T18:09:10.306Z</time></trkpt><trkpt lat="40.835615" lon="14.1012783"><ele>29.0</ele><time>2026-04-15T18:09:12.308Z</time></trkpt><trkpt lat="40.8355983" lon="14.1013717"><ele>28.999999999999996</ele><time>2026-04-15T18:09:14.31Z</time></trkpt><trkpt lat="40.83558" lon="14.1014767"><ele>29.0</ele><time>2026-04-15T18:09:16.309Z</time></trkpt><trkpt lat="40.8355683" lon="14.101575"><ele>29.0</ele><time>2026-04-15T18:09:18.309Z</time></trkpt><trkpt lat="40.8355583" lon="14.1016817"><ele>29.0</ele><time>2026-04-15T18:09:20.309Z</time></trkpt><trkpt lat="40.8355467" lon="14.1017917"><ele>28.999999999999996</ele><time>2026-04-15T18:09:22.309Z</time></trkpt><trkpt lat="40.8355367" lon="14.101895"><ele>29.0</ele><time>2026-04-15T18:09:24.308Z</time></trkpt><trkpt lat="40.8355183" lon="14.1019933"><ele>29.666666666666664</ele><time>2026-04-15T18:09:26.307Z</time></trkpt><trkpt lat="40.8355033" lon="14.1020817"><ele>30.333333333333332</ele><time>2026-04-15T18:09:28.307Z</time></trkpt><trkpt lat="40.83549" lon="14.1021717"><ele>31.0</ele><time>2026-04-15T18:09:30.309Z</time></trkpt><trkpt lat="40.835475" lon="14.10226"><ele>31.666666666666664</ele><time>2026-04-15T18:09:32.307Z</time></trkpt><trkpt lat="40.8354633" lon="14.10235"><ele>32.333333333333336</ele><time>2026-04-15T18:09:34.309Z</time></trkpt><trkpt lat="40.8354483" lon="14.10247"><ele>33.0</ele><time>2026-04-15T18:09:37.308Z</time></trkpt><trkpt lat="40.8354333" lon="14.102585"><ele>33.333333333333336</ele><time>2026-04-15T18:09:40.309Z</time></trkpt><trkpt lat="40.835415" lon="14.1027033"><ele>33.666666666666664</ele><time>2026-04-15T18:09:43.305Z</time></trkpt><trkpt lat="40.8354" lon="14.1028233"><ele>34.0</ele><time>2026-04-15T18:09:46.308Z</time></trkpt><trkpt lat="40.8353867" lon="14.1029417"><ele>34.33333333333333</ele><time>2026-04-15T18:09:49.308Z</time></trkpt><trkpt lat="40.8353683" lon="14.103065"><ele>34.666666666666664</ele><time>2026-04-15T18:09:52.307Z</time></trkpt><trkpt lat="40.8353583" lon="14.1031483"><ele>35.0</ele><time>2026-04-15T18:09:54.31Z</time></trkpt><trkpt lat="40.83535" lon="14.1032317"><ele>35.285714285714285</ele><time>2026-04-15T18:09:56.31Z</time></trkpt><trkpt lat="40.8353383" lon="14.1033167"><ele>35.57142857142857</ele><time>2026-04-15T18:09:58.31Z</time></trkpt><trkpt lat="40.835325" lon="14.103405"><ele>35.85714285714286</ele><time>2026-04-15T18:10:00.31Z</time></trkpt><trkpt lat="40.8353167" lon="14.1034933"><ele>36.14285714285714</ele><time>2026-04-15T18:10:02.31Z</time></trkpt><trkpt lat="40.835305" lon="14.1035767"><ele>36.42857142857143</ele><time>2026-04-15T18:10:04.31Z</time></trkpt><trkpt lat="40.8353017" lon="14.10366"><ele>36.714285714285715</ele><time>2026-04-15T18:10:06.308Z</time></trkpt><trkpt lat="40.83529" lon="14.1037767"><ele>37.0</ele><time>2026-04-15T18:10:09.309Z</time></trkpt><trkpt lat="40.83527" lon="14.10386"><ele>37.0</ele><time>2026-04-15T18:10:11.309Z</time></trkpt><trkpt lat="40.8352567" lon="14.103945"><ele>37.0</ele><time>2026-04-15T18:10:13.308Z</time></trkpt><trkpt lat="40.8352483" lon="14.1040317"><ele>37.0</ele><time>2026-04-15T18:10:15.309Z</time></trkpt><trkpt lat="40.8352333" lon="14.1041483"><ele>37.0</ele><time>2026-04-15T18:10:18.308Z</time></trkpt><trkpt lat="40.8352183" lon="14.1042667"><ele>37.0</ele><time>2026-04-15T18:10:21.306Z</time></trkpt><trkpt lat="40.8352067" lon="14.1043867"><ele>37.0</ele><time>2026-04-15T18:10:24.31Z</time></trkpt><trkpt lat="40.835195" lon="14.1045"><ele>37.5</ele><time>2026-04-15T18:10:27.306Z</time></trkpt><trkpt lat="40.8351817" lon="14.104625"><ele>38.0</ele><time>2026-04-15T18:10:30.309Z</time></trkpt><trkpt lat="40.8351683" lon="14.1047317"><ele>38.5</ele><time>2026-04-15T18:10:33.31Z</time></trkpt><trkpt lat="40.83518" lon="14.1048283"><ele>39.0</ele><time>2026-04-15T18:10:36.309Z</time></trkpt><trkpt lat="40.8352517" lon="14.104835"><ele>39.5</ele><time>2026-04-15T18:10:39.31Z</time></trkpt><trkpt lat="40.835305" lon="14.104735"><ele>40.0</ele><time>2026-04-15T18:10:42.31Z</time></trkpt><trkpt lat="40.835345" lon="14.1046667"><ele>40.0</ele><time>2026-04-15T18:10:44.31Z</time></trkpt><trkpt lat="40.835385" lon="14.1045967"><ele>40.0</ele><time>2026-04-15T18:10:46.309Z</time></trkpt><trkpt lat="40.8354283" lon="14.1045233"><ele>40.0</ele><time>2026-04-15T18:10:48.308Z</time></trkpt><trkpt lat="40.8354783" lon="14.1044483"><ele>40.0</ele><time>2026-04-15T18:10:50.308Z</time></trkpt><trkpt lat="40.83553" lon="14.1043717"><ele>40.0</ele><time>2026-04-15T18:10:52.308Z</time></trkpt><trkpt lat="40.8355817" lon="14.1042833"><ele>40.0</ele><time>2026-04-15T18:10:54.309Z</time></trkpt><trkpt lat="40.8356383" lon="14.1041983"><ele>40.0</ele><time>2026-04-15T18:10:56.309Z</time></trkpt><trkpt lat="40.8356933" lon="14.1041117"><ele>40.0</ele><time>2026-04-15T18:10:58.309Z</time></trkpt><trkpt lat="40.83575" lon="14.104035"><ele>40.0</ele><time>2026-04-15T18:11:00.31Z</time></trkpt><trkpt lat="40.8358167" lon="14.1039683"><ele>40.0</ele><time>2026-04-15T18:11:02.308Z</time></trkpt><trkpt lat="40.8358883" lon="14.1038967"><ele>40.0</ele><time>2026-04-15T18:11:04.31Z</time></trkpt><trkpt lat="40.8359617" lon="14.103815"><ele>40.0</ele><time>2026-04-15T18:11:06.31Z</time></trkpt><trkpt lat="40.836035" lon="14.1037433"><ele>39.833333333333336</ele><time>2026-04-15T18:11:08.31Z</time></trkpt><trkpt lat="40.8361117" lon="14.1036717"><ele>39.66666666666667</ele><time>2026-04-15T18:11:10.309Z</time></trkpt><trkpt lat="40.8361833" lon="14.1035967"><ele>39.5</ele><time>2026-04-15T18:11:12.31Z</time></trkpt><trkpt lat="40.8362517" lon="14.1035267"><ele>39.333333333333336</ele><time>2026-04-15T18:11:14.31Z</time></trkpt><trkpt lat="40.8362933" lon="14.1034633"><ele>39.166666666666664</ele><time>2026-04-15T18:11:16.307Z</time></trkpt><trkpt lat="40.836225" lon="14.1034767"><ele>39.0</ele><time>2026-04-15T18:11:20.308Z</time></trkpt><trkpt lat="40.8361733" lon="14.103535"><ele>39.0</ele><time>2026-04-15T18:11:22.306Z</time></trkpt><trkpt lat="40.836115" lon="14.1035983"><ele>39.0</ele><time>2026-04-15T18:11:24.31Z</time></trkpt><trkpt lat="40.83605" lon="14.1036617"><ele>39.0</ele><time>2026-04-15T18:11:26.309Z</time></trkpt><trkpt lat="40.8359767" lon="14.1037333"><ele>39.0</ele><time>2026-04-15T18:11:28.31Z</time></trkpt><trkpt lat="40.8359067" lon="14.1038033"><ele>39.0</ele><time>2026-04-15T18:11:30.309Z</time></trkpt><trkpt lat="40.8358433" lon="14.1038733"><ele>39.0</ele><time>2026-04-15T18:11:32.31Z</time></trkpt><trkpt lat="40.8357833" lon="14.103945"><ele>39.166666666666664</ele><time>2026-04-15T18:11:34.31Z</time></trkpt><trkpt lat="40.835725" lon="14.104015"><ele>39.333333333333336</ele><time>2026-04-15T18:11:36.308Z</time></trkpt><trkpt lat="40.8356633" lon="14.1040967"><ele>39.5</ele><time>2026-04-15T18:11:38.31Z</time></trkpt><trkpt lat="40.8356" lon="14.1041833"><ele>39.66666666666667</ele><time>2026-04-15T18:11:40.308Z</time></trkpt><trkpt lat="40.8355417" lon="14.10428"><ele>39.833333333333336</ele><time>2026-04-15T18:11:42.31Z</time></trkpt><trkpt lat="40.8354783" lon="14.1043733"><ele>40.0</ele><time>2026-04-15T18:11:44.31Z</time></trkpt><trkpt lat="40.8354167" lon="14.1044783"><ele>40.0</ele><time>2026-04-15T18:11:46.308Z</time></trkpt><trkpt lat="40.83536" lon="14.1045783"><ele>40.0</ele><time>2026-04-15T18:11:48.308Z</time></trkpt><trkpt lat="40.8353067" lon="14.1046867"><ele>40.0</ele><time>2026-04-15T18:11:50.307Z</time></trkpt><trkpt lat="40.8352633" lon="14.1047867"><ele>40.0</ele><time>2026-04-15T18:11:52.307Z</time></trkpt><trkpt lat="40.8352217" lon="14.10489"><ele>40.0</ele><time>2026-04-15T18:11:54.31Z</time></trkpt><trkpt lat="40.8351683" lon="14.1049883"><ele>38.6</ele><time>2026-04-15T18:11:56.309Z</time></trkpt><trkpt lat="40.8351267" lon="14.1050883"><ele>37.2</ele><time>2026-04-15T18:11:58.308Z</time></trkpt><trkpt lat="40.8351033" lon="14.1052083"><ele>35.8</ele><time>2026-04-15T18:12:00.308Z</time></trkpt><trkpt lat="40.83509" lon="14.1053317"><ele>34.4</ele><time>2026-04-15T18:12:02.307Z</time></trkpt><trkpt lat="40.8350783" lon="14.105455"><ele>33.0</ele><time>2026-04-15T18:12:04.307Z</time></trkpt><trkpt lat="40.8350633" lon="14.1055733"><ele>33.0</ele><time>2026-04-15T18:12:06.308Z</time></trkpt><trkpt lat="40.8350517" lon="14.1056883"><ele>33.0</ele><time>2026-04-15T18:12:08.308Z</time></trkpt><trkpt lat="40.835045" lon="14.1058133"><ele>33.0</ele><time>2026-04-15T18:12:10.307Z</time></trkpt><trkpt lat="40.8350367" lon="14.1059383"><ele>33.0</ele><time>2026-04-15T18:12:12.307Z</time></trkpt><trkpt lat="40.835005" lon="14.1060583"><ele>33.0</ele><time>2026-04-15T18:12:14.307Z</time></trkpt><trkpt lat="40.8349867" lon="14.1061833"><ele>33.4</ele><time>2026-04-15T18:12:16.308Z</time></trkpt><trkpt lat="40.834975" lon="14.1063033"><ele>33.8</ele><time>2026-04-15T18:12:18.305Z</time></trkpt><trkpt lat="40.834955" lon="14.1064317"><ele>34.2</ele><time>2026-04-15T18:12:20.307Z</time></trkpt><trkpt lat="40.8349383" lon="14.10656"><ele>34.6</ele><time>2026-04-15T18:12:22.306Z</time></trkpt><trkpt lat="40.8349233" lon="14.1066783"><ele>35.0</ele><time>2026-04-15T18:12:24.307Z</time></trkpt><trkpt lat="40.834905" lon="14.106795"><ele>35.666666666666664</ele><time>2026-04-15T18:12:26.306Z</time></trkpt><trkpt lat="40.8348817" lon="14.1069133"><ele>36.33333333333333</ele><time>2026-04-15T18:12:28.309Z</time></trkpt><trkpt lat="40.8348617" lon="14.1070317"><ele>37.0</ele><time>2026-04-15T18:12:30.308Z</time></trkpt><trkpt lat="40.834845" lon="14.10715"><ele>37.666666666666664</ele><time>2026-04-15T18:12:32.309Z</time></trkpt><trkpt lat="40.8348333" lon="14.107265"><ele>38.333333333333336</ele><time>2026-04-15T18:12:34.308Z</time></trkpt><trkpt lat="40.8348217" lon="14.1073767"><ele>39.0</ele><time>2026-04-15T18:12:36.307Z</time></trkpt><trkpt lat="40.8348033" lon="14.1074967"><ele>39.4</ele><time>2026-04-15T18:12:38.309Z</time></trkpt><trkpt lat="40.8347867" lon="14.107615"><ele>39.8</ele><time>2026-04-15T18:12:40.309Z</time></trkpt><trkpt lat="40.834775" lon="14.1077417"><ele>40.199999999999996</ele><time>2026-04-15T18:12:42.308Z</time></trkpt><trkpt lat="40.8347617" lon="14.1078633"><ele>40.599999999999994</ele><time>2026-04-15T18:12:44.309Z</time></trkpt><trkpt lat="40.8347467" lon="14.107975"><ele>41.0</ele><time>2026-04-15T18:12:46.309Z</time></trkpt><trkpt lat="40.834735" lon="14.108085"><ele>41.0</ele><time>2026-04-15T18:12:48.307Z</time></trkpt><trkpt lat="40.8347217" lon="14.1081867"><ele>41.0</ele><time>2026-04-15T18:12:50.306Z</time></trkpt><trkpt lat="40.834705" lon="14.10828"><ele>41.0</ele><time>2026-04-15T18:12:52.306Z</time></trkpt><trkpt lat="40.83468" lon="14.1083917"><ele>41.0</ele><time>2026-04-15T18:12:55.309Z</time></trkpt><trkpt lat="40.8346717" lon="14.1084767"><ele>41.0</ele><time>2026-04-15T18:12:58.306Z</time></trkpt><trkpt lat="40.8347083" lon="14.1085767"><ele>41.0</ele><time>2026-04-15T18:13:02.31Z</time></trkpt><trkpt lat="40.8347883" lon="14.1086017"><ele>41.83333333333333</ele><time>2026-04-15T18:13:05.309Z</time></trkpt><trkpt lat="40.83487" lon="14.1086183"><ele>42.666666666666664</ele><time>2026-04-15T18:13:08.308Z</time></trkpt><trkpt lat="40.8349517" lon="14.1086583"><ele>43.5</ele><time>2026-04-15T18:13:11.306Z</time></trkpt><trkpt lat="40.8350183" lon="14.108675"><ele>44.333333333333336</ele><time>2026-04-15T18:13:13.307Z</time></trkpt><trkpt lat="40.835095" lon="14.1087"><ele>45.16666666666667</ele><time>2026-04-15T18:13:15.305Z</time></trkpt><trkpt lat="40.8351683" lon="14.1087183"><ele>46.0</ele><time>2026-04-15T18:13:17.307Z</time></trkpt><trkpt lat="40.8352383" lon="14.10874"><ele>47.333333333333336</ele><time>2026-04-15T18:13:19.306Z</time></trkpt><trkpt lat="40.8353133" lon="14.10877"><ele>48.66666666666667</ele><time>2026-04-15T18:13:21.306Z</time></trkpt><trkpt lat="40.835385" lon="14.10881"><ele>50.0</ele><time>2026-04-15T18:13:23.306Z</time></trkpt><trkpt lat="40.8354583" lon="14.1088383"><ele>51.333333333333336</ele><time>2026-04-15T18:13:25.308Z</time></trkpt><trkpt lat="40.835535" lon="14.108865"><ele>52.666666666666664</ele><time>2026-04-15T18:13:27.309Z</time></trkpt><trkpt lat="40.8356133" lon="14.1088933"><ele>54.0</ele><time>2026-04-15T18:13:29.309Z</time></trkpt><trkpt lat="40.8356917" lon="14.1089267"><ele>54.0</ele><time>2026-04-15T18:13:31.309Z</time></trkpt><trkpt lat="40.8357683" lon="14.1089517"><ele>54.0</ele><time>2026-04-15T18:13:33.309Z</time></trkpt><trkpt lat="40.8358433" lon="14.108975"><ele>54.0</ele><time>2026-04-15T18:13:35.309Z</time></trkpt><trkpt lat="40.8359233" lon="14.1089983"><ele>54.0</ele><time>2026-04-15T18:13:37.309Z</time></trkpt><trkpt lat="40.8359983" lon="14.1090233"><ele>54.0</ele><time>2026-04-15T18:13:39.308Z</time></trkpt><trkpt lat="40.83608" lon="14.1090567"><ele>54.0</ele><time>2026-04-15T18:13:41.309Z</time></trkpt><trkpt lat="40.8361633" lon="14.1090817"><ele>54.333333333333336</ele><time>2026-04-15T18:13:43.305Z</time></trkpt><trkpt lat="40.836245" lon="14.1091033"><ele>54.66666666666667</ele><time>2026-04-15T18:13:45.309Z</time></trkpt><trkpt lat="40.8363233" lon="14.1091283"><ele>55.0</ele><time>2026-04-15T18:13:47.308Z</time></trkpt><trkpt lat="40.8364017" lon="14.1091583"><ele>55.333333333333336</ele><time>2026-04-15T18:13:49.308Z</time></trkpt><trkpt lat="40.836475" lon="14.10919"><ele>55.66666666666667</ele><time>2026-04-15T18:13:51.308Z</time></trkpt><trkpt lat="40.8365483" lon="14.10922"><ele>56.0</ele><time>2026-04-15T18:13:53.308Z</time></trkpt><trkpt lat="40.8366167" lon="14.1092517"><ele>56.0</ele><time>2026-04-15T18:13:55.308Z</time></trkpt><trkpt lat="40.836685" lon="14.1092717"><ele>56.0</ele><time>2026-04-15T18:13:57.307Z</time></trkpt><trkpt lat="40.8367517" lon="14.10929"><ele>56.0</ele><time>2026-04-15T18:13:59.309Z</time></trkpt><trkpt lat="40.8368217" lon="14.109315"><ele>56.0</ele><time>2026-04-15T18:14:01.307Z</time></trkpt><trkpt lat="40.8368883" lon="14.1093333"><ele>56.0</ele><time>2026-04-15T18:14:03.309Z</time></trkpt><trkpt lat="40.83696" lon="14.1093517"><ele>56.0</ele><time>2026-04-15T18:14:05.308Z</time></trkpt><trkpt lat="40.8370333" lon="14.1093767"><ele>56.0</ele><time>2026-04-15T18:14:07.309Z</time></trkpt><trkpt lat="40.8371017" lon="14.1093883"><ele>56.00000000000001</ele><time>2026-04-15T18:14:09.307Z</time></trkpt><trkpt lat="40.837195" lon="14.1094"><ele>56.0</ele><time>2026-04-15T18:14:12.307Z</time></trkpt><trkpt lat="40.8372633" lon="14.10941"><ele>56.0</ele><time>2026-04-15T18:14:14.308Z</time></trkpt><trkpt lat="40.8373317" lon="14.1094283"><ele>56.0</ele><time>2026-04-15T18:14:16.309Z</time></trkpt><trkpt lat="40.837405" lon="14.10946"><ele>56.00000000000001</ele><time>2026-04-15T18:14:18.309Z</time></trkpt><trkpt lat="40.8374767" lon="14.1094983"><ele>56.0</ele><time>2026-04-15T18:14:20.31Z</time></trkpt><trkpt lat="40.8375267" lon="14.10957"><ele>56.0</ele><time>2026-04-15T18:14:22.309Z</time></trkpt><trkpt lat="40.837555" lon="14.10965"><ele>56.0</ele><time>2026-04-15T18:14:24.308Z</time></trkpt><trkpt lat="40.83757" lon="14.1097367"><ele>56.0</ele><time>2026-04-15T18:14:26.31Z</time></trkpt><trkpt lat="40.8375567" lon="14.1098333"><ele>56.0</ele><time>2026-04-15T18:14:28.306Z</time></trkpt><trkpt lat="40.8375283" lon="14.1099183"><ele>56.0</ele><time>2026-04-15T18:14:30.31Z</time></trkpt><trkpt lat="40.837485" lon="14.1099967"><ele>56.0</ele><time>2026-04-15T18:14:32.309Z</time></trkpt><trkpt lat="40.8374383" lon="14.11007"><ele>56.0</ele><time>2026-04-15T18:14:34.309Z</time></trkpt><trkpt lat="40.8373867" lon="14.110145"><ele>56.333333333333336</ele><time>2026-04-15T18:14:36.308Z</time></trkpt><trkpt lat="40.8373367" lon="14.1102317"><ele>56.66666666666667</ele><time>2026-04-15T18:14:38.313Z</time></trkpt><trkpt lat="40.837295" lon="14.11033"><ele>57.0</ele><time>2026-04-15T18:14:40.307Z</time></trkpt><trkpt lat="40.8372533" lon="14.1104367"><ele>57.33333333333333</ele><time>2026-04-15T18:14:42.309Z</time></trkpt><trkpt lat="40.8372333" lon="14.1105417"><ele>57.666666666666664</ele><time>2026-04-15T18:14:44.309Z</time></trkpt><trkpt lat="40.83721" lon="14.1106517"><ele>58.0</ele><time>2026-04-15T18:14:46.309Z</time></trkpt><trkpt lat="40.83719" lon="14.1107617"><ele>58.83333333333333</ele><time>2026-04-15T18:14:48.308Z</time></trkpt><trkpt lat="40.837175" lon="14.11086"><ele>59.666666666666664</ele><time>2026-04-15T18:14:50.31Z</time></trkpt><trkpt lat="40.8371567" lon="14.1109617"><ele>60.5</ele><time>2026-04-15T18:14:52.309Z</time></trkpt><trkpt lat="40.83714" lon="14.1110617"><ele>61.33333333333333</ele><time>2026-04-15T18:14:54.308Z</time></trkpt><trkpt lat="40.8371183" lon="14.11116"><ele>62.166666666666664</ele><time>2026-04-15T18:14:56.31Z</time></trkpt><trkpt lat="40.8370967" lon="14.1112617"><ele>63.0</ele><time>2026-04-15T18:14:58.309Z</time></trkpt><trkpt lat="40.8370783" lon="14.1113533"><ele>63.0</ele><time>2026-04-15T18:15:00.308Z</time></trkpt><trkpt lat="40.8370583" lon="14.1114717"><ele>63.0</ele><time>2026-04-15T18:15:02.308Z</time></trkpt><trkpt lat="40.8370383" lon="14.11159"><ele>63.0</ele><time>2026-04-15T18:15:04.31Z</time></trkpt><trkpt lat="40.83702" lon="14.111695"><ele>63.0</ele><time>2026-04-15T18:15:06.309Z</time></trkpt><trkpt lat="40.837005" lon="14.1118033"><ele>63.0</ele><time>2026-04-15T18:15:08.309Z</time></trkpt><trkpt lat="40.8370033" lon="14.1119133"><ele>63.0</ele><time>2026-04-15T18:15:10.308Z</time></trkpt><trkpt lat="40.837015" lon="14.1120167"><ele>63.166666666666664</ele><time>2026-04-15T18:15:12.308Z</time></trkpt><trkpt lat="40.8370467" lon="14.1121217"><ele>63.33333333333333</ele><time>2026-04-15T18:15:14.308Z</time></trkpt><trkpt lat="40.8370883" lon="14.1122133"><ele>63.5</ele><time>2026-04-15T18:15:16.308Z</time></trkpt><trkpt lat="40.8371517" lon="14.1122867"><ele>63.666666666666664</ele><time>2026-04-15T18:15:18.306Z</time></trkpt><trkpt lat="40.8372233" lon="14.112335"><ele>63.83333333333333</ele><time>2026-04-15T18:15:20.306Z</time></trkpt><trkpt lat="40.8373033" lon="14.1123883"><ele>64.0</ele><time>2026-04-15T18:15:22.305Z</time></trkpt><trkpt lat="40.837385" lon="14.1124433"><ele>64.0</ele><time>2026-04-15T18:15:24.308Z</time></trkpt><trkpt lat="40.8374667" lon="14.1125033"><ele>64.0</ele><time>2026-04-15T18:15:26.308Z</time></trkpt><trkpt lat="40.8375517" lon="14.11257"><ele>64.0</ele><time>2026-04-15T18:15:28.307Z</time></trkpt><trkpt lat="40.837635" lon="14.11263"><ele>64.0</ele><time>2026-04-15T18:15:30.309Z</time></trkpt><trkpt lat="40.83772" lon="14.1126883"><ele>64.0</ele><time>2026-04-15T18:15:32.309Z</time></trkpt><trkpt lat="40.8378083" lon="14.11275"><ele>64.2</ele><time>2026-04-15T18:15:34.309Z</time></trkpt><trkpt lat="40.83789" lon="14.1128167"><ele>64.4</ele><time>2026-04-15T18:15:36.309Z</time></trkpt><trkpt lat="40.83797" lon="14.112895"><ele>64.6</ele><time>2026-04-15T18:15:38.309Z</time></trkpt><trkpt lat="40.8380533" lon="14.11297"><ele>64.8</ele><time>2026-04-15T18:15:40.309Z</time></trkpt><trkpt lat="40.8381333" lon="14.1130333"><ele>65.0</ele><time>2026-04-15T18:15:42.309Z</time></trkpt><trkpt lat="40.8382117" lon="14.1130933"><ele>65.0</ele><time>2026-04-15T18:15:44.307Z</time></trkpt><trkpt lat="40.8382833" lon="14.1131517"><ele>65.0</ele><time>2026-04-15T18:15:46.309Z</time></trkpt><trkpt lat="40.8383583" lon="14.1132"><ele>65.0</ele><time>2026-04-15T18:15:48.306Z</time></trkpt><trkpt lat="40.8384417" lon="14.1132167"><ele>65.0</ele><time>2026-04-15T18:15:50.307Z</time></trkpt><trkpt lat="40.8385217" lon="14.113155"><ele>65.0</ele><time>2026-04-15T18:15:52.308Z</time></trkpt><trkpt lat="40.83855" lon="14.1130367"><ele>65.0</ele><time>2026-04-15T18:15:54.308Z</time></trkpt><trkpt lat="40.8385317" lon="14.1129033"><ele>65.0</ele><time>2026-04-15T18:15:56.309Z</time></trkpt><trkpt lat="40.838495" lon="14.1127667"><ele>65.0</ele><time>2026-04-15T18:15:58.306Z</time></trkpt><trkpt lat="40.8384583" lon="14.1126183"><ele>65.0</ele><time>2026-04-15T18:16:00.31Z</time></trkpt><trkpt lat="40.8384433" lon="14.1125367"><ele>65.0</ele><time>2026-04-15T18:16:01.309Z</time></trkpt><trkpt lat="40.8384333" lon="14.1124517"><ele>65.0</ele><time>2026-04-15T18:16:02.309Z</time></trkpt><trkpt lat="40.8384317" lon="14.112365"><ele>65.0</ele><time>2026-04-15T18:16:03.309Z</time></trkpt><trkpt lat="40.8384433" lon="14.1122767"><ele>64.85714285714286</ele><time>2026-04-15T18:16:04.31Z</time></trkpt><trkpt lat="40.8384633" lon="14.1121933"><ele>64.71428571428572</ele><time>2026-04-15T18:16:05.31Z</time></trkpt><trkpt lat="40.8384917" lon="14.11211"><ele>64.57142857142857</ele><time>2026-04-15T18:16:06.309Z</time></trkpt><trkpt lat="40.838525" lon="14.1120333"><ele>64.42857142857143</ele><time>2026-04-15T18:16:07.31Z</time></trkpt><trkpt lat="40.8385667" lon="14.1119567"><ele>64.28571428571428</ele><time>2026-04-15T18:16:08.31Z</time></trkpt><trkpt lat="40.8386167" lon="14.1118867"><ele>64.14285714285714</ele><time>2026-04-15T18:16:09.308Z</time></trkpt><trkpt lat="40.8386717" lon="14.1118283"><ele>64.0</ele><time>2026-04-15T18:16:10.309Z</time></trkpt><trkpt lat="40.8387317" lon="14.11178"><ele>63.99999999999999</ele><time>2026-04-15T18:16:11.308Z</time></trkpt><trkpt lat="40.8387933" lon="14.1117417"><ele>64.0</ele><time>2026-04-15T18:16:12.309Z</time></trkpt><trkpt lat="40.8388567" lon="14.1117217"><ele>64.0</ele><time>2026-04-15T18:16:13.31Z</time></trkpt><trkpt lat="40.8389717" lon="14.1117117"><ele>64.0</ele><time>2026-04-15T18:16:15.308Z</time></trkpt><trkpt lat="40.8390733" lon="14.11173"><ele>63.99999999999999</ele><time>2026-04-15T18:16:17.308Z</time></trkpt><trkpt lat="40.8391633" lon="14.11175"><ele>64.0</ele><time>2026-04-15T18:16:19.308Z</time></trkpt><trkpt lat="40.8392567" lon="14.1117783"><ele>66.2</ele><time>2026-04-15T18:16:21.305Z</time></trkpt><trkpt lat="40.8393467" lon="14.1118033"><ele>68.4</ele><time>2026-04-15T18:16:23.306Z</time></trkpt><trkpt lat="40.8394483" lon="14.1118467"><ele>70.6</ele><time>2026-04-15T18:16:25.307Z</time></trkpt><trkpt lat="40.8395533" lon="14.11191"><ele>72.8</ele><time>2026-04-15T18:16:27.308Z</time></trkpt><trkpt lat="40.8396483" lon="14.1119917"><ele>75.0</ele><time>2026-04-15T18:16:29.307Z</time></trkpt><trkpt lat="40.8397267" lon="14.1120733"><ele>75.0</ele><time>2026-04-15T18:16:31.307Z</time></trkpt><trkpt lat="40.839795" lon="14.1121767"><ele>75.0</ele><time>2026-04-15T18:16:33.305Z</time></trkpt><trkpt lat="40.8398517" lon="14.1122967"><ele>75.0</ele><time>2026-04-15T18:16:35.308Z</time></trkpt><trkpt lat="40.8399083" lon="14.11241"><ele>75.0</ele><time>2026-04-15T18:16:37.309Z</time></trkpt><trkpt lat="40.8399617" lon="14.1125333"><ele>75.0</ele><time>2026-04-15T18:16:39.31Z</time></trkpt><trkpt lat="40.8400117" lon="14.1126533"><ele>74.2</ele><time>2026-04-15T18:16:41.308Z</time></trkpt><trkpt lat="40.8400517" lon="14.1127667"><ele>73.4</ele><time>2026-04-15T18:16:43.308Z</time></trkpt><trkpt lat="40.84008" lon="14.11288"><ele>72.6</ele><time>2026-04-15T18:16:45.308Z</time></trkpt><trkpt lat="40.8400867" lon="14.1130033"><ele>71.8</ele><time>2026-04-15T18:16:47.309Z</time></trkpt><trkpt lat="40.84005" lon="14.1131233"><ele>71.0</ele><time>2026-04-15T18:16:49.308Z</time></trkpt><trkpt lat="40.8399867" lon="14.113215"><ele>71.0</ele><time>2026-04-15T18:16:51.307Z</time></trkpt><trkpt lat="40.8399467" lon="14.1133217"><ele>71.0</ele><time>2026-04-15T18:16:53.305Z</time></trkpt><trkpt lat="40.83996" lon="14.1134367"><ele>71.0</ele><time>2026-04-15T18:16:55.308Z</time></trkpt><trkpt lat="40.8400167" lon="14.1135433"><ele>71.0</ele><time>2026-04-15T18:16:57.306Z</time></trkpt><trkpt lat="40.8400967" lon="14.1136383"><ele>71.0</ele><time>2026-04-15T18:16:59.309Z</time></trkpt><trkpt lat="40.84017" lon="14.1137417"><ele>71.83333333333334</ele><time>2026-04-15T18:17:01.309Z</time></trkpt><trkpt lat="40.840225" lon="14.1138617"><ele>72.66666666666667</ele><time>2026-04-15T18:17:03.309Z</time></trkpt><trkpt lat="40.840275" lon="14.1139783"><ele>73.5</ele><time>2026-04-15T18:17:05.307Z</time></trkpt><trkpt lat="40.8403217" lon="14.11408"><ele>74.33333333333333</ele><time>2026-04-15T18:17:07.305Z</time></trkpt><trkpt lat="40.8403517" lon="14.1141833"><ele>75.16666666666666</ele><time>2026-04-15T18:17:09.307Z</time></trkpt><trkpt lat="40.8403667" lon="14.11427"><ele>76.0</ele><time>2026-04-15T18:17:11.31Z</time></trkpt><trkpt lat="40.8403883" lon="14.1143483"><ele>76.0</ele><time>2026-04-15T18:17:13.309Z</time></trkpt><trkpt lat="40.8404117" lon="14.1144317"><ele>76.0</ele><time>2026-04-15T18:17:15.309Z</time></trkpt><trkpt lat="40.840435" lon="14.1145167"><ele>76.0</ele><time>2026-04-15T18:17:17.305Z</time></trkpt><trkpt lat="40.8404633" lon="14.1145933"><ele>76.0</ele><time>2026-04-15T18:17:19.308Z</time></trkpt><trkpt lat="40.8404933" lon="14.1146717"><ele>76.0</ele><time>2026-04-15T18:17:21.306Z</time></trkpt><trkpt lat="40.84053" lon="14.1147583"><ele>76.0</ele><time>2026-04-15T18:17:23.308Z</time></trkpt><trkpt lat="40.8405667" lon="14.114835"><ele>76.0</ele><time>2026-04-15T18:17:25.308Z</time></trkpt><trkpt lat="40.8406133" lon="14.1149183"><ele>76.0</ele><time>2026-04-15T18:17:27.31Z</time></trkpt><trkpt lat="40.8406617" lon="14.115"><ele>76.0</ele><time>2026-04-15T18:17:29.31Z</time></trkpt><trkpt lat="40.8407083" lon="14.1150767"><ele>76.0</ele><time>2026-04-15T18:17:31.31Z</time></trkpt><trkpt lat="40.84076" lon="14.1151433"><ele>76.0</ele><time>2026-04-15T18:17:33.309Z</time></trkpt><trkpt lat="40.8408133" lon="14.1152033"><ele>76.0</ele><time>2026-04-15T18:17:35.309Z</time></trkpt><trkpt lat="40.8408783" lon="14.11527"><ele>76.0</ele><time>2026-04-15T18:17:37.311Z</time></trkpt><trkpt lat="40.8409417" lon="14.1153233"><ele>77.66666666666666</ele><time>2026-04-15T18:17:39.305Z</time></trkpt><trkpt lat="40.8410017" lon="14.1153867"><ele>79.33333333333333</ele><time>2026-04-15T18:17:41.31Z</time></trkpt><trkpt lat="40.8410567" lon="14.1154583"><ele>81.0</ele><time>2026-04-15T18:17:43.309Z</time></trkpt><trkpt lat="40.8411283" lon="14.1155067"><ele>82.66666666666667</ele><time>2026-04-15T18:17:45.308Z</time></trkpt><trkpt lat="40.8411983" lon="14.1155467"><ele>84.33333333333334</ele><time>2026-04-15T18:17:47.307Z</time></trkpt><trkpt lat="40.8412683" lon="14.115585"><ele>86.0</ele><time>2026-04-15T18:17:49.308Z</time></trkpt><trkpt lat="40.84134" lon="14.115625"><ele>86.00000000000001</ele><time>2026-04-15T18:17:51.308Z</time></trkpt><trkpt lat="40.8414117" lon="14.1156667"><ele>86.0</ele><time>2026-04-15T18:17:53.308Z</time></trkpt><trkpt lat="40.841485" lon="14.1157083"><ele>86.0</ele><time>2026-04-15T18:17:55.31Z</time></trkpt><trkpt lat="40.8415567" lon="14.115755"><ele>86.0</ele><time>2026-04-15T18:17:57.31Z</time></trkpt><trkpt lat="40.8416217" lon="14.11579"><ele>86.0</ele><time>2026-04-15T18:17:59.309Z</time></trkpt><trkpt lat="40.841685" lon="14.115825"><ele>86.00000000000001</ele><time>2026-04-15T18:18:01.309Z</time></trkpt><trkpt lat="40.841745" lon="14.1158583"><ele>86.0</ele><time>2026-04-15T18:18:03.309Z</time></trkpt><trkpt lat="40.841805" lon="14.115895"><ele>86.0</ele><time>2026-04-15T18:18:05.31Z</time></trkpt><trkpt lat="40.8418933" lon="14.1159433"><ele>86.0</ele><time>2026-04-15T18:18:08.31Z</time></trkpt><trkpt lat="40.8419533" lon="14.1159917"><ele>86.0</ele><time>2026-04-15T18:18:10.309Z</time></trkpt><trkpt lat="40.8420133" lon="14.11605"><ele>86.0</ele><time>2026-04-15T18:18:12.31Z</time></trkpt><trkpt lat="40.8420683" lon="14.1161133"><ele>86.0</ele><time>2026-04-15T18:18:14.309Z</time></trkpt><trkpt lat="40.8421217" lon="14.116185"><ele>86.0</ele><time>2026-04-15T18:18:16.308Z</time></trkpt><trkpt lat="40.842175" lon="14.1162617"><ele>86.0</ele><time>2026-04-15T18:18:18.31Z</time></trkpt><trkpt lat="40.8422217" lon="14.11634"><ele>86.0</ele><time>2026-04-15T18:18:20.309Z</time></trkpt><trkpt lat="40.8422667" lon="14.1164267"><ele>86.0</ele><time>2026-04-15T18:18:22.309Z</time></trkpt><trkpt lat="40.8423083" lon="14.1165117"><ele>86.0</ele><time>2026-04-15T18:18:24.31Z</time></trkpt><trkpt lat="40.8423467" lon="14.1165933"><ele>86.0</ele><time>2026-04-15T18:18:26.31Z</time></trkpt><trkpt lat="40.8423733" lon="14.1166817"><ele>86.0</ele><time>2026-04-15T18:18:28.309Z</time></trkpt><trkpt lat="40.842395" lon="14.1167917"><ele>86.0</ele><time>2026-04-15T18:18:30.31Z</time></trkpt><trkpt lat="40.8424267" lon="14.1169067"><ele>86.0</ele><time>2026-04-15T18:18:32.309Z</time></trkpt><trkpt lat="40.8424783" lon="14.1170267"><ele>86.0</ele><time>2026-04-15T18:18:34.309Z</time></trkpt><trkpt lat="40.8425483" lon="14.1171167"><ele>86.0</ele><time>2026-04-15T18:18:36.309Z</time></trkpt><trkpt lat="40.8426233" lon="14.11719"><ele>86.0</ele><time>2026-04-15T18:18:38.311Z</time></trkpt><trkpt lat="40.842735" lon="14.1172783"><ele>86.0</ele><time>2026-04-15T18:18:41.31Z</time></trkpt><trkpt lat="40.8428167" lon="14.1173167"><ele>86.0</ele><time>2026-04-15T18:18:43.311Z</time></trkpt><trkpt lat="40.84289" lon="14.1173583"><ele>86.0</ele><time>2026-04-15T18:18:45.31Z</time></trkpt><trkpt lat="40.8429717" lon="14.1173867"><ele>86.0</ele><time>2026-04-15T18:18:47.31Z</time></trkpt><trkpt lat="40.84306" lon="14.1174067"><ele>86.0</ele><time>2026-04-15T18:18:49.309Z</time></trkpt><trkpt lat="40.8431567" lon="14.117435"><ele>86.0</ele><time>2026-04-15T18:18:51.309Z</time></trkpt><trkpt lat="40.843255" lon="14.1174533"><ele>85.19999999999999</ele><time>2026-04-15T18:18:53.309Z</time></trkpt><trkpt lat="40.843355" lon="14.1174767"><ele>84.39999999999999</ele><time>2026-04-15T18:18:55.31Z</time></trkpt><trkpt lat="40.843455" lon="14.1175"><ele>83.6</ele><time>2026-04-15T18:18:57.309Z</time></trkpt><trkpt lat="40.843555" lon="14.117525"><ele>82.8</ele><time>2026-04-15T18:18:59.31Z</time></trkpt><trkpt lat="40.8436567" lon="14.1175483"><ele>82.0</ele><time>2026-04-15T18:19:01.309Z</time></trkpt><trkpt lat="40.8437583" lon="14.117575"><ele>82.0</ele><time>2026-04-15T18:19:03.31Z</time></trkpt><trkpt lat="40.8438583" lon="14.1176"><ele>82.0</ele><time>2026-04-15T18:19:05.309Z</time></trkpt><trkpt lat="40.843955" lon="14.1176183"><ele>82.0</ele><time>2026-04-15T18:19:07.309Z</time></trkpt><trkpt lat="40.8440533" lon="14.1176367"><ele>82.0</ele><time>2026-04-15T18:19:09.31Z</time></trkpt><trkpt lat="40.84415" lon="14.1176483"><ele>82.0</ele><time>2026-04-15T18:19:11.308Z</time></trkpt><trkpt lat="40.8442417" lon="14.1176633"><ele>82.8</ele><time>2026-04-15T18:19:13.31Z</time></trkpt><trkpt lat="40.8443333" lon="14.1176783"><ele>83.6</ele><time>2026-04-15T18:19:15.31Z</time></trkpt><trkpt lat="40.84443" lon="14.1176983"><ele>84.39999999999999</ele><time>2026-04-15T18:19:17.309Z</time></trkpt><trkpt lat="40.844535" lon="14.11772"><ele>85.19999999999999</ele><time>2026-04-15T18:19:19.31Z</time></trkpt><trkpt lat="40.844645" lon="14.11774"><ele>86.0</ele><time>2026-04-15T18:19:21.31Z</time></trkpt><trkpt lat="40.8447517" lon="14.1177583"><ele>86.0</ele><time>2026-04-15T18:19:23.31Z</time></trkpt><trkpt lat="40.8448533" lon="14.1177783"><ele>86.0</ele><time>2026-04-15T18:19:25.31Z</time></trkpt><trkpt lat="40.8449617" lon="14.1178017"><ele>86.0</ele><time>2026-04-15T18:19:27.309Z</time></trkpt><trkpt lat="40.8450667" lon="14.1178283"><ele>86.0</ele><time>2026-04-15T18:19:29.31Z</time></trkpt><trkpt lat="40.8451717" lon="14.1178483"><ele>86.0</ele><time>2026-04-15T18:19:31.309Z</time></trkpt><trkpt lat="40.8452733" lon="14.1178717"><ele>84.6</ele><time>2026-04-15T18:19:33.309Z</time></trkpt><trkpt lat="40.845375" lon="14.1178917"><ele>83.19999999999999</ele><time>2026-04-15T18:19:35.31Z</time></trkpt><trkpt lat="40.8454767" lon="14.11791"><ele>81.80000000000001</ele><time>2026-04-15T18:19:37.31Z</time></trkpt><trkpt lat="40.84558" lon="14.11793"><ele>80.4</ele><time>2026-04-15T18:19:39.31Z</time></trkpt><trkpt lat="40.8456933" lon="14.1179517"><ele>79.0</ele><time>2026-04-15T18:19:41.31Z</time></trkpt><trkpt lat="40.8458167" lon="14.1179783"><ele>79.0</ele><time>2026-04-15T18:19:43.308Z</time></trkpt><trkpt lat="40.8459383" lon="14.1180067"><ele>79.0</ele><time>2026-04-15T18:19:45.309Z</time></trkpt><trkpt lat="40.8460017" lon="14.1180183"><ele>79.0</ele><time>2026-04-15T18:19:46.308Z</time></trkpt><trkpt lat="40.8460667" lon="14.1180317"><ele>79.0</ele><time>2026-04-15T18:19:47.309Z</time></trkpt><trkpt lat="40.84613" lon="14.1180483"><ele>79.0</ele><time>2026-04-15T18:19:48.308Z</time></trkpt><trkpt lat="40.8461933" lon="14.1180633"><ele>79.0</ele><time>2026-04-15T18:19:49.309Z</time></trkpt><trkpt lat="40.846315" lon="14.1180917"><ele>78.5</ele><time>2026-04-15T18:19:51.308Z</time></trkpt><trkpt lat="40.84638" lon="14.1181067"><ele>78.0</ele><time>2026-04-15T18:19:52.309Z</time></trkpt><trkpt lat="40.846445" lon="14.1181183"><ele>77.5</ele><time>2026-04-15T18:19:53.309Z</time></trkpt><trkpt lat="40.84651" lon="14.1181317"><ele>77.0</ele><time>2026-04-15T18:19:54.309Z</time></trkpt><trkpt lat="40.8465733" lon="14.1181433"><ele>76.5</ele><time>2026-04-15T18:19:55.309Z</time></trkpt><trkpt lat="40.8466967" lon="14.11817"><ele>76.0</ele><time>2026-04-15T18:19:57.309Z</time></trkpt><trkpt lat="40.84676" lon="14.1181833"><ele>75.85714285714285</ele><time>2026-04-15T18:19:58.308Z</time></trkpt><trkpt lat="40.846825" lon="14.1181967"><ele>75.71428571428572</ele><time>2026-04-15T18:19:59.308Z</time></trkpt><trkpt lat="40.84689" lon="14.118205"><ele>75.57142857142857</ele><time>2026-04-15T18:20:00.308Z</time></trkpt><trkpt lat="40.8469517" lon="14.1182233"><ele>75.42857142857142</ele><time>2026-04-15T18:20:01.308Z</time></trkpt><trkpt lat="40.8470167" lon="14.1182383"><ele>75.28571428571428</ele><time>2026-04-15T18:20:02.31Z</time></trkpt><trkpt lat="40.8470817" lon="14.1182533"><ele>75.14285714285714</ele><time>2026-04-15T18:20:03.308Z</time></trkpt><trkpt lat="40.8471467" lon="14.1182667"><ele>75.0</ele><time>2026-04-15T18:20:04.309Z</time></trkpt><trkpt lat="40.8472133" lon="14.1182833"><ele>74.99999999999999</ele><time>2026-04-15T18:20:05.309Z</time></trkpt><trkpt lat="40.8472817" lon="14.1182983"><ele>75.0</ele><time>2026-04-15T18:20:06.309Z</time></trkpt><trkpt lat="40.84735" lon="14.1183117"><ele>75.0</ele><time>2026-04-15T18:20:07.309Z</time></trkpt><trkpt lat="40.8474183" lon="14.118325"><ele>75.0</ele><time>2026-04-15T18:20:08.309Z</time></trkpt><trkpt lat="40.8474883" lon="14.11834"><ele>75.0</ele><time>2026-04-15T18:20:09.309Z</time></trkpt><trkpt lat="40.8475583" lon="14.1183567"><ele>74.99999999999999</ele><time>2026-04-15T18:20:10.31Z</time></trkpt><trkpt lat="40.8476283" lon="14.1183767"><ele>75.0</ele><time>2026-04-15T18:20:11.309Z</time></trkpt><trkpt lat="40.8476983" lon="14.1183933"><ele>74.85714285714285</ele><time>2026-04-15T18:20:12.308Z</time></trkpt><trkpt lat="40.8477667" lon="14.1184083"><ele>74.71428571428571</ele><time>2026-04-15T18:20:13.309Z</time></trkpt><trkpt lat="40.8478367" lon="14.118425"><ele>74.57142857142857</ele><time>2026-04-15T18:20:14.309Z</time></trkpt><trkpt lat="40.84791" lon="14.11844"><ele>74.42857142857142</ele><time>2026-04-15T18:20:15.308Z</time></trkpt><trkpt lat="40.8479817" lon="14.1184517"><ele>74.28571428571428</ele><time>2026-04-15T18:20:16.309Z</time></trkpt><trkpt lat="40.848055" lon="14.1184633"><ele>74.14285714285714</ele><time>2026-04-15T18:20:17.309Z</time></trkpt><trkpt lat="40.8481283" lon="14.1184783"><ele>74.0</ele><time>2026-04-15T18:20:18.309Z</time></trkpt><trkpt lat="40.8482017" lon="14.1184917"><ele>74.0</ele><time>2026-04-15T18:20:19.309Z</time></trkpt><trkpt lat="40.8482767" lon="14.1185083"><ele>74.0</ele><time>2026-04-15T18:20:20.309Z</time></trkpt><trkpt lat="40.8483533" lon="14.118525"><ele>74.0</ele><time>2026-04-15T18:20:21.309Z</time></trkpt><trkpt lat="40.8484283" lon="14.11854"><ele>74.0</ele><time>2026-04-15T18:20:22.309Z</time></trkpt><trkpt lat="40.8485033" lon="14.118555"><ele>74.0</ele><time>2026-04-15T18:20:23.309Z</time></trkpt><trkpt lat="40.8485817" lon="14.1185667"><ele>74.0</ele><time>2026-04-15T18:20:24.308Z</time></trkpt><trkpt lat="40.8486583" lon="14.1185833"><ele>73.66666666666667</ele><time>2026-04-15T18:20:25.308Z</time></trkpt><trkpt lat="40.848735" lon="14.1186"><ele>73.33333333333334</ele><time>2026-04-15T18:20:26.309Z</time></trkpt><trkpt lat="40.8488117" lon="14.1186133"><ele>73.0</ele><time>2026-04-15T18:20:27.308Z</time></trkpt><trkpt lat="40.84889" lon="14.1186267"><ele>72.66666666666667</ele><time>2026-04-15T18:20:28.309Z</time></trkpt><trkpt lat="40.8489683" lon="14.1186467"><ele>72.33333333333333</ele><time>2026-04-15T18:20:29.309Z</time></trkpt><trkpt lat="40.8490433" lon="14.11866"><ele>72.0</ele><time>2026-04-15T18:20:30.309Z</time></trkpt><trkpt lat="40.8491167" lon="14.1186767"><ele>72.0</ele><time>2026-04-15T18:20:31.308Z</time></trkpt><trkpt lat="40.8491917" lon="14.118695"><ele>72.0</ele><time>2026-04-15T18:20:32.307Z</time></trkpt><trkpt lat="40.849265" lon="14.11871"><ele>72.0</ele><time>2026-04-15T18:20:33.308Z</time></trkpt><trkpt lat="40.84934" lon="14.1187233"><ele>72.0</ele><time>2026-04-15T18:20:34.308Z</time></trkpt><trkpt lat="40.8494283" lon="14.1187367"><ele>72.0</ele><time>2026-04-15T18:20:35.309Z</time></trkpt><trkpt lat="40.8495083" lon="14.118755"><ele>72.0</ele><time>2026-04-15T18:20:36.309Z</time></trkpt><trkpt lat="40.8495917" lon="14.11877"><ele>71.66666666666667</ele><time>2026-04-15T18:20:37.309Z</time></trkpt><trkpt lat="40.84967" lon="14.1187883"><ele>71.33333333333333</ele><time>2026-04-15T18:20:38.308Z</time></trkpt><trkpt lat="40.8497483" lon="14.1188067"><ele>71.0</ele><time>2026-04-15T18:20:39.309Z</time></trkpt><trkpt lat="40.84983" lon="14.1188233"><ele>70.66666666666666</ele><time>2026-04-15T18:20:40.309Z</time></trkpt><trkpt lat="40.84991" lon="14.1188317"><ele>70.33333333333333</ele><time>2026-04-15T18:20:41.309Z</time></trkpt><trkpt lat="40.84999" lon="14.11885"><ele>70.0</ele><time>2026-04-15T18:20:42.309Z</time></trkpt><trkpt lat="40.8500733" lon="14.1188683"><ele>69.33333333333333</ele><time>2026-04-15T18:20:43.31Z</time></trkpt><trkpt lat="40.8501517" lon="14.1188883"><ele>68.66666666666666</ele><time>2026-04-15T18:20:44.309Z</time></trkpt><trkpt lat="40.850235" lon="14.11891"><ele>68.0</ele><time>2026-04-15T18:20:45.309Z</time></trkpt><trkpt lat="40.8503167" lon="14.1189283"><ele>67.33333333333333</ele><time>2026-04-15T18:20:46.308Z</time></trkpt><trkpt lat="40.8503983" lon="14.118945"><ele>66.66666666666667</ele><time>2026-04-15T18:20:47.308Z</time></trkpt><trkpt lat="40.8504783" lon="14.1189617"><ele>66.0</ele><time>2026-04-15T18:20:48.309Z</time></trkpt><trkpt lat="40.85056" lon="14.1189783"><ele>66.0</ele><time>2026-04-15T18:20:49.309Z</time></trkpt><trkpt lat="40.8506383" lon="14.1189967"><ele>66.0</ele><time>2026-04-15T18:20:50.31Z</time></trkpt><trkpt lat="40.8507183" lon="14.1190167"><ele>66.0</ele><time>2026-04-15T18:20:51.309Z</time></trkpt><trkpt lat="40.8507983" lon="14.1190333"><ele>66.0</ele><time>2026-04-15T18:20:52.309Z</time></trkpt><trkpt lat="40.85088" lon="14.1190467"><ele>66.0</ele><time>2026-04-15T18:20:53.308Z</time></trkpt><trkpt lat="40.8509633" lon="14.11907"><ele>66.0</ele><time>2026-04-15T18:20:54.309Z</time></trkpt><trkpt lat="40.8510433" lon="14.1190883"><ele>66.0</ele><time>2026-04-15T18:20:55.309Z</time></trkpt><trkpt lat="40.8511233" lon="14.1191067"><ele>66.0</ele><time>2026-04-15T18:20:56.31Z</time></trkpt><trkpt lat="40.851205" lon="14.1191233"><ele>66.0</ele><time>2026-04-15T18:20:57.309Z</time></trkpt><trkpt lat="40.8512867" lon="14.1191433"><ele>66.0</ele><time>2026-04-15T18:20:58.308Z</time></trkpt><trkpt lat="40.8513683" lon="14.1191617"><ele>66.0</ele><time>2026-04-15T18:20:59.309Z</time></trkpt><trkpt lat="40.85145" lon="14.1191783"><ele>66.0</ele><time>2026-04-15T18:21:00.31Z</time></trkpt><trkpt lat="40.8515317" lon="14.1191967"><ele>66.0</ele><time>2026-04-15T18:21:01.309Z</time></trkpt><trkpt lat="40.8516117" lon="14.1192117"><ele>66.0</ele><time>2026-04-15T18:21:02.31Z</time></trkpt><trkpt lat="40.8516933" lon="14.11923"><ele>66.0</ele><time>2026-04-15T18:21:03.309Z</time></trkpt><trkpt lat="40.8517733" lon="14.1192467"><ele>66.0</ele><time>2026-04-15T18:21:04.309Z</time></trkpt><trkpt lat="40.8518517" lon="14.11926"><ele>66.0</ele><time>2026-04-15T18:21:05.309Z</time></trkpt><trkpt lat="40.8519317" lon="14.119275"><ele>66.0</ele><time>2026-04-15T18:21:06.309Z</time></trkpt><trkpt lat="40.85201" lon="14.11929"><ele>66.0</ele><time>2026-04-15T18:21:07.308Z</time></trkpt><trkpt lat="40.85209" lon="14.1193083"><ele>66.0</ele><time>2026-04-15T18:21:08.309Z</time></trkpt><trkpt lat="40.85217" lon="14.1193233"><ele>66.0</ele><time>2026-04-15T18:21:09.309Z</time></trkpt><trkpt lat="40.85225" lon="14.119335"><ele>66.0</ele><time>2026-04-15T18:21:10.309Z</time></trkpt><trkpt lat="40.85233" lon="14.1193467"><ele>66.0</ele><time>2026-04-15T18:21:11.309Z</time></trkpt><trkpt lat="40.8524083" lon="14.1193633"><ele>66.0</ele><time>2026-04-15T18:21:12.309Z</time></trkpt><trkpt lat="40.8524867" lon="14.1193783"><ele>66.0</ele><time>2026-04-15T18:21:13.309Z</time></trkpt><trkpt lat="40.8525667" lon="14.119395"><ele>66.0</ele><time>2026-04-15T18:21:14.31Z</time></trkpt><trkpt lat="40.8526483" lon="14.119415"><ele>66.0</ele><time>2026-04-15T18:21:15.307Z</time></trkpt><trkpt lat="40.8527283" lon="14.119435"><ele>66.0</ele><time>2026-04-15T18:21:16.309Z</time></trkpt><trkpt lat="40.8528083" lon="14.1194517"><ele>66.0</ele><time>2026-04-15T18:21:17.31Z</time></trkpt><trkpt lat="40.8528867" lon="14.11947"><ele>66.0</ele><time>2026-04-15T18:21:18.309Z</time></trkpt><trkpt lat="40.8529683" lon="14.1194917"><ele>65.83333333333333</ele><time>2026-04-15T18:21:19.309Z</time></trkpt><trkpt lat="40.8530533" lon="14.1195117"><ele>65.66666666666667</ele><time>2026-04-15T18:21:20.308Z</time></trkpt><trkpt lat="40.85314" lon="14.1195333"><ele>65.5</ele><time>2026-04-15T18:21:21.309Z</time></trkpt><trkpt lat="40.853225" lon="14.1195517"><ele>65.33333333333334</ele><time>2026-04-15T18:21:22.309Z</time></trkpt><trkpt lat="40.8533067" lon="14.1195683"><ele>65.16666666666667</ele><time>2026-04-15T18:21:23.309Z</time></trkpt><trkpt lat="40.8533883" lon="14.1195867"><ele>65.0</ele><time>2026-04-15T18:21:24.309Z</time></trkpt><trkpt lat="40.8534667" lon="14.11961"><ele>64.16666666666667</ele><time>2026-04-15T18:21:25.309Z</time></trkpt><trkpt lat="40.853545" lon="14.1196317"><ele>63.333333333333336</ele><time>2026-04-15T18:21:26.309Z</time></trkpt><trkpt lat="40.8536233" lon="14.1196517"><ele>62.5</ele><time>2026-04-15T18:21:27.309Z</time></trkpt><trkpt lat="40.853705" lon="14.1196717"><ele>61.66666666666667</ele><time>2026-04-15T18:21:28.308Z</time></trkpt><trkpt lat="40.8537867" lon="14.1196817"><ele>60.833333333333336</ele><time>2026-04-15T18:21:29.309Z</time></trkpt><trkpt lat="40.8538683" lon="14.119695"><ele>60.0</ele><time>2026-04-15T18:21:30.305Z</time></trkpt><trkpt lat="40.853945" lon="14.1197117"><ele>60.0</ele><time>2026-04-15T18:21:31.309Z</time></trkpt><trkpt lat="40.8540233" lon="14.1197267"><ele>60.0</ele><time>2026-04-15T18:21:32.309Z</time></trkpt><trkpt lat="40.8540983" lon="14.119745"><ele>60.0</ele><time>2026-04-15T18:21:33.309Z</time></trkpt><trkpt lat="40.854175" lon="14.11976"><ele>60.0</ele><time>2026-04-15T18:21:34.308Z</time></trkpt><trkpt lat="40.85425" lon="14.1197783"><ele>60.0</ele><time>2026-04-15T18:21:35.308Z</time></trkpt><trkpt lat="40.854325" lon="14.119795"><ele>60.0</ele><time>2026-04-15T18:21:36.309Z</time></trkpt><trkpt lat="40.8544" lon="14.1198133"><ele>59.833333333333336</ele><time>2026-04-15T18:21:37.308Z</time></trkpt><trkpt lat="40.8544717" lon="14.1198333"><ele>59.66666666666667</ele><time>2026-04-15T18:21:38.309Z</time></trkpt><trkpt lat="40.8545467" lon="14.1198517"><ele>59.5</ele><time>2026-04-15T18:21:39.308Z</time></trkpt><trkpt lat="40.8546233" lon="14.1198683"><ele>59.333333333333336</ele><time>2026-04-15T18:21:40.309Z</time></trkpt><trkpt lat="40.8546967" lon="14.1198867"><ele>59.16666666666667</ele><time>2026-04-15T18:21:41.309Z</time></trkpt><trkpt lat="40.8547717" lon="14.1199017"><ele>59.0</ele><time>2026-04-15T18:21:42.309Z</time></trkpt><trkpt lat="40.8548467" lon="14.1199183"><ele>59.0</ele><time>2026-04-15T18:21:43.308Z</time></trkpt><trkpt lat="40.8549183" lon="14.119935"><ele>59.0</ele><time>2026-04-15T18:21:44.309Z</time></trkpt><trkpt lat="40.8549917" lon="14.1199483"><ele>59.0</ele><time>2026-04-15T18:21:45.308Z</time></trkpt><trkpt lat="40.8550633" lon="14.1199617"><ele>59.0</ele><time>2026-04-15T18:21:46.309Z</time></trkpt><trkpt lat="40.855135" lon="14.119975"><ele>59.0</ele><time>2026-04-15T18:21:47.305Z</time></trkpt><trkpt lat="40.8552083" lon="14.1199883"><ele>59.0</ele><time>2026-04-15T18:21:48.308Z</time></trkpt><trkpt lat="40.8552817" lon="14.1200017"><ele>59.0</ele><time>2026-04-15T18:21:49.307Z</time></trkpt><trkpt lat="40.8553517" lon="14.1200183"><ele>58.857142857142854</ele><time>2026-04-15T18:21:50.306Z</time></trkpt><trkpt lat="40.855425" lon="14.1200367"><ele>58.71428571428572</ele><time>2026-04-15T18:21:51.308Z</time></trkpt><trkpt lat="40.8554933" lon="14.12005"><ele>58.57142857142858</ele><time>2026-04-15T18:21:52.306Z</time></trkpt><trkpt lat="40.8555633" lon="14.120065"><ele>58.42857142857143</ele><time>2026-04-15T18:21:53.306Z</time></trkpt><trkpt lat="40.8556317" lon="14.12008"><ele>58.28571428571429</ele><time>2026-04-15T18:21:54.31Z</time></trkpt><trkpt lat="40.8557017" lon="14.1200917"><ele>58.14285714285715</ele><time>2026-04-15T18:21:55.307Z</time></trkpt><trkpt lat="40.8557683" lon="14.1201033"><ele>58.00000000000001</ele><time>2026-04-15T18:21:56.309Z</time></trkpt><trkpt lat="40.855835" lon="14.120115"><ele>58.00000000000001</ele><time>2026-04-15T18:21:57.31Z</time></trkpt><trkpt lat="40.8559033" lon="14.1201283"><ele>58.0</ele><time>2026-04-15T18:21:58.309Z</time></trkpt><trkpt lat="40.85597" lon="14.1201417"><ele>58.00000000000001</ele><time>2026-04-15T18:21:59.31Z</time></trkpt><trkpt lat="40.8560367" lon="14.120155"><ele>58.00000000000001</ele><time>2026-04-15T18:22:00.31Z</time></trkpt><trkpt lat="40.8561067" lon="14.1201717"><ele>58.0</ele><time>2026-04-15T18:22:01.309Z</time></trkpt><trkpt lat="40.8561767" lon="14.12019"><ele>58.00000000000001</ele><time>2026-04-15T18:22:02.309Z</time></trkpt><trkpt lat="40.856245" lon="14.1202033"><ele>58.00000000000001</ele><time>2026-04-15T18:22:03.309Z</time></trkpt><trkpt lat="40.8563117" lon="14.1202133"><ele>57.85714285714286</ele><time>2026-04-15T18:22:04.307Z</time></trkpt><trkpt lat="40.8563783" lon="14.120225"><ele>57.714285714285715</ele><time>2026-04-15T18:22:05.31Z</time></trkpt><trkpt lat="40.8564467" lon="14.1202383"><ele>57.57142857142857</ele><time>2026-04-15T18:22:06.308Z</time></trkpt><trkpt lat="40.856515" lon="14.1202517"><ele>57.42857142857143</ele><time>2026-04-15T18:22:07.309Z</time></trkpt><trkpt lat="40.8565817" lon="14.120265"><ele>57.28571428571428</ele><time>2026-04-15T18:22:08.31Z</time></trkpt><trkpt lat="40.856645" lon="14.1202767"><ele>57.14285714285714</ele><time>2026-04-15T18:22:09.308Z</time></trkpt><trkpt lat="40.85671" lon="14.120285"><ele>57.0</ele><time>2026-04-15T18:22:10.309Z</time></trkpt><trkpt lat="40.856775" lon="14.1202933"><ele>56.8</ele><time>2026-04-15T18:22:11.31Z</time></trkpt><trkpt lat="40.8568417" lon="14.120305"><ele>56.6</ele><time>2026-04-15T18:22:12.309Z</time></trkpt><trkpt lat="40.856905" lon="14.1203167"><ele>56.39999999999999</ele><time>2026-04-15T18:22:13.309Z</time></trkpt><trkpt lat="40.8570283" lon="14.120345"><ele>56.199999999999996</ele><time>2026-04-15T18:22:15.307Z</time></trkpt><trkpt lat="40.8571433" lon="14.12037"><ele>56.0</ele><time>2026-04-15T18:22:17.306Z</time></trkpt><trkpt lat="40.8572683" lon="14.1204"><ele>56.0</ele><time>2026-04-15T18:22:19.308Z</time></trkpt><trkpt lat="40.8573917" lon="14.12043"><ele>55.99999999999999</ele><time>2026-04-15T18:22:21.305Z</time></trkpt><trkpt lat="40.857515" lon="14.1204567"><ele>55.99999999999999</ele><time>2026-04-15T18:22:23.306Z</time></trkpt><trkpt lat="40.85758" lon="14.1204767"><ele>56.0</ele><time>2026-04-15T18:22:24.309Z</time></trkpt><trkpt lat="40.857645" lon="14.1204883"><ele>56.0</ele><time>2026-04-15T18:22:25.307Z</time></trkpt><trkpt lat="40.8577117" lon="14.1205017"><ele>56.00000000000001</ele><time>2026-04-15T18:22:26.309Z</time></trkpt><trkpt lat="40.857775" lon="14.1205167"><ele>56.0</ele><time>2026-04-15T18:22:27.308Z</time></trkpt><trkpt lat="40.8578983" lon="14.1205467"><ele>56.0</ele><time>2026-04-15T18:22:29.31Z</time></trkpt><trkpt lat="40.85796" lon="14.1205633"><ele>56.0</ele><time>2026-04-15T18:22:30.308Z</time></trkpt><trkpt lat="40.8580233" lon="14.1205783"><ele>56.00000000000001</ele><time>2026-04-15T18:22:31.308Z</time></trkpt><trkpt lat="40.8580867" lon="14.1205917"><ele>56.0</ele><time>2026-04-15T18:22:32.31Z</time></trkpt><trkpt lat="40.85821" lon="14.12062"><ele>56.0</ele><time>2026-04-15T18:22:34.309Z</time></trkpt><trkpt lat="40.8582733" lon="14.1206317"><ele>55.99999999999999</ele><time>2026-04-15T18:22:35.309Z</time></trkpt><trkpt lat="40.8583933" lon="14.1206533"><ele>55.99999999999999</ele><time>2026-04-15T18:22:37.309Z</time></trkpt><trkpt lat="40.8585167" lon="14.12068"><ele>56.0</ele><time>2026-04-15T18:22:39.308Z</time></trkpt><trkpt lat="40.85864" lon="14.120705"><ele>56.0</ele><time>2026-04-15T18:22:41.308Z</time></trkpt><trkpt lat="40.8587633" lon="14.12073"><ele>56.00000000000001</ele><time>2026-04-15T18:22:43.31Z</time></trkpt><trkpt lat="40.8588267" lon="14.12074"><ele>56.0</ele><time>2026-04-15T18:22:44.309Z</time></trkpt><trkpt lat="40.85889" lon="14.1207567"><ele>56.0</ele><time>2026-04-15T18:22:45.31Z</time></trkpt><trkpt lat="40.859015" lon="14.1207817"><ele>56.0</ele><time>2026-04-15T18:22:47.306Z</time></trkpt><trkpt lat="40.8590817" lon="14.1207967"><ele>56.00000000000001</ele><time>2026-04-15T18:22:48.306Z</time></trkpt><trkpt lat="40.8591483" lon="14.12081"><ele>56.0</ele><time>2026-04-15T18:22:49.308Z</time></trkpt><trkpt lat="40.8592133" lon="14.1208233"><ele>56.00000000000001</ele><time>2026-04-15T18:22:50.307Z</time></trkpt><trkpt lat="40.8592767" lon="14.1208367"><ele>56.0</ele><time>2026-04-15T18:22:51.306Z</time></trkpt><trkpt lat="40.8593433" lon="14.1208517"><ele>56.0</ele><time>2026-04-15T18:22:52.305Z</time></trkpt><trkpt lat="40.8594083" lon="14.120865"><ele>56.0</ele><time>2026-04-15T18:22:53.307Z</time></trkpt><trkpt lat="40.8595317" lon="14.1208933"><ele>56.00000000000001</ele><time>2026-04-15T18:22:55.309Z</time></trkpt><trkpt lat="40.859655" lon="14.120925"><ele>56.0</ele><time>2026-04-15T18:22:57.309Z</time></trkpt><trkpt lat="40.8597183" lon="14.120945"><ele>55.714285714285715</ele><time>2026-04-15T18:22:58.309Z</time></trkpt><trkpt lat="40.8597817" lon="14.12096"><ele>55.42857142857143</ele><time>2026-04-15T18:22:59.31Z</time></trkpt><trkpt lat="40.8599" lon="14.121"><ele>55.14285714285714</ele><time>2026-04-15T18:23:01.308Z</time></trkpt><trkpt lat="40.859965" lon="14.1210217"><ele>54.85714285714286</ele><time>2026-04-15T18:23:02.31Z</time></trkpt><trkpt lat="40.8600267" lon="14.1210433"><ele>54.57142857142857</ele><time>2026-04-15T18:23:03.309Z</time></trkpt><trkpt lat="40.8600883" lon="14.121065"><ele>54.285714285714285</ele><time>2026-04-15T18:23:04.308Z</time></trkpt><trkpt lat="40.8601517" lon="14.1210867"><ele>54.0</ele><time>2026-04-15T18:23:05.309Z</time></trkpt><trkpt lat="40.8602133" lon="14.12111"><ele>54.0</ele><time>2026-04-15T18:23:06.309Z</time></trkpt><trkpt lat="40.86033" lon="14.12116"><ele>54.0</ele><time>2026-04-15T18:23:08.309Z</time></trkpt><trkpt lat="40.8604467" lon="14.1212133"><ele>54.0</ele><time>2026-04-15T18:23:10.308Z</time></trkpt><trkpt lat="40.8605617" lon="14.1212717"><ele>54.0</ele><time>2026-04-15T18:23:12.307Z</time></trkpt><trkpt lat="40.860675" lon="14.1213183"><ele>54.0</ele><time>2026-04-15T18:23:14.31Z</time></trkpt><trkpt lat="40.8607833" lon="14.121375"><ele>54.0</ele><time>2026-04-15T18:23:16.309Z</time></trkpt><trkpt lat="40.8608983" lon="14.1214283"><ele>54.0</ele><time>2026-04-15T18:23:18.308Z</time></trkpt><trkpt lat="40.8610117" lon="14.12147"><ele>54.0</ele><time>2026-04-15T18:23:20.307Z</time></trkpt><trkpt lat="40.8611217" lon="14.12153"><ele>54.5</ele><time>2026-04-15T18:23:22.305Z</time></trkpt><trkpt lat="40.861235" lon="14.1215917"><ele>55.0</ele><time>2026-04-15T18:23:24.31Z</time></trkpt><trkpt lat="40.8613433" lon="14.121645"><ele>55.5</ele><time>2026-04-15T18:23:26.309Z</time></trkpt><trkpt lat="40.86145" lon="14.1217"><ele>56.0</ele><time>2026-04-15T18:23:28.307Z</time></trkpt><trkpt lat="40.8615583" lon="14.121755"><ele>56.0</ele><time>2026-04-15T18:23:30.309Z</time></trkpt><trkpt lat="40.8616583" lon="14.12181"><ele>56.0</ele><time>2026-04-15T18:23:32.31Z</time></trkpt><trkpt lat="40.8617633" lon="14.1218717"><ele>56.0</ele><time>2026-04-15T18:23:34.309Z</time></trkpt><trkpt lat="40.861875" lon="14.12193"><ele>56.0</ele><time>2026-04-15T18:23:36.307Z</time></trkpt><trkpt lat="40.8619917" lon="14.12199"><ele>55.66666666666667</ele><time>2026-04-15T18:23:38.309Z</time></trkpt><trkpt lat="40.86205" lon="14.1220233"><ele>55.333333333333336</ele><time>2026-04-15T18:23:39.309Z</time></trkpt><trkpt lat="40.86211" lon="14.1220567"><ele>55.0</ele><time>2026-04-15T18:23:40.309Z</time></trkpt><trkpt lat="40.8622233" lon="14.12212"><ele>54.66666666666667</ele><time>2026-04-15T18:23:42.308Z</time></trkpt><trkpt lat="40.8622817" lon="14.1221517"><ele>54.333333333333336</ele><time>2026-04-15T18:23:43.31Z</time></trkpt><trkpt lat="40.86234" lon="14.122185"><ele>54.0</ele><time>2026-04-15T18:23:44.308Z</time></trkpt><trkpt lat="40.8624533" lon="14.122245"><ele>54.0</ele><time>2026-04-15T18:23:46.308Z</time></trkpt><trkpt lat="40.8625667" lon="14.122305"><ele>54.0</ele><time>2026-04-15T18:23:48.306Z</time></trkpt><trkpt lat="40.8626767" lon="14.12236"><ele>54.0</ele><time>2026-04-15T18:23:50.306Z</time></trkpt><trkpt lat="40.862785" lon="14.1224167"><ele>54.0</ele><time>2026-04-15T18:23:52.307Z</time></trkpt><trkpt lat="40.862895" lon="14.1224767"><ele>54.25</ele><time>2026-04-15T18:23:54.309Z</time></trkpt><trkpt lat="40.863005" lon="14.1225367"><ele>54.5</ele><time>2026-04-15T18:23:56.309Z</time></trkpt><trkpt lat="40.8631117" lon="14.122585"><ele>54.75</ele><time>2026-04-15T18:23:58.309Z</time></trkpt><trkpt lat="40.86322" lon="14.12264"><ele>55.0</ele><time>2026-04-15T18:24:00.308Z</time></trkpt><trkpt lat="40.8633217" lon="14.12269"><ele>55.0</ele><time>2026-04-15T18:24:02.31Z</time></trkpt><trkpt lat="40.8634217" lon="14.1227467"><ele>55.0</ele><time>2026-04-15T18:24:04.31Z</time></trkpt><trkpt lat="40.8635283" lon="14.1227967"><ele>55.0</ele><time>2026-04-15T18:24:06.309Z</time></trkpt><trkpt lat="40.8636317" lon="14.122845"><ele>55.0</ele><time>2026-04-15T18:24:08.31Z</time></trkpt><trkpt lat="40.8637317" lon="14.1228967"><ele>55.0</ele><time>2026-04-15T18:24:10.308Z</time></trkpt><trkpt lat="40.86383" lon="14.1229583"><ele>54.8</ele><time>2026-04-15T18:24:12.31Z</time></trkpt><trkpt lat="40.8639317" lon="14.1230133"><ele>54.6</ele><time>2026-04-15T18:24:14.31Z</time></trkpt><trkpt lat="40.8640333" lon="14.123065"><ele>54.400000000000006</ele><time>2026-04-15T18:24:16.309Z</time></trkpt><trkpt lat="40.864135" lon="14.1231183"><ele>54.2</ele><time>2026-04-15T18:24:18.307Z</time></trkpt><trkpt lat="40.864235" lon="14.1231717"><ele>54.0</ele><time>2026-04-15T18:24:20.308Z</time></trkpt><trkpt lat="40.8643383" lon="14.1232183"><ele>54.2</ele><time>2026-04-15T18:24:22.306Z</time></trkpt><trkpt lat="40.8644433" lon="14.1232683"><ele>54.400000000000006</ele><time>2026-04-15T18:24:24.31Z</time></trkpt><trkpt lat="40.864545" lon="14.1233217"><ele>54.6</ele><time>2026-04-15T18:24:26.309Z</time></trkpt><trkpt lat="40.8646483" lon="14.1233717"><ele>54.8</ele><time>2026-04-15T18:24:28.306Z</time></trkpt><trkpt lat="40.8647533" lon="14.123425"><ele>55.0</ele><time>2026-04-15T18:24:30.307Z</time></trkpt><trkpt lat="40.8648583" lon="14.1234783"><ele>55.0</ele><time>2026-04-15T18:24:32.307Z</time></trkpt><trkpt lat="40.8649633" lon="14.1235317"><ele>55.0</ele><time>2026-04-15T18:24:34.306Z</time></trkpt><trkpt lat="40.865065" lon="14.12359"><ele>55.0</ele><time>2026-04-15T18:24:36.307Z</time></trkpt><trkpt lat="40.86517" lon="14.1236433"><ele>55.0</ele><time>2026-04-15T18:24:38.306Z</time></trkpt><trkpt lat="40.86527" lon="14.1236967"><ele>55.0</ele><time>2026-04-15T18:24:40.307Z</time></trkpt><trkpt lat="40.8653683" lon="14.1237483"><ele>55.2</ele><time>2026-04-15T18:24:42.308Z</time></trkpt><trkpt lat="40.865465" lon="14.1238017"><ele>55.4</ele><time>2026-04-15T18:24:44.306Z</time></trkpt><trkpt lat="40.8655667" lon="14.1238517"><ele>55.599999999999994</ele><time>2026-04-15T18:24:46.309Z</time></trkpt><trkpt lat="40.86567" lon="14.1239033"><ele>55.8</ele><time>2026-04-15T18:24:48.308Z</time></trkpt><trkpt lat="40.8657667" lon="14.123955"><ele>56.0</ele><time>2026-04-15T18:24:50.307Z</time></trkpt><trkpt lat="40.865865" lon="14.1240083"><ele>56.599999999999994</ele><time>2026-04-15T18:24:52.306Z</time></trkpt><trkpt lat="40.8659633" lon="14.1240533"><ele>57.199999999999996</ele><time>2026-04-15T18:24:54.306Z</time></trkpt><trkpt lat="40.866065" lon="14.1241"><ele>57.800000000000004</ele><time>2026-04-15T18:24:56.307Z</time></trkpt><trkpt lat="40.8661617" lon="14.1241483"><ele>58.400000000000006</ele><time>2026-04-15T18:24:58.307Z</time></trkpt><trkpt lat="40.8662583" lon="14.1242033"><ele>59.0</ele><time>2026-04-15T18:25:00.307Z</time></trkpt><trkpt lat="40.866355" lon="14.1242583"><ele>59.2</ele><time>2026-04-15T18:25:02.31Z</time></trkpt><trkpt lat="40.866455" lon="14.1243117"><ele>59.400000000000006</ele><time>2026-04-15T18:25:04.309Z</time></trkpt><trkpt lat="40.8665583" lon="14.12436"><ele>59.6</ele><time>2026-04-15T18:25:06.309Z</time></trkpt><trkpt lat="40.8666617" lon="14.1244133"><ele>59.8</ele><time>2026-04-15T18:25:08.31Z</time></trkpt><trkpt lat="40.8667667" lon="14.1244683"><ele>60.0</ele><time>2026-04-15T18:25:10.31Z</time></trkpt><trkpt lat="40.8668717" lon="14.1245183"><ele>64.0</ele><time>2026-04-15T18:25:12.309Z</time></trkpt><trkpt lat="40.8669767" lon="14.12458"><ele>68.0</ele><time>2026-04-15T18:25:14.31Z</time></trkpt><trkpt lat="40.8670867" lon="14.1246383"><ele>72.0</ele><time>2026-04-15T18:25:16.31Z</time></trkpt><trkpt lat="40.8672017" lon="14.1246767"><ele>76.0</ele><time>2026-04-15T18:25:18.309Z</time></trkpt><trkpt lat="40.867315" lon="14.1246983"><ele>76.0</ele><time>2026-04-15T18:25:20.308Z</time></trkpt><trkpt lat="40.8674267" lon="14.1246933"><ele>76.0</ele><time>2026-04-15T18:25:22.308Z</time></trkpt><trkpt lat="40.867535" lon="14.1246717"><ele>76.0</ele><time>2026-04-15T18:25:24.31Z</time></trkpt><trkpt lat="40.8676433" lon="14.12465"><ele>76.0</ele><time>2026-04-15T18:25:26.31Z</time></trkpt><trkpt lat="40.8677433" lon="14.1246333"><ele>76.0</ele><time>2026-04-15T18:25:28.305Z</time></trkpt><trkpt lat="40.8678467" lon="14.1246117"><ele>78.19999999999999</ele><time>2026-04-15T18:25:30.308Z</time></trkpt><trkpt lat="40.8679567" lon="14.12459"><ele>80.39999999999999</ele><time>2026-04-15T18:25:32.307Z</time></trkpt><trkpt lat="40.86807" lon="14.12457"><ele>82.6</ele><time>2026-04-15T18:25:34.306Z</time></trkpt><trkpt lat="40.8681783" lon="14.1245533"><ele>84.8</ele><time>2026-04-15T18:25:36.306Z</time></trkpt><trkpt lat="40.8682883" lon="14.1245267"><ele>87.0</ele><time>2026-04-15T18:25:38.306Z</time></trkpt><trkpt lat="40.8684" lon="14.1244917"><ele>84.0</ele><time>2026-04-15T18:25:40.306Z</time></trkpt><trkpt lat="40.86852" lon="14.1244383"><ele>81.0</ele><time>2026-04-15T18:25:42.306Z</time></trkpt><trkpt lat="40.8685833" lon="14.1244183"><ele>78.0</ele><time>2026-04-15T18:25:43.307Z</time></trkpt><trkpt lat="40.8686517" lon="14.1244"><ele>75.0</ele><time>2026-04-15T18:25:44.307Z</time></trkpt><trkpt lat="40.8687217" lon="14.1243767"><ele>72.0</ele><time>2026-04-15T18:25:45.307Z</time></trkpt><trkpt lat="40.8687967" lon="14.1243517"><ele>69.0</ele><time>2026-04-15T18:25:46.307Z</time></trkpt><trkpt lat="40.8688683" lon="14.1243267"><ele>69.0</ele><time>2026-04-15T18:25:47.306Z</time></trkpt><trkpt lat="40.868945" lon="14.1242983"><ele>69.0</ele><time>2026-04-15T18:25:48.306Z</time></trkpt><trkpt lat="40.8690233" lon="14.12427"><ele>69.0</ele><time>2026-04-15T18:25:49.306Z</time></trkpt><trkpt lat="40.869105" lon="14.1242467"><ele>69.0</ele><time>2026-04-15T18:25:50.308Z</time></trkpt><trkpt lat="40.8691833" lon="14.1242217"><ele>69.0</ele><time>2026-04-15T18:25:51.306Z</time></trkpt><trkpt lat="40.869265" lon="14.1241933"><ele>69.0</ele><time>2026-04-15T18:25:52.308Z</time></trkpt><trkpt lat="40.8693467" lon="14.1241683"><ele>67.16666666666667</ele><time>2026-04-15T18:25:53.308Z</time></trkpt><trkpt lat="40.8694317" lon="14.1241417"><ele>65.33333333333333</ele><time>2026-04-15T18:25:54.308Z</time></trkpt><trkpt lat="40.8695167" lon="14.1241133"><ele>63.5</ele><time>2026-04-15T18:25:55.307Z</time></trkpt><trkpt lat="40.8696" lon="14.124085"><ele>61.666666666666664</ele><time>2026-04-15T18:25:56.31Z</time></trkpt><trkpt lat="40.8696867" lon="14.1240567"><ele>59.83333333333333</ele><time>2026-04-15T18:25:57.31Z</time></trkpt><trkpt lat="40.8697683" lon="14.1240267"><ele>58.0</ele><time>2026-04-15T18:25:58.308Z</time></trkpt><trkpt lat="40.8698533" lon="14.124"><ele>57.99999999999999</ele><time>2026-04-15T18:25:59.31Z</time></trkpt><trkpt lat="40.8699383" lon="14.1239733"><ele>58.0</ele><time>2026-04-15T18:26:00.309Z</time></trkpt><trkpt lat="40.8700267" lon="14.123945"><ele>58.0</ele><time>2026-04-15T18:26:01.31Z</time></trkpt><trkpt lat="40.8701117" lon="14.1239133"><ele>58.0</ele><time>2026-04-15T18:26:02.309Z</time></trkpt><trkpt lat="40.8701983" lon="14.123885"><ele>57.99999999999999</ele><time>2026-04-15T18:26:03.31Z</time></trkpt><trkpt lat="40.8702833" lon="14.123855"><ele>58.0</ele><time>2026-04-15T18:26:04.308Z</time></trkpt><trkpt lat="40.87037" lon="14.12382"><ele>56.666666666666664</ele><time>2026-04-15T18:26:05.31Z</time></trkpt><trkpt lat="40.87046" lon="14.1237883"><ele>55.33333333333333</ele><time>2026-04-15T18:26:06.309Z</time></trkpt><trkpt lat="40.870545" lon="14.1237617"><ele>54.0</ele><time>2026-04-15T18:26:07.309Z</time></trkpt><trkpt lat="40.8706267" lon="14.1237333"><ele>52.66666666666667</ele><time>2026-04-15T18:26:08.31Z</time></trkpt><trkpt lat="40.870705" lon="14.1237033"><ele>51.333333333333336</ele><time>2026-04-15T18:26:09.309Z</time></trkpt><trkpt lat="40.8707833" lon="14.1236767"><ele>50.0</ele><time>2026-04-15T18:26:10.309Z</time></trkpt><trkpt lat="40.8708617" lon="14.12366"><ele>49.66666666666667</ele><time>2026-04-15T18:26:11.31Z</time></trkpt><trkpt lat="40.870945" lon="14.123645"><ele>49.333333333333336</ele><time>2026-04-15T18:26:12.31Z</time></trkpt><trkpt lat="40.8710283" lon="14.1236233"><ele>49.0</ele><time>2026-04-15T18:26:13.306Z</time></trkpt><trkpt lat="40.871105" lon="14.1236"><ele>48.66666666666667</ele><time>2026-04-15T18:26:14.31Z</time></trkpt><trkpt lat="40.8711783" lon="14.1235733"><ele>48.333333333333336</ele><time>2026-04-15T18:26:15.309Z</time></trkpt><trkpt lat="40.8712467" lon="14.1235483"><ele>48.0</ele><time>2026-04-15T18:26:16.306Z</time></trkpt><trkpt lat="40.87136" lon="14.123505"><ele>48.0</ele><time>2026-04-15T18:26:18.307Z</time></trkpt><trkpt lat="40.8714583" lon="14.12345"><ele>48.0</ele><time>2026-04-15T18:26:20.31Z</time></trkpt><trkpt lat="40.8715567" lon="14.1234283"><ele>48.0</ele><time>2026-04-15T18:26:22.308Z</time></trkpt><trkpt lat="40.8716733" lon="14.1233983"><ele>48.0</ele><time>2026-04-15T18:26:24.308Z</time></trkpt><trkpt lat="40.87174" lon="14.1233833"><ele>48.0</ele><time>2026-04-15T18:26:25.309Z</time></trkpt><trkpt lat="40.8718633" lon="14.1233417"><ele>47.42857142857142</ele><time>2026-04-15T18:26:27.309Z</time></trkpt><trkpt lat="40.8719317" lon="14.1233233"><ele>46.857142857142854</ele><time>2026-04-15T18:26:28.31Z</time></trkpt><trkpt lat="40.872" lon="14.1233"><ele>46.285714285714285</ele><time>2026-04-15T18:26:29.309Z</time></trkpt><trkpt lat="40.87207" lon="14.1232767"><ele>45.71428571428571</ele><time>2026-04-15T18:26:30.306Z</time></trkpt><trkpt lat="40.8721417" lon="14.1232567"><ele>45.14285714285714</ele><time>2026-04-15T18:26:31.308Z</time></trkpt><trkpt lat="40.8722133" lon="14.123235"><ele>44.57142857142857</ele><time>2026-04-15T18:26:32.309Z</time></trkpt><trkpt lat="40.8722867" lon="14.1232117"><ele>44.0</ele><time>2026-04-15T18:26:33.309Z</time></trkpt><trkpt lat="40.8723617" lon="14.1231917"><ele>44.0</ele><time>2026-04-15T18:26:34.309Z</time></trkpt><trkpt lat="40.8724383" lon="14.12317"><ele>44.0</ele><time>2026-04-15T18:26:35.31Z</time></trkpt><trkpt lat="40.8725167" lon="14.1231483"><ele>44.0</ele><time>2026-04-15T18:26:36.308Z</time></trkpt><trkpt lat="40.872595" lon="14.1231283"><ele>44.0</ele><time>2026-04-15T18:26:37.306Z</time></trkpt><trkpt lat="40.8726717" lon="14.1231067"><ele>44.0</ele><time>2026-04-15T18:26:38.308Z</time></trkpt><trkpt lat="40.8727483" lon="14.1230833"><ele>44.0</ele><time>2026-04-15T18:26:39.309Z</time></trkpt><trkpt lat="40.8728217" lon="14.1230617"><ele>43.57142857142857</ele><time>2026-04-15T18:26:40.308Z</time></trkpt><trkpt lat="40.872895" lon="14.12304"><ele>43.14285714285714</ele><time>2026-04-15T18:26:41.307Z</time></trkpt><trkpt lat="40.8729667" lon="14.1230183"><ele>42.71428571428571</ele><time>2026-04-15T18:26:42.308Z</time></trkpt><trkpt lat="40.8730367" lon="14.1229917"><ele>42.285714285714285</ele><time>2026-04-15T18:26:43.307Z</time></trkpt><trkpt lat="40.8731067" lon="14.1229717"><ele>41.857142857142854</ele><time>2026-04-15T18:26:44.311Z</time></trkpt><trkpt lat="40.8731783" lon="14.12295"><ele>41.42857142857142</ele><time>2026-04-15T18:26:45.309Z</time></trkpt><trkpt lat="40.8732483" lon="14.1229283"><ele>41.0</ele><time>2026-04-15T18:26:46.309Z</time></trkpt><trkpt lat="40.8733183" lon="14.122905"><ele>40.99999999999999</ele><time>2026-04-15T18:26:47.309Z</time></trkpt><trkpt lat="40.8733867" lon="14.1228833"><ele>41.0</ele><time>2026-04-15T18:26:48.31Z</time></trkpt><trkpt lat="40.873455" lon="14.1228633"><ele>41.0</ele><time>2026-04-15T18:26:49.31Z</time></trkpt><trkpt lat="40.8735217" lon="14.12284"><ele>41.0</ele><time>2026-04-15T18:26:50.31Z</time></trkpt><trkpt lat="40.8735917" lon="14.1228167"><ele>41.0</ele><time>2026-04-15T18:26:51.307Z</time></trkpt><trkpt lat="40.8736633" lon="14.122795"><ele>40.99999999999999</ele><time>2026-04-15T18:26:52.308Z</time></trkpt><trkpt lat="40.8737367" lon="14.1227717"><ele>41.0</ele><time>2026-04-15T18:26:53.31Z</time></trkpt><trkpt lat="40.873815" lon="14.1227467"><ele>40.83333333333333</ele><time>2026-04-15T18:26:54.308Z</time></trkpt><trkpt lat="40.8738917" lon="14.122725"><ele>40.666666666666664</ele><time>2026-04-15T18:26:55.309Z</time></trkpt><trkpt lat="40.8739683" lon="14.1227017"><ele>40.5</ele><time>2026-04-15T18:26:56.309Z</time></trkpt><trkpt lat="40.874045" lon="14.12268"><ele>40.333333333333336</ele><time>2026-04-15T18:26:57.309Z</time></trkpt><trkpt lat="40.874125" lon="14.12266"><ele>40.16666666666667</ele><time>2026-04-15T18:26:58.308Z</time></trkpt><trkpt lat="40.8742033" lon="14.1226367"><ele>40.0</ele><time>2026-04-15T18:26:59.309Z</time></trkpt><trkpt lat="40.8742767" lon="14.12261"><ele>39.66666666666667</ele><time>2026-04-15T18:27:00.309Z</time></trkpt><trkpt lat="40.87435" lon="14.1225833"><ele>39.333333333333336</ele><time>2026-04-15T18:27:01.308Z</time></trkpt><trkpt lat="40.874425" lon="14.12256"><ele>39.0</ele><time>2026-04-15T18:27:02.309Z</time></trkpt><trkpt lat="40.8745" lon="14.1225333"><ele>38.666666666666664</ele><time>2026-04-15T18:27:03.309Z</time></trkpt><trkpt lat="40.8745717" lon="14.1225083"><ele>38.33333333333333</ele><time>2026-04-15T18:27:04.309Z</time></trkpt><trkpt lat="40.8746483" lon="14.1224867"><ele>38.0</ele><time>2026-04-15T18:27:05.309Z</time></trkpt><trkpt lat="40.8747217" lon="14.122465"><ele>38.0</ele><time>2026-04-15T18:27:06.309Z</time></trkpt><trkpt lat="40.8747933" lon="14.12244"><ele>38.0</ele><time>2026-04-15T18:27:07.309Z</time></trkpt><trkpt lat="40.874865" lon="14.1224117"><ele>38.0</ele><time>2026-04-15T18:27:08.309Z</time></trkpt><trkpt lat="40.8749367" lon="14.1223867"><ele>38.0</ele><time>2026-04-15T18:27:09.308Z</time></trkpt><trkpt lat="40.87501" lon="14.122365"><ele>38.0</ele><time>2026-04-15T18:27:10.308Z</time></trkpt><trkpt lat="40.875085" lon="14.122345"><ele>38.0</ele><time>2026-04-15T18:27:11.309Z</time></trkpt><trkpt lat="40.8751567" lon="14.1223283"><ele>38.0</ele><time>2026-04-15T18:27:12.308Z</time></trkpt><trkpt lat="40.875225" lon="14.122305"><ele>38.285714285714285</ele><time>2026-04-15T18:27:13.309Z</time></trkpt><trkpt lat="40.8752917" lon="14.1222783"><ele>38.57142857142858</ele><time>2026-04-15T18:27:14.309Z</time></trkpt><trkpt lat="40.8753567" lon="14.1222567"><ele>38.85714285714286</ele><time>2026-04-15T18:27:15.309Z</time></trkpt><trkpt lat="40.8754267" lon="14.1222367"><ele>39.14285714285714</ele><time>2026-04-15T18:27:16.309Z</time></trkpt><trkpt lat="40.875495" lon="14.122215"><ele>39.42857142857143</ele><time>2026-04-15T18:27:17.309Z</time></trkpt><trkpt lat="40.875565" lon="14.122195"><ele>39.714285714285715</ele><time>2026-04-15T18:27:18.306Z</time></trkpt><trkpt lat="40.8756367" lon="14.1221733"><ele>40.0</ele><time>2026-04-15T18:27:19.307Z</time></trkpt><trkpt lat="40.8757083" lon="14.12215"><ele>40.0</ele><time>2026-04-15T18:27:20.307Z</time></trkpt><trkpt lat="40.8757783" lon="14.1221283"><ele>40.0</ele><time>2026-04-15T18:27:21.308Z</time></trkpt><trkpt lat="40.875845" lon="14.1221"><ele>40.0</ele><time>2026-04-15T18:27:22.307Z</time></trkpt><trkpt lat="40.87591" lon="14.1220683"><ele>40.0</ele><time>2026-04-15T18:27:23.307Z</time></trkpt><trkpt lat="40.87597" lon="14.1220383"><ele>40.0</ele><time>2026-04-15T18:27:24.308Z</time></trkpt><trkpt lat="40.876075" lon="14.1219917"><ele>40.0</ele><time>2026-04-15T18:27:26.306Z</time></trkpt><trkpt lat="40.8761817" lon="14.1219683"><ele>39.6</ele><time>2026-04-15T18:27:28.308Z</time></trkpt><trkpt lat="40.8762867" lon="14.12194"><ele>39.2</ele><time>2026-04-15T18:27:30.308Z</time></trkpt><trkpt lat="40.876395" lon="14.1219133"><ele>38.8</ele><time>2026-04-15T18:27:32.309Z</time></trkpt><trkpt lat="40.8765017" lon="14.1219"><ele>38.4</ele><time>2026-04-15T18:27:34.308Z</time></trkpt><trkpt lat="40.8766217" lon="14.1218767"><ele>38.0</ele><time>2026-04-15T18:27:36.31Z</time></trkpt><trkpt lat="40.8767417" lon="14.1218517"><ele>37.5</ele><time>2026-04-15T18:27:38.309Z</time></trkpt><trkpt lat="40.87686" lon="14.1218133"><ele>37.0</ele><time>2026-04-15T18:27:40.307Z</time></trkpt><trkpt lat="40.87698" lon="14.1217783"><ele>36.5</ele><time>2026-04-15T18:27:42.31Z</time></trkpt><trkpt lat="40.8770967" lon="14.12175"><ele>36.0</ele><time>2026-04-15T18:27:44.31Z</time></trkpt><trkpt lat="40.8772033" lon="14.121725"><ele>36.0</ele><time>2026-04-15T18:27:46.31Z</time></trkpt><trkpt lat="40.87731" lon="14.1217317"><ele>36.0</ele><time>2026-04-15T18:27:48.306Z</time></trkpt><trkpt lat="40.8774167" lon="14.12173"><ele>36.0</ele><time>2026-04-15T18:27:50.307Z</time></trkpt><trkpt lat="40.8774983" lon="14.1217"><ele>36.0</ele><time>2026-04-15T18:27:52.309Z</time></trkpt><trkpt lat="40.8775417" lon="14.1216333"><ele>36.0</ele><time>2026-04-15T18:27:54.307Z</time></trkpt><trkpt lat="40.8776" lon="14.12156"><ele>36.0</ele><time>2026-04-15T18:27:56.307Z</time></trkpt><trkpt lat="40.8776833" lon="14.1215317"><ele>35.8</ele><time>2026-04-15T18:27:58.306Z</time></trkpt><trkpt lat="40.877785" lon="14.1215117"><ele>35.6</ele><time>2026-04-15T18:28:00.311Z</time></trkpt><trkpt lat="40.8778917" lon="14.121475"><ele>35.4</ele><time>2026-04-15T18:28:02.307Z</time></trkpt><trkpt lat="40.8780033" lon="14.1214367"><ele>35.2</ele><time>2026-04-15T18:28:04.307Z</time></trkpt><trkpt lat="40.8781167" lon="14.1213983"><ele>35.0</ele><time>2026-04-15T18:28:06.308Z</time></trkpt><trkpt lat="40.8781783" lon="14.1213767"><ele>35.0</ele><time>2026-04-15T18:28:07.309Z</time></trkpt><trkpt lat="40.878295" lon="14.1213367"><ele>35.0</ele><time>2026-04-15T18:28:09.308Z</time></trkpt><trkpt lat="40.878405" lon="14.121295"><ele>35.0</ele><time>2026-04-15T18:28:11.308Z</time></trkpt><trkpt lat="40.8785183" lon="14.1212533"><ele>35.0</ele><time>2026-04-15T18:28:13.308Z</time></trkpt><trkpt lat="40.8786333" lon="14.12122"><ele>35.4</ele><time>2026-04-15T18:28:15.309Z</time></trkpt><trkpt lat="40.87875" lon="14.1211867"><ele>35.8</ele><time>2026-04-15T18:28:17.306Z</time></trkpt><trkpt lat="40.8788617" lon="14.1211517"><ele>36.2</ele><time>2026-04-15T18:28:19.306Z</time></trkpt><trkpt lat="40.87897" lon="14.1211267"><ele>36.6</ele><time>2026-04-15T18:28:21.306Z</time></trkpt><trkpt lat="40.8790667" lon="14.1211"><ele>37.0</ele><time>2026-04-15T18:28:23.305Z</time></trkpt><trkpt lat="40.87917" lon="14.1210683"><ele>36.800000000000004</ele><time>2026-04-15T18:28:25.306Z</time></trkpt><trkpt lat="40.8792767" lon="14.1210433"><ele>36.6</ele><time>2026-04-15T18:28:27.306Z</time></trkpt><trkpt lat="40.8793867" lon="14.121015"><ele>36.400000000000006</ele><time>2026-04-15T18:28:29.307Z</time></trkpt><trkpt lat="40.8794917" lon="14.1209733"><ele>36.2</ele><time>2026-04-15T18:28:31.31Z</time></trkpt><trkpt lat="40.8795917" lon="14.1209383"><ele>36.0</ele><time>2026-04-15T18:28:33.309Z</time></trkpt><trkpt lat="40.8796933" lon="14.1209083"><ele>36.0</ele><time>2026-04-15T18:28:35.309Z</time></trkpt><trkpt lat="40.8798033" lon="14.1208767"><ele>36.0</ele><time>2026-04-15T18:28:37.308Z</time></trkpt><trkpt lat="40.8799183" lon="14.1208383"><ele>36.0</ele><time>2026-04-15T18:28:39.307Z</time></trkpt><trkpt lat="40.8800333" lon="14.1207983"><ele>36.0</ele><time>2026-04-15T18:28:41.307Z</time></trkpt><trkpt lat="40.8801517" lon="14.1207617"><ele>36.0</ele><time>2026-04-15T18:28:43.31Z</time></trkpt><trkpt lat="40.8802133" lon="14.1207417"><ele>36.0</ele><time>2026-04-15T18:28:44.31Z</time></trkpt><trkpt lat="40.8803267" lon="14.1207017"><ele>36.0</ele><time>2026-04-15T18:28:46.309Z</time></trkpt><trkpt lat="40.880435" lon="14.1206533"><ele>36.0</ele><time>2026-04-15T18:28:48.309Z</time></trkpt><trkpt lat="40.8805483" lon="14.120615"><ele>36.0</ele><time>2026-04-15T18:28:50.305Z</time></trkpt><trkpt lat="40.8806567" lon="14.1205733"><ele>36.0</ele><time>2026-04-15T18:28:52.308Z</time></trkpt><trkpt lat="40.8807783" lon="14.120535"><ele>36.0</ele><time>2026-04-15T18:28:54.307Z</time></trkpt><trkpt lat="40.8808967" lon="14.120495"><ele>36.0</ele><time>2026-04-15T18:28:56.306Z</time></trkpt><trkpt lat="40.8810183" lon="14.1204583"><ele>36.0</ele><time>2026-04-15T18:28:58.308Z</time></trkpt><trkpt lat="40.8811333" lon="14.120425"><ele>36.0</ele><time>2026-04-15T18:29:00.31Z</time></trkpt><trkpt lat="40.881255" lon="14.1203933"><ele>36.0</ele><time>2026-04-15T18:29:02.31Z</time></trkpt><trkpt lat="40.881375" lon="14.1203617"><ele>36.0</ele><time>2026-04-15T18:29:04.309Z</time></trkpt><trkpt lat="40.8814917" lon="14.1203283"><ele>36.0</ele><time>2026-04-15T18:29:06.308Z</time></trkpt><trkpt lat="40.8816083" lon="14.1202917"><ele>36.0</ele><time>2026-04-15T18:29:08.309Z</time></trkpt><trkpt lat="40.88172" lon="14.1202517"><ele>36.0</ele><time>2026-04-15T18:29:10.308Z</time></trkpt><trkpt lat="40.881835" lon="14.1202183"><ele>36.0</ele><time>2026-04-15T18:29:12.309Z</time></trkpt><trkpt lat="40.8819483" lon="14.12018"><ele>36.0</ele><time>2026-04-15T18:29:14.307Z</time></trkpt><trkpt lat="40.8820567" lon="14.1201483"><ele>36.25</ele><time>2026-04-15T18:29:16.309Z</time></trkpt><trkpt lat="40.8821733" lon="14.1201183"><ele>36.5</ele><time>2026-04-15T18:29:18.308Z</time></trkpt><trkpt lat="40.88229" lon="14.1200817"><ele>36.75</ele><time>2026-04-15T18:29:20.308Z</time></trkpt><trkpt lat="40.8824017" lon="14.12004"><ele>37.0</ele><time>2026-04-15T18:29:22.307Z</time></trkpt><trkpt lat="40.8825117" lon="14.1200017"><ele>36.75</ele><time>2026-04-15T18:29:24.309Z</time></trkpt><trkpt lat="40.8826283" lon="14.1199717"><ele>36.5</ele><time>2026-04-15T18:29:26.309Z</time></trkpt><trkpt lat="40.8827383" lon="14.119935"><ele>36.25</ele><time>2026-04-15T18:29:28.309Z</time></trkpt><trkpt lat="40.88285" lon="14.1199017"><ele>36.0</ele><time>2026-04-15T18:29:30.309Z</time></trkpt><trkpt lat="40.8829617" lon="14.11987"><ele>35.75</ele><time>2026-04-15T18:29:32.31Z</time></trkpt><trkpt lat="40.88307" lon="14.1198367"><ele>35.5</ele><time>2026-04-15T18:29:34.309Z</time></trkpt><trkpt lat="40.8831833" lon="14.119805"><ele>35.25</ele><time>2026-04-15T18:29:36.309Z</time></trkpt><trkpt lat="40.883295" lon="14.1197717"><ele>35.0</ele><time>2026-04-15T18:29:38.309Z</time></trkpt><trkpt lat="40.883405" lon="14.11973"><ele>35.2</ele><time>2026-04-15T18:29:40.309Z</time></trkpt><trkpt lat="40.88351" lon="14.1196867"><ele>35.4</ele><time>2026-04-15T18:29:42.307Z</time></trkpt><trkpt lat="40.883615" lon="14.1196567"><ele>35.6</ele><time>2026-04-15T18:29:44.309Z</time></trkpt><trkpt lat="40.883725" lon="14.119635"><ele>35.8</ele><time>2026-04-15T18:29:46.309Z</time></trkpt><trkpt lat="40.8838333" lon="14.1196"><ele>36.0</ele><time>2026-04-15T18:29:48.308Z</time></trkpt><trkpt lat="40.883945" lon="14.1195633"><ele>36.0</ele><time>2026-04-15T18:29:50.308Z</time></trkpt><trkpt lat="40.8840517" lon="14.119525"><ele>36.0</ele><time>2026-04-15T18:29:52.307Z</time></trkpt><trkpt lat="40.8841617" lon="14.1194917"><ele>36.0</ele><time>2026-04-15T18:29:54.309Z</time></trkpt><trkpt lat="40.8842683" lon="14.1194533"><ele>36.0</ele><time>2026-04-15T18:29:56.309Z</time></trkpt><trkpt lat="40.8843817" lon="14.1194183"><ele>35.75</ele><time>2026-04-15T18:29:58.305Z</time></trkpt><trkpt lat="40.884495" lon="14.119385"><ele>35.5</ele><time>2026-04-15T18:30:00.307Z</time></trkpt><trkpt lat="40.8846083" lon="14.119345"><ele>35.25</ele><time>2026-04-15T18:30:02.307Z</time></trkpt><trkpt lat="40.884725" lon="14.1193083"><ele>35.0</ele><time>2026-04-15T18:30:04.307Z</time></trkpt><trkpt lat="40.8848383" lon="14.11927"><ele>35.0</ele><time>2026-04-15T18:30:06.307Z</time></trkpt><trkpt lat="40.884955" lon="14.1192317"><ele>35.0</ele><time>2026-04-15T18:30:08.308Z</time></trkpt><trkpt lat="40.8850667" lon="14.1191967"><ele>35.0</ele><time>2026-04-15T18:30:10.306Z</time></trkpt><trkpt lat="40.8851767" lon="14.1191633"><ele>35.0</ele><time>2026-04-15T18:30:12.307Z</time></trkpt><trkpt lat="40.8852883" lon="14.1191283"><ele>35.4</ele><time>2026-04-15T18:30:14.308Z</time></trkpt><trkpt lat="40.8853983" lon="14.1190983"><ele>35.8</ele><time>2026-04-15T18:30:16.307Z</time></trkpt><trkpt lat="40.88551" lon="14.119065"><ele>36.2</ele><time>2026-04-15T18:30:18.308Z</time></trkpt><trkpt lat="40.8856133" lon="14.1190283"><ele>36.6</ele><time>2026-04-15T18:30:20.307Z</time></trkpt><trkpt lat="40.8857183" lon="14.1189967"><ele>37.0</ele><time>2026-04-15T18:30:22.308Z</time></trkpt><trkpt lat="40.8858183" lon="14.1189667"><ele>37.0</ele><time>2026-04-15T18:30:24.308Z</time></trkpt><trkpt lat="40.885915" lon="14.1189367"><ele>37.0</ele><time>2026-04-15T18:30:26.309Z</time></trkpt><trkpt lat="40.8860167" lon="14.1189067"><ele>37.0</ele><time>2026-04-15T18:30:28.307Z</time></trkpt><trkpt lat="40.886115" lon="14.1188667"><ele>37.0</ele><time>2026-04-15T18:30:30.308Z</time></trkpt><trkpt lat="40.8862133" lon="14.118835"><ele>37.0</ele><time>2026-04-15T18:30:32.308Z</time></trkpt><trkpt lat="40.8863117" lon="14.1188083"><ele>37.2</ele><time>2026-04-15T18:30:34.305Z</time></trkpt><trkpt lat="40.886405" lon="14.118775"><ele>37.400000000000006</ele><time>2026-04-15T18:30:36.307Z</time></trkpt><trkpt lat="40.8864933" lon="14.11875"><ele>37.599999999999994</ele><time>2026-04-15T18:30:38.31Z</time></trkpt><trkpt lat="40.8865817" lon="14.1187233"><ele>37.8</ele><time>2026-04-15T18:30:40.306Z</time></trkpt><trkpt lat="40.8866733" lon="14.1187"><ele>38.0</ele><time>2026-04-15T18:30:42.308Z</time></trkpt><trkpt lat="40.8867583" lon="14.118675"><ele>38.666666666666664</ele><time>2026-04-15T18:30:44.307Z</time></trkpt><trkpt lat="40.8868383" lon="14.11865"><ele>39.33333333333333</ele><time>2026-04-15T18:30:46.306Z</time></trkpt><trkpt lat="40.8869217" lon="14.1186267"><ele>40.0</ele><time>2026-04-15T18:30:48.308Z</time></trkpt><trkpt lat="40.8870033" lon="14.1186017"><ele>40.666666666666664</ele><time>2026-04-15T18:30:50.308Z</time></trkpt><trkpt lat="40.887085" lon="14.11858"><ele>41.333333333333336</ele><time>2026-04-15T18:30:52.308Z</time></trkpt><trkpt lat="40.8871667" lon="14.1185633"><ele>42.0</ele><time>2026-04-15T18:30:54.308Z</time></trkpt><trkpt lat="40.88725" lon="14.118555"><ele>42.0</ele><time>2026-04-15T18:30:56.312Z</time></trkpt><trkpt lat="40.887335" lon="14.118555"><ele>42.0</ele><time>2026-04-15T18:30:58.307Z</time></trkpt><trkpt lat="40.88742" lon="14.1185517"><ele>42.0</ele><time>2026-04-15T18:31:00.307Z</time></trkpt><trkpt lat="40.8875083" lon="14.1185583"><ele>42.0</ele><time>2026-04-15T18:31:02.31Z</time></trkpt><trkpt lat="40.8875933" lon="14.118565"><ele>42.0</ele><time>2026-04-15T18:31:04.307Z</time></trkpt><trkpt lat="40.8876783" lon="14.11859"><ele>42.0</ele><time>2026-04-15T18:31:06.309Z</time></trkpt><trkpt lat="40.8877533" lon="14.11864"><ele>42.5</ele><time>2026-04-15T18:31:08.309Z</time></trkpt><trkpt lat="40.8878217" lon="14.1187033"><ele>43.0</ele><time>2026-04-15T18:31:10.306Z</time></trkpt><trkpt lat="40.8878883" lon="14.1187633"><ele>43.5</ele><time>2026-04-15T18:31:12.309Z</time></trkpt><trkpt lat="40.8879567" lon="14.11881"><ele>44.0</ele><time>2026-04-15T18:31:14.31Z</time></trkpt><trkpt lat="40.88803" lon="14.1188367"><ele>44.5</ele><time>2026-04-15T18:31:16.306Z</time></trkpt><trkpt lat="40.888105" lon="14.1188483"><ele>45.0</ele><time>2026-04-15T18:31:18.307Z</time></trkpt><trkpt lat="40.8881717" lon="14.1188833"><ele>45.0</ele><time>2026-04-15T18:31:20.306Z</time></trkpt><trkpt lat="40.8882233" lon="14.1189433"><ele>45.0</ele><time>2026-04-15T18:31:22.309Z</time></trkpt><trkpt lat="40.8882717" lon="14.119015"><ele>45.0</ele><time>2026-04-15T18:31:24.309Z</time></trkpt><trkpt lat="40.888325" lon="14.119085"><ele>45.0</ele><time>2026-04-15T18:31:26.31Z</time></trkpt><trkpt lat="40.888375" lon="14.119155"><ele>45.0</ele><time>2026-04-15T18:31:28.307Z</time></trkpt><trkpt lat="40.8884217" lon="14.1192167"><ele>45.0</ele><time>2026-04-15T18:31:30.309Z</time></trkpt><trkpt lat="40.888465" lon="14.1192867"><ele>45.0</ele><time>2026-04-15T18:31:32.308Z</time></trkpt><trkpt lat="40.8885117" lon="14.1193583"><ele>47.166666666666664</ele><time>2026-04-15T18:31:34.308Z</time></trkpt><trkpt lat="40.8885583" lon="14.1194183"><ele>49.33333333333333</ele><time>2026-04-15T18:31:36.308Z</time></trkpt><trkpt lat="40.8886167" lon="14.1194867"><ele>51.5</ele><time>2026-04-15T18:31:39.309Z</time></trkpt><trkpt lat="40.8886767" lon="14.119575"><ele>53.666666666666664</ele><time>2026-04-15T18:31:42.308Z</time></trkpt><trkpt lat="40.888735" lon="14.1196517"><ele>55.83333333333333</ele><time>2026-04-15T18:31:45.309Z</time></trkpt><trkpt lat="40.888775" lon="14.1197183"><ele>58.0</ele><time>2026-04-15T18:31:47.309Z</time></trkpt><trkpt lat="40.8888183" lon="14.1197967"><ele>58.00000000000001</ele><time>2026-04-15T18:31:49.31Z</time></trkpt><trkpt lat="40.8888617" lon="14.1198667"><ele>58.0</ele><time>2026-04-15T18:31:51.307Z</time></trkpt><trkpt lat="40.8889117" lon="14.1199417"><ele>58.00000000000001</ele><time>2026-04-15T18:31:53.306Z</time></trkpt><trkpt lat="40.88896" lon="14.120015"><ele>58.00000000000001</ele><time>2026-04-15T18:31:55.306Z</time></trkpt><trkpt lat="40.8890017" lon="14.1200917"><ele>58.0</ele><time>2026-04-15T18:31:57.306Z</time></trkpt><trkpt lat="40.8890417" lon="14.12017"><ele>58.00000000000001</ele><time>2026-04-15T18:31:59.306Z</time></trkpt><trkpt lat="40.8890767" lon="14.120245"><ele>58.00000000000001</ele><time>2026-04-15T18:32:01.308Z</time></trkpt><trkpt lat="40.88911" lon="14.1203333"><ele>57.49999999999999</ele><time>2026-04-15T18:32:04.309Z</time></trkpt><trkpt lat="40.8891467" lon="14.120425"><ele>57.0</ele><time>2026-04-15T18:32:18.309Z</time></trkpt><trkpt lat="40.8891817" lon="14.1205283"><ele>56.5</ele><time>2026-04-15T18:32:21.309Z</time></trkpt><trkpt lat="40.8892217" lon="14.12064"><ele>56.0</ele><time>2026-04-15T18:32:24.308Z</time></trkpt><trkpt lat="40.8892483" lon="14.1207167"><ele>55.49999999999999</ele><time>2026-04-15T18:32:26.309Z</time></trkpt><trkpt lat="40.8892767" lon="14.1208017"><ele>55.0</ele><time>2026-04-15T18:32:28.308Z</time></trkpt><trkpt lat="40.8893" lon="14.12088"><ele>56.83333333333333</ele><time>2026-04-15T18:32:30.308Z</time></trkpt><trkpt lat="40.88934" lon="14.1209967"><ele>58.666666666666664</ele><time>2026-04-15T18:32:33.307Z</time></trkpt><trkpt lat="40.8893683" lon="14.1210783"><ele>60.5</ele><time>2026-04-15T18:32:35.309Z</time></trkpt><trkpt lat="40.8894" lon="14.1211583"><ele>62.33333333333333</ele><time>2026-04-15T18:32:37.308Z</time></trkpt><trkpt lat="40.889445" lon="14.1212733"><ele>64.16666666666667</ele><time>2026-04-15T18:32:40.307Z</time></trkpt><trkpt lat="40.8894783" lon="14.1213667"><ele>66.0</ele><time>2026-04-15T18:32:42.307Z</time></trkpt><trkpt lat="40.8895117" lon="14.1214617"><ele>66.0</ele><time>2026-04-15T18:32:44.309Z</time></trkpt><trkpt lat="40.8895433" lon="14.1215533"><ele>66.0</ele><time>2026-04-15T18:32:46.308Z</time></trkpt><trkpt lat="40.8895733" lon="14.1216383"><ele>66.0</ele><time>2026-04-15T18:32:48.306Z</time></trkpt><trkpt lat="40.8896017" lon="14.1217267"><ele>66.0</ele><time>2026-04-15T18:32:50.309Z</time></trkpt><trkpt lat="40.889635" lon="14.12182"><ele>66.0</ele><time>2026-04-15T18:32:52.307Z</time></trkpt><trkpt lat="40.889665" lon="14.1219"><ele>66.0</ele><time>2026-04-15T18:32:54.308Z</time></trkpt><trkpt lat="40.8897033" lon="14.1219783"><ele>66.0</ele><time>2026-04-15T18:32:56.308Z</time></trkpt><trkpt lat="40.8897417" lon="14.12206"><ele>66.16666666666667</ele><time>2026-04-15T18:32:58.307Z</time></trkpt><trkpt lat="40.8897883" lon="14.1221367"><ele>66.33333333333333</ele><time>2026-04-15T18:33:00.308Z</time></trkpt><trkpt lat="40.8898333" lon="14.1222117"><ele>66.5</ele><time>2026-04-15T18:33:02.308Z</time></trkpt><trkpt lat="40.8898883" lon="14.1222917"><ele>66.66666666666666</ele><time>2026-04-15T18:33:04.308Z</time></trkpt><trkpt lat="40.88994" lon="14.12237"><ele>66.83333333333333</ele><time>2026-04-15T18:33:06.308Z</time></trkpt><trkpt lat="40.8899967" lon="14.122455"><ele>67.0</ele><time>2026-04-15T18:33:08.31Z</time></trkpt><trkpt lat="40.8900517" lon="14.1225283"><ele>68.66666666666666</ele><time>2026-04-15T18:33:10.307Z</time></trkpt><trkpt lat="40.890105" lon="14.122605"><ele>70.33333333333333</ele><time>2026-04-15T18:33:12.309Z</time></trkpt><trkpt lat="40.8901583" lon="14.122665"><ele>72.0</ele><time>2026-04-15T18:33:14.309Z</time></trkpt><trkpt lat="40.8902083" lon="14.1227317"><ele>73.66666666666667</ele><time>2026-04-15T18:33:16.307Z</time></trkpt><trkpt lat="40.8902667" lon="14.122795"><ele>75.33333333333334</ele><time>2026-04-15T18:33:18.309Z</time></trkpt><trkpt lat="40.8903317" lon="14.1228583"><ele>77.0</ele><time>2026-04-15T18:33:20.31Z</time></trkpt><trkpt lat="40.890395" lon="14.1229333"><ele>77.0</ele><time>2026-04-15T18:33:22.307Z</time></trkpt><trkpt lat="40.8904617" lon="14.1230083"><ele>77.0</ele><time>2026-04-15T18:33:24.309Z</time></trkpt><trkpt lat="40.8905333" lon="14.1230667"><ele>77.0</ele><time>2026-04-15T18:33:26.31Z</time></trkpt><trkpt lat="40.8906033" lon="14.12313"><ele>77.0</ele><time>2026-04-15T18:33:28.309Z</time></trkpt><trkpt lat="40.8906733" lon="14.12319"><ele>77.0</ele><time>2026-04-15T18:33:30.31Z</time></trkpt><trkpt lat="40.8907467" lon="14.12325"><ele>77.0</ele><time>2026-04-15T18:33:32.311Z</time></trkpt><trkpt lat="40.89082" lon="14.1233"><ele>76.0</ele><time>2026-04-15T18:33:34.31Z</time></trkpt><trkpt lat="40.8908967" lon="14.1233517"><ele>75.0</ele><time>2026-04-15T18:33:36.31Z</time></trkpt><trkpt lat="40.89097" lon="14.1233883"><ele>74.0</ele><time>2026-04-15T18:33:38.307Z</time></trkpt><trkpt lat="40.8910517" lon="14.12341"><ele>73.0</ele><time>2026-04-15T18:33:40.31Z</time></trkpt><trkpt lat="40.8911283" lon="14.123425"><ele>72.0</ele><time>2026-04-15T18:33:42.309Z</time></trkpt><trkpt lat="40.8912083" lon="14.1234383"><ele>71.0</ele><time>2026-04-15T18:33:44.311Z</time></trkpt><trkpt lat="40.8912933" lon="14.123455"><ele>71.0</ele><time>2026-04-15T18:33:46.308Z</time></trkpt><trkpt lat="40.89137" lon="14.1234833"><ele>71.0</ele><time>2026-04-15T18:33:48.307Z</time></trkpt><trkpt lat="40.8914483" lon="14.123505"><ele>71.0</ele><time>2026-04-15T18:33:50.308Z</time></trkpt><trkpt lat="40.8915267" lon="14.12353"><ele>71.0</ele><time>2026-04-15T18:33:52.306Z</time></trkpt><trkpt lat="40.8916" lon="14.1235583"><ele>71.0</ele><time>2026-04-15T18:33:54.31Z</time></trkpt><trkpt lat="40.89168" lon="14.1235817"><ele>71.0</ele><time>2026-04-15T18:33:56.31Z</time></trkpt><trkpt lat="40.8917583" lon="14.1235933"><ele>71.5</ele><time>2026-04-15T18:33:58.306Z</time></trkpt><trkpt lat="40.8918417" lon="14.123605"><ele>72.0</ele><time>2026-04-15T18:34:00.31Z</time></trkpt><trkpt lat="40.891925" lon="14.123615"><ele>72.5</ele><time>2026-04-15T18:34:02.31Z</time></trkpt><trkpt lat="40.8920017" lon="14.12361"><ele>73.0</ele><time>2026-04-15T18:34:04.309Z</time></trkpt><trkpt lat="40.8920833" lon="14.1236117"><ele>73.5</ele><time>2026-04-15T18:34:06.309Z</time></trkpt><trkpt lat="40.8921667" lon="14.12361"><ele>74.0</ele><time>2026-04-15T18:34:08.309Z</time></trkpt><trkpt lat="40.8922467" lon="14.123605"><ele>74.0</ele><time>2026-04-15T18:34:10.308Z</time></trkpt><trkpt lat="40.8923267" lon="14.1236017"><ele>74.0</ele><time>2026-04-15T18:34:12.308Z</time></trkpt><trkpt lat="40.89241" lon="14.1236017"><ele>74.0</ele><time>2026-04-15T18:34:14.309Z</time></trkpt><trkpt lat="40.8924917" lon="14.1236117"><ele>74.0</ele><time>2026-04-15T18:34:16.308Z</time></trkpt><trkpt lat="40.8925733" lon="14.1236183"><ele>74.0</ele><time>2026-04-15T18:34:18.308Z</time></trkpt><trkpt lat="40.8926483" lon="14.1236183"><ele>74.0</ele><time>2026-04-15T18:34:20.308Z</time></trkpt><trkpt lat="40.8927167" lon="14.1236133"><ele>74.83333333333334</ele><time>2026-04-15T18:34:22.308Z</time></trkpt><trkpt lat="40.8927883" lon="14.12361"><ele>75.66666666666667</ele><time>2026-04-15T18:34:24.307Z</time></trkpt><trkpt lat="40.8928533" lon="14.1236217"><ele>76.5</ele><time>2026-04-15T18:34:26.308Z</time></trkpt><trkpt lat="40.8929367" lon="14.1236283"><ele>77.33333333333333</ele><time>2026-04-15T18:34:28.307Z</time></trkpt><trkpt lat="40.8930133" lon="14.12363"><ele>78.16666666666666</ele><time>2026-04-15T18:34:30.309Z</time></trkpt><trkpt lat="40.8930933" lon="14.12363"><ele>79.0</ele><time>2026-04-15T18:34:32.31Z</time></trkpt><trkpt lat="40.8931767" lon="14.1236317"><ele>79.0</ele><time>2026-04-15T18:34:34.31Z</time></trkpt><trkpt lat="40.893255" lon="14.1236417"><ele>79.0</ele><time>2026-04-15T18:34:36.308Z</time></trkpt><trkpt lat="40.8933267" lon="14.123635"><ele>79.0</ele><time>2026-04-15T18:34:38.31Z</time></trkpt><trkpt lat="40.8934033" lon="14.123625"><ele>79.0</ele><time>2026-04-15T18:34:40.31Z</time></trkpt><trkpt lat="40.89348" lon="14.123625"><ele>79.0</ele><time>2026-04-15T18:34:42.309Z</time></trkpt><trkpt lat="40.89356" lon="14.123625"><ele>79.0</ele><time>2026-04-15T18:34:44.309Z</time></trkpt><trkpt lat="40.89364" lon="14.1236117"><ele>79.5</ele><time>2026-04-15T18:34:46.309Z</time></trkpt><trkpt lat="40.8937167" lon="14.1235933"><ele>80.0</ele><time>2026-04-15T18:34:48.308Z</time></trkpt><trkpt lat="40.893795" lon="14.12357"><ele>80.5</ele><time>2026-04-15T18:34:50.307Z</time></trkpt><trkpt lat="40.8938783" lon="14.1235383"><ele>81.0</ele><time>2026-04-15T18:34:52.306Z</time></trkpt><trkpt lat="40.893965" lon="14.123515"><ele>81.5</ele><time>2026-04-15T18:34:54.307Z</time></trkpt><trkpt lat="40.8940533" lon="14.1235"><ele>82.0</ele><time>2026-04-15T18:34:56.307Z</time></trkpt><trkpt lat="40.8941367" lon="14.1234983"><ele>81.99999999999999</ele><time>2026-04-15T18:34:58.31Z</time></trkpt><trkpt lat="40.8942133" lon="14.123505"><ele>82.0</ele><time>2026-04-15T18:35:00.31Z</time></trkpt><trkpt lat="40.8942883" lon="14.1235117"><ele>82.0</ele><time>2026-04-15T18:35:02.308Z</time></trkpt><trkpt lat="40.8943617" lon="14.1235217"><ele>82.0</ele><time>2026-04-15T18:35:04.309Z</time></trkpt><trkpt lat="40.8944267" lon="14.1235317"><ele>82.0</ele><time>2026-04-15T18:35:06.309Z</time></trkpt><trkpt lat="40.8944967" lon="14.1235483"><ele>81.99999999999999</ele><time>2026-04-15T18:35:08.311Z</time></trkpt><trkpt lat="40.8945667" lon="14.1235567"><ele>82.0</ele><time>2026-04-15T18:35:10.311Z</time></trkpt><trkpt lat="40.8946317" lon="14.12357"><ele>82.57142857142857</ele><time>2026-04-15T18:35:12.308Z</time></trkpt><trkpt lat="40.894695" lon="14.1235983"><ele>83.14285714285714</ele><time>2026-04-15T18:35:14.31Z</time></trkpt><trkpt lat="40.894755" lon="14.1236317"><ele>83.71428571428572</ele><time>2026-04-15T18:35:16.31Z</time></trkpt><trkpt lat="40.8948217" lon="14.1236683"><ele>84.28571428571428</ele><time>2026-04-15T18:35:18.308Z</time></trkpt><trkpt lat="40.89489" lon="14.12369"><ele>84.85714285714286</ele><time>2026-04-15T18:35:20.308Z</time></trkpt><trkpt lat="40.894955" lon="14.123685"><ele>85.42857142857143</ele><time>2026-04-15T18:35:22.309Z</time></trkpt><trkpt lat="40.8950283" lon="14.123665"><ele>86.0</ele><time>2026-04-15T18:35:24.309Z</time></trkpt><trkpt lat="40.8951033" lon="14.123635"><ele>87.16666666666667</ele><time>2026-04-15T18:35:26.31Z</time></trkpt><trkpt lat="40.895175" lon="14.1235967"><ele>88.33333333333334</ele><time>2026-04-15T18:35:28.308Z</time></trkpt><trkpt lat="40.8952483" lon="14.123555"><ele>89.5</ele><time>2026-04-15T18:35:30.306Z</time></trkpt><trkpt lat="40.8953267" lon="14.1235183"><ele>90.66666666666667</ele><time>2026-04-15T18:35:32.31Z</time></trkpt><trkpt lat="40.895405" lon="14.123505"><ele>91.83333333333333</ele><time>2026-04-15T18:35:34.309Z</time></trkpt><trkpt lat="40.8954783" lon="14.123525"><ele>93.0</ele><time>2026-04-15T18:35:36.31Z</time></trkpt><trkpt lat="40.8955483" lon="14.1235733"><ele>93.0</ele><time>2026-04-15T18:35:38.309Z</time></trkpt><trkpt lat="40.8956067" lon="14.1236333"><ele>93.0</ele><time>2026-04-15T18:35:40.309Z</time></trkpt><trkpt lat="40.8956567" lon="14.123695"><ele>93.0</ele><time>2026-04-15T18:35:42.31Z</time></trkpt><trkpt lat="40.8957183" lon="14.1237467"><ele>93.0</ele><time>2026-04-15T18:35:44.311Z</time></trkpt><trkpt lat="40.89579" lon="14.1237883"><ele>93.0</ele><time>2026-04-15T18:35:46.31Z</time></trkpt><trkpt lat="40.8958717" lon="14.1238167"><ele>93.0</ele><time>2026-04-15T18:35:48.309Z</time></trkpt><trkpt lat="40.8959517" lon="14.1238183"><ele>93.66666666666667</ele><time>2026-04-15T18:35:50.31Z</time></trkpt><trkpt lat="40.8960317" lon="14.12381"><ele>94.33333333333334</ele><time>2026-04-15T18:35:52.307Z</time></trkpt><trkpt lat="40.89611" lon="14.1237917"><ele>95.0</ele><time>2026-04-15T18:35:54.31Z</time></trkpt><trkpt lat="40.8961917" lon="14.123775"><ele>95.66666666666667</ele><time>2026-04-15T18:35:56.309Z</time></trkpt><trkpt lat="40.8962717" lon="14.1237533"><ele>96.33333333333334</ele><time>2026-04-15T18:35:58.309Z</time></trkpt><trkpt lat="40.89635" lon="14.1237383"><ele>97.0</ele><time>2026-04-15T18:36:00.308Z</time></trkpt><trkpt lat="40.8964367" lon="14.123735"><ele>97.00000000000001</ele><time>2026-04-15T18:36:02.311Z</time></trkpt><trkpt lat="40.89652" lon="14.1237383"><ele>97.0</ele><time>2026-04-15T18:36:04.31Z</time></trkpt><trkpt lat="40.8966083" lon="14.12375"><ele>97.0</ele><time>2026-04-15T18:36:06.31Z</time></trkpt><trkpt lat="40.8966967" lon="14.12377"><ele>97.0</ele><time>2026-04-15T18:36:08.312Z</time></trkpt><trkpt lat="40.89679" lon="14.123795"><ele>97.00000000000001</ele><time>2026-04-15T18:36:10.31Z</time></trkpt><trkpt lat="40.8968783" lon="14.1238183"><ele>97.0</ele><time>2026-04-15T18:36:12.309Z</time></trkpt><trkpt lat="40.8969583" lon="14.1238383"><ele>97.19999999999999</ele><time>2026-04-15T18:36:14.31Z</time></trkpt><trkpt lat="40.897045" lon="14.1238433"><ele>97.4</ele><time>2026-04-15T18:36:16.31Z</time></trkpt><trkpt lat="40.8971283" lon="14.1238317"><ele>97.6</ele><time>2026-04-15T18:36:18.308Z</time></trkpt><trkpt lat="40.8972133" lon="14.123795"><ele>97.80000000000001</ele><time>2026-04-15T18:36:20.308Z</time></trkpt><trkpt lat="40.8972983" lon="14.1237367"><ele>98.0</ele><time>2026-04-15T18:36:22.31Z</time></trkpt><trkpt lat="40.897375" lon="14.1236617"><ele>98.0</ele><time>2026-04-15T18:36:24.311Z</time></trkpt><trkpt lat="40.8974467" lon="14.1235867"><ele>98.0</ele><time>2026-04-15T18:36:26.311Z</time></trkpt><trkpt lat="40.8975183" lon="14.12351"><ele>98.0</ele><time>2026-04-15T18:36:28.31Z</time></trkpt><trkpt lat="40.8976017" lon="14.12344"><ele>98.0</ele><time>2026-04-15T18:36:30.31Z</time></trkpt><trkpt lat="40.8976817" lon="14.123395"><ele>98.0</ele><time>2026-04-15T18:36:32.311Z</time></trkpt><trkpt lat="40.897775" lon="14.1233783"><ele>98.4</ele><time>2026-04-15T18:36:34.306Z</time></trkpt><trkpt lat="40.89787" lon="14.1233767"><ele>98.80000000000001</ele><time>2026-04-15T18:36:36.31Z</time></trkpt><trkpt lat="40.897955" lon="14.1233917"><ele>99.2</ele><time>2026-04-15T18:36:38.31Z</time></trkpt><trkpt lat="40.898045" lon="14.12342"><ele>99.6</ele><time>2026-04-15T18:36:40.309Z</time></trkpt><trkpt lat="40.89813" lon="14.1234483"><ele>100.0</ele><time>2026-04-15T18:36:42.309Z</time></trkpt><trkpt lat="40.89822" lon="14.123475"><ele>100.00000000000001</ele><time>2026-04-15T18:36:44.309Z</time></trkpt><trkpt lat="40.8983167" lon="14.1235"><ele>100.0</ele><time>2026-04-15T18:36:46.311Z</time></trkpt><trkpt lat="40.8984017" lon="14.1235267"><ele>100.0</ele><time>2026-04-15T18:36:48.309Z</time></trkpt><trkpt lat="40.89849" lon="14.1235483"><ele>100.0</ele><time>2026-04-15T18:36:50.308Z</time></trkpt><trkpt lat="40.8985683" lon="14.123565"><ele>100.00000000000001</ele><time>2026-04-15T18:36:52.309Z</time></trkpt><trkpt lat="40.8986433" lon="14.1235783"><ele>100.0</ele><time>2026-04-15T18:36:54.311Z</time></trkpt><trkpt lat="40.8987233" lon="14.1235867"><ele>101.00000000000001</ele><time>2026-04-15T18:36:56.31Z</time></trkpt><trkpt lat="40.8988033" lon="14.123575"><ele>102.0</ele><time>2026-04-15T18:36:58.308Z</time></trkpt><trkpt lat="40.898885" lon="14.1235533"><ele>103.0</ele><time>2026-04-15T18:37:00.307Z</time></trkpt><trkpt lat="40.898955" lon="14.1235133"><ele>104.0</ele><time>2026-04-15T18:37:02.308Z</time></trkpt><trkpt lat="40.8990217" lon="14.1234533"><ele>105.00000000000001</ele><time>2026-04-15T18:37:04.308Z</time></trkpt><trkpt lat="40.8990817" lon="14.1233933"><ele>106.0</ele><time>2026-04-15T18:37:06.308Z</time></trkpt><trkpt lat="40.8991433" lon="14.1233267"><ele>106.00000000000001</ele><time>2026-04-15T18:37:08.308Z</time></trkpt><trkpt lat="40.8991983" lon="14.12325"><ele>106.0</ele><time>2026-04-15T18:37:10.307Z</time></trkpt><trkpt lat="40.8992567" lon="14.1231583"><ele>106.0</ele><time>2026-04-15T18:37:12.307Z</time></trkpt><trkpt lat="40.8993083" lon="14.1230633"><ele>106.0</ele><time>2026-04-15T18:37:14.307Z</time></trkpt><trkpt lat="40.8993583" lon="14.122975"><ele>106.00000000000001</ele><time>2026-04-15T18:37:16.308Z</time></trkpt><trkpt lat="40.8994117" lon="14.1228833"><ele>106.0</ele><time>2026-04-15T18:37:18.307Z</time></trkpt><trkpt lat="40.899465" lon="14.1228133"><ele>105.8</ele><time>2026-04-15T18:37:20.309Z</time></trkpt><trkpt lat="40.8995133" lon="14.1227217"><ele>105.6</ele><time>2026-04-15T18:37:22.31Z</time></trkpt><trkpt lat="40.89957" lon="14.1226117"><ele>105.4</ele><time>2026-04-15T18:37:24.311Z</time></trkpt><trkpt lat="40.8996233" lon="14.1224983"><ele>105.2</ele><time>2026-04-15T18:37:26.31Z</time></trkpt><trkpt lat="40.8996833" lon="14.1224067"><ele>105.0</ele><time>2026-04-15T18:37:28.31Z</time></trkpt><trkpt lat="40.8997383" lon="14.1223083"><ele>105.0</ele><time>2026-04-15T18:37:30.307Z</time></trkpt><trkpt lat="40.8997883" lon="14.1222117"><ele>105.0</ele><time>2026-04-15T18:37:32.308Z</time></trkpt><trkpt lat="40.8998483" lon="14.1221083"><ele>105.0</ele><time>2026-04-15T18:37:34.308Z</time></trkpt><trkpt lat="40.8999067" lon="14.122"><ele>105.0</ele><time>2026-04-15T18:37:36.308Z</time></trkpt><trkpt lat="40.8999583" lon="14.1218983"><ele>105.0</ele><time>2026-04-15T18:37:38.31Z</time></trkpt><trkpt lat="40.9000133" lon="14.121795"><ele>105.0</ele><time>2026-04-15T18:37:40.308Z</time></trkpt><trkpt lat="40.9000667" lon="14.12169"><ele>105.0</ele><time>2026-04-15T18:37:42.31Z</time></trkpt><trkpt lat="40.90013" lon="14.1215833"><ele>105.0</ele><time>2026-04-15T18:37:44.311Z</time></trkpt><trkpt lat="40.9001933" lon="14.1214733"><ele>105.0</ele><time>2026-04-15T18:37:46.311Z</time></trkpt><trkpt lat="40.9002517" lon="14.12136"><ele>105.0</ele><time>2026-04-15T18:37:48.309Z</time></trkpt><trkpt lat="40.9003183" lon="14.1212417"><ele>105.2</ele><time>2026-04-15T18:37:50.309Z</time></trkpt><trkpt lat="40.90038" lon="14.1211217"><ele>105.4</ele><time>2026-04-15T18:37:52.307Z</time></trkpt><trkpt lat="40.9004417" lon="14.1210083"><ele>105.6</ele><time>2026-04-15T18:37:54.308Z</time></trkpt><trkpt lat="40.9005117" lon="14.1208883"><ele>105.8</ele><time>2026-04-15T18:37:56.31Z</time></trkpt><trkpt lat="40.90058" lon="14.120775"><ele>106.0</ele><time>2026-04-15T18:37:58.308Z</time></trkpt><trkpt lat="40.9006483" lon="14.120665"><ele>106.0</ele><time>2026-04-15T18:38:00.306Z</time></trkpt><trkpt lat="40.9007183" lon="14.1205583"><ele>106.0</ele><time>2026-04-15T18:38:02.308Z</time></trkpt><trkpt lat="40.90079" lon="14.1204517"><ele>106.0</ele><time>2026-04-15T18:38:04.307Z</time></trkpt><trkpt lat="40.90087" lon="14.1203383"><ele>106.0</ele><time>2026-04-15T18:38:06.308Z</time></trkpt><trkpt lat="40.9009533" lon="14.1202267"><ele>105.75</ele><time>2026-04-15T18:38:08.309Z</time></trkpt><trkpt lat="40.901045" lon="14.1201233"><ele>105.5</ele><time>2026-04-15T18:38:10.307Z</time></trkpt><trkpt lat="40.9011417" lon="14.120025"><ele>105.25</ele><time>2026-04-15T18:38:12.309Z</time></trkpt><trkpt lat="40.90124" lon="14.11994"><ele>105.0</ele><time>2026-04-15T18:38:14.31Z</time></trkpt><trkpt lat="40.9013417" lon="14.1198667"><ele>105.0</ele><time>2026-04-15T18:38:16.308Z</time></trkpt><trkpt lat="40.901445" lon="14.1198017"><ele>105.0</ele><time>2026-04-15T18:38:18.308Z</time></trkpt><trkpt lat="40.9015533" lon="14.119745"><ele>105.0</ele><time>2026-04-15T18:38:20.309Z</time></trkpt><trkpt lat="40.9016133" lon="14.1197183"><ele>105.0</ele><time>2026-04-15T18:38:21.309Z</time></trkpt><trkpt lat="40.90173" lon="14.1196767"><ele>105.0</ele><time>2026-04-15T18:38:23.309Z</time></trkpt><trkpt lat="40.901845" lon="14.119645"><ele>105.4</ele><time>2026-04-15T18:38:25.309Z</time></trkpt><trkpt lat="40.9019067" lon="14.1196283"><ele>105.8</ele><time>2026-04-15T18:38:26.309Z</time></trkpt><trkpt lat="40.90202" lon="14.1195967"><ele>106.19999999999999</ele><time>2026-04-15T18:38:28.308Z</time></trkpt><trkpt lat="40.902135" lon="14.11958"><ele>106.6</ele><time>2026-04-15T18:38:30.309Z</time></trkpt><trkpt lat="40.9022533" lon="14.1195683"><ele>107.0</ele><time>2026-04-15T18:38:32.31Z</time></trkpt><trkpt lat="40.9023683" lon="14.1195667"><ele>107.0</ele><time>2026-04-15T18:38:34.31Z</time></trkpt><trkpt lat="40.9024833" lon="14.1195717"><ele>107.0</ele><time>2026-04-15T18:38:36.31Z</time></trkpt><trkpt lat="40.9025967" lon="14.1195867"><ele>107.0</ele><time>2026-04-15T18:38:38.31Z</time></trkpt><trkpt lat="40.9027067" lon="14.1196133"><ele>107.0</ele><time>2026-04-15T18:38:40.31Z</time></trkpt><trkpt lat="40.9028133" lon="14.1196483"><ele>107.6</ele><time>2026-04-15T18:38:42.31Z</time></trkpt><trkpt lat="40.902915" lon="14.11968"><ele>108.19999999999999</ele><time>2026-04-15T18:38:44.31Z</time></trkpt><trkpt lat="40.903015" lon="14.1197217"><ele>108.8</ele><time>2026-04-15T18:38:46.307Z</time></trkpt><trkpt lat="40.9031183" lon="14.1197667"><ele>109.4</ele><time>2026-04-15T18:38:48.309Z</time></trkpt><trkpt lat="40.90321" lon="14.1198067"><ele>110.0</ele><time>2026-04-15T18:38:50.31Z</time></trkpt><trkpt lat="40.9033067" lon="14.119855"><ele>110.0</ele><time>2026-04-15T18:38:52.308Z</time></trkpt><trkpt lat="40.9034" lon="14.1199067"><ele>110.0</ele><time>2026-04-15T18:38:54.308Z</time></trkpt><trkpt lat="40.9034867" lon="14.1199783"><ele>110.0</ele><time>2026-04-15T18:38:56.311Z</time></trkpt><trkpt lat="40.9035767" lon="14.1200417"><ele>110.0</ele><time>2026-04-15T18:38:58.309Z</time></trkpt><trkpt lat="40.90366" lon="14.1201"><ele>110.0</ele><time>2026-04-15T18:39:00.31Z</time></trkpt><trkpt lat="40.9037267" lon="14.12017"><ele>110.0</ele><time>2026-04-15T18:39:02.311Z</time></trkpt><trkpt lat="40.9037867" lon="14.1202467"><ele>110.0</ele><time>2026-04-15T18:39:04.308Z</time></trkpt><trkpt lat="40.9038533" lon="14.12033"><ele>110.0</ele><time>2026-04-15T18:39:06.309Z</time></trkpt><trkpt lat="40.903925" lon="14.120425"><ele>110.0</ele><time>2026-04-15T18:39:08.31Z</time></trkpt><trkpt lat="40.9039867" lon="14.1205383"><ele>110.0</ele><time>2026-04-15T18:39:10.308Z</time></trkpt><trkpt lat="40.9040383" lon="14.1206633"><ele>110.4</ele><time>2026-04-15T18:39:12.309Z</time></trkpt><trkpt lat="40.904095" lon="14.120785"><ele>110.8</ele><time>2026-04-15T18:39:14.31Z</time></trkpt><trkpt lat="40.9041367" lon="14.120915"><ele>111.19999999999999</ele><time>2026-04-15T18:39:16.31Z</time></trkpt><trkpt lat="40.9041633" lon="14.121045"><ele>111.6</ele><time>2026-04-15T18:39:18.305Z</time></trkpt><trkpt lat="40.9041867" lon="14.1211533"><ele>112.0</ele><time>2026-04-15T18:39:20.308Z</time></trkpt><trkpt lat="40.9042367" lon="14.1212167"><ele>111.0</ele><time>2026-04-15T18:40:06.307Z</time></trkpt><trkpt lat="40.9043" lon="14.1212667"><ele>109.99999999999999</ele><time>2026-04-15T18:40:08.304Z</time></trkpt><trkpt lat="40.9043817" lon="14.1213"><ele>108.99999999999999</ele><time>2026-04-15T18:40:10.305Z</time></trkpt><trkpt lat="40.90447" lon="14.1213617"><ele>108.0</ele><time>2026-04-15T18:40:12.304Z</time></trkpt><trkpt lat="40.9045483" lon="14.121465"><ele>107.0</ele><time>2026-04-15T18:40:14.305Z</time></trkpt><trkpt lat="40.9046167" lon="14.1215817"><ele>106.8</ele><time>2026-04-15T18:40:16.304Z</time></trkpt><trkpt lat="40.904675" lon="14.1217117"><ele>106.6</ele><time>2026-04-15T18:40:18.305Z</time></trkpt><trkpt lat="40.9047267" lon="14.1218283"><ele>106.39999999999999</ele><time>2026-04-15T18:40:20.305Z</time></trkpt><trkpt lat="40.9047833" lon="14.12194"><ele>106.19999999999999</ele><time>2026-04-15T18:40:22.304Z</time></trkpt><trkpt lat="40.90483" lon="14.1220617"><ele>106.0</ele><time>2026-04-15T18:40:24.305Z</time></trkpt><trkpt lat="40.90488" lon="14.1221717"><ele>106.0</ele><time>2026-04-15T18:40:26.305Z</time></trkpt><trkpt lat="40.90493" lon="14.1223"><ele>106.0</ele><time>2026-04-15T18:40:28.303Z</time></trkpt><trkpt lat="40.9049683" lon="14.1224433"><ele>106.0</ele><time>2026-04-15T18:40:30.304Z</time></trkpt><trkpt lat="40.9050083" lon="14.1225817"><ele>106.0</ele><time>2026-04-15T18:40:32.305Z</time></trkpt><trkpt lat="40.90506" lon="14.12273"><ele>105.66666666666667</ele><time>2026-04-15T18:40:34.304Z</time></trkpt><trkpt lat="40.9051133" lon="14.12288"><ele>105.33333333333334</ele><time>2026-04-15T18:40:36.305Z</time></trkpt><trkpt lat="40.9051383" lon="14.1229567"><ele>105.0</ele><time>2026-04-15T18:40:37.304Z</time></trkpt><trkpt lat="40.905165" lon="14.1230367"><ele>104.66666666666666</ele><time>2026-04-15T18:40:38.304Z</time></trkpt><trkpt lat="40.90519" lon="14.1231133"><ele>104.33333333333333</ele><time>2026-04-15T18:40:39.303Z</time></trkpt><trkpt lat="40.9052467" lon="14.123265"><ele>104.0</ele><time>2026-04-15T18:40:41.304Z</time></trkpt><trkpt lat="40.9052767" lon="14.12334"><ele>103.80000000000001</ele><time>2026-04-15T18:40:42.304Z</time></trkpt><trkpt lat="40.9053067" lon="14.123415"><ele>103.60000000000001</ele><time>2026-04-15T18:40:43.304Z</time></trkpt><trkpt lat="40.90536" lon="14.1235617"><ele>103.4</ele><time>2026-04-15T18:40:45.304Z</time></trkpt><trkpt lat="40.9054033" lon="14.12371"><ele>103.2</ele><time>2026-04-15T18:40:47.304Z</time></trkpt><trkpt lat="40.9054517" lon="14.1238533"><ele>103.0</ele><time>2026-04-15T18:40:49.305Z</time></trkpt><trkpt lat="40.9054817" lon="14.1239283"><ele>102.99999999999999</ele><time>2026-04-15T18:40:50.305Z</time></trkpt><trkpt lat="40.9055133" lon="14.124005"><ele>103.0</ele><time>2026-04-15T18:40:51.304Z</time></trkpt><trkpt lat="40.905545" lon="14.1240917"><ele>103.0</ele><time>2026-04-15T18:40:52.305Z</time></trkpt><trkpt lat="40.90557" lon="14.1241683"><ele>103.0</ele><time>2026-04-15T18:40:53.306Z</time></trkpt><trkpt lat="40.9055983" lon="14.1242483"><ele>103.0</ele><time>2026-04-15T18:40:54.305Z</time></trkpt><trkpt lat="40.90563" lon="14.1243317"><ele>102.99999999999999</ele><time>2026-04-15T18:40:55.305Z</time></trkpt><trkpt lat="40.9056633" lon="14.124415"><ele>103.0</ele><time>2026-04-15T18:40:56.305Z</time></trkpt><trkpt lat="40.9056933" lon="14.1244983"><ele>104.0</ele><time>2026-04-15T18:40:57.304Z</time></trkpt><trkpt lat="40.905745" lon="14.1246383"><ele>105.0</ele><time>2026-04-15T18:40:59.308Z</time></trkpt><trkpt lat="40.9057917" lon="14.1247717"><ele>106.0</ele><time>2026-04-15T18:41:01.305Z</time></trkpt><trkpt lat="40.9058433" lon="14.1249033"><ele>107.0</ele><time>2026-04-15T18:41:03.305Z</time></trkpt><trkpt lat="40.9058933" lon="14.12504"><ele>106.5</ele><time>2026-04-15T18:41:05.305Z</time></trkpt><trkpt lat="40.905935" lon="14.1251767"><ele>106.0</ele><time>2026-04-15T18:41:07.305Z</time></trkpt><trkpt lat="40.9059817" lon="14.125315"><ele>105.5</ele><time>2026-04-15T18:41:09.311Z</time></trkpt><trkpt lat="40.90603" lon="14.125455"><ele>105.0</ele><time>2026-04-15T18:41:11.305Z</time></trkpt><trkpt lat="40.9060783" lon="14.1255967"><ele>105.0</ele><time>2026-04-15T18:41:13.305Z</time></trkpt><trkpt lat="40.90613" lon="14.12574"><ele>105.0</ele><time>2026-04-15T18:41:15.304Z</time></trkpt><trkpt lat="40.9061783" lon="14.1258717"><ele>105.0</ele><time>2026-04-15T18:41:17.304Z</time></trkpt><trkpt lat="40.9062267" lon="14.1260067"><ele>105.0</ele><time>2026-04-15T18:41:19.305Z</time></trkpt><trkpt lat="40.9062767" lon="14.1261383"><ele>105.0</ele><time>2026-04-15T18:41:21.304Z</time></trkpt><trkpt lat="40.9063283" lon="14.126275"><ele>105.0</ele><time>2026-04-15T18:41:23.307Z</time></trkpt><trkpt lat="40.9063783" lon="14.126415"><ele>105.0</ele><time>2026-04-15T18:41:25.305Z</time></trkpt><trkpt lat="40.9064267" lon="14.1265517"><ele>105.0</ele><time>2026-04-15T18:41:27.308Z</time></trkpt><trkpt lat="40.906475" lon="14.1266933"><ele>105.4</ele><time>2026-04-15T18:41:29.305Z</time></trkpt><trkpt lat="40.90652" lon="14.1268317"><ele>105.8</ele><time>2026-04-15T18:41:31.305Z</time></trkpt><trkpt lat="40.90657" lon="14.12696"><ele>106.19999999999999</ele><time>2026-04-15T18:41:33.304Z</time></trkpt><trkpt lat="40.9066167" lon="14.1270917"><ele>106.6</ele><time>2026-04-15T18:41:35.303Z</time></trkpt><trkpt lat="40.9066617" lon="14.1272233"><ele>107.0</ele><time>2026-04-15T18:41:37.305Z</time></trkpt><trkpt lat="40.90671" lon="14.1273567"><ele>106.5</ele><time>2026-04-15T18:41:39.305Z</time></trkpt><trkpt lat="40.9067567" lon="14.12748"><ele>106.0</ele><time>2026-04-15T18:41:41.305Z</time></trkpt><trkpt lat="40.9068017" lon="14.12761"><ele>105.5</ele><time>2026-04-15T18:41:43.304Z</time></trkpt><trkpt lat="40.9068467" lon="14.1277483"><ele>105.0</ele><time>2026-04-15T18:41:45.304Z</time></trkpt><trkpt lat="40.9069033" lon="14.1278983"><ele>105.0</ele><time>2026-04-15T18:41:47.305Z</time></trkpt><trkpt lat="40.90693" lon="14.127975"><ele>105.0</ele><time>2026-04-15T18:41:48.305Z</time></trkpt><trkpt lat="40.9069833" lon="14.1281217"><ele>105.0</ele><time>2026-04-15T18:41:50.305Z</time></trkpt><trkpt lat="40.9070133" lon="14.1281983"><ele>105.0</ele><time>2026-04-15T18:41:51.305Z</time></trkpt><trkpt lat="40.90704" lon="14.128275"><ele>105.0</ele><time>2026-04-15T18:41:52.305Z</time></trkpt><trkpt lat="40.907065" lon="14.1283533"><ele>105.0</ele><time>2026-04-15T18:41:53.305Z</time></trkpt><trkpt lat="40.90709" lon="14.12843"><ele>105.0</ele><time>2026-04-15T18:41:54.305Z</time></trkpt><trkpt lat="40.9071167" lon="14.1285067"><ele>105.0</ele><time>2026-04-15T18:41:55.306Z</time></trkpt><trkpt lat="40.9071433" lon="14.1285833"><ele>105.0</ele><time>2026-04-15T18:41:56.305Z</time></trkpt><trkpt lat="40.9071667" lon="14.1286617"><ele>105.0</ele><time>2026-04-15T18:41:57.305Z</time></trkpt><trkpt lat="40.9071917" lon="14.12874"><ele>105.0</ele><time>2026-04-15T18:41:58.305Z</time></trkpt><trkpt lat="40.90724" lon="14.1288883"><ele>105.0</ele><time>2026-04-15T18:42:00.305Z</time></trkpt><trkpt lat="40.9072933" lon="14.1290283"><ele>105.0</ele><time>2026-04-15T18:42:02.304Z</time></trkpt><trkpt lat="40.90734" lon="14.1291617"><ele>105.0</ele><time>2026-04-15T18:42:04.308Z</time></trkpt><trkpt lat="40.9073867" lon="14.1292917"><ele>105.0</ele><time>2026-04-15T18:42:06.305Z</time></trkpt><trkpt lat="40.907435" lon="14.1294267"><ele>105.0</ele><time>2026-04-15T18:42:08.305Z</time></trkpt><trkpt lat="40.9074867" lon="14.12956"><ele>105.0</ele><time>2026-04-15T18:42:10.303Z</time></trkpt><trkpt lat="40.9075317" lon="14.1297017"><ele>104.83333333333333</ele><time>2026-04-15T18:42:12.304Z</time></trkpt><trkpt lat="40.9075817" lon="14.1298533"><ele>104.66666666666666</ele><time>2026-04-15T18:42:14.307Z</time></trkpt><trkpt lat="40.9076067" lon="14.1299333"><ele>104.5</ele><time>2026-04-15T18:42:15.304Z</time></trkpt><trkpt lat="40.9076317" lon="14.13001"><ele>104.33333333333333</ele><time>2026-04-15T18:42:16.305Z</time></trkpt><trkpt lat="40.9076567" lon="14.1300883"><ele>104.16666666666666</ele><time>2026-04-15T18:42:17.305Z</time></trkpt><trkpt lat="40.9077083" lon="14.1302283"><ele>104.0</ele><time>2026-04-15T18:42:19.305Z</time></trkpt><trkpt lat="40.9077667" lon="14.1303617"><ele>104.0</ele><time>2026-04-15T18:42:21.304Z</time></trkpt><trkpt lat="40.9078183" lon="14.13049"><ele>104.0</ele><time>2026-04-15T18:42:23.305Z</time></trkpt><trkpt lat="40.9078667" lon="14.1306233"><ele>104.0</ele><time>2026-04-15T18:42:25.305Z</time></trkpt><trkpt lat="40.9079117" lon="14.1307633"><ele>104.0</ele><time>2026-04-15T18:42:27.305Z</time></trkpt><trkpt lat="40.90796" lon="14.1309033"><ele>104.0</ele><time>2026-04-15T18:42:29.305Z</time></trkpt><trkpt lat="40.90801" lon="14.1310467"><ele>104.0</ele><time>2026-04-15T18:42:31.305Z</time></trkpt><trkpt lat="40.9080617" lon="14.1311883"><ele>104.0</ele><time>2026-04-15T18:42:33.304Z</time></trkpt><trkpt lat="40.9081117" lon="14.13132"><ele>104.0</ele><time>2026-04-15T18:42:35.304Z</time></trkpt><trkpt lat="40.9081617" lon="14.131455"><ele>104.4</ele><time>2026-04-15T18:42:37.304Z</time></trkpt><trkpt lat="40.9082033" lon="14.131585"><ele>104.80000000000001</ele><time>2026-04-15T18:42:39.305Z</time></trkpt><trkpt lat="40.9082483" lon="14.1317217"><ele>105.19999999999999</ele><time>2026-04-15T18:42:41.305Z</time></trkpt><trkpt lat="40.9082917" lon="14.1318567"><ele>105.6</ele><time>2026-04-15T18:42:43.305Z</time></trkpt><trkpt lat="40.90834" lon="14.1319867"><ele>106.0</ele><time>2026-04-15T18:42:45.305Z</time></trkpt><trkpt lat="40.9083867" lon="14.1321183"><ele>105.25</ele><time>2026-04-15T18:42:47.305Z</time></trkpt><trkpt lat="40.9084383" lon="14.132255"><ele>104.5</ele><time>2026-04-15T18:42:49.306Z</time></trkpt><trkpt lat="40.9084917" lon="14.132395"><ele>103.75</ele><time>2026-04-15T18:42:51.305Z</time></trkpt><trkpt lat="40.9085417" lon="14.1325383"><ele>103.0</ele><time>2026-04-15T18:42:53.304Z</time></trkpt><trkpt lat="40.9085967" lon="14.1326833"><ele>103.0</ele><time>2026-04-15T18:42:55.305Z</time></trkpt><trkpt lat="40.90865" lon="14.1328333"><ele>103.0</ele><time>2026-04-15T18:42:57.305Z</time></trkpt><trkpt lat="40.9087" lon="14.1329917"><ele>103.0</ele><time>2026-04-15T18:42:59.305Z</time></trkpt><trkpt lat="40.90875" lon="14.133145"><ele>103.0</ele><time>2026-04-15T18:43:01.305Z</time></trkpt><trkpt lat="40.908775" lon="14.1332217"><ele>103.0</ele><time>2026-04-15T18:43:02.305Z</time></trkpt><trkpt lat="40.9088017" lon="14.1332983"><ele>103.0</ele><time>2026-04-15T18:43:03.305Z</time></trkpt><trkpt lat="40.9088283" lon="14.1333767"><ele>103.0</ele><time>2026-04-15T18:43:04.305Z</time></trkpt><trkpt lat="40.9088817" lon="14.133525"><ele>103.0</ele><time>2026-04-15T18:43:06.306Z</time></trkpt><trkpt lat="40.9089317" lon="14.13367"><ele>103.0</ele><time>2026-04-15T18:43:08.309Z</time></trkpt><trkpt lat="40.908955" lon="14.1337517"><ele>103.0</ele><time>2026-04-15T18:43:09.304Z</time></trkpt><trkpt lat="40.9090067" lon="14.1339"><ele>103.0</ele><time>2026-04-15T18:43:11.305Z</time></trkpt><trkpt lat="40.9090583" lon="14.1340467"><ele>103.0</ele><time>2026-04-15T18:43:13.305Z</time></trkpt><trkpt lat="40.9091117" lon="14.1341917"><ele>103.0</ele><time>2026-04-15T18:43:15.305Z</time></trkpt><trkpt lat="40.9091667" lon="14.1343367"><ele>103.0</ele><time>2026-04-15T18:43:17.305Z</time></trkpt><trkpt lat="40.9092233" lon="14.1344833"><ele>102.4</ele><time>2026-04-15T18:43:19.305Z</time></trkpt><trkpt lat="40.9092533" lon="14.1345617"><ele>101.80000000000001</ele><time>2026-04-15T18:43:20.305Z</time></trkpt><trkpt lat="40.9092817" lon="14.1346367"><ele>101.2</ele><time>2026-04-15T18:43:21.304Z</time></trkpt><trkpt lat="40.9093333" lon="14.13478"><ele>100.6</ele><time>2026-04-15T18:43:23.305Z</time></trkpt><trkpt lat="40.9093817" lon="14.1349283"><ele>100.0</ele><time>2026-04-15T18:43:25.305Z</time></trkpt><trkpt lat="40.90943" lon="14.1350717"><ele>100.0</ele><time>2026-04-15T18:43:27.304Z</time></trkpt><trkpt lat="40.9094817" lon="14.1352083"><ele>100.0</ele><time>2026-04-15T18:43:29.303Z</time></trkpt><trkpt lat="40.9095283" lon="14.1353517"><ele>100.0</ele><time>2026-04-15T18:43:31.306Z</time></trkpt><trkpt lat="40.90958" lon="14.135495"><ele>100.0</ele><time>2026-04-15T18:43:33.305Z</time></trkpt><trkpt lat="40.909625" lon="14.1356467"><ele>100.5</ele><time>2026-04-15T18:43:35.305Z</time></trkpt><trkpt lat="40.909675" lon="14.1357933"><ele>101.0</ele><time>2026-04-15T18:43:37.305Z</time></trkpt><trkpt lat="40.9097183" lon="14.1359383"><ele>101.5</ele><time>2026-04-15T18:43:39.305Z</time></trkpt><trkpt lat="40.9097683" lon="14.1360867"><ele>102.0</ele><time>2026-04-15T18:43:41.305Z</time></trkpt><trkpt lat="40.90982" lon="14.136235"><ele>102.0</ele><time>2026-04-15T18:43:43.305Z</time></trkpt><trkpt lat="40.90987" lon="14.13637"><ele>102.0</ele><time>2026-04-15T18:43:45.304Z</time></trkpt><trkpt lat="40.9099267" lon="14.1365117"><ele>102.0</ele><time>2026-04-15T18:43:47.304Z</time></trkpt><trkpt lat="40.909955" lon="14.1365883"><ele>102.0</ele><time>2026-04-15T18:43:48.304Z</time></trkpt><trkpt lat="40.9100067" lon="14.1367317"><ele>102.0</ele><time>2026-04-15T18:43:50.305Z</time></trkpt><trkpt lat="40.910055" lon="14.1368817"><ele>101.5</ele><time>2026-04-15T18:43:52.305Z</time></trkpt><trkpt lat="40.9101033" lon="14.1370317"><ele>101.0</ele><time>2026-04-15T18:43:54.304Z</time></trkpt><trkpt lat="40.9101517" lon="14.137175"><ele>100.5</ele><time>2026-04-15T18:43:56.305Z</time></trkpt><trkpt lat="40.91018" lon="14.137255"><ele>100.0</ele><time>2026-04-15T18:43:57.305Z</time></trkpt><trkpt lat="40.9102083" lon="14.1373333"><ele>99.5</ele><time>2026-04-15T18:43:58.305Z</time></trkpt><trkpt lat="40.9102367" lon="14.1374117"><ele>99.0</ele><time>2026-04-15T18:43:59.305Z</time></trkpt><trkpt lat="40.9102633" lon="14.13749"><ele>99.0</ele><time>2026-04-15T18:44:00.306Z</time></trkpt><trkpt lat="40.9102917" lon="14.1375717"><ele>99.0</ele><time>2026-04-15T18:44:01.305Z</time></trkpt><trkpt lat="40.9103217" lon="14.1376483"><ele>99.0</ele><time>2026-04-15T18:44:02.305Z</time></trkpt><trkpt lat="40.9103533" lon="14.1377283"><ele>99.0</ele><time>2026-04-15T18:44:03.305Z</time></trkpt><trkpt lat="40.9103817" lon="14.1378067"><ele>99.0</ele><time>2026-04-15T18:44:04.305Z</time></trkpt><trkpt lat="40.9104117" lon="14.1378867"><ele>99.0</ele><time>2026-04-15T18:44:05.304Z</time></trkpt><trkpt lat="40.9104383" lon="14.137965"><ele>99.0</ele><time>2026-04-15T18:44:06.305Z</time></trkpt><trkpt lat="40.910465" lon="14.1380433"><ele>99.0</ele><time>2026-04-15T18:44:07.304Z</time></trkpt><trkpt lat="40.9104917" lon="14.13812"><ele>99.0</ele><time>2026-04-15T18:44:08.305Z</time></trkpt><trkpt lat="40.9105183" lon="14.1381983"><ele>99.0</ele><time>2026-04-15T18:44:09.305Z</time></trkpt><trkpt lat="40.9105733" lon="14.13834"><ele>99.0</ele><time>2026-04-15T18:44:11.305Z</time></trkpt><trkpt lat="40.9106" lon="14.1384167"><ele>99.0</ele><time>2026-04-15T18:44:12.305Z</time></trkpt><trkpt lat="40.9106533" lon="14.1385583"><ele>99.0</ele><time>2026-04-15T18:44:14.304Z</time></trkpt><trkpt lat="40.9107017" lon="14.13869"><ele>99.0</ele><time>2026-04-15T18:44:16.305Z</time></trkpt><trkpt lat="40.91075" lon="14.138835"><ele>99.0</ele><time>2026-04-15T18:44:18.305Z</time></trkpt><trkpt lat="40.9108" lon="14.1389717"><ele>99.0</ele><time>2026-04-15T18:44:20.304Z</time></trkpt><trkpt lat="40.910845" lon="14.1391167"><ele>99.0</ele><time>2026-04-15T18:44:22.304Z</time></trkpt><trkpt lat="40.9108933" lon="14.139265"><ele>98.80000000000001</ele><time>2026-04-15T18:44:24.306Z</time></trkpt><trkpt lat="40.91092" lon="14.1393417"><ele>98.60000000000001</ele><time>2026-04-15T18:44:25.305Z</time></trkpt><trkpt lat="40.910945" lon="14.13942"><ele>98.4</ele><time>2026-04-15T18:44:26.305Z</time></trkpt><trkpt lat="40.91099" lon="14.139565"><ele>98.2</ele><time>2026-04-15T18:44:28.304Z</time></trkpt><trkpt lat="40.91104" lon="14.1397083"><ele>98.0</ele><time>2026-04-15T18:44:30.304Z</time></trkpt><trkpt lat="40.9110883" lon="14.139845"><ele>97.5</ele><time>2026-04-15T18:44:32.305Z</time></trkpt><trkpt lat="40.91114" lon="14.1399883"><ele>97.0</ele><time>2026-04-15T18:44:34.304Z</time></trkpt><trkpt lat="40.9111933" lon="14.1401333"><ele>96.5</ele><time>2026-04-15T18:44:36.305Z</time></trkpt><trkpt lat="40.9112467" lon="14.1402783"><ele>96.0</ele><time>2026-04-15T18:44:38.305Z</time></trkpt><trkpt lat="40.9112983" lon="14.1404167"><ele>96.0</ele><time>2026-04-15T18:44:40.305Z</time></trkpt><trkpt lat="40.9113267" lon="14.1404933"><ele>96.0</ele><time>2026-04-15T18:44:41.305Z</time></trkpt><trkpt lat="40.911375" lon="14.1406267"><ele>96.0</ele><time>2026-04-15T18:44:43.305Z</time></trkpt><trkpt lat="40.911425" lon="14.1407683"><ele>96.0</ele><time>2026-04-15T18:44:45.305Z</time></trkpt><trkpt lat="40.9114517" lon="14.14085"><ele>96.0</ele><time>2026-04-15T18:44:46.304Z</time></trkpt><trkpt lat="40.91148" lon="14.1409333"><ele>96.0</ele><time>2026-04-15T18:44:47.305Z</time></trkpt><trkpt lat="40.9115083" lon="14.1410133"><ele>96.42857142857142</ele><time>2026-04-15T18:44:48.305Z</time></trkpt><trkpt lat="40.9115383" lon="14.141095"><ele>96.85714285714286</ele><time>2026-04-15T18:44:49.304Z</time></trkpt><trkpt lat="40.9115667" lon="14.141175"><ele>97.28571428571428</ele><time>2026-04-15T18:44:50.305Z</time></trkpt><trkpt lat="40.9116" lon="14.1412533"><ele>97.71428571428571</ele><time>2026-04-15T18:44:51.304Z</time></trkpt><trkpt lat="40.9116317" lon="14.1413333"><ele>98.14285714285714</ele><time>2026-04-15T18:44:52.308Z</time></trkpt><trkpt lat="40.9116633" lon="14.1414133"><ele>98.57142857142857</ele><time>2026-04-15T18:44:53.304Z</time></trkpt><trkpt lat="40.911695" lon="14.1414917"><ele>99.0</ele><time>2026-04-15T18:44:54.304Z</time></trkpt><trkpt lat="40.911725" lon="14.1415733"><ele>98.71428571428572</ele><time>2026-04-15T18:44:55.304Z</time></trkpt><trkpt lat="40.9117517" lon="14.1416533"><ele>98.42857142857142</ele><time>2026-04-15T18:44:56.305Z</time></trkpt><trkpt lat="40.9117817" lon="14.1417317"><ele>98.14285714285714</ele><time>2026-04-15T18:44:57.305Z</time></trkpt><trkpt lat="40.9118083" lon="14.14181"><ele>97.85714285714286</ele><time>2026-04-15T18:44:58.305Z</time></trkpt><trkpt lat="40.9118367" lon="14.14189"><ele>97.57142857142858</ele><time>2026-04-15T18:44:59.305Z</time></trkpt><trkpt lat="40.9118617" lon="14.1419667"><ele>97.28571428571428</ele><time>2026-04-15T18:45:00.305Z</time></trkpt><trkpt lat="40.9118883" lon="14.142045"><ele>97.0</ele><time>2026-04-15T18:45:01.308Z</time></trkpt><trkpt lat="40.911945" lon="14.1422017"><ele>97.0</ele><time>2026-04-15T18:45:03.305Z</time></trkpt><trkpt lat="40.9119733" lon="14.1422833"><ele>97.0</ele><time>2026-04-15T18:45:04.305Z</time></trkpt><trkpt lat="40.9120017" lon="14.14237"><ele>97.0</ele><time>2026-04-15T18:45:05.307Z</time></trkpt><trkpt lat="40.9120283" lon="14.1424517"><ele>97.0</ele><time>2026-04-15T18:45:06.308Z</time></trkpt><trkpt lat="40.9120567" lon="14.1425333"><ele>97.0</ele><time>2026-04-15T18:45:07.306Z</time></trkpt><trkpt lat="40.9120867" lon="14.14261"><ele>97.0</ele><time>2026-04-15T18:45:08.308Z</time></trkpt><trkpt lat="40.9121167" lon="14.142685"><ele>97.0</ele><time>2026-04-15T18:45:09.305Z</time></trkpt><trkpt lat="40.9121417" lon="14.142765"><ele>97.00000000000001</ele><time>2026-04-15T18:45:10.305Z</time></trkpt><trkpt lat="40.9121667" lon="14.142845"><ele>97.0</ele><time>2026-04-15T18:45:11.307Z</time></trkpt><trkpt lat="40.9121933" lon="14.142925"><ele>97.0</ele><time>2026-04-15T18:45:12.304Z</time></trkpt><trkpt lat="40.91222" lon="14.143005"><ele>97.0</ele><time>2026-04-15T18:45:13.305Z</time></trkpt><trkpt lat="40.9122467" lon="14.143085"><ele>97.00000000000001</ele><time>2026-04-15T18:45:14.305Z</time></trkpt><trkpt lat="40.9123017" lon="14.1432317"><ele>97.0</ele><time>2026-04-15T18:45:16.305Z</time></trkpt><trkpt lat="40.91236" lon="14.14337"><ele>97.25</ele><time>2026-04-15T18:45:18.304Z</time></trkpt><trkpt lat="40.9123883" lon="14.143445"><ele>97.5</ele><time>2026-04-15T18:45:19.305Z</time></trkpt><trkpt lat="40.912415" lon="14.1435217"><ele>97.75</ele><time>2026-04-15T18:45:20.305Z</time></trkpt><trkpt lat="40.9124417" lon="14.1436"><ele>98.0</ele><time>2026-04-15T18:45:21.305Z</time></trkpt><trkpt lat="40.9124683" lon="14.1436767"><ele>98.25</ele><time>2026-04-15T18:45:22.305Z</time></trkpt><trkpt lat="40.912495" lon="14.1437533"><ele>98.5</ele><time>2026-04-15T18:45:23.305Z</time></trkpt><trkpt lat="40.9125217" lon="14.14383"><ele>98.75</ele><time>2026-04-15T18:45:24.306Z</time></trkpt><trkpt lat="40.9125467" lon="14.14391"><ele>99.0</ele><time>2026-04-15T18:45:25.305Z</time></trkpt><trkpt lat="40.9126" lon="14.144055"><ele>98.0</ele><time>2026-04-15T18:45:27.305Z</time></trkpt><trkpt lat="40.9126567" lon="14.1441933"><ele>97.0</ele><time>2026-04-15T18:45:29.304Z</time></trkpt><trkpt lat="40.9127117" lon="14.1443367"><ele>96.0</ele><time>2026-04-15T18:45:31.305Z</time></trkpt><trkpt lat="40.9127367" lon="14.144415"><ele>95.0</ele><time>2026-04-15T18:45:32.306Z</time></trkpt><trkpt lat="40.912785" lon="14.1445617"><ele>94.0</ele><time>2026-04-15T18:45:34.305Z</time></trkpt><trkpt lat="40.91281" lon="14.14464"><ele>94.0</ele><time>2026-04-15T18:45:35.304Z</time></trkpt><trkpt lat="40.9128583" lon="14.1447883"><ele>94.0</ele><time>2026-04-15T18:45:37.305Z</time></trkpt><trkpt lat="40.9129117" lon="14.14494"><ele>94.0</ele><time>2026-04-15T18:45:39.304Z</time></trkpt><trkpt lat="40.912945" lon="14.1450117"><ele>94.0</ele><time>2026-04-15T18:45:40.304Z</time></trkpt><trkpt lat="40.91301" lon="14.1451317"><ele>94.0</ele><time>2026-04-15T18:45:42.304Z</time></trkpt><trkpt lat="40.9130867" lon="14.1452117"><ele>94.4</ele><time>2026-04-15T18:45:44.309Z</time></trkpt><trkpt lat="40.9131767" lon="14.1452883"><ele>94.80000000000001</ele><time>2026-04-15T18:45:46.305Z</time></trkpt><trkpt lat="40.9132633" lon="14.1453767"><ele>95.19999999999999</ele><time>2026-04-15T18:45:48.305Z</time></trkpt><trkpt lat="40.9133533" lon="14.1454667"><ele>95.6</ele><time>2026-04-15T18:45:50.304Z</time></trkpt><trkpt lat="40.913445" lon="14.145565"><ele>96.0</ele><time>2026-04-15T18:45:52.304Z</time></trkpt><trkpt lat="40.91354" lon="14.1456667"><ele>96.5</ele><time>2026-04-15T18:45:54.304Z</time></trkpt><trkpt lat="40.91363" lon="14.145775"><ele>97.0</ele><time>2026-04-15T18:45:56.309Z</time></trkpt><trkpt lat="40.91372" lon="14.1458767"><ele>97.5</ele><time>2026-04-15T18:45:58.307Z</time></trkpt><trkpt lat="40.91381" lon="14.1459883"><ele>98.0</ele><time>2026-04-15T18:46:00.306Z</time></trkpt><trkpt lat="40.913895" lon="14.14609"><ele>98.0</ele><time>2026-04-15T18:46:02.305Z</time></trkpt><trkpt lat="40.9139817" lon="14.1461817"><ele>98.0</ele><time>2026-04-15T18:46:04.305Z</time></trkpt><trkpt lat="40.9140733" lon="14.146275"><ele>98.0</ele><time>2026-04-15T18:46:06.305Z</time></trkpt><trkpt lat="40.914155" lon="14.1463683"><ele>98.0</ele><time>2026-04-15T18:46:08.306Z</time></trkpt><trkpt lat="40.9142317" lon="14.1464583"><ele>98.0</ele><time>2026-04-15T18:46:10.305Z</time></trkpt><trkpt lat="40.914315" lon="14.1465433"><ele>98.4</ele><time>2026-04-15T18:46:12.306Z</time></trkpt><trkpt lat="40.9143917" lon="14.1466317"><ele>98.80000000000001</ele><time>2026-04-15T18:46:14.305Z</time></trkpt><trkpt lat="40.9144633" lon="14.1467133"><ele>99.2</ele><time>2026-04-15T18:46:16.305Z</time></trkpt><trkpt lat="40.91454" lon="14.1467983"><ele>99.6</ele><time>2026-04-15T18:46:18.305Z</time></trkpt><trkpt lat="40.914615" lon="14.1468817"><ele>100.0</ele><time>2026-04-15T18:46:20.305Z</time></trkpt><trkpt lat="40.9146883" lon="14.1469633"><ele>100.00000000000001</ele><time>2026-04-15T18:46:22.305Z</time></trkpt><trkpt lat="40.9147533" lon="14.1470283"><ele>100.0</ele><time>2026-04-15T18:46:24.305Z</time></trkpt><trkpt lat="40.9148133" lon="14.1470983"><ele>100.0</ele><time>2026-04-15T18:46:26.305Z</time></trkpt><trkpt lat="40.9148867" lon="14.1471733"><ele>100.0</ele><time>2026-04-15T18:46:28.304Z</time></trkpt><trkpt lat="40.91495" lon="14.1472583"><ele>100.00000000000001</ele><time>2026-04-15T18:46:30.304Z</time></trkpt><trkpt lat="40.91503" lon="14.1473417"><ele>100.0</ele><time>2026-04-15T18:46:32.304Z</time></trkpt><trkpt lat="40.9151183" lon="14.14743"><ele>100.4</ele><time>2026-04-15T18:46:34.304Z</time></trkpt><trkpt lat="40.9152117" lon="14.14752"><ele>100.8</ele><time>2026-04-15T18:46:36.304Z</time></trkpt><trkpt lat="40.9152967" lon="14.1476183"><ele>101.19999999999999</ele><time>2026-04-15T18:46:38.304Z</time></trkpt><trkpt lat="40.9153767" lon="14.1476983"><ele>101.6</ele><time>2026-04-15T18:46:40.304Z</time></trkpt><trkpt lat="40.9154533" lon="14.147785"><ele>102.0</ele><time>2026-04-15T18:46:42.304Z</time></trkpt><trkpt lat="40.915535" lon="14.1478717"><ele>102.0</ele><time>2026-04-15T18:46:44.304Z</time></trkpt><trkpt lat="40.9156133" lon="14.14797"><ele>102.0</ele><time>2026-04-15T18:46:46.304Z</time></trkpt><trkpt lat="40.9156817" lon="14.148075"><ele>102.0</ele><time>2026-04-15T18:46:48.305Z</time></trkpt><trkpt lat="40.915765" lon="14.14817"><ele>102.0</ele><time>2026-04-15T18:46:50.304Z</time></trkpt><trkpt lat="40.9158483" lon="14.148255"><ele>102.0</ele><time>2026-04-15T18:46:52.304Z</time></trkpt><trkpt lat="40.9159283" lon="14.1483383"><ele>102.0</ele><time>2026-04-15T18:46:54.305Z</time></trkpt><trkpt lat="40.9160033" lon="14.1484283"><ele>102.0</ele><time>2026-04-15T18:46:56.304Z</time></trkpt><trkpt lat="40.9160917" lon="14.1485133"><ele>102.0</ele><time>2026-04-15T18:46:58.304Z</time></trkpt><trkpt lat="40.91618" lon="14.1486033"><ele>102.0</ele><time>2026-04-15T18:47:00.304Z</time></trkpt><trkpt lat="40.91626" lon="14.1487017"><ele>102.0</ele><time>2026-04-15T18:47:02.306Z</time></trkpt><trkpt lat="40.9163483" lon="14.1488033"><ele>102.0</ele><time>2026-04-15T18:47:04.305Z</time></trkpt><trkpt lat="40.9164483" lon="14.1489033"><ele>102.0</ele><time>2026-04-15T18:47:06.304Z</time></trkpt><trkpt lat="40.9165467" lon="14.1489867"><ele>102.0</ele><time>2026-04-15T18:47:08.304Z</time></trkpt><trkpt lat="40.9166383" lon="14.1490833"><ele>102.0</ele><time>2026-04-15T18:47:10.305Z</time></trkpt><trkpt lat="40.9167333" lon="14.1491767"><ele>101.75</ele><time>2026-04-15T18:47:12.304Z</time></trkpt><trkpt lat="40.9168217" lon="14.1492817"><ele>101.5</ele><time>2026-04-15T18:47:14.305Z</time></trkpt><trkpt lat="40.9169133" lon="14.149385"><ele>101.25</ele><time>2026-04-15T18:47:16.304Z</time></trkpt><trkpt lat="40.9169983" lon="14.1494917"><ele>101.0</ele><time>2026-04-15T18:47:18.304Z</time></trkpt><trkpt lat="40.91709" lon="14.1495967"><ele>101.0</ele><time>2026-04-15T18:47:20.305Z</time></trkpt><trkpt lat="40.9171833" lon="14.1497"><ele>101.0</ele><time>2026-04-15T18:47:22.304Z</time></trkpt><trkpt lat="40.9172717" lon="14.1498067"><ele>101.0</ele><time>2026-04-15T18:47:24.304Z</time></trkpt><trkpt lat="40.9173583" lon="14.1499167"><ele>101.0</ele><time>2026-04-15T18:47:26.305Z</time></trkpt><trkpt lat="40.9174417" lon="14.1500317"><ele>101.19999999999999</ele><time>2026-04-15T18:47:28.304Z</time></trkpt><trkpt lat="40.9175167" lon="14.150145"><ele>101.39999999999999</ele><time>2026-04-15T18:47:30.304Z</time></trkpt><trkpt lat="40.917595" lon="14.1502467"><ele>101.6</ele><time>2026-04-15T18:47:32.304Z</time></trkpt><trkpt lat="40.91767" lon="14.15035"><ele>101.8</ele><time>2026-04-15T18:47:34.303Z</time></trkpt><trkpt lat="40.9177417" lon="14.150455"><ele>102.0</ele><time>2026-04-15T18:47:36.306Z</time></trkpt><trkpt lat="40.9178033" lon="14.15057"><ele>102.19999999999999</ele><time>2026-04-15T18:47:38.305Z</time></trkpt><trkpt lat="40.91786" lon="14.150685"><ele>102.4</ele><time>2026-04-15T18:47:40.304Z</time></trkpt><trkpt lat="40.91791" lon="14.1507967"><ele>102.6</ele><time>2026-04-15T18:47:42.305Z</time></trkpt><trkpt lat="40.9179567" lon="14.1509233"><ele>102.80000000000001</ele><time>2026-04-15T18:47:44.304Z</time></trkpt><trkpt lat="40.918" lon="14.1510617"><ele>103.0</ele><time>2026-04-15T18:47:46.305Z</time></trkpt><trkpt lat="40.9180383" lon="14.15113"><ele>103.0</ele><time>2026-04-15T18:47:47.305Z</time></trkpt><trkpt lat="40.9180983" lon="14.15128"><ele>103.0</ele><time>2026-04-15T18:47:49.305Z</time></trkpt><trkpt lat="40.91814" lon="14.1514233"><ele>103.0</ele><time>2026-04-15T18:47:51.304Z</time></trkpt><trkpt lat="40.9181833" lon="14.1515617"><ele>103.0</ele><time>2026-04-15T18:47:53.305Z</time></trkpt><trkpt lat="40.9182267" lon="14.1517083"><ele>103.25</ele><time>2026-04-15T18:47:55.304Z</time></trkpt><trkpt lat="40.9182633" lon="14.1518517"><ele>103.5</ele><time>2026-04-15T18:47:57.304Z</time></trkpt><trkpt lat="40.91831" lon="14.1519983"><ele>103.75</ele><time>2026-04-15T18:47:59.304Z</time></trkpt><trkpt lat="40.91834" lon="14.15214"><ele>104.0</ele><time>2026-04-15T18:48:01.304Z</time></trkpt><trkpt lat="40.9183717" lon="14.1522867"><ele>103.99999999999999</ele><time>2026-04-15T18:48:03.304Z</time></trkpt><trkpt lat="40.918395" lon="14.1523667"><ele>104.0</ele><time>2026-04-15T18:48:04.304Z</time></trkpt><trkpt lat="40.9184217" lon="14.1524433"><ele>104.0</ele><time>2026-04-15T18:48:05.304Z</time></trkpt><trkpt lat="40.91845" lon="14.1525233"><ele>104.0</ele><time>2026-04-15T18:48:06.303Z</time></trkpt><trkpt lat="40.9185083" lon="14.152665"><ele>103.99999999999999</ele><time>2026-04-15T18:48:08.304Z</time></trkpt><trkpt lat="40.91856" lon="14.1528033"><ele>104.0</ele><time>2026-04-15T18:48:10.304Z</time></trkpt><trkpt lat="40.918605" lon="14.1529367"><ele>104.0</ele><time>2026-04-15T18:48:12.304Z</time></trkpt><trkpt lat="40.918645" lon="14.153075"><ele>104.0</ele><time>2026-04-15T18:48:14.305Z</time></trkpt><trkpt lat="40.9186817" lon="14.15321"><ele>104.0</ele><time>2026-04-15T18:48:16.306Z</time></trkpt><trkpt lat="40.9187167" lon="14.1533317"><ele>104.0</ele><time>2026-04-15T18:48:18.305Z</time></trkpt><trkpt lat="40.918725" lon="14.1534733"><ele>104.0</ele><time>2026-04-15T18:48:20.305Z</time></trkpt><trkpt lat="40.918715" lon="14.15363"><ele>103.99999999999999</ele><time>2026-04-15T18:48:22.304Z</time></trkpt><trkpt lat="40.9187067" lon="14.1537717"><ele>104.0</ele><time>2026-04-15T18:48:24.305Z</time></trkpt><trkpt lat="40.91869" lon="14.15388"><ele>104.0</ele><time>2026-04-15T18:48:26.305Z</time></trkpt><trkpt lat="40.918655" lon="14.15398"><ele>104.0</ele><time>2026-04-15T18:48:28.305Z</time></trkpt><trkpt lat="40.9186033" lon="14.1540767"><ele>103.99999999999999</ele><time>2026-04-15T18:48:30.304Z</time></trkpt><trkpt lat="40.9185533" lon="14.154155"><ele>104.0</ele><time>2026-04-15T18:48:32.305Z</time></trkpt><trkpt lat="40.9185117" lon="14.1542567"><ele>104.4</ele><time>2026-04-15T18:48:34.305Z</time></trkpt><trkpt lat="40.9184567" lon="14.1543467"><ele>104.80000000000001</ele><time>2026-04-15T18:48:36.305Z</time></trkpt><trkpt lat="40.9184017" lon="14.1544483"><ele>105.19999999999999</ele><time>2026-04-15T18:48:38.304Z</time></trkpt><trkpt lat="40.9183367" lon="14.1545583"><ele>105.6</ele><time>2026-04-15T18:48:40.304Z</time></trkpt><trkpt lat="40.9182667" lon="14.15466"><ele>106.0</ele><time>2026-04-15T18:48:42.305Z</time></trkpt><trkpt lat="40.918195" lon="14.1547667"><ele>106.0</ele><time>2026-04-15T18:48:44.304Z</time></trkpt><trkpt lat="40.9181217" lon="14.15488"><ele>106.0</ele><time>2026-04-15T18:48:46.305Z</time></trkpt><trkpt lat="40.9180583" lon="14.155"><ele>106.0</ele><time>2026-04-15T18:48:48.305Z</time></trkpt><trkpt lat="40.9179933" lon="14.15512"><ele>106.0</ele><time>2026-04-15T18:48:50.305Z</time></trkpt><trkpt lat="40.9179367" lon="14.1552417"><ele>106.0</ele><time>2026-04-15T18:48:52.304Z</time></trkpt><trkpt lat="40.9178733" lon="14.1553633"><ele>106.0</ele><time>2026-04-15T18:48:54.305Z</time></trkpt><trkpt lat="40.9178083" lon="14.1554817"><ele>106.0</ele><time>2026-04-15T18:48:56.305Z</time></trkpt><trkpt lat="40.9177667" lon="14.155545"><ele>106.0</ele><time>2026-04-15T18:48:57.303Z</time></trkpt><trkpt lat="40.9177017" lon="14.1556633"><ele>106.0</ele><time>2026-04-15T18:48:59.305Z</time></trkpt><trkpt lat="40.9176333" lon="14.1557817"><ele>106.0</ele><time>2026-04-15T18:49:01.305Z</time></trkpt><trkpt lat="40.9175633" lon="14.1559"><ele>106.6</ele><time>2026-04-15T18:49:03.304Z</time></trkpt><trkpt lat="40.917495" lon="14.1560167"><ele>107.19999999999999</ele><time>2026-04-15T18:49:05.305Z</time></trkpt><trkpt lat="40.9174267" lon="14.15613"><ele>107.80000000000001</ele><time>2026-04-15T18:49:07.305Z</time></trkpt><trkpt lat="40.9173617" lon="14.1562383"><ele>108.4</ele><time>2026-04-15T18:49:09.305Z</time></trkpt><trkpt lat="40.9173" lon="14.156355"><ele>109.0</ele><time>2026-04-15T18:49:11.304Z</time></trkpt><trkpt lat="40.9172267" lon="14.1564683"><ele>108.75</ele><time>2026-04-15T18:49:13.305Z</time></trkpt><trkpt lat="40.9171567" lon="14.15659"><ele>108.5</ele><time>2026-04-15T18:49:15.304Z</time></trkpt><trkpt lat="40.917095" lon="14.1567267"><ele>108.25</ele><time>2026-04-15T18:49:17.305Z</time></trkpt><trkpt lat="40.9170317" lon="14.1568583"><ele>108.0</ele><time>2026-04-15T18:49:19.303Z</time></trkpt><trkpt lat="40.9169683" lon="14.156995"><ele>108.0</ele><time>2026-04-15T18:49:21.305Z</time></trkpt><trkpt lat="40.916905" lon="14.1571317"><ele>108.0</ele><time>2026-04-15T18:49:23.304Z</time></trkpt><trkpt lat="40.91684" lon="14.1572583"><ele>108.0</ele><time>2026-04-15T18:49:25.305Z</time></trkpt><trkpt lat="40.9167717" lon="14.1573817"><ele>108.0</ele><time>2026-04-15T18:49:27.303Z</time></trkpt><trkpt lat="40.9167067" lon="14.1575017"><ele>108.60000000000001</ele><time>2026-04-15T18:49:29.304Z</time></trkpt><trkpt lat="40.91664" lon="14.1576167"><ele>109.20000000000002</ele><time>2026-04-15T18:49:31.305Z</time></trkpt><trkpt lat="40.9165783" lon="14.15773"><ele>109.8</ele><time>2026-04-15T18:49:33.305Z</time></trkpt><trkpt lat="40.9165183" lon="14.1578417"><ele>110.4</ele><time>2026-04-15T18:49:35.305Z</time></trkpt><trkpt lat="40.9164583" lon="14.15796"><ele>111.0</ele><time>2026-04-15T18:49:37.304Z</time></trkpt><trkpt lat="40.9163933" lon="14.1580783"><ele>111.0</ele><time>2026-04-15T18:49:39.304Z</time></trkpt><trkpt lat="40.9163267" lon="14.158195"><ele>111.0</ele><time>2026-04-15T18:49:41.305Z</time></trkpt><trkpt lat="40.91626" lon="14.1583233"><ele>111.0</ele><time>2026-04-15T18:49:43.305Z</time></trkpt><trkpt lat="40.91619" lon="14.1584483"><ele>111.0</ele><time>2026-04-15T18:49:45.305Z</time></trkpt><trkpt lat="40.9161133" lon="14.15857"><ele>111.0</ele><time>2026-04-15T18:49:47.304Z</time></trkpt><trkpt lat="40.9160767" lon="14.1586383"><ele>111.0</ele><time>2026-04-15T18:49:48.306Z</time></trkpt><trkpt lat="40.9160083" lon="14.15876"><ele>111.0</ele><time>2026-04-15T18:49:50.304Z</time></trkpt><trkpt lat="40.9159283" lon="14.1588833"><ele>111.0</ele><time>2026-04-15T18:49:52.304Z</time></trkpt><trkpt lat="40.9158617" lon="14.1590067"><ele>111.0</ele><time>2026-04-15T18:49:54.305Z</time></trkpt><trkpt lat="40.9158033" lon="14.1591333"><ele>111.5</ele><time>2026-04-15T18:49:56.305Z</time></trkpt><trkpt lat="40.9157517" lon="14.1592167"><ele>112.0</ele><time>2026-04-15T18:49:58.305Z</time></trkpt><trkpt lat="40.9157283" lon="14.1593367"><ele>112.5</ele><time>2026-04-15T18:50:01.305Z</time></trkpt><trkpt lat="40.9157267" lon="14.1594233"><ele>113.0</ele><time>2026-04-15T18:50:03.305Z</time></trkpt><trkpt lat="40.91573" lon="14.1595333"><ele>113.5</ele><time>2026-04-15T18:50:06.305Z</time></trkpt><trkpt lat="40.9157717" lon="14.15962"><ele>114.0</ele><time>2026-04-15T18:50:08.309Z</time></trkpt><trkpt lat="40.9157983" lon="14.1597217"><ele>114.0</ele><time>2026-04-15T18:50:10.305Z</time></trkpt><trkpt lat="40.9158033" lon="14.159835"><ele>114.0</ele><time>2026-04-15T18:50:12.305Z</time></trkpt><trkpt lat="40.9158033" lon="14.159955"><ele>114.0</ele><time>2026-04-15T18:50:14.304Z</time></trkpt><trkpt lat="40.9158033" lon="14.1600817"><ele>114.0</ele><time>2026-04-15T18:50:16.305Z</time></trkpt><trkpt lat="40.9158" lon="14.1602183"><ele>114.0</ele><time>2026-04-15T18:50:18.304Z</time></trkpt><trkpt lat="40.9158017" lon="14.1603567"><ele>113.80000000000001</ele><time>2026-04-15T18:50:20.306Z</time></trkpt><trkpt lat="40.9158017" lon="14.1604933"><ele>113.60000000000001</ele><time>2026-04-15T18:50:22.305Z</time></trkpt><trkpt lat="40.9157967" lon="14.16065"><ele>113.4</ele><time>2026-04-15T18:50:24.304Z</time></trkpt><trkpt lat="40.9158" lon="14.1607967"><ele>113.2</ele><time>2026-04-15T18:50:26.305Z</time></trkpt><trkpt lat="40.9158017" lon="14.160945"><ele>113.0</ele><time>2026-04-15T18:50:28.305Z</time></trkpt><trkpt lat="40.9158067" lon="14.161085"><ele>112.83333333333333</ele><time>2026-04-15T18:50:30.304Z</time></trkpt><trkpt lat="40.9158083" lon="14.1612233"><ele>112.66666666666666</ele><time>2026-04-15T18:50:32.304Z</time></trkpt><trkpt lat="40.9158117" lon="14.161355"><ele>112.5</ele><time>2026-04-15T18:50:34.304Z</time></trkpt><trkpt lat="40.91581" lon="14.1614667"><ele>112.33333333333334</ele><time>2026-04-15T18:50:36.305Z</time></trkpt><trkpt lat="40.9157917" lon="14.1615517"><ele>112.16666666666667</ele><time>2026-04-15T18:51:19.305Z</time></trkpt><trkpt lat="40.9158083" lon="14.1616617"><ele>112.0</ele><time>2026-04-15T18:51:22.305Z</time></trkpt><trkpt lat="40.91581" lon="14.16176"><ele>112.00000000000001</ele><time>2026-04-15T18:51:24.306Z</time></trkpt><trkpt lat="40.9158067" lon="14.1618733"><ele>112.0</ele><time>2026-04-15T18:51:26.305Z</time></trkpt><trkpt lat="40.9157983" lon="14.1619917"><ele>112.0</ele><time>2026-04-15T18:51:28.304Z</time></trkpt><trkpt lat="40.915795" lon="14.1620933"><ele>112.0</ele><time>2026-04-15T18:51:30.306Z</time></trkpt><trkpt lat="40.915795" lon="14.16221"><ele>112.00000000000001</ele><time>2026-04-15T18:51:32.305Z</time></trkpt><trkpt lat="40.915805" lon="14.162335"><ele>112.0</ele><time>2026-04-15T18:51:34.305Z</time></trkpt><trkpt lat="40.9158083" lon="14.1624533"><ele>112.19999999999999</ele><time>2026-04-15T18:51:36.305Z</time></trkpt><trkpt lat="40.9158067" lon="14.1625783"><ele>112.39999999999999</ele><time>2026-04-15T18:51:38.304Z</time></trkpt><trkpt lat="40.915805" lon="14.1627067"><ele>112.60000000000001</ele><time>2026-04-15T18:51:40.305Z</time></trkpt><trkpt lat="40.9158067" lon="14.1628367"><ele>112.80000000000001</ele><time>2026-04-15T18:51:42.306Z</time></trkpt><trkpt lat="40.915815" lon="14.1629683"><ele>113.0</ele><time>2026-04-15T18:51:44.305Z</time></trkpt><trkpt lat="40.915835" lon="14.1630883"><ele>112.80000000000001</ele><time>2026-04-15T18:51:46.304Z</time></trkpt><trkpt lat="40.9158583" lon="14.1632117"><ele>112.60000000000001</ele><time>2026-04-15T18:51:48.306Z</time></trkpt><trkpt lat="40.9158767" lon="14.16334"><ele>112.39999999999999</ele><time>2026-04-15T18:51:50.305Z</time></trkpt><trkpt lat="40.9159" lon="14.1634667"><ele>112.19999999999999</ele><time>2026-04-15T18:51:52.305Z</time></trkpt><trkpt lat="40.9159233" lon="14.1635983"><ele>112.0</ele><time>2026-04-15T18:51:54.305Z</time></trkpt><trkpt lat="40.9159483" lon="14.1637283"><ele>112.0</ele><time>2026-04-15T18:51:56.305Z</time></trkpt><trkpt lat="40.9159733" lon="14.163855"><ele>111.99999999999999</ele><time>2026-04-15T18:51:58.305Z</time></trkpt><trkpt lat="40.9160033" lon="14.163985"><ele>111.99999999999999</ele><time>2026-04-15T18:52:00.306Z</time></trkpt><trkpt lat="40.916045" lon="14.1641183"><ele>112.0</ele><time>2026-04-15T18:52:02.304Z</time></trkpt><trkpt lat="40.9160783" lon="14.164245"><ele>112.0</ele><time>2026-04-15T18:52:04.309Z</time></trkpt><trkpt lat="40.9161117" lon="14.1643667"><ele>112.0</ele><time>2026-04-15T18:52:06.306Z</time></trkpt><trkpt lat="40.9161517" lon="14.1645067"><ele>111.99999999999999</ele><time>2026-04-15T18:52:08.305Z</time></trkpt><trkpt lat="40.9161967" lon="14.1646417"><ele>111.99999999999999</ele><time>2026-04-15T18:52:10.304Z</time></trkpt><trkpt lat="40.9162483" lon="14.16478"><ele>112.0</ele><time>2026-04-15T18:52:12.305Z</time></trkpt><trkpt lat="40.9162783" lon="14.1648533"><ele>112.0</ele><time>2026-04-15T18:52:13.304Z</time></trkpt><trkpt lat="40.9163067" lon="14.16493"><ele>112.14285714285714</ele><time>2026-04-15T18:52:14.305Z</time></trkpt><trkpt lat="40.916335" lon="14.1650083"><ele>112.28571428571428</ele><time>2026-04-15T18:52:15.306Z</time></trkpt><trkpt lat="40.9163617" lon="14.1650867"><ele>112.42857142857143</ele><time>2026-04-15T18:52:16.304Z</time></trkpt><trkpt lat="40.91639" lon="14.16517"><ele>112.57142857142857</ele><time>2026-04-15T18:52:17.306Z</time></trkpt><trkpt lat="40.9164167" lon="14.1652567"><ele>112.71428571428571</ele><time>2026-04-15T18:52:18.305Z</time></trkpt><trkpt lat="40.9164383" lon="14.1653467"><ele>112.85714285714286</ele><time>2026-04-15T18:52:19.305Z</time></trkpt><trkpt lat="40.9164567" lon="14.1654367"><ele>113.0</ele><time>2026-04-15T18:52:20.306Z</time></trkpt><trkpt lat="40.9164733" lon="14.165525"><ele>113.0</ele><time>2026-04-15T18:52:21.304Z</time></trkpt><trkpt lat="40.9164917" lon="14.1656133"><ele>113.0</ele><time>2026-04-15T18:52:22.305Z</time></trkpt><trkpt lat="40.91651" lon="14.165705"><ele>113.0</ele><time>2026-04-15T18:52:23.304Z</time></trkpt><trkpt lat="40.9165283" lon="14.1657917"><ele>113.0</ele><time>2026-04-15T18:52:24.305Z</time></trkpt><trkpt lat="40.9165417" lon="14.1658817"><ele>113.0</ele><time>2026-04-15T18:52:25.305Z</time></trkpt><trkpt lat="40.9165533" lon="14.16597"><ele>113.0</ele><time>2026-04-15T18:52:26.305Z</time></trkpt><trkpt lat="40.916565" lon="14.16606"><ele>113.0</ele><time>2026-04-15T18:52:27.305Z</time></trkpt><trkpt lat="40.9165733" lon="14.1661533"><ele>113.0</ele><time>2026-04-15T18:52:28.305Z</time></trkpt><trkpt lat="40.9165767" lon="14.166245"><ele>113.0</ele><time>2026-04-15T18:52:29.305Z</time></trkpt><trkpt lat="40.916575" lon="14.1663383"><ele>113.0</ele><time>2026-04-15T18:52:30.306Z</time></trkpt><trkpt lat="40.9165717" lon="14.1664317"><ele>113.0</ele><time>2026-04-15T18:52:31.306Z</time></trkpt><trkpt lat="40.9165683" lon="14.1665267"><ele>113.0</ele><time>2026-04-15T18:52:32.306Z</time></trkpt><trkpt lat="40.916565" lon="14.1666167"><ele>113.0</ele><time>2026-04-15T18:52:33.305Z</time></trkpt><trkpt lat="40.91656" lon="14.16671"><ele>113.0</ele><time>2026-04-15T18:52:34.305Z</time></trkpt><trkpt lat="40.9165533" lon="14.166805"><ele>113.0</ele><time>2026-04-15T18:52:35.304Z</time></trkpt><trkpt lat="40.9165467" lon="14.1668933"><ele>113.0</ele><time>2026-04-15T18:52:36.305Z</time></trkpt><trkpt lat="40.9165417" lon="14.16698"><ele>113.0</ele><time>2026-04-15T18:52:37.305Z</time></trkpt><trkpt lat="40.91654" lon="14.167065"><ele>113.0</ele><time>2026-04-15T18:52:38.304Z</time></trkpt><trkpt lat="40.9165333" lon="14.16715"><ele>113.0</ele><time>2026-04-15T18:52:39.304Z</time></trkpt><trkpt lat="40.9165283" lon="14.1672333"><ele>113.0</ele><time>2026-04-15T18:52:40.306Z</time></trkpt><trkpt lat="40.9165267" lon="14.1673933"><ele>113.0</ele><time>2026-04-15T18:52:42.305Z</time></trkpt><trkpt lat="40.91652" lon="14.1675517"><ele>113.0</ele><time>2026-04-15T18:52:44.305Z</time></trkpt><trkpt lat="40.9165117" lon="14.1677033"><ele>113.0</ele><time>2026-04-15T18:52:46.305Z</time></trkpt><trkpt lat="40.9165067" lon="14.1678483"><ele>113.0</ele><time>2026-04-15T18:52:48.305Z</time></trkpt><trkpt lat="40.9165" lon="14.168"><ele>113.0</ele><time>2026-04-15T18:52:50.306Z</time></trkpt><trkpt lat="40.9164883" lon="14.168145"><ele>112.75</ele><time>2026-04-15T18:52:52.304Z</time></trkpt><trkpt lat="40.9164783" lon="14.1683017"><ele>112.5</ele><time>2026-04-15T18:52:54.305Z</time></trkpt><trkpt lat="40.9164733" lon="14.1684533"><ele>112.25</ele><time>2026-04-15T18:52:56.305Z</time></trkpt><trkpt lat="40.9164633" lon="14.16861"><ele>112.0</ele><time>2026-04-15T18:52:58.304Z</time></trkpt><trkpt lat="40.916455" lon="14.168775"><ele>112.0</ele><time>2026-04-15T18:53:00.305Z</time></trkpt><trkpt lat="40.9164467" lon="14.1689383"><ele>111.99999999999999</ele><time>2026-04-15T18:53:02.305Z</time></trkpt><trkpt lat="40.91644" lon="14.1690217"><ele>111.99999999999999</ele><time>2026-04-15T18:53:03.304Z</time></trkpt><trkpt lat="40.9164333" lon="14.169105"><ele>112.0</ele><time>2026-04-15T18:53:04.305Z</time></trkpt><trkpt lat="40.916425" lon="14.169265"><ele>112.0</ele><time>2026-04-15T18:53:06.305Z</time></trkpt><trkpt lat="40.9164183" lon="14.169425"><ele>112.16666666666667</ele><time>2026-04-15T18:53:08.305Z</time></trkpt><trkpt lat="40.9164133" lon="14.169515"><ele>112.33333333333334</ele><time>2026-04-15T18:53:09.305Z</time></trkpt><trkpt lat="40.91641" lon="14.1696033"><ele>112.5</ele><time>2026-04-15T18:53:10.305Z</time></trkpt><trkpt lat="40.9164067" lon="14.1696883"><ele>112.66666666666666</ele><time>2026-04-15T18:53:11.306Z</time></trkpt><trkpt lat="40.91641" lon="14.1698517"><ele>112.83333333333333</ele><time>2026-04-15T18:53:13.305Z</time></trkpt><trkpt lat="40.9164267" lon="14.1699833"><ele>113.0</ele><time>2026-04-15T18:53:15.307Z</time></trkpt><trkpt lat="40.9164533" lon="14.170105"><ele>113.4</ele><time>2026-04-15T18:53:17.304Z</time></trkpt><trkpt lat="40.91648" lon="14.1702333"><ele>113.80000000000001</ele><time>2026-04-15T18:53:19.305Z</time></trkpt><trkpt lat="40.9165167" lon="14.170355"><ele>114.2</ele><time>2026-04-15T18:53:21.304Z</time></trkpt><trkpt lat="40.91655" lon="14.170475"><ele>114.6</ele><time>2026-04-15T18:53:23.305Z</time></trkpt><trkpt lat="40.9165917" lon="14.170595"><ele>115.0</ele><time>2026-04-15T18:53:25.304Z</time></trkpt><trkpt lat="40.9166283" lon="14.1707033"><ele>115.0</ele><time>2026-04-15T18:53:27.305Z</time></trkpt><trkpt lat="40.9166683" lon="14.1708167"><ele>115.0</ele><time>2026-04-15T18:53:29.304Z</time></trkpt><trkpt lat="40.9167183" lon="14.17094"><ele>115.0</ele><time>2026-04-15T18:53:31.304Z</time></trkpt><trkpt lat="40.91678" lon="14.1710567"><ele>115.0</ele><time>2026-04-15T18:53:33.304Z</time></trkpt><trkpt lat="40.9168417" lon="14.1711667"><ele>115.0</ele><time>2026-04-15T18:53:35.303Z</time></trkpt><trkpt lat="40.91691" lon="14.1712667"><ele>115.0</ele><time>2026-04-15T18:53:37.304Z</time></trkpt><trkpt lat="40.9169767" lon="14.1713683"><ele>115.0</ele><time>2026-04-15T18:53:39.304Z</time></trkpt><trkpt lat="40.9170383" lon="14.1714767"><ele>115.0</ele><time>2026-04-15T18:53:41.303Z</time></trkpt><trkpt lat="40.9171067" lon="14.1715717"><ele>115.0</ele><time>2026-04-15T18:53:43.308Z</time></trkpt><trkpt lat="40.9171667" lon="14.17167"><ele>115.0</ele><time>2026-04-15T18:53:45.304Z</time></trkpt><trkpt lat="40.9172283" lon="14.1717883"><ele>115.0</ele><time>2026-04-15T18:53:47.305Z</time></trkpt><trkpt lat="40.9173133" lon="14.1718967"><ele>115.0</ele><time>2026-04-15T18:53:49.304Z</time></trkpt><trkpt lat="40.9173933" lon="14.17199"><ele>115.0</ele><time>2026-04-15T18:53:51.304Z</time></trkpt><trkpt lat="40.917465" lon="14.1720933"><ele>115.0</ele><time>2026-04-15T18:53:53.304Z</time></trkpt><trkpt lat="40.917535" lon="14.172195"><ele>115.0</ele><time>2026-04-15T18:53:55.308Z</time></trkpt><trkpt lat="40.9176117" lon="14.1723067"><ele>115.0</ele><time>2026-04-15T18:53:57.303Z</time></trkpt><trkpt lat="40.9176833" lon="14.172415"><ele>115.0</ele><time>2026-04-15T18:53:59.304Z</time></trkpt><trkpt lat="40.9177567" lon="14.1725267"><ele>115.0</ele><time>2026-04-15T18:54:01.305Z</time></trkpt><trkpt lat="40.9178333" lon="14.1726483"><ele>115.0</ele><time>2026-04-15T18:54:03.303Z</time></trkpt><trkpt lat="40.9179083" lon="14.1727817"><ele>115.0</ele><time>2026-04-15T18:54:05.304Z</time></trkpt><trkpt lat="40.9179417" lon="14.172855"><ele>115.0</ele><time>2026-04-15T18:54:06.307Z</time></trkpt><trkpt lat="40.918005" lon="14.172995"><ele>115.0</ele><time>2026-04-15T18:54:08.308Z</time></trkpt><trkpt lat="40.9180333" lon="14.17307"><ele>115.0</ele><time>2026-04-15T18:54:09.306Z</time></trkpt><trkpt lat="40.918085" lon="14.1732267"><ele>115.0</ele><time>2026-04-15T18:54:11.308Z</time></trkpt><trkpt lat="40.91812" lon="14.173385"><ele>115.0</ele><time>2026-04-15T18:54:13.304Z</time></trkpt><trkpt lat="40.9181383" lon="14.1735467"><ele>115.0</ele><time>2026-04-15T18:54:15.303Z</time></trkpt><trkpt lat="40.91816" lon="14.1737033"><ele>115.0</ele><time>2026-04-15T18:54:17.305Z</time></trkpt><trkpt lat="40.918185" lon="14.1738633"><ele>115.0</ele><time>2026-04-15T18:54:19.304Z</time></trkpt><trkpt lat="40.9182017" lon="14.173945"><ele>115.0</ele><time>2026-04-15T18:54:20.304Z</time></trkpt><trkpt lat="40.91823" lon="14.1741017"><ele>115.0</ele><time>2026-04-15T18:54:22.303Z</time></trkpt><trkpt lat="40.9182567" lon="14.1742567"><ele>115.0</ele><time>2026-04-15T18:54:24.305Z</time></trkpt><trkpt lat="40.9182817" lon="14.1744167"><ele>115.0</ele><time>2026-04-15T18:54:26.305Z</time></trkpt><trkpt lat="40.91831" lon="14.17457"><ele>115.0</ele><time>2026-04-15T18:54:28.303Z</time></trkpt><trkpt lat="40.91834" lon="14.17473"><ele>114.8</ele><time>2026-04-15T18:54:30.305Z</time></trkpt><trkpt lat="40.9183733" lon="14.1748867"><ele>114.6</ele><time>2026-04-15T18:54:32.304Z</time></trkpt><trkpt lat="40.9183983" lon="14.1749667"><ele>114.4</ele><time>2026-04-15T18:54:33.304Z</time></trkpt><trkpt lat="40.9184283" lon="14.1751083"><ele>114.2</ele><time>2026-04-15T18:54:35.305Z</time></trkpt><trkpt lat="40.9184567" lon="14.1752583"><ele>114.0</ele><time>2026-04-15T18:54:37.304Z</time></trkpt><trkpt lat="40.9184717" lon="14.175345"><ele>114.0</ele><time>2026-04-15T18:54:38.305Z</time></trkpt><trkpt lat="40.918485" lon="14.1754333"><ele>113.99999999999999</ele><time>2026-04-15T18:54:39.305Z</time></trkpt><trkpt lat="40.918495" lon="14.17552"><ele>114.0</ele><time>2026-04-15T18:54:40.304Z</time></trkpt><trkpt lat="40.918505" lon="14.17561"><ele>114.0</ele><time>2026-04-15T18:54:41.303Z</time></trkpt><trkpt lat="40.91851" lon="14.1757017"><ele>113.99999999999999</ele><time>2026-04-15T18:54:42.305Z</time></trkpt><trkpt lat="40.918515" lon="14.175795"><ele>114.0</ele><time>2026-04-15T18:54:43.304Z</time></trkpt><trkpt lat="40.91852" lon="14.1758883"><ele>114.0</ele><time>2026-04-15T18:54:44.305Z</time></trkpt><trkpt lat="40.9185233" lon="14.1759783"><ele>114.0</ele><time>2026-04-15T18:54:45.304Z</time></trkpt><trkpt lat="40.9185283" lon="14.176065"><ele>113.99999999999999</ele><time>2026-04-15T18:54:46.305Z</time></trkpt><trkpt lat="40.9185317" lon="14.17615"><ele>114.0</ele><time>2026-04-15T18:54:47.305Z</time></trkpt><trkpt lat="40.918535" lon="14.1762367"><ele>114.0</ele><time>2026-04-15T18:54:48.305Z</time></trkpt><trkpt lat="40.9185367" lon="14.17632"><ele>113.99999999999999</ele><time>2026-04-15T18:54:49.304Z</time></trkpt><trkpt lat="40.9185383" lon="14.1764033"><ele>114.0</ele><time>2026-04-15T18:54:50.304Z</time></trkpt><trkpt lat="40.91854" lon="14.1765633"><ele>114.0</ele><time>2026-04-15T18:54:52.305Z</time></trkpt><trkpt lat="40.9185433" lon="14.1766533"><ele>114.0</ele><time>2026-04-15T18:54:53.305Z</time></trkpt><trkpt lat="40.91855" lon="14.17674"><ele>114.0</ele><time>2026-04-15T18:54:54.305Z</time></trkpt><trkpt lat="40.918555" lon="14.176825"><ele>114.0</ele><time>2026-04-15T18:54:55.304Z</time></trkpt><trkpt lat="40.9185583" lon="14.176985"><ele>114.0</ele><time>2026-04-15T18:54:57.305Z</time></trkpt><trkpt lat="40.9185683" lon="14.1771417"><ele>114.0</ele><time>2026-04-15T18:54:59.304Z</time></trkpt><trkpt lat="40.9185717" lon="14.1773"><ele>113.75</ele><time>2026-04-15T18:55:01.305Z</time></trkpt><trkpt lat="40.9185733" lon="14.17746"><ele>113.5</ele><time>2026-04-15T18:55:03.304Z</time></trkpt><trkpt lat="40.918575" lon="14.1776117"><ele>113.25</ele><time>2026-04-15T18:55:05.304Z</time></trkpt><trkpt lat="40.9185683" lon="14.177775"><ele>113.0</ele><time>2026-04-15T18:55:07.305Z</time></trkpt><trkpt lat="40.9185617" lon="14.1779383"><ele>112.99999999999999</ele><time>2026-04-15T18:55:09.304Z</time></trkpt><trkpt lat="40.9185533" lon="14.1780917"><ele>113.0</ele><time>2026-04-15T18:55:11.304Z</time></trkpt><trkpt lat="40.918545" lon="14.1782533"><ele>113.0</ele><time>2026-04-15T18:55:13.303Z</time></trkpt><trkpt lat="40.91854" lon="14.1783367"><ele>113.0</ele><time>2026-04-15T18:55:14.305Z</time></trkpt><trkpt lat="40.918535" lon="14.1784233"><ele>112.99999999999999</ele><time>2026-04-15T18:55:15.305Z</time></trkpt><trkpt lat="40.9185283" lon="14.17851"><ele>113.0</ele><time>2026-04-15T18:55:16.303Z</time></trkpt><trkpt lat="40.91852" lon="14.1786"><ele>113.0</ele><time>2026-04-15T18:55:17.304Z</time></trkpt><trkpt lat="40.91851" lon="14.1786917"><ele>113.0</ele><time>2026-04-15T18:55:18.305Z</time></trkpt><trkpt lat="40.9185" lon="14.17878"><ele>113.0</ele><time>2026-04-15T18:55:19.305Z</time></trkpt><trkpt lat="40.9184867" lon="14.1788683"><ele>113.0</ele><time>2026-04-15T18:55:20.305Z</time></trkpt><trkpt lat="40.918475" lon="14.178955"><ele>113.0</ele><time>2026-04-15T18:55:21.305Z</time></trkpt><trkpt lat="40.9184583" lon="14.1790417"><ele>113.0</ele><time>2026-04-15T18:55:22.304Z</time></trkpt><trkpt lat="40.91844" lon="14.179125"><ele>113.0</ele><time>2026-04-15T18:55:23.305Z</time></trkpt><trkpt lat="40.9184183" lon="14.1792083"><ele>113.4</ele><time>2026-04-15T18:55:24.305Z</time></trkpt><trkpt lat="40.9183817" lon="14.179365"><ele>113.80000000000001</ele><time>2026-04-15T18:55:26.305Z</time></trkpt><trkpt lat="40.91835" lon="14.17953"><ele>114.2</ele><time>2026-04-15T18:55:28.304Z</time></trkpt><trkpt lat="40.9183317" lon="14.1796183"><ele>114.6</ele><time>2026-04-15T18:55:29.305Z</time></trkpt><trkpt lat="40.9183167" lon="14.1797067"><ele>115.0</ele><time>2026-04-15T18:55:30.304Z</time></trkpt><trkpt lat="40.9182833" lon="14.1798"><ele>114.99999999999999</ele><time>2026-04-15T18:55:31.305Z</time></trkpt><trkpt lat="40.918265" lon="14.1798833"><ele>115.0</ele><time>2026-04-15T18:55:32.304Z</time></trkpt><trkpt lat="40.918245" lon="14.1799667"><ele>114.99999999999999</ele><time>2026-04-15T18:55:33.305Z</time></trkpt><trkpt lat="40.91823" lon="14.180055"><ele>114.99999999999999</ele><time>2026-04-15T18:55:34.305Z</time></trkpt><trkpt lat="40.9182167" lon="14.1801433"><ele>115.0</ele><time>2026-04-15T18:55:35.305Z</time></trkpt><trkpt lat="40.918205" lon="14.180235"><ele>114.99999999999999</ele><time>2026-04-15T18:55:36.305Z</time></trkpt><trkpt lat="40.918195" lon="14.1803217"><ele>114.99999999999999</ele><time>2026-04-15T18:55:37.305Z</time></trkpt><trkpt lat="40.91819" lon="14.180405"><ele>115.0</ele><time>2026-04-15T18:55:38.304Z</time></trkpt><trkpt lat="40.9181867" lon="14.1805633"><ele>115.0</ele><time>2026-04-15T18:55:40.305Z</time></trkpt><trkpt lat="40.9181817" lon="14.1806467"><ele>115.0</ele><time>2026-04-15T18:55:41.305Z</time></trkpt><trkpt lat="40.9181683" lon="14.1808067"><ele>115.0</ele><time>2026-04-15T18:55:43.305Z</time></trkpt><trkpt lat="40.9181683" lon="14.180975"><ele>115.0</ele><time>2026-04-15T18:55:45.304Z</time></trkpt><trkpt lat="40.91817" lon="14.18106"><ele>115.00000000000001</ele><time>2026-04-15T18:55:46.304Z</time></trkpt><trkpt lat="40.9181767" lon="14.1812267"><ele>115.0</ele><time>2026-04-15T18:55:48.305Z</time></trkpt><trkpt lat="40.9181817" lon="14.181315"><ele>115.0</ele><time>2026-04-15T18:55:49.304Z</time></trkpt><trkpt lat="40.918185" lon="14.1814083"><ele>115.0</ele><time>2026-04-15T18:55:50.305Z</time></trkpt><trkpt lat="40.9181917" lon="14.1814983"><ele>115.00000000000001</ele><time>2026-04-15T18:55:51.305Z</time></trkpt><trkpt lat="40.9182033" lon="14.1815833"><ele>115.0</ele><time>2026-04-15T18:55:52.305Z</time></trkpt><trkpt lat="40.91821" lon="14.18167"><ele>114.99999999999999</ele><time>2026-04-15T18:55:53.305Z</time></trkpt><trkpt lat="40.9182183" lon="14.1817633"><ele>115.0</ele><time>2026-04-15T18:55:54.306Z</time></trkpt><trkpt lat="40.918225" lon="14.18185"><ele>114.99999999999999</ele><time>2026-04-15T18:55:55.305Z</time></trkpt><trkpt lat="40.9182333" lon="14.18194"><ele>114.99999999999999</ele><time>2026-04-15T18:55:56.305Z</time></trkpt><trkpt lat="40.9182433" lon="14.1820333"><ele>115.0</ele><time>2026-04-15T18:55:57.304Z</time></trkpt><trkpt lat="40.9182567" lon="14.1821217"><ele>114.99999999999999</ele><time>2026-04-15T18:55:58.305Z</time></trkpt><trkpt lat="40.9182683" lon="14.1822083"><ele>114.99999999999999</ele><time>2026-04-15T18:55:59.305Z</time></trkpt><trkpt lat="40.9182783" lon="14.1822983"><ele>114.83333333333334</ele><time>2026-04-15T18:56:00.304Z</time></trkpt><trkpt lat="40.9182817" lon="14.1823867"><ele>114.66666666666667</ele><time>2026-04-15T18:56:01.304Z</time></trkpt><trkpt lat="40.9182917" lon="14.1824767"><ele>114.5</ele><time>2026-04-15T18:56:02.305Z</time></trkpt><trkpt lat="40.9183" lon="14.1825617"><ele>114.33333333333334</ele><time>2026-04-15T18:56:03.304Z</time></trkpt><trkpt lat="40.9183083" lon="14.182645"><ele>114.16666666666667</ele><time>2026-04-15T18:56:04.304Z</time></trkpt><trkpt lat="40.9183183" lon="14.182805"><ele>114.0</ele><time>2026-04-15T18:56:06.305Z</time></trkpt><trkpt lat="40.918335" lon="14.18297"><ele>114.0</ele><time>2026-04-15T18:56:08.305Z</time></trkpt><trkpt lat="40.9183367" lon="14.1830583"><ele>114.0</ele><time>2026-04-15T18:56:09.304Z</time></trkpt><trkpt lat="40.9183467" lon="14.1831467"><ele>114.0</ele><time>2026-04-15T18:56:10.304Z</time></trkpt><trkpt lat="40.9183633" lon="14.1832317"><ele>114.0</ele><time>2026-04-15T18:56:11.305Z</time></trkpt><trkpt lat="40.9183917" lon="14.1833933"><ele>114.0</ele><time>2026-04-15T18:56:13.305Z</time></trkpt><trkpt lat="40.9184" lon="14.1834783"><ele>114.0</ele><time>2026-04-15T18:56:14.305Z</time></trkpt><trkpt lat="40.9184167" lon="14.18364"><ele>114.16666666666667</ele><time>2026-04-15T18:56:16.304Z</time></trkpt><trkpt lat="40.9184167" lon="14.1837267"><ele>114.33333333333334</ele><time>2026-04-15T18:56:17.305Z</time></trkpt><trkpt lat="40.9184133" lon="14.18381"><ele>114.5</ele><time>2026-04-15T18:56:18.305Z</time></trkpt><trkpt lat="40.9184083" lon="14.183895"><ele>114.66666666666667</ele><time>2026-04-15T18:56:19.305Z</time></trkpt><trkpt lat="40.9184067" lon="14.18405"><ele>114.83333333333334</ele><time>2026-04-15T18:56:21.305Z</time></trkpt><trkpt lat="40.9184017" lon="14.1842083"><ele>115.0</ele><time>2026-04-15T18:56:23.305Z</time></trkpt><trkpt lat="40.91839" lon="14.1843617"><ele>115.0</ele><time>2026-04-15T18:56:25.304Z</time></trkpt><trkpt lat="40.9183767" lon="14.18451"><ele>115.0</ele><time>2026-04-15T18:56:27.305Z</time></trkpt><trkpt lat="40.918375" lon="14.18466"><ele>115.0</ele><time>2026-04-15T18:56:29.304Z</time></trkpt><trkpt lat="40.9183683" lon="14.1848117"><ele>115.0</ele><time>2026-04-15T18:56:31.304Z</time></trkpt><trkpt lat="40.9183517" lon="14.1849633"><ele>114.75</ele><time>2026-04-15T18:56:33.305Z</time></trkpt><trkpt lat="40.9183467" lon="14.185115"><ele>114.5</ele><time>2026-04-15T18:56:35.305Z</time></trkpt><trkpt lat="40.91834" lon="14.185275"><ele>114.25</ele><time>2026-04-15T18:56:37.305Z</time></trkpt><trkpt lat="40.9183333" lon="14.1854467"><ele>114.0</ele><time>2026-04-15T18:56:39.305Z</time></trkpt><trkpt lat="40.918325" lon="14.1856117"><ele>114.2</ele><time>2026-04-15T18:56:41.305Z</time></trkpt><trkpt lat="40.9183183" lon="14.1857767"><ele>114.4</ele><time>2026-04-15T18:56:43.304Z</time></trkpt><trkpt lat="40.9183067" lon="14.1859433"><ele>114.6</ele><time>2026-04-15T18:56:45.305Z</time></trkpt><trkpt lat="40.9183017" lon="14.1860267"><ele>114.8</ele><time>2026-04-15T18:56:46.305Z</time></trkpt><trkpt lat="40.9182833" lon="14.1861817"><ele>115.0</ele><time>2026-04-15T18:56:48.305Z</time></trkpt><trkpt lat="40.918245" lon="14.18634"><ele>114.99999999999999</ele><time>2026-04-15T18:56:50.305Z</time></trkpt><trkpt lat="40.9182217" lon="14.18642"><ele>115.0</ele><time>2026-04-15T18:56:51.305Z</time></trkpt><trkpt lat="40.9182017" lon="14.1865"><ele>114.99999999999999</ele><time>2026-04-15T18:56:52.305Z</time></trkpt><trkpt lat="40.9181783" lon="14.18658"><ele>114.99999999999999</ele><time>2026-04-15T18:56:53.305Z</time></trkpt><trkpt lat="40.9181567" lon="14.18666"><ele>115.0</ele><time>2026-04-15T18:56:54.304Z</time></trkpt><trkpt lat="40.9181333" lon="14.1867417"><ele>114.99999999999999</ele><time>2026-04-15T18:56:55.305Z</time></trkpt><trkpt lat="40.9181117" lon="14.1868217"><ele>114.99999999999999</ele><time>2026-04-15T18:56:56.304Z</time></trkpt><trkpt lat="40.9180867" lon="14.1869033"><ele>114.99999999999999</ele><time>2026-04-15T18:56:57.305Z</time></trkpt><trkpt lat="40.9180617" lon="14.1869817"><ele>115.0</ele><time>2026-04-15T18:56:58.304Z</time></trkpt><trkpt lat="40.91804" lon="14.1870617"><ele>114.99999999999999</ele><time>2026-04-15T18:56:59.305Z</time></trkpt><trkpt lat="40.9180183" lon="14.187145"><ele>114.99999999999999</ele><time>2026-04-15T18:57:00.306Z</time></trkpt><trkpt lat="40.9179967" lon="14.1872267"><ele>115.0</ele><time>2026-04-15T18:57:01.305Z</time></trkpt><trkpt lat="40.9179683" lon="14.187305"><ele>114.99999999999999</ele><time>2026-04-15T18:57:02.305Z</time></trkpt><trkpt lat="40.9179383" lon="14.1873817"><ele>114.99999999999999</ele><time>2026-04-15T18:57:03.305Z</time></trkpt><trkpt lat="40.9179117" lon="14.1874583"><ele>115.14285714285712</ele><time>2026-04-15T18:57:04.305Z</time></trkpt><trkpt lat="40.9178883" lon="14.1875383"><ele>115.28571428571428</ele><time>2026-04-15T18:57:05.305Z</time></trkpt><trkpt lat="40.9178633" lon="14.1876167"><ele>115.42857142857143</ele><time>2026-04-15T18:57:06.305Z</time></trkpt><trkpt lat="40.9178383" lon="14.1876983"><ele>115.57142857142857</ele><time>2026-04-15T18:57:07.304Z</time></trkpt><trkpt lat="40.9178117" lon="14.18778"><ele>115.71428571428572</ele><time>2026-04-15T18:57:08.305Z</time></trkpt><trkpt lat="40.9177867" lon="14.187865"><ele>115.85714285714288</ele><time>2026-04-15T18:57:09.305Z</time></trkpt><trkpt lat="40.917765" lon="14.18795"><ele>116.00000000000001</ele><time>2026-04-15T18:57:10.304Z</time></trkpt><trkpt lat="40.9177417" lon="14.1880317"><ele>116.00000000000001</ele><time>2026-04-15T18:57:11.305Z</time></trkpt><trkpt lat="40.9177067" lon="14.18812"><ele>116.0</ele><time>2026-04-15T18:57:12.305Z</time></trkpt><trkpt lat="40.91768" lon="14.188205"><ele>116.00000000000001</ele><time>2026-04-15T18:57:13.305Z</time></trkpt><trkpt lat="40.9176567" lon="14.18829"><ele>116.00000000000001</ele><time>2026-04-15T18:57:14.305Z</time></trkpt><trkpt lat="40.9176333" lon="14.188375"><ele>116.0</ele><time>2026-04-15T18:57:15.305Z</time></trkpt><trkpt lat="40.9176117" lon="14.1884583"><ele>116.00000000000001</ele><time>2026-04-15T18:57:16.305Z</time></trkpt><trkpt lat="40.91759" lon="14.1885417"><ele>116.00000000000001</ele><time>2026-04-15T18:57:17.305Z</time></trkpt><trkpt lat="40.91756" lon="14.1887017"><ele>116.0</ele><time>2026-04-15T18:57:19.304Z</time></trkpt><trkpt lat="40.91753" lon="14.1888567"><ele>116.0</ele><time>2026-04-15T18:57:21.304Z</time></trkpt><trkpt lat="40.9175" lon="14.1890133"><ele>116.0</ele><time>2026-04-15T18:57:23.305Z</time></trkpt><trkpt lat="40.91747" lon="14.189165"><ele>116.0</ele><time>2026-04-15T18:57:25.304Z</time></trkpt><trkpt lat="40.917445" lon="14.1893133"><ele>116.0</ele><time>2026-04-15T18:57:27.305Z</time></trkpt><trkpt lat="40.9174283" lon="14.189465"><ele>116.0</ele><time>2026-04-15T18:57:29.305Z</time></trkpt><trkpt lat="40.917405" lon="14.1896167"><ele>116.0</ele><time>2026-04-15T18:57:31.305Z</time></trkpt><trkpt lat="40.91739" lon="14.1897"><ele>116.0</ele><time>2026-04-15T18:57:32.305Z</time></trkpt><trkpt lat="40.917375" lon="14.1897833"><ele>116.0</ele><time>2026-04-15T18:57:33.305Z</time></trkpt><trkpt lat="40.917345" lon="14.189935"><ele>115.75</ele><time>2026-04-15T18:57:35.305Z</time></trkpt><trkpt lat="40.917325" lon="14.1900917"><ele>115.5</ele><time>2026-04-15T18:57:37.304Z</time></trkpt><trkpt lat="40.9173083" lon="14.190245"><ele>115.25</ele><time>2026-04-15T18:57:39.304Z</time></trkpt><trkpt lat="40.9172933" lon="14.1903933"><ele>115.0</ele><time>2026-04-15T18:57:41.305Z</time></trkpt><trkpt lat="40.9172733" lon="14.1905417"><ele>115.0</ele><time>2026-04-15T18:57:43.305Z</time></trkpt><trkpt lat="40.9172567" lon="14.1906917"><ele>115.0</ele><time>2026-04-15T18:57:45.304Z</time></trkpt><trkpt lat="40.9172383" lon="14.1908367"><ele>115.0</ele><time>2026-04-15T18:57:47.305Z</time></trkpt><trkpt lat="40.9172233" lon="14.19099"><ele>115.0</ele><time>2026-04-15T18:57:49.305Z</time></trkpt><trkpt lat="40.9172083" lon="14.19113"><ele>115.0</ele><time>2026-04-15T18:57:51.304Z</time></trkpt><trkpt lat="40.9172" lon="14.1912767"><ele>115.00000000000001</ele><time>2026-04-15T18:57:53.305Z</time></trkpt><trkpt lat="40.9171733" lon="14.1914083"><ele>115.0</ele><time>2026-04-15T18:57:55.304Z</time></trkpt><trkpt lat="40.9171483" lon="14.191515"><ele>115.0</ele><time>2026-04-15T18:57:57.305Z</time></trkpt><trkpt lat="40.917135" lon="14.1916717"><ele>115.0</ele><time>2026-04-15T18:58:41.305Z</time></trkpt><trkpt lat="40.9171217" lon="14.1917633"><ele>115.00000000000001</ele><time>2026-04-15T18:58:43.305Z</time></trkpt><trkpt lat="40.917115" lon="14.1918583"><ele>115.0</ele><time>2026-04-15T18:58:45.305Z</time></trkpt><trkpt lat="40.9171083" lon="14.1919883"><ele>115.0</ele><time>2026-04-15T18:58:47.305Z</time></trkpt><trkpt lat="40.9171033" lon="14.19213"><ele>115.0</ele><time>2026-04-15T18:58:49.305Z</time></trkpt><trkpt lat="40.9171033" lon="14.192275"><ele>115.0</ele><time>2026-04-15T18:58:51.305Z</time></trkpt><trkpt lat="40.9171083" lon="14.192415"><ele>115.0</ele><time>2026-04-15T18:58:53.305Z</time></trkpt><trkpt lat="40.917125" lon="14.1925717"><ele>115.0</ele><time>2026-04-15T18:58:55.304Z</time></trkpt><trkpt lat="40.9171283" lon="14.192715"><ele>115.2</ele><time>2026-04-15T18:58:57.305Z</time></trkpt><trkpt lat="40.91713" lon="14.1928483"><ele>115.4</ele><time>2026-04-15T18:58:59.307Z</time></trkpt><trkpt lat="40.9171333" lon="14.1929983"><ele>115.6</ele><time>2026-04-15T18:59:01.304Z</time></trkpt><trkpt lat="40.9171383" lon="14.1930817"><ele>115.8</ele><time>2026-04-15T18:59:02.305Z</time></trkpt><trkpt lat="40.9171467" lon="14.1931667"><ele>116.0</ele><time>2026-04-15T18:59:03.305Z</time></trkpt><trkpt lat="40.91715" lon="14.1933283"><ele>115.6</ele><time>2026-04-15T18:59:05.304Z</time></trkpt><trkpt lat="40.917155" lon="14.1934117"><ele>115.19999999999999</ele><time>2026-04-15T18:59:06.306Z</time></trkpt><trkpt lat="40.9171617" lon="14.1934967"><ele>114.80000000000001</ele><time>2026-04-15T18:59:07.305Z</time></trkpt><trkpt lat="40.9171717" lon="14.1936617"><ele>114.4</ele><time>2026-04-15T18:59:09.306Z</time></trkpt><trkpt lat="40.9171833" lon="14.1938167"><ele>114.0</ele><time>2026-04-15T18:59:11.305Z</time></trkpt><trkpt lat="40.9171933" lon="14.193975"><ele>114.0</ele><time>2026-04-15T18:59:13.305Z</time></trkpt><trkpt lat="40.9172" lon="14.194135"><ele>114.0</ele><time>2026-04-15T18:59:15.304Z</time></trkpt><trkpt lat="40.917205" lon="14.1942917"><ele>114.0</ele><time>2026-04-15T18:59:17.305Z</time></trkpt><trkpt lat="40.9172133" lon="14.1944467"><ele>114.0</ele><time>2026-04-15T18:59:19.304Z</time></trkpt><trkpt lat="40.9172217" lon="14.1946"><ele>114.0</ele><time>2026-04-15T18:59:21.305Z</time></trkpt><trkpt lat="40.91723" lon="14.1947533"><ele>114.0</ele><time>2026-04-15T18:59:23.305Z</time></trkpt><trkpt lat="40.9172367" lon="14.1949117"><ele>114.0</ele><time>2026-04-15T18:59:25.304Z</time></trkpt><trkpt lat="40.9172433" lon="14.1950717"><ele>114.0</ele><time>2026-04-15T18:59:27.304Z</time></trkpt><trkpt lat="40.9172567" lon="14.1952333"><ele>114.28571428571428</ele><time>2026-04-15T18:59:29.305Z</time></trkpt><trkpt lat="40.9172567" lon="14.1953167"><ele>114.57142857142856</ele><time>2026-04-15T18:59:30.305Z</time></trkpt><trkpt lat="40.917265" lon="14.1954083"><ele>114.85714285714286</ele><time>2026-04-15T18:59:31.306Z</time></trkpt><trkpt lat="40.9172617" lon="14.1954917"><ele>115.14285714285714</ele><time>2026-04-15T18:59:32.305Z</time></trkpt><trkpt lat="40.9172583" lon="14.1955783"><ele>115.42857142857143</ele><time>2026-04-15T18:59:33.305Z</time></trkpt><trkpt lat="40.9172517" lon="14.1956633"><ele>115.71428571428572</ele><time>2026-04-15T18:59:34.304Z</time></trkpt><trkpt lat="40.9172283" lon="14.1958217"><ele>116.00000000000001</ele><time>2026-04-15T18:59:36.304Z</time></trkpt><trkpt lat="40.9172067" lon="14.1959017"><ele>116.16666666666666</ele><time>2026-04-15T18:59:37.304Z</time></trkpt><trkpt lat="40.91718" lon="14.1959817"><ele>116.33333333333333</ele><time>2026-04-15T18:59:38.304Z</time></trkpt><trkpt lat="40.9171533" lon="14.1960583"><ele>116.5</ele><time>2026-04-15T18:59:39.307Z</time></trkpt><trkpt lat="40.9171233" lon="14.196135"><ele>116.66666666666666</ele><time>2026-04-15T18:59:40.304Z</time></trkpt><trkpt lat="40.9170867" lon="14.19629"><ele>116.83333333333333</ele><time>2026-04-15T18:59:42.304Z</time></trkpt><trkpt lat="40.917085" lon="14.1963733"><ele>117.0</ele><time>2026-04-15T18:59:43.304Z</time></trkpt><trkpt lat="40.9171117" lon="14.1965267"><ele>116.71428571428572</ele><time>2026-04-15T18:59:45.307Z</time></trkpt><trkpt lat="40.9171667" lon="14.19666"><ele>116.42857142857144</ele><time>2026-04-15T18:59:47.304Z</time></trkpt><trkpt lat="40.9171967" lon="14.1967333"><ele>116.14285714285714</ele><time>2026-04-15T18:59:48.306Z</time></trkpt><trkpt lat="40.9172267" lon="14.1968083"><ele>115.85714285714286</ele><time>2026-04-15T18:59:49.303Z</time></trkpt><trkpt lat="40.9172533" lon="14.1968867"><ele>115.57142857142857</ele><time>2026-04-15T18:59:50.305Z</time></trkpt><trkpt lat="40.9172733" lon="14.19697"><ele>115.28571428571428</ele><time>2026-04-15T18:59:51.305Z</time></trkpt><trkpt lat="40.9172833" lon="14.197055"><ele>114.99999999999999</ele><time>2026-04-15T18:59:52.305Z</time></trkpt><trkpt lat="40.9172883" lon="14.197145"><ele>115.00000000000001</ele><time>2026-04-15T18:59:53.305Z</time></trkpt><trkpt lat="40.9172867" lon="14.19723"><ele>115.0</ele><time>2026-04-15T18:59:54.31Z</time></trkpt><trkpt lat="40.9172833" lon="14.1973133"><ele>115.0</ele><time>2026-04-15T18:59:55.304Z</time></trkpt><trkpt lat="40.91728" lon="14.1974033"><ele>115.0</ele><time>2026-04-15T18:59:56.304Z</time></trkpt><trkpt lat="40.917275" lon="14.1974917"><ele>115.00000000000001</ele><time>2026-04-15T18:59:57.303Z</time></trkpt><trkpt lat="40.9172583" lon="14.1976617"><ele>115.0</ele><time>2026-04-15T18:59:59.304Z</time></trkpt><trkpt lat="40.9172467" lon="14.1977517"><ele>115.16666666666667</ele><time>2026-04-15T19:00:00.304Z</time></trkpt><trkpt lat="40.91724" lon="14.19784"><ele>115.33333333333334</ele><time>2026-04-15T19:00:01.303Z</time></trkpt><trkpt lat="40.91723" lon="14.19793"><ele>115.5</ele><time>2026-04-15T19:00:02.304Z</time></trkpt><trkpt lat="40.9172167" lon="14.1980917"><ele>115.66666666666666</ele><time>2026-04-15T19:00:04.304Z</time></trkpt><trkpt lat="40.91721" lon="14.1981767"><ele>115.83333333333333</ele><time>2026-04-15T19:00:05.303Z</time></trkpt><trkpt lat="40.9172033" lon="14.1982633"><ele>116.0</ele><time>2026-04-15T19:00:06.305Z</time></trkpt><trkpt lat="40.917195" lon="14.19835"><ele>115.71428571428572</ele><time>2026-04-15T19:00:07.305Z</time></trkpt><trkpt lat="40.917185" lon="14.19844"><ele>115.42857142857143</ele><time>2026-04-15T19:00:08.303Z</time></trkpt><trkpt lat="40.917175" lon="14.1985267"><ele>115.14285714285714</ele><time>2026-04-15T19:00:09.305Z</time></trkpt><trkpt lat="40.91717" lon="14.1986183"><ele>114.85714285714286</ele><time>2026-04-15T19:00:10.303Z</time></trkpt><trkpt lat="40.9171617" lon="14.19871"><ele>114.57142857142856</ele><time>2026-04-15T19:00:11.305Z</time></trkpt><trkpt lat="40.91715" lon="14.1987967"><ele>114.28571428571428</ele><time>2026-04-15T19:00:12.304Z</time></trkpt><trkpt lat="40.9171317" lon="14.1988867"><ele>114.0</ele><time>2026-04-15T19:00:13.307Z</time></trkpt><trkpt lat="40.9171117" lon="14.1989733"><ele>113.83333333333333</ele><time>2026-04-15T19:00:14.306Z</time></trkpt><trkpt lat="40.917095" lon="14.1990583"><ele>113.66666666666666</ele><time>2026-04-15T19:00:15.303Z</time></trkpt><trkpt lat="40.91708" lon="14.19914"><ele>113.5</ele><time>2026-04-15T19:00:16.304Z</time></trkpt><trkpt lat="40.91706" lon="14.19929"><ele>113.33333333333333</ele><time>2026-04-15T19:00:18.307Z</time></trkpt><trkpt lat="40.917055" lon="14.1993817"><ele>113.16666666666666</ele><time>2026-04-15T19:00:19.305Z</time></trkpt><trkpt lat="40.9170517" lon="14.1994733"><ele>113.0</ele><time>2026-04-15T19:00:20.305Z</time></trkpt><trkpt lat="40.917045" lon="14.1995633"><ele>113.0</ele><time>2026-04-15T19:00:21.306Z</time></trkpt><trkpt lat="40.9170417" lon="14.1996533"><ele>113.0</ele><time>2026-04-15T19:00:22.304Z</time></trkpt><trkpt lat="40.917045" lon="14.1997383"><ele>113.0</ele><time>2026-04-15T19:00:23.306Z</time></trkpt><trkpt lat="40.9170467" lon="14.1998233"><ele>113.0</ele><time>2026-04-15T19:00:24.307Z</time></trkpt><trkpt lat="40.9170467" lon="14.1999083"><ele>113.0</ele><time>2026-04-15T19:00:25.305Z</time></trkpt><trkpt lat="40.9170467" lon="14.1999917"><ele>113.0</ele><time>2026-04-15T19:00:26.307Z</time></trkpt><trkpt lat="40.9170517" lon="14.2000783"><ele>113.0</ele><time>2026-04-15T19:00:27.306Z</time></trkpt><trkpt lat="40.9170483" lon="14.2002367"><ele>112.71428571428572</ele><time>2026-04-15T19:00:29.306Z</time></trkpt><trkpt lat="40.91704" lon="14.200395"><ele>112.42857142857142</ele><time>2026-04-15T19:00:31.305Z</time></trkpt><trkpt lat="40.9170333" lon="14.20048"><ele>112.14285714285714</ele><time>2026-04-15T19:00:32.306Z</time></trkpt><trkpt lat="40.9170283" lon="14.2005667"><ele>111.85714285714286</ele><time>2026-04-15T19:00:33.306Z</time></trkpt><trkpt lat="40.9170233" lon="14.2006517"><ele>111.57142857142858</ele><time>2026-04-15T19:00:34.305Z</time></trkpt><trkpt lat="40.9170167" lon="14.20074"><ele>111.28571428571428</ele><time>2026-04-15T19:00:35.306Z</time></trkpt><trkpt lat="40.917015" lon="14.2008267"><ele>111.0</ele><time>2026-04-15T19:00:36.305Z</time></trkpt><trkpt lat="40.9170083" lon="14.2009133"><ele>111.0</ele><time>2026-04-15T19:00:37.307Z</time></trkpt><trkpt lat="40.9169983" lon="14.2010017"><ele>111.0</ele><time>2026-04-15T19:00:38.307Z</time></trkpt><trkpt lat="40.9169917" lon="14.2010883"><ele>111.0</ele><time>2026-04-15T19:00:39.306Z</time></trkpt><trkpt lat="40.916985" lon="14.2011733"><ele>111.0</ele><time>2026-04-15T19:00:40.306Z</time></trkpt><trkpt lat="40.9169717" lon="14.201335"><ele>111.0</ele><time>2026-04-15T19:00:42.305Z</time></trkpt><trkpt lat="40.9169617" lon="14.2014917"><ele>111.0</ele><time>2026-04-15T19:00:44.307Z</time></trkpt><trkpt lat="40.9169483" lon="14.20164"><ele>111.19999999999999</ele><time>2026-04-15T19:00:46.304Z</time></trkpt><trkpt lat="40.9169433" lon="14.201795"><ele>111.39999999999999</ele><time>2026-04-15T19:00:48.307Z</time></trkpt><trkpt lat="40.9169283" lon="14.2019483"><ele>111.6</ele><time>2026-04-15T19:00:50.308Z</time></trkpt><trkpt lat="40.9169133" lon="14.20211"><ele>111.8</ele><time>2026-04-15T19:00:52.306Z</time></trkpt><trkpt lat="40.9169067" lon="14.202195"><ele>112.0</ele><time>2026-04-15T19:00:53.305Z</time></trkpt><trkpt lat="40.916905" lon="14.2022783"><ele>111.8</ele><time>2026-04-15T19:00:54.308Z</time></trkpt><trkpt lat="40.9168967" lon="14.20244"><ele>111.6</ele><time>2026-04-15T19:00:56.307Z</time></trkpt><trkpt lat="40.9168883" lon="14.202525"><ele>111.39999999999999</ele><time>2026-04-15T19:00:57.308Z</time></trkpt><trkpt lat="40.9168733" lon="14.2026883"><ele>111.19999999999999</ele><time>2026-04-15T19:00:59.307Z</time></trkpt><trkpt lat="40.91686" lon="14.2028533"><ele>111.0</ele><time>2026-04-15T19:01:01.307Z</time></trkpt><trkpt lat="40.916855" lon="14.2029383"><ele>111.0</ele><time>2026-04-15T19:01:02.308Z</time></trkpt><trkpt lat="40.9168517" lon="14.2030233"><ele>111.0</ele><time>2026-04-15T19:01:03.308Z</time></trkpt><trkpt lat="40.9168483" lon="14.2031067"><ele>111.0</ele><time>2026-04-15T19:01:04.307Z</time></trkpt><trkpt lat="40.916845" lon="14.2031917"><ele>111.0</ele><time>2026-04-15T19:01:05.308Z</time></trkpt><trkpt lat="40.91684" lon="14.20335"><ele>111.0</ele><time>2026-04-15T19:01:07.307Z</time></trkpt><trkpt lat="40.9168267" lon="14.20351"><ele>111.0</ele><time>2026-04-15T19:01:09.307Z</time></trkpt><trkpt lat="40.91682" lon="14.2035967"><ele>111.16666666666667</ele><time>2026-04-15T19:01:10.305Z</time></trkpt><trkpt lat="40.9168133" lon="14.203685"><ele>111.33333333333334</ele><time>2026-04-15T19:01:11.307Z</time></trkpt><trkpt lat="40.916805" lon="14.2037683"><ele>111.5</ele><time>2026-04-15T19:01:12.309Z</time></trkpt><trkpt lat="40.9167967" lon="14.203855"><ele>111.66666666666667</ele><time>2026-04-15T19:01:13.309Z</time></trkpt><trkpt lat="40.91679" lon="14.2039417"><ele>111.83333333333334</ele><time>2026-04-15T19:01:14.309Z</time></trkpt><trkpt lat="40.9167783" lon="14.20411"><ele>112.0</ele><time>2026-04-15T19:01:16.309Z</time></trkpt><trkpt lat="40.9167733" lon="14.2041933"><ele>112.0</ele><time>2026-04-15T19:01:17.307Z</time></trkpt><trkpt lat="40.91676" lon="14.2043483"><ele>112.0</ele><time>2026-04-15T19:01:19.307Z</time></trkpt><trkpt lat="40.9167517" lon="14.2045083"><ele>112.0</ele><time>2026-04-15T19:01:21.306Z</time></trkpt><trkpt lat="40.9167383" lon="14.2046683"><ele>112.0</ele><time>2026-04-15T19:01:23.307Z</time></trkpt><trkpt lat="40.9167283" lon="14.2048333"><ele>112.28571428571428</ele><time>2026-04-15T19:01:25.308Z</time></trkpt><trkpt lat="40.9167217" lon="14.20492"><ele>112.57142857142857</ele><time>2026-04-15T19:01:26.307Z</time></trkpt><trkpt lat="40.9167133" lon="14.2050083"><ele>112.85714285714286</ele><time>2026-04-15T19:01:27.31Z</time></trkpt><trkpt lat="40.9167067" lon="14.2051033"><ele>113.14285714285714</ele><time>2026-04-15T19:01:28.306Z</time></trkpt><trkpt lat="40.9167" lon="14.205195"><ele>113.42857142857142</ele><time>2026-04-15T19:01:29.307Z</time></trkpt><trkpt lat="40.9166933" lon="14.2052867"><ele>113.71428571428571</ele><time>2026-04-15T19:01:30.307Z</time></trkpt><trkpt lat="40.91668" lon="14.2053733"><ele>114.0</ele><time>2026-04-15T19:01:31.308Z</time></trkpt><trkpt lat="40.91666" lon="14.2054533"><ele>114.0</ele><time>2026-04-15T19:01:32.308Z</time></trkpt><trkpt lat="40.9166383" lon="14.2055317"><ele>114.0</ele><time>2026-04-15T19:01:33.308Z</time></trkpt><trkpt lat="40.916605" lon="14.2056033"><ele>114.0</ele><time>2026-04-15T19:01:34.308Z</time></trkpt><trkpt lat="40.9165367" lon="14.2057367"><ele>114.0</ele><time>2026-04-15T19:01:36.308Z</time></trkpt><trkpt lat="40.9165183" lon="14.205895"><ele>114.0</ele><time>2026-04-15T19:01:38.308Z</time></trkpt><trkpt lat="40.916555" lon="14.20605"><ele>114.0</ele><time>2026-04-15T19:01:40.308Z</time></trkpt><trkpt lat="40.91658" lon="14.2061283"><ele>114.0</ele><time>2026-04-15T19:01:41.308Z</time></trkpt><trkpt lat="40.916605" lon="14.2062067"><ele>114.0</ele><time>2026-04-15T19:01:42.306Z</time></trkpt><trkpt lat="40.916625" lon="14.2062867"><ele>114.0</ele><time>2026-04-15T19:01:43.31Z</time></trkpt><trkpt lat="40.9166367" lon="14.20637"><ele>114.0</ele><time>2026-04-15T19:01:44.31Z</time></trkpt><trkpt lat="40.9166367" lon="14.2065333"><ele>114.0</ele><time>2026-04-15T19:01:46.308Z</time></trkpt><trkpt lat="40.9166367" lon="14.2066967"><ele>114.0</ele><time>2026-04-15T19:01:48.305Z</time></trkpt><trkpt lat="40.9166317" lon="14.2067833"><ele>113.99999999999999</ele><time>2026-04-15T19:01:49.307Z</time></trkpt><trkpt lat="40.9166233" lon="14.2068667"><ele>114.0</ele><time>2026-04-15T19:01:50.307Z</time></trkpt><trkpt lat="40.9166083" lon="14.20695"><ele>114.0</ele><time>2026-04-15T19:01:51.306Z</time></trkpt><trkpt lat="40.916595" lon="14.207035"><ele>113.99999999999999</ele><time>2026-04-15T19:01:52.307Z</time></trkpt><trkpt lat="40.916585" lon="14.2071183"><ele>114.0</ele><time>2026-04-15T19:01:53.311Z</time></trkpt><trkpt lat="40.9165733" lon="14.20728"><ele>114.0</ele><time>2026-04-15T19:01:55.307Z</time></trkpt><trkpt lat="40.9165633" lon="14.2074433"><ele>113.85714285714285</ele><time>2026-04-15T19:01:57.31Z</time></trkpt><trkpt lat="40.9165583" lon="14.20753"><ele>113.7142857142857</ele><time>2026-04-15T19:01:58.308Z</time></trkpt><trkpt lat="40.9165467" lon="14.2076233"><ele>113.57142857142857</ele><time>2026-04-15T19:01:59.308Z</time></trkpt><trkpt lat="40.9165417" lon="14.2077117"><ele>113.42857142857142</ele><time>2026-04-15T19:02:00.308Z</time></trkpt><trkpt lat="40.916535" lon="14.207795"><ele>113.28571428571428</ele><time>2026-04-15T19:02:01.308Z</time></trkpt><trkpt lat="40.9165283" lon="14.2079517"><ele>113.14285714285714</ele><time>2026-04-15T19:02:03.307Z</time></trkpt><trkpt lat="40.9165233" lon="14.208035"><ele>113.0</ele><time>2026-04-15T19:02:04.308Z</time></trkpt><trkpt lat="40.9165183" lon="14.20812"><ele>112.66666666666666</ele><time>2026-04-15T19:02:05.308Z</time></trkpt><trkpt lat="40.9165133" lon="14.2082033"><ele>112.33333333333333</ele><time>2026-04-15T19:02:06.307Z</time></trkpt><trkpt lat="40.9165067" lon="14.2082883"><ele>112.0</ele><time>2026-04-15T19:02:07.308Z</time></trkpt><trkpt lat="40.9164967" lon="14.2083783"><ele>111.66666666666666</ele><time>2026-04-15T19:02:08.308Z</time></trkpt><trkpt lat="40.9164917" lon="14.208465"><ele>111.33333333333333</ele><time>2026-04-15T19:02:09.308Z</time></trkpt><trkpt lat="40.916485" lon="14.208555"><ele>111.0</ele><time>2026-04-15T19:02:10.308Z</time></trkpt><trkpt lat="40.9164717" lon="14.2087183"><ele>111.0</ele><time>2026-04-15T19:02:12.308Z</time></trkpt><trkpt lat="40.91647" lon="14.2088033"><ele>111.0</ele><time>2026-04-15T19:02:13.308Z</time></trkpt><trkpt lat="40.91646" lon="14.2089683"><ele>111.0</ele><time>2026-04-15T19:02:15.31Z</time></trkpt><trkpt lat="40.9164533" lon="14.2090517"><ele>111.0</ele><time>2026-04-15T19:02:16.307Z</time></trkpt><trkpt lat="40.9164467" lon="14.2092133"><ele>111.0</ele><time>2026-04-15T19:02:18.309Z</time></trkpt><trkpt lat="40.9164317" lon="14.20938"><ele>111.0</ele><time>2026-04-15T19:02:20.311Z</time></trkpt><trkpt lat="40.9164267" lon="14.20947"><ele>111.0</ele><time>2026-04-15T19:02:21.308Z</time></trkpt><trkpt lat="40.9164233" lon="14.209555"><ele>111.0</ele><time>2026-04-15T19:02:22.306Z</time></trkpt><trkpt lat="40.916415" lon="14.209725"><ele>111.0</ele><time>2026-04-15T19:02:24.308Z</time></trkpt><trkpt lat="40.9164033" lon="14.2098083"><ele>111.0</ele><time>2026-04-15T19:02:25.308Z</time></trkpt><trkpt lat="40.9163917" lon="14.209895"><ele>111.0</ele><time>2026-04-15T19:02:26.308Z</time></trkpt><trkpt lat="40.9163867" lon="14.209985"><ele>111.0</ele><time>2026-04-15T19:02:27.309Z</time></trkpt><trkpt lat="40.9163767" lon="14.2100717"><ele>111.0</ele><time>2026-04-15T19:02:28.307Z</time></trkpt><trkpt lat="40.9163717" lon="14.2101583"><ele>111.0</ele><time>2026-04-15T19:02:29.306Z</time></trkpt><trkpt lat="40.9163467" lon="14.21032"><ele>111.0</ele><time>2026-04-15T19:02:31.307Z</time></trkpt><trkpt lat="40.9163367" lon="14.2104083"><ele>111.0</ele><time>2026-04-15T19:02:32.31Z</time></trkpt><trkpt lat="40.9163317" lon="14.2104967"><ele>111.0</ele><time>2026-04-15T19:02:33.309Z</time></trkpt><trkpt lat="40.9163233" lon="14.2105817"><ele>111.0</ele><time>2026-04-15T19:02:34.31Z</time></trkpt><trkpt lat="40.9163167" lon="14.2106667"><ele>111.0</ele><time>2026-04-15T19:02:35.307Z</time></trkpt><trkpt lat="40.91631" lon="14.2107533"><ele>111.0</ele><time>2026-04-15T19:02:36.311Z</time></trkpt><trkpt lat="40.9163033" lon="14.2108383"><ele>111.0</ele><time>2026-04-15T19:02:37.308Z</time></trkpt><trkpt lat="40.9162983" lon="14.21101"><ele>111.0</ele><time>2026-04-15T19:02:39.308Z</time></trkpt><trkpt lat="40.9163017" lon="14.2111017"><ele>111.0</ele><time>2026-04-15T19:02:40.308Z</time></trkpt><trkpt lat="40.9162967" lon="14.2112783"><ele>111.0</ele><time>2026-04-15T19:02:42.307Z</time></trkpt><trkpt lat="40.91629" lon="14.2113667"><ele>111.0</ele><time>2026-04-15T19:02:43.306Z</time></trkpt><trkpt lat="40.916285" lon="14.2114567"><ele>111.0</ele><time>2026-04-15T19:02:44.306Z</time></trkpt><trkpt lat="40.91627" lon="14.2116183"><ele>111.0</ele><time>2026-04-15T19:02:46.308Z</time></trkpt><trkpt lat="40.9162633" lon="14.2117067"><ele>111.0</ele><time>2026-04-15T19:02:47.307Z</time></trkpt><trkpt lat="40.91626" lon="14.211795"><ele>111.0</ele><time>2026-04-15T19:02:48.308Z</time></trkpt><trkpt lat="40.9162533" lon="14.2118817"><ele>111.16666666666667</ele><time>2026-04-15T19:02:49.309Z</time></trkpt><trkpt lat="40.9162367" lon="14.21205"><ele>111.33333333333334</ele><time>2026-04-15T19:02:51.307Z</time></trkpt><trkpt lat="40.9162333" lon="14.2121367"><ele>111.5</ele><time>2026-04-15T19:02:52.309Z</time></trkpt><trkpt lat="40.916225" lon="14.21222"><ele>111.66666666666667</ele><time>2026-04-15T19:02:53.307Z</time></trkpt><trkpt lat="40.9162183" lon="14.2123033"><ele>111.83333333333334</ele><time>2026-04-15T19:02:54.309Z</time></trkpt><trkpt lat="40.9162133" lon="14.2123883"><ele>112.0</ele><time>2026-04-15T19:02:55.308Z</time></trkpt><trkpt lat="40.916205" lon="14.2124783"><ele>111.71428571428571</ele><time>2026-04-15T19:02:56.306Z</time></trkpt><trkpt lat="40.9161917" lon="14.2125683"><ele>111.42857142857143</ele><time>2026-04-15T19:02:57.309Z</time></trkpt><trkpt lat="40.9161817" lon="14.2126583"><ele>111.14285714285714</ele><time>2026-04-15T19:02:58.308Z</time></trkpt><trkpt lat="40.916165" lon="14.2127467"><ele>110.85714285714286</ele><time>2026-04-15T19:02:59.307Z</time></trkpt><trkpt lat="40.9161517" lon="14.2128333"><ele>110.57142857142857</ele><time>2026-04-15T19:03:00.308Z</time></trkpt><trkpt lat="40.916135" lon="14.2129267"><ele>110.28571428571428</ele><time>2026-04-15T19:03:01.309Z</time></trkpt><trkpt lat="40.91612" lon="14.2130167"><ele>110.0</ele><time>2026-04-15T19:03:02.308Z</time></trkpt><trkpt lat="40.9161033" lon="14.2131067"><ele>109.99999999999999</ele><time>2026-04-15T19:03:03.308Z</time></trkpt><trkpt lat="40.916085" lon="14.2131917"><ele>110.0</ele><time>2026-04-15T19:03:04.308Z</time></trkpt><trkpt lat="40.9160683" lon="14.213275"><ele>110.0</ele><time>2026-04-15T19:03:05.308Z</time></trkpt><trkpt lat="40.9160483" lon="14.21336"><ele>110.0</ele><time>2026-04-15T19:03:06.308Z</time></trkpt><trkpt lat="40.9160283" lon="14.2134433"><ele>109.99999999999999</ele><time>2026-04-15T19:03:07.309Z</time></trkpt><trkpt lat="40.915985" lon="14.2135983"><ele>110.0</ele><time>2026-04-15T19:03:09.307Z</time></trkpt><trkpt lat="40.9159617" lon="14.2136783"><ele>109.99999999999999</ele><time>2026-04-15T19:03:10.307Z</time></trkpt><trkpt lat="40.915935" lon="14.213755"><ele>110.0</ele><time>2026-04-15T19:03:11.308Z</time></trkpt><trkpt lat="40.915865" lon="14.2138983"><ele>110.0</ele><time>2026-04-15T19:03:13.31Z</time></trkpt><trkpt lat="40.915805" lon="14.2140083"><ele>110.0</ele><time>2026-04-15T19:03:15.308Z</time></trkpt><trkpt lat="40.91578" lon="14.214105"><ele>109.99999999999999</ele><time>2026-04-15T19:03:17.308Z</time></trkpt><trkpt lat="40.9157717" lon="14.2141983"><ele>110.0</ele><time>2026-04-15T19:03:19.307Z</time></trkpt><trkpt lat="40.9157417" lon="14.2142833"><ele>109.99999999999999</ele><time>2026-04-15T19:03:21.308Z</time></trkpt><trkpt lat="40.91571" lon="14.2143717"><ele>110.0</ele><time>2026-04-15T19:03:23.306Z</time></trkpt><trkpt lat="40.915675" lon="14.2144683"><ele>110.0</ele><time>2026-04-15T19:03:25.308Z</time></trkpt><trkpt lat="40.9156333" lon="14.214565"><ele>110.0</ele><time>2026-04-15T19:03:27.308Z</time></trkpt><trkpt lat="40.9156" lon="14.2146417"><ele>110.0</ele><time>2026-04-15T19:03:29.307Z</time></trkpt><trkpt lat="40.915575" lon="14.214725"><ele>109.99999999999999</ele><time>2026-04-15T19:03:31.307Z</time></trkpt><trkpt lat="40.9155383" lon="14.21481"><ele>110.0</ele><time>2026-04-15T19:03:33.309Z</time></trkpt><trkpt lat="40.915495" lon="14.2149067"><ele>110.0</ele><time>2026-04-15T19:03:35.307Z</time></trkpt><trkpt lat="40.9154633" lon="14.2150183"><ele>110.0</ele><time>2026-04-15T19:03:37.308Z</time></trkpt><trkpt lat="40.9154183" lon="14.2151267"><ele>110.0</ele><time>2026-04-15T19:03:39.31Z</time></trkpt><trkpt lat="40.9153667" lon="14.215245"><ele>110.0</ele><time>2026-04-15T19:03:41.31Z</time></trkpt><trkpt lat="40.9153217" lon="14.2153783"><ele>110.0</ele><time>2026-04-15T19:03:43.308Z</time></trkpt><trkpt lat="40.9152817" lon="14.21553"><ele>110.33333333333333</ele><time>2026-04-15T19:03:45.308Z</time></trkpt><trkpt lat="40.915235" lon="14.21569"><ele>110.66666666666666</ele><time>2026-04-15T19:03:47.31Z</time></trkpt><trkpt lat="40.9152083" lon="14.2157667"><ele>111.0</ele><time>2026-04-15T19:03:48.308Z</time></trkpt><trkpt lat="40.9151783" lon="14.21584"><ele>111.33333333333334</ele><time>2026-04-15T19:03:49.307Z</time></trkpt><trkpt lat="40.9151483" lon="14.2159167"><ele>111.66666666666667</ele><time>2026-04-15T19:03:50.307Z</time></trkpt><trkpt lat="40.91512" lon="14.2159917"><ele>112.0</ele><time>2026-04-15T19:03:51.308Z</time></trkpt><trkpt lat="40.91509" lon="14.2160683"><ele>111.8</ele><time>2026-04-15T19:03:52.308Z</time></trkpt><trkpt lat="40.91506" lon="14.2161417"><ele>111.6</ele><time>2026-04-15T19:03:53.308Z</time></trkpt><trkpt lat="40.91501" lon="14.2162917"><ele>111.39999999999999</ele><time>2026-04-15T19:03:55.307Z</time></trkpt><trkpt lat="40.91496" lon="14.216435"><ele>111.19999999999999</ele><time>2026-04-15T19:03:57.308Z</time></trkpt><trkpt lat="40.9149033" lon="14.2165783"><ele>111.0</ele><time>2026-04-15T19:03:59.308Z</time></trkpt><trkpt lat="40.9148733" lon="14.2166517"><ele>111.0</ele><time>2026-04-15T19:04:00.309Z</time></trkpt><trkpt lat="40.9148417" lon="14.2167267"><ele>111.0</ele><time>2026-04-15T19:04:01.308Z</time></trkpt><trkpt lat="40.9148117" lon="14.2168033"><ele>111.0</ele><time>2026-04-15T19:04:02.307Z</time></trkpt><trkpt lat="40.91478" lon="14.21688"><ele>111.0</ele><time>2026-04-15T19:04:03.305Z</time></trkpt><trkpt lat="40.91475" lon="14.2169533"><ele>111.0</ele><time>2026-04-15T19:04:04.309Z</time></trkpt><trkpt lat="40.91468" lon="14.2170917"><ele>111.0</ele><time>2026-04-15T19:04:06.309Z</time></trkpt><trkpt lat="40.914635" lon="14.2171517"><ele>111.0</ele><time>2026-04-15T19:04:07.308Z</time></trkpt><trkpt lat="40.914545" lon="14.217235"><ele>111.0</ele><time>2026-04-15T19:04:09.307Z</time></trkpt><trkpt lat="40.9144783" lon="14.2172933"><ele>111.0</ele><time>2026-04-15T19:04:11.307Z</time></trkpt><trkpt lat="40.9144317" lon="14.21737"><ele>111.0</ele><time>2026-04-15T19:04:13.31Z</time></trkpt><trkpt lat="40.9144" lon="14.2174667"><ele>111.0</ele><time>2026-04-15T19:04:15.31Z</time></trkpt><trkpt lat="40.9143767" lon="14.2176"><ele>111.0</ele><time>2026-04-15T19:04:17.31Z</time></trkpt><trkpt lat="40.9143533" lon="14.21775"><ele>110.75</ele><time>2026-04-15T19:04:19.308Z</time></trkpt><trkpt lat="40.9143417" lon="14.217905"><ele>110.5</ele><time>2026-04-15T19:04:21.307Z</time></trkpt><trkpt lat="40.91431" lon="14.2180567"><ele>110.25</ele><time>2026-04-15T19:04:23.308Z</time></trkpt><trkpt lat="40.9142717" lon="14.2182067"><ele>110.0</ele><time>2026-04-15T19:04:25.308Z</time></trkpt><trkpt lat="40.9142267" lon="14.218345"><ele>110.0</ele><time>2026-04-15T19:04:27.308Z</time></trkpt><trkpt lat="40.9141733" lon="14.2184883"><ele>110.0</ele><time>2026-04-15T19:04:29.309Z</time></trkpt><trkpt lat="40.9141317" lon="14.2186267"><ele>110.0</ele><time>2026-04-15T19:04:31.31Z</time></trkpt><trkpt lat="40.9140733" lon="14.2187617"><ele>110.0</ele><time>2026-04-15T19:04:33.308Z</time></trkpt><trkpt lat="40.9140167" lon="14.2189017"><ele>109.8</ele><time>2026-04-15T19:04:35.308Z</time></trkpt><trkpt lat="40.9139617" lon="14.219055"><ele>109.6</ele><time>2026-04-15T19:04:37.307Z</time></trkpt><trkpt lat="40.9139133" lon="14.2192083"><ele>109.4</ele><time>2026-04-15T19:04:39.308Z</time></trkpt><trkpt lat="40.913885" lon="14.2192867"><ele>109.2</ele><time>2026-04-15T19:04:40.309Z</time></trkpt><trkpt lat="40.9138267" lon="14.2194267"><ele>109.0</ele><time>2026-04-15T19:04:42.31Z</time></trkpt><trkpt lat="40.9137683" lon="14.21957"><ele>109.0</ele><time>2026-04-15T19:04:44.307Z</time></trkpt><trkpt lat="40.9137367" lon="14.2196467"><ele>109.0</ele><time>2026-04-15T19:04:45.308Z</time></trkpt><trkpt lat="40.9137083" lon="14.2197217"><ele>109.0</ele><time>2026-04-15T19:04:46.308Z</time></trkpt><trkpt lat="40.9136533" lon="14.2198733"><ele>109.0</ele><time>2026-04-15T19:04:48.309Z</time></trkpt><trkpt lat="40.913625" lon="14.21995"><ele>109.0</ele><time>2026-04-15T19:04:49.308Z</time></trkpt><trkpt lat="40.9135667" lon="14.220105"><ele>109.14285714285714</ele><time>2026-04-15T19:04:51.308Z</time></trkpt><trkpt lat="40.9135367" lon="14.2201867"><ele>109.28571428571429</ele><time>2026-04-15T19:04:52.308Z</time></trkpt><trkpt lat="40.91351" lon="14.2202683"><ele>109.42857142857142</ele><time>2026-04-15T19:04:53.307Z</time></trkpt><trkpt lat="40.9134817" lon="14.2203467"><ele>109.57142857142857</ele><time>2026-04-15T19:04:54.309Z</time></trkpt><trkpt lat="40.9134483" lon="14.2204267"><ele>109.71428571428571</ele><time>2026-04-15T19:04:55.307Z</time></trkpt><trkpt lat="40.91342" lon="14.2205067"><ele>109.85714285714285</ele><time>2026-04-15T19:04:56.309Z</time></trkpt><trkpt lat="40.913395" lon="14.2205883"><ele>110.0</ele><time>2026-04-15T19:04:57.308Z</time></trkpt><trkpt lat="40.91337" lon="14.2206667"><ele>110.14285714285714</ele><time>2026-04-15T19:04:58.308Z</time></trkpt><trkpt lat="40.9133417" lon="14.220745"><ele>110.28571428571428</ele><time>2026-04-15T19:04:59.308Z</time></trkpt><trkpt lat="40.913315" lon="14.220825"><ele>110.42857142857142</ele><time>2026-04-15T19:05:00.309Z</time></trkpt><trkpt lat="40.913285" lon="14.2209033"><ele>110.57142857142857</ele><time>2026-04-15T19:05:01.31Z</time></trkpt><trkpt lat="40.9132533" lon="14.22098"><ele>110.71428571428572</ele><time>2026-04-15T19:05:02.31Z</time></trkpt><trkpt lat="40.913225" lon="14.2210567"><ele>110.85714285714285</ele><time>2026-04-15T19:05:03.308Z</time></trkpt><trkpt lat="40.9131967" lon="14.2211317"><ele>111.0</ele><time>2026-04-15T19:05:04.308Z</time></trkpt><trkpt lat="40.9131717" lon="14.22121"><ele>111.0</ele><time>2026-04-15T19:05:05.309Z</time></trkpt><trkpt lat="40.913145" lon="14.22129"><ele>111.0</ele><time>2026-04-15T19:05:06.309Z</time></trkpt><trkpt lat="40.9131183" lon="14.2213683"><ele>111.0</ele><time>2026-04-15T19:05:07.308Z</time></trkpt><trkpt lat="40.9130917" lon="14.2214483"><ele>111.0</ele><time>2026-04-15T19:05:08.309Z</time></trkpt><trkpt lat="40.91306" lon="14.2215317"><ele>111.0</ele><time>2026-04-15T19:05:09.308Z</time></trkpt><trkpt lat="40.9130283" lon="14.2216117"><ele>111.0</ele><time>2026-04-15T19:05:10.31Z</time></trkpt><trkpt lat="40.9129983" lon="14.2216917"><ele>111.0</ele><time>2026-04-15T19:05:11.308Z</time></trkpt><trkpt lat="40.9129683" lon="14.221775"><ele>110.85714285714285</ele><time>2026-04-15T19:05:12.309Z</time></trkpt><trkpt lat="40.91294" lon="14.2218583"><ele>110.71428571428572</ele><time>2026-04-15T19:05:13.307Z</time></trkpt><trkpt lat="40.912905" lon="14.2219367"><ele>110.57142857142857</ele><time>2026-04-15T19:05:14.308Z</time></trkpt><trkpt lat="40.9128717" lon="14.2220133"><ele>110.42857142857142</ele><time>2026-04-15T19:05:15.307Z</time></trkpt><trkpt lat="40.91284" lon="14.2220933"><ele>110.28571428571428</ele><time>2026-04-15T19:05:16.308Z</time></trkpt><trkpt lat="40.9128117" lon="14.2221717"><ele>110.14285714285714</ele><time>2026-04-15T19:05:17.307Z</time></trkpt><trkpt lat="40.9127817" lon="14.2222467"><ele>110.0</ele><time>2026-04-15T19:05:18.308Z</time></trkpt><trkpt lat="40.912755" lon="14.2223283"><ele>109.99999999999999</ele><time>2026-04-15T19:05:19.309Z</time></trkpt><trkpt lat="40.9127267" lon="14.2224033"><ele>110.0</ele><time>2026-04-15T19:05:20.308Z</time></trkpt><trkpt lat="40.9126983" lon="14.2224817"><ele>110.0</ele><time>2026-04-15T19:05:21.308Z</time></trkpt><trkpt lat="40.91265" lon="14.2226283"><ele>110.0</ele><time>2026-04-15T19:05:23.309Z</time></trkpt><trkpt lat="40.9126217" lon="14.2227083"><ele>110.0</ele><time>2026-04-15T19:05:24.309Z</time></trkpt><trkpt lat="40.91259" lon="14.2227833"><ele>109.99999999999999</ele><time>2026-04-15T19:05:25.307Z</time></trkpt><trkpt lat="40.9125583" lon="14.22286"><ele>110.0</ele><time>2026-04-15T19:05:26.309Z</time></trkpt><trkpt lat="40.9125217" lon="14.2229383"><ele>110.14285714285714</ele><time>2026-04-15T19:05:27.309Z</time></trkpt><trkpt lat="40.91249" lon="14.2230217"><ele>110.28571428571428</ele><time>2026-04-15T19:05:28.308Z</time></trkpt><trkpt lat="40.9124583" lon="14.2231033"><ele>110.42857142857142</ele><time>2026-04-15T19:05:29.308Z</time></trkpt><trkpt lat="40.91243" lon="14.2231833"><ele>110.57142857142857</ele><time>2026-04-15T19:05:30.308Z</time></trkpt><trkpt lat="40.9124" lon="14.2232667"><ele>110.71428571428572</ele><time>2026-04-15T19:05:31.31Z</time></trkpt><trkpt lat="40.9123733" lon="14.2233433"><ele>110.85714285714285</ele><time>2026-04-15T19:05:32.311Z</time></trkpt><trkpt lat="40.912345" lon="14.22342"><ele>111.0</ele><time>2026-04-15T19:05:33.31Z</time></trkpt><trkpt lat="40.9123117" lon="14.2235"><ele>111.0</ele><time>2026-04-15T19:05:34.31Z</time></trkpt><trkpt lat="40.91228" lon="14.2235817"><ele>111.0</ele><time>2026-04-15T19:05:35.308Z</time></trkpt><trkpt lat="40.9122467" lon="14.2236633"><ele>111.0</ele><time>2026-04-15T19:05:36.308Z</time></trkpt><trkpt lat="40.9122167" lon="14.223745"><ele>111.0</ele><time>2026-04-15T19:05:37.309Z</time></trkpt><trkpt lat="40.9121833" lon="14.2238333"><ele>111.0</ele><time>2026-04-15T19:05:38.311Z</time></trkpt><trkpt lat="40.9121533" lon="14.22392"><ele>111.0</ele><time>2026-04-15T19:05:39.31Z</time></trkpt><trkpt lat="40.9121217" lon="14.2239983"><ele>111.0</ele><time>2026-04-15T19:05:40.31Z</time></trkpt><trkpt lat="40.9120883" lon="14.2240783"><ele>110.8</ele><time>2026-04-15T19:05:41.31Z</time></trkpt><trkpt lat="40.91206" lon="14.2241583"><ele>110.6</ele><time>2026-04-15T19:05:42.309Z</time></trkpt><trkpt lat="40.91203" lon="14.2242333"><ele>110.4</ele><time>2026-04-15T19:05:43.308Z</time></trkpt><trkpt lat="40.9119783" lon="14.224385"><ele>110.2</ele><time>2026-04-15T19:05:45.309Z</time></trkpt><trkpt lat="40.91193" lon="14.22453"><ele>110.0</ele><time>2026-04-15T19:05:47.308Z</time></trkpt><trkpt lat="40.911875" lon="14.2246683"><ele>110.0</ele><time>2026-04-15T19:05:49.308Z</time></trkpt><trkpt lat="40.9118267" lon="14.2248033"><ele>110.0</ele><time>2026-04-15T19:05:51.308Z</time></trkpt><trkpt lat="40.9117717" lon="14.2249367"><ele>110.0</ele><time>2026-04-15T19:05:53.307Z</time></trkpt><trkpt lat="40.9117183" lon="14.2250767"><ele>110.0</ele><time>2026-04-15T19:05:55.307Z</time></trkpt><trkpt lat="40.91169" lon="14.2251533"><ele>110.0</ele><time>2026-04-15T19:05:56.308Z</time></trkpt><trkpt lat="40.91166" lon="14.2252267"><ele>110.25</ele><time>2026-04-15T19:05:57.308Z</time></trkpt><trkpt lat="40.9116" lon="14.2253617"><ele>110.5</ele><time>2026-04-15T19:05:59.307Z</time></trkpt><trkpt lat="40.9115533" lon="14.225505"><ele>110.75</ele><time>2026-04-15T19:06:01.308Z</time></trkpt><trkpt lat="40.91151" lon="14.225655"><ele>111.0</ele><time>2026-04-15T19:06:03.31Z</time></trkpt><trkpt lat="40.9114567" lon="14.2257983"><ele>111.0</ele><time>2026-04-15T19:06:05.31Z</time></trkpt><trkpt lat="40.9114267" lon="14.2258733"><ele>111.0</ele><time>2026-04-15T19:06:06.31Z</time></trkpt><trkpt lat="40.9113983" lon="14.2259533"><ele>111.0</ele><time>2026-04-15T19:06:07.307Z</time></trkpt><trkpt lat="40.9113717" lon="14.2260317"><ele>111.0</ele><time>2026-04-15T19:06:08.31Z</time></trkpt><trkpt lat="40.9113417" lon="14.2261083"><ele>111.0</ele><time>2026-04-15T19:06:09.31Z</time></trkpt><trkpt lat="40.9113083" lon="14.226185"><ele>111.0</ele><time>2026-04-15T19:06:10.307Z</time></trkpt><trkpt lat="40.9112783" lon="14.2262617"><ele>111.0</ele><time>2026-04-15T19:06:11.31Z</time></trkpt><trkpt lat="40.91125" lon="14.2263417"><ele>111.0</ele><time>2026-04-15T19:06:12.307Z</time></trkpt><trkpt lat="40.9112233" lon="14.2264183"><ele>111.0</ele><time>2026-04-15T19:06:13.307Z</time></trkpt><trkpt lat="40.9111967" lon="14.2264967"><ele>111.0</ele><time>2026-04-15T19:06:14.308Z</time></trkpt><trkpt lat="40.91117" lon="14.2265817"><ele>111.0</ele><time>2026-04-15T19:06:15.307Z</time></trkpt><trkpt lat="40.9111433" lon="14.226665"><ele>111.0</ele><time>2026-04-15T19:06:16.306Z</time></trkpt><trkpt lat="40.9111167" lon="14.2267417"><ele>111.0</ele><time>2026-04-15T19:06:17.307Z</time></trkpt><trkpt lat="40.9110867" lon="14.2268167"><ele>111.0</ele><time>2026-04-15T19:06:18.306Z</time></trkpt><trkpt lat="40.9110583" lon="14.2268967"><ele>110.85714285714285</ele><time>2026-04-15T19:06:19.306Z</time></trkpt><trkpt lat="40.91103" lon="14.2269783"><ele>110.71428571428572</ele><time>2026-04-15T19:06:20.308Z</time></trkpt><trkpt lat="40.9110017" lon="14.22706"><ele>110.57142857142857</ele><time>2026-04-15T19:06:21.308Z</time></trkpt><trkpt lat="40.9109717" lon="14.22714"><ele>110.42857142857142</ele><time>2026-04-15T19:06:22.307Z</time></trkpt><trkpt lat="40.9109433" lon="14.2272183"><ele>110.28571428571428</ele><time>2026-04-15T19:06:23.306Z</time></trkpt><trkpt lat="40.910915" lon="14.2272933"><ele>110.14285714285714</ele><time>2026-04-15T19:06:24.307Z</time></trkpt><trkpt lat="40.9108883" lon="14.2273717"><ele>110.0</ele><time>2026-04-15T19:06:25.308Z</time></trkpt><trkpt lat="40.9108633" lon="14.2274483"><ele>109.99999999999999</ele><time>2026-04-15T19:06:26.307Z</time></trkpt><trkpt lat="40.9108167" lon="14.2275783"><ele>110.0</ele><time>2026-04-15T19:06:28.306Z</time></trkpt><trkpt lat="40.9107833" lon="14.22765"><ele>110.0</ele><time>2026-04-15T19:06:29.307Z</time></trkpt><trkpt lat="40.9107617" lon="14.2277433"><ele>110.0</ele><time>2026-04-15T19:06:30.307Z</time></trkpt><trkpt lat="40.9107333" lon="14.2278333"><ele>109.99999999999999</ele><time>2026-04-15T19:06:31.306Z</time></trkpt><trkpt lat="40.910705" lon="14.22792"><ele>110.0</ele><time>2026-04-15T19:06:32.309Z</time></trkpt><trkpt lat="40.9106733" lon="14.228005"><ele>109.99999999999999</ele><time>2026-04-15T19:06:33.308Z</time></trkpt><trkpt lat="40.9106383" lon="14.2280883"><ele>110.0</ele><time>2026-04-15T19:06:34.306Z</time></trkpt><trkpt lat="40.910605" lon="14.22817"><ele>110.0</ele><time>2026-04-15T19:06:35.308Z</time></trkpt><trkpt lat="40.9105733" lon="14.2282467"><ele>110.0</ele><time>2026-04-15T19:06:36.308Z</time></trkpt><trkpt lat="40.9105417" lon="14.2283283"><ele>110.0</ele><time>2026-04-15T19:06:37.308Z</time></trkpt><trkpt lat="40.91051" lon="14.2284133"><ele>109.99999999999999</ele><time>2026-04-15T19:06:38.31Z</time></trkpt><trkpt lat="40.9104733" lon="14.2285"><ele>110.0</ele><time>2026-04-15T19:06:39.308Z</time></trkpt><trkpt lat="40.91044" lon="14.2285783"><ele>109.85714285714285</ele><time>2026-04-15T19:06:40.305Z</time></trkpt><trkpt lat="40.9104083" lon="14.2286617"><ele>109.71428571428571</ele><time>2026-04-15T19:06:41.308Z</time></trkpt><trkpt lat="40.9103767" lon="14.22874"><ele>109.57142857142857</ele><time>2026-04-15T19:06:42.308Z</time></trkpt><trkpt lat="40.910345" lon="14.228815"><ele>109.42857142857142</ele><time>2026-04-15T19:06:43.307Z</time></trkpt><trkpt lat="40.9103133" lon="14.2288917"><ele>109.28571428571429</ele><time>2026-04-15T19:06:44.309Z</time></trkpt><trkpt lat="40.9102817" lon="14.2289717"><ele>109.14285714285714</ele><time>2026-04-15T19:06:45.307Z</time></trkpt><trkpt lat="40.9102533" lon="14.2290517"><ele>109.0</ele><time>2026-04-15T19:06:46.306Z</time></trkpt><trkpt lat="40.9102233" lon="14.2291267"><ele>108.80000000000001</ele><time>2026-04-15T19:06:47.307Z</time></trkpt><trkpt lat="40.9101883" lon="14.2291967"><ele>108.60000000000001</ele><time>2026-04-15T19:06:48.309Z</time></trkpt><trkpt lat="40.9101117" lon="14.2293183"><ele>108.4</ele><time>2026-04-15T19:06:50.311Z</time></trkpt><trkpt lat="40.9100433" lon="14.22942"><ele>108.2</ele><time>2026-04-15T19:06:52.307Z</time></trkpt><trkpt lat="40.91003" lon="14.2295667"><ele>108.0</ele><time>2026-04-15T19:07:27.309Z</time></trkpt><trkpt lat="40.9100133" lon="14.2296967"><ele>108.2</ele><time>2026-04-15T19:07:30.306Z</time></trkpt><trkpt lat="40.9099883" lon="14.2298017"><ele>108.4</ele><time>2026-04-15T19:07:32.31Z</time></trkpt><trkpt lat="40.9099367" lon="14.2299183"><ele>108.60000000000001</ele><time>2026-04-15T19:07:34.308Z</time></trkpt><trkpt lat="40.9099" lon="14.2300483"><ele>108.80000000000001</ele><time>2026-04-15T19:07:36.307Z</time></trkpt><trkpt lat="40.9098667" lon="14.2301817"><ele>109.0</ele><time>2026-04-15T19:07:38.31Z</time></trkpt><trkpt lat="40.90984" lon="14.23031"><ele>109.0</ele><time>2026-04-15T19:07:40.306Z</time></trkpt><trkpt lat="40.9098333" lon="14.2304283"><ele>109.0</ele><time>2026-04-15T19:07:42.308Z</time></trkpt><trkpt lat="40.909815" lon="14.2305683"><ele>109.0</ele><time>2026-04-15T19:07:44.308Z</time></trkpt><trkpt lat="40.9097867" lon="14.2307167"><ele>109.0</ele><time>2026-04-15T19:07:46.309Z</time></trkpt><trkpt lat="40.909765" lon="14.2308717"><ele>109.0</ele><time>2026-04-15T19:07:48.308Z</time></trkpt><trkpt lat="40.9097683" lon="14.23096"><ele>108.83333333333334</ele><time>2026-04-15T19:07:49.307Z</time></trkpt><trkpt lat="40.9097617" lon="14.23112"><ele>108.66666666666667</ele><time>2026-04-15T19:07:51.307Z</time></trkpt><trkpt lat="40.9097533" lon="14.2312067"><ele>108.5</ele><time>2026-04-15T19:07:52.306Z</time></trkpt><trkpt lat="40.90975" lon="14.231295"><ele>108.33333333333334</ele><time>2026-04-15T19:07:53.308Z</time></trkpt><trkpt lat="40.9097483" lon="14.2313833"><ele>108.16666666666667</ele><time>2026-04-15T19:07:54.307Z</time></trkpt><trkpt lat="40.9097483" lon="14.2314733"><ele>108.0</ele><time>2026-04-15T19:07:55.306Z</time></trkpt><trkpt lat="40.9097483" lon="14.2315633"><ele>107.71428571428571</ele><time>2026-04-15T19:07:56.311Z</time></trkpt><trkpt lat="40.9097483" lon="14.2316483"><ele>107.42857142857142</ele><time>2026-04-15T19:07:57.308Z</time></trkpt><trkpt lat="40.9097483" lon="14.2317333"><ele>107.14285714285714</ele><time>2026-04-15T19:07:58.308Z</time></trkpt><trkpt lat="40.9097517" lon="14.23182"><ele>106.85714285714286</ele><time>2026-04-15T19:07:59.308Z</time></trkpt><trkpt lat="40.9097583" lon="14.23191"><ele>106.57142857142857</ele><time>2026-04-15T19:08:00.308Z</time></trkpt><trkpt lat="40.909765" lon="14.2320017"><ele>106.28571428571429</ele><time>2026-04-15T19:08:01.31Z</time></trkpt><trkpt lat="40.9097667" lon="14.2320933"><ele>106.0</ele><time>2026-04-15T19:08:02.31Z</time></trkpt><trkpt lat="40.90977" lon="14.2321867"><ele>106.0</ele><time>2026-04-15T19:08:03.308Z</time></trkpt><trkpt lat="40.9097783" lon="14.2322767"><ele>106.0</ele><time>2026-04-15T19:08:04.309Z</time></trkpt><trkpt lat="40.9097883" lon="14.2323733"><ele>106.0</ele><time>2026-04-15T19:08:05.309Z</time></trkpt><trkpt lat="40.9098033" lon="14.23247"><ele>106.0</ele><time>2026-04-15T19:08:06.309Z</time></trkpt><trkpt lat="40.9098167" lon="14.2325683"><ele>106.0</ele><time>2026-04-15T19:08:07.307Z</time></trkpt><trkpt lat="40.9098317" lon="14.23266"><ele>106.0</ele><time>2026-04-15T19:08:08.308Z</time></trkpt><trkpt lat="40.9098467" lon="14.2327483"><ele>106.0</ele><time>2026-04-15T19:08:09.307Z</time></trkpt><trkpt lat="40.9098633" lon="14.23284"><ele>106.14285714285715</ele><time>2026-04-15T19:08:10.306Z</time></trkpt><trkpt lat="40.9098817" lon="14.2329333"><ele>106.28571428571428</ele><time>2026-04-15T19:08:11.309Z</time></trkpt><trkpt lat="40.9098983" lon="14.2330267"><ele>106.42857142857143</ele><time>2026-04-15T19:08:12.307Z</time></trkpt><trkpt lat="40.9099167" lon="14.2331167"><ele>106.57142857142858</ele><time>2026-04-15T19:08:13.308Z</time></trkpt><trkpt lat="40.9099367" lon="14.23321"><ele>106.71428571428572</ele><time>2026-04-15T19:08:14.308Z</time></trkpt><trkpt lat="40.9099617" lon="14.2333033"><ele>106.85714285714286</ele><time>2026-04-15T19:08:15.306Z</time></trkpt><trkpt lat="40.9099867" lon="14.233395"><ele>107.0</ele><time>2026-04-15T19:08:16.305Z</time></trkpt><trkpt lat="40.9100133" lon="14.2334833"><ele>106.99999999999999</ele><time>2026-04-15T19:08:17.307Z</time></trkpt><trkpt lat="40.9100417" lon="14.2335767"><ele>107.0</ele><time>2026-04-15T19:08:18.308Z</time></trkpt><trkpt lat="40.91007" lon="14.2336717"><ele>107.0</ele><time>2026-04-15T19:08:19.306Z</time></trkpt><trkpt lat="40.9101" lon="14.2337617"><ele>107.0</ele><time>2026-04-15T19:08:20.307Z</time></trkpt><trkpt lat="40.9101333" lon="14.23385"><ele>106.99999999999999</ele><time>2026-04-15T19:08:21.306Z</time></trkpt><trkpt lat="40.91017" lon="14.233935"><ele>107.0</ele><time>2026-04-15T19:08:22.308Z</time></trkpt><trkpt lat="40.910205" lon="14.2340217"><ele>106.42857142857143</ele><time>2026-04-15T19:08:23.309Z</time></trkpt><trkpt lat="40.91024" lon="14.2341067"><ele>105.85714285714286</ele><time>2026-04-15T19:08:24.308Z</time></trkpt><trkpt lat="40.9102767" lon="14.2341883"><ele>105.28571428571428</ele><time>2026-04-15T19:08:25.307Z</time></trkpt><trkpt lat="40.9103133" lon="14.23427"><ele>104.71428571428572</ele><time>2026-04-15T19:08:26.309Z</time></trkpt><trkpt lat="40.91035" lon="14.2343517"><ele>104.14285714285714</ele><time>2026-04-15T19:08:27.306Z</time></trkpt><trkpt lat="40.9103883" lon="14.234435"><ele>103.57142857142857</ele><time>2026-04-15T19:08:28.308Z</time></trkpt><trkpt lat="40.91043" lon="14.2345117"><ele>103.0</ele><time>2026-04-15T19:08:29.307Z</time></trkpt><trkpt lat="40.910475" lon="14.2345867"><ele>102.99999999999999</ele><time>2026-04-15T19:08:30.308Z</time></trkpt><trkpt lat="40.9105183" lon="14.2346617"><ele>103.0</ele><time>2026-04-15T19:08:31.307Z</time></trkpt><trkpt lat="40.91056" lon="14.23473"><ele>103.0</ele><time>2026-04-15T19:08:32.311Z</time></trkpt><trkpt lat="40.9106083" lon="14.234805"><ele>103.0</ele><time>2026-04-15T19:08:33.308Z</time></trkpt><trkpt lat="40.9106567" lon="14.23488"><ele>103.0</ele><time>2026-04-15T19:08:34.308Z</time></trkpt><trkpt lat="40.910705" lon="14.2349533"><ele>102.99999999999999</ele><time>2026-04-15T19:08:35.308Z</time></trkpt><trkpt lat="40.91075" lon="14.2350233"><ele>103.0</ele><time>2026-04-15T19:08:36.31Z</time></trkpt><trkpt lat="40.9107933" lon="14.23509"><ele>102.99999999999999</ele><time>2026-04-15T19:08:37.308Z</time></trkpt><trkpt lat="40.9108383" lon="14.2351567"><ele>103.0</ele><time>2026-04-15T19:08:38.308Z</time></trkpt><trkpt lat="40.9108867" lon="14.2352217"><ele>103.0</ele><time>2026-04-15T19:08:39.309Z</time></trkpt><trkpt lat="40.9109367" lon="14.2352867"><ele>103.0</ele><time>2026-04-15T19:08:40.305Z</time></trkpt><trkpt lat="40.9109883" lon="14.235355"><ele>103.0</ele><time>2026-04-15T19:08:41.307Z</time></trkpt><trkpt lat="40.9110367" lon="14.2354233"><ele>102.99999999999999</ele><time>2026-04-15T19:08:42.308Z</time></trkpt><trkpt lat="40.9110833" lon="14.2354883"><ele>103.0</ele><time>2026-04-15T19:08:43.308Z</time></trkpt><trkpt lat="40.9111233" lon="14.23556"><ele>102.85714285714285</ele><time>2026-04-15T19:08:44.309Z</time></trkpt><trkpt lat="40.9111633" lon="14.2356367"><ele>102.71428571428571</ele><time>2026-04-15T19:08:45.307Z</time></trkpt><trkpt lat="40.9111933" lon="14.235725"><ele>102.57142857142857</ele><time>2026-04-15T19:08:46.308Z</time></trkpt><trkpt lat="40.9112217" lon="14.2358067"><ele>102.42857142857142</ele><time>2026-04-15T19:08:47.308Z</time></trkpt><trkpt lat="40.911255" lon="14.2358817"><ele>102.28571428571429</ele><time>2026-04-15T19:08:48.308Z</time></trkpt><trkpt lat="40.9113017" lon="14.2359467"><ele>102.14285714285714</ele><time>2026-04-15T19:08:49.308Z</time></trkpt><trkpt lat="40.9113567" lon="14.235995"><ele>102.0</ele><time>2026-04-15T19:08:50.307Z</time></trkpt><trkpt lat="40.9114133" lon="14.2360317"><ele>102.0</ele><time>2026-04-15T19:08:51.31Z</time></trkpt><trkpt lat="40.9114717" lon="14.2360783"><ele>102.0</ele><time>2026-04-15T19:08:52.308Z</time></trkpt><trkpt lat="40.911525" lon="14.2361333"><ele>102.0</ele><time>2026-04-15T19:08:53.306Z</time></trkpt><trkpt lat="40.911575" lon="14.2362"><ele>102.0</ele><time>2026-04-15T19:08:54.308Z</time></trkpt><trkpt lat="40.9116233" lon="14.2362717"><ele>102.0</ele><time>2026-04-15T19:08:55.308Z</time></trkpt><trkpt lat="40.9116717" lon="14.236345"><ele>102.0</ele><time>2026-04-15T19:08:56.308Z</time></trkpt><trkpt lat="40.91172" lon="14.23642"><ele>102.0</ele><time>2026-04-15T19:08:57.306Z</time></trkpt><trkpt lat="40.9117633" lon="14.236505"><ele>102.0</ele><time>2026-04-15T19:08:58.308Z</time></trkpt><trkpt lat="40.91181" lon="14.2365867"><ele>102.0</ele><time>2026-04-15T19:08:59.309Z</time></trkpt><trkpt lat="40.91186" lon="14.2366717"><ele>102.0</ele><time>2026-04-15T19:09:00.309Z</time></trkpt><trkpt lat="40.9119117" lon="14.236755"><ele>102.0</ele><time>2026-04-15T19:09:01.307Z</time></trkpt><trkpt lat="40.9119617" lon="14.2368333"><ele>102.0</ele><time>2026-04-15T19:09:02.31Z</time></trkpt><trkpt lat="40.9120117" lon="14.23691"><ele>102.0</ele><time>2026-04-15T19:09:03.31Z</time></trkpt><trkpt lat="40.9120617" lon="14.2369883"><ele>102.0</ele><time>2026-04-15T19:09:04.309Z</time></trkpt><trkpt lat="40.9121117" lon="14.2370617"><ele>102.0</ele><time>2026-04-15T19:09:05.309Z</time></trkpt><trkpt lat="40.91216" lon="14.2371333"><ele>102.0</ele><time>2026-04-15T19:09:06.309Z</time></trkpt><trkpt lat="40.9122083" lon="14.237205"><ele>102.0</ele><time>2026-04-15T19:09:07.309Z</time></trkpt><trkpt lat="40.9122533" lon="14.2372783"><ele>102.0</ele><time>2026-04-15T19:09:08.311Z</time></trkpt><trkpt lat="40.9123" lon="14.237355"><ele>102.0</ele><time>2026-04-15T19:09:09.31Z</time></trkpt><trkpt lat="40.912345" lon="14.23743"><ele>102.0</ele><time>2026-04-15T19:09:10.308Z</time></trkpt><trkpt lat="40.9123933" lon="14.2375033"><ele>101.71428571428572</ele><time>2026-04-15T19:09:11.307Z</time></trkpt><trkpt lat="40.9124433" lon="14.2375783"><ele>101.42857142857143</ele><time>2026-04-15T19:09:12.308Z</time></trkpt><trkpt lat="40.9124917" lon="14.237655"><ele>101.14285714285714</ele><time>2026-04-15T19:09:13.307Z</time></trkpt><trkpt lat="40.91254" lon="14.2377267"><ele>100.85714285714286</ele><time>2026-04-15T19:09:14.309Z</time></trkpt><trkpt lat="40.9125833" lon="14.2377967"><ele>100.57142857142857</ele><time>2026-04-15T19:09:15.308Z</time></trkpt><trkpt lat="40.9126283" lon="14.237865"><ele>100.28571428571429</ele><time>2026-04-15T19:09:16.306Z</time></trkpt><trkpt lat="40.91267" lon="14.23793"><ele>100.0</ele><time>2026-04-15T19:09:17.307Z</time></trkpt><trkpt lat="40.9127517" lon="14.2380467"><ele>99.6</ele><time>2026-04-15T19:09:19.309Z</time></trkpt><trkpt lat="40.9128267" lon="14.2381533"><ele>99.2</ele><time>2026-04-15T19:09:21.309Z</time></trkpt><trkpt lat="40.912895" lon="14.2382533"><ele>98.80000000000001</ele><time>2026-04-15T19:09:23.309Z</time></trkpt><trkpt lat="40.91296" lon="14.2383633"><ele>98.4</ele><time>2026-04-15T19:09:25.309Z</time></trkpt><trkpt lat="40.91303" lon="14.23848"><ele>98.0</ele><time>2026-04-15T19:09:27.308Z</time></trkpt><trkpt lat="40.91311" lon="14.2385833"><ele>98.0</ele><time>2026-04-15T19:09:29.308Z</time></trkpt><trkpt lat="40.9131833" lon="14.2386917"><ele>98.0</ele><time>2026-04-15T19:09:31.31Z</time></trkpt><trkpt lat="40.9132517" lon="14.23879"><ele>98.0</ele><time>2026-04-15T19:09:33.31Z</time></trkpt><trkpt lat="40.9133183" lon="14.23889"><ele>98.0</ele><time>2026-04-15T19:09:35.309Z</time></trkpt><trkpt lat="40.91339" lon="14.2389967"><ele>98.0</ele><time>2026-04-15T19:09:37.305Z</time></trkpt><trkpt lat="40.9134667" lon="14.2391133"><ele>97.2</ele><time>2026-04-15T19:09:39.308Z</time></trkpt><trkpt lat="40.9135433" lon="14.23923"><ele>96.4</ele><time>2026-04-15T19:09:41.308Z</time></trkpt><trkpt lat="40.9136233" lon="14.2393517"><ele>95.60000000000001</ele><time>2026-04-15T19:09:43.307Z</time></trkpt><trkpt lat="40.913705" lon="14.2394783"><ele>94.80000000000001</ele><time>2026-04-15T19:09:45.31Z</time></trkpt><trkpt lat="40.9137483" lon="14.239545"><ele>94.0</ele><time>2026-04-15T19:09:46.31Z</time></trkpt><trkpt lat="40.9137933" lon="14.239615"><ele>94.0</ele><time>2026-04-15T19:09:47.308Z</time></trkpt><trkpt lat="40.9138383" lon="14.239685"><ele>94.0</ele><time>2026-04-15T19:09:48.308Z</time></trkpt><trkpt lat="40.9138833" lon="14.2397583"><ele>94.0</ele><time>2026-04-15T19:09:49.308Z</time></trkpt><trkpt lat="40.91393" lon="14.2398317"><ele>94.0</ele><time>2026-04-15T19:09:50.309Z</time></trkpt><trkpt lat="40.9139767" lon="14.2399"><ele>94.0</ele><time>2026-04-15T19:09:51.308Z</time></trkpt><trkpt lat="40.914025" lon="14.23997"><ele>94.0</ele><time>2026-04-15T19:09:52.308Z</time></trkpt><trkpt lat="40.9140717" lon="14.2400383"><ele>94.0</ele><time>2026-04-15T19:09:53.309Z</time></trkpt><trkpt lat="40.9141183" lon="14.2401067"><ele>93.85714285714286</ele><time>2026-04-15T19:09:54.311Z</time></trkpt><trkpt lat="40.9141667" lon="14.2401783"><ele>93.71428571428571</ele><time>2026-04-15T19:09:55.31Z</time></trkpt><trkpt lat="40.9142133" lon="14.240245"><ele>93.57142857142858</ele><time>2026-04-15T19:09:56.309Z</time></trkpt><trkpt lat="40.9142583" lon="14.2403117"><ele>93.42857142857143</ele><time>2026-04-15T19:09:57.31Z</time></trkpt><trkpt lat="40.914305" lon="14.2403833"><ele>93.28571428571429</ele><time>2026-04-15T19:09:58.309Z</time></trkpt><trkpt lat="40.9143533" lon="14.2404583"><ele>93.14285714285715</ele><time>2026-04-15T19:09:59.31Z</time></trkpt><trkpt lat="40.9144" lon="14.2405417"><ele>93.0</ele><time>2026-04-15T19:10:00.31Z</time></trkpt><trkpt lat="40.914445" lon="14.240625"><ele>93.0</ele><time>2026-04-15T19:10:01.31Z</time></trkpt><trkpt lat="40.9144867" lon="14.2407133"><ele>93.0</ele><time>2026-04-15T19:10:02.308Z</time></trkpt><trkpt lat="40.91453" lon="14.240805"><ele>93.0</ele><time>2026-04-15T19:10:03.31Z</time></trkpt><trkpt lat="40.9145717" lon="14.2409"><ele>93.0</ele><time>2026-04-15T19:10:04.309Z</time></trkpt><trkpt lat="40.91461" lon="14.240995"><ele>93.0</ele><time>2026-04-15T19:10:05.309Z</time></trkpt><trkpt lat="40.9146467" lon="14.2410967"><ele>93.0</ele><time>2026-04-15T19:10:06.31Z</time></trkpt><trkpt lat="40.9146817" lon="14.2412017"><ele>93.0</ele><time>2026-04-15T19:10:07.308Z</time></trkpt><trkpt lat="40.914715" lon="14.241305"><ele>93.0</ele><time>2026-04-15T19:10:08.308Z</time></trkpt><trkpt lat="40.914745" lon="14.2414117"><ele>93.0</ele><time>2026-04-15T19:10:09.308Z</time></trkpt><trkpt lat="40.9147733" lon="14.2415217"><ele>93.0</ele><time>2026-04-15T19:10:10.31Z</time></trkpt><trkpt lat="40.9148017" lon="14.24164"><ele>93.0</ele><time>2026-04-15T19:10:11.307Z</time></trkpt><trkpt lat="40.9148267" lon="14.241755"><ele>93.0</ele><time>2026-04-15T19:10:12.311Z</time></trkpt><trkpt lat="40.9148517" lon="14.2418717"><ele>92.83333333333333</ele><time>2026-04-15T19:10:13.308Z</time></trkpt><trkpt lat="40.91487" lon="14.2419883"><ele>92.66666666666667</ele><time>2026-04-15T19:10:14.311Z</time></trkpt><trkpt lat="40.9148867" lon="14.242105"><ele>92.5</ele><time>2026-04-15T19:10:15.309Z</time></trkpt><trkpt lat="40.9149017" lon="14.2422233"><ele>92.33333333333334</ele><time>2026-04-15T19:10:16.309Z</time></trkpt><trkpt lat="40.9149167" lon="14.2423383"><ele>92.16666666666667</ele><time>2026-04-15T19:10:17.307Z</time></trkpt><trkpt lat="40.91493" lon="14.2424567"><ele>92.0</ele><time>2026-04-15T19:10:18.308Z</time></trkpt><trkpt lat="40.9149433" lon="14.2425733"><ele>91.83333333333334</ele><time>2026-04-15T19:10:19.307Z</time></trkpt><trkpt lat="40.914955" lon="14.2426917"><ele>91.66666666666667</ele><time>2026-04-15T19:10:20.308Z</time></trkpt><trkpt lat="40.914965" lon="14.2428067"><ele>91.5</ele><time>2026-04-15T19:10:21.308Z</time></trkpt><trkpt lat="40.9149717" lon="14.242925"><ele>91.33333333333333</ele><time>2026-04-15T19:10:22.307Z</time></trkpt><trkpt lat="40.9149767" lon="14.24304"><ele>91.16666666666666</ele><time>2026-04-15T19:10:23.308Z</time></trkpt><trkpt lat="40.9149817" lon="14.2431533"><ele>91.0</ele><time>2026-04-15T19:10:24.31Z</time></trkpt><trkpt lat="40.9149817" lon="14.2432683"><ele>90.66666666666666</ele><time>2026-04-15T19:10:25.309Z</time></trkpt><trkpt lat="40.9149833" lon="14.243385"><ele>90.33333333333333</ele><time>2026-04-15T19:10:26.31Z</time></trkpt><trkpt lat="40.9149817" lon="14.2434967"><ele>90.0</ele><time>2026-04-15T19:10:27.308Z</time></trkpt><trkpt lat="40.9149767" lon="14.2436067"><ele>89.66666666666667</ele><time>2026-04-15T19:10:28.307Z</time></trkpt><trkpt lat="40.9149733" lon="14.2437233"><ele>89.33333333333334</ele><time>2026-04-15T19:10:29.309Z</time></trkpt><trkpt lat="40.9149667" lon="14.243835"><ele>89.0</ele><time>2026-04-15T19:10:30.309Z</time></trkpt><trkpt lat="40.9149567" lon="14.243945"><ele>88.83333333333334</ele><time>2026-04-15T19:10:31.31Z</time></trkpt><trkpt lat="40.9149433" lon="14.2440583"><ele>88.66666666666667</ele><time>2026-04-15T19:10:32.311Z</time></trkpt><trkpt lat="40.91493" lon="14.2441717"><ele>88.5</ele><time>2026-04-15T19:10:33.31Z</time></trkpt><trkpt lat="40.914915" lon="14.2442833"><ele>88.33333333333333</ele><time>2026-04-15T19:10:34.31Z</time></trkpt><trkpt lat="40.9148983" lon="14.2443933"><ele>88.16666666666666</ele><time>2026-04-15T19:10:35.308Z</time></trkpt><trkpt lat="40.9148767" lon="14.244505"><ele>88.0</ele><time>2026-04-15T19:10:36.31Z</time></trkpt><trkpt lat="40.9148533" lon="14.244615"><ele>88.0</ele><time>2026-04-15T19:10:37.308Z</time></trkpt><trkpt lat="40.914825" lon="14.2447267"><ele>88.0</ele><time>2026-04-15T19:10:38.31Z</time></trkpt><trkpt lat="40.9147967" lon="14.2448333"><ele>88.0</ele><time>2026-04-15T19:10:39.309Z</time></trkpt><trkpt lat="40.9147683" lon="14.2449383"><ele>88.0</ele><time>2026-04-15T19:10:40.309Z</time></trkpt><trkpt lat="40.91474" lon="14.245045"><ele>88.0</ele><time>2026-04-15T19:10:41.31Z</time></trkpt><trkpt lat="40.91471" lon="14.2451467"><ele>88.0</ele><time>2026-04-15T19:10:42.307Z</time></trkpt><trkpt lat="40.914675" lon="14.2452483"><ele>88.0</ele><time>2026-04-15T19:10:43.308Z</time></trkpt><trkpt lat="40.9146433" lon="14.24535"><ele>88.0</ele><time>2026-04-15T19:10:44.307Z</time></trkpt><trkpt lat="40.9146083" lon="14.2454467"><ele>88.0</ele><time>2026-04-15T19:10:45.31Z</time></trkpt><trkpt lat="40.9145683" lon="14.2455417"><ele>88.0</ele><time>2026-04-15T19:10:46.31Z</time></trkpt><trkpt lat="40.9145283" lon="14.2456383"><ele>88.0</ele><time>2026-04-15T19:10:47.309Z</time></trkpt><trkpt lat="40.91449" lon="14.2457317"><ele>88.0</ele><time>2026-04-15T19:10:48.309Z</time></trkpt><trkpt lat="40.9144517" lon="14.2458283"><ele>88.0</ele><time>2026-04-15T19:10:49.309Z</time></trkpt><trkpt lat="40.9144117" lon="14.2459267"><ele>88.0</ele><time>2026-04-15T19:10:50.311Z</time></trkpt><trkpt lat="40.914375" lon="14.24602"><ele>88.0</ele><time>2026-04-15T19:10:51.308Z</time></trkpt><trkpt lat="40.9143267" lon="14.24611"><ele>88.0</ele><time>2026-04-15T19:10:52.31Z</time></trkpt><trkpt lat="40.9142833" lon="14.246195"><ele>88.0</ele><time>2026-04-15T19:10:53.307Z</time></trkpt><trkpt lat="40.9142367" lon="14.2462733"><ele>88.0</ele><time>2026-04-15T19:10:54.311Z</time></trkpt><trkpt lat="40.9141883" lon="14.2463533"><ele>88.16666666666666</ele><time>2026-04-15T19:10:55.31Z</time></trkpt><trkpt lat="40.9141383" lon="14.24643"><ele>88.33333333333333</ele><time>2026-04-15T19:10:56.311Z</time></trkpt><trkpt lat="40.914085" lon="14.2465117"><ele>88.5</ele><time>2026-04-15T19:10:57.31Z</time></trkpt><trkpt lat="40.91403" lon="14.2465917"><ele>88.66666666666667</ele><time>2026-04-15T19:10:58.31Z</time></trkpt><trkpt lat="40.91398" lon="14.2466717"><ele>88.83333333333334</ele><time>2026-04-15T19:10:59.308Z</time></trkpt><trkpt lat="40.9139283" lon="14.2467467"><ele>89.0</ele><time>2026-04-15T19:11:00.307Z</time></trkpt><trkpt lat="40.91387" lon="14.24682"><ele>89.33333333333334</ele><time>2026-04-15T19:11:01.311Z</time></trkpt><trkpt lat="40.9138117" lon="14.2468967"><ele>89.66666666666667</ele><time>2026-04-15T19:11:02.31Z</time></trkpt><trkpt lat="40.913755" lon="14.2469733"><ele>90.0</ele><time>2026-04-15T19:11:03.307Z</time></trkpt><trkpt lat="40.9136967" lon="14.24705"><ele>90.33333333333333</ele><time>2026-04-15T19:11:04.308Z</time></trkpt><trkpt lat="40.913635" lon="14.2471283"><ele>90.66666666666666</ele><time>2026-04-15T19:11:05.307Z</time></trkpt><trkpt lat="40.9135767" lon="14.247205"><ele>91.0</ele><time>2026-04-15T19:11:06.307Z</time></trkpt><trkpt lat="40.91352" lon="14.2472817"><ele>91.0</ele><time>2026-04-15T19:11:07.307Z</time></trkpt><trkpt lat="40.9134633" lon="14.247355"><ele>91.0</ele><time>2026-04-15T19:11:08.311Z</time></trkpt><trkpt lat="40.9134067" lon="14.24743"><ele>91.0</ele><time>2026-04-15T19:11:09.31Z</time></trkpt><trkpt lat="40.9133567" lon="14.2475017"><ele>91.0</ele><time>2026-04-15T19:11:10.309Z</time></trkpt><trkpt lat="40.9133033" lon="14.24757"><ele>91.0</ele><time>2026-04-15T19:11:11.308Z</time></trkpt><trkpt lat="40.913245" lon="14.247635"><ele>91.0</ele><time>2026-04-15T19:11:12.31Z</time></trkpt><trkpt lat="40.913185" lon="14.2476983"><ele>91.0</ele><time>2026-04-15T19:11:13.31Z</time></trkpt><trkpt lat="40.9131217" lon="14.2477617"><ele>91.0</ele><time>2026-04-15T19:11:14.31Z</time></trkpt><trkpt lat="40.9130617" lon="14.2478233"><ele>91.0</ele><time>2026-04-15T19:11:15.309Z</time></trkpt><trkpt lat="40.9130017" lon="14.247885"><ele>91.0</ele><time>2026-04-15T19:11:16.31Z</time></trkpt><trkpt lat="40.9129433" lon="14.2479467"><ele>91.0</ele><time>2026-04-15T19:11:17.305Z</time></trkpt><trkpt lat="40.912885" lon="14.24801"><ele>91.0</ele><time>2026-04-15T19:11:18.307Z</time></trkpt><trkpt lat="40.91283" lon="14.2480767"><ele>91.33333333333333</ele><time>2026-04-15T19:11:19.308Z</time></trkpt><trkpt lat="40.9127733" lon="14.2481433"><ele>91.66666666666666</ele><time>2026-04-15T19:11:20.307Z</time></trkpt><trkpt lat="40.9127183" lon="14.24821"><ele>92.0</ele><time>2026-04-15T19:11:21.307Z</time></trkpt><trkpt lat="40.9126633" lon="14.2482767"><ele>92.33333333333333</ele><time>2026-04-15T19:11:22.309Z</time></trkpt><trkpt lat="40.9126083" lon="14.248345"><ele>92.66666666666667</ele><time>2026-04-15T19:11:23.307Z</time></trkpt><trkpt lat="40.9125533" lon="14.2484133"><ele>93.0</ele><time>2026-04-15T19:11:24.311Z</time></trkpt><trkpt lat="40.9124967" lon="14.248485"><ele>93.16666666666667</ele><time>2026-04-15T19:11:25.31Z</time></trkpt><trkpt lat="40.9124417" lon="14.248555"><ele>93.33333333333333</ele><time>2026-04-15T19:11:26.31Z</time></trkpt><trkpt lat="40.9123867" lon="14.2486267"><ele>93.5</ele><time>2026-04-15T19:11:27.307Z</time></trkpt><trkpt lat="40.9123283" lon="14.2487033"><ele>93.66666666666666</ele><time>2026-04-15T19:11:28.31Z</time></trkpt><trkpt lat="40.9122717" lon="14.2487817"><ele>93.83333333333333</ele><time>2026-04-15T19:11:29.309Z</time></trkpt><trkpt lat="40.912215" lon="14.2488567"><ele>94.0</ele><time>2026-04-15T19:11:30.307Z</time></trkpt><trkpt lat="40.91216" lon="14.2489317"><ele>94.0</ele><time>2026-04-15T19:11:31.309Z</time></trkpt><trkpt lat="40.9121033" lon="14.24901"><ele>94.0</ele><time>2026-04-15T19:11:32.309Z</time></trkpt><trkpt lat="40.912045" lon="14.2490867"><ele>94.0</ele><time>2026-04-15T19:11:33.31Z</time></trkpt><trkpt lat="40.9119883" lon="14.2491617"><ele>94.0</ele><time>2026-04-15T19:11:34.31Z</time></trkpt><trkpt lat="40.9119317" lon="14.2492483"><ele>94.0</ele><time>2026-04-15T19:11:35.31Z</time></trkpt><trkpt lat="40.9118717" lon="14.24932"><ele>94.0</ele><time>2026-04-15T19:11:36.309Z</time></trkpt><trkpt lat="40.9118167" lon="14.2494"><ele>94.0</ele><time>2026-04-15T19:11:37.309Z</time></trkpt><trkpt lat="40.9117633" lon="14.249485"><ele>94.0</ele><time>2026-04-15T19:11:38.31Z</time></trkpt><trkpt lat="40.9117117" lon="14.249565"><ele>94.0</ele><time>2026-04-15T19:11:39.309Z</time></trkpt><trkpt lat="40.9116567" lon="14.2496483"><ele>94.0</ele><time>2026-04-15T19:11:40.309Z</time></trkpt><trkpt lat="40.9116033" lon="14.2497283"><ele>94.0</ele><time>2026-04-15T19:11:41.31Z</time></trkpt><trkpt lat="40.9115533" lon="14.2498033"><ele>94.0</ele><time>2026-04-15T19:11:42.31Z</time></trkpt><trkpt lat="40.911505" lon="14.2498817"><ele>93.33333333333333</ele><time>2026-04-15T19:11:43.31Z</time></trkpt><trkpt lat="40.9114533" lon="14.24996"><ele>92.66666666666666</ele><time>2026-04-15T19:11:44.31Z</time></trkpt><trkpt lat="40.9114033" lon="14.2500317"><ele>92.0</ele><time>2026-04-15T19:11:45.31Z</time></trkpt><trkpt lat="40.911355" lon="14.25011"><ele>91.33333333333333</ele><time>2026-04-15T19:11:46.31Z</time></trkpt><trkpt lat="40.9113067" lon="14.2501917"><ele>90.66666666666667</ele><time>2026-04-15T19:11:47.31Z</time></trkpt><trkpt lat="40.9112583" lon="14.25027"><ele>90.0</ele><time>2026-04-15T19:11:48.308Z</time></trkpt><trkpt lat="40.9112067" lon="14.2503483"><ele>90.0</ele><time>2026-04-15T19:11:49.31Z</time></trkpt><trkpt lat="40.911155" lon="14.2504333"><ele>90.0</ele><time>2026-04-15T19:11:50.311Z</time></trkpt><trkpt lat="40.9111033" lon="14.2505117"><ele>90.0</ele><time>2026-04-15T19:11:51.307Z</time></trkpt><trkpt lat="40.9110567" lon="14.25059"><ele>90.0</ele><time>2026-04-15T19:11:52.309Z</time></trkpt><trkpt lat="40.9110133" lon="14.2506717"><ele>90.0</ele><time>2026-04-15T19:11:53.308Z</time></trkpt><trkpt lat="40.910965" lon="14.2507567"><ele>90.0</ele><time>2026-04-15T19:11:54.311Z</time></trkpt><trkpt lat="40.9109183" lon="14.250845"><ele>90.16666666666667</ele><time>2026-04-15T19:11:55.31Z</time></trkpt><trkpt lat="40.9108783" lon="14.250935"><ele>90.33333333333333</ele><time>2026-04-15T19:11:56.311Z</time></trkpt><trkpt lat="40.9108367" lon="14.251025"><ele>90.5</ele><time>2026-04-15T19:11:57.31Z</time></trkpt><trkpt lat="40.9107933" lon="14.2511167"><ele>90.66666666666666</ele><time>2026-04-15T19:11:58.31Z</time></trkpt><trkpt lat="40.9107517" lon="14.25121"><ele>90.83333333333333</ele><time>2026-04-15T19:11:59.31Z</time></trkpt><trkpt lat="40.910715" lon="14.2513017"><ele>91.0</ele><time>2026-04-15T19:12:00.31Z</time></trkpt><trkpt lat="40.9106767" lon="14.25139"><ele>90.66666666666666</ele><time>2026-04-15T19:12:01.311Z</time></trkpt><trkpt lat="40.910635" lon="14.2514767"><ele>90.33333333333333</ele><time>2026-04-15T19:12:02.31Z</time></trkpt><trkpt lat="40.9105933" lon="14.2515617"><ele>90.0</ele><time>2026-04-15T19:12:03.31Z</time></trkpt><trkpt lat="40.9105517" lon="14.2516467"><ele>89.66666666666667</ele><time>2026-04-15T19:12:04.31Z</time></trkpt><trkpt lat="40.9105067" lon="14.25173"><ele>89.33333333333334</ele><time>2026-04-15T19:12:05.31Z</time></trkpt><trkpt lat="40.9104617" lon="14.25181"><ele>89.0</ele><time>2026-04-15T19:12:06.31Z</time></trkpt><trkpt lat="40.910415" lon="14.2518867"><ele>88.99999999999999</ele><time>2026-04-15T19:12:07.31Z</time></trkpt><trkpt lat="40.910375" lon="14.2519617"><ele>89.0</ele><time>2026-04-15T19:12:08.31Z</time></trkpt><trkpt lat="40.9103317" lon="14.252035"><ele>89.0</ele><time>2026-04-15T19:12:09.31Z</time></trkpt><trkpt lat="40.9102867" lon="14.2521067"><ele>89.0</ele><time>2026-04-15T19:12:10.309Z</time></trkpt><trkpt lat="40.9102433" lon="14.252175"><ele>89.0</ele><time>2026-04-15T19:12:11.31Z</time></trkpt><trkpt lat="40.9102" lon="14.2522433"><ele>88.99999999999999</ele><time>2026-04-15T19:12:12.308Z</time></trkpt><trkpt lat="40.910155" lon="14.2523117"><ele>89.0</ele><time>2026-04-15T19:12:13.308Z</time></trkpt><trkpt lat="40.9101083" lon="14.2523783"><ele>89.14285714285714</ele><time>2026-04-15T19:12:14.308Z</time></trkpt><trkpt lat="40.91006" lon="14.25245"><ele>89.28571428571428</ele><time>2026-04-15T19:12:15.307Z</time></trkpt><trkpt lat="40.910015" lon="14.25252"><ele>89.42857142857142</ele><time>2026-04-15T19:12:16.31Z</time></trkpt><trkpt lat="40.9099683" lon="14.2525917"><ele>89.57142857142857</ele><time>2026-04-15T19:12:17.306Z</time></trkpt><trkpt lat="40.9099217" lon="14.2526617"><ele>89.71428571428572</ele><time>2026-04-15T19:12:18.309Z</time></trkpt><trkpt lat="40.909875" lon="14.2527317"><ele>89.85714285714285</ele><time>2026-04-15T19:12:19.308Z</time></trkpt><trkpt lat="40.90983" lon="14.2528"><ele>90.0</ele><time>2026-04-15T19:12:20.306Z</time></trkpt><trkpt lat="40.9097867" lon="14.25287"><ele>90.0</ele><time>2026-04-15T19:12:21.311Z</time></trkpt><trkpt lat="40.9097467" lon="14.2529367"><ele>90.0</ele><time>2026-04-15T19:12:22.309Z</time></trkpt><trkpt lat="40.9097033" lon="14.2530067"><ele>90.0</ele><time>2026-04-15T19:12:23.307Z</time></trkpt><trkpt lat="40.9096583" lon="14.2530767"><ele>90.0</ele><time>2026-04-15T19:12:24.309Z</time></trkpt><trkpt lat="40.9096067" lon="14.2531483"><ele>90.0</ele><time>2026-04-15T19:12:25.308Z</time></trkpt><trkpt lat="40.9095583" lon="14.25322"><ele>90.0</ele><time>2026-04-15T19:12:26.311Z</time></trkpt><trkpt lat="40.9095083" lon="14.2532883"><ele>90.0</ele><time>2026-04-15T19:12:27.307Z</time></trkpt><trkpt lat="40.90946" lon="14.25336"><ele>90.0</ele><time>2026-04-15T19:12:28.308Z</time></trkpt><trkpt lat="40.9094117" lon="14.2534333"><ele>90.0</ele><time>2026-04-15T19:12:29.307Z</time></trkpt><trkpt lat="40.90936" lon="14.253505"><ele>90.0</ele><time>2026-04-15T19:12:30.312Z</time></trkpt><trkpt lat="40.90931" lon="14.2535767"><ele>90.0</ele><time>2026-04-15T19:12:31.31Z</time></trkpt><trkpt lat="40.9092617" lon="14.2536517"><ele>90.0</ele><time>2026-04-15T19:12:32.31Z</time></trkpt><trkpt lat="40.9092167" lon="14.253725"><ele>90.0</ele><time>2026-04-15T19:12:33.31Z</time></trkpt><trkpt lat="40.90917" lon="14.2538017"><ele>90.0</ele><time>2026-04-15T19:12:34.31Z</time></trkpt><trkpt lat="40.9091183" lon="14.2538767"><ele>90.0</ele><time>2026-04-15T19:12:35.31Z</time></trkpt><trkpt lat="40.9090683" lon="14.2539467"><ele>90.0</ele><time>2026-04-15T19:12:36.31Z</time></trkpt><trkpt lat="40.9090183" lon="14.25402"><ele>90.0</ele><time>2026-04-15T19:12:37.31Z</time></trkpt><trkpt lat="40.9089667" lon="14.2540933"><ele>90.0</ele><time>2026-04-15T19:12:38.311Z</time></trkpt><trkpt lat="40.9089167" lon="14.2541683"><ele>90.0</ele><time>2026-04-15T19:12:39.309Z</time></trkpt><trkpt lat="40.90887" lon="14.2542417"><ele>90.0</ele><time>2026-04-15T19:12:40.31Z</time></trkpt><trkpt lat="40.9088233" lon="14.2543133"><ele>90.0</ele><time>2026-04-15T19:12:41.309Z</time></trkpt><trkpt lat="40.908775" lon="14.2543867"><ele>89.85714285714285</ele><time>2026-04-15T19:12:42.31Z</time></trkpt><trkpt lat="40.9087267" lon="14.2544617"><ele>89.71428571428572</ele><time>2026-04-15T19:12:43.309Z</time></trkpt><trkpt lat="40.9086783" lon="14.2545333"><ele>89.57142857142857</ele><time>2026-04-15T19:12:44.312Z</time></trkpt><trkpt lat="40.9086283" lon="14.2546067"><ele>89.42857142857142</ele><time>2026-04-15T19:12:45.307Z</time></trkpt><trkpt lat="40.9085783" lon="14.2546783"><ele>89.28571428571428</ele><time>2026-04-15T19:12:46.31Z</time></trkpt><trkpt lat="40.90853" lon="14.25475"><ele>89.14285714285714</ele><time>2026-04-15T19:12:47.307Z</time></trkpt><trkpt lat="40.90848" lon="14.2548233"><ele>89.0</ele><time>2026-04-15T19:12:48.31Z</time></trkpt><trkpt lat="40.9084317" lon="14.2549"><ele>88.83333333333334</ele><time>2026-04-15T19:12:49.308Z</time></trkpt><trkpt lat="40.9083833" lon="14.254975"><ele>88.66666666666667</ele><time>2026-04-15T19:12:50.309Z</time></trkpt><trkpt lat="40.90833" lon="14.2550517"><ele>88.5</ele><time>2026-04-15T19:12:51.308Z</time></trkpt><trkpt lat="40.90828" lon="14.25513"><ele>88.33333333333333</ele><time>2026-04-15T19:12:52.311Z</time></trkpt><trkpt lat="40.90823" lon="14.2552067"><ele>88.16666666666666</ele><time>2026-04-15T19:12:53.308Z</time></trkpt><trkpt lat="40.9081783" lon="14.255285"><ele>88.0</ele><time>2026-04-15T19:12:54.309Z</time></trkpt><trkpt lat="40.908125" lon="14.2553617"><ele>88.0</ele><time>2026-04-15T19:12:55.31Z</time></trkpt><trkpt lat="40.908075" lon="14.2554333"><ele>88.0</ele><time>2026-04-15T19:12:56.311Z</time></trkpt><trkpt lat="40.9080283" lon="14.2555067"><ele>88.0</ele><time>2026-04-15T19:12:57.31Z</time></trkpt><trkpt lat="40.9079817" lon="14.2555817"><ele>88.0</ele><time>2026-04-15T19:12:58.308Z</time></trkpt><trkpt lat="40.9079333" lon="14.255655"><ele>88.0</ele><time>2026-04-15T19:12:59.309Z</time></trkpt><trkpt lat="40.9078833" lon="14.255725"><ele>88.0</ele><time>2026-04-15T19:13:00.311Z</time></trkpt><trkpt lat="40.9078367" lon="14.2557967"><ele>88.0</ele><time>2026-04-15T19:13:01.307Z</time></trkpt><trkpt lat="40.90779" lon="14.2558683"><ele>88.0</ele><time>2026-04-15T19:13:02.311Z</time></trkpt><trkpt lat="40.9077417" lon="14.2559433"><ele>88.0</ele><time>2026-04-15T19:13:03.309Z</time></trkpt><trkpt lat="40.9076883" lon="14.2560183"><ele>88.0</ele><time>2026-04-15T19:13:04.31Z</time></trkpt><trkpt lat="40.9076333" lon="14.256095"><ele>88.0</ele><time>2026-04-15T19:13:05.31Z</time></trkpt><trkpt lat="40.90758" lon="14.25617"><ele>88.0</ele><time>2026-04-15T19:13:06.309Z</time></trkpt><trkpt lat="40.907525" lon="14.256245"><ele>88.0</ele><time>2026-04-15T19:13:07.31Z</time></trkpt><trkpt lat="40.907475" lon="14.25632"><ele>88.16666666666666</ele><time>2026-04-15T19:13:08.31Z</time></trkpt><trkpt lat="40.907425" lon="14.2563983"><ele>88.33333333333333</ele><time>2026-04-15T19:13:09.31Z</time></trkpt><trkpt lat="40.9073717" lon="14.2564717"><ele>88.5</ele><time>2026-04-15T19:13:10.31Z</time></trkpt><trkpt lat="40.9073217" lon="14.2565467"><ele>88.66666666666667</ele><time>2026-04-15T19:13:11.309Z</time></trkpt><trkpt lat="40.9072717" lon="14.2566183"><ele>88.83333333333334</ele><time>2026-04-15T19:13:12.311Z</time></trkpt><trkpt lat="40.9072217" lon="14.2566917"><ele>89.0</ele><time>2026-04-15T19:13:13.31Z</time></trkpt><trkpt lat="40.9071717" lon="14.256765"><ele>88.99999999999999</ele><time>2026-04-15T19:13:14.312Z</time></trkpt><trkpt lat="40.9071233" lon="14.256835"><ele>89.0</ele><time>2026-04-15T19:13:15.307Z</time></trkpt><trkpt lat="40.90707" lon="14.2569083"><ele>89.0</ele><time>2026-04-15T19:13:16.307Z</time></trkpt><trkpt lat="40.9070217" lon="14.25698"><ele>89.0</ele><time>2026-04-15T19:13:17.308Z</time></trkpt><trkpt lat="40.9069717" lon="14.2570533"><ele>89.0</ele><time>2026-04-15T19:13:18.308Z</time></trkpt><trkpt lat="40.90692" lon="14.2571283"><ele>88.99999999999999</ele><time>2026-04-15T19:13:19.307Z</time></trkpt><trkpt lat="40.9068667" lon="14.2572017"><ele>89.0</ele><time>2026-04-15T19:13:20.309Z</time></trkpt><trkpt lat="40.9068133" lon="14.257275"><ele>88.99999999999999</ele><time>2026-04-15T19:13:21.308Z</time></trkpt><trkpt lat="40.906765" lon="14.2573483"><ele>89.0</ele><time>2026-04-15T19:13:22.309Z</time></trkpt><trkpt lat="40.906715" lon="14.25742"><ele>89.0</ele><time>2026-04-15T19:13:23.309Z</time></trkpt><trkpt lat="40.9066617" lon="14.2574917"><ele>89.0</ele><time>2026-04-15T19:13:24.309Z</time></trkpt><trkpt lat="40.9066117" lon="14.257565"><ele>89.0</ele><time>2026-04-15T19:13:25.309Z</time></trkpt><trkpt lat="40.906565" lon="14.2576367"><ele>88.99999999999999</ele><time>2026-04-15T19:13:26.309Z</time></trkpt><trkpt lat="40.9065133" lon="14.25771"><ele>89.0</ele><time>2026-04-15T19:13:27.31Z</time></trkpt><trkpt lat="40.906465" lon="14.2577867"><ele>88.99999999999999</ele><time>2026-04-15T19:13:28.309Z</time></trkpt><trkpt lat="40.9064133" lon="14.25786"><ele>89.0</ele><time>2026-04-15T19:13:29.309Z</time></trkpt><trkpt lat="40.9063633" lon="14.257935"><ele>89.0</ele><time>2026-04-15T19:13:30.309Z</time></trkpt><trkpt lat="40.9063117" lon="14.25801"><ele>89.0</ele><time>2026-04-15T19:13:31.31Z</time></trkpt><trkpt lat="40.9062633" lon="14.2580817"><ele>89.0</ele><time>2026-04-15T19:13:32.312Z</time></trkpt><trkpt lat="40.9062133" lon="14.2581533"><ele>88.99999999999999</ele><time>2026-04-15T19:13:33.31Z</time></trkpt><trkpt lat="40.9061667" lon="14.258225"><ele>89.0</ele><time>2026-04-15T19:13:34.309Z</time></trkpt><trkpt lat="40.9061117" lon="14.258295"><ele>89.16666666666667</ele><time>2026-04-15T19:13:35.31Z</time></trkpt><trkpt lat="40.90606" lon="14.2583667"><ele>89.33333333333334</ele><time>2026-04-15T19:13:36.308Z</time></trkpt><trkpt lat="40.9060067" lon="14.25844"><ele>89.5</ele><time>2026-04-15T19:13:37.308Z</time></trkpt><trkpt lat="40.90595" lon="14.25851"><ele>89.66666666666667</ele><time>2026-04-15T19:13:38.309Z</time></trkpt><trkpt lat="40.9058933" lon="14.25858"><ele>89.83333333333333</ele><time>2026-04-15T19:13:39.307Z</time></trkpt><trkpt lat="40.9058383" lon="14.2586467"><ele>90.0</ele><time>2026-04-15T19:13:40.308Z</time></trkpt><trkpt lat="40.9057817" lon="14.25871"><ele>90.0</ele><time>2026-04-15T19:13:41.308Z</time></trkpt><trkpt lat="40.905725" lon="14.258775"><ele>90.0</ele><time>2026-04-15T19:13:42.308Z</time></trkpt><trkpt lat="40.9056717" lon="14.2588367"><ele>90.0</ele><time>2026-04-15T19:13:43.307Z</time></trkpt><trkpt lat="40.905615" lon="14.2589033"><ele>90.0</ele><time>2026-04-15T19:13:44.308Z</time></trkpt><trkpt lat="40.90556" lon="14.2589667"><ele>90.0</ele><time>2026-04-15T19:13:45.31Z</time></trkpt><trkpt lat="40.9055067" lon="14.2590333"><ele>90.0</ele><time>2026-04-15T19:13:46.307Z</time></trkpt><trkpt lat="40.905455" lon="14.2590967"><ele>90.0</ele><time>2026-04-15T19:13:47.308Z</time></trkpt><trkpt lat="40.9054067" lon="14.2591617"><ele>90.14285714285714</ele><time>2026-04-15T19:13:48.311Z</time></trkpt><trkpt lat="40.905355" lon="14.2592283"><ele>90.28571428571429</ele><time>2026-04-15T19:13:49.309Z</time></trkpt><trkpt lat="40.9053017" lon="14.2592983"><ele>90.42857142857143</ele><time>2026-04-15T19:13:50.308Z</time></trkpt><trkpt lat="40.90525" lon="14.2593683"><ele>90.57142857142857</ele><time>2026-04-15T19:13:51.307Z</time></trkpt><trkpt lat="40.9052017" lon="14.2594367"><ele>90.71428571428572</ele><time>2026-04-15T19:13:52.308Z</time></trkpt><trkpt lat="40.9051533" lon="14.2595067"><ele>90.85714285714286</ele><time>2026-04-15T19:13:53.31Z</time></trkpt><trkpt lat="40.905105" lon="14.25958"><ele>91.0</ele><time>2026-04-15T19:13:54.307Z</time></trkpt><trkpt lat="40.9050567" lon="14.2596533"><ele>91.0</ele><time>2026-04-15T19:13:55.31Z</time></trkpt><trkpt lat="40.9050067" lon="14.25973"><ele>91.0</ele><time>2026-04-15T19:13:56.309Z</time></trkpt><trkpt lat="40.9049533" lon="14.2598083"><ele>91.0</ele><time>2026-04-15T19:13:57.31Z</time></trkpt><trkpt lat="40.9049067" lon="14.2598817"><ele>91.0</ele><time>2026-04-15T19:13:58.31Z</time></trkpt><trkpt lat="40.9048583" lon="14.259955"><ele>91.0</ele><time>2026-04-15T19:13:59.31Z</time></trkpt><trkpt lat="40.90481" lon="14.2600267"><ele>91.0</ele><time>2026-04-15T19:14:00.311Z</time></trkpt><trkpt lat="40.9047583" lon="14.2601"><ele>90.85714285714286</ele><time>2026-04-15T19:14:01.31Z</time></trkpt><trkpt lat="40.904705" lon="14.2601667"><ele>90.71428571428572</ele><time>2026-04-15T19:14:02.307Z</time></trkpt><trkpt lat="40.9046533" lon="14.2602333"><ele>90.57142857142857</ele><time>2026-04-15T19:14:03.31Z</time></trkpt><trkpt lat="40.904605" lon="14.2603"><ele>90.42857142857143</ele><time>2026-04-15T19:14:04.31Z</time></trkpt><trkpt lat="40.90456" lon="14.2603767"><ele>90.28571428571429</ele><time>2026-04-15T19:14:05.309Z</time></trkpt><trkpt lat="40.904515" lon="14.2604517"><ele>90.14285714285714</ele><time>2026-04-15T19:14:06.31Z</time></trkpt><trkpt lat="40.904465" lon="14.2605267"><ele>90.0</ele><time>2026-04-15T19:14:07.309Z</time></trkpt><trkpt lat="40.904415" lon="14.2606"><ele>89.85714285714285</ele><time>2026-04-15T19:14:08.312Z</time></trkpt><trkpt lat="40.9043633" lon="14.26067"><ele>89.71428571428572</ele><time>2026-04-15T19:14:09.309Z</time></trkpt><trkpt lat="40.9043117" lon="14.2607417"><ele>89.57142857142857</ele><time>2026-04-15T19:14:10.31Z</time></trkpt><trkpt lat="40.9042617" lon="14.2608133"><ele>89.42857142857142</ele><time>2026-04-15T19:14:11.311Z</time></trkpt><trkpt lat="40.90421" lon="14.2608833"><ele>89.28571428571428</ele><time>2026-04-15T19:14:12.308Z</time></trkpt><trkpt lat="40.90416" lon="14.2609483"><ele>89.14285714285714</ele><time>2026-04-15T19:14:13.31Z</time></trkpt><trkpt lat="40.90411" lon="14.261015"><ele>89.0</ele><time>2026-04-15T19:14:14.309Z</time></trkpt><trkpt lat="40.90406" lon="14.2610817"><ele>89.28571428571428</ele><time>2026-04-15T19:14:15.309Z</time></trkpt><trkpt lat="40.9040117" lon="14.261145"><ele>89.57142857142857</ele><time>2026-04-15T19:14:16.308Z</time></trkpt><trkpt lat="40.9039633" lon="14.26121"><ele>89.85714285714286</ele><time>2026-04-15T19:14:17.309Z</time></trkpt><trkpt lat="40.9039167" lon="14.2612717"><ele>90.14285714285714</ele><time>2026-04-15T19:14:18.31Z</time></trkpt><trkpt lat="40.9038717" lon="14.2613367"><ele>90.42857142857143</ele><time>2026-04-15T19:14:19.31Z</time></trkpt><trkpt lat="40.9038217" lon="14.2614017"><ele>90.71428571428571</ele><time>2026-04-15T19:14:20.311Z</time></trkpt><trkpt lat="40.9037717" lon="14.26147"><ele>91.0</ele><time>2026-04-15T19:14:21.31Z</time></trkpt><trkpt lat="40.9037183" lon="14.26154"><ele>91.16666666666666</ele><time>2026-04-15T19:14:22.31Z</time></trkpt><trkpt lat="40.9036683" lon="14.2616117"><ele>91.33333333333333</ele><time>2026-04-15T19:14:23.308Z</time></trkpt><trkpt lat="40.9036167" lon="14.2616867"><ele>91.5</ele><time>2026-04-15T19:14:24.31Z</time></trkpt><trkpt lat="40.903565" lon="14.2617617"><ele>91.66666666666667</ele><time>2026-04-15T19:14:25.31Z</time></trkpt><trkpt lat="40.903515" lon="14.2618383"><ele>91.83333333333334</ele><time>2026-04-15T19:14:26.311Z</time></trkpt><trkpt lat="40.903465" lon="14.26191"><ele>92.0</ele><time>2026-04-15T19:14:27.31Z</time></trkpt><trkpt lat="40.9034133" lon="14.2619767"><ele>91.57142857142857</ele><time>2026-04-15T19:14:28.307Z</time></trkpt><trkpt lat="40.9033583" lon="14.26204"><ele>91.14285714285714</ele><time>2026-04-15T19:14:29.308Z</time></trkpt><trkpt lat="40.903305" lon="14.2620917"><ele>90.71428571428571</ele><time>2026-04-15T19:14:30.307Z</time></trkpt><trkpt lat="40.9032467" lon="14.2621317"><ele>90.28571428571428</ele><time>2026-04-15T19:14:31.309Z</time></trkpt><trkpt lat="40.9031817" lon="14.26216"><ele>89.85714285714286</ele><time>2026-04-15T19:14:32.309Z</time></trkpt><trkpt lat="40.903115" lon="14.2621783"><ele>89.42857142857142</ele><time>2026-04-15T19:14:33.308Z</time></trkpt><trkpt lat="40.9030467" lon="14.2621917"><ele>89.0</ele><time>2026-04-15T19:14:34.308Z</time></trkpt><trkpt lat="40.9029783" lon="14.2621983"><ele>88.99999999999999</ele><time>2026-04-15T19:14:35.307Z</time></trkpt><trkpt lat="40.9029083" lon="14.262205"><ele>89.0</ele><time>2026-04-15T19:14:36.309Z</time></trkpt><trkpt lat="40.902835" lon="14.2622217"><ele>89.0</ele><time>2026-04-15T19:14:37.309Z</time></trkpt><trkpt lat="40.9027633" lon="14.2622483"><ele>89.0</ele><time>2026-04-15T19:14:38.309Z</time></trkpt><trkpt lat="40.9027017" lon="14.2622983"><ele>89.0</ele><time>2026-04-15T19:14:39.309Z</time></trkpt><trkpt lat="40.9026417" lon="14.2623617"><ele>88.99999999999999</ele><time>2026-04-15T19:14:40.309Z</time></trkpt><trkpt lat="40.902585" lon="14.2624317"><ele>89.0</ele><time>2026-04-15T19:14:41.308Z</time></trkpt><trkpt lat="40.902545" lon="14.2625"><ele>88.83333333333334</ele><time>2026-04-15T19:14:42.309Z</time></trkpt><trkpt lat="40.90251" lon="14.2625817"><ele>88.66666666666667</ele><time>2026-04-15T19:14:43.309Z</time></trkpt><trkpt lat="40.9024733" lon="14.2626717"><ele>88.5</ele><time>2026-04-15T19:14:44.308Z</time></trkpt><trkpt lat="40.9024417" lon="14.2627683"><ele>88.33333333333333</ele><time>2026-04-15T19:14:45.309Z</time></trkpt><trkpt lat="40.9024117" lon="14.26286"><ele>88.16666666666666</ele><time>2026-04-15T19:14:46.311Z</time></trkpt><trkpt lat="40.902385" lon="14.2629567"><ele>88.0</ele><time>2026-04-15T19:14:47.31Z</time></trkpt><trkpt lat="40.9023667" lon="14.263055"><ele>88.14285714285714</ele><time>2026-04-15T19:14:48.308Z</time></trkpt><trkpt lat="40.9023483" lon="14.2631567"><ele>88.28571428571428</ele><time>2026-04-15T19:14:49.309Z</time></trkpt><trkpt lat="40.90233" lon="14.26325"><ele>88.42857142857142</ele><time>2026-04-15T19:14:50.311Z</time></trkpt><trkpt lat="40.902315" lon="14.263345"><ele>88.57142857142857</ele><time>2026-04-15T19:14:51.309Z</time></trkpt><trkpt lat="40.9022967" lon="14.2634383"><ele>88.71428571428571</ele><time>2026-04-15T19:14:52.309Z</time></trkpt><trkpt lat="40.9022833" lon="14.2635333"><ele>88.85714285714285</ele><time>2026-04-15T19:14:53.309Z</time></trkpt><trkpt lat="40.90226" lon="14.26362"><ele>89.0</ele><time>2026-04-15T19:14:54.309Z</time></trkpt><trkpt lat="40.9022367" lon="14.26371"><ele>88.99999999999999</ele><time>2026-04-15T19:14:55.309Z</time></trkpt><trkpt lat="40.9022117" lon="14.2637983"><ele>89.0</ele><time>2026-04-15T19:14:56.309Z</time></trkpt><trkpt lat="40.902185" lon="14.2638833"><ele>89.0</ele><time>2026-04-15T19:14:57.309Z</time></trkpt><trkpt lat="40.9021417" lon="14.26396"><ele>89.0</ele><time>2026-04-15T19:14:58.308Z</time></trkpt><trkpt lat="40.902095" lon="14.26403"><ele>89.0</ele><time>2026-04-15T19:14:59.308Z</time></trkpt><trkpt lat="40.9020533" lon="14.2641017"><ele>88.99999999999999</ele><time>2026-04-15T19:15:00.309Z</time></trkpt><trkpt lat="40.90201" lon="14.2641767"><ele>89.0</ele><time>2026-04-15T19:15:01.309Z</time></trkpt><trkpt lat="40.9019667" lon="14.2642483"><ele>88.99999999999999</ele><time>2026-04-15T19:15:02.309Z</time></trkpt><trkpt lat="40.9019217" lon="14.26432"><ele>89.0</ele><time>2026-04-15T19:15:03.308Z</time></trkpt><trkpt lat="40.9018717" lon="14.264395"><ele>89.0</ele><time>2026-04-15T19:15:04.308Z</time></trkpt><trkpt lat="40.901825" lon="14.2644717"><ele>89.0</ele><time>2026-04-15T19:15:05.308Z</time></trkpt><trkpt lat="40.9017817" lon="14.264545"><ele>89.0</ele><time>2026-04-15T19:15:06.307Z</time></trkpt><trkpt lat="40.90174" lon="14.26462"><ele>88.99999999999999</ele><time>2026-04-15T19:15:07.308Z</time></trkpt><trkpt lat="40.9016967" lon="14.2646933"><ele>89.0</ele><time>2026-04-15T19:15:08.308Z</time></trkpt><trkpt lat="40.9016517" lon="14.2647633"><ele>89.28571428571428</ele><time>2026-04-15T19:15:09.308Z</time></trkpt><trkpt lat="40.9016083" lon="14.2648383"><ele>89.57142857142857</ele><time>2026-04-15T19:15:10.309Z</time></trkpt><trkpt lat="40.901565" lon="14.264915"><ele>89.85714285714286</ele><time>2026-04-15T19:15:11.309Z</time></trkpt><trkpt lat="40.9015217" lon="14.2649867"><ele>90.14285714285714</ele><time>2026-04-15T19:15:12.309Z</time></trkpt><trkpt lat="40.90148" lon="14.2650567"><ele>90.42857142857143</ele><time>2026-04-15T19:15:13.308Z</time></trkpt><trkpt lat="40.901435" lon="14.2651317"><ele>90.71428571428571</ele><time>2026-04-15T19:15:14.307Z</time></trkpt><trkpt lat="40.9013883" lon="14.2652033"><ele>91.0</ele><time>2026-04-15T19:15:15.308Z</time></trkpt><trkpt lat="40.9013433" lon="14.2652767"><ele>91.0</ele><time>2026-04-15T19:15:16.307Z</time></trkpt><trkpt lat="40.9012933" lon="14.2653517"><ele>91.0</ele><time>2026-04-15T19:15:17.308Z</time></trkpt><trkpt lat="40.9012467" lon="14.2654267"><ele>91.0</ele><time>2026-04-15T19:15:18.308Z</time></trkpt><trkpt lat="40.9012033" lon="14.2654983"><ele>91.0</ele><time>2026-04-15T19:15:19.307Z</time></trkpt><trkpt lat="40.901155" lon="14.26557"><ele>91.0</ele><time>2026-04-15T19:15:20.308Z</time></trkpt><trkpt lat="40.90111" lon="14.2656417"><ele>91.0</ele><time>2026-04-15T19:15:21.308Z</time></trkpt><trkpt lat="40.9010667" lon="14.2657167"><ele>91.0</ele><time>2026-04-15T19:15:22.307Z</time></trkpt><trkpt lat="40.9010233" lon="14.26579"><ele>90.85714285714286</ele><time>2026-04-15T19:15:23.307Z</time></trkpt><trkpt lat="40.9009867" lon="14.2658633"><ele>90.71428571428572</ele><time>2026-04-15T19:15:24.308Z</time></trkpt><trkpt lat="40.9009483" lon="14.265935"><ele>90.57142857142857</ele><time>2026-04-15T19:15:25.307Z</time></trkpt><trkpt lat="40.9009083" lon="14.2660067"><ele>90.42857142857143</ele><time>2026-04-15T19:15:26.309Z</time></trkpt><trkpt lat="40.9008633" lon="14.26608"><ele>90.28571428571429</ele><time>2026-04-15T19:15:27.308Z</time></trkpt><trkpt lat="40.900815" lon="14.2661567"><ele>90.14285714285714</ele><time>2026-04-15T19:15:28.308Z</time></trkpt><trkpt lat="40.9007683" lon="14.2662317"><ele>90.0</ele><time>2026-04-15T19:15:29.31Z</time></trkpt><trkpt lat="40.9007167" lon="14.2663117"><ele>89.85714285714285</ele><time>2026-04-15T19:15:30.308Z</time></trkpt><trkpt lat="40.9006683" lon="14.2663867"><ele>89.71428571428572</ele><time>2026-04-15T19:15:31.308Z</time></trkpt><trkpt lat="40.9006167" lon="14.2664567"><ele>89.57142857142857</ele><time>2026-04-15T19:15:32.307Z</time></trkpt><trkpt lat="40.900565" lon="14.26653"><ele>89.42857142857142</ele><time>2026-04-15T19:15:33.309Z</time></trkpt><trkpt lat="40.9005183" lon="14.2666017"><ele>89.28571428571428</ele><time>2026-04-15T19:15:34.308Z</time></trkpt><trkpt lat="40.900475" lon="14.2666717"><ele>89.14285714285714</ele><time>2026-04-15T19:15:35.31Z</time></trkpt><trkpt lat="40.9004317" lon="14.2667383"><ele>89.0</ele><time>2026-04-15T19:15:36.309Z</time></trkpt><trkpt lat="40.9003867" lon="14.2668067"><ele>88.99999999999999</ele><time>2026-04-15T19:15:37.308Z</time></trkpt><trkpt lat="40.9003433" lon="14.2668733"><ele>89.0</ele><time>2026-04-15T19:15:38.31Z</time></trkpt><trkpt lat="40.9002933" lon="14.266945"><ele>89.0</ele><time>2026-04-15T19:15:39.308Z</time></trkpt><trkpt lat="40.9002433" lon="14.2670117"><ele>89.0</ele><time>2026-04-15T19:15:40.309Z</time></trkpt><trkpt lat="40.9001983" lon="14.2670783"><ele>89.0</ele><time>2026-04-15T19:15:41.309Z</time></trkpt><trkpt lat="40.9001483" lon="14.2671467"><ele>88.99999999999999</ele><time>2026-04-15T19:15:42.309Z</time></trkpt><trkpt lat="40.9001017" lon="14.2672083"><ele>89.0</ele><time>2026-04-15T19:15:43.31Z</time></trkpt><trkpt lat="40.9000617" lon="14.267275"><ele>88.85714285714285</ele><time>2026-04-15T19:15:44.309Z</time></trkpt><trkpt lat="40.9000167" lon="14.2673383"><ele>88.71428571428571</ele><time>2026-04-15T19:15:45.309Z</time></trkpt><trkpt lat="40.8999733" lon="14.2674017"><ele>88.57142857142857</ele><time>2026-04-15T19:15:46.309Z</time></trkpt><trkpt lat="40.8999267" lon="14.2674683"><ele>88.42857142857142</ele><time>2026-04-15T19:15:47.306Z</time></trkpt><trkpt lat="40.8998783" lon="14.267535"><ele>88.28571428571428</ele><time>2026-04-15T19:15:48.307Z</time></trkpt><trkpt lat="40.8998283" lon="14.2676"><ele>88.14285714285714</ele><time>2026-04-15T19:15:49.308Z</time></trkpt><trkpt lat="40.8997817" lon="14.267665"><ele>88.0</ele><time>2026-04-15T19:15:50.307Z</time></trkpt><trkpt lat="40.899735" lon="14.2677333"><ele>88.0</ele><time>2026-04-15T19:15:51.308Z</time></trkpt><trkpt lat="40.89969" lon="14.2678017"><ele>88.0</ele><time>2026-04-15T19:15:52.307Z</time></trkpt><trkpt lat="40.899645" lon="14.26787"><ele>88.0</ele><time>2026-04-15T19:15:53.307Z</time></trkpt><trkpt lat="40.8995983" lon="14.2679367"><ele>88.0</ele><time>2026-04-15T19:15:54.307Z</time></trkpt><trkpt lat="40.899555" lon="14.2679983"><ele>88.0</ele><time>2026-04-15T19:15:55.306Z</time></trkpt><trkpt lat="40.8994733" lon="14.2681183"><ele>88.0</ele><time>2026-04-15T19:15:57.308Z</time></trkpt><trkpt lat="40.8993933" lon="14.26823"><ele>88.0</ele><time>2026-04-15T19:15:59.31Z</time></trkpt><trkpt lat="40.899305" lon="14.268335"><ele>88.0</ele><time>2026-04-15T19:16:01.31Z</time></trkpt><trkpt lat="40.8992" lon="14.2684167"><ele>88.0</ele><time>2026-04-15T19:16:03.307Z</time></trkpt><trkpt lat="40.89914" lon="14.2684467"><ele>88.0</ele><time>2026-04-15T19:16:04.308Z</time></trkpt><trkpt lat="40.8990183" lon="14.268495"><ele>88.0</ele><time>2026-04-15T19:16:06.308Z</time></trkpt><trkpt lat="40.8989067" lon="14.268555"><ele>88.16666666666666</ele><time>2026-04-15T19:16:08.305Z</time></trkpt><trkpt lat="40.8988033" lon="14.2686417"><ele>88.33333333333333</ele><time>2026-04-15T19:16:10.307Z</time></trkpt><trkpt lat="40.8987583" lon="14.2687017"><ele>88.5</ele><time>2026-04-15T19:16:11.307Z</time></trkpt><trkpt lat="40.8987217" lon="14.268775"><ele>88.66666666666667</ele><time>2026-04-15T19:16:12.311Z</time></trkpt><trkpt lat="40.8986983" lon="14.2688583"><ele>88.83333333333334</ele><time>2026-04-15T19:16:13.309Z</time></trkpt><trkpt lat="40.8986833" lon="14.2689533"><ele>89.0</ele><time>2026-04-15T19:16:14.305Z</time></trkpt><trkpt lat="40.8986733" lon="14.26905"><ele>89.16666666666667</ele><time>2026-04-15T19:16:15.31Z</time></trkpt><trkpt lat="40.89866" lon="14.2691467"><ele>89.33333333333334</ele><time>2026-04-15T19:16:16.31Z</time></trkpt><trkpt lat="40.8986383" lon="14.269245"><ele>89.5</ele><time>2026-04-15T19:16:17.309Z</time></trkpt><trkpt lat="40.8986033" lon="14.26934"><ele>89.66666666666667</ele><time>2026-04-15T19:16:18.307Z</time></trkpt><trkpt lat="40.898565" lon="14.2694283"><ele>89.83333333333333</ele><time>2026-04-15T19:16:19.309Z</time></trkpt><trkpt lat="40.8985167" lon="14.2695133"><ele>90.0</ele><time>2026-04-15T19:16:20.307Z</time></trkpt><trkpt lat="40.8984617" lon="14.2695967"><ele>90.0</ele><time>2026-04-15T19:16:21.308Z</time></trkpt><trkpt lat="40.898405" lon="14.2696817"><ele>90.0</ele><time>2026-04-15T19:16:22.307Z</time></trkpt><trkpt lat="40.8983483" lon="14.2697667"><ele>90.0</ele><time>2026-04-15T19:16:23.308Z</time></trkpt><trkpt lat="40.8982917" lon="14.2698533"><ele>90.0</ele><time>2026-04-15T19:16:24.307Z</time></trkpt><trkpt lat="40.898235" lon="14.2699383"><ele>90.0</ele><time>2026-04-15T19:16:25.308Z</time></trkpt><trkpt lat="40.8981817" lon="14.2700233"><ele>90.0</ele><time>2026-04-15T19:16:26.308Z</time></trkpt><trkpt lat="40.8981283" lon="14.2701083"><ele>90.0</ele><time>2026-04-15T19:16:27.308Z</time></trkpt><trkpt lat="40.898075" lon="14.2701933"><ele>90.0</ele><time>2026-04-15T19:16:28.308Z</time></trkpt><trkpt lat="40.898025" lon="14.2702783"><ele>90.0</ele><time>2026-04-15T19:16:29.308Z</time></trkpt><trkpt lat="40.8979817" lon="14.27036"><ele>90.0</ele><time>2026-04-15T19:16:30.308Z</time></trkpt><trkpt lat="40.89794" lon="14.27044"><ele>90.0</ele><time>2026-04-15T19:16:31.308Z</time></trkpt><trkpt lat="40.897885" lon="14.2705283"><ele>90.0</ele><time>2026-04-15T19:16:32.311Z</time></trkpt><trkpt lat="40.8978483" lon="14.27061"><ele>90.14285714285714</ele><time>2026-04-15T19:16:33.31Z</time></trkpt><trkpt lat="40.8978133" lon="14.27069"><ele>90.28571428571429</ele><time>2026-04-15T19:16:34.308Z</time></trkpt><trkpt lat="40.8977733" lon="14.2707733"><ele>90.42857142857143</ele><time>2026-04-15T19:16:35.309Z</time></trkpt><trkpt lat="40.8977417" lon="14.2708533"><ele>90.57142857142857</ele><time>2026-04-15T19:16:36.31Z</time></trkpt><trkpt lat="40.89771" lon="14.2709333"><ele>90.71428571428572</ele><time>2026-04-15T19:16:37.309Z</time></trkpt><trkpt lat="40.8976767" lon="14.2710133"><ele>90.85714285714286</ele><time>2026-04-15T19:16:38.31Z</time></trkpt><trkpt lat="40.897635" lon="14.2710883"><ele>91.0</ele><time>2026-04-15T19:16:39.308Z</time></trkpt><trkpt lat="40.897585" lon="14.2711567"><ele>90.85714285714286</ele><time>2026-04-15T19:16:40.309Z</time></trkpt><trkpt lat="40.8975383" lon="14.2712267"><ele>90.71428571428572</ele><time>2026-04-15T19:16:41.308Z</time></trkpt><trkpt lat="40.8974967" lon="14.2713033"><ele>90.57142857142857</ele><time>2026-04-15T19:16:42.31Z</time></trkpt><trkpt lat="40.897465" lon="14.2713883"><ele>90.42857142857143</ele><time>2026-04-15T19:16:43.309Z</time></trkpt><trkpt lat="40.89744" lon="14.271475"><ele>90.28571428571429</ele><time>2026-04-15T19:16:44.309Z</time></trkpt><trkpt lat="40.89742" lon="14.2715617"><ele>90.14285714285714</ele><time>2026-04-15T19:16:45.31Z</time></trkpt><trkpt lat="40.8974" lon="14.2716467"><ele>90.0</ele><time>2026-04-15T19:16:46.307Z</time></trkpt><trkpt lat="40.8973767" lon="14.27173"><ele>90.0</ele><time>2026-04-15T19:16:47.307Z</time></trkpt><trkpt lat="40.8973517" lon="14.2718183"><ele>90.0</ele><time>2026-04-15T19:16:48.306Z</time></trkpt><trkpt lat="40.8973233" lon="14.2719"><ele>90.0</ele><time>2026-04-15T19:16:49.308Z</time></trkpt><trkpt lat="40.8972967" lon="14.27198"><ele>90.0</ele><time>2026-04-15T19:16:50.307Z</time></trkpt><trkpt lat="40.89727" lon="14.27206"><ele>90.0</ele><time>2026-04-15T19:16:51.308Z</time></trkpt><trkpt lat="40.89724" lon="14.2721417"><ele>90.0</ele><time>2026-04-15T19:16:52.305Z</time></trkpt><trkpt lat="40.8972133" lon="14.272225"><ele>90.0</ele><time>2026-04-15T19:16:53.306Z</time></trkpt><trkpt lat="40.8971967" lon="14.27231"><ele>90.14285714285714</ele><time>2026-04-15T19:16:54.309Z</time></trkpt><trkpt lat="40.8971833" lon="14.2723967"><ele>90.28571428571429</ele><time>2026-04-15T19:16:55.307Z</time></trkpt><trkpt lat="40.8971717" lon="14.2724833"><ele>90.42857142857143</ele><time>2026-04-15T19:16:56.306Z</time></trkpt><trkpt lat="40.8971617" lon="14.27257"><ele>90.57142857142857</ele><time>2026-04-15T19:16:57.307Z</time></trkpt><trkpt lat="40.897155" lon="14.2726567"><ele>90.71428571428572</ele><time>2026-04-15T19:16:58.308Z</time></trkpt><trkpt lat="40.8971467" lon="14.2727417"><ele>90.85714285714286</ele><time>2026-04-15T19:16:59.307Z</time></trkpt><trkpt lat="40.8971467" lon="14.2728283"><ele>91.0</ele><time>2026-04-15T19:17:00.311Z</time></trkpt><trkpt lat="40.8971433" lon="14.2729183"><ele>91.0</ele><time>2026-04-15T19:17:01.31Z</time></trkpt><trkpt lat="40.8971433" lon="14.27301"><ele>91.0</ele><time>2026-04-15T19:17:02.306Z</time></trkpt><trkpt lat="40.8971467" lon="14.2731"><ele>91.0</ele><time>2026-04-15T19:17:03.31Z</time></trkpt><trkpt lat="40.897155" lon="14.273195"><ele>91.0</ele><time>2026-04-15T19:17:04.307Z</time></trkpt><trkpt lat="40.897155" lon="14.27328"><ele>91.0</ele><time>2026-04-15T19:17:05.309Z</time></trkpt><trkpt lat="40.89716" lon="14.2733717"><ele>91.0</ele><time>2026-04-15T19:17:06.31Z</time></trkpt><trkpt lat="40.8971583" lon="14.27346"><ele>91.0</ele><time>2026-04-15T19:17:07.309Z</time></trkpt><trkpt lat="40.8971567" lon="14.27355"><ele>91.42857142857143</ele><time>2026-04-15T19:17:08.307Z</time></trkpt><trkpt lat="40.8971583" lon="14.27364"><ele>91.85714285714286</ele><time>2026-04-15T19:17:09.31Z</time></trkpt><trkpt lat="40.89716" lon="14.2737283"><ele>92.28571428571428</ele><time>2026-04-15T19:17:10.309Z</time></trkpt><trkpt lat="40.8971667" lon="14.273815"><ele>92.71428571428572</ele><time>2026-04-15T19:17:11.31Z</time></trkpt><trkpt lat="40.8971717" lon="14.2739017"><ele>93.14285714285714</ele><time>2026-04-15T19:17:12.309Z</time></trkpt><trkpt lat="40.8971683" lon="14.2739867"><ele>93.57142857142857</ele><time>2026-04-15T19:17:13.309Z</time></trkpt><trkpt lat="40.897175" lon="14.2740733"><ele>94.0</ele><time>2026-04-15T19:17:14.311Z</time></trkpt><trkpt lat="40.89718" lon="14.2741633"><ele>94.28571428571428</ele><time>2026-04-15T19:17:15.309Z</time></trkpt><trkpt lat="40.897185" lon="14.2742467"><ele>94.57142857142857</ele><time>2026-04-15T19:17:16.309Z</time></trkpt><trkpt lat="40.8971833" lon="14.27433"><ele>94.85714285714286</ele><time>2026-04-15T19:17:17.306Z</time></trkpt><trkpt lat="40.89718" lon="14.2744167"><ele>95.14285714285714</ele><time>2026-04-15T19:17:18.308Z</time></trkpt><trkpt lat="40.897185" lon="14.2745033"><ele>95.42857142857143</ele><time>2026-04-15T19:17:19.306Z</time></trkpt><trkpt lat="40.89719" lon="14.27459"><ele>95.71428571428571</ele><time>2026-04-15T19:17:20.308Z</time></trkpt><trkpt lat="40.897185" lon="14.2747467"><ele>96.0</ele><time>2026-04-15T19:17:22.307Z</time></trkpt><trkpt lat="40.897175" lon="14.2749033"><ele>95.0</ele><time>2026-04-15T19:17:24.308Z</time></trkpt><trkpt lat="40.897165" lon="14.27506"><ele>94.0</ele><time>2026-04-15T19:17:26.311Z</time></trkpt><trkpt lat="40.897165" lon="14.2752117"><ele>93.0</ele><time>2026-04-15T19:17:28.307Z</time></trkpt><trkpt lat="40.897165" lon="14.275355"><ele>92.0</ele><time>2026-04-15T19:17:30.311Z</time></trkpt><trkpt lat="40.8971683" lon="14.2755067"><ele>91.0</ele><time>2026-04-15T19:17:32.308Z</time></trkpt><trkpt lat="40.8971667" lon="14.27565"><ele>90.0</ele><time>2026-04-15T19:17:34.309Z</time></trkpt><trkpt lat="40.89717" lon="14.2757917"><ele>89.0</ele><time>2026-04-15T19:17:36.307Z</time></trkpt><trkpt lat="40.897175" lon="14.275925"><ele>88.0</ele><time>2026-04-15T19:17:38.308Z</time></trkpt><trkpt lat="40.8971733" lon="14.2760567"><ele>87.0</ele><time>2026-04-15T19:17:40.31Z</time></trkpt><trkpt lat="40.8971733" lon="14.27622"><ele>87.0</ele><time>2026-04-15T19:17:42.311Z</time></trkpt><trkpt lat="40.8971717" lon="14.2763083"><ele>87.0</ele><time>2026-04-15T19:17:43.309Z</time></trkpt><trkpt lat="40.89717" lon="14.276405"><ele>87.0</ele><time>2026-04-15T19:17:44.311Z</time></trkpt><trkpt lat="40.8971633" lon="14.2765117"><ele>87.0</ele><time>2026-04-15T19:17:45.308Z</time></trkpt><trkpt lat="40.8971567" lon="14.2766183"><ele>87.0</ele><time>2026-04-15T19:17:46.307Z</time></trkpt><trkpt lat="40.8971533" lon="14.2767333"><ele>87.0</ele><time>2026-04-15T19:17:47.307Z</time></trkpt><trkpt lat="40.8971517" lon="14.2768567"><ele>86.8</ele><time>2026-04-15T19:17:48.308Z</time></trkpt><trkpt lat="40.8971517" lon="14.27698"><ele>86.6</ele><time>2026-04-15T19:17:49.305Z</time></trkpt><trkpt lat="40.89715" lon="14.2771017"><ele>86.39999999999999</ele><time>2026-04-15T19:17:50.308Z</time></trkpt><trkpt lat="40.8971333" lon="14.2772217"><ele>86.19999999999999</ele><time>2026-04-15T19:17:51.308Z</time></trkpt><trkpt lat="40.8971167" lon="14.27734"><ele>86.0</ele><time>2026-04-15T19:17:52.308Z</time></trkpt><trkpt lat="40.897105" lon="14.2774517"><ele>85.83333333333334</ele><time>2026-04-15T19:17:53.306Z</time></trkpt><trkpt lat="40.897085" lon="14.277545"><ele>85.66666666666667</ele><time>2026-04-15T19:17:54.311Z</time></trkpt><trkpt lat="40.8970433" lon="14.2776233"><ele>85.5</ele><time>2026-04-15T19:17:55.307Z</time></trkpt><trkpt lat="40.8969767" lon="14.2776967"><ele>85.33333333333333</ele><time>2026-04-15T19:17:56.311Z</time></trkpt><trkpt lat="40.8969083" lon="14.2777617"><ele>85.16666666666666</ele><time>2026-04-15T19:17:57.307Z</time></trkpt><trkpt lat="40.8968317" lon="14.2778133"><ele>85.0</ele><time>2026-04-15T19:17:58.305Z</time></trkpt><trkpt lat="40.896755" lon="14.2778517"><ele>85.0</ele><time>2026-04-15T19:17:59.308Z</time></trkpt><trkpt lat="40.8966767" lon="14.27787"><ele>85.0</ele><time>2026-04-15T19:18:00.308Z</time></trkpt><trkpt lat="40.8965983" lon="14.2778767"><ele>85.0</ele><time>2026-04-15T19:18:01.308Z</time></trkpt><trkpt lat="40.8965233" lon="14.2778867"><ele>85.0</ele><time>2026-04-15T19:18:02.309Z</time></trkpt><trkpt lat="40.8964433" lon="14.2778933"><ele>85.0</ele><time>2026-04-15T19:18:03.307Z</time></trkpt><trkpt lat="40.896365" lon="14.277895"><ele>85.0</ele><time>2026-04-15T19:18:04.309Z</time></trkpt><trkpt lat="40.8962883" lon="14.2779017"><ele>85.0</ele><time>2026-04-15T19:18:05.308Z</time></trkpt><trkpt lat="40.89621" lon="14.2779133"><ele>85.0</ele><time>2026-04-15T19:18:06.309Z</time></trkpt><trkpt lat="40.8961267" lon="14.2779267"><ele>85.0</ele><time>2026-04-15T19:18:07.307Z</time></trkpt><trkpt lat="40.8960467" lon="14.27794"><ele>85.0</ele><time>2026-04-15T19:18:08.309Z</time></trkpt><trkpt lat="40.895965" lon="14.2779517"><ele>85.0</ele><time>2026-04-15T19:18:09.307Z</time></trkpt><trkpt lat="40.8958867" lon="14.27796"><ele>85.0</ele><time>2026-04-15T19:18:10.306Z</time></trkpt><trkpt lat="40.8958067" lon="14.277975"><ele>85.0</ele><time>2026-04-15T19:18:11.308Z</time></trkpt><trkpt lat="40.895725" lon="14.27799"><ele>85.0</ele><time>2026-04-15T19:18:12.309Z</time></trkpt><trkpt lat="40.8956433" lon="14.2780017"><ele>85.0</ele><time>2026-04-15T19:18:13.307Z</time></trkpt><trkpt lat="40.89557" lon="14.27801"><ele>85.0</ele><time>2026-04-15T19:18:14.308Z</time></trkpt><trkpt lat="40.8954933" lon="14.27802"><ele>85.0</ele><time>2026-04-15T19:18:15.308Z</time></trkpt><trkpt lat="40.8954133" lon="14.2780383"><ele>85.0</ele><time>2026-04-15T19:18:16.309Z</time></trkpt><trkpt lat="40.8953333" lon="14.2780583"><ele>85.0</ele><time>2026-04-15T19:18:17.308Z</time></trkpt><trkpt lat="40.8952567" lon="14.2780717"><ele>85.0</ele><time>2026-04-15T19:18:18.308Z</time></trkpt><trkpt lat="40.89518" lon="14.2780817"><ele>85.0</ele><time>2026-04-15T19:18:19.307Z</time></trkpt><trkpt lat="40.8951033" lon="14.2780917"><ele>85.0</ele><time>2026-04-15T19:18:20.308Z</time></trkpt><trkpt lat="40.8950283" lon="14.2781017"><ele>85.0</ele><time>2026-04-15T19:18:21.308Z</time></trkpt><trkpt lat="40.894955" lon="14.2781117"><ele>85.0</ele><time>2026-04-15T19:18:22.308Z</time></trkpt><trkpt lat="40.8948817" lon="14.2781167"><ele>85.0</ele><time>2026-04-15T19:18:23.308Z</time></trkpt><trkpt lat="40.89481" lon="14.27813"><ele>85.0</ele><time>2026-04-15T19:18:24.307Z</time></trkpt><trkpt lat="40.8947383" lon="14.2781433"><ele>85.0</ele><time>2026-04-15T19:18:25.307Z</time></trkpt><trkpt lat="40.89467" lon="14.278155"><ele>85.0</ele><time>2026-04-15T19:18:26.308Z</time></trkpt><trkpt lat="40.8946" lon="14.2781667"><ele>85.0</ele><time>2026-04-15T19:18:27.307Z</time></trkpt><trkpt lat="40.8945333" lon="14.2781783"><ele>85.0</ele><time>2026-04-15T19:18:28.308Z</time></trkpt><trkpt lat="40.8944667" lon="14.27819"><ele>85.0</ele><time>2026-04-15T19:18:29.308Z</time></trkpt><trkpt lat="40.894345" lon="14.2782067"><ele>85.4</ele><time>2026-04-15T19:18:31.307Z</time></trkpt><trkpt lat="40.8942233" lon="14.278225"><ele>85.8</ele><time>2026-04-15T19:18:33.308Z</time></trkpt><trkpt lat="40.89416" lon="14.278225"><ele>86.19999999999999</ele><time>2026-04-15T19:18:34.308Z</time></trkpt><trkpt lat="40.89404" lon="14.27824"><ele>86.6</ele><time>2026-04-15T19:18:36.308Z</time></trkpt><trkpt lat="40.89392" lon="14.2782583"><ele>87.0</ele><time>2026-04-15T19:18:38.31Z</time></trkpt><trkpt lat="40.8938" lon="14.2782783"><ele>87.0</ele><time>2026-04-15T19:18:40.308Z</time></trkpt><trkpt lat="40.893675" lon="14.2782967"><ele>87.0</ele><time>2026-04-15T19:18:42.309Z</time></trkpt><trkpt lat="40.8935517" lon="14.27832"><ele>87.0</ele><time>2026-04-15T19:18:44.307Z</time></trkpt><trkpt lat="40.8934317" lon="14.2783417"><ele>87.0</ele><time>2026-04-15T19:18:46.308Z</time></trkpt><trkpt lat="40.8933133" lon="14.27836"><ele>87.5</ele><time>2026-04-15T19:18:48.308Z</time></trkpt><trkpt lat="40.8932017" lon="14.2783867"><ele>88.0</ele><time>2026-04-15T19:18:50.31Z</time></trkpt><trkpt lat="40.8930817" lon="14.278415"><ele>88.5</ele><time>2026-04-15T19:18:52.307Z</time></trkpt><trkpt lat="40.8929617" lon="14.2784267"><ele>89.0</ele><time>2026-04-15T19:18:54.307Z</time></trkpt><trkpt lat="40.8928517" lon="14.2784417"><ele>89.0</ele><time>2026-04-15T19:18:56.309Z</time></trkpt><trkpt lat="40.892735" lon="14.2784717"><ele>89.0</ele><time>2026-04-15T19:18:58.308Z</time></trkpt><trkpt lat="40.8926183" lon="14.2785083"><ele>89.0</ele><time>2026-04-15T19:19:00.307Z</time></trkpt><trkpt lat="40.8924967" lon="14.2785483"><ele>89.0</ele><time>2026-04-15T19:19:02.309Z</time></trkpt><trkpt lat="40.892375" lon="14.2785833"><ele>90.2</ele><time>2026-04-15T19:19:04.308Z</time></trkpt><trkpt lat="40.8923117" lon="14.2785983"><ele>91.4</ele><time>2026-04-15T19:19:05.308Z</time></trkpt><trkpt lat="40.8921933" lon="14.2786183"><ele>92.6</ele><time>2026-04-15T19:19:07.308Z</time></trkpt><trkpt lat="40.89213" lon="14.27863"><ele>93.8</ele><time>2026-04-15T19:19:08.307Z</time></trkpt><trkpt lat="40.89201" lon="14.278645"><ele>95.0</ele><time>2026-04-15T19:19:10.308Z</time></trkpt><trkpt lat="40.8918933" lon="14.2786683"><ele>95.0</ele><time>2026-04-15T19:19:12.309Z</time></trkpt><trkpt lat="40.89178" lon="14.278675"><ele>95.0</ele><time>2026-04-15T19:19:14.308Z</time></trkpt><trkpt lat="40.8916583" lon="14.2786917"><ele>95.0</ele><time>2026-04-15T19:19:16.308Z</time></trkpt><trkpt lat="40.8915467" lon="14.278685"><ele>95.0</ele><time>2026-04-15T19:19:18.307Z</time></trkpt><trkpt lat="40.8914383" lon="14.2786967"><ele>94.66666666666667</ele><time>2026-04-15T19:19:20.309Z</time></trkpt><trkpt lat="40.891325" lon="14.2786967"><ele>94.33333333333334</ele><time>2026-04-15T19:19:22.307Z</time></trkpt><trkpt lat="40.8912533" lon="14.2786983"><ele>94.0</ele><time>2026-04-15T19:19:24.306Z</time></trkpt><trkpt lat="40.8912283" lon="14.2787933"><ele>93.66666666666667</ele><time>2026-04-15T19:19:27.308Z</time></trkpt><trkpt lat="40.89128" lon="14.2788783"><ele>93.33333333333333</ele><time>2026-04-15T19:19:29.308Z</time></trkpt><trkpt lat="40.8913517" lon="14.2789633"><ele>93.0</ele><time>2026-04-15T19:19:31.308Z</time></trkpt><trkpt lat="40.89144" lon="14.27903"><ele>92.4</ele><time>2026-04-15T19:19:33.309Z</time></trkpt><trkpt lat="40.8915367" lon="14.2790817"><ele>91.80000000000001</ele><time>2026-04-15T19:19:35.308Z</time></trkpt><trkpt lat="40.8916283" lon="14.2791267"><ele>91.2</ele><time>2026-04-15T19:19:37.306Z</time></trkpt><trkpt lat="40.891715" lon="14.2791833"><ele>90.6</ele><time>2026-04-15T19:19:39.308Z</time></trkpt><trkpt lat="40.89179" lon="14.2792383"><ele>90.0</ele><time>2026-04-15T19:19:41.309Z</time></trkpt><trkpt lat="40.891825" lon="14.27932"><ele>90.0</ele><time>2026-04-15T19:19:43.308Z</time></trkpt><trkpt lat="40.89179" lon="14.2794033"><ele>90.0</ele><time>2026-04-15T19:19:45.308Z</time></trkpt><trkpt lat="40.8917017" lon="14.2794733"><ele>90.0</ele><time>2026-04-15T19:19:47.308Z</time></trkpt><trkpt lat="40.8916117" lon="14.2795433"><ele>90.0</ele><time>2026-04-15T19:19:49.309Z</time></trkpt><trkpt lat="40.8915217" lon="14.2796267"><ele>90.0</ele><time>2026-04-15T19:19:51.308Z</time></trkpt><trkpt lat="40.89143" lon="14.279705"><ele>89.25</ele><time>2026-04-15T19:19:53.308Z</time></trkpt><trkpt lat="40.8913383" lon="14.2797917"><ele>88.5</ele><time>2026-04-15T19:19:55.309Z</time></trkpt><trkpt lat="40.8912433" lon="14.27989"><ele>87.75</ele><time>2026-04-15T19:19:57.307Z</time></trkpt><trkpt lat="40.89115" lon="14.27998"><ele>87.0</ele><time>2026-04-15T19:19:59.308Z</time></trkpt><trkpt lat="40.891065" lon="14.2800717"><ele>87.0</ele><time>2026-04-15T19:20:01.308Z</time></trkpt><trkpt lat="40.89099" lon="14.2801567"><ele>87.0</ele><time>2026-04-15T19:20:03.309Z</time></trkpt><trkpt lat="40.8909067" lon="14.2802417"><ele>87.0</ele><time>2026-04-15T19:20:05.308Z</time></trkpt><trkpt lat="40.8908133" lon="14.2803267"><ele>87.0</ele><time>2026-04-15T19:20:07.308Z</time></trkpt><trkpt lat="40.8907183" lon="14.2804133"><ele>87.0</ele><time>2026-04-15T19:20:09.308Z</time></trkpt><trkpt lat="40.8906317" lon="14.2805033"><ele>86.8</ele><time>2026-04-15T19:20:11.307Z</time></trkpt><trkpt lat="40.8905433" lon="14.2805917"><ele>86.6</ele><time>2026-04-15T19:20:13.307Z</time></trkpt><trkpt lat="40.8904583" lon="14.2806867"><ele>86.39999999999999</ele><time>2026-04-15T19:20:15.308Z</time></trkpt><trkpt lat="40.8903733" lon="14.2807783"><ele>86.19999999999999</ele><time>2026-04-15T19:20:17.309Z</time></trkpt><trkpt lat="40.8902767" lon="14.2808567"><ele>86.0</ele><time>2026-04-15T19:20:19.308Z</time></trkpt><trkpt lat="40.8902033" lon="14.2809483"><ele>86.0</ele><time>2026-04-15T19:20:21.308Z</time></trkpt><trkpt lat="40.8901883" lon="14.281075"><ele>86.0</ele><time>2026-04-15T19:20:23.31Z</time></trkpt><trkpt lat="40.8902533" lon="14.281195"><ele>86.0</ele><time>2026-04-15T19:20:25.309Z</time></trkpt><trkpt lat="40.8903" lon="14.2812517"><ele>86.0</ele><time>2026-04-15T19:20:26.311Z</time></trkpt><trkpt lat="40.8903483" lon="14.2813133"><ele>86.0</ele><time>2026-04-15T19:20:27.308Z</time></trkpt><trkpt lat="40.8903983" lon="14.2813833"><ele>86.0</ele><time>2026-04-15T19:20:28.307Z</time></trkpt><trkpt lat="40.8904433" lon="14.2814533"><ele>86.0</ele><time>2026-04-15T19:20:29.307Z</time></trkpt><trkpt lat="40.8904917" lon="14.2815267"><ele>86.0</ele><time>2026-04-15T19:20:30.31Z</time></trkpt><trkpt lat="40.8905367" lon="14.2815967"><ele>86.0</ele><time>2026-04-15T19:20:31.309Z</time></trkpt><trkpt lat="40.8905833" lon="14.28166"><ele>86.0</ele><time>2026-04-15T19:20:32.31Z</time></trkpt><trkpt lat="40.89063" lon="14.2817233"><ele>86.0</ele><time>2026-04-15T19:20:33.306Z</time></trkpt><trkpt lat="40.890675" lon="14.2817833"><ele>86.0</ele><time>2026-04-15T19:20:34.31Z</time></trkpt><trkpt lat="40.8907433" lon="14.281915"><ele>86.0</ele><time>2026-04-15T19:20:36.308Z</time></trkpt><trkpt lat="40.89081" lon="14.2820483"><ele>86.0</ele><time>2026-04-15T19:20:38.307Z</time></trkpt><trkpt lat="40.8908717" lon="14.2821717"><ele>86.0</ele><time>2026-04-15T19:20:40.308Z</time></trkpt><trkpt lat="40.8909583" lon="14.28228"><ele>86.0</ele><time>2026-04-15T19:20:42.308Z</time></trkpt><trkpt lat="40.8910217" lon="14.28238"><ele>86.19999999999999</ele><time>2026-04-15T19:20:44.307Z</time></trkpt><trkpt lat="40.891105" lon="14.2824783"><ele>86.39999999999999</ele><time>2026-04-15T19:20:46.305Z</time></trkpt><trkpt lat="40.8911783" lon="14.28257"><ele>86.6</ele><time>2026-04-15T19:20:48.308Z</time></trkpt><trkpt lat="40.8912267" lon="14.2826683"><ele>86.8</ele><time>2026-04-15T19:20:50.309Z</time></trkpt><trkpt lat="40.891235" lon="14.282775"><ele>87.0</ele><time>2026-04-15T19:20:53.308Z</time></trkpt><trkpt lat="40.8911883" lon="14.2828417"><ele>87.0</ele><time>2026-04-15T19:20:55.308Z</time></trkpt><trkpt lat="40.8911617" lon="14.2829517"><ele>87.0</ele><time>2026-04-15T19:20:58.308Z</time></trkpt><trkpt lat="40.8912117" lon="14.28303"><ele>87.0</ele><time>2026-04-15T19:21:00.308Z</time></trkpt><trkpt lat="40.891285" lon="14.2830967"><ele>87.0</ele><time>2026-04-15T19:21:02.309Z</time></trkpt><trkpt lat="40.89137" lon="14.2831717"><ele>87.0</ele><time>2026-04-15T19:21:04.308Z</time></trkpt><trkpt lat="40.8914717" lon="14.2832367"><ele>86.5</ele><time>2026-04-15T19:21:06.308Z</time></trkpt><trkpt lat="40.8915833" lon="14.2832983"><ele>86.0</ele><time>2026-04-15T19:21:08.308Z</time></trkpt><trkpt lat="40.8916933" lon="14.2833633"><ele>85.5</ele><time>2026-04-15T19:21:10.309Z</time></trkpt><trkpt lat="40.8917983" lon="14.28343"><ele>85.0</ele><time>2026-04-15T19:21:12.308Z</time></trkpt><trkpt lat="40.8919083" lon="14.2835"><ele>85.0</ele><time>2026-04-15T19:21:14.308Z</time></trkpt><trkpt lat="40.8920083" lon="14.2835917"><ele>85.0</ele><time>2026-04-15T19:21:16.31Z</time></trkpt><trkpt lat="40.8920917" lon="14.2836867"><ele>85.0</ele><time>2026-04-15T19:21:18.31Z</time></trkpt><trkpt lat="40.8921667" lon="14.2837783"><ele>85.0</ele><time>2026-04-15T19:21:20.311Z</time></trkpt><trkpt lat="40.8922467" lon="14.2838733"><ele>85.0</ele><time>2026-04-15T19:21:22.308Z</time></trkpt><trkpt lat="40.8923317" lon="14.2839683"><ele>85.25</ele><time>2026-04-15T19:21:24.311Z</time></trkpt><trkpt lat="40.8924133" lon="14.2840667"><ele>85.5</ele><time>2026-04-15T19:21:26.308Z</time></trkpt><trkpt lat="40.8924917" lon="14.284175"><ele>85.75</ele><time>2026-04-15T19:21:28.307Z</time></trkpt><trkpt lat="40.8925717" lon="14.284285"><ele>86.0</ele><time>2026-04-15T19:21:30.309Z</time></trkpt><trkpt lat="40.8926517" lon="14.28439"><ele>86.0</ele><time>2026-04-15T19:21:32.308Z</time></trkpt><trkpt lat="40.892735" lon="14.2845017"><ele>86.0</ele><time>2026-04-15T19:21:34.307Z</time></trkpt><trkpt lat="40.8928217" lon="14.2846083"><ele>86.0</ele><time>2026-04-15T19:21:36.308Z</time></trkpt><trkpt lat="40.8928967" lon="14.2847267"><ele>86.0</ele><time>2026-04-15T19:21:38.308Z</time></trkpt><trkpt lat="40.8929667" lon="14.2848333"><ele>85.83333333333334</ele><time>2026-04-15T19:21:40.306Z</time></trkpt><trkpt lat="40.89303" lon="14.284935"><ele>85.66666666666667</ele><time>2026-04-15T19:21:42.308Z</time></trkpt><trkpt lat="40.8930833" lon="14.2850367"><ele>85.5</ele><time>2026-04-15T19:21:44.309Z</time></trkpt><trkpt lat="40.89314" lon="14.2851717"><ele>85.33333333333333</ele><time>2026-04-15T19:21:46.308Z</time></trkpt><trkpt lat="40.89317" lon="14.285245"><ele>85.16666666666666</ele><time>2026-04-15T19:21:47.308Z</time></trkpt><trkpt lat="40.8931967" lon="14.2853233"><ele>85.0</ele><time>2026-04-15T19:21:48.306Z</time></trkpt><trkpt lat="40.8932233" lon="14.2854033"><ele>85.0</ele><time>2026-04-15T19:21:49.307Z</time></trkpt><trkpt lat="40.8932517" lon="14.28548"><ele>85.0</ele><time>2026-04-15T19:21:50.309Z</time></trkpt><trkpt lat="40.8933083" lon="14.2856267"><ele>85.0</ele><time>2026-04-15T19:21:52.308Z</time></trkpt><trkpt lat="40.8933717" lon="14.2857617"><ele>85.0</ele><time>2026-04-15T19:21:54.306Z</time></trkpt><trkpt lat="40.893425" lon="14.2859033"><ele>85.0</ele><time>2026-04-15T19:21:56.308Z</time></trkpt><trkpt lat="40.8934517" lon="14.2860467"><ele>84.2</ele><time>2026-04-15T19:21:58.309Z</time></trkpt><trkpt lat="40.8934933" lon="14.2861933"><ele>83.4</ele><time>2026-04-15T19:22:00.308Z</time></trkpt><trkpt lat="40.8935283" lon="14.28633"><ele>82.6</ele><time>2026-04-15T19:22:02.311Z</time></trkpt><trkpt lat="40.8935617" lon="14.2864667"><ele>81.8</ele><time>2026-04-15T19:22:04.309Z</time></trkpt><trkpt lat="40.8935933" lon="14.286595"><ele>81.0</ele><time>2026-04-15T19:22:06.308Z</time></trkpt><trkpt lat="40.8936233" lon="14.2867267"><ele>80.8</ele><time>2026-04-15T19:22:08.308Z</time></trkpt><trkpt lat="40.893665" lon="14.2868517"><ele>80.6</ele><time>2026-04-15T19:22:10.308Z</time></trkpt><trkpt lat="40.8936983" lon="14.2869883"><ele>80.4</ele><time>2026-04-15T19:22:12.308Z</time></trkpt><trkpt lat="40.893735" lon="14.2871083"><ele>80.2</ele><time>2026-04-15T19:22:14.31Z</time></trkpt><trkpt lat="40.8937683" lon="14.28723"><ele>80.0</ele><time>2026-04-15T19:22:16.309Z</time></trkpt><trkpt lat="40.8938" lon="14.2873417"><ele>80.0</ele><time>2026-04-15T19:22:18.308Z</time></trkpt><trkpt lat="40.89383" lon="14.28744"><ele>80.0</ele><time>2026-04-15T19:22:20.308Z</time></trkpt><trkpt lat="40.8937983" lon="14.2875467"><ele>80.0</ele><time>2026-04-15T19:22:23.307Z</time></trkpt><trkpt lat="40.8937033" lon="14.2876"><ele>80.0</ele><time>2026-04-15T19:22:25.308Z</time></trkpt><trkpt lat="40.8936583" lon="14.2877167"><ele>80.0</ele><time>2026-04-15T19:22:27.311Z</time></trkpt><trkpt lat="40.8936967" lon="14.2878283"><ele>80.0</ele><time>2026-04-15T19:22:29.309Z</time></trkpt><trkpt lat="40.8937517" lon="14.2879083"><ele>80.0</ele><time>2026-04-15T19:22:32.311Z</time></trkpt><trkpt lat="40.8937119" lon="14.2880129"><ele>80.0</ele><time>2026-04-15T19:23:04.423Z</time></trkpt></trkseg></trk></gpx>